<?xml version="1.0" encoding="UTF-8" standalone="no" ?>
<gpx xmlns="http://www.topografix.com/GPX/1/1" xmlns:xsi="http://www.w3.org/2001/XMLSchema-instance" xsi:schemaLocation="http://www.topografix.com/GPX/1/1 http://www.topografix.com/GPX/1/1/gpx.xsd" version="1.1" creator="VisuGPX - https://www.visugpx.com">
  <metadata>
    <name>Daours, Mont de Corbie</name>
  </metadata>
  <trk>
    <name><![CDATA[Daours, Mont de Corbie]]></name>
    <extensions>
      <line xmlns="http://www.topografix.com/GPX/gpx_style/0/2">
        <color>0000FF</color>
        <width>4</width>
      </line>
    </extensions>
    <trkseg>
      <trkpt lat="49.90487" lon="2.4462">
        <ele>37</ele>
        <time>2022-03-30T11:56:41Z</time>
      </trkpt>
      <trkpt lat="49.90487" lon="2.4462">
        <ele>35.7</ele>
        <time>2022-03-30T11:56:42Z</time>
      </trkpt>
      <trkpt lat="49.90487" lon="2.4462">
        <ele>35.7</ele>
        <time>2022-03-30T11:56:43Z</time>
      </trkpt>
      <trkpt lat="49.90487" lon="2.4462">
        <ele>35.7</ele>
        <time>2022-03-30T11:56:44Z</time>
      </trkpt>
      <trkpt lat="49.90487" lon="2.4462">
        <ele>35.7</ele>
        <time>2022-03-30T11:56:45Z</time>
      </trkpt>
      <trkpt lat="49.90487" lon="2.4462">
        <ele>35.7</ele>
        <time>2022-03-30T11:56:46Z</time>
      </trkpt>
      <trkpt lat="49.90487" lon="2.4462">
        <ele>35.7</ele>
        <time>2022-03-30T11:56:47Z</time>
      </trkpt>
      <trkpt lat="49.90487" lon="2.4462">
        <ele>35.7</ele>
        <time>2022-03-30T11:56:48Z</time>
      </trkpt>
      <trkpt lat="49.90487" lon="2.4462">
        <ele>35.7</ele>
        <time>2022-03-30T11:56:49Z</time>
      </trkpt>
      <trkpt lat="49.90487" lon="2.4462">
        <ele>35.7</ele>
        <time>2022-03-30T11:56:50Z</time>
      </trkpt>
      <trkpt lat="49.90487" lon="2.4462">
        <ele>35.7</ele>
        <time>2022-03-30T11:56:51Z</time>
      </trkpt>
      <trkpt lat="49.90487" lon="2.4462">
        <ele>35.7</ele>
        <time>2022-03-30T11:56:52Z</time>
      </trkpt>
      <trkpt lat="49.90487" lon="2.4462">
        <ele>35.7</ele>
        <time>2022-03-30T11:56:53Z</time>
      </trkpt>
      <trkpt lat="49.90487" lon="2.4462">
        <ele>35.7</ele>
        <time>2022-03-30T11:56:54Z</time>
      </trkpt>
      <trkpt lat="49.90487" lon="2.4462">
        <ele>35.7</ele>
        <time>2022-03-30T11:56:55Z</time>
      </trkpt>
      <trkpt lat="49.90487" lon="2.4462">
        <ele>35.7</ele>
        <time>2022-03-30T11:56:56Z</time>
      </trkpt>
      <trkpt lat="49.90486" lon="2.4462">
        <ele>35.7</ele>
        <time>2022-03-30T11:56:57Z</time>
      </trkpt>
      <trkpt lat="49.90486" lon="2.4462">
        <ele>35.7</ele>
        <time>2022-03-30T11:56:58Z</time>
      </trkpt>
      <trkpt lat="49.90486" lon="2.4462">
        <ele>35.7</ele>
        <time>2022-03-30T11:56:59Z</time>
      </trkpt>
      <trkpt lat="49.90486" lon="2.4462">
        <ele>35.7</ele>
        <time>2022-03-30T11:57:00Z</time>
      </trkpt>
      <trkpt lat="49.90486" lon="2.44621">
        <ele>35.7</ele>
        <time>2022-03-30T11:57:01Z</time>
      </trkpt>
      <trkpt lat="49.90486" lon="2.44621">
        <ele>35.7</ele>
        <time>2022-03-30T11:57:02Z</time>
      </trkpt>
      <trkpt lat="49.90486" lon="2.44621">
        <ele>35.7</ele>
        <time>2022-03-30T11:57:03Z</time>
      </trkpt>
      <trkpt lat="49.90486" lon="2.44621">
        <ele>35.7</ele>
        <time>2022-03-30T11:57:04Z</time>
      </trkpt>
      <trkpt lat="49.90486" lon="2.44621">
        <ele>35.7</ele>
        <time>2022-03-30T11:57:05Z</time>
      </trkpt>
      <trkpt lat="49.90486" lon="2.44621">
        <ele>35.7</ele>
        <time>2022-03-30T11:57:06Z</time>
      </trkpt>
      <trkpt lat="49.90486" lon="2.44621">
        <ele>35.7</ele>
        <time>2022-03-30T11:57:07Z</time>
      </trkpt>
      <trkpt lat="49.90486" lon="2.44621">
        <ele>35.7</ele>
        <time>2022-03-30T11:57:08Z</time>
      </trkpt>
      <trkpt lat="49.90486" lon="2.44621">
        <ele>35.7</ele>
        <time>2022-03-30T11:57:09Z</time>
      </trkpt>
      <trkpt lat="49.90486" lon="2.44621">
        <ele>35.7</ele>
        <time>2022-03-30T11:57:10Z</time>
      </trkpt>
      <trkpt lat="49.90486" lon="2.44621">
        <ele>35.7</ele>
        <time>2022-03-30T11:57:11Z</time>
      </trkpt>
      <trkpt lat="49.90486" lon="2.44621">
        <ele>35.7</ele>
        <time>2022-03-30T11:57:12Z</time>
      </trkpt>
      <trkpt lat="49.90486" lon="2.44621">
        <ele>35.7</ele>
        <time>2022-03-30T11:57:13Z</time>
      </trkpt>
      <trkpt lat="49.90486" lon="2.44621">
        <ele>35.7</ele>
        <time>2022-03-30T11:57:14Z</time>
      </trkpt>
      <trkpt lat="49.90486" lon="2.44621">
        <ele>35.7</ele>
        <time>2022-03-30T11:57:15Z</time>
      </trkpt>
      <trkpt lat="49.90486" lon="2.44621">
        <ele>35.7</ele>
        <time>2022-03-30T11:57:16Z</time>
      </trkpt>
      <trkpt lat="49.90486" lon="2.44621">
        <ele>35.7</ele>
        <time>2022-03-30T11:57:17Z</time>
      </trkpt>
      <trkpt lat="49.90486" lon="2.44621">
        <ele>35.7</ele>
        <time>2022-03-30T11:57:18Z</time>
      </trkpt>
      <trkpt lat="49.90486" lon="2.44621">
        <ele>35.7</ele>
        <time>2022-03-30T11:57:19Z</time>
      </trkpt>
      <trkpt lat="49.90486" lon="2.44621">
        <ele>35.7</ele>
        <time>2022-03-30T11:57:21Z</time>
      </trkpt>
      <trkpt lat="49.90485" lon="2.44621">
        <ele>35.7</ele>
        <time>2022-03-30T11:57:23Z</time>
      </trkpt>
      <trkpt lat="49.90485" lon="2.44621">
        <ele>35.7</ele>
        <time>2022-03-30T11:57:24Z</time>
      </trkpt>
      <trkpt lat="49.90485" lon="2.44622">
        <ele>35.7</ele>
        <time>2022-03-30T11:57:25Z</time>
      </trkpt>
      <trkpt lat="49.90485" lon="2.44622">
        <ele>35.7</ele>
        <time>2022-03-30T11:57:26Z</time>
      </trkpt>
      <trkpt lat="49.90485" lon="2.44622">
        <ele>35.7</ele>
        <time>2022-03-30T11:57:27Z</time>
      </trkpt>
      <trkpt lat="49.90485" lon="2.44623">
        <ele>35.7</ele>
        <time>2022-03-30T11:57:28Z</time>
      </trkpt>
      <trkpt lat="49.90485" lon="2.44623">
        <ele>35.7</ele>
        <time>2022-03-30T11:57:29Z</time>
      </trkpt>
      <trkpt lat="49.90485" lon="2.44623">
        <ele>35.7</ele>
        <time>2022-03-30T11:57:30Z</time>
      </trkpt>
      <trkpt lat="49.90485" lon="2.44623">
        <ele>35.7</ele>
        <time>2022-03-30T11:57:31Z</time>
      </trkpt>
      <trkpt lat="49.90485" lon="2.44624">
        <ele>35.7</ele>
        <time>2022-03-30T11:57:32Z</time>
      </trkpt>
      <trkpt lat="49.90485" lon="2.44624">
        <ele>35.7</ele>
        <time>2022-03-30T11:57:33Z</time>
      </trkpt>
      <trkpt lat="49.90485" lon="2.44624">
        <ele>35.7</ele>
        <time>2022-03-30T11:57:34Z</time>
      </trkpt>
      <trkpt lat="49.90485" lon="2.44624">
        <ele>35.7</ele>
        <time>2022-03-30T11:57:35Z</time>
      </trkpt>
      <trkpt lat="49.90485" lon="2.44623">
        <ele>35.7</ele>
        <time>2022-03-30T11:57:36Z</time>
      </trkpt>
      <trkpt lat="49.90485" lon="2.44623">
        <ele>35.7</ele>
        <time>2022-03-30T11:57:37Z</time>
      </trkpt>
      <trkpt lat="49.90485" lon="2.44623">
        <ele>35.7</ele>
        <time>2022-03-30T11:57:38Z</time>
      </trkpt>
      <trkpt lat="49.90485" lon="2.44622">
        <ele>35.8</ele>
        <time>2022-03-30T11:57:39Z</time>
      </trkpt>
      <trkpt lat="49.90486" lon="2.44622">
        <ele>35.8</ele>
        <time>2022-03-30T11:57:40Z</time>
      </trkpt>
      <trkpt lat="49.90486" lon="2.44622">
        <ele>35.8</ele>
        <time>2022-03-30T11:57:41Z</time>
      </trkpt>
      <trkpt lat="49.90486" lon="2.44622">
        <ele>35.8</ele>
        <time>2022-03-30T11:57:42Z</time>
      </trkpt>
      <trkpt lat="49.90486" lon="2.44622">
        <ele>35.8</ele>
        <time>2022-03-30T11:57:43Z</time>
      </trkpt>
      <trkpt lat="49.90486" lon="2.44623">
        <ele>35.8</ele>
        <time>2022-03-30T11:57:44Z</time>
      </trkpt>
      <trkpt lat="49.90486" lon="2.44623">
        <ele>35.8</ele>
        <time>2022-03-30T11:57:45Z</time>
      </trkpt>
      <trkpt lat="49.90486" lon="2.44623">
        <ele>35.8</ele>
        <time>2022-03-30T11:57:46Z</time>
      </trkpt>
      <trkpt lat="49.90486" lon="2.44623">
        <ele>35.8</ele>
        <time>2022-03-30T11:57:47Z</time>
      </trkpt>
      <trkpt lat="49.90486" lon="2.44623">
        <ele>35.8</ele>
        <time>2022-03-30T11:57:48Z</time>
      </trkpt>
      <trkpt lat="49.90486" lon="2.44623">
        <ele>35.8</ele>
        <time>2022-03-30T11:57:49Z</time>
      </trkpt>
      <trkpt lat="49.90486" lon="2.44623">
        <ele>35.8</ele>
        <time>2022-03-30T11:57:50Z</time>
      </trkpt>
      <trkpt lat="49.90486" lon="2.44623">
        <ele>35.8</ele>
        <time>2022-03-30T11:57:51Z</time>
      </trkpt>
      <trkpt lat="49.90486" lon="2.44623">
        <ele>35.8</ele>
        <time>2022-03-30T11:57:52Z</time>
      </trkpt>
      <trkpt lat="49.90486" lon="2.44623">
        <ele>35.8</ele>
        <time>2022-03-30T11:57:53Z</time>
      </trkpt>
      <trkpt lat="49.90486" lon="2.44623">
        <ele>35.8</ele>
        <time>2022-03-30T11:57:54Z</time>
      </trkpt>
      <trkpt lat="49.90486" lon="2.44623">
        <ele>35.8</ele>
        <time>2022-03-30T11:57:55Z</time>
      </trkpt>
      <trkpt lat="49.90486" lon="2.44623">
        <ele>35.8</ele>
        <time>2022-03-30T11:57:56Z</time>
      </trkpt>
      <trkpt lat="49.90486" lon="2.44623">
        <ele>35.8</ele>
        <time>2022-03-30T11:57:57Z</time>
      </trkpt>
      <trkpt lat="49.90486" lon="2.44623">
        <ele>35.8</ele>
        <time>2022-03-30T11:57:58Z</time>
      </trkpt>
      <trkpt lat="49.90486" lon="2.44623">
        <ele>35.8</ele>
        <time>2022-03-30T11:57:59Z</time>
      </trkpt>
      <trkpt lat="49.90486" lon="2.44623">
        <ele>35.8</ele>
        <time>2022-03-30T11:58:00Z</time>
      </trkpt>
      <trkpt lat="49.90486" lon="2.44623">
        <ele>35.8</ele>
        <time>2022-03-30T11:58:01Z</time>
      </trkpt>
      <trkpt lat="49.90486" lon="2.44623">
        <ele>35.8</ele>
        <time>2022-03-30T11:58:02Z</time>
      </trkpt>
      <trkpt lat="49.90486" lon="2.44623">
        <ele>35.8</ele>
        <time>2022-03-30T11:58:03Z</time>
      </trkpt>
      <trkpt lat="49.90486" lon="2.44623">
        <ele>35.8</ele>
        <time>2022-03-30T11:58:04Z</time>
      </trkpt>
      <trkpt lat="49.90486" lon="2.44623">
        <ele>35.8</ele>
        <time>2022-03-30T11:58:05Z</time>
      </trkpt>
      <trkpt lat="49.90486" lon="2.44623">
        <ele>35.8</ele>
        <time>2022-03-30T11:58:06Z</time>
      </trkpt>
      <trkpt lat="49.90486" lon="2.44623">
        <ele>35.8</ele>
        <time>2022-03-30T11:58:07Z</time>
      </trkpt>
      <trkpt lat="49.90486" lon="2.44623">
        <ele>35.8</ele>
        <time>2022-03-30T11:58:08Z</time>
      </trkpt>
      <trkpt lat="49.90486" lon="2.44623">
        <ele>35.8</ele>
        <time>2022-03-30T11:58:09Z</time>
      </trkpt>
      <trkpt lat="49.90486" lon="2.44623">
        <ele>35.8</ele>
        <time>2022-03-30T11:58:10Z</time>
      </trkpt>
      <trkpt lat="49.90486" lon="2.44623">
        <ele>35.8</ele>
        <time>2022-03-30T11:58:11Z</time>
      </trkpt>
      <trkpt lat="49.90486" lon="2.44623">
        <ele>35.8</ele>
        <time>2022-03-30T11:58:12Z</time>
      </trkpt>
      <trkpt lat="49.90486" lon="2.44623">
        <ele>35.8</ele>
        <time>2022-03-30T11:58:13Z</time>
      </trkpt>
      <trkpt lat="49.90486" lon="2.44623">
        <ele>35.8</ele>
        <time>2022-03-30T11:58:14Z</time>
      </trkpt>
      <trkpt lat="49.90486" lon="2.44623">
        <ele>35.8</ele>
        <time>2022-03-30T11:58:15Z</time>
      </trkpt>
      <trkpt lat="49.90486" lon="2.44623">
        <ele>35.8</ele>
        <time>2022-03-30T11:58:16Z</time>
      </trkpt>
      <trkpt lat="49.90486" lon="2.44623">
        <ele>35.8</ele>
        <time>2022-03-30T11:58:17Z</time>
      </trkpt>
      <trkpt lat="49.90486" lon="2.44623">
        <ele>35.8</ele>
        <time>2022-03-30T11:58:18Z</time>
      </trkpt>
      <trkpt lat="49.90486" lon="2.44623">
        <ele>35.8</ele>
        <time>2022-03-30T11:58:19Z</time>
      </trkpt>
      <trkpt lat="49.90486" lon="2.44623">
        <ele>35.8</ele>
        <time>2022-03-30T11:58:20Z</time>
      </trkpt>
      <trkpt lat="49.90486" lon="2.44623">
        <ele>35.8</ele>
        <time>2022-03-30T11:58:21Z</time>
      </trkpt>
      <trkpt lat="49.90486" lon="2.44623">
        <ele>35.8</ele>
        <time>2022-03-30T11:58:22Z</time>
      </trkpt>
      <trkpt lat="49.90486" lon="2.44623">
        <ele>35.8</ele>
        <time>2022-03-30T11:58:23Z</time>
      </trkpt>
      <trkpt lat="49.90486" lon="2.44623">
        <ele>35.8</ele>
        <time>2022-03-30T11:58:24Z</time>
      </trkpt>
      <trkpt lat="49.90486" lon="2.44623">
        <ele>35.8</ele>
        <time>2022-03-30T11:58:25Z</time>
      </trkpt>
      <trkpt lat="49.90486" lon="2.44623">
        <ele>35.8</ele>
        <time>2022-03-30T11:58:26Z</time>
      </trkpt>
      <trkpt lat="49.90486" lon="2.44623">
        <ele>35.8</ele>
        <time>2022-03-30T11:58:27Z</time>
      </trkpt>
      <trkpt lat="49.90486" lon="2.44623">
        <ele>35.8</ele>
        <time>2022-03-30T11:58:28Z</time>
      </trkpt>
      <trkpt lat="49.90486" lon="2.44623">
        <ele>35.8</ele>
        <time>2022-03-30T11:58:29Z</time>
      </trkpt>
      <trkpt lat="49.90486" lon="2.44623">
        <ele>35.8</ele>
        <time>2022-03-30T11:58:30Z</time>
      </trkpt>
      <trkpt lat="49.90486" lon="2.44623">
        <ele>35.8</ele>
        <time>2022-03-30T11:58:31Z</time>
      </trkpt>
      <trkpt lat="49.90486" lon="2.44623">
        <ele>35.8</ele>
        <time>2022-03-30T11:58:32Z</time>
      </trkpt>
      <trkpt lat="49.90486" lon="2.44623">
        <ele>35.8</ele>
        <time>2022-03-30T11:58:33Z</time>
      </trkpt>
      <trkpt lat="49.90486" lon="2.44623">
        <ele>35.8</ele>
        <time>2022-03-30T11:58:34Z</time>
      </trkpt>
      <trkpt lat="49.90486" lon="2.44623">
        <ele>35.8</ele>
        <time>2022-03-30T11:58:35Z</time>
      </trkpt>
      <trkpt lat="49.90486" lon="2.44623">
        <ele>35.8</ele>
        <time>2022-03-30T11:58:36Z</time>
      </trkpt>
      <trkpt lat="49.90486" lon="2.44623">
        <ele>35.8</ele>
        <time>2022-03-30T11:58:37Z</time>
      </trkpt>
      <trkpt lat="49.90486" lon="2.44623">
        <ele>35.8</ele>
        <time>2022-03-30T11:58:38Z</time>
      </trkpt>
      <trkpt lat="49.90486" lon="2.44623">
        <ele>35.8</ele>
        <time>2022-03-30T11:58:39Z</time>
      </trkpt>
      <trkpt lat="49.90486" lon="2.44623">
        <ele>35.8</ele>
        <time>2022-03-30T11:58:40Z</time>
      </trkpt>
      <trkpt lat="49.90486" lon="2.44623">
        <ele>35.8</ele>
        <time>2022-03-30T11:58:41Z</time>
      </trkpt>
      <trkpt lat="49.90486" lon="2.44623">
        <ele>35.8</ele>
        <time>2022-03-30T11:58:42Z</time>
      </trkpt>
      <trkpt lat="49.90486" lon="2.44623">
        <ele>35.8</ele>
        <time>2022-03-30T11:58:43Z</time>
      </trkpt>
      <trkpt lat="49.90486" lon="2.44623">
        <ele>35.8</ele>
        <time>2022-03-30T11:58:44Z</time>
      </trkpt>
      <trkpt lat="49.90486" lon="2.44623">
        <ele>35.8</ele>
        <time>2022-03-30T11:58:45Z</time>
      </trkpt>
      <trkpt lat="49.90486" lon="2.44623">
        <ele>35.8</ele>
        <time>2022-03-30T11:58:46Z</time>
      </trkpt>
      <trkpt lat="49.90486" lon="2.44623">
        <ele>35.8</ele>
        <time>2022-03-30T11:58:47Z</time>
      </trkpt>
      <trkpt lat="49.90486" lon="2.44623">
        <ele>35.8</ele>
        <time>2022-03-30T11:58:48Z</time>
      </trkpt>
      <trkpt lat="49.90486" lon="2.44623">
        <ele>35.8</ele>
        <time>2022-03-30T11:58:49Z</time>
      </trkpt>
      <trkpt lat="49.90486" lon="2.44623">
        <ele>35.8</ele>
        <time>2022-03-30T11:58:50Z</time>
      </trkpt>
      <trkpt lat="49.90486" lon="2.44623">
        <ele>35.8</ele>
        <time>2022-03-30T11:58:51Z</time>
      </trkpt>
      <trkpt lat="49.90486" lon="2.44623">
        <ele>35.8</ele>
        <time>2022-03-30T11:58:52Z</time>
      </trkpt>
      <trkpt lat="49.90486" lon="2.44623">
        <ele>35.8</ele>
        <time>2022-03-30T11:58:53Z</time>
      </trkpt>
      <trkpt lat="49.90486" lon="2.44623">
        <ele>35.8</ele>
        <time>2022-03-30T11:58:54Z</time>
      </trkpt>
      <trkpt lat="49.90486" lon="2.44623">
        <ele>35.8</ele>
        <time>2022-03-30T11:58:55Z</time>
      </trkpt>
      <trkpt lat="49.90486" lon="2.44623">
        <ele>35.8</ele>
        <time>2022-03-30T11:58:56Z</time>
      </trkpt>
      <trkpt lat="49.90486" lon="2.44623">
        <ele>35.8</ele>
        <time>2022-03-30T11:58:57Z</time>
      </trkpt>
      <trkpt lat="49.90486" lon="2.44623">
        <ele>35.8</ele>
        <time>2022-03-30T11:58:58Z</time>
      </trkpt>
      <trkpt lat="49.90486" lon="2.44623">
        <ele>35.8</ele>
        <time>2022-03-30T11:58:59Z</time>
      </trkpt>
      <trkpt lat="49.90486" lon="2.44623">
        <ele>35.8</ele>
        <time>2022-03-30T11:59:00Z</time>
      </trkpt>
      <trkpt lat="49.90486" lon="2.44623">
        <ele>35.8</ele>
        <time>2022-03-30T11:59:01Z</time>
      </trkpt>
      <trkpt lat="49.90486" lon="2.44623">
        <ele>35.8</ele>
        <time>2022-03-30T11:59:02Z</time>
      </trkpt>
      <trkpt lat="49.90486" lon="2.44623">
        <ele>35.8</ele>
        <time>2022-03-30T11:59:03Z</time>
      </trkpt>
      <trkpt lat="49.90486" lon="2.44623">
        <ele>35.8</ele>
        <time>2022-03-30T11:59:04Z</time>
      </trkpt>
      <trkpt lat="49.90486" lon="2.44623">
        <ele>35.8</ele>
        <time>2022-03-30T11:59:05Z</time>
      </trkpt>
      <trkpt lat="49.90486" lon="2.44623">
        <ele>35.8</ele>
        <time>2022-03-30T11:59:06Z</time>
      </trkpt>
      <trkpt lat="49.90486" lon="2.44623">
        <ele>35.8</ele>
        <time>2022-03-30T11:59:07Z</time>
      </trkpt>
      <trkpt lat="49.90486" lon="2.44623">
        <ele>35.8</ele>
        <time>2022-03-30T11:59:08Z</time>
      </trkpt>
      <trkpt lat="49.90486" lon="2.44623">
        <ele>35.8</ele>
        <time>2022-03-30T11:59:09Z</time>
      </trkpt>
      <trkpt lat="49.90486" lon="2.44623">
        <ele>35.8</ele>
        <time>2022-03-30T11:59:10Z</time>
      </trkpt>
      <trkpt lat="49.90486" lon="2.44623">
        <ele>35.8</ele>
        <time>2022-03-30T11:59:11Z</time>
      </trkpt>
      <trkpt lat="49.90486" lon="2.44623">
        <ele>35.8</ele>
        <time>2022-03-30T11:59:12Z</time>
      </trkpt>
      <trkpt lat="49.90486" lon="2.44623">
        <ele>35.8</ele>
        <time>2022-03-30T11:59:13Z</time>
      </trkpt>
      <trkpt lat="49.90486" lon="2.44623">
        <ele>35.8</ele>
        <time>2022-03-30T11:59:14Z</time>
      </trkpt>
      <trkpt lat="49.90486" lon="2.44623">
        <ele>35.8</ele>
        <time>2022-03-30T11:59:15Z</time>
      </trkpt>
      <trkpt lat="49.90486" lon="2.44623">
        <ele>35.8</ele>
        <time>2022-03-30T11:59:16Z</time>
      </trkpt>
      <trkpt lat="49.90486" lon="2.44623">
        <ele>35.8</ele>
        <time>2022-03-30T11:59:17Z</time>
      </trkpt>
      <trkpt lat="49.90486" lon="2.44623">
        <ele>35.8</ele>
        <time>2022-03-30T11:59:18Z</time>
      </trkpt>
      <trkpt lat="49.90486" lon="2.44623">
        <ele>35.8</ele>
        <time>2022-03-30T11:59:19Z</time>
      </trkpt>
      <trkpt lat="49.90486" lon="2.44623">
        <ele>35.8</ele>
        <time>2022-03-30T11:59:20Z</time>
      </trkpt>
      <trkpt lat="49.90486" lon="2.44623">
        <ele>35.8</ele>
        <time>2022-03-30T11:59:21Z</time>
      </trkpt>
      <trkpt lat="49.90486" lon="2.44623">
        <ele>35.8</ele>
        <time>2022-03-30T11:59:22Z</time>
      </trkpt>
      <trkpt lat="49.90486" lon="2.44623">
        <ele>35.8</ele>
        <time>2022-03-30T11:59:23Z</time>
      </trkpt>
      <trkpt lat="49.90486" lon="2.44623">
        <ele>35.8</ele>
        <time>2022-03-30T11:59:24Z</time>
      </trkpt>
      <trkpt lat="49.90486" lon="2.44623">
        <ele>35.8</ele>
        <time>2022-03-30T11:59:25Z</time>
      </trkpt>
      <trkpt lat="49.90486" lon="2.44623">
        <ele>35.8</ele>
        <time>2022-03-30T11:59:26Z</time>
      </trkpt>
      <trkpt lat="49.90486" lon="2.44623">
        <ele>35.8</ele>
        <time>2022-03-30T11:59:27Z</time>
      </trkpt>
      <trkpt lat="49.90486" lon="2.44623">
        <ele>35.8</ele>
        <time>2022-03-30T11:59:28Z</time>
      </trkpt>
      <trkpt lat="49.90486" lon="2.44623">
        <ele>35.8</ele>
        <time>2022-03-30T11:59:29Z</time>
      </trkpt>
      <trkpt lat="49.90486" lon="2.44623">
        <ele>35.8</ele>
        <time>2022-03-30T11:59:30Z</time>
      </trkpt>
      <trkpt lat="49.90486" lon="2.44623">
        <ele>35.8</ele>
        <time>2022-03-30T11:59:31Z</time>
      </trkpt>
      <trkpt lat="49.90486" lon="2.44623">
        <ele>35.8</ele>
        <time>2022-03-30T11:59:32Z</time>
      </trkpt>
      <trkpt lat="49.90486" lon="2.44623">
        <ele>35.8</ele>
        <time>2022-03-30T11:59:33Z</time>
      </trkpt>
      <trkpt lat="49.90486" lon="2.44623">
        <ele>35.8</ele>
        <time>2022-03-30T11:59:34Z</time>
      </trkpt>
      <trkpt lat="49.90486" lon="2.44623">
        <ele>35.8</ele>
        <time>2022-03-30T11:59:35Z</time>
      </trkpt>
      <trkpt lat="49.90486" lon="2.44623">
        <ele>35.8</ele>
        <time>2022-03-30T11:59:36Z</time>
      </trkpt>
      <trkpt lat="49.90486" lon="2.44623">
        <ele>35.8</ele>
        <time>2022-03-30T11:59:37Z</time>
      </trkpt>
      <trkpt lat="49.90486" lon="2.44623">
        <ele>35.8</ele>
        <time>2022-03-30T11:59:38Z</time>
      </trkpt>
      <trkpt lat="49.90486" lon="2.44623">
        <ele>35.8</ele>
        <time>2022-03-30T11:59:39Z</time>
      </trkpt>
      <trkpt lat="49.90486" lon="2.44623">
        <ele>35.8</ele>
        <time>2022-03-30T11:59:40Z</time>
      </trkpt>
      <trkpt lat="49.90486" lon="2.44623">
        <ele>35.8</ele>
        <time>2022-03-30T11:59:41Z</time>
      </trkpt>
      <trkpt lat="49.90486" lon="2.44623">
        <ele>35.8</ele>
        <time>2022-03-30T11:59:42Z</time>
      </trkpt>
      <trkpt lat="49.90486" lon="2.44623">
        <ele>35.8</ele>
        <time>2022-03-30T11:59:43Z</time>
      </trkpt>
      <trkpt lat="49.90486" lon="2.44623">
        <ele>35.8</ele>
        <time>2022-03-30T11:59:44Z</time>
      </trkpt>
      <trkpt lat="49.90486" lon="2.44623">
        <ele>35.8</ele>
        <time>2022-03-30T11:59:45Z</time>
      </trkpt>
      <trkpt lat="49.90486" lon="2.44623">
        <ele>35.8</ele>
        <time>2022-03-30T11:59:46Z</time>
      </trkpt>
      <trkpt lat="49.90486" lon="2.44623">
        <ele>35.8</ele>
        <time>2022-03-30T11:59:47Z</time>
      </trkpt>
      <trkpt lat="49.90486" lon="2.44623">
        <ele>35.8</ele>
        <time>2022-03-30T11:59:48Z</time>
      </trkpt>
      <trkpt lat="49.90486" lon="2.44623">
        <ele>35.8</ele>
        <time>2022-03-30T11:59:49Z</time>
      </trkpt>
      <trkpt lat="49.90486" lon="2.44623">
        <ele>35.8</ele>
        <time>2022-03-30T11:59:50Z</time>
      </trkpt>
      <trkpt lat="49.90486" lon="2.44623">
        <ele>35.8</ele>
        <time>2022-03-30T11:59:51Z</time>
      </trkpt>
      <trkpt lat="49.90486" lon="2.44623">
        <ele>35.8</ele>
        <time>2022-03-30T11:59:52Z</time>
      </trkpt>
      <trkpt lat="49.90486" lon="2.44623">
        <ele>35.8</ele>
        <time>2022-03-30T11:59:53Z</time>
      </trkpt>
      <trkpt lat="49.90486" lon="2.44623">
        <ele>35.8</ele>
        <time>2022-03-30T11:59:54Z</time>
      </trkpt>
      <trkpt lat="49.90486" lon="2.44623">
        <ele>35.8</ele>
        <time>2022-03-30T11:59:55Z</time>
      </trkpt>
      <trkpt lat="49.90486" lon="2.44623">
        <ele>35.8</ele>
        <time>2022-03-30T11:59:56Z</time>
      </trkpt>
      <trkpt lat="49.90486" lon="2.44623">
        <ele>35.8</ele>
        <time>2022-03-30T11:59:57Z</time>
      </trkpt>
      <trkpt lat="49.90486" lon="2.44623">
        <ele>35.8</ele>
        <time>2022-03-30T11:59:58Z</time>
      </trkpt>
      <trkpt lat="49.90486" lon="2.44623">
        <ele>35.8</ele>
        <time>2022-03-30T11:59:59Z</time>
      </trkpt>
      <trkpt lat="49.90486" lon="2.44623">
        <ele>35.8</ele>
        <time>2022-03-30T12:00:00Z</time>
      </trkpt>
      <trkpt lat="49.90486" lon="2.44623">
        <ele>35.8</ele>
        <time>2022-03-30T12:00:01Z</time>
      </trkpt>
      <trkpt lat="49.90486" lon="2.44623">
        <ele>35.8</ele>
        <time>2022-03-30T12:00:02Z</time>
      </trkpt>
      <trkpt lat="49.90486" lon="2.44623">
        <ele>35.8</ele>
        <time>2022-03-30T12:00:03Z</time>
      </trkpt>
      <trkpt lat="49.90486" lon="2.44623">
        <ele>35.8</ele>
        <time>2022-03-30T12:00:04Z</time>
      </trkpt>
      <trkpt lat="49.90486" lon="2.44623">
        <ele>35.8</ele>
        <time>2022-03-30T12:00:05Z</time>
      </trkpt>
      <trkpt lat="49.90486" lon="2.44623">
        <ele>35.8</ele>
        <time>2022-03-30T12:00:06Z</time>
      </trkpt>
      <trkpt lat="49.90486" lon="2.44624">
        <ele>35.8</ele>
        <time>2022-03-30T12:00:07Z</time>
      </trkpt>
      <trkpt lat="49.90486" lon="2.44624">
        <ele>35.8</ele>
        <time>2022-03-30T12:00:08Z</time>
      </trkpt>
      <trkpt lat="49.90486" lon="2.44625">
        <ele>35.8</ele>
        <time>2022-03-30T12:00:09Z</time>
      </trkpt>
      <trkpt lat="49.90486" lon="2.44625">
        <ele>35.8</ele>
        <time>2022-03-30T12:00:10Z</time>
      </trkpt>
      <trkpt lat="49.90486" lon="2.44625">
        <ele>35.8</ele>
        <time>2022-03-30T12:00:11Z</time>
      </trkpt>
      <trkpt lat="49.90486" lon="2.44625">
        <ele>35.8</ele>
        <time>2022-03-30T12:00:12Z</time>
      </trkpt>
      <trkpt lat="49.90486" lon="2.44625">
        <ele>35.8</ele>
        <time>2022-03-30T12:00:13Z</time>
      </trkpt>
      <trkpt lat="49.90486" lon="2.44625">
        <ele>35.8</ele>
        <time>2022-03-30T12:00:14Z</time>
      </trkpt>
      <trkpt lat="49.90486" lon="2.44625">
        <ele>35.8</ele>
        <time>2022-03-30T12:00:15Z</time>
      </trkpt>
      <trkpt lat="49.90486" lon="2.44625">
        <ele>35.8</ele>
        <time>2022-03-30T12:00:16Z</time>
      </trkpt>
      <trkpt lat="49.90486" lon="2.44625">
        <ele>35.8</ele>
        <time>2022-03-30T12:00:17Z</time>
      </trkpt>
      <trkpt lat="49.90486" lon="2.44625">
        <ele>35.8</ele>
        <time>2022-03-30T12:00:18Z</time>
      </trkpt>
      <trkpt lat="49.90486" lon="2.44625">
        <ele>35.8</ele>
        <time>2022-03-30T12:00:19Z</time>
      </trkpt>
      <trkpt lat="49.90486" lon="2.44625">
        <ele>35.8</ele>
        <time>2022-03-30T12:00:20Z</time>
      </trkpt>
      <trkpt lat="49.90486" lon="2.44625">
        <ele>35.8</ele>
        <time>2022-03-30T12:00:21Z</time>
      </trkpt>
      <trkpt lat="49.90486" lon="2.44625">
        <ele>35.8</ele>
        <time>2022-03-30T12:00:22Z</time>
      </trkpt>
      <trkpt lat="49.90486" lon="2.44625">
        <ele>35.8</ele>
        <time>2022-03-30T12:00:23Z</time>
      </trkpt>
      <trkpt lat="49.90486" lon="2.44625">
        <ele>35.8</ele>
        <time>2022-03-30T12:00:24Z</time>
      </trkpt>
      <trkpt lat="49.90486" lon="2.44625">
        <ele>35.8</ele>
        <time>2022-03-30T12:00:25Z</time>
      </trkpt>
      <trkpt lat="49.90486" lon="2.44625">
        <ele>35.8</ele>
        <time>2022-03-30T12:00:26Z</time>
      </trkpt>
      <trkpt lat="49.90486" lon="2.44625">
        <ele>35.8</ele>
        <time>2022-03-30T12:00:27Z</time>
      </trkpt>
      <trkpt lat="49.90486" lon="2.44625">
        <ele>35.8</ele>
        <time>2022-03-30T12:00:28Z</time>
      </trkpt>
      <trkpt lat="49.90486" lon="2.44625">
        <ele>35.8</ele>
        <time>2022-03-30T12:00:29Z</time>
      </trkpt>
      <trkpt lat="49.90486" lon="2.44625">
        <ele>35.8</ele>
        <time>2022-03-30T12:00:30Z</time>
      </trkpt>
      <trkpt lat="49.90486" lon="2.44625">
        <ele>35.8</ele>
        <time>2022-03-30T12:00:31Z</time>
      </trkpt>
      <trkpt lat="49.90486" lon="2.44625">
        <ele>35.8</ele>
        <time>2022-03-30T12:00:32Z</time>
      </trkpt>
      <trkpt lat="49.90486" lon="2.44625">
        <ele>35.8</ele>
        <time>2022-03-30T12:00:33Z</time>
      </trkpt>
      <trkpt lat="49.90486" lon="2.44625">
        <ele>35.8</ele>
        <time>2022-03-30T12:00:34Z</time>
      </trkpt>
      <trkpt lat="49.90486" lon="2.44625">
        <ele>35.8</ele>
        <time>2022-03-30T12:00:35Z</time>
      </trkpt>
      <trkpt lat="49.90486" lon="2.44625">
        <ele>35.8</ele>
        <time>2022-03-30T12:00:36Z</time>
      </trkpt>
      <trkpt lat="49.90486" lon="2.44625">
        <ele>35.8</ele>
        <time>2022-03-30T12:00:37Z</time>
      </trkpt>
      <trkpt lat="49.90486" lon="2.44625">
        <ele>35.8</ele>
        <time>2022-03-30T12:00:38Z</time>
      </trkpt>
      <trkpt lat="49.90486" lon="2.44625">
        <ele>35.8</ele>
        <time>2022-03-30T12:00:39Z</time>
      </trkpt>
      <trkpt lat="49.90486" lon="2.44625">
        <ele>35.8</ele>
        <time>2022-03-30T12:00:40Z</time>
      </trkpt>
      <trkpt lat="49.90486" lon="2.44625">
        <ele>35.8</ele>
        <time>2022-03-30T12:00:41Z</time>
      </trkpt>
      <trkpt lat="49.90486" lon="2.44625">
        <ele>35.8</ele>
        <time>2022-03-30T12:00:42Z</time>
      </trkpt>
      <trkpt lat="49.90486" lon="2.44625">
        <ele>35.8</ele>
        <time>2022-03-30T12:00:43Z</time>
      </trkpt>
      <trkpt lat="49.90486" lon="2.44625">
        <ele>35.8</ele>
        <time>2022-03-30T12:00:44Z</time>
      </trkpt>
      <trkpt lat="49.90486" lon="2.44625">
        <ele>35.8</ele>
        <time>2022-03-30T12:00:45Z</time>
      </trkpt>
      <trkpt lat="49.90486" lon="2.44625">
        <ele>35.8</ele>
        <time>2022-03-30T12:00:46Z</time>
      </trkpt>
      <trkpt lat="49.90486" lon="2.44625">
        <ele>35.8</ele>
        <time>2022-03-30T12:00:47Z</time>
      </trkpt>
      <trkpt lat="49.90486" lon="2.44625">
        <ele>35.8</ele>
        <time>2022-03-30T12:00:48Z</time>
      </trkpt>
      <trkpt lat="49.90486" lon="2.44625">
        <ele>35.8</ele>
        <time>2022-03-30T12:00:49Z</time>
      </trkpt>
      <trkpt lat="49.90486" lon="2.44625">
        <ele>35.8</ele>
        <time>2022-03-30T12:00:50Z</time>
      </trkpt>
      <trkpt lat="49.90486" lon="2.44625">
        <ele>35.8</ele>
        <time>2022-03-30T12:00:51Z</time>
      </trkpt>
      <trkpt lat="49.90486" lon="2.44625">
        <ele>35.8</ele>
        <time>2022-03-30T12:00:52Z</time>
      </trkpt>
      <trkpt lat="49.90486" lon="2.44625">
        <ele>35.8</ele>
        <time>2022-03-30T12:00:53Z</time>
      </trkpt>
      <trkpt lat="49.90486" lon="2.44625">
        <ele>35.8</ele>
        <time>2022-03-30T12:00:54Z</time>
      </trkpt>
      <trkpt lat="49.90486" lon="2.44625">
        <ele>35.8</ele>
        <time>2022-03-30T12:00:55Z</time>
      </trkpt>
      <trkpt lat="49.90486" lon="2.44625">
        <ele>35.8</ele>
        <time>2022-03-30T12:00:56Z</time>
      </trkpt>
      <trkpt lat="49.90486" lon="2.44625">
        <ele>35.8</ele>
        <time>2022-03-30T12:00:57Z</time>
      </trkpt>
      <trkpt lat="49.90486" lon="2.44625">
        <ele>35.8</ele>
        <time>2022-03-30T12:00:58Z</time>
      </trkpt>
      <trkpt lat="49.90486" lon="2.44625">
        <ele>35.8</ele>
        <time>2022-03-30T12:00:59Z</time>
      </trkpt>
      <trkpt lat="49.90486" lon="2.44625">
        <ele>35.8</ele>
        <time>2022-03-30T12:01:00Z</time>
      </trkpt>
      <trkpt lat="49.90486" lon="2.44625">
        <ele>35.8</ele>
        <time>2022-03-30T12:01:01Z</time>
      </trkpt>
      <trkpt lat="49.90486" lon="2.44625">
        <ele>35.8</ele>
        <time>2022-03-30T12:01:02Z</time>
      </trkpt>
      <trkpt lat="49.90486" lon="2.44625">
        <ele>35.8</ele>
        <time>2022-03-30T12:01:03Z</time>
      </trkpt>
      <trkpt lat="49.90486" lon="2.44625">
        <ele>35.8</ele>
        <time>2022-03-30T12:01:04Z</time>
      </trkpt>
      <trkpt lat="49.90486" lon="2.44625">
        <ele>35.8</ele>
        <time>2022-03-30T12:01:05Z</time>
      </trkpt>
      <trkpt lat="49.90486" lon="2.44625">
        <ele>35.8</ele>
        <time>2022-03-30T12:01:06Z</time>
      </trkpt>
      <trkpt lat="49.90486" lon="2.44625">
        <ele>35.8</ele>
        <time>2022-03-30T12:01:07Z</time>
      </trkpt>
      <trkpt lat="49.90486" lon="2.44625">
        <ele>35.8</ele>
        <time>2022-03-30T12:01:08Z</time>
      </trkpt>
      <trkpt lat="49.90486" lon="2.44625">
        <ele>35.8</ele>
        <time>2022-03-30T12:01:09Z</time>
      </trkpt>
      <trkpt lat="49.90486" lon="2.44625">
        <ele>35.8</ele>
        <time>2022-03-30T12:01:10Z</time>
      </trkpt>
      <trkpt lat="49.90486" lon="2.44625">
        <ele>35.8</ele>
        <time>2022-03-30T12:01:11Z</time>
      </trkpt>
      <trkpt lat="49.90486" lon="2.44625">
        <ele>35.8</ele>
        <time>2022-03-30T12:01:12Z</time>
      </trkpt>
      <trkpt lat="49.90486" lon="2.44625">
        <ele>35.8</ele>
        <time>2022-03-30T12:01:13Z</time>
      </trkpt>
      <trkpt lat="49.90486" lon="2.44625">
        <ele>35.8</ele>
        <time>2022-03-30T12:01:14Z</time>
      </trkpt>
      <trkpt lat="49.90486" lon="2.44625">
        <ele>35.8</ele>
        <time>2022-03-30T12:01:15Z</time>
      </trkpt>
      <trkpt lat="49.90486" lon="2.44625">
        <ele>35.8</ele>
        <time>2022-03-30T12:01:16Z</time>
      </trkpt>
      <trkpt lat="49.90486" lon="2.44625">
        <ele>35.8</ele>
        <time>2022-03-30T12:01:17Z</time>
      </trkpt>
      <trkpt lat="49.90486" lon="2.44625">
        <ele>35.8</ele>
        <time>2022-03-30T12:01:18Z</time>
      </trkpt>
      <trkpt lat="49.90486" lon="2.44625">
        <ele>35.8</ele>
        <time>2022-03-30T12:01:19Z</time>
      </trkpt>
      <trkpt lat="49.90486" lon="2.44625">
        <ele>35.8</ele>
        <time>2022-03-30T12:01:20Z</time>
      </trkpt>
      <trkpt lat="49.90486" lon="2.44625">
        <ele>35.8</ele>
        <time>2022-03-30T12:01:21Z</time>
      </trkpt>
      <trkpt lat="49.90486" lon="2.44625">
        <ele>35.8</ele>
        <time>2022-03-30T12:01:22Z</time>
      </trkpt>
      <trkpt lat="49.90486" lon="2.44625">
        <ele>35.8</ele>
        <time>2022-03-30T12:01:23Z</time>
      </trkpt>
      <trkpt lat="49.90486" lon="2.44625">
        <ele>35.8</ele>
        <time>2022-03-30T12:01:24Z</time>
      </trkpt>
      <trkpt lat="49.90486" lon="2.44625">
        <ele>35.8</ele>
        <time>2022-03-30T12:01:25Z</time>
      </trkpt>
      <trkpt lat="49.90486" lon="2.44625">
        <ele>35.8</ele>
        <time>2022-03-30T12:01:26Z</time>
      </trkpt>
      <trkpt lat="49.90486" lon="2.44625">
        <ele>35.8</ele>
        <time>2022-03-30T12:01:27Z</time>
      </trkpt>
      <trkpt lat="49.90486" lon="2.44625">
        <ele>35.8</ele>
        <time>2022-03-30T12:01:28Z</time>
      </trkpt>
      <trkpt lat="49.90486" lon="2.44625">
        <ele>35.8</ele>
        <time>2022-03-30T12:01:29Z</time>
      </trkpt>
      <trkpt lat="49.90486" lon="2.44625">
        <ele>35.8</ele>
        <time>2022-03-30T12:01:30Z</time>
      </trkpt>
      <trkpt lat="49.90486" lon="2.44625">
        <ele>35.8</ele>
        <time>2022-03-30T12:01:31Z</time>
      </trkpt>
      <trkpt lat="49.90486" lon="2.44625">
        <ele>35.8</ele>
        <time>2022-03-30T12:01:32Z</time>
      </trkpt>
      <trkpt lat="49.90486" lon="2.44625">
        <ele>35.8</ele>
        <time>2022-03-30T12:01:33Z</time>
      </trkpt>
      <trkpt lat="49.90486" lon="2.44625">
        <ele>35.8</ele>
        <time>2022-03-30T12:01:34Z</time>
      </trkpt>
      <trkpt lat="49.90486" lon="2.44625">
        <ele>35.8</ele>
        <time>2022-03-30T12:01:35Z</time>
      </trkpt>
      <trkpt lat="49.90486" lon="2.44625">
        <ele>35.8</ele>
        <time>2022-03-30T12:01:36Z</time>
      </trkpt>
      <trkpt lat="49.90486" lon="2.44625">
        <ele>35.8</ele>
        <time>2022-03-30T12:01:37Z</time>
      </trkpt>
      <trkpt lat="49.90486" lon="2.44625">
        <ele>35.8</ele>
        <time>2022-03-30T12:01:38Z</time>
      </trkpt>
      <trkpt lat="49.90486" lon="2.44625">
        <ele>35.8</ele>
        <time>2022-03-30T12:01:39Z</time>
      </trkpt>
      <trkpt lat="49.90486" lon="2.44625">
        <ele>35.8</ele>
        <time>2022-03-30T12:01:40Z</time>
      </trkpt>
      <trkpt lat="49.90486" lon="2.44625">
        <ele>35.8</ele>
        <time>2022-03-30T12:01:41Z</time>
      </trkpt>
      <trkpt lat="49.90486" lon="2.44625">
        <ele>35.8</ele>
        <time>2022-03-30T12:01:42Z</time>
      </trkpt>
      <trkpt lat="49.90486" lon="2.44625">
        <ele>35.8</ele>
        <time>2022-03-30T12:01:43Z</time>
      </trkpt>
      <trkpt lat="49.90486" lon="2.44625">
        <ele>35.8</ele>
        <time>2022-03-30T12:01:44Z</time>
      </trkpt>
      <trkpt lat="49.90486" lon="2.44625">
        <ele>35.8</ele>
        <time>2022-03-30T12:01:45Z</time>
      </trkpt>
      <trkpt lat="49.90486" lon="2.44625">
        <ele>35.8</ele>
        <time>2022-03-30T12:01:46Z</time>
      </trkpt>
      <trkpt lat="49.90486" lon="2.44625">
        <ele>35.8</ele>
        <time>2022-03-30T12:01:47Z</time>
      </trkpt>
      <trkpt lat="49.90486" lon="2.44625">
        <ele>35.8</ele>
        <time>2022-03-30T12:01:48Z</time>
      </trkpt>
      <trkpt lat="49.90486" lon="2.44625">
        <ele>35.8</ele>
        <time>2022-03-30T12:01:49Z</time>
      </trkpt>
      <trkpt lat="49.90486" lon="2.44625">
        <ele>35.8</ele>
        <time>2022-03-30T12:01:50Z</time>
      </trkpt>
      <trkpt lat="49.90486" lon="2.44625">
        <ele>35.8</ele>
        <time>2022-03-30T12:01:51Z</time>
      </trkpt>
      <trkpt lat="49.90486" lon="2.44625">
        <ele>35.8</ele>
        <time>2022-03-30T12:01:52Z</time>
      </trkpt>
      <trkpt lat="49.90486" lon="2.44625">
        <ele>35.8</ele>
        <time>2022-03-30T12:01:53Z</time>
      </trkpt>
      <trkpt lat="49.90486" lon="2.44625">
        <ele>35.8</ele>
        <time>2022-03-30T12:01:54Z</time>
      </trkpt>
      <trkpt lat="49.90486" lon="2.44625">
        <ele>35.8</ele>
        <time>2022-03-30T12:01:55Z</time>
      </trkpt>
      <trkpt lat="49.90486" lon="2.44625">
        <ele>35.8</ele>
        <time>2022-03-30T12:01:56Z</time>
      </trkpt>
      <trkpt lat="49.90486" lon="2.44625">
        <ele>35.8</ele>
        <time>2022-03-30T12:01:57Z</time>
      </trkpt>
      <trkpt lat="49.90486" lon="2.44625">
        <ele>35.8</ele>
        <time>2022-03-30T12:01:58Z</time>
      </trkpt>
      <trkpt lat="49.90486" lon="2.44625">
        <ele>35.8</ele>
        <time>2022-03-30T12:01:59Z</time>
      </trkpt>
      <trkpt lat="49.90486" lon="2.44625">
        <ele>35.8</ele>
        <time>2022-03-30T12:02:00Z</time>
      </trkpt>
      <trkpt lat="49.90486" lon="2.44625">
        <ele>35.8</ele>
        <time>2022-03-30T12:02:01Z</time>
      </trkpt>
      <trkpt lat="49.90486" lon="2.44625">
        <ele>35.8</ele>
        <time>2022-03-30T12:02:02Z</time>
      </trkpt>
      <trkpt lat="49.90486" lon="2.44625">
        <ele>35.8</ele>
        <time>2022-03-30T12:02:03Z</time>
      </trkpt>
      <trkpt lat="49.90486" lon="2.44625">
        <ele>35.8</ele>
        <time>2022-03-30T12:02:04Z</time>
      </trkpt>
      <trkpt lat="49.90486" lon="2.44625">
        <ele>35.8</ele>
        <time>2022-03-30T12:02:05Z</time>
      </trkpt>
      <trkpt lat="49.90486" lon="2.44625">
        <ele>35.8</ele>
        <time>2022-03-30T12:02:06Z</time>
      </trkpt>
      <trkpt lat="49.90486" lon="2.44625">
        <ele>35.8</ele>
        <time>2022-03-30T12:02:07Z</time>
      </trkpt>
      <trkpt lat="49.90486" lon="2.44625">
        <ele>35.8</ele>
        <time>2022-03-30T12:02:08Z</time>
      </trkpt>
      <trkpt lat="49.90486" lon="2.44625">
        <ele>35.8</ele>
        <time>2022-03-30T12:02:09Z</time>
      </trkpt>
      <trkpt lat="49.90486" lon="2.44625">
        <ele>35.8</ele>
        <time>2022-03-30T12:02:10Z</time>
      </trkpt>
      <trkpt lat="49.90486" lon="2.44625">
        <ele>35.8</ele>
        <time>2022-03-30T12:02:11Z</time>
      </trkpt>
      <trkpt lat="49.90486" lon="2.44625">
        <ele>35.8</ele>
        <time>2022-03-30T12:02:12Z</time>
      </trkpt>
      <trkpt lat="49.90486" lon="2.44625">
        <ele>35.8</ele>
        <time>2022-03-30T12:02:13Z</time>
      </trkpt>
      <trkpt lat="49.90486" lon="2.44625">
        <ele>35.8</ele>
        <time>2022-03-30T12:02:14Z</time>
      </trkpt>
      <trkpt lat="49.90486" lon="2.44625">
        <ele>35.8</ele>
        <time>2022-03-30T12:02:15Z</time>
      </trkpt>
      <trkpt lat="49.90486" lon="2.44625">
        <ele>35.8</ele>
        <time>2022-03-30T12:02:16Z</time>
      </trkpt>
      <trkpt lat="49.90486" lon="2.44625">
        <ele>35.8</ele>
        <time>2022-03-30T12:02:17Z</time>
      </trkpt>
      <trkpt lat="49.90486" lon="2.44625">
        <ele>35.8</ele>
        <time>2022-03-30T12:02:18Z</time>
      </trkpt>
      <trkpt lat="49.90486" lon="2.44625">
        <ele>35.8</ele>
        <time>2022-03-30T12:02:19Z</time>
      </trkpt>
      <trkpt lat="49.90486" lon="2.44625">
        <ele>35.8</ele>
        <time>2022-03-30T12:02:20Z</time>
      </trkpt>
      <trkpt lat="49.90486" lon="2.44625">
        <ele>35.8</ele>
        <time>2022-03-30T12:02:21Z</time>
      </trkpt>
      <trkpt lat="49.90486" lon="2.44625">
        <ele>35.8</ele>
        <time>2022-03-30T12:02:22Z</time>
      </trkpt>
      <trkpt lat="49.90486" lon="2.44625">
        <ele>35.8</ele>
        <time>2022-03-30T12:02:23Z</time>
      </trkpt>
      <trkpt lat="49.90486" lon="2.44625">
        <ele>35.8</ele>
        <time>2022-03-30T12:02:24Z</time>
      </trkpt>
      <trkpt lat="49.90486" lon="2.44625">
        <ele>35.8</ele>
        <time>2022-03-30T12:02:25Z</time>
      </trkpt>
      <trkpt lat="49.90486" lon="2.44625">
        <ele>35.8</ele>
        <time>2022-03-30T12:02:26Z</time>
      </trkpt>
      <trkpt lat="49.90486" lon="2.44625">
        <ele>35.8</ele>
        <time>2022-03-30T12:02:27Z</time>
      </trkpt>
      <trkpt lat="49.90486" lon="2.44625">
        <ele>35.8</ele>
        <time>2022-03-30T12:02:28Z</time>
      </trkpt>
      <trkpt lat="49.90486" lon="2.44625">
        <ele>35.8</ele>
        <time>2022-03-30T12:02:29Z</time>
      </trkpt>
      <trkpt lat="49.90486" lon="2.44625">
        <ele>35.8</ele>
        <time>2022-03-30T12:02:30Z</time>
      </trkpt>
      <trkpt lat="49.90486" lon="2.44625">
        <ele>35.8</ele>
        <time>2022-03-30T12:02:31Z</time>
      </trkpt>
      <trkpt lat="49.90486" lon="2.44625">
        <ele>35.8</ele>
        <time>2022-03-30T12:02:32Z</time>
      </trkpt>
      <trkpt lat="49.90486" lon="2.44625">
        <ele>35.8</ele>
        <time>2022-03-30T12:02:33Z</time>
      </trkpt>
      <trkpt lat="49.90486" lon="2.44625">
        <ele>35.8</ele>
        <time>2022-03-30T12:02:34Z</time>
      </trkpt>
      <trkpt lat="49.90486" lon="2.44625">
        <ele>35.8</ele>
        <time>2022-03-30T12:02:35Z</time>
      </trkpt>
      <trkpt lat="49.90486" lon="2.44625">
        <ele>35.8</ele>
        <time>2022-03-30T12:02:36Z</time>
      </trkpt>
      <trkpt lat="49.90486" lon="2.44625">
        <ele>35.8</ele>
        <time>2022-03-30T12:02:37Z</time>
      </trkpt>
      <trkpt lat="49.90486" lon="2.44625">
        <ele>35.8</ele>
        <time>2022-03-30T12:02:38Z</time>
      </trkpt>
      <trkpt lat="49.90486" lon="2.44625">
        <ele>35.8</ele>
        <time>2022-03-30T12:02:39Z</time>
      </trkpt>
      <trkpt lat="49.90486" lon="2.44625">
        <ele>35.8</ele>
        <time>2022-03-30T12:02:40Z</time>
      </trkpt>
      <trkpt lat="49.90486" lon="2.44625">
        <ele>35.8</ele>
        <time>2022-03-30T12:02:41Z</time>
      </trkpt>
      <trkpt lat="49.90486" lon="2.44625">
        <ele>35.8</ele>
        <time>2022-03-30T12:02:42Z</time>
      </trkpt>
      <trkpt lat="49.90486" lon="2.44625">
        <ele>35.8</ele>
        <time>2022-03-30T12:02:43Z</time>
      </trkpt>
      <trkpt lat="49.90486" lon="2.44625">
        <ele>35.8</ele>
        <time>2022-03-30T12:02:44Z</time>
      </trkpt>
      <trkpt lat="49.90486" lon="2.44625">
        <ele>35.8</ele>
        <time>2022-03-30T12:02:45Z</time>
      </trkpt>
      <trkpt lat="49.90486" lon="2.44625">
        <ele>35.8</ele>
        <time>2022-03-30T12:02:46Z</time>
      </trkpt>
      <trkpt lat="49.90486" lon="2.44625">
        <ele>35.8</ele>
        <time>2022-03-30T12:02:47Z</time>
      </trkpt>
      <trkpt lat="49.90486" lon="2.44625">
        <ele>35.8</ele>
        <time>2022-03-30T12:02:48Z</time>
      </trkpt>
      <trkpt lat="49.90486" lon="2.44625">
        <ele>35.8</ele>
        <time>2022-03-30T12:02:49Z</time>
      </trkpt>
      <trkpt lat="49.90486" lon="2.44625">
        <ele>35.8</ele>
        <time>2022-03-30T12:02:50Z</time>
      </trkpt>
      <trkpt lat="49.90486" lon="2.44625">
        <ele>35.8</ele>
        <time>2022-03-30T12:02:51Z</time>
      </trkpt>
      <trkpt lat="49.90486" lon="2.44625">
        <ele>35.8</ele>
        <time>2022-03-30T12:02:52Z</time>
      </trkpt>
      <trkpt lat="49.90486" lon="2.44625">
        <ele>35.8</ele>
        <time>2022-03-30T12:02:53Z</time>
      </trkpt>
      <trkpt lat="49.90486" lon="2.44625">
        <ele>35.8</ele>
        <time>2022-03-30T12:02:54Z</time>
      </trkpt>
      <trkpt lat="49.90486" lon="2.44625">
        <ele>35.8</ele>
        <time>2022-03-30T12:02:55Z</time>
      </trkpt>
      <trkpt lat="49.90486" lon="2.44625">
        <ele>35.8</ele>
        <time>2022-03-30T12:02:56Z</time>
      </trkpt>
      <trkpt lat="49.90486" lon="2.44625">
        <ele>35.8</ele>
        <time>2022-03-30T12:02:57Z</time>
      </trkpt>
      <trkpt lat="49.90486" lon="2.44625">
        <ele>35.8</ele>
        <time>2022-03-30T12:02:58Z</time>
      </trkpt>
      <trkpt lat="49.90486" lon="2.44625">
        <ele>35.8</ele>
        <time>2022-03-30T12:02:59Z</time>
      </trkpt>
      <trkpt lat="49.90486" lon="2.44625">
        <ele>35.8</ele>
        <time>2022-03-30T12:03:00Z</time>
      </trkpt>
      <trkpt lat="49.90486" lon="2.44625">
        <ele>35.8</ele>
        <time>2022-03-30T12:03:01Z</time>
      </trkpt>
      <trkpt lat="49.90486" lon="2.44625">
        <ele>35.8</ele>
        <time>2022-03-30T12:03:02Z</time>
      </trkpt>
      <trkpt lat="49.90486" lon="2.44625">
        <ele>35.8</ele>
        <time>2022-03-30T12:03:03Z</time>
      </trkpt>
      <trkpt lat="49.90486" lon="2.44625">
        <ele>35.8</ele>
        <time>2022-03-30T12:03:04Z</time>
      </trkpt>
      <trkpt lat="49.90486" lon="2.44625">
        <ele>35.8</ele>
        <time>2022-03-30T12:03:05Z</time>
      </trkpt>
      <trkpt lat="49.90486" lon="2.44625">
        <ele>35.8</ele>
        <time>2022-03-30T12:03:06Z</time>
      </trkpt>
      <trkpt lat="49.90486" lon="2.44625">
        <ele>35.8</ele>
        <time>2022-03-30T12:03:07Z</time>
      </trkpt>
      <trkpt lat="49.90486" lon="2.44625">
        <ele>35.8</ele>
        <time>2022-03-30T12:03:08Z</time>
      </trkpt>
      <trkpt lat="49.90486" lon="2.44625">
        <ele>35.8</ele>
        <time>2022-03-30T12:03:09Z</time>
      </trkpt>
      <trkpt lat="49.90486" lon="2.44625">
        <ele>35.8</ele>
        <time>2022-03-30T12:03:10Z</time>
      </trkpt>
      <trkpt lat="49.90486" lon="2.44625">
        <ele>35.8</ele>
        <time>2022-03-30T12:03:11Z</time>
      </trkpt>
      <trkpt lat="49.90486" lon="2.44625">
        <ele>35.8</ele>
        <time>2022-03-30T12:03:12Z</time>
      </trkpt>
      <trkpt lat="49.90486" lon="2.44625">
        <ele>35.8</ele>
        <time>2022-03-30T12:03:13Z</time>
      </trkpt>
      <trkpt lat="49.90486" lon="2.44625">
        <ele>35.8</ele>
        <time>2022-03-30T12:03:14Z</time>
      </trkpt>
      <trkpt lat="49.90486" lon="2.44625">
        <ele>35.8</ele>
        <time>2022-03-30T12:03:15Z</time>
      </trkpt>
      <trkpt lat="49.90486" lon="2.44625">
        <ele>35.8</ele>
        <time>2022-03-30T12:03:16Z</time>
      </trkpt>
      <trkpt lat="49.90486" lon="2.44625">
        <ele>35.8</ele>
        <time>2022-03-30T12:03:17Z</time>
      </trkpt>
      <trkpt lat="49.90487" lon="2.44626">
        <ele>35.8</ele>
        <time>2022-03-30T12:03:18Z</time>
      </trkpt>
      <trkpt lat="49.90487" lon="2.44626">
        <ele>35.8</ele>
        <time>2022-03-30T12:03:19Z</time>
      </trkpt>
      <trkpt lat="49.90487" lon="2.44627">
        <ele>35.8</ele>
        <time>2022-03-30T12:03:20Z</time>
      </trkpt>
      <trkpt lat="49.90488" lon="2.4463">
        <ele>35.8</ele>
        <time>2022-03-30T12:03:21Z</time>
      </trkpt>
      <trkpt lat="49.90488" lon="2.44631">
        <ele>35.8</ele>
        <time>2022-03-30T12:03:22Z</time>
      </trkpt>
      <trkpt lat="49.90488" lon="2.44633">
        <ele>35.8</ele>
        <time>2022-03-30T12:03:23Z</time>
      </trkpt>
      <trkpt lat="49.90488" lon="2.44638">
        <ele>35.8</ele>
        <time>2022-03-30T12:03:24Z</time>
      </trkpt>
      <trkpt lat="49.90489" lon="2.44639">
        <ele>35.8</ele>
        <time>2022-03-30T12:03:25Z</time>
      </trkpt>
      <trkpt lat="49.90489" lon="2.44645">
        <ele>35.9</ele>
        <time>2022-03-30T12:03:26Z</time>
      </trkpt>
      <trkpt lat="49.90489" lon="2.44647">
        <ele>35.9</ele>
        <time>2022-03-30T12:03:27Z</time>
      </trkpt>
      <trkpt lat="49.90489" lon="2.44651">
        <ele>35.9</ele>
        <time>2022-03-30T12:03:28Z</time>
      </trkpt>
      <trkpt lat="49.90489" lon="2.44653">
        <ele>35.9</ele>
        <time>2022-03-30T12:03:29Z</time>
      </trkpt>
      <trkpt lat="49.9049" lon="2.44656">
        <ele>35.9</ele>
        <time>2022-03-30T12:03:30Z</time>
      </trkpt>
      <trkpt lat="49.9049" lon="2.44658">
        <ele>35.9</ele>
        <time>2022-03-30T12:03:31Z</time>
      </trkpt>
      <trkpt lat="49.9049" lon="2.4466">
        <ele>35.9</ele>
        <time>2022-03-30T12:03:32Z</time>
      </trkpt>
      <trkpt lat="49.9049" lon="2.44662">
        <ele>35.9</ele>
        <time>2022-03-30T12:03:33Z</time>
      </trkpt>
      <trkpt lat="49.9049" lon="2.44663">
        <ele>35.9</ele>
        <time>2022-03-30T12:03:34Z</time>
      </trkpt>
      <trkpt lat="49.9049" lon="2.44664">
        <ele>36</ele>
        <time>2022-03-30T12:03:35Z</time>
      </trkpt>
      <trkpt lat="49.9049" lon="2.44665">
        <ele>36</ele>
        <time>2022-03-30T12:03:36Z</time>
      </trkpt>
      <trkpt lat="49.90491" lon="2.44665">
        <ele>36</ele>
        <time>2022-03-30T12:03:37Z</time>
      </trkpt>
      <trkpt lat="49.90491" lon="2.44665">
        <ele>36</ele>
        <time>2022-03-30T12:03:38Z</time>
      </trkpt>
      <trkpt lat="49.90491" lon="2.44665">
        <ele>36</ele>
        <time>2022-03-30T12:03:39Z</time>
      </trkpt>
      <trkpt lat="49.90491" lon="2.44666">
        <ele>36</ele>
        <time>2022-03-30T12:03:40Z</time>
      </trkpt>
      <trkpt lat="49.90492" lon="2.44666">
        <ele>36</ele>
        <time>2022-03-30T12:03:41Z</time>
      </trkpt>
      <trkpt lat="49.90492" lon="2.44666">
        <ele>36</ele>
        <time>2022-03-30T12:03:42Z</time>
      </trkpt>
      <trkpt lat="49.90492" lon="2.44666">
        <ele>36</ele>
        <time>2022-03-30T12:03:43Z</time>
      </trkpt>
      <trkpt lat="49.90493" lon="2.44665">
        <ele>36</ele>
        <time>2022-03-30T12:03:44Z</time>
      </trkpt>
      <trkpt lat="49.90493" lon="2.44665">
        <ele>36</ele>
        <time>2022-03-30T12:03:45Z</time>
      </trkpt>
      <trkpt lat="49.90494" lon="2.44665">
        <ele>36</ele>
        <time>2022-03-30T12:03:46Z</time>
      </trkpt>
      <trkpt lat="49.90496" lon="2.44664">
        <ele>36</ele>
        <time>2022-03-30T12:03:47Z</time>
      </trkpt>
      <trkpt lat="49.90497" lon="2.44662">
        <ele>36</ele>
        <time>2022-03-30T12:03:48Z</time>
      </trkpt>
      <trkpt lat="49.90498" lon="2.44661">
        <ele>36</ele>
        <time>2022-03-30T12:03:49Z</time>
      </trkpt>
      <trkpt lat="49.90499" lon="2.44661">
        <ele>36</ele>
        <time>2022-03-30T12:03:50Z</time>
      </trkpt>
      <trkpt lat="49.905" lon="2.44658">
        <ele>36</ele>
        <time>2022-03-30T12:03:51Z</time>
      </trkpt>
      <trkpt lat="49.90501" lon="2.44658">
        <ele>36</ele>
        <time>2022-03-30T12:03:52Z</time>
      </trkpt>
      <trkpt lat="49.90502" lon="2.44657">
        <ele>36.1</ele>
        <time>2022-03-30T12:03:53Z</time>
      </trkpt>
      <trkpt lat="49.90503" lon="2.44655">
        <ele>36.1</ele>
        <time>2022-03-30T12:03:54Z</time>
      </trkpt>
      <trkpt lat="49.90504" lon="2.44654">
        <ele>36.1</ele>
        <time>2022-03-30T12:03:55Z</time>
      </trkpt>
      <trkpt lat="49.90504" lon="2.44653">
        <ele>36.1</ele>
        <time>2022-03-30T12:03:56Z</time>
      </trkpt>
      <trkpt lat="49.90505" lon="2.44651">
        <ele>36.1</ele>
        <time>2022-03-30T12:03:57Z</time>
      </trkpt>
      <trkpt lat="49.90507" lon="2.4465">
        <ele>36.1</ele>
        <time>2022-03-30T12:03:58Z</time>
      </trkpt>
      <trkpt lat="49.90508" lon="2.44649">
        <ele>36.1</ele>
        <time>2022-03-30T12:03:59Z</time>
      </trkpt>
      <trkpt lat="49.90509" lon="2.44647">
        <ele>36.2</ele>
        <time>2022-03-30T12:04:00Z</time>
      </trkpt>
      <trkpt lat="49.9051" lon="2.44646">
        <ele>36.2</ele>
        <time>2022-03-30T12:04:01Z</time>
      </trkpt>
      <trkpt lat="49.90511" lon="2.44645">
        <ele>36.2</ele>
        <time>2022-03-30T12:04:02Z</time>
      </trkpt>
      <trkpt lat="49.90512" lon="2.44643">
        <ele>36.2</ele>
        <time>2022-03-30T12:04:03Z</time>
      </trkpt>
      <trkpt lat="49.90513" lon="2.44642">
        <ele>36.2</ele>
        <time>2022-03-30T12:04:04Z</time>
      </trkpt>
      <trkpt lat="49.90515" lon="2.4464">
        <ele>36.2</ele>
        <time>2022-03-30T12:04:05Z</time>
      </trkpt>
      <trkpt lat="49.90516" lon="2.44639">
        <ele>36.2</ele>
        <time>2022-03-30T12:04:06Z</time>
      </trkpt>
      <trkpt lat="49.90517" lon="2.44638">
        <ele>36.3</ele>
        <time>2022-03-30T12:04:07Z</time>
      </trkpt>
      <trkpt lat="49.90518" lon="2.44636">
        <ele>36.3</ele>
        <time>2022-03-30T12:04:08Z</time>
      </trkpt>
      <trkpt lat="49.9052" lon="2.44633">
        <ele>36.3</ele>
        <time>2022-03-30T12:04:09Z</time>
      </trkpt>
      <trkpt lat="49.90521" lon="2.44632">
        <ele>36.3</ele>
        <time>2022-03-30T12:04:10Z</time>
      </trkpt>
      <trkpt lat="49.90524" lon="2.44629">
        <ele>36.4</ele>
        <time>2022-03-30T12:04:11Z</time>
      </trkpt>
      <trkpt lat="49.90525" lon="2.44628">
        <ele>36.4</ele>
        <time>2022-03-30T12:04:12Z</time>
      </trkpt>
      <trkpt lat="49.90527" lon="2.44625">
        <ele>36.4</ele>
        <time>2022-03-30T12:04:13Z</time>
      </trkpt>
      <trkpt lat="49.90527" lon="2.44624">
        <ele>36.4</ele>
        <time>2022-03-30T12:04:14Z</time>
      </trkpt>
      <trkpt lat="49.90529" lon="2.44622">
        <ele>36.5</ele>
        <time>2022-03-30T12:04:15Z</time>
      </trkpt>
      <trkpt lat="49.9053" lon="2.4462">
        <ele>36.5</ele>
        <time>2022-03-30T12:04:16Z</time>
      </trkpt>
      <trkpt lat="49.9053" lon="2.44618">
        <ele>36.5</ele>
        <time>2022-03-30T12:04:17Z</time>
      </trkpt>
      <trkpt lat="49.90531" lon="2.44617">
        <ele>36.5</ele>
        <time>2022-03-30T12:04:18Z</time>
      </trkpt>
      <trkpt lat="49.90532" lon="2.44616">
        <ele>36.5</ele>
        <time>2022-03-30T12:04:19Z</time>
      </trkpt>
      <trkpt lat="49.90533" lon="2.44615">
        <ele>36.5</ele>
        <time>2022-03-30T12:04:20Z</time>
      </trkpt>
      <trkpt lat="49.90534" lon="2.44613">
        <ele>36.6</ele>
        <time>2022-03-30T12:04:21Z</time>
      </trkpt>
      <trkpt lat="49.90535" lon="2.44612">
        <ele>36.6</ele>
        <time>2022-03-30T12:04:22Z</time>
      </trkpt>
      <trkpt lat="49.90535" lon="2.44611">
        <ele>36.6</ele>
        <time>2022-03-30T12:04:23Z</time>
      </trkpt>
      <trkpt lat="49.90536" lon="2.4461">
        <ele>36.6</ele>
        <time>2022-03-30T12:04:24Z</time>
      </trkpt>
      <trkpt lat="49.90537" lon="2.44609">
        <ele>36.6</ele>
        <time>2022-03-30T12:04:25Z</time>
      </trkpt>
      <trkpt lat="49.90538" lon="2.44607">
        <ele>36.6</ele>
        <time>2022-03-30T12:04:26Z</time>
      </trkpt>
      <trkpt lat="49.90539" lon="2.44606">
        <ele>36.7</ele>
        <time>2022-03-30T12:04:27Z</time>
      </trkpt>
      <trkpt lat="49.9054" lon="2.44605">
        <ele>36.7</ele>
        <time>2022-03-30T12:04:28Z</time>
      </trkpt>
      <trkpt lat="49.90541" lon="2.44603">
        <ele>36.7</ele>
        <time>2022-03-30T12:04:29Z</time>
      </trkpt>
      <trkpt lat="49.90542" lon="2.44602">
        <ele>36.7</ele>
        <time>2022-03-30T12:04:30Z</time>
      </trkpt>
      <trkpt lat="49.90542" lon="2.44601">
        <ele>36.7</ele>
        <time>2022-03-30T12:04:31Z</time>
      </trkpt>
      <trkpt lat="49.90543" lon="2.446">
        <ele>36.7</ele>
        <time>2022-03-30T12:04:32Z</time>
      </trkpt>
      <trkpt lat="49.90544" lon="2.44599">
        <ele>36.8</ele>
        <time>2022-03-30T12:04:33Z</time>
      </trkpt>
      <trkpt lat="49.90544" lon="2.44598">
        <ele>36.8</ele>
        <time>2022-03-30T12:04:34Z</time>
      </trkpt>
      <trkpt lat="49.90545" lon="2.44597">
        <ele>36.8</ele>
        <time>2022-03-30T12:04:35Z</time>
      </trkpt>
      <trkpt lat="49.90546" lon="2.44596">
        <ele>36.8</ele>
        <time>2022-03-30T12:04:36Z</time>
      </trkpt>
      <trkpt lat="49.90547" lon="2.44595">
        <ele>36.8</ele>
        <time>2022-03-30T12:04:37Z</time>
      </trkpt>
      <trkpt lat="49.90548" lon="2.44593">
        <ele>36.9</ele>
        <time>2022-03-30T12:04:38Z</time>
      </trkpt>
      <trkpt lat="49.90549" lon="2.44592">
        <ele>36.9</ele>
        <time>2022-03-30T12:04:39Z</time>
      </trkpt>
      <trkpt lat="49.9055" lon="2.44591">
        <ele>36.9</ele>
        <time>2022-03-30T12:04:40Z</time>
      </trkpt>
      <trkpt lat="49.90551" lon="2.4459">
        <ele>36.9</ele>
        <time>2022-03-30T12:04:41Z</time>
      </trkpt>
      <trkpt lat="49.90552" lon="2.44589">
        <ele>36.9</ele>
        <time>2022-03-30T12:04:42Z</time>
      </trkpt>
      <trkpt lat="49.90552" lon="2.44587">
        <ele>37</ele>
        <time>2022-03-30T12:04:43Z</time>
      </trkpt>
      <trkpt lat="49.90554" lon="2.44585">
        <ele>37</ele>
        <time>2022-03-30T12:04:44Z</time>
      </trkpt>
      <trkpt lat="49.90555" lon="2.44584">
        <ele>37</ele>
        <time>2022-03-30T12:04:45Z</time>
      </trkpt>
      <trkpt lat="49.90555" lon="2.44583">
        <ele>37</ele>
        <time>2022-03-30T12:04:46Z</time>
      </trkpt>
      <trkpt lat="49.90556" lon="2.44582">
        <ele>37.1</ele>
        <time>2022-03-30T12:04:47Z</time>
      </trkpt>
      <trkpt lat="49.90557" lon="2.4458">
        <ele>37.1</ele>
        <time>2022-03-30T12:04:48Z</time>
      </trkpt>
      <trkpt lat="49.90558" lon="2.44579">
        <ele>37.1</ele>
        <time>2022-03-30T12:04:49Z</time>
      </trkpt>
      <trkpt lat="49.90558" lon="2.44578">
        <ele>37.1</ele>
        <time>2022-03-30T12:04:50Z</time>
      </trkpt>
      <trkpt lat="49.90559" lon="2.44577">
        <ele>37.2</ele>
        <time>2022-03-30T12:04:51Z</time>
      </trkpt>
      <trkpt lat="49.9056" lon="2.44575">
        <ele>37.2</ele>
        <time>2022-03-30T12:04:52Z</time>
      </trkpt>
      <trkpt lat="49.90562" lon="2.44574">
        <ele>37.2</ele>
        <time>2022-03-30T12:04:53Z</time>
      </trkpt>
      <trkpt lat="49.90562" lon="2.44573">
        <ele>37.2</ele>
        <time>2022-03-30T12:04:54Z</time>
      </trkpt>
      <trkpt lat="49.90563" lon="2.44572">
        <ele>37.3</ele>
        <time>2022-03-30T12:04:55Z</time>
      </trkpt>
      <trkpt lat="49.90565" lon="2.44571">
        <ele>37.3</ele>
        <time>2022-03-30T12:04:56Z</time>
      </trkpt>
      <trkpt lat="49.90566" lon="2.44571">
        <ele>37.3</ele>
        <time>2022-03-30T12:04:57Z</time>
      </trkpt>
      <trkpt lat="49.90567" lon="2.4457">
        <ele>37.3</ele>
        <time>2022-03-30T12:04:58Z</time>
      </trkpt>
      <trkpt lat="49.90568" lon="2.4457">
        <ele>37.4</ele>
        <time>2022-03-30T12:04:59Z</time>
      </trkpt>
      <trkpt lat="49.90569" lon="2.44569">
        <ele>37.4</ele>
        <time>2022-03-30T12:05:00Z</time>
      </trkpt>
      <trkpt lat="49.9057" lon="2.44569">
        <ele>37.4</ele>
        <time>2022-03-30T12:05:01Z</time>
      </trkpt>
      <trkpt lat="49.90571" lon="2.44568">
        <ele>37.5</ele>
        <time>2022-03-30T12:05:02Z</time>
      </trkpt>
      <trkpt lat="49.90572" lon="2.44568">
        <ele>37.5</ele>
        <time>2022-03-30T12:05:03Z</time>
      </trkpt>
      <trkpt lat="49.90574" lon="2.44567">
        <ele>37.5</ele>
        <time>2022-03-30T12:05:04Z</time>
      </trkpt>
      <trkpt lat="49.90575" lon="2.44567">
        <ele>37.5</ele>
        <time>2022-03-30T12:05:05Z</time>
      </trkpt>
      <trkpt lat="49.90576" lon="2.44567">
        <ele>37.5</ele>
        <time>2022-03-30T12:05:06Z</time>
      </trkpt>
      <trkpt lat="49.90577" lon="2.44566">
        <ele>37.6</ele>
        <time>2022-03-30T12:05:07Z</time>
      </trkpt>
      <trkpt lat="49.90578" lon="2.44566">
        <ele>37.7</ele>
        <time>2022-03-30T12:05:08Z</time>
      </trkpt>
      <trkpt lat="49.90579" lon="2.44565">
        <ele>37.7</ele>
        <time>2022-03-30T12:05:09Z</time>
      </trkpt>
      <trkpt lat="49.90581" lon="2.44564">
        <ele>37.7</ele>
        <time>2022-03-30T12:05:10Z</time>
      </trkpt>
      <trkpt lat="49.90582" lon="2.44564">
        <ele>37.7</ele>
        <time>2022-03-30T12:05:11Z</time>
      </trkpt>
      <trkpt lat="49.90582" lon="2.44564">
        <ele>37.7</ele>
        <time>2022-03-30T12:05:12Z</time>
      </trkpt>
      <trkpt lat="49.90584" lon="2.44564">
        <ele>37.7</ele>
        <time>2022-03-30T12:05:13Z</time>
      </trkpt>
      <trkpt lat="49.90585" lon="2.44564">
        <ele>37.7</ele>
        <time>2022-03-30T12:05:14Z</time>
      </trkpt>
      <trkpt lat="49.90586" lon="2.44564">
        <ele>37.7</ele>
        <time>2022-03-30T12:05:15Z</time>
      </trkpt>
      <trkpt lat="49.90586" lon="2.44564">
        <ele>37.7</ele>
        <time>2022-03-30T12:05:16Z</time>
      </trkpt>
      <trkpt lat="49.90587" lon="2.44564">
        <ele>37.7</ele>
        <time>2022-03-30T12:05:17Z</time>
      </trkpt>
      <trkpt lat="49.90588" lon="2.44563">
        <ele>37.7</ele>
        <time>2022-03-30T12:05:18Z</time>
      </trkpt>
      <trkpt lat="49.9059" lon="2.44563">
        <ele>37.7</ele>
        <time>2022-03-30T12:05:19Z</time>
      </trkpt>
      <trkpt lat="49.90591" lon="2.44564">
        <ele>37.7</ele>
        <time>2022-03-30T12:05:20Z</time>
      </trkpt>
      <trkpt lat="49.90592" lon="2.44564">
        <ele>37.7</ele>
        <time>2022-03-30T12:05:21Z</time>
      </trkpt>
      <trkpt lat="49.90593" lon="2.44564">
        <ele>37.7</ele>
        <time>2022-03-30T12:05:22Z</time>
      </trkpt>
      <trkpt lat="49.90594" lon="2.44565">
        <ele>37.6</ele>
        <time>2022-03-30T12:05:23Z</time>
      </trkpt>
      <trkpt lat="49.90595" lon="2.44565">
        <ele>37.6</ele>
        <time>2022-03-30T12:05:24Z</time>
      </trkpt>
      <trkpt lat="49.90597" lon="2.44565">
        <ele>37.6</ele>
        <time>2022-03-30T12:05:25Z</time>
      </trkpt>
      <trkpt lat="49.90598" lon="2.44566">
        <ele>37.6</ele>
        <time>2022-03-30T12:05:26Z</time>
      </trkpt>
      <trkpt lat="49.90599" lon="2.44566">
        <ele>37.6</ele>
        <time>2022-03-30T12:05:27Z</time>
      </trkpt>
      <trkpt lat="49.90599" lon="2.44566">
        <ele>37.7</ele>
        <time>2022-03-30T12:05:28Z</time>
      </trkpt>
      <trkpt lat="49.906" lon="2.44566">
        <ele>37.7</ele>
        <time>2022-03-30T12:05:29Z</time>
      </trkpt>
      <trkpt lat="49.90601" lon="2.44567">
        <ele>37.7</ele>
        <time>2022-03-30T12:05:30Z</time>
      </trkpt>
      <trkpt lat="49.90602" lon="2.44567">
        <ele>37.7</ele>
        <time>2022-03-30T12:05:31Z</time>
      </trkpt>
      <trkpt lat="49.90603" lon="2.44567">
        <ele>37.7</ele>
        <time>2022-03-30T12:05:32Z</time>
      </trkpt>
      <trkpt lat="49.90604" lon="2.44567">
        <ele>37.7</ele>
        <time>2022-03-30T12:05:33Z</time>
      </trkpt>
      <trkpt lat="49.90605" lon="2.44568">
        <ele>37.7</ele>
        <time>2022-03-30T12:05:34Z</time>
      </trkpt>
      <trkpt lat="49.90606" lon="2.44568">
        <ele>37.7</ele>
        <time>2022-03-30T12:05:35Z</time>
      </trkpt>
      <trkpt lat="49.90607" lon="2.44568">
        <ele>37.7</ele>
        <time>2022-03-30T12:05:36Z</time>
      </trkpt>
      <trkpt lat="49.90608" lon="2.44569">
        <ele>37.7</ele>
        <time>2022-03-30T12:05:37Z</time>
      </trkpt>
      <trkpt lat="49.90609" lon="2.44569">
        <ele>37.7</ele>
        <time>2022-03-30T12:05:38Z</time>
      </trkpt>
      <trkpt lat="49.90609" lon="2.44569">
        <ele>37.7</ele>
        <time>2022-03-30T12:05:39Z</time>
      </trkpt>
      <trkpt lat="49.9061" lon="2.4457">
        <ele>37.7</ele>
        <time>2022-03-30T12:05:40Z</time>
      </trkpt>
      <trkpt lat="49.90611" lon="2.4457">
        <ele>37.7</ele>
        <time>2022-03-30T12:05:41Z</time>
      </trkpt>
      <trkpt lat="49.90611" lon="2.44571">
        <ele>37.7</ele>
        <time>2022-03-30T12:05:42Z</time>
      </trkpt>
      <trkpt lat="49.90611" lon="2.44571">
        <ele>37.7</ele>
        <time>2022-03-30T12:05:43Z</time>
      </trkpt>
      <trkpt lat="49.90612" lon="2.44571">
        <ele>37.7</ele>
        <time>2022-03-30T12:05:44Z</time>
      </trkpt>
      <trkpt lat="49.90613" lon="2.44572">
        <ele>37.7</ele>
        <time>2022-03-30T12:05:45Z</time>
      </trkpt>
      <trkpt lat="49.90615" lon="2.44573">
        <ele>37.8</ele>
        <time>2022-03-30T12:05:46Z</time>
      </trkpt>
      <trkpt lat="49.90616" lon="2.44573">
        <ele>37.8</ele>
        <time>2022-03-30T12:05:47Z</time>
      </trkpt>
      <trkpt lat="49.90617" lon="2.44574">
        <ele>37.8</ele>
        <time>2022-03-30T12:05:48Z</time>
      </trkpt>
      <trkpt lat="49.90617" lon="2.44574">
        <ele>37.8</ele>
        <time>2022-03-30T12:05:49Z</time>
      </trkpt>
      <trkpt lat="49.90619" lon="2.44574">
        <ele>37.8</ele>
        <time>2022-03-30T12:05:50Z</time>
      </trkpt>
      <trkpt lat="49.9062" lon="2.44575">
        <ele>37.8</ele>
        <time>2022-03-30T12:05:51Z</time>
      </trkpt>
      <trkpt lat="49.90621" lon="2.44575">
        <ele>37.8</ele>
        <time>2022-03-30T12:05:52Z</time>
      </trkpt>
      <trkpt lat="49.90622" lon="2.44575">
        <ele>37.9</ele>
        <time>2022-03-30T12:05:53Z</time>
      </trkpt>
      <trkpt lat="49.90623" lon="2.44575">
        <ele>37.9</ele>
        <time>2022-03-30T12:05:54Z</time>
      </trkpt>
      <trkpt lat="49.90624" lon="2.44576">
        <ele>37.9</ele>
        <time>2022-03-30T12:05:55Z</time>
      </trkpt>
      <trkpt lat="49.90625" lon="2.44576">
        <ele>37.9</ele>
        <time>2022-03-30T12:05:56Z</time>
      </trkpt>
      <trkpt lat="49.90626" lon="2.44576">
        <ele>37.9</ele>
        <time>2022-03-30T12:05:57Z</time>
      </trkpt>
      <trkpt lat="49.90627" lon="2.44576">
        <ele>37.9</ele>
        <time>2022-03-30T12:05:58Z</time>
      </trkpt>
      <trkpt lat="49.90628" lon="2.44577">
        <ele>37.9</ele>
        <time>2022-03-30T12:05:59Z</time>
      </trkpt>
      <trkpt lat="49.90629" lon="2.44577">
        <ele>38</ele>
        <time>2022-03-30T12:06:00Z</time>
      </trkpt>
      <trkpt lat="49.9063" lon="2.44577">
        <ele>38</ele>
        <time>2022-03-30T12:06:01Z</time>
      </trkpt>
      <trkpt lat="49.90631" lon="2.44577">
        <ele>38</ele>
        <time>2022-03-30T12:06:02Z</time>
      </trkpt>
      <trkpt lat="49.90631" lon="2.44577">
        <ele>38</ele>
        <time>2022-03-30T12:06:03Z</time>
      </trkpt>
      <trkpt lat="49.90632" lon="2.44577">
        <ele>38</ele>
        <time>2022-03-30T12:06:04Z</time>
      </trkpt>
      <trkpt lat="49.90633" lon="2.44577">
        <ele>38</ele>
        <time>2022-03-30T12:06:05Z</time>
      </trkpt>
      <trkpt lat="49.90634" lon="2.44578">
        <ele>38</ele>
        <time>2022-03-30T12:06:06Z</time>
      </trkpt>
      <trkpt lat="49.90636" lon="2.44578">
        <ele>38.1</ele>
        <time>2022-03-30T12:06:07Z</time>
      </trkpt>
      <trkpt lat="49.90636" lon="2.44578">
        <ele>38.1</ele>
        <time>2022-03-30T12:06:08Z</time>
      </trkpt>
      <trkpt lat="49.90637" lon="2.44579">
        <ele>38.1</ele>
        <time>2022-03-30T12:06:09Z</time>
      </trkpt>
      <trkpt lat="49.90638" lon="2.44579">
        <ele>38.1</ele>
        <time>2022-03-30T12:06:10Z</time>
      </trkpt>
      <trkpt lat="49.90639" lon="2.44579">
        <ele>38.1</ele>
        <time>2022-03-30T12:06:11Z</time>
      </trkpt>
      <trkpt lat="49.9064" lon="2.4458">
        <ele>38.1</ele>
        <time>2022-03-30T12:06:12Z</time>
      </trkpt>
      <trkpt lat="49.90641" lon="2.4458">
        <ele>38.1</ele>
        <time>2022-03-30T12:06:13Z</time>
      </trkpt>
      <trkpt lat="49.90642" lon="2.44581">
        <ele>38.2</ele>
        <time>2022-03-30T12:06:14Z</time>
      </trkpt>
      <trkpt lat="49.90644" lon="2.44582">
        <ele>38.2</ele>
        <time>2022-03-30T12:06:15Z</time>
      </trkpt>
      <trkpt lat="49.90644" lon="2.44583">
        <ele>38.2</ele>
        <time>2022-03-30T12:06:16Z</time>
      </trkpt>
      <trkpt lat="49.90645" lon="2.44583">
        <ele>38.2</ele>
        <time>2022-03-30T12:06:17Z</time>
      </trkpt>
      <trkpt lat="49.90646" lon="2.44584">
        <ele>38.2</ele>
        <time>2022-03-30T12:06:18Z</time>
      </trkpt>
      <trkpt lat="49.90647" lon="2.44585">
        <ele>38.2</ele>
        <time>2022-03-30T12:06:19Z</time>
      </trkpt>
      <trkpt lat="49.90649" lon="2.44586">
        <ele>38.2</ele>
        <time>2022-03-30T12:06:20Z</time>
      </trkpt>
      <trkpt lat="49.9065" lon="2.44587">
        <ele>38.2</ele>
        <time>2022-03-30T12:06:21Z</time>
      </trkpt>
      <trkpt lat="49.9065" lon="2.44587">
        <ele>38.2</ele>
        <time>2022-03-30T12:06:22Z</time>
      </trkpt>
      <trkpt lat="49.90652" lon="2.44588">
        <ele>38.2</ele>
        <time>2022-03-30T12:06:23Z</time>
      </trkpt>
      <trkpt lat="49.90653" lon="2.44589">
        <ele>38.2</ele>
        <time>2022-03-30T12:06:24Z</time>
      </trkpt>
      <trkpt lat="49.90653" lon="2.4459">
        <ele>38.2</ele>
        <time>2022-03-30T12:06:25Z</time>
      </trkpt>
      <trkpt lat="49.90654" lon="2.44591">
        <ele>38.2</ele>
        <time>2022-03-30T12:06:26Z</time>
      </trkpt>
      <trkpt lat="49.90655" lon="2.44592">
        <ele>38.2</ele>
        <time>2022-03-30T12:06:27Z</time>
      </trkpt>
      <trkpt lat="49.90656" lon="2.44593">
        <ele>38.2</ele>
        <time>2022-03-30T12:06:28Z</time>
      </trkpt>
      <trkpt lat="49.90657" lon="2.44594">
        <ele>38.2</ele>
        <time>2022-03-30T12:06:29Z</time>
      </trkpt>
      <trkpt lat="49.90659" lon="2.44595">
        <ele>38.1</ele>
        <time>2022-03-30T12:06:30Z</time>
      </trkpt>
      <trkpt lat="49.9066" lon="2.44596">
        <ele>38.1</ele>
        <time>2022-03-30T12:06:31Z</time>
      </trkpt>
      <trkpt lat="49.90661" lon="2.44598">
        <ele>38.1</ele>
        <time>2022-03-30T12:06:32Z</time>
      </trkpt>
      <trkpt lat="49.90662" lon="2.44599">
        <ele>38</ele>
        <time>2022-03-30T12:06:33Z</time>
      </trkpt>
      <trkpt lat="49.90664" lon="2.44601">
        <ele>38</ele>
        <time>2022-03-30T12:06:34Z</time>
      </trkpt>
      <trkpt lat="49.90665" lon="2.44602">
        <ele>37.9</ele>
        <time>2022-03-30T12:06:35Z</time>
      </trkpt>
      <trkpt lat="49.90667" lon="2.44603">
        <ele>37.9</ele>
        <time>2022-03-30T12:06:36Z</time>
      </trkpt>
      <trkpt lat="49.90668" lon="2.44604">
        <ele>37.8</ele>
        <time>2022-03-30T12:06:37Z</time>
      </trkpt>
      <trkpt lat="49.90669" lon="2.44605">
        <ele>37.8</ele>
        <time>2022-03-30T12:06:38Z</time>
      </trkpt>
      <trkpt lat="49.9067" lon="2.44606">
        <ele>37.7</ele>
        <time>2022-03-30T12:06:39Z</time>
      </trkpt>
      <trkpt lat="49.90671" lon="2.44606">
        <ele>37.7</ele>
        <time>2022-03-30T12:06:40Z</time>
      </trkpt>
      <trkpt lat="49.90672" lon="2.44606">
        <ele>37.7</ele>
        <time>2022-03-30T12:06:41Z</time>
      </trkpt>
      <trkpt lat="49.90674" lon="2.44606">
        <ele>37.6</ele>
        <time>2022-03-30T12:06:42Z</time>
      </trkpt>
      <trkpt lat="49.90675" lon="2.44606">
        <ele>37.6</ele>
        <time>2022-03-30T12:06:43Z</time>
      </trkpt>
      <trkpt lat="49.90676" lon="2.44606">
        <ele>37.5</ele>
        <time>2022-03-30T12:06:44Z</time>
      </trkpt>
      <trkpt lat="49.90677" lon="2.44607">
        <ele>37.5</ele>
        <time>2022-03-30T12:06:45Z</time>
      </trkpt>
      <trkpt lat="49.90677" lon="2.44609">
        <ele>37.4</ele>
        <time>2022-03-30T12:06:46Z</time>
      </trkpt>
      <trkpt lat="49.90678" lon="2.4461">
        <ele>37.4</ele>
        <time>2022-03-30T12:06:47Z</time>
      </trkpt>
      <trkpt lat="49.90678" lon="2.44612">
        <ele>37.4</ele>
        <time>2022-03-30T12:06:48Z</time>
      </trkpt>
      <trkpt lat="49.90679" lon="2.44613">
        <ele>37.3</ele>
        <time>2022-03-30T12:06:49Z</time>
      </trkpt>
      <trkpt lat="49.9068" lon="2.44614">
        <ele>37.3</ele>
        <time>2022-03-30T12:06:50Z</time>
      </trkpt>
      <trkpt lat="49.90681" lon="2.44616">
        <ele>37.2</ele>
        <time>2022-03-30T12:06:51Z</time>
      </trkpt>
      <trkpt lat="49.90682" lon="2.44617">
        <ele>37.2</ele>
        <time>2022-03-30T12:06:52Z</time>
      </trkpt>
      <trkpt lat="49.90683" lon="2.44618">
        <ele>37.2</ele>
        <time>2022-03-30T12:06:53Z</time>
      </trkpt>
      <trkpt lat="49.90685" lon="2.44619">
        <ele>37.1</ele>
        <time>2022-03-30T12:06:54Z</time>
      </trkpt>
      <trkpt lat="49.90685" lon="2.4462">
        <ele>37.1</ele>
        <time>2022-03-30T12:06:55Z</time>
      </trkpt>
      <trkpt lat="49.90686" lon="2.44621">
        <ele>37.1</ele>
        <time>2022-03-30T12:06:56Z</time>
      </trkpt>
      <trkpt lat="49.90687" lon="2.44621">
        <ele>37</ele>
        <time>2022-03-30T12:06:57Z</time>
      </trkpt>
      <trkpt lat="49.90688" lon="2.44622">
        <ele>37</ele>
        <time>2022-03-30T12:06:58Z</time>
      </trkpt>
      <trkpt lat="49.90689" lon="2.44623">
        <ele>37</ele>
        <time>2022-03-30T12:06:59Z</time>
      </trkpt>
      <trkpt lat="49.90691" lon="2.44625">
        <ele>36.9</ele>
        <time>2022-03-30T12:07:00Z</time>
      </trkpt>
      <trkpt lat="49.90691" lon="2.44626">
        <ele>36.9</ele>
        <time>2022-03-30T12:07:01Z</time>
      </trkpt>
      <trkpt lat="49.90692" lon="2.44626">
        <ele>36.9</ele>
        <time>2022-03-30T12:07:02Z</time>
      </trkpt>
      <trkpt lat="49.90694" lon="2.44628">
        <ele>36.8</ele>
        <time>2022-03-30T12:07:03Z</time>
      </trkpt>
      <trkpt lat="49.90695" lon="2.44629">
        <ele>36.8</ele>
        <time>2022-03-30T12:07:04Z</time>
      </trkpt>
      <trkpt lat="49.90695" lon="2.44629">
        <ele>36.8</ele>
        <time>2022-03-30T12:07:05Z</time>
      </trkpt>
      <trkpt lat="49.90697" lon="2.44631">
        <ele>36.7</ele>
        <time>2022-03-30T12:07:06Z</time>
      </trkpt>
      <trkpt lat="49.90698" lon="2.44632">
        <ele>36.7</ele>
        <time>2022-03-30T12:07:07Z</time>
      </trkpt>
      <trkpt lat="49.90699" lon="2.44633">
        <ele>36.7</ele>
        <time>2022-03-30T12:07:08Z</time>
      </trkpt>
      <trkpt lat="49.907" lon="2.44634">
        <ele>36.7</ele>
        <time>2022-03-30T12:07:09Z</time>
      </trkpt>
      <trkpt lat="49.90701" lon="2.44634">
        <ele>36.6</ele>
        <time>2022-03-30T12:07:10Z</time>
      </trkpt>
      <trkpt lat="49.90702" lon="2.44635">
        <ele>36.6</ele>
        <time>2022-03-30T12:07:11Z</time>
      </trkpt>
      <trkpt lat="49.90703" lon="2.44636">
        <ele>36.6</ele>
        <time>2022-03-30T12:07:12Z</time>
      </trkpt>
      <trkpt lat="49.90704" lon="2.44637">
        <ele>36.6</ele>
        <time>2022-03-30T12:07:13Z</time>
      </trkpt>
      <trkpt lat="49.90705" lon="2.44638">
        <ele>36.5</ele>
        <time>2022-03-30T12:07:14Z</time>
      </trkpt>
      <trkpt lat="49.90707" lon="2.44639">
        <ele>36.5</ele>
        <time>2022-03-30T12:07:15Z</time>
      </trkpt>
      <trkpt lat="49.90707" lon="2.4464">
        <ele>36.5</ele>
        <time>2022-03-30T12:07:16Z</time>
      </trkpt>
      <trkpt lat="49.90708" lon="2.4464">
        <ele>36.5</ele>
        <time>2022-03-30T12:07:17Z</time>
      </trkpt>
      <trkpt lat="49.9071" lon="2.44642">
        <ele>36.4</ele>
        <time>2022-03-30T12:07:18Z</time>
      </trkpt>
      <trkpt lat="49.90711" lon="2.44643">
        <ele>36.4</ele>
        <time>2022-03-30T12:07:19Z</time>
      </trkpt>
      <trkpt lat="49.90711" lon="2.44643">
        <ele>36.4</ele>
        <time>2022-03-30T12:07:20Z</time>
      </trkpt>
      <trkpt lat="49.90713" lon="2.44644">
        <ele>36.3</ele>
        <time>2022-03-30T12:07:21Z</time>
      </trkpt>
      <trkpt lat="49.90714" lon="2.44645">
        <ele>36.3</ele>
        <time>2022-03-30T12:07:22Z</time>
      </trkpt>
      <trkpt lat="49.90715" lon="2.44646">
        <ele>36.3</ele>
        <time>2022-03-30T12:07:23Z</time>
      </trkpt>
      <trkpt lat="49.90716" lon="2.44646">
        <ele>36.2</ele>
        <time>2022-03-30T12:07:24Z</time>
      </trkpt>
      <trkpt lat="49.90717" lon="2.44647">
        <ele>36.2</ele>
        <time>2022-03-30T12:07:25Z</time>
      </trkpt>
      <trkpt lat="49.90718" lon="2.44648">
        <ele>36.2</ele>
        <time>2022-03-30T12:07:26Z</time>
      </trkpt>
      <trkpt lat="49.90718" lon="2.44648">
        <ele>36.2</ele>
        <time>2022-03-30T12:07:27Z</time>
      </trkpt>
      <trkpt lat="49.90719" lon="2.44649">
        <ele>36.1</ele>
        <time>2022-03-30T12:07:28Z</time>
      </trkpt>
      <trkpt lat="49.9072" lon="2.44649">
        <ele>36.1</ele>
        <time>2022-03-30T12:07:29Z</time>
      </trkpt>
      <trkpt lat="49.90721" lon="2.4465">
        <ele>36.1</ele>
        <time>2022-03-30T12:07:30Z</time>
      </trkpt>
      <trkpt lat="49.90722" lon="2.44651">
        <ele>36.1</ele>
        <time>2022-03-30T12:07:31Z</time>
      </trkpt>
      <trkpt lat="49.90723" lon="2.44651">
        <ele>36</ele>
        <time>2022-03-30T12:07:32Z</time>
      </trkpt>
      <trkpt lat="49.90724" lon="2.44652">
        <ele>36</ele>
        <time>2022-03-30T12:07:33Z</time>
      </trkpt>
      <trkpt lat="49.90725" lon="2.44653">
        <ele>35.9</ele>
        <time>2022-03-30T12:07:34Z</time>
      </trkpt>
      <trkpt lat="49.90726" lon="2.44653">
        <ele>35.9</ele>
        <time>2022-03-30T12:07:35Z</time>
      </trkpt>
      <trkpt lat="49.90727" lon="2.44654">
        <ele>35.9</ele>
        <time>2022-03-30T12:07:36Z</time>
      </trkpt>
      <trkpt lat="49.90728" lon="2.44655">
        <ele>35.8</ele>
        <time>2022-03-30T12:07:37Z</time>
      </trkpt>
      <trkpt lat="49.9073" lon="2.44656">
        <ele>35.8</ele>
        <time>2022-03-30T12:07:38Z</time>
      </trkpt>
      <trkpt lat="49.90731" lon="2.44657">
        <ele>35.7</ele>
        <time>2022-03-30T12:07:39Z</time>
      </trkpt>
      <trkpt lat="49.90732" lon="2.44657">
        <ele>35.7</ele>
        <time>2022-03-30T12:07:40Z</time>
      </trkpt>
      <trkpt lat="49.90733" lon="2.44658">
        <ele>35.7</ele>
        <time>2022-03-30T12:07:41Z</time>
      </trkpt>
      <trkpt lat="49.90734" lon="2.44658">
        <ele>35.6</ele>
        <time>2022-03-30T12:07:42Z</time>
      </trkpt>
      <trkpt lat="49.90734" lon="2.44659">
        <ele>35.6</ele>
        <time>2022-03-30T12:07:43Z</time>
      </trkpt>
      <trkpt lat="49.90735" lon="2.4466">
        <ele>35.6</ele>
        <time>2022-03-30T12:07:44Z</time>
      </trkpt>
      <trkpt lat="49.90736" lon="2.4466">
        <ele>35.5</ele>
        <time>2022-03-30T12:07:45Z</time>
      </trkpt>
      <trkpt lat="49.90737" lon="2.44661">
        <ele>35.5</ele>
        <time>2022-03-30T12:07:46Z</time>
      </trkpt>
      <trkpt lat="49.90738" lon="2.44662">
        <ele>35.5</ele>
        <time>2022-03-30T12:07:47Z</time>
      </trkpt>
      <trkpt lat="49.90739" lon="2.44663">
        <ele>35.4</ele>
        <time>2022-03-30T12:07:48Z</time>
      </trkpt>
      <trkpt lat="49.9074" lon="2.44664">
        <ele>35.4</ele>
        <time>2022-03-30T12:07:49Z</time>
      </trkpt>
      <trkpt lat="49.90742" lon="2.44665">
        <ele>35.3</ele>
        <time>2022-03-30T12:07:50Z</time>
      </trkpt>
      <trkpt lat="49.90743" lon="2.44666">
        <ele>35.3</ele>
        <time>2022-03-30T12:07:51Z</time>
      </trkpt>
      <trkpt lat="49.90744" lon="2.44666">
        <ele>35.2</ele>
        <time>2022-03-30T12:07:52Z</time>
      </trkpt>
      <trkpt lat="49.90745" lon="2.44667">
        <ele>35.2</ele>
        <time>2022-03-30T12:07:53Z</time>
      </trkpt>
      <trkpt lat="49.90746" lon="2.44668">
        <ele>35.2</ele>
        <time>2022-03-30T12:07:54Z</time>
      </trkpt>
      <trkpt lat="49.90747" lon="2.44668">
        <ele>35.1</ele>
        <time>2022-03-30T12:07:55Z</time>
      </trkpt>
      <trkpt lat="49.90748" lon="2.44669">
        <ele>35.1</ele>
        <time>2022-03-30T12:07:56Z</time>
      </trkpt>
      <trkpt lat="49.90749" lon="2.4467">
        <ele>35.1</ele>
        <time>2022-03-30T12:07:57Z</time>
      </trkpt>
      <trkpt lat="49.9075" lon="2.4467">
        <ele>35</ele>
        <time>2022-03-30T12:07:58Z</time>
      </trkpt>
      <trkpt lat="49.90751" lon="2.44671">
        <ele>35</ele>
        <time>2022-03-30T12:07:59Z</time>
      </trkpt>
      <trkpt lat="49.90752" lon="2.44672">
        <ele>35</ele>
        <time>2022-03-30T12:08:00Z</time>
      </trkpt>
      <trkpt lat="49.90753" lon="2.44673">
        <ele>34.9</ele>
        <time>2022-03-30T12:08:01Z</time>
      </trkpt>
      <trkpt lat="49.90755" lon="2.44674">
        <ele>34.9</ele>
        <time>2022-03-30T12:08:02Z</time>
      </trkpt>
      <trkpt lat="49.90756" lon="2.44675">
        <ele>34.8</ele>
        <time>2022-03-30T12:08:03Z</time>
      </trkpt>
      <trkpt lat="49.90756" lon="2.44675">
        <ele>34.8</ele>
        <time>2022-03-30T12:08:04Z</time>
      </trkpt>
      <trkpt lat="49.90758" lon="2.44677">
        <ele>34.8</ele>
        <time>2022-03-30T12:08:05Z</time>
      </trkpt>
      <trkpt lat="49.90759" lon="2.44677">
        <ele>34.7</ele>
        <time>2022-03-30T12:08:06Z</time>
      </trkpt>
      <trkpt lat="49.9076" lon="2.44678">
        <ele>34.7</ele>
        <time>2022-03-30T12:08:07Z</time>
      </trkpt>
      <trkpt lat="49.90761" lon="2.44678">
        <ele>34.7</ele>
        <time>2022-03-30T12:08:08Z</time>
      </trkpt>
      <trkpt lat="49.90762" lon="2.44679">
        <ele>34.7</ele>
        <time>2022-03-30T12:08:09Z</time>
      </trkpt>
      <trkpt lat="49.90763" lon="2.4468">
        <ele>34.6</ele>
        <time>2022-03-30T12:08:10Z</time>
      </trkpt>
      <trkpt lat="49.90765" lon="2.44681">
        <ele>34.6</ele>
        <time>2022-03-30T12:08:11Z</time>
      </trkpt>
      <trkpt lat="49.90766" lon="2.44682">
        <ele>34.5</ele>
        <time>2022-03-30T12:08:12Z</time>
      </trkpt>
      <trkpt lat="49.90767" lon="2.44682">
        <ele>34.5</ele>
        <time>2022-03-30T12:08:13Z</time>
      </trkpt>
      <trkpt lat="49.90768" lon="2.44683">
        <ele>34.5</ele>
        <time>2022-03-30T12:08:14Z</time>
      </trkpt>
      <trkpt lat="49.90769" lon="2.44684">
        <ele>34.5</ele>
        <time>2022-03-30T12:08:15Z</time>
      </trkpt>
      <trkpt lat="49.9077" lon="2.44684">
        <ele>34.4</ele>
        <time>2022-03-30T12:08:16Z</time>
      </trkpt>
      <trkpt lat="49.90772" lon="2.44685">
        <ele>34.4</ele>
        <time>2022-03-30T12:08:17Z</time>
      </trkpt>
      <trkpt lat="49.90774" lon="2.44687">
        <ele>34.4</ele>
        <time>2022-03-30T12:08:18Z</time>
      </trkpt>
      <trkpt lat="49.90774" lon="2.44687">
        <ele>34.3</ele>
        <time>2022-03-30T12:08:19Z</time>
      </trkpt>
      <trkpt lat="49.90775" lon="2.44688">
        <ele>34.3</ele>
        <time>2022-03-30T12:08:20Z</time>
      </trkpt>
      <trkpt lat="49.90776" lon="2.44688">
        <ele>34.3</ele>
        <time>2022-03-30T12:08:21Z</time>
      </trkpt>
      <trkpt lat="49.90777" lon="2.44689">
        <ele>34.3</ele>
        <time>2022-03-30T12:08:22Z</time>
      </trkpt>
      <trkpt lat="49.90778" lon="2.4469">
        <ele>34.3</ele>
        <time>2022-03-30T12:08:23Z</time>
      </trkpt>
      <trkpt lat="49.90779" lon="2.44691">
        <ele>34.3</ele>
        <time>2022-03-30T12:08:24Z</time>
      </trkpt>
      <trkpt lat="49.9078" lon="2.44692">
        <ele>34.2</ele>
        <time>2022-03-30T12:08:25Z</time>
      </trkpt>
      <trkpt lat="49.90781" lon="2.44692">
        <ele>34.2</ele>
        <time>2022-03-30T12:08:26Z</time>
      </trkpt>
      <trkpt lat="49.90782" lon="2.44693">
        <ele>34.2</ele>
        <time>2022-03-30T12:08:27Z</time>
      </trkpt>
      <trkpt lat="49.90783" lon="2.44694">
        <ele>34.2</ele>
        <time>2022-03-30T12:08:28Z</time>
      </trkpt>
      <trkpt lat="49.90784" lon="2.44695">
        <ele>34.2</ele>
        <time>2022-03-30T12:08:29Z</time>
      </trkpt>
      <trkpt lat="49.90785" lon="2.44696">
        <ele>34.2</ele>
        <time>2022-03-30T12:08:30Z</time>
      </trkpt>
      <trkpt lat="49.90786" lon="2.44697">
        <ele>34.1</ele>
        <time>2022-03-30T12:08:31Z</time>
      </trkpt>
      <trkpt lat="49.90787" lon="2.44698">
        <ele>34.1</ele>
        <time>2022-03-30T12:08:32Z</time>
      </trkpt>
      <trkpt lat="49.90789" lon="2.44699">
        <ele>34.1</ele>
        <time>2022-03-30T12:08:33Z</time>
      </trkpt>
      <trkpt lat="49.9079" lon="2.447">
        <ele>34.1</ele>
        <time>2022-03-30T12:08:34Z</time>
      </trkpt>
      <trkpt lat="49.9079" lon="2.44701">
        <ele>34.1</ele>
        <time>2022-03-30T12:08:35Z</time>
      </trkpt>
      <trkpt lat="49.90792" lon="2.44702">
        <ele>34.1</ele>
        <time>2022-03-30T12:08:36Z</time>
      </trkpt>
      <trkpt lat="49.90793" lon="2.44702">
        <ele>34.1</ele>
        <time>2022-03-30T12:08:37Z</time>
      </trkpt>
      <trkpt lat="49.90794" lon="2.44703">
        <ele>34</ele>
        <time>2022-03-30T12:08:38Z</time>
      </trkpt>
      <trkpt lat="49.90795" lon="2.44703">
        <ele>34</ele>
        <time>2022-03-30T12:08:39Z</time>
      </trkpt>
      <trkpt lat="49.90796" lon="2.44704">
        <ele>34</ele>
        <time>2022-03-30T12:08:40Z</time>
      </trkpt>
      <trkpt lat="49.90797" lon="2.44705">
        <ele>34</ele>
        <time>2022-03-30T12:08:41Z</time>
      </trkpt>
      <trkpt lat="49.90798" lon="2.44706">
        <ele>34</ele>
        <time>2022-03-30T12:08:42Z</time>
      </trkpt>
      <trkpt lat="49.90799" lon="2.44706">
        <ele>34</ele>
        <time>2022-03-30T12:08:43Z</time>
      </trkpt>
      <trkpt lat="49.908" lon="2.44707">
        <ele>34</ele>
        <time>2022-03-30T12:08:44Z</time>
      </trkpt>
      <trkpt lat="49.90801" lon="2.44708">
        <ele>34</ele>
        <time>2022-03-30T12:08:45Z</time>
      </trkpt>
      <trkpt lat="49.90802" lon="2.44709">
        <ele>34</ele>
        <time>2022-03-30T12:08:46Z</time>
      </trkpt>
      <trkpt lat="49.90803" lon="2.4471">
        <ele>34</ele>
        <time>2022-03-30T12:08:47Z</time>
      </trkpt>
      <trkpt lat="49.90805" lon="2.44711">
        <ele>34</ele>
        <time>2022-03-30T12:08:48Z</time>
      </trkpt>
      <trkpt lat="49.90806" lon="2.44712">
        <ele>34</ele>
        <time>2022-03-30T12:08:49Z</time>
      </trkpt>
      <trkpt lat="49.90806" lon="2.44712">
        <ele>34</ele>
        <time>2022-03-30T12:08:50Z</time>
      </trkpt>
      <trkpt lat="49.90808" lon="2.44713">
        <ele>34</ele>
        <time>2022-03-30T12:08:51Z</time>
      </trkpt>
      <trkpt lat="49.90809" lon="2.44714">
        <ele>34</ele>
        <time>2022-03-30T12:08:52Z</time>
      </trkpt>
      <trkpt lat="49.90811" lon="2.44715">
        <ele>34.1</ele>
        <time>2022-03-30T12:08:53Z</time>
      </trkpt>
      <trkpt lat="49.90812" lon="2.44716">
        <ele>34.1</ele>
        <time>2022-03-30T12:08:54Z</time>
      </trkpt>
      <trkpt lat="49.90812" lon="2.44716">
        <ele>34.1</ele>
        <time>2022-03-30T12:08:55Z</time>
      </trkpt>
      <trkpt lat="49.90813" lon="2.44717">
        <ele>34.1</ele>
        <time>2022-03-30T12:08:56Z</time>
      </trkpt>
      <trkpt lat="49.90814" lon="2.44717">
        <ele>34.1</ele>
        <time>2022-03-30T12:08:57Z</time>
      </trkpt>
      <trkpt lat="49.90815" lon="2.44718">
        <ele>34.1</ele>
        <time>2022-03-30T12:08:58Z</time>
      </trkpt>
      <trkpt lat="49.90816" lon="2.44719">
        <ele>34.1</ele>
        <time>2022-03-30T12:08:59Z</time>
      </trkpt>
      <trkpt lat="49.90817" lon="2.4472">
        <ele>34.1</ele>
        <time>2022-03-30T12:09:00Z</time>
      </trkpt>
      <trkpt lat="49.90818" lon="2.44721">
        <ele>34.1</ele>
        <time>2022-03-30T12:09:01Z</time>
      </trkpt>
      <trkpt lat="49.90819" lon="2.44723">
        <ele>34.1</ele>
        <time>2022-03-30T12:09:02Z</time>
      </trkpt>
      <trkpt lat="49.9082" lon="2.44723">
        <ele>34.2</ele>
        <time>2022-03-30T12:09:03Z</time>
      </trkpt>
      <trkpt lat="49.90821" lon="2.44724">
        <ele>34.2</ele>
        <time>2022-03-30T12:09:04Z</time>
      </trkpt>
      <trkpt lat="49.90823" lon="2.44726">
        <ele>34.2</ele>
        <time>2022-03-30T12:09:05Z</time>
      </trkpt>
      <trkpt lat="49.90823" lon="2.44727">
        <ele>34.2</ele>
        <time>2022-03-30T12:09:06Z</time>
      </trkpt>
      <trkpt lat="49.90824" lon="2.44727">
        <ele>34.2</ele>
        <time>2022-03-30T12:09:07Z</time>
      </trkpt>
      <trkpt lat="49.90825" lon="2.44729">
        <ele>34.2</ele>
        <time>2022-03-30T12:09:08Z</time>
      </trkpt>
      <trkpt lat="49.90826" lon="2.4473">
        <ele>34.2</ele>
        <time>2022-03-30T12:09:09Z</time>
      </trkpt>
      <trkpt lat="49.90827" lon="2.44732">
        <ele>34.2</ele>
        <time>2022-03-30T12:09:10Z</time>
      </trkpt>
      <trkpt lat="49.90828" lon="2.44733">
        <ele>34.3</ele>
        <time>2022-03-30T12:09:11Z</time>
      </trkpt>
      <trkpt lat="49.90829" lon="2.44734">
        <ele>34.3</ele>
        <time>2022-03-30T12:09:12Z</time>
      </trkpt>
      <trkpt lat="49.9083" lon="2.44735">
        <ele>34.3</ele>
        <time>2022-03-30T12:09:13Z</time>
      </trkpt>
      <trkpt lat="49.90831" lon="2.44736">
        <ele>34.3</ele>
        <time>2022-03-30T12:09:14Z</time>
      </trkpt>
      <trkpt lat="49.90832" lon="2.44737">
        <ele>34.3</ele>
        <time>2022-03-30T12:09:15Z</time>
      </trkpt>
      <trkpt lat="49.90833" lon="2.44738">
        <ele>34.3</ele>
        <time>2022-03-30T12:09:16Z</time>
      </trkpt>
      <trkpt lat="49.90834" lon="2.4474">
        <ele>34.3</ele>
        <time>2022-03-30T12:09:17Z</time>
      </trkpt>
      <trkpt lat="49.90836" lon="2.44742">
        <ele>34.3</ele>
        <time>2022-03-30T12:09:18Z</time>
      </trkpt>
      <trkpt lat="49.90836" lon="2.44743">
        <ele>34.4</ele>
        <time>2022-03-30T12:09:19Z</time>
      </trkpt>
      <trkpt lat="49.90837" lon="2.44744">
        <ele>34.4</ele>
        <time>2022-03-30T12:09:20Z</time>
      </trkpt>
      <trkpt lat="49.90838" lon="2.44745">
        <ele>34.4</ele>
        <time>2022-03-30T12:09:21Z</time>
      </trkpt>
      <trkpt lat="49.90839" lon="2.44746">
        <ele>34.4</ele>
        <time>2022-03-30T12:09:22Z</time>
      </trkpt>
      <trkpt lat="49.90841" lon="2.44748">
        <ele>34.4</ele>
        <time>2022-03-30T12:09:23Z</time>
      </trkpt>
      <trkpt lat="49.90841" lon="2.44749">
        <ele>34.4</ele>
        <time>2022-03-30T12:09:24Z</time>
      </trkpt>
      <trkpt lat="49.90842" lon="2.4475">
        <ele>34.4</ele>
        <time>2022-03-30T12:09:25Z</time>
      </trkpt>
      <trkpt lat="49.90843" lon="2.44751">
        <ele>34.4</ele>
        <time>2022-03-30T12:09:26Z</time>
      </trkpt>
      <trkpt lat="49.90844" lon="2.44752">
        <ele>34.4</ele>
        <time>2022-03-30T12:09:27Z</time>
      </trkpt>
      <trkpt lat="49.90845" lon="2.44753">
        <ele>34.5</ele>
        <time>2022-03-30T12:09:28Z</time>
      </trkpt>
      <trkpt lat="49.90847" lon="2.44754">
        <ele>34.5</ele>
        <time>2022-03-30T12:09:29Z</time>
      </trkpt>
      <trkpt lat="49.90847" lon="2.44755">
        <ele>34.5</ele>
        <time>2022-03-30T12:09:30Z</time>
      </trkpt>
      <trkpt lat="49.90848" lon="2.44756">
        <ele>34.5</ele>
        <time>2022-03-30T12:09:31Z</time>
      </trkpt>
      <trkpt lat="49.9085" lon="2.44758">
        <ele>34.5</ele>
        <time>2022-03-30T12:09:32Z</time>
      </trkpt>
      <trkpt lat="49.90851" lon="2.44758">
        <ele>34.6</ele>
        <time>2022-03-30T12:09:33Z</time>
      </trkpt>
      <trkpt lat="49.90851" lon="2.44759">
        <ele>34.6</ele>
        <time>2022-03-30T12:09:34Z</time>
      </trkpt>
      <trkpt lat="49.90853" lon="2.4476">
        <ele>34.6</ele>
        <time>2022-03-30T12:09:35Z</time>
      </trkpt>
      <trkpt lat="49.90854" lon="2.44761">
        <ele>34.6</ele>
        <time>2022-03-30T12:09:36Z</time>
      </trkpt>
      <trkpt lat="49.90855" lon="2.44762">
        <ele>34.6</ele>
        <time>2022-03-30T12:09:37Z</time>
      </trkpt>
      <trkpt lat="49.90857" lon="2.44763">
        <ele>34.7</ele>
        <time>2022-03-30T12:09:38Z</time>
      </trkpt>
      <trkpt lat="49.90858" lon="2.44764">
        <ele>34.7</ele>
        <time>2022-03-30T12:09:39Z</time>
      </trkpt>
      <trkpt lat="49.90859" lon="2.44765">
        <ele>34.7</ele>
        <time>2022-03-30T12:09:40Z</time>
      </trkpt>
      <trkpt lat="49.90859" lon="2.44766">
        <ele>34.7</ele>
        <time>2022-03-30T12:09:41Z</time>
      </trkpt>
      <trkpt lat="49.90861" lon="2.44768">
        <ele>34.8</ele>
        <time>2022-03-30T12:09:42Z</time>
      </trkpt>
      <trkpt lat="49.90862" lon="2.44769">
        <ele>34.8</ele>
        <time>2022-03-30T12:09:43Z</time>
      </trkpt>
      <trkpt lat="49.90862" lon="2.44769">
        <ele>34.8</ele>
        <time>2022-03-30T12:09:44Z</time>
      </trkpt>
      <trkpt lat="49.90864" lon="2.44771">
        <ele>34.8</ele>
        <time>2022-03-30T12:09:45Z</time>
      </trkpt>
      <trkpt lat="49.90865" lon="2.44772">
        <ele>34.9</ele>
        <time>2022-03-30T12:09:46Z</time>
      </trkpt>
      <trkpt lat="49.90865" lon="2.44773">
        <ele>34.9</ele>
        <time>2022-03-30T12:09:47Z</time>
      </trkpt>
      <trkpt lat="49.90866" lon="2.44774">
        <ele>34.9</ele>
        <time>2022-03-30T12:09:48Z</time>
      </trkpt>
      <trkpt lat="49.90867" lon="2.44776">
        <ele>34.9</ele>
        <time>2022-03-30T12:09:49Z</time>
      </trkpt>
      <trkpt lat="49.90868" lon="2.44776">
        <ele>35</ele>
        <time>2022-03-30T12:09:50Z</time>
      </trkpt>
      <trkpt lat="49.90869" lon="2.44779">
        <ele>35</ele>
        <time>2022-03-30T12:09:51Z</time>
      </trkpt>
      <trkpt lat="49.9087" lon="2.44779">
        <ele>35</ele>
        <time>2022-03-30T12:09:52Z</time>
      </trkpt>
      <trkpt lat="49.90871" lon="2.4478">
        <ele>35.1</ele>
        <time>2022-03-30T12:09:53Z</time>
      </trkpt>
      <trkpt lat="49.90871" lon="2.44781">
        <ele>35.1</ele>
        <time>2022-03-30T12:09:54Z</time>
      </trkpt>
      <trkpt lat="49.90872" lon="2.44782">
        <ele>35.1</ele>
        <time>2022-03-30T12:09:55Z</time>
      </trkpt>
      <trkpt lat="49.90873" lon="2.44783">
        <ele>35.1</ele>
        <time>2022-03-30T12:09:56Z</time>
      </trkpt>
      <trkpt lat="49.90873" lon="2.44783">
        <ele>35.2</ele>
        <time>2022-03-30T12:09:57Z</time>
      </trkpt>
      <trkpt lat="49.90874" lon="2.44784">
        <ele>35.2</ele>
        <time>2022-03-30T12:09:58Z</time>
      </trkpt>
      <trkpt lat="49.90875" lon="2.44785">
        <ele>35.2</ele>
        <time>2022-03-30T12:09:59Z</time>
      </trkpt>
      <trkpt lat="49.90876" lon="2.44786">
        <ele>35.2</ele>
        <time>2022-03-30T12:10:00Z</time>
      </trkpt>
      <trkpt lat="49.90877" lon="2.44787">
        <ele>35.3</ele>
        <time>2022-03-30T12:10:01Z</time>
      </trkpt>
      <trkpt lat="49.90878" lon="2.44788">
        <ele>35.3</ele>
        <time>2022-03-30T12:10:02Z</time>
      </trkpt>
      <trkpt lat="49.90879" lon="2.44789">
        <ele>35.3</ele>
        <time>2022-03-30T12:10:03Z</time>
      </trkpt>
      <trkpt lat="49.9088" lon="2.4479">
        <ele>35.3</ele>
        <time>2022-03-30T12:10:04Z</time>
      </trkpt>
      <trkpt lat="49.90881" lon="2.4479">
        <ele>35.4</ele>
        <time>2022-03-30T12:10:05Z</time>
      </trkpt>
      <trkpt lat="49.90882" lon="2.44791">
        <ele>35.4</ele>
        <time>2022-03-30T12:10:06Z</time>
      </trkpt>
      <trkpt lat="49.90884" lon="2.44793">
        <ele>35.4</ele>
        <time>2022-03-30T12:10:07Z</time>
      </trkpt>
      <trkpt lat="49.90884" lon="2.44794">
        <ele>35.4</ele>
        <time>2022-03-30T12:10:08Z</time>
      </trkpt>
      <trkpt lat="49.90885" lon="2.44795">
        <ele>35.5</ele>
        <time>2022-03-30T12:10:09Z</time>
      </trkpt>
      <trkpt lat="49.90886" lon="2.44796">
        <ele>35.5</ele>
        <time>2022-03-30T12:10:10Z</time>
      </trkpt>
      <trkpt lat="49.90886" lon="2.44797">
        <ele>35.5</ele>
        <time>2022-03-30T12:10:11Z</time>
      </trkpt>
      <trkpt lat="49.90887" lon="2.44798">
        <ele>35.5</ele>
        <time>2022-03-30T12:10:12Z</time>
      </trkpt>
      <trkpt lat="49.90888" lon="2.44799">
        <ele>35.5</ele>
        <time>2022-03-30T12:10:13Z</time>
      </trkpt>
      <trkpt lat="49.90889" lon="2.448">
        <ele>35.5</ele>
        <time>2022-03-30T12:10:14Z</time>
      </trkpt>
      <trkpt lat="49.9089" lon="2.448">
        <ele>35.5</ele>
        <time>2022-03-30T12:10:15Z</time>
      </trkpt>
      <trkpt lat="49.90892" lon="2.44802">
        <ele>35.6</ele>
        <time>2022-03-30T12:10:16Z</time>
      </trkpt>
      <trkpt lat="49.90893" lon="2.44802">
        <ele>35.6</ele>
        <time>2022-03-30T12:10:17Z</time>
      </trkpt>
      <trkpt lat="49.90894" lon="2.44803">
        <ele>35.6</ele>
        <time>2022-03-30T12:10:18Z</time>
      </trkpt>
      <trkpt lat="49.90895" lon="2.44803">
        <ele>35.6</ele>
        <time>2022-03-30T12:10:19Z</time>
      </trkpt>
      <trkpt lat="49.90896" lon="2.44804">
        <ele>35.6</ele>
        <time>2022-03-30T12:10:20Z</time>
      </trkpt>
      <trkpt lat="49.90898" lon="2.44805">
        <ele>35.6</ele>
        <time>2022-03-30T12:10:21Z</time>
      </trkpt>
      <trkpt lat="49.90899" lon="2.44805">
        <ele>35.6</ele>
        <time>2022-03-30T12:10:22Z</time>
      </trkpt>
      <trkpt lat="49.909" lon="2.44806">
        <ele>35.6</ele>
        <time>2022-03-30T12:10:23Z</time>
      </trkpt>
      <trkpt lat="49.90902" lon="2.44807">
        <ele>35.6</ele>
        <time>2022-03-30T12:10:24Z</time>
      </trkpt>
      <trkpt lat="49.90903" lon="2.44808">
        <ele>35.6</ele>
        <time>2022-03-30T12:10:25Z</time>
      </trkpt>
      <trkpt lat="49.90904" lon="2.44809">
        <ele>35.7</ele>
        <time>2022-03-30T12:10:26Z</time>
      </trkpt>
      <trkpt lat="49.90905" lon="2.4481">
        <ele>35.7</ele>
        <time>2022-03-30T12:10:27Z</time>
      </trkpt>
      <trkpt lat="49.90907" lon="2.44811">
        <ele>35.7</ele>
        <time>2022-03-30T12:10:28Z</time>
      </trkpt>
      <trkpt lat="49.90907" lon="2.44812">
        <ele>35.7</ele>
        <time>2022-03-30T12:10:29Z</time>
      </trkpt>
      <trkpt lat="49.90908" lon="2.44812">
        <ele>35.7</ele>
        <time>2022-03-30T12:10:30Z</time>
      </trkpt>
      <trkpt lat="49.90909" lon="2.44813">
        <ele>35.7</ele>
        <time>2022-03-30T12:10:31Z</time>
      </trkpt>
      <trkpt lat="49.9091" lon="2.44814">
        <ele>35.7</ele>
        <time>2022-03-30T12:10:32Z</time>
      </trkpt>
      <trkpt lat="49.90911" lon="2.44815">
        <ele>35.7</ele>
        <time>2022-03-30T12:10:33Z</time>
      </trkpt>
      <trkpt lat="49.90913" lon="2.44816">
        <ele>35.7</ele>
        <time>2022-03-30T12:10:34Z</time>
      </trkpt>
      <trkpt lat="49.90914" lon="2.44817">
        <ele>35.8</ele>
        <time>2022-03-30T12:10:35Z</time>
      </trkpt>
      <trkpt lat="49.90915" lon="2.44818">
        <ele>35.8</ele>
        <time>2022-03-30T12:10:36Z</time>
      </trkpt>
      <trkpt lat="49.90916" lon="2.44819">
        <ele>35.8</ele>
        <time>2022-03-30T12:10:37Z</time>
      </trkpt>
      <trkpt lat="49.90917" lon="2.44819">
        <ele>35.8</ele>
        <time>2022-03-30T12:10:38Z</time>
      </trkpt>
      <trkpt lat="49.90919" lon="2.44821">
        <ele>35.8</ele>
        <time>2022-03-30T12:10:40Z</time>
      </trkpt>
      <trkpt lat="49.9092" lon="2.44822">
        <ele>35.8</ele>
        <time>2022-03-30T12:10:41Z</time>
      </trkpt>
      <trkpt lat="49.90922" lon="2.44823">
        <ele>35.9</ele>
        <time>2022-03-30T12:10:42Z</time>
      </trkpt>
      <trkpt lat="49.90923" lon="2.44824">
        <ele>35.9</ele>
        <time>2022-03-30T12:10:43Z</time>
      </trkpt>
      <trkpt lat="49.90924" lon="2.44824">
        <ele>35.9</ele>
        <time>2022-03-30T12:10:44Z</time>
      </trkpt>
      <trkpt lat="49.90926" lon="2.44826">
        <ele>35.9</ele>
        <time>2022-03-30T12:10:45Z</time>
      </trkpt>
      <trkpt lat="49.90927" lon="2.44827">
        <ele>35.9</ele>
        <time>2022-03-30T12:10:46Z</time>
      </trkpt>
      <trkpt lat="49.90927" lon="2.44828">
        <ele>35.9</ele>
        <time>2022-03-30T12:10:47Z</time>
      </trkpt>
      <trkpt lat="49.90929" lon="2.44829">
        <ele>35.9</ele>
        <time>2022-03-30T12:10:48Z</time>
      </trkpt>
      <trkpt lat="49.9093" lon="2.4483">
        <ele>35.9</ele>
        <time>2022-03-30T12:10:49Z</time>
      </trkpt>
      <trkpt lat="49.90931" lon="2.44831">
        <ele>36</ele>
        <time>2022-03-30T12:10:50Z</time>
      </trkpt>
      <trkpt lat="49.90932" lon="2.44832">
        <ele>36</ele>
        <time>2022-03-30T12:10:51Z</time>
      </trkpt>
      <trkpt lat="49.90933" lon="2.44833">
        <ele>36</ele>
        <time>2022-03-30T12:10:52Z</time>
      </trkpt>
      <trkpt lat="49.90934" lon="2.44834">
        <ele>36</ele>
        <time>2022-03-30T12:10:53Z</time>
      </trkpt>
      <trkpt lat="49.90935" lon="2.44836">
        <ele>36</ele>
        <time>2022-03-30T12:10:54Z</time>
      </trkpt>
      <trkpt lat="49.90936" lon="2.44837">
        <ele>36</ele>
        <time>2022-03-30T12:10:55Z</time>
      </trkpt>
      <trkpt lat="49.90937" lon="2.44837">
        <ele>36</ele>
        <time>2022-03-30T12:10:56Z</time>
      </trkpt>
      <trkpt lat="49.90939" lon="2.44839">
        <ele>36</ele>
        <time>2022-03-30T12:10:57Z</time>
      </trkpt>
      <trkpt lat="49.90939" lon="2.4484">
        <ele>36</ele>
        <time>2022-03-30T12:10:58Z</time>
      </trkpt>
      <trkpt lat="49.9094" lon="2.44841">
        <ele>36.1</ele>
        <time>2022-03-30T12:10:59Z</time>
      </trkpt>
      <trkpt lat="49.90941" lon="2.44842">
        <ele>36.1</ele>
        <time>2022-03-30T12:11:00Z</time>
      </trkpt>
      <trkpt lat="49.90942" lon="2.44844">
        <ele>36.1</ele>
        <time>2022-03-30T12:11:01Z</time>
      </trkpt>
      <trkpt lat="49.90944" lon="2.44848">
        <ele>36.1</ele>
        <time>2022-03-30T12:11:02Z</time>
      </trkpt>
      <trkpt lat="49.90945" lon="2.44848">
        <ele>36.1</ele>
        <time>2022-03-30T12:11:03Z</time>
      </trkpt>
      <trkpt lat="49.90946" lon="2.4485">
        <ele>36.1</ele>
        <time>2022-03-30T12:11:04Z</time>
      </trkpt>
      <trkpt lat="49.90947" lon="2.44852">
        <ele>36.1</ele>
        <time>2022-03-30T12:11:05Z</time>
      </trkpt>
      <trkpt lat="49.90949" lon="2.44855">
        <ele>36.2</ele>
        <time>2022-03-30T12:11:06Z</time>
      </trkpt>
      <trkpt lat="49.90949" lon="2.44856">
        <ele>36.2</ele>
        <time>2022-03-30T12:11:07Z</time>
      </trkpt>
      <trkpt lat="49.9095" lon="2.44857">
        <ele>36.2</ele>
        <time>2022-03-30T12:11:08Z</time>
      </trkpt>
      <trkpt lat="49.90952" lon="2.44861">
        <ele>36.2</ele>
        <time>2022-03-30T12:11:09Z</time>
      </trkpt>
      <trkpt lat="49.90953" lon="2.44862">
        <ele>36.2</ele>
        <time>2022-03-30T12:11:10Z</time>
      </trkpt>
      <trkpt lat="49.90954" lon="2.44864">
        <ele>36.2</ele>
        <time>2022-03-30T12:11:11Z</time>
      </trkpt>
      <trkpt lat="49.90955" lon="2.44865">
        <ele>36.2</ele>
        <time>2022-03-30T12:11:12Z</time>
      </trkpt>
      <trkpt lat="49.90955" lon="2.44866">
        <ele>36.2</ele>
        <time>2022-03-30T12:11:13Z</time>
      </trkpt>
      <trkpt lat="49.90957" lon="2.44869">
        <ele>36.2</ele>
        <time>2022-03-30T12:11:14Z</time>
      </trkpt>
      <trkpt lat="49.90957" lon="2.4487">
        <ele>36.2</ele>
        <time>2022-03-30T12:11:15Z</time>
      </trkpt>
      <trkpt lat="49.90958" lon="2.44871">
        <ele>36.3</ele>
        <time>2022-03-30T12:11:16Z</time>
      </trkpt>
      <trkpt lat="49.90959" lon="2.44872">
        <ele>36.3</ele>
        <time>2022-03-30T12:11:17Z</time>
      </trkpt>
      <trkpt lat="49.90959" lon="2.44874">
        <ele>36.3</ele>
        <time>2022-03-30T12:11:18Z</time>
      </trkpt>
      <trkpt lat="49.9096" lon="2.44876">
        <ele>36.3</ele>
        <time>2022-03-30T12:11:19Z</time>
      </trkpt>
      <trkpt lat="49.90961" lon="2.44878">
        <ele>36.3</ele>
        <time>2022-03-30T12:11:20Z</time>
      </trkpt>
      <trkpt lat="49.90962" lon="2.4488">
        <ele>36.3</ele>
        <time>2022-03-30T12:11:21Z</time>
      </trkpt>
      <trkpt lat="49.90962" lon="2.44882">
        <ele>36.3</ele>
        <time>2022-03-30T12:11:22Z</time>
      </trkpt>
      <trkpt lat="49.90963" lon="2.44883">
        <ele>36.3</ele>
        <time>2022-03-30T12:11:23Z</time>
      </trkpt>
      <trkpt lat="49.90964" lon="2.44885">
        <ele>36.3</ele>
        <time>2022-03-30T12:11:24Z</time>
      </trkpt>
      <trkpt lat="49.90964" lon="2.44885">
        <ele>36.3</ele>
        <time>2022-03-30T12:11:25Z</time>
      </trkpt>
      <trkpt lat="49.90965" lon="2.44887">
        <ele>36.3</ele>
        <time>2022-03-30T12:11:26Z</time>
      </trkpt>
      <trkpt lat="49.90966" lon="2.44888">
        <ele>36.4</ele>
        <time>2022-03-30T12:11:27Z</time>
      </trkpt>
      <trkpt lat="49.90967" lon="2.44889">
        <ele>36.4</ele>
        <time>2022-03-30T12:11:28Z</time>
      </trkpt>
      <trkpt lat="49.90968" lon="2.4489">
        <ele>36.4</ele>
        <time>2022-03-30T12:11:29Z</time>
      </trkpt>
      <trkpt lat="49.90968" lon="2.44892">
        <ele>36.4</ele>
        <time>2022-03-30T12:11:30Z</time>
      </trkpt>
      <trkpt lat="49.90969" lon="2.44893">
        <ele>36.4</ele>
        <time>2022-03-30T12:11:31Z</time>
      </trkpt>
      <trkpt lat="49.90971" lon="2.44896">
        <ele>36.4</ele>
        <time>2022-03-30T12:11:32Z</time>
      </trkpt>
      <trkpt lat="49.90971" lon="2.44896">
        <ele>36.4</ele>
        <time>2022-03-30T12:11:33Z</time>
      </trkpt>
      <trkpt lat="49.90972" lon="2.44897">
        <ele>36.4</ele>
        <time>2022-03-30T12:11:34Z</time>
      </trkpt>
      <trkpt lat="49.90973" lon="2.44898">
        <ele>36.5</ele>
        <time>2022-03-30T12:11:35Z</time>
      </trkpt>
      <trkpt lat="49.90974" lon="2.44899">
        <ele>36.5</ele>
        <time>2022-03-30T12:11:36Z</time>
      </trkpt>
      <trkpt lat="49.90974" lon="2.449">
        <ele>36.5</ele>
        <time>2022-03-30T12:11:37Z</time>
      </trkpt>
      <trkpt lat="49.90975" lon="2.44901">
        <ele>36.5</ele>
        <time>2022-03-30T12:11:38Z</time>
      </trkpt>
      <trkpt lat="49.90976" lon="2.44903">
        <ele>36.5</ele>
        <time>2022-03-30T12:11:39Z</time>
      </trkpt>
      <trkpt lat="49.90976" lon="2.44904">
        <ele>36.5</ele>
        <time>2022-03-30T12:11:40Z</time>
      </trkpt>
      <trkpt lat="49.90977" lon="2.44905">
        <ele>36.6</ele>
        <time>2022-03-30T12:11:41Z</time>
      </trkpt>
      <trkpt lat="49.90978" lon="2.44906">
        <ele>36.6</ele>
        <time>2022-03-30T12:11:42Z</time>
      </trkpt>
      <trkpt lat="49.90979" lon="2.44907">
        <ele>36.6</ele>
        <time>2022-03-30T12:11:43Z</time>
      </trkpt>
      <trkpt lat="49.90979" lon="2.44908">
        <ele>36.6</ele>
        <time>2022-03-30T12:11:44Z</time>
      </trkpt>
      <trkpt lat="49.9098" lon="2.4491">
        <ele>36.6</ele>
        <time>2022-03-30T12:11:45Z</time>
      </trkpt>
      <trkpt lat="49.90981" lon="2.44911">
        <ele>36.7</ele>
        <time>2022-03-30T12:11:46Z</time>
      </trkpt>
      <trkpt lat="49.90982" lon="2.44912">
        <ele>36.7</ele>
        <time>2022-03-30T12:11:47Z</time>
      </trkpt>
      <trkpt lat="49.90983" lon="2.44913">
        <ele>36.7</ele>
        <time>2022-03-30T12:11:48Z</time>
      </trkpt>
      <trkpt lat="49.90983" lon="2.44914">
        <ele>36.7</ele>
        <time>2022-03-30T12:11:49Z</time>
      </trkpt>
      <trkpt lat="49.90984" lon="2.44915">
        <ele>36.7</ele>
        <time>2022-03-30T12:11:50Z</time>
      </trkpt>
      <trkpt lat="49.90985" lon="2.44916">
        <ele>36.7</ele>
        <time>2022-03-30T12:11:51Z</time>
      </trkpt>
      <trkpt lat="49.90985" lon="2.44917">
        <ele>36.7</ele>
        <time>2022-03-30T12:11:52Z</time>
      </trkpt>
      <trkpt lat="49.90986" lon="2.44918">
        <ele>36.8</ele>
        <time>2022-03-30T12:11:53Z</time>
      </trkpt>
      <trkpt lat="49.90987" lon="2.4492">
        <ele>36.8</ele>
        <time>2022-03-30T12:11:54Z</time>
      </trkpt>
      <trkpt lat="49.90987" lon="2.4492">
        <ele>36.8</ele>
        <time>2022-03-30T12:11:55Z</time>
      </trkpt>
      <trkpt lat="49.90989" lon="2.44922">
        <ele>36.8</ele>
        <time>2022-03-30T12:11:56Z</time>
      </trkpt>
      <trkpt lat="49.9099" lon="2.44923">
        <ele>36.8</ele>
        <time>2022-03-30T12:11:57Z</time>
      </trkpt>
      <trkpt lat="49.90991" lon="2.44924">
        <ele>36.9</ele>
        <time>2022-03-30T12:11:58Z</time>
      </trkpt>
      <trkpt lat="49.90992" lon="2.44925">
        <ele>36.9</ele>
        <time>2022-03-30T12:11:59Z</time>
      </trkpt>
      <trkpt lat="49.90992" lon="2.44926">
        <ele>36.9</ele>
        <time>2022-03-30T12:12:00Z</time>
      </trkpt>
      <trkpt lat="49.90993" lon="2.44927">
        <ele>36.9</ele>
        <time>2022-03-30T12:12:01Z</time>
      </trkpt>
      <trkpt lat="49.90994" lon="2.44928">
        <ele>36.9</ele>
        <time>2022-03-30T12:12:02Z</time>
      </trkpt>
      <trkpt lat="49.90995" lon="2.4493">
        <ele>36.9</ele>
        <time>2022-03-30T12:12:03Z</time>
      </trkpt>
      <trkpt lat="49.90995" lon="2.44931">
        <ele>36.9</ele>
        <time>2022-03-30T12:12:04Z</time>
      </trkpt>
      <trkpt lat="49.90997" lon="2.44934">
        <ele>37</ele>
        <time>2022-03-30T12:12:05Z</time>
      </trkpt>
      <trkpt lat="49.90997" lon="2.44935">
        <ele>37</ele>
        <time>2022-03-30T12:12:06Z</time>
      </trkpt>
      <trkpt lat="49.90998" lon="2.44936">
        <ele>37</ele>
        <time>2022-03-30T12:12:07Z</time>
      </trkpt>
      <trkpt lat="49.90999" lon="2.44938">
        <ele>37</ele>
        <time>2022-03-30T12:12:08Z</time>
      </trkpt>
      <trkpt lat="49.91" lon="2.44939">
        <ele>37</ele>
        <time>2022-03-30T12:12:09Z</time>
      </trkpt>
      <trkpt lat="49.91" lon="2.4494">
        <ele>37</ele>
        <time>2022-03-30T12:12:10Z</time>
      </trkpt>
      <trkpt lat="49.91001" lon="2.44941">
        <ele>37</ele>
        <time>2022-03-30T12:12:11Z</time>
      </trkpt>
      <trkpt lat="49.91002" lon="2.44943">
        <ele>37.1</ele>
        <time>2022-03-30T12:12:12Z</time>
      </trkpt>
      <trkpt lat="49.91003" lon="2.44944">
        <ele>37.1</ele>
        <time>2022-03-30T12:12:13Z</time>
      </trkpt>
      <trkpt lat="49.91003" lon="2.44945">
        <ele>37.1</ele>
        <time>2022-03-30T12:12:14Z</time>
      </trkpt>
      <trkpt lat="49.91004" lon="2.44947">
        <ele>37.1</ele>
        <time>2022-03-30T12:12:15Z</time>
      </trkpt>
      <trkpt lat="49.91005" lon="2.44948">
        <ele>37.1</ele>
        <time>2022-03-30T12:12:16Z</time>
      </trkpt>
      <trkpt lat="49.91006" lon="2.44951">
        <ele>37.1</ele>
        <time>2022-03-30T12:12:17Z</time>
      </trkpt>
      <trkpt lat="49.91007" lon="2.44952">
        <ele>37.1</ele>
        <time>2022-03-30T12:12:18Z</time>
      </trkpt>
      <trkpt lat="49.91007" lon="2.44953">
        <ele>37.1</ele>
        <time>2022-03-30T12:12:19Z</time>
      </trkpt>
      <trkpt lat="49.91009" lon="2.44955">
        <ele>37.1</ele>
        <time>2022-03-30T12:12:20Z</time>
      </trkpt>
      <trkpt lat="49.91009" lon="2.44956">
        <ele>37.2</ele>
        <time>2022-03-30T12:12:21Z</time>
      </trkpt>
      <trkpt lat="49.9101" lon="2.44957">
        <ele>37.2</ele>
        <time>2022-03-30T12:12:22Z</time>
      </trkpt>
      <trkpt lat="49.91011" lon="2.44958">
        <ele>37.2</ele>
        <time>2022-03-30T12:12:23Z</time>
      </trkpt>
      <trkpt lat="49.91011" lon="2.44959">
        <ele>37.2</ele>
        <time>2022-03-30T12:12:24Z</time>
      </trkpt>
      <trkpt lat="49.91012" lon="2.4496">
        <ele>37.2</ele>
        <time>2022-03-30T12:12:25Z</time>
      </trkpt>
      <trkpt lat="49.91013" lon="2.44961">
        <ele>37.2</ele>
        <time>2022-03-30T12:12:26Z</time>
      </trkpt>
      <trkpt lat="49.91014" lon="2.44963">
        <ele>37.2</ele>
        <time>2022-03-30T12:12:27Z</time>
      </trkpt>
      <trkpt lat="49.91015" lon="2.44964">
        <ele>37.2</ele>
        <time>2022-03-30T12:12:28Z</time>
      </trkpt>
      <trkpt lat="49.91015" lon="2.44965">
        <ele>37.2</ele>
        <time>2022-03-30T12:12:29Z</time>
      </trkpt>
      <trkpt lat="49.91016" lon="2.44967">
        <ele>37.2</ele>
        <time>2022-03-30T12:12:30Z</time>
      </trkpt>
      <trkpt lat="49.91017" lon="2.44968">
        <ele>37.3</ele>
        <time>2022-03-30T12:12:31Z</time>
      </trkpt>
      <trkpt lat="49.91019" lon="2.4497">
        <ele>37.3</ele>
        <time>2022-03-30T12:12:32Z</time>
      </trkpt>
      <trkpt lat="49.91019" lon="2.44971">
        <ele>37.3</ele>
        <time>2022-03-30T12:12:33Z</time>
      </trkpt>
      <trkpt lat="49.9102" lon="2.44972">
        <ele>37.3</ele>
        <time>2022-03-30T12:12:34Z</time>
      </trkpt>
      <trkpt lat="49.91021" lon="2.44973">
        <ele>37.4</ele>
        <time>2022-03-30T12:12:35Z</time>
      </trkpt>
      <trkpt lat="49.91022" lon="2.44974">
        <ele>37.4</ele>
        <time>2022-03-30T12:12:36Z</time>
      </trkpt>
      <trkpt lat="49.91022" lon="2.44975">
        <ele>37.4</ele>
        <time>2022-03-30T12:12:37Z</time>
      </trkpt>
      <trkpt lat="49.91023" lon="2.44976">
        <ele>37.4</ele>
        <time>2022-03-30T12:12:38Z</time>
      </trkpt>
      <trkpt lat="49.91024" lon="2.44977">
        <ele>37.4</ele>
        <time>2022-03-30T12:12:39Z</time>
      </trkpt>
      <trkpt lat="49.91025" lon="2.44977">
        <ele>37.4</ele>
        <time>2022-03-30T12:12:40Z</time>
      </trkpt>
      <trkpt lat="49.91026" lon="2.44978">
        <ele>37.5</ele>
        <time>2022-03-30T12:12:41Z</time>
      </trkpt>
      <trkpt lat="49.91027" lon="2.44979">
        <ele>37.5</ele>
        <time>2022-03-30T12:12:42Z</time>
      </trkpt>
      <trkpt lat="49.91028" lon="2.44979">
        <ele>37.5</ele>
        <time>2022-03-30T12:12:43Z</time>
      </trkpt>
      <trkpt lat="49.91029" lon="2.4498">
        <ele>37.6</ele>
        <time>2022-03-30T12:12:44Z</time>
      </trkpt>
      <trkpt lat="49.9103" lon="2.44981">
        <ele>37.6</ele>
        <time>2022-03-30T12:12:45Z</time>
      </trkpt>
      <trkpt lat="49.91031" lon="2.44981">
        <ele>37.6</ele>
        <time>2022-03-30T12:12:46Z</time>
      </trkpt>
      <trkpt lat="49.91032" lon="2.44981">
        <ele>37.6</ele>
        <time>2022-03-30T12:12:47Z</time>
      </trkpt>
      <trkpt lat="49.91033" lon="2.44982">
        <ele>37.7</ele>
        <time>2022-03-30T12:12:48Z</time>
      </trkpt>
      <trkpt lat="49.91034" lon="2.44983">
        <ele>37.7</ele>
        <time>2022-03-30T12:12:49Z</time>
      </trkpt>
      <trkpt lat="49.91034" lon="2.44984">
        <ele>37.7</ele>
        <time>2022-03-30T12:12:50Z</time>
      </trkpt>
      <trkpt lat="49.91035" lon="2.44985">
        <ele>37.7</ele>
        <time>2022-03-30T12:12:51Z</time>
      </trkpt>
      <trkpt lat="49.91036" lon="2.44986">
        <ele>37.8</ele>
        <time>2022-03-30T12:12:52Z</time>
      </trkpt>
      <trkpt lat="49.91037" lon="2.44987">
        <ele>37.8</ele>
        <time>2022-03-30T12:12:53Z</time>
      </trkpt>
      <trkpt lat="49.91038" lon="2.44988">
        <ele>37.8</ele>
        <time>2022-03-30T12:12:54Z</time>
      </trkpt>
      <trkpt lat="49.91039" lon="2.44989">
        <ele>37.8</ele>
        <time>2022-03-30T12:12:55Z</time>
      </trkpt>
      <trkpt lat="49.9104" lon="2.4499">
        <ele>37.9</ele>
        <time>2022-03-30T12:12:56Z</time>
      </trkpt>
      <trkpt lat="49.91041" lon="2.44991">
        <ele>37.9</ele>
        <time>2022-03-30T12:12:57Z</time>
      </trkpt>
      <trkpt lat="49.91042" lon="2.44992">
        <ele>37.9</ele>
        <time>2022-03-30T12:12:58Z</time>
      </trkpt>
      <trkpt lat="49.91042" lon="2.44993">
        <ele>37.9</ele>
        <time>2022-03-30T12:12:59Z</time>
      </trkpt>
      <trkpt lat="49.91043" lon="2.44994">
        <ele>38</ele>
        <time>2022-03-30T12:13:00Z</time>
      </trkpt>
      <trkpt lat="49.91044" lon="2.44995">
        <ele>38</ele>
        <time>2022-03-30T12:13:01Z</time>
      </trkpt>
      <trkpt lat="49.91046" lon="2.44997">
        <ele>38.1</ele>
        <time>2022-03-30T12:13:02Z</time>
      </trkpt>
      <trkpt lat="49.91047" lon="2.44998">
        <ele>38.1</ele>
        <time>2022-03-30T12:13:03Z</time>
      </trkpt>
      <trkpt lat="49.91047" lon="2.44999">
        <ele>38.1</ele>
        <time>2022-03-30T12:13:04Z</time>
      </trkpt>
      <trkpt lat="49.91048" lon="2.45">
        <ele>38.1</ele>
        <time>2022-03-30T12:13:05Z</time>
      </trkpt>
      <trkpt lat="49.91049" lon="2.45001">
        <ele>38.1</ele>
        <time>2022-03-30T12:13:06Z</time>
      </trkpt>
      <trkpt lat="49.9105" lon="2.45002">
        <ele>38.2</ele>
        <time>2022-03-30T12:13:07Z</time>
      </trkpt>
      <trkpt lat="49.9105" lon="2.45003">
        <ele>38.2</ele>
        <time>2022-03-30T12:13:08Z</time>
      </trkpt>
      <trkpt lat="49.91051" lon="2.45005">
        <ele>38.2</ele>
        <time>2022-03-30T12:13:09Z</time>
      </trkpt>
      <trkpt lat="49.91052" lon="2.45005">
        <ele>38.2</ele>
        <time>2022-03-30T12:13:10Z</time>
      </trkpt>
      <trkpt lat="49.91053" lon="2.45006">
        <ele>38.2</ele>
        <time>2022-03-30T12:13:11Z</time>
      </trkpt>
      <trkpt lat="49.91054" lon="2.45007">
        <ele>38.3</ele>
        <time>2022-03-30T12:13:12Z</time>
      </trkpt>
      <trkpt lat="49.91055" lon="2.45008">
        <ele>38.3</ele>
        <time>2022-03-30T12:13:13Z</time>
      </trkpt>
      <trkpt lat="49.91056" lon="2.4501">
        <ele>38.3</ele>
        <time>2022-03-30T12:13:14Z</time>
      </trkpt>
      <trkpt lat="49.91057" lon="2.45011">
        <ele>38.3</ele>
        <time>2022-03-30T12:13:15Z</time>
      </trkpt>
      <trkpt lat="49.91058" lon="2.45012">
        <ele>38.4</ele>
        <time>2022-03-30T12:13:16Z</time>
      </trkpt>
      <trkpt lat="49.91059" lon="2.45013">
        <ele>38.4</ele>
        <time>2022-03-30T12:13:17Z</time>
      </trkpt>
      <trkpt lat="49.91059" lon="2.45014">
        <ele>38.4</ele>
        <time>2022-03-30T12:13:18Z</time>
      </trkpt>
      <trkpt lat="49.9106" lon="2.45015">
        <ele>38.4</ele>
        <time>2022-03-30T12:13:19Z</time>
      </trkpt>
      <trkpt lat="49.91061" lon="2.45016">
        <ele>38.4</ele>
        <time>2022-03-30T12:13:20Z</time>
      </trkpt>
      <trkpt lat="49.91062" lon="2.45017">
        <ele>38.4</ele>
        <time>2022-03-30T12:13:21Z</time>
      </trkpt>
      <trkpt lat="49.91063" lon="2.45018">
        <ele>38.4</ele>
        <time>2022-03-30T12:13:22Z</time>
      </trkpt>
      <trkpt lat="49.91063" lon="2.45019">
        <ele>38.5</ele>
        <time>2022-03-30T12:13:23Z</time>
      </trkpt>
      <trkpt lat="49.91064" lon="2.4502">
        <ele>38.5</ele>
        <time>2022-03-30T12:13:24Z</time>
      </trkpt>
      <trkpt lat="49.91065" lon="2.45021">
        <ele>38.5</ele>
        <time>2022-03-30T12:13:25Z</time>
      </trkpt>
      <trkpt lat="49.91066" lon="2.45022">
        <ele>38.5</ele>
        <time>2022-03-30T12:13:26Z</time>
      </trkpt>
      <trkpt lat="49.91067" lon="2.45023">
        <ele>38.5</ele>
        <time>2022-03-30T12:13:27Z</time>
      </trkpt>
      <trkpt lat="49.91068" lon="2.45024">
        <ele>38.5</ele>
        <time>2022-03-30T12:13:28Z</time>
      </trkpt>
      <trkpt lat="49.91069" lon="2.45025">
        <ele>38.6</ele>
        <time>2022-03-30T12:13:29Z</time>
      </trkpt>
      <trkpt lat="49.9107" lon="2.45027">
        <ele>38.6</ele>
        <time>2022-03-30T12:13:30Z</time>
      </trkpt>
      <trkpt lat="49.91071" lon="2.45028">
        <ele>38.6</ele>
        <time>2022-03-30T12:13:31Z</time>
      </trkpt>
      <trkpt lat="49.91072" lon="2.45029">
        <ele>38.6</ele>
        <time>2022-03-30T12:13:32Z</time>
      </trkpt>
      <trkpt lat="49.91073" lon="2.45031">
        <ele>38.6</ele>
        <time>2022-03-30T12:13:33Z</time>
      </trkpt>
      <trkpt lat="49.91074" lon="2.45032">
        <ele>38.6</ele>
        <time>2022-03-30T12:13:34Z</time>
      </trkpt>
      <trkpt lat="49.91074" lon="2.45033">
        <ele>38.7</ele>
        <time>2022-03-30T12:13:35Z</time>
      </trkpt>
      <trkpt lat="49.91075" lon="2.45035">
        <ele>38.7</ele>
        <time>2022-03-30T12:13:36Z</time>
      </trkpt>
      <trkpt lat="49.91077" lon="2.45036">
        <ele>38.7</ele>
        <time>2022-03-30T12:13:37Z</time>
      </trkpt>
      <trkpt lat="49.91078" lon="2.45038">
        <ele>38.7</ele>
        <time>2022-03-30T12:13:38Z</time>
      </trkpt>
      <trkpt lat="49.91079" lon="2.45039">
        <ele>38.7</ele>
        <time>2022-03-30T12:13:39Z</time>
      </trkpt>
      <trkpt lat="49.9108" lon="2.4504">
        <ele>38.8</ele>
        <time>2022-03-30T12:13:40Z</time>
      </trkpt>
      <trkpt lat="49.9108" lon="2.45041">
        <ele>38.8</ele>
        <time>2022-03-30T12:13:41Z</time>
      </trkpt>
      <trkpt lat="49.91081" lon="2.45043">
        <ele>38.8</ele>
        <time>2022-03-30T12:13:42Z</time>
      </trkpt>
      <trkpt lat="49.91082" lon="2.45044">
        <ele>38.8</ele>
        <time>2022-03-30T12:13:43Z</time>
      </trkpt>
      <trkpt lat="49.91083" lon="2.45045">
        <ele>38.8</ele>
        <time>2022-03-30T12:13:44Z</time>
      </trkpt>
      <trkpt lat="49.91084" lon="2.45046">
        <ele>38.9</ele>
        <time>2022-03-30T12:13:45Z</time>
      </trkpt>
      <trkpt lat="49.91086" lon="2.45048">
        <ele>38.9</ele>
        <time>2022-03-30T12:13:46Z</time>
      </trkpt>
      <trkpt lat="49.91087" lon="2.45048">
        <ele>38.9</ele>
        <time>2022-03-30T12:13:47Z</time>
      </trkpt>
      <trkpt lat="49.91087" lon="2.45049">
        <ele>38.9</ele>
        <time>2022-03-30T12:13:48Z</time>
      </trkpt>
      <trkpt lat="49.91088" lon="2.4505">
        <ele>39</ele>
        <time>2022-03-30T12:13:49Z</time>
      </trkpt>
      <trkpt lat="49.91089" lon="2.45051">
        <ele>39</ele>
        <time>2022-03-30T12:13:50Z</time>
      </trkpt>
      <trkpt lat="49.9109" lon="2.45052">
        <ele>39</ele>
        <time>2022-03-30T12:13:51Z</time>
      </trkpt>
      <trkpt lat="49.91092" lon="2.45054">
        <ele>39</ele>
        <time>2022-03-30T12:13:52Z</time>
      </trkpt>
      <trkpt lat="49.91093" lon="2.45054">
        <ele>39.1</ele>
        <time>2022-03-30T12:13:53Z</time>
      </trkpt>
      <trkpt lat="49.91093" lon="2.45055">
        <ele>39.1</ele>
        <time>2022-03-30T12:13:54Z</time>
      </trkpt>
      <trkpt lat="49.91094" lon="2.45056">
        <ele>39.1</ele>
        <time>2022-03-30T12:13:55Z</time>
      </trkpt>
      <trkpt lat="49.91095" lon="2.45058">
        <ele>39.1</ele>
        <time>2022-03-30T12:13:56Z</time>
      </trkpt>
      <trkpt lat="49.91097" lon="2.45059">
        <ele>39.2</ele>
        <time>2022-03-30T12:13:57Z</time>
      </trkpt>
      <trkpt lat="49.91098" lon="2.4506">
        <ele>39.2</ele>
        <time>2022-03-30T12:13:58Z</time>
      </trkpt>
      <trkpt lat="49.91098" lon="2.45061">
        <ele>39.2</ele>
        <time>2022-03-30T12:13:59Z</time>
      </trkpt>
      <trkpt lat="49.91099" lon="2.45062">
        <ele>39.2</ele>
        <time>2022-03-30T12:14:00Z</time>
      </trkpt>
      <trkpt lat="49.911" lon="2.45063">
        <ele>39.2</ele>
        <time>2022-03-30T12:14:01Z</time>
      </trkpt>
      <trkpt lat="49.91101" lon="2.45064">
        <ele>39.3</ele>
        <time>2022-03-30T12:14:02Z</time>
      </trkpt>
      <trkpt lat="49.91102" lon="2.45065">
        <ele>39.3</ele>
        <time>2022-03-30T12:14:03Z</time>
      </trkpt>
      <trkpt lat="49.91103" lon="2.45066">
        <ele>39.3</ele>
        <time>2022-03-30T12:14:04Z</time>
      </trkpt>
      <trkpt lat="49.91104" lon="2.45067">
        <ele>39.3</ele>
        <time>2022-03-30T12:14:05Z</time>
      </trkpt>
      <trkpt lat="49.91104" lon="2.45069">
        <ele>39.3</ele>
        <time>2022-03-30T12:14:06Z</time>
      </trkpt>
      <trkpt lat="49.91105" lon="2.4507">
        <ele>39.4</ele>
        <time>2022-03-30T12:14:07Z</time>
      </trkpt>
      <trkpt lat="49.91106" lon="2.45071">
        <ele>39.4</ele>
        <time>2022-03-30T12:14:08Z</time>
      </trkpt>
      <trkpt lat="49.91108" lon="2.45073">
        <ele>39.4</ele>
        <time>2022-03-30T12:14:09Z</time>
      </trkpt>
      <trkpt lat="49.91108" lon="2.45074">
        <ele>39.4</ele>
        <time>2022-03-30T12:14:10Z</time>
      </trkpt>
      <trkpt lat="49.91109" lon="2.45075">
        <ele>39.4</ele>
        <time>2022-03-30T12:14:11Z</time>
      </trkpt>
      <trkpt lat="49.9111" lon="2.45076">
        <ele>39.4</ele>
        <time>2022-03-30T12:14:12Z</time>
      </trkpt>
      <trkpt lat="49.91111" lon="2.45077">
        <ele>39.4</ele>
        <time>2022-03-30T12:14:13Z</time>
      </trkpt>
      <trkpt lat="49.91111" lon="2.45078">
        <ele>39.4</ele>
        <time>2022-03-30T12:14:14Z</time>
      </trkpt>
      <trkpt lat="49.91112" lon="2.45079">
        <ele>39.5</ele>
        <time>2022-03-30T12:14:15Z</time>
      </trkpt>
      <trkpt lat="49.91113" lon="2.45081">
        <ele>39.5</ele>
        <time>2022-03-30T12:14:16Z</time>
      </trkpt>
      <trkpt lat="49.91114" lon="2.45082">
        <ele>39.5</ele>
        <time>2022-03-30T12:14:17Z</time>
      </trkpt>
      <trkpt lat="49.91115" lon="2.45084">
        <ele>39.5</ele>
        <time>2022-03-30T12:14:18Z</time>
      </trkpt>
      <trkpt lat="49.91115" lon="2.45085">
        <ele>39.5</ele>
        <time>2022-03-30T12:14:19Z</time>
      </trkpt>
      <trkpt lat="49.91116" lon="2.45087">
        <ele>39.5</ele>
        <time>2022-03-30T12:14:20Z</time>
      </trkpt>
      <trkpt lat="49.91117" lon="2.45089">
        <ele>39.5</ele>
        <time>2022-03-30T12:14:21Z</time>
      </trkpt>
      <trkpt lat="49.91118" lon="2.4509">
        <ele>39.6</ele>
        <time>2022-03-30T12:14:22Z</time>
      </trkpt>
      <trkpt lat="49.91118" lon="2.45092">
        <ele>39.6</ele>
        <time>2022-03-30T12:14:23Z</time>
      </trkpt>
      <trkpt lat="49.91119" lon="2.45093">
        <ele>39.6</ele>
        <time>2022-03-30T12:14:24Z</time>
      </trkpt>
      <trkpt lat="49.91119" lon="2.45094">
        <ele>39.6</ele>
        <time>2022-03-30T12:14:25Z</time>
      </trkpt>
      <trkpt lat="49.91119" lon="2.45096">
        <ele>39.6</ele>
        <time>2022-03-30T12:14:26Z</time>
      </trkpt>
      <trkpt lat="49.9112" lon="2.45097">
        <ele>39.6</ele>
        <time>2022-03-30T12:14:27Z</time>
      </trkpt>
      <trkpt lat="49.9112" lon="2.45099">
        <ele>39.7</ele>
        <time>2022-03-30T12:14:28Z</time>
      </trkpt>
      <trkpt lat="49.91121" lon="2.45101">
        <ele>39.7</ele>
        <time>2022-03-30T12:14:29Z</time>
      </trkpt>
      <trkpt lat="49.91122" lon="2.45104">
        <ele>39.7</ele>
        <time>2022-03-30T12:14:30Z</time>
      </trkpt>
      <trkpt lat="49.91122" lon="2.45105">
        <ele>39.8</ele>
        <time>2022-03-30T12:14:31Z</time>
      </trkpt>
      <trkpt lat="49.91122" lon="2.45106">
        <ele>39.8</ele>
        <time>2022-03-30T12:14:32Z</time>
      </trkpt>
      <trkpt lat="49.91123" lon="2.45107">
        <ele>39.8</ele>
        <time>2022-03-30T12:14:33Z</time>
      </trkpt>
      <trkpt lat="49.91124" lon="2.45109">
        <ele>39.8</ele>
        <time>2022-03-30T12:14:34Z</time>
      </trkpt>
      <trkpt lat="49.91125" lon="2.4511">
        <ele>39.9</ele>
        <time>2022-03-30T12:14:35Z</time>
      </trkpt>
      <trkpt lat="49.91125" lon="2.45112">
        <ele>39.9</ele>
        <time>2022-03-30T12:14:36Z</time>
      </trkpt>
      <trkpt lat="49.91126" lon="2.45113">
        <ele>40</ele>
        <time>2022-03-30T12:14:37Z</time>
      </trkpt>
      <trkpt lat="49.91127" lon="2.45115">
        <ele>40</ele>
        <time>2022-03-30T12:14:38Z</time>
      </trkpt>
      <trkpt lat="49.91128" lon="2.45116">
        <ele>40</ele>
        <time>2022-03-30T12:14:39Z</time>
      </trkpt>
      <trkpt lat="49.91128" lon="2.45117">
        <ele>40.1</ele>
        <time>2022-03-30T12:14:40Z</time>
      </trkpt>
      <trkpt lat="49.91129" lon="2.45119">
        <ele>40.1</ele>
        <time>2022-03-30T12:14:41Z</time>
      </trkpt>
      <trkpt lat="49.9113" lon="2.4512">
        <ele>40.1</ele>
        <time>2022-03-30T12:14:42Z</time>
      </trkpt>
      <trkpt lat="49.9113" lon="2.45122">
        <ele>40.2</ele>
        <time>2022-03-30T12:14:43Z</time>
      </trkpt>
      <trkpt lat="49.91131" lon="2.45123">
        <ele>40.2</ele>
        <time>2022-03-30T12:14:44Z</time>
      </trkpt>
      <trkpt lat="49.91132" lon="2.45125">
        <ele>40.3</ele>
        <time>2022-03-30T12:14:45Z</time>
      </trkpt>
      <trkpt lat="49.91132" lon="2.45126">
        <ele>40.3</ele>
        <time>2022-03-30T12:14:46Z</time>
      </trkpt>
      <trkpt lat="49.91134" lon="2.45129">
        <ele>40.4</ele>
        <time>2022-03-30T12:14:47Z</time>
      </trkpt>
      <trkpt lat="49.91134" lon="2.4513">
        <ele>40.4</ele>
        <time>2022-03-30T12:14:48Z</time>
      </trkpt>
      <trkpt lat="49.91135" lon="2.45131">
        <ele>40.5</ele>
        <time>2022-03-30T12:14:49Z</time>
      </trkpt>
      <trkpt lat="49.91135" lon="2.45132">
        <ele>40.5</ele>
        <time>2022-03-30T12:14:50Z</time>
      </trkpt>
      <trkpt lat="49.91136" lon="2.45133">
        <ele>40.5</ele>
        <time>2022-03-30T12:14:51Z</time>
      </trkpt>
      <trkpt lat="49.91136" lon="2.45135">
        <ele>40.6</ele>
        <time>2022-03-30T12:14:52Z</time>
      </trkpt>
      <trkpt lat="49.91137" lon="2.45136">
        <ele>40.6</ele>
        <time>2022-03-30T12:14:53Z</time>
      </trkpt>
      <trkpt lat="49.91137" lon="2.45138">
        <ele>40.7</ele>
        <time>2022-03-30T12:14:54Z</time>
      </trkpt>
      <trkpt lat="49.91138" lon="2.4514">
        <ele>40.8</ele>
        <time>2022-03-30T12:14:55Z</time>
      </trkpt>
      <trkpt lat="49.91139" lon="2.45142">
        <ele>40.9</ele>
        <time>2022-03-30T12:14:56Z</time>
      </trkpt>
      <trkpt lat="49.91139" lon="2.45144">
        <ele>40.9</ele>
        <time>2022-03-30T12:14:57Z</time>
      </trkpt>
      <trkpt lat="49.91139" lon="2.45145">
        <ele>41</ele>
        <time>2022-03-30T12:14:58Z</time>
      </trkpt>
      <trkpt lat="49.9114" lon="2.45146">
        <ele>41</ele>
        <time>2022-03-30T12:14:59Z</time>
      </trkpt>
      <trkpt lat="49.91141" lon="2.45148">
        <ele>41.1</ele>
        <time>2022-03-30T12:15:00Z</time>
      </trkpt>
      <trkpt lat="49.91141" lon="2.45149">
        <ele>41.2</ele>
        <time>2022-03-30T12:15:01Z</time>
      </trkpt>
      <trkpt lat="49.91142" lon="2.4515">
        <ele>41.2</ele>
        <time>2022-03-30T12:15:02Z</time>
      </trkpt>
      <trkpt lat="49.91143" lon="2.45152">
        <ele>41.3</ele>
        <time>2022-03-30T12:15:03Z</time>
      </trkpt>
      <trkpt lat="49.91143" lon="2.45153">
        <ele>41.4</ele>
        <time>2022-03-30T12:15:04Z</time>
      </trkpt>
      <trkpt lat="49.91144" lon="2.45154">
        <ele>41.4</ele>
        <time>2022-03-30T12:15:05Z</time>
      </trkpt>
      <trkpt lat="49.91145" lon="2.45156">
        <ele>41.5</ele>
        <time>2022-03-30T12:15:06Z</time>
      </trkpt>
      <trkpt lat="49.91145" lon="2.45157">
        <ele>41.6</ele>
        <time>2022-03-30T12:15:07Z</time>
      </trkpt>
      <trkpt lat="49.91146" lon="2.45158">
        <ele>41.7</ele>
        <time>2022-03-30T12:15:08Z</time>
      </trkpt>
      <trkpt lat="49.91147" lon="2.4516">
        <ele>41.7</ele>
        <time>2022-03-30T12:15:09Z</time>
      </trkpt>
      <trkpt lat="49.91147" lon="2.4516">
        <ele>41.8</ele>
        <time>2022-03-30T12:15:10Z</time>
      </trkpt>
      <trkpt lat="49.91148" lon="2.45162">
        <ele>41.9</ele>
        <time>2022-03-30T12:15:11Z</time>
      </trkpt>
      <trkpt lat="49.91149" lon="2.45163">
        <ele>42</ele>
        <time>2022-03-30T12:15:12Z</time>
      </trkpt>
      <trkpt lat="49.9115" lon="2.45164">
        <ele>42</ele>
        <time>2022-03-30T12:15:13Z</time>
      </trkpt>
      <trkpt lat="49.91151" lon="2.45164">
        <ele>42.1</ele>
        <time>2022-03-30T12:15:14Z</time>
      </trkpt>
      <trkpt lat="49.91152" lon="2.45165">
        <ele>42.2</ele>
        <time>2022-03-30T12:15:15Z</time>
      </trkpt>
      <trkpt lat="49.91153" lon="2.45166">
        <ele>42.3</ele>
        <time>2022-03-30T12:15:16Z</time>
      </trkpt>
      <trkpt lat="49.91154" lon="2.45167">
        <ele>42.3</ele>
        <time>2022-03-30T12:15:17Z</time>
      </trkpt>
      <trkpt lat="49.91154" lon="2.45168">
        <ele>42.4</ele>
        <time>2022-03-30T12:15:18Z</time>
      </trkpt>
      <trkpt lat="49.91155" lon="2.45169">
        <ele>42.5</ele>
        <time>2022-03-30T12:15:19Z</time>
      </trkpt>
      <trkpt lat="49.91156" lon="2.45169">
        <ele>42.5</ele>
        <time>2022-03-30T12:15:20Z</time>
      </trkpt>
      <trkpt lat="49.91157" lon="2.4517">
        <ele>42.6</ele>
        <time>2022-03-30T12:15:21Z</time>
      </trkpt>
      <trkpt lat="49.91158" lon="2.45171">
        <ele>42.7</ele>
        <time>2022-03-30T12:15:22Z</time>
      </trkpt>
      <trkpt lat="49.91159" lon="2.45172">
        <ele>42.8</ele>
        <time>2022-03-30T12:15:23Z</time>
      </trkpt>
      <trkpt lat="49.9116" lon="2.45173">
        <ele>42.8</ele>
        <time>2022-03-30T12:15:24Z</time>
      </trkpt>
      <trkpt lat="49.91161" lon="2.45174">
        <ele>42.9</ele>
        <time>2022-03-30T12:15:25Z</time>
      </trkpt>
      <trkpt lat="49.91162" lon="2.45175">
        <ele>43</ele>
        <time>2022-03-30T12:15:26Z</time>
      </trkpt>
      <trkpt lat="49.91163" lon="2.45176">
        <ele>43</ele>
        <time>2022-03-30T12:15:27Z</time>
      </trkpt>
      <trkpt lat="49.91164" lon="2.45177">
        <ele>43.1</ele>
        <time>2022-03-30T12:15:28Z</time>
      </trkpt>
      <trkpt lat="49.91165" lon="2.45179">
        <ele>43.2</ele>
        <time>2022-03-30T12:15:29Z</time>
      </trkpt>
      <trkpt lat="49.91166" lon="2.4518">
        <ele>43.2</ele>
        <time>2022-03-30T12:15:30Z</time>
      </trkpt>
      <trkpt lat="49.91166" lon="2.45181">
        <ele>43.3</ele>
        <time>2022-03-30T12:15:31Z</time>
      </trkpt>
      <trkpt lat="49.91168" lon="2.45184">
        <ele>43.4</ele>
        <time>2022-03-30T12:15:32Z</time>
      </trkpt>
      <trkpt lat="49.91168" lon="2.45185">
        <ele>43.4</ele>
        <time>2022-03-30T12:15:33Z</time>
      </trkpt>
      <trkpt lat="49.91169" lon="2.45186">
        <ele>43.4</ele>
        <time>2022-03-30T12:15:34Z</time>
      </trkpt>
      <trkpt lat="49.9117" lon="2.45187">
        <ele>43.5</ele>
        <time>2022-03-30T12:15:35Z</time>
      </trkpt>
      <trkpt lat="49.91171" lon="2.45188">
        <ele>43.5</ele>
        <time>2022-03-30T12:15:36Z</time>
      </trkpt>
      <trkpt lat="49.91172" lon="2.45189">
        <ele>43.5</ele>
        <time>2022-03-30T12:15:37Z</time>
      </trkpt>
      <trkpt lat="49.91173" lon="2.4519">
        <ele>43.6</ele>
        <time>2022-03-30T12:15:38Z</time>
      </trkpt>
      <trkpt lat="49.91173" lon="2.45192">
        <ele>43.6</ele>
        <time>2022-03-30T12:15:39Z</time>
      </trkpt>
      <trkpt lat="49.91174" lon="2.45193">
        <ele>43.6</ele>
        <time>2022-03-30T12:15:40Z</time>
      </trkpt>
      <trkpt lat="49.91175" lon="2.45194">
        <ele>43.7</ele>
        <time>2022-03-30T12:15:41Z</time>
      </trkpt>
      <trkpt lat="49.91176" lon="2.45195">
        <ele>43.7</ele>
        <time>2022-03-30T12:15:42Z</time>
      </trkpt>
      <trkpt lat="49.91177" lon="2.45196">
        <ele>43.7</ele>
        <time>2022-03-30T12:15:43Z</time>
      </trkpt>
      <trkpt lat="49.91178" lon="2.45197">
        <ele>43.7</ele>
        <time>2022-03-30T12:15:44Z</time>
      </trkpt>
      <trkpt lat="49.91179" lon="2.45199">
        <ele>43.7</ele>
        <time>2022-03-30T12:15:45Z</time>
      </trkpt>
      <trkpt lat="49.9118" lon="2.452">
        <ele>43.7</ele>
        <time>2022-03-30T12:15:46Z</time>
      </trkpt>
      <trkpt lat="49.91181" lon="2.45201">
        <ele>43.8</ele>
        <time>2022-03-30T12:15:47Z</time>
      </trkpt>
      <trkpt lat="49.91182" lon="2.45202">
        <ele>43.8</ele>
        <time>2022-03-30T12:15:48Z</time>
      </trkpt>
      <trkpt lat="49.91183" lon="2.45204">
        <ele>43.8</ele>
        <time>2022-03-30T12:15:49Z</time>
      </trkpt>
      <trkpt lat="49.91184" lon="2.45205">
        <ele>43.8</ele>
        <time>2022-03-30T12:15:50Z</time>
      </trkpt>
      <trkpt lat="49.91185" lon="2.45206">
        <ele>43.8</ele>
        <time>2022-03-30T12:15:51Z</time>
      </trkpt>
      <trkpt lat="49.91187" lon="2.45208">
        <ele>43.8</ele>
        <time>2022-03-30T12:15:52Z</time>
      </trkpt>
      <trkpt lat="49.91187" lon="2.45209">
        <ele>43.8</ele>
        <time>2022-03-30T12:15:53Z</time>
      </trkpt>
      <trkpt lat="49.91188" lon="2.4521">
        <ele>43.8</ele>
        <time>2022-03-30T12:15:54Z</time>
      </trkpt>
      <trkpt lat="49.91189" lon="2.45212">
        <ele>43.8</ele>
        <time>2022-03-30T12:15:55Z</time>
      </trkpt>
      <trkpt lat="49.9119" lon="2.45213">
        <ele>43.8</ele>
        <time>2022-03-30T12:15:56Z</time>
      </trkpt>
      <trkpt lat="49.91191" lon="2.45214">
        <ele>43.8</ele>
        <time>2022-03-30T12:15:57Z</time>
      </trkpt>
      <trkpt lat="49.91192" lon="2.45216">
        <ele>43.9</ele>
        <time>2022-03-30T12:15:58Z</time>
      </trkpt>
      <trkpt lat="49.91192" lon="2.45217">
        <ele>43.9</ele>
        <time>2022-03-30T12:15:59Z</time>
      </trkpt>
      <trkpt lat="49.91193" lon="2.45218">
        <ele>43.9</ele>
        <time>2022-03-30T12:16:00Z</time>
      </trkpt>
      <trkpt lat="49.91194" lon="2.45219">
        <ele>43.9</ele>
        <time>2022-03-30T12:16:01Z</time>
      </trkpt>
      <trkpt lat="49.91195" lon="2.45221">
        <ele>43.9</ele>
        <time>2022-03-30T12:16:02Z</time>
      </trkpt>
      <trkpt lat="49.91195" lon="2.45222">
        <ele>43.9</ele>
        <time>2022-03-30T12:16:03Z</time>
      </trkpt>
      <trkpt lat="49.91197" lon="2.45225">
        <ele>44</ele>
        <time>2022-03-30T12:16:04Z</time>
      </trkpt>
      <trkpt lat="49.91197" lon="2.45226">
        <ele>44</ele>
        <time>2022-03-30T12:16:05Z</time>
      </trkpt>
      <trkpt lat="49.91198" lon="2.45227">
        <ele>44</ele>
        <time>2022-03-30T12:16:06Z</time>
      </trkpt>
      <trkpt lat="49.91199" lon="2.45229">
        <ele>44</ele>
        <time>2022-03-30T12:16:07Z</time>
      </trkpt>
      <trkpt lat="49.912" lon="2.4523">
        <ele>44</ele>
        <time>2022-03-30T12:16:08Z</time>
      </trkpt>
      <trkpt lat="49.912" lon="2.45231">
        <ele>44</ele>
        <time>2022-03-30T12:16:09Z</time>
      </trkpt>
      <trkpt lat="49.91201" lon="2.45234">
        <ele>44.1</ele>
        <time>2022-03-30T12:16:10Z</time>
      </trkpt>
      <trkpt lat="49.91202" lon="2.45235">
        <ele>44.1</ele>
        <time>2022-03-30T12:16:11Z</time>
      </trkpt>
      <trkpt lat="49.91203" lon="2.45236">
        <ele>44.1</ele>
        <time>2022-03-30T12:16:12Z</time>
      </trkpt>
      <trkpt lat="49.91203" lon="2.45238">
        <ele>44.1</ele>
        <time>2022-03-30T12:16:13Z</time>
      </trkpt>
      <trkpt lat="49.91204" lon="2.45239">
        <ele>44.2</ele>
        <time>2022-03-30T12:16:14Z</time>
      </trkpt>
      <trkpt lat="49.91205" lon="2.4524">
        <ele>44.2</ele>
        <time>2022-03-30T12:16:15Z</time>
      </trkpt>
      <trkpt lat="49.91205" lon="2.45241">
        <ele>44.2</ele>
        <time>2022-03-30T12:16:16Z</time>
      </trkpt>
      <trkpt lat="49.91206" lon="2.45243">
        <ele>44.2</ele>
        <time>2022-03-30T12:16:17Z</time>
      </trkpt>
      <trkpt lat="49.91206" lon="2.45244">
        <ele>44.2</ele>
        <time>2022-03-30T12:16:18Z</time>
      </trkpt>
      <trkpt lat="49.91207" lon="2.45245">
        <ele>44.3</ele>
        <time>2022-03-30T12:16:19Z</time>
      </trkpt>
      <trkpt lat="49.91207" lon="2.45246">
        <ele>44.3</ele>
        <time>2022-03-30T12:16:20Z</time>
      </trkpt>
      <trkpt lat="49.91208" lon="2.45248">
        <ele>44.3</ele>
        <time>2022-03-30T12:16:21Z</time>
      </trkpt>
      <trkpt lat="49.91209" lon="2.4525">
        <ele>44.4</ele>
        <time>2022-03-30T12:16:22Z</time>
      </trkpt>
      <trkpt lat="49.9121" lon="2.45251">
        <ele>44.4</ele>
        <time>2022-03-30T12:16:23Z</time>
      </trkpt>
      <trkpt lat="49.9121" lon="2.45252">
        <ele>44.4</ele>
        <time>2022-03-30T12:16:24Z</time>
      </trkpt>
      <trkpt lat="49.91211" lon="2.45254">
        <ele>44.4</ele>
        <time>2022-03-30T12:16:25Z</time>
      </trkpt>
      <trkpt lat="49.91211" lon="2.45255">
        <ele>44.4</ele>
        <time>2022-03-30T12:16:26Z</time>
      </trkpt>
      <trkpt lat="49.91212" lon="2.45256">
        <ele>44.5</ele>
        <time>2022-03-30T12:16:27Z</time>
      </trkpt>
      <trkpt lat="49.91213" lon="2.45257">
        <ele>44.5</ele>
        <time>2022-03-30T12:16:28Z</time>
      </trkpt>
      <trkpt lat="49.91213" lon="2.45259">
        <ele>44.5</ele>
        <time>2022-03-30T12:16:29Z</time>
      </trkpt>
      <trkpt lat="49.91214" lon="2.4526">
        <ele>44.5</ele>
        <time>2022-03-30T12:16:30Z</time>
      </trkpt>
      <trkpt lat="49.91215" lon="2.45263">
        <ele>44.6</ele>
        <time>2022-03-30T12:16:31Z</time>
      </trkpt>
      <trkpt lat="49.91216" lon="2.45264">
        <ele>44.6</ele>
        <time>2022-03-30T12:16:32Z</time>
      </trkpt>
      <trkpt lat="49.91216" lon="2.45266">
        <ele>44.6</ele>
        <time>2022-03-30T12:16:33Z</time>
      </trkpt>
      <trkpt lat="49.91217" lon="2.45268">
        <ele>44.6</ele>
        <time>2022-03-30T12:16:34Z</time>
      </trkpt>
      <trkpt lat="49.91218" lon="2.45269">
        <ele>44.7</ele>
        <time>2022-03-30T12:16:35Z</time>
      </trkpt>
      <trkpt lat="49.91218" lon="2.4527">
        <ele>44.7</ele>
        <time>2022-03-30T12:16:36Z</time>
      </trkpt>
      <trkpt lat="49.9122" lon="2.45273">
        <ele>44.7</ele>
        <time>2022-03-30T12:16:37Z</time>
      </trkpt>
      <trkpt lat="49.9122" lon="2.45274">
        <ele>44.7</ele>
        <time>2022-03-30T12:16:38Z</time>
      </trkpt>
      <trkpt lat="49.91221" lon="2.45276">
        <ele>44.7</ele>
        <time>2022-03-30T12:16:39Z</time>
      </trkpt>
      <trkpt lat="49.91222" lon="2.45278">
        <ele>44.8</ele>
        <time>2022-03-30T12:16:40Z</time>
      </trkpt>
      <trkpt lat="49.91223" lon="2.45279">
        <ele>44.8</ele>
        <time>2022-03-30T12:16:41Z</time>
      </trkpt>
      <trkpt lat="49.91223" lon="2.4528">
        <ele>44.8</ele>
        <time>2022-03-30T12:16:42Z</time>
      </trkpt>
      <trkpt lat="49.91224" lon="2.45282">
        <ele>44.8</ele>
        <time>2022-03-30T12:16:43Z</time>
      </trkpt>
      <trkpt lat="49.91224" lon="2.45283">
        <ele>44.8</ele>
        <time>2022-03-30T12:16:44Z</time>
      </trkpt>
      <trkpt lat="49.91225" lon="2.45284">
        <ele>44.8</ele>
        <time>2022-03-30T12:16:45Z</time>
      </trkpt>
      <trkpt lat="49.91225" lon="2.45286">
        <ele>44.9</ele>
        <time>2022-03-30T12:16:46Z</time>
      </trkpt>
      <trkpt lat="49.91226" lon="2.45287">
        <ele>44.9</ele>
        <time>2022-03-30T12:16:47Z</time>
      </trkpt>
      <trkpt lat="49.91227" lon="2.45289">
        <ele>44.9</ele>
        <time>2022-03-30T12:16:48Z</time>
      </trkpt>
      <trkpt lat="49.91227" lon="2.4529">
        <ele>44.9</ele>
        <time>2022-03-30T12:16:49Z</time>
      </trkpt>
      <trkpt lat="49.91228" lon="2.45292">
        <ele>44.9</ele>
        <time>2022-03-30T12:16:50Z</time>
      </trkpt>
      <trkpt lat="49.91228" lon="2.45293">
        <ele>45</ele>
        <time>2022-03-30T12:16:51Z</time>
      </trkpt>
      <trkpt lat="49.91229" lon="2.45296">
        <ele>45</ele>
        <time>2022-03-30T12:16:52Z</time>
      </trkpt>
      <trkpt lat="49.9123" lon="2.45297">
        <ele>45</ele>
        <time>2022-03-30T12:16:53Z</time>
      </trkpt>
      <trkpt lat="49.9123" lon="2.45298">
        <ele>45</ele>
        <time>2022-03-30T12:16:54Z</time>
      </trkpt>
      <trkpt lat="49.91231" lon="2.453">
        <ele>45</ele>
        <time>2022-03-30T12:16:55Z</time>
      </trkpt>
      <trkpt lat="49.91232" lon="2.45301">
        <ele>45.1</ele>
        <time>2022-03-30T12:16:56Z</time>
      </trkpt>
      <trkpt lat="49.91233" lon="2.45302">
        <ele>45.1</ele>
        <time>2022-03-30T12:16:57Z</time>
      </trkpt>
      <trkpt lat="49.91233" lon="2.45304">
        <ele>45.1</ele>
        <time>2022-03-30T12:16:58Z</time>
      </trkpt>
      <trkpt lat="49.91234" lon="2.45305">
        <ele>45.2</ele>
        <time>2022-03-30T12:16:59Z</time>
      </trkpt>
      <trkpt lat="49.91234" lon="2.45306">
        <ele>45.2</ele>
        <time>2022-03-30T12:17:00Z</time>
      </trkpt>
      <trkpt lat="49.91235" lon="2.45307">
        <ele>45.2</ele>
        <time>2022-03-30T12:17:01Z</time>
      </trkpt>
      <trkpt lat="49.91236" lon="2.45308">
        <ele>45.2</ele>
        <time>2022-03-30T12:17:02Z</time>
      </trkpt>
      <trkpt lat="49.91237" lon="2.4531">
        <ele>45.3</ele>
        <time>2022-03-30T12:17:03Z</time>
      </trkpt>
      <trkpt lat="49.91238" lon="2.45312">
        <ele>45.3</ele>
        <time>2022-03-30T12:17:04Z</time>
      </trkpt>
      <trkpt lat="49.91238" lon="2.45313">
        <ele>45.4</ele>
        <time>2022-03-30T12:17:05Z</time>
      </trkpt>
      <trkpt lat="49.91239" lon="2.45314">
        <ele>45.4</ele>
        <time>2022-03-30T12:17:06Z</time>
      </trkpt>
      <trkpt lat="49.9124" lon="2.45316">
        <ele>45.5</ele>
        <time>2022-03-30T12:17:07Z</time>
      </trkpt>
      <trkpt lat="49.91241" lon="2.45317">
        <ele>45.5</ele>
        <time>2022-03-30T12:17:08Z</time>
      </trkpt>
      <trkpt lat="49.91241" lon="2.45318">
        <ele>45.5</ele>
        <time>2022-03-30T12:17:09Z</time>
      </trkpt>
      <trkpt lat="49.91242" lon="2.4532">
        <ele>45.6</ele>
        <time>2022-03-30T12:17:10Z</time>
      </trkpt>
      <trkpt lat="49.91243" lon="2.45321">
        <ele>45.6</ele>
        <time>2022-03-30T12:17:11Z</time>
      </trkpt>
      <trkpt lat="49.91243" lon="2.45322">
        <ele>45.6</ele>
        <time>2022-03-30T12:17:12Z</time>
      </trkpt>
      <trkpt lat="49.91245" lon="2.45324">
        <ele>45.7</ele>
        <time>2022-03-30T12:17:13Z</time>
      </trkpt>
      <trkpt lat="49.91245" lon="2.45325">
        <ele>45.7</ele>
        <time>2022-03-30T12:17:14Z</time>
      </trkpt>
      <trkpt lat="49.91246" lon="2.45326">
        <ele>45.8</ele>
        <time>2022-03-30T12:17:15Z</time>
      </trkpt>
      <trkpt lat="49.91247" lon="2.45329">
        <ele>45.8</ele>
        <time>2022-03-30T12:17:16Z</time>
      </trkpt>
      <trkpt lat="49.91247" lon="2.4533">
        <ele>45.9</ele>
        <time>2022-03-30T12:17:17Z</time>
      </trkpt>
      <trkpt lat="49.91248" lon="2.45331">
        <ele>45.9</ele>
        <time>2022-03-30T12:17:18Z</time>
      </trkpt>
      <trkpt lat="49.91249" lon="2.45333">
        <ele>46</ele>
        <time>2022-03-30T12:17:19Z</time>
      </trkpt>
      <trkpt lat="49.91249" lon="2.45334">
        <ele>46</ele>
        <time>2022-03-30T12:17:20Z</time>
      </trkpt>
      <trkpt lat="49.9125" lon="2.45336">
        <ele>46.1</ele>
        <time>2022-03-30T12:17:21Z</time>
      </trkpt>
      <trkpt lat="49.9125" lon="2.45337">
        <ele>46.1</ele>
        <time>2022-03-30T12:17:22Z</time>
      </trkpt>
      <trkpt lat="49.91251" lon="2.45338">
        <ele>46.1</ele>
        <time>2022-03-30T12:17:23Z</time>
      </trkpt>
      <trkpt lat="49.91252" lon="2.4534">
        <ele>46.2</ele>
        <time>2022-03-30T12:17:24Z</time>
      </trkpt>
      <trkpt lat="49.91253" lon="2.45342">
        <ele>46.3</ele>
        <time>2022-03-30T12:17:25Z</time>
      </trkpt>
      <trkpt lat="49.91253" lon="2.45343">
        <ele>46.3</ele>
        <time>2022-03-30T12:17:26Z</time>
      </trkpt>
      <trkpt lat="49.91254" lon="2.45344">
        <ele>46.4</ele>
        <time>2022-03-30T12:17:27Z</time>
      </trkpt>
      <trkpt lat="49.91254" lon="2.45346">
        <ele>46.4</ele>
        <time>2022-03-30T12:17:28Z</time>
      </trkpt>
      <trkpt lat="49.91255" lon="2.45347">
        <ele>46.5</ele>
        <time>2022-03-30T12:17:29Z</time>
      </trkpt>
      <trkpt lat="49.91256" lon="2.45349">
        <ele>46.5</ele>
        <time>2022-03-30T12:17:30Z</time>
      </trkpt>
      <trkpt lat="49.91257" lon="2.45352">
        <ele>46.6</ele>
        <time>2022-03-30T12:17:31Z</time>
      </trkpt>
      <trkpt lat="49.91257" lon="2.45353">
        <ele>46.7</ele>
        <time>2022-03-30T12:17:32Z</time>
      </trkpt>
      <trkpt lat="49.91258" lon="2.45354">
        <ele>46.7</ele>
        <time>2022-03-30T12:17:33Z</time>
      </trkpt>
      <trkpt lat="49.91258" lon="2.45355">
        <ele>46.8</ele>
        <time>2022-03-30T12:17:34Z</time>
      </trkpt>
      <trkpt lat="49.91259" lon="2.45356">
        <ele>46.8</ele>
        <time>2022-03-30T12:17:35Z</time>
      </trkpt>
      <trkpt lat="49.91259" lon="2.45358">
        <ele>46.9</ele>
        <time>2022-03-30T12:17:36Z</time>
      </trkpt>
      <trkpt lat="49.9126" lon="2.45359">
        <ele>46.9</ele>
        <time>2022-03-30T12:17:37Z</time>
      </trkpt>
      <trkpt lat="49.9126" lon="2.4536">
        <ele>47</ele>
        <time>2022-03-30T12:17:38Z</time>
      </trkpt>
      <trkpt lat="49.91261" lon="2.45362">
        <ele>47</ele>
        <time>2022-03-30T12:17:39Z</time>
      </trkpt>
      <trkpt lat="49.91262" lon="2.45364">
        <ele>47.1</ele>
        <time>2022-03-30T12:17:40Z</time>
      </trkpt>
      <trkpt lat="49.91262" lon="2.45365">
        <ele>47.2</ele>
        <time>2022-03-30T12:17:41Z</time>
      </trkpt>
      <trkpt lat="49.91263" lon="2.45367">
        <ele>47.2</ele>
        <time>2022-03-30T12:17:42Z</time>
      </trkpt>
      <trkpt lat="49.91263" lon="2.45368">
        <ele>47.2</ele>
        <time>2022-03-30T12:17:43Z</time>
      </trkpt>
      <trkpt lat="49.91264" lon="2.45369">
        <ele>47.3</ele>
        <time>2022-03-30T12:17:44Z</time>
      </trkpt>
      <trkpt lat="49.91264" lon="2.45371">
        <ele>47.3</ele>
        <time>2022-03-30T12:17:45Z</time>
      </trkpt>
      <trkpt lat="49.91265" lon="2.45372">
        <ele>47.4</ele>
        <time>2022-03-30T12:17:46Z</time>
      </trkpt>
      <trkpt lat="49.91265" lon="2.45374">
        <ele>47.4</ele>
        <time>2022-03-30T12:17:47Z</time>
      </trkpt>
      <trkpt lat="49.91266" lon="2.45376">
        <ele>47.5</ele>
        <time>2022-03-30T12:17:48Z</time>
      </trkpt>
      <trkpt lat="49.91267" lon="2.45378">
        <ele>47.5</ele>
        <time>2022-03-30T12:17:49Z</time>
      </trkpt>
      <trkpt lat="49.91267" lon="2.4538">
        <ele>47.6</ele>
        <time>2022-03-30T12:17:50Z</time>
      </trkpt>
      <trkpt lat="49.91268" lon="2.45381">
        <ele>47.6</ele>
        <time>2022-03-30T12:17:51Z</time>
      </trkpt>
      <trkpt lat="49.91268" lon="2.45382">
        <ele>47.6</ele>
        <time>2022-03-30T12:17:52Z</time>
      </trkpt>
      <trkpt lat="49.91269" lon="2.45384">
        <ele>47.6</ele>
        <time>2022-03-30T12:17:53Z</time>
      </trkpt>
      <trkpt lat="49.91269" lon="2.45385">
        <ele>47.7</ele>
        <time>2022-03-30T12:17:54Z</time>
      </trkpt>
      <trkpt lat="49.9127" lon="2.45386">
        <ele>47.7</ele>
        <time>2022-03-30T12:17:55Z</time>
      </trkpt>
      <trkpt lat="49.9127" lon="2.45388">
        <ele>47.7</ele>
        <time>2022-03-30T12:17:56Z</time>
      </trkpt>
      <trkpt lat="49.91271" lon="2.45389">
        <ele>47.7</ele>
        <time>2022-03-30T12:17:57Z</time>
      </trkpt>
      <trkpt lat="49.91272" lon="2.45392">
        <ele>47.8</ele>
        <time>2022-03-30T12:17:58Z</time>
      </trkpt>
      <trkpt lat="49.91272" lon="2.45393">
        <ele>47.8</ele>
        <time>2022-03-30T12:17:59Z</time>
      </trkpt>
      <trkpt lat="49.91273" lon="2.45395">
        <ele>47.8</ele>
        <time>2022-03-30T12:18:00Z</time>
      </trkpt>
      <trkpt lat="49.91273" lon="2.45396">
        <ele>47.8</ele>
        <time>2022-03-30T12:18:01Z</time>
      </trkpt>
      <trkpt lat="49.91274" lon="2.45398">
        <ele>47.8</ele>
        <time>2022-03-30T12:18:02Z</time>
      </trkpt>
      <trkpt lat="49.91275" lon="2.454">
        <ele>47.9</ele>
        <time>2022-03-30T12:18:03Z</time>
      </trkpt>
      <trkpt lat="49.91275" lon="2.45402">
        <ele>47.9</ele>
        <time>2022-03-30T12:18:04Z</time>
      </trkpt>
      <trkpt lat="49.91276" lon="2.45404">
        <ele>47.8</ele>
        <time>2022-03-30T12:18:05Z</time>
      </trkpt>
      <trkpt lat="49.91276" lon="2.45406">
        <ele>47.8</ele>
        <time>2022-03-30T12:18:06Z</time>
      </trkpt>
      <trkpt lat="49.91277" lon="2.45407">
        <ele>47.7</ele>
        <time>2022-03-30T12:18:07Z</time>
      </trkpt>
      <trkpt lat="49.91277" lon="2.45409">
        <ele>47.7</ele>
        <time>2022-03-30T12:18:08Z</time>
      </trkpt>
      <trkpt lat="49.91278" lon="2.4541">
        <ele>47.7</ele>
        <time>2022-03-30T12:18:09Z</time>
      </trkpt>
      <trkpt lat="49.91278" lon="2.45412">
        <ele>47.6</ele>
        <time>2022-03-30T12:18:10Z</time>
      </trkpt>
      <trkpt lat="49.91279" lon="2.45413">
        <ele>47.6</ele>
        <time>2022-03-30T12:18:11Z</time>
      </trkpt>
      <trkpt lat="49.91279" lon="2.45415">
        <ele>47.5</ele>
        <time>2022-03-30T12:18:12Z</time>
      </trkpt>
      <trkpt lat="49.9128" lon="2.45417">
        <ele>47.5</ele>
        <time>2022-03-30T12:18:13Z</time>
      </trkpt>
      <trkpt lat="49.91281" lon="2.4542">
        <ele>47.4</ele>
        <time>2022-03-30T12:18:14Z</time>
      </trkpt>
      <trkpt lat="49.91281" lon="2.45421">
        <ele>47.4</ele>
        <time>2022-03-30T12:18:15Z</time>
      </trkpt>
      <trkpt lat="49.91281" lon="2.45422">
        <ele>47.4</ele>
        <time>2022-03-30T12:18:16Z</time>
      </trkpt>
      <trkpt lat="49.91282" lon="2.45425">
        <ele>47.3</ele>
        <time>2022-03-30T12:18:17Z</time>
      </trkpt>
      <trkpt lat="49.91283" lon="2.45426">
        <ele>47.3</ele>
        <time>2022-03-30T12:18:18Z</time>
      </trkpt>
      <trkpt lat="49.91283" lon="2.45427">
        <ele>47.3</ele>
        <time>2022-03-30T12:18:19Z</time>
      </trkpt>
      <trkpt lat="49.91284" lon="2.4543">
        <ele>47.3</ele>
        <time>2022-03-30T12:18:20Z</time>
      </trkpt>
      <trkpt lat="49.91285" lon="2.45431">
        <ele>47.3</ele>
        <time>2022-03-30T12:18:21Z</time>
      </trkpt>
      <trkpt lat="49.91285" lon="2.45432">
        <ele>47.2</ele>
        <time>2022-03-30T12:18:22Z</time>
      </trkpt>
      <trkpt lat="49.91286" lon="2.45434">
        <ele>47.2</ele>
        <time>2022-03-30T12:18:23Z</time>
      </trkpt>
      <trkpt lat="49.91286" lon="2.45435">
        <ele>47.2</ele>
        <time>2022-03-30T12:18:24Z</time>
      </trkpt>
      <trkpt lat="49.91287" lon="2.45436">
        <ele>47.2</ele>
        <time>2022-03-30T12:18:25Z</time>
      </trkpt>
      <trkpt lat="49.91288" lon="2.45438">
        <ele>47.2</ele>
        <time>2022-03-30T12:18:26Z</time>
      </trkpt>
      <trkpt lat="49.91289" lon="2.45439">
        <ele>47.2</ele>
        <time>2022-03-30T12:18:27Z</time>
      </trkpt>
      <trkpt lat="49.91289" lon="2.4544">
        <ele>47.2</ele>
        <time>2022-03-30T12:18:28Z</time>
      </trkpt>
      <trkpt lat="49.9129" lon="2.45442">
        <ele>47.2</ele>
        <time>2022-03-30T12:18:29Z</time>
      </trkpt>
      <trkpt lat="49.91291" lon="2.45443">
        <ele>47.2</ele>
        <time>2022-03-30T12:18:30Z</time>
      </trkpt>
      <trkpt lat="49.91291" lon="2.45444">
        <ele>47.2</ele>
        <time>2022-03-30T12:18:31Z</time>
      </trkpt>
      <trkpt lat="49.91292" lon="2.45446">
        <ele>47.2</ele>
        <time>2022-03-30T12:18:32Z</time>
      </trkpt>
      <trkpt lat="49.91293" lon="2.45448">
        <ele>47.2</ele>
        <time>2022-03-30T12:18:33Z</time>
      </trkpt>
      <trkpt lat="49.91293" lon="2.45449">
        <ele>47.2</ele>
        <time>2022-03-30T12:18:34Z</time>
      </trkpt>
      <trkpt lat="49.91294" lon="2.4545">
        <ele>47.3</ele>
        <time>2022-03-30T12:18:35Z</time>
      </trkpt>
      <trkpt lat="49.91294" lon="2.45451">
        <ele>47.3</ele>
        <time>2022-03-30T12:18:36Z</time>
      </trkpt>
      <trkpt lat="49.91295" lon="2.45452">
        <ele>47.3</ele>
        <time>2022-03-30T12:18:37Z</time>
      </trkpt>
      <trkpt lat="49.91296" lon="2.45454">
        <ele>47.3</ele>
        <time>2022-03-30T12:18:38Z</time>
      </trkpt>
      <trkpt lat="49.91296" lon="2.45455">
        <ele>47.3</ele>
        <time>2022-03-30T12:18:39Z</time>
      </trkpt>
      <trkpt lat="49.91297" lon="2.45456">
        <ele>47.3</ele>
        <time>2022-03-30T12:18:40Z</time>
      </trkpt>
      <trkpt lat="49.91298" lon="2.45458">
        <ele>47.3</ele>
        <time>2022-03-30T12:18:41Z</time>
      </trkpt>
      <trkpt lat="49.91298" lon="2.45459">
        <ele>47.3</ele>
        <time>2022-03-30T12:18:42Z</time>
      </trkpt>
      <trkpt lat="49.91298" lon="2.45461">
        <ele>47.3</ele>
        <time>2022-03-30T12:18:43Z</time>
      </trkpt>
      <trkpt lat="49.91299" lon="2.45462">
        <ele>47.3</ele>
        <time>2022-03-30T12:18:44Z</time>
      </trkpt>
      <trkpt lat="49.913" lon="2.45463">
        <ele>47.3</ele>
        <time>2022-03-30T12:18:45Z</time>
      </trkpt>
      <trkpt lat="49.913" lon="2.45465">
        <ele>47.3</ele>
        <time>2022-03-30T12:18:46Z</time>
      </trkpt>
      <trkpt lat="49.91301" lon="2.45466">
        <ele>47.3</ele>
        <time>2022-03-30T12:18:47Z</time>
      </trkpt>
      <trkpt lat="49.91301" lon="2.45468">
        <ele>47.3</ele>
        <time>2022-03-30T12:18:48Z</time>
      </trkpt>
      <trkpt lat="49.91301" lon="2.45469">
        <ele>47.2</ele>
        <time>2022-03-30T12:18:49Z</time>
      </trkpt>
      <trkpt lat="49.91302" lon="2.45472">
        <ele>47.2</ele>
        <time>2022-03-30T12:18:50Z</time>
      </trkpt>
      <trkpt lat="49.91303" lon="2.45473">
        <ele>47.2</ele>
        <time>2022-03-30T12:18:51Z</time>
      </trkpt>
      <trkpt lat="49.91303" lon="2.45475">
        <ele>47.2</ele>
        <time>2022-03-30T12:18:52Z</time>
      </trkpt>
      <trkpt lat="49.91304" lon="2.45476">
        <ele>47.2</ele>
        <time>2022-03-30T12:18:53Z</time>
      </trkpt>
      <trkpt lat="49.91304" lon="2.45478">
        <ele>47.1</ele>
        <time>2022-03-30T12:18:54Z</time>
      </trkpt>
      <trkpt lat="49.91304" lon="2.45479">
        <ele>47.1</ele>
        <time>2022-03-30T12:18:55Z</time>
      </trkpt>
      <trkpt lat="49.91305" lon="2.45481">
        <ele>47.1</ele>
        <time>2022-03-30T12:18:56Z</time>
      </trkpt>
      <trkpt lat="49.91305" lon="2.45482">
        <ele>47.1</ele>
        <time>2022-03-30T12:18:57Z</time>
      </trkpt>
      <trkpt lat="49.91305" lon="2.45484">
        <ele>47</ele>
        <time>2022-03-30T12:18:58Z</time>
      </trkpt>
      <trkpt lat="49.91306" lon="2.45486">
        <ele>47</ele>
        <time>2022-03-30T12:18:59Z</time>
      </trkpt>
      <trkpt lat="49.91306" lon="2.45487">
        <ele>47</ele>
        <time>2022-03-30T12:19:00Z</time>
      </trkpt>
      <trkpt lat="49.91307" lon="2.45489">
        <ele>46.9</ele>
        <time>2022-03-30T12:19:01Z</time>
      </trkpt>
      <trkpt lat="49.91307" lon="2.4549">
        <ele>46.9</ele>
        <time>2022-03-30T12:19:02Z</time>
      </trkpt>
      <trkpt lat="49.91308" lon="2.45492">
        <ele>46.9</ele>
        <time>2022-03-30T12:19:03Z</time>
      </trkpt>
      <trkpt lat="49.91308" lon="2.45493">
        <ele>46.8</ele>
        <time>2022-03-30T12:19:04Z</time>
      </trkpt>
      <trkpt lat="49.91309" lon="2.45495">
        <ele>46.8</ele>
        <time>2022-03-30T12:19:05Z</time>
      </trkpt>
      <trkpt lat="49.91309" lon="2.45497">
        <ele>46.7</ele>
        <time>2022-03-30T12:19:06Z</time>
      </trkpt>
      <trkpt lat="49.9131" lon="2.45498">
        <ele>46.7</ele>
        <time>2022-03-30T12:19:07Z</time>
      </trkpt>
      <trkpt lat="49.9131" lon="2.45499">
        <ele>46.7</ele>
        <time>2022-03-30T12:19:08Z</time>
      </trkpt>
      <trkpt lat="49.91311" lon="2.45501">
        <ele>46.6</ele>
        <time>2022-03-30T12:19:09Z</time>
      </trkpt>
      <trkpt lat="49.91311" lon="2.45502">
        <ele>46.6</ele>
        <time>2022-03-30T12:19:10Z</time>
      </trkpt>
      <trkpt lat="49.91311" lon="2.45504">
        <ele>46.6</ele>
        <time>2022-03-30T12:19:11Z</time>
      </trkpt>
      <trkpt lat="49.91312" lon="2.45505">
        <ele>46.5</ele>
        <time>2022-03-30T12:19:12Z</time>
      </trkpt>
      <trkpt lat="49.91312" lon="2.45507">
        <ele>46.5</ele>
        <time>2022-03-30T12:19:13Z</time>
      </trkpt>
      <trkpt lat="49.91313" lon="2.45508">
        <ele>46.5</ele>
        <time>2022-03-30T12:19:14Z</time>
      </trkpt>
      <trkpt lat="49.91313" lon="2.4551">
        <ele>46.4</ele>
        <time>2022-03-30T12:19:15Z</time>
      </trkpt>
      <trkpt lat="49.91314" lon="2.45512">
        <ele>46.4</ele>
        <time>2022-03-30T12:19:16Z</time>
      </trkpt>
      <trkpt lat="49.91314" lon="2.45515">
        <ele>46.3</ele>
        <time>2022-03-30T12:19:17Z</time>
      </trkpt>
      <trkpt lat="49.91315" lon="2.45516">
        <ele>46.3</ele>
        <time>2022-03-30T12:19:18Z</time>
      </trkpt>
      <trkpt lat="49.91315" lon="2.45517">
        <ele>46.3</ele>
        <time>2022-03-30T12:19:19Z</time>
      </trkpt>
      <trkpt lat="49.91316" lon="2.45519">
        <ele>46.3</ele>
        <time>2022-03-30T12:19:20Z</time>
      </trkpt>
      <trkpt lat="49.91316" lon="2.4552">
        <ele>46.2</ele>
        <time>2022-03-30T12:19:21Z</time>
      </trkpt>
      <trkpt lat="49.91317" lon="2.45521">
        <ele>46.2</ele>
        <time>2022-03-30T12:19:22Z</time>
      </trkpt>
      <trkpt lat="49.91317" lon="2.45523">
        <ele>46.2</ele>
        <time>2022-03-30T12:19:23Z</time>
      </trkpt>
      <trkpt lat="49.91317" lon="2.45524">
        <ele>46.1</ele>
        <time>2022-03-30T12:19:24Z</time>
      </trkpt>
      <trkpt lat="49.91318" lon="2.45526">
        <ele>46.1</ele>
        <time>2022-03-30T12:19:25Z</time>
      </trkpt>
      <trkpt lat="49.91318" lon="2.45528">
        <ele>46.1</ele>
        <time>2022-03-30T12:19:26Z</time>
      </trkpt>
      <trkpt lat="49.91319" lon="2.45529">
        <ele>46</ele>
        <time>2022-03-30T12:19:27Z</time>
      </trkpt>
      <trkpt lat="49.91319" lon="2.45531">
        <ele>46</ele>
        <time>2022-03-30T12:19:28Z</time>
      </trkpt>
      <trkpt lat="49.9132" lon="2.45534">
        <ele>46</ele>
        <time>2022-03-30T12:19:29Z</time>
      </trkpt>
      <trkpt lat="49.9132" lon="2.45535">
        <ele>45.9</ele>
        <time>2022-03-30T12:19:30Z</time>
      </trkpt>
      <trkpt lat="49.91321" lon="2.45536">
        <ele>45.9</ele>
        <time>2022-03-30T12:19:31Z</time>
      </trkpt>
      <trkpt lat="49.91321" lon="2.45538">
        <ele>45.9</ele>
        <time>2022-03-30T12:19:32Z</time>
      </trkpt>
      <trkpt lat="49.91322" lon="2.4554">
        <ele>45.8</ele>
        <time>2022-03-30T12:19:33Z</time>
      </trkpt>
      <trkpt lat="49.91322" lon="2.45542">
        <ele>45.8</ele>
        <time>2022-03-30T12:19:34Z</time>
      </trkpt>
      <trkpt lat="49.91323" lon="2.45544">
        <ele>45.7</ele>
        <time>2022-03-30T12:19:35Z</time>
      </trkpt>
      <trkpt lat="49.91323" lon="2.45545">
        <ele>45.7</ele>
        <time>2022-03-30T12:19:36Z</time>
      </trkpt>
      <trkpt lat="49.91324" lon="2.45548">
        <ele>45.6</ele>
        <time>2022-03-30T12:19:37Z</time>
      </trkpt>
      <trkpt lat="49.91324" lon="2.4555">
        <ele>45.6</ele>
        <time>2022-03-30T12:19:38Z</time>
      </trkpt>
      <trkpt lat="49.91325" lon="2.45551">
        <ele>45.6</ele>
        <time>2022-03-30T12:19:39Z</time>
      </trkpt>
      <trkpt lat="49.91325" lon="2.45553">
        <ele>45.5</ele>
        <time>2022-03-30T12:19:40Z</time>
      </trkpt>
      <trkpt lat="49.91325" lon="2.45555">
        <ele>45.5</ele>
        <time>2022-03-30T12:19:41Z</time>
      </trkpt>
      <trkpt lat="49.91326" lon="2.45557">
        <ele>45.4</ele>
        <time>2022-03-30T12:19:42Z</time>
      </trkpt>
      <trkpt lat="49.91326" lon="2.4556">
        <ele>45.3</ele>
        <time>2022-03-30T12:19:43Z</time>
      </trkpt>
      <trkpt lat="49.91326" lon="2.45562">
        <ele>45.3</ele>
        <time>2022-03-30T12:19:44Z</time>
      </trkpt>
      <trkpt lat="49.91327" lon="2.45564">
        <ele>45.2</ele>
        <time>2022-03-30T12:19:45Z</time>
      </trkpt>
      <trkpt lat="49.91327" lon="2.45566">
        <ele>45.2</ele>
        <time>2022-03-30T12:19:46Z</time>
      </trkpt>
      <trkpt lat="49.91327" lon="2.45567">
        <ele>45.1</ele>
        <time>2022-03-30T12:19:47Z</time>
      </trkpt>
      <trkpt lat="49.91327" lon="2.45569">
        <ele>45.1</ele>
        <time>2022-03-30T12:19:48Z</time>
      </trkpt>
      <trkpt lat="49.91328" lon="2.45571">
        <ele>45</ele>
        <time>2022-03-30T12:19:49Z</time>
      </trkpt>
      <trkpt lat="49.91328" lon="2.45572">
        <ele>45</ele>
        <time>2022-03-30T12:19:50Z</time>
      </trkpt>
      <trkpt lat="49.91328" lon="2.45574">
        <ele>44.9</ele>
        <time>2022-03-30T12:19:51Z</time>
      </trkpt>
      <trkpt lat="49.91329" lon="2.45576">
        <ele>44.8</ele>
        <time>2022-03-30T12:19:52Z</time>
      </trkpt>
      <trkpt lat="49.91329" lon="2.45578">
        <ele>44.8</ele>
        <time>2022-03-30T12:19:53Z</time>
      </trkpt>
      <trkpt lat="49.9133" lon="2.45579">
        <ele>44.8</ele>
        <time>2022-03-30T12:19:54Z</time>
      </trkpt>
      <trkpt lat="49.9133" lon="2.4558">
        <ele>44.7</ele>
        <time>2022-03-30T12:19:55Z</time>
      </trkpt>
      <trkpt lat="49.9133" lon="2.45582">
        <ele>44.7</ele>
        <time>2022-03-30T12:19:56Z</time>
      </trkpt>
      <trkpt lat="49.91331" lon="2.45583">
        <ele>44.6</ele>
        <time>2022-03-30T12:19:57Z</time>
      </trkpt>
      <trkpt lat="49.91331" lon="2.45585">
        <ele>44.6</ele>
        <time>2022-03-30T12:19:58Z</time>
      </trkpt>
      <trkpt lat="49.91332" lon="2.45587">
        <ele>44.5</ele>
        <time>2022-03-30T12:19:59Z</time>
      </trkpt>
      <trkpt lat="49.91332" lon="2.45588">
        <ele>44.5</ele>
        <time>2022-03-30T12:20:00Z</time>
      </trkpt>
      <trkpt lat="49.91333" lon="2.45591">
        <ele>44.4</ele>
        <time>2022-03-30T12:20:01Z</time>
      </trkpt>
      <trkpt lat="49.91333" lon="2.45592">
        <ele>44.3</ele>
        <time>2022-03-30T12:20:02Z</time>
      </trkpt>
      <trkpt lat="49.91333" lon="2.45594">
        <ele>44.3</ele>
        <time>2022-03-30T12:20:03Z</time>
      </trkpt>
      <trkpt lat="49.91334" lon="2.45595">
        <ele>44.2</ele>
        <time>2022-03-30T12:20:04Z</time>
      </trkpt>
      <trkpt lat="49.91334" lon="2.45597">
        <ele>44.2</ele>
        <time>2022-03-30T12:20:05Z</time>
      </trkpt>
      <trkpt lat="49.91334" lon="2.45598">
        <ele>44.1</ele>
        <time>2022-03-30T12:20:06Z</time>
      </trkpt>
      <trkpt lat="49.91335" lon="2.456">
        <ele>44.1</ele>
        <time>2022-03-30T12:20:07Z</time>
      </trkpt>
      <trkpt lat="49.91335" lon="2.45601">
        <ele>44.1</ele>
        <time>2022-03-30T12:20:08Z</time>
      </trkpt>
      <trkpt lat="49.91335" lon="2.45603">
        <ele>44</ele>
        <time>2022-03-30T12:20:09Z</time>
      </trkpt>
      <trkpt lat="49.91336" lon="2.45604">
        <ele>44</ele>
        <time>2022-03-30T12:20:10Z</time>
      </trkpt>
      <trkpt lat="49.91337" lon="2.45606">
        <ele>43.9</ele>
        <time>2022-03-30T12:20:11Z</time>
      </trkpt>
      <trkpt lat="49.91337" lon="2.45607">
        <ele>43.9</ele>
        <time>2022-03-30T12:20:12Z</time>
      </trkpt>
      <trkpt lat="49.91338" lon="2.45609">
        <ele>43.8</ele>
        <time>2022-03-30T12:20:13Z</time>
      </trkpt>
      <trkpt lat="49.91338" lon="2.4561">
        <ele>43.8</ele>
        <time>2022-03-30T12:20:14Z</time>
      </trkpt>
      <trkpt lat="49.91339" lon="2.45611">
        <ele>43.8</ele>
        <time>2022-03-30T12:20:15Z</time>
      </trkpt>
      <trkpt lat="49.91339" lon="2.45612">
        <ele>43.8</ele>
        <time>2022-03-30T12:20:16Z</time>
      </trkpt>
      <trkpt lat="49.91339" lon="2.45614">
        <ele>43.7</ele>
        <time>2022-03-30T12:20:17Z</time>
      </trkpt>
      <trkpt lat="49.9134" lon="2.45616">
        <ele>43.7</ele>
        <time>2022-03-30T12:20:18Z</time>
      </trkpt>
      <trkpt lat="49.91341" lon="2.45619">
        <ele>43.6</ele>
        <time>2022-03-30T12:20:19Z</time>
      </trkpt>
      <trkpt lat="49.91341" lon="2.4562">
        <ele>43.6</ele>
        <time>2022-03-30T12:20:20Z</time>
      </trkpt>
      <trkpt lat="49.91341" lon="2.45621">
        <ele>43.6</ele>
        <time>2022-03-30T12:20:21Z</time>
      </trkpt>
      <trkpt lat="49.91342" lon="2.45624">
        <ele>43.5</ele>
        <time>2022-03-30T12:20:22Z</time>
      </trkpt>
      <trkpt lat="49.91342" lon="2.45625">
        <ele>43.5</ele>
        <time>2022-03-30T12:20:23Z</time>
      </trkpt>
      <trkpt lat="49.91342" lon="2.45626">
        <ele>43.5</ele>
        <time>2022-03-30T12:20:24Z</time>
      </trkpt>
      <trkpt lat="49.91342" lon="2.45628">
        <ele>43.4</ele>
        <time>2022-03-30T12:20:25Z</time>
      </trkpt>
      <trkpt lat="49.91343" lon="2.4563">
        <ele>43.4</ele>
        <time>2022-03-30T12:20:26Z</time>
      </trkpt>
      <trkpt lat="49.91343" lon="2.45631">
        <ele>43.4</ele>
        <time>2022-03-30T12:20:27Z</time>
      </trkpt>
      <trkpt lat="49.91343" lon="2.45633">
        <ele>43.3</ele>
        <time>2022-03-30T12:20:28Z</time>
      </trkpt>
      <trkpt lat="49.91344" lon="2.45635">
        <ele>43.3</ele>
        <time>2022-03-30T12:20:29Z</time>
      </trkpt>
      <trkpt lat="49.91344" lon="2.45637">
        <ele>43.3</ele>
        <time>2022-03-30T12:20:30Z</time>
      </trkpt>
      <trkpt lat="49.91344" lon="2.4564">
        <ele>43.2</ele>
        <time>2022-03-30T12:20:31Z</time>
      </trkpt>
      <trkpt lat="49.91345" lon="2.45641">
        <ele>43.2</ele>
        <time>2022-03-30T12:20:32Z</time>
      </trkpt>
      <trkpt lat="49.91345" lon="2.45643">
        <ele>43.2</ele>
        <time>2022-03-30T12:20:33Z</time>
      </trkpt>
      <trkpt lat="49.91345" lon="2.45644">
        <ele>43.2</ele>
        <time>2022-03-30T12:20:34Z</time>
      </trkpt>
      <trkpt lat="49.91345" lon="2.45646">
        <ele>43.2</ele>
        <time>2022-03-30T12:20:35Z</time>
      </trkpt>
      <trkpt lat="49.91345" lon="2.45647">
        <ele>43.2</ele>
        <time>2022-03-30T12:20:36Z</time>
      </trkpt>
      <trkpt lat="49.91346" lon="2.45649">
        <ele>43.2</ele>
        <time>2022-03-30T12:20:37Z</time>
      </trkpt>
      <trkpt lat="49.91346" lon="2.45651">
        <ele>43.1</ele>
        <time>2022-03-30T12:20:38Z</time>
      </trkpt>
      <trkpt lat="49.91346" lon="2.45653">
        <ele>43.1</ele>
        <time>2022-03-30T12:20:39Z</time>
      </trkpt>
      <trkpt lat="49.91346" lon="2.45654">
        <ele>43.1</ele>
        <time>2022-03-30T12:20:40Z</time>
      </trkpt>
      <trkpt lat="49.91346" lon="2.45657">
        <ele>43.1</ele>
        <time>2022-03-30T12:20:41Z</time>
      </trkpt>
      <trkpt lat="49.91347" lon="2.45658">
        <ele>43.1</ele>
        <time>2022-03-30T12:20:42Z</time>
      </trkpt>
      <trkpt lat="49.91347" lon="2.4566">
        <ele>43.1</ele>
        <time>2022-03-30T12:20:43Z</time>
      </trkpt>
      <trkpt lat="49.91347" lon="2.45661">
        <ele>43.1</ele>
        <time>2022-03-30T12:20:44Z</time>
      </trkpt>
      <trkpt lat="49.91347" lon="2.45663">
        <ele>43.1</ele>
        <time>2022-03-30T12:20:45Z</time>
      </trkpt>
      <trkpt lat="49.91348" lon="2.45664">
        <ele>43.2</ele>
        <time>2022-03-30T12:20:46Z</time>
      </trkpt>
      <trkpt lat="49.91348" lon="2.45666">
        <ele>43.2</ele>
        <time>2022-03-30T12:20:47Z</time>
      </trkpt>
      <trkpt lat="49.91348" lon="2.45668">
        <ele>43.2</ele>
        <time>2022-03-30T12:20:48Z</time>
      </trkpt>
      <trkpt lat="49.91349" lon="2.45671">
        <ele>43.2</ele>
        <time>2022-03-30T12:20:49Z</time>
      </trkpt>
      <trkpt lat="49.91349" lon="2.45672">
        <ele>43.2</ele>
        <time>2022-03-30T12:20:50Z</time>
      </trkpt>
      <trkpt lat="49.91349" lon="2.45673">
        <ele>43.2</ele>
        <time>2022-03-30T12:20:51Z</time>
      </trkpt>
      <trkpt lat="49.91349" lon="2.45675">
        <ele>43.2</ele>
        <time>2022-03-30T12:20:52Z</time>
      </trkpt>
      <trkpt lat="49.91349" lon="2.45676">
        <ele>43.2</ele>
        <time>2022-03-30T12:20:53Z</time>
      </trkpt>
      <trkpt lat="49.9135" lon="2.45678">
        <ele>43.2</ele>
        <time>2022-03-30T12:20:54Z</time>
      </trkpt>
      <trkpt lat="49.9135" lon="2.4568">
        <ele>43.2</ele>
        <time>2022-03-30T12:20:55Z</time>
      </trkpt>
      <trkpt lat="49.9135" lon="2.45682">
        <ele>43.3</ele>
        <time>2022-03-30T12:20:56Z</time>
      </trkpt>
      <trkpt lat="49.9135" lon="2.45684">
        <ele>43.3</ele>
        <time>2022-03-30T12:20:57Z</time>
      </trkpt>
      <trkpt lat="49.9135" lon="2.45685">
        <ele>43.3</ele>
        <time>2022-03-30T12:20:58Z</time>
      </trkpt>
      <trkpt lat="49.9135" lon="2.45687">
        <ele>43.3</ele>
        <time>2022-03-30T12:20:59Z</time>
      </trkpt>
      <trkpt lat="49.9135" lon="2.45689">
        <ele>43.3</ele>
        <time>2022-03-30T12:21:00Z</time>
      </trkpt>
      <trkpt lat="49.9135" lon="2.4569">
        <ele>43.3</ele>
        <time>2022-03-30T12:21:01Z</time>
      </trkpt>
      <trkpt lat="49.9135" lon="2.45692">
        <ele>43.3</ele>
        <time>2022-03-30T12:21:02Z</time>
      </trkpt>
      <trkpt lat="49.9135" lon="2.45694">
        <ele>43.3</ele>
        <time>2022-03-30T12:21:03Z</time>
      </trkpt>
      <trkpt lat="49.91351" lon="2.45695">
        <ele>43.3</ele>
        <time>2022-03-30T12:21:04Z</time>
      </trkpt>
      <trkpt lat="49.91351" lon="2.45697">
        <ele>43.3</ele>
        <time>2022-03-30T12:21:05Z</time>
      </trkpt>
      <trkpt lat="49.91351" lon="2.45699">
        <ele>43.2</ele>
        <time>2022-03-30T12:21:06Z</time>
      </trkpt>
      <trkpt lat="49.91351" lon="2.45701">
        <ele>43.2</ele>
        <time>2022-03-30T12:21:07Z</time>
      </trkpt>
      <trkpt lat="49.91351" lon="2.45702">
        <ele>44</ele>
        <time>2022-03-30T12:21:08Z</time>
      </trkpt>
      <trkpt lat="49.91352" lon="2.45704">
        <ele>44</ele>
        <time>2022-03-30T12:21:09Z</time>
      </trkpt>
      <trkpt lat="49.91352" lon="2.45705">
        <ele>44</ele>
        <time>2022-03-30T12:21:10Z</time>
      </trkpt>
      <trkpt lat="49.91352" lon="2.45706">
        <ele>44</ele>
        <time>2022-03-30T12:21:11Z</time>
      </trkpt>
      <trkpt lat="49.91352" lon="2.45707">
        <ele>44</ele>
        <time>2022-03-30T12:21:12Z</time>
      </trkpt>
      <trkpt lat="49.91352" lon="2.45708">
        <ele>44</ele>
        <time>2022-03-30T12:21:13Z</time>
      </trkpt>
      <trkpt lat="49.91352" lon="2.45709">
        <ele>44</ele>
        <time>2022-03-30T12:21:14Z</time>
      </trkpt>
      <trkpt lat="49.91353" lon="2.4571">
        <ele>44</ele>
        <time>2022-03-30T12:21:15Z</time>
      </trkpt>
      <trkpt lat="49.91353" lon="2.45711">
        <ele>44</ele>
        <time>2022-03-30T12:21:16Z</time>
      </trkpt>
      <trkpt lat="49.91353" lon="2.45712">
        <ele>44</ele>
        <time>2022-03-30T12:21:17Z</time>
      </trkpt>
      <trkpt lat="49.91353" lon="2.45712">
        <ele>44</ele>
        <time>2022-03-30T12:21:18Z</time>
      </trkpt>
      <trkpt lat="49.91354" lon="2.45713">
        <ele>44</ele>
        <time>2022-03-30T12:21:19Z</time>
      </trkpt>
      <trkpt lat="49.91354" lon="2.45713">
        <ele>44</ele>
        <time>2022-03-30T12:21:20Z</time>
      </trkpt>
      <trkpt lat="49.91354" lon="2.45714">
        <ele>44</ele>
        <time>2022-03-30T12:21:21Z</time>
      </trkpt>
      <trkpt lat="49.91354" lon="2.45714">
        <ele>44</ele>
        <time>2022-03-30T12:21:22Z</time>
      </trkpt>
      <trkpt lat="49.91354" lon="2.45714">
        <ele>44</ele>
        <time>2022-03-30T12:21:23Z</time>
      </trkpt>
      <trkpt lat="49.91354" lon="2.45714">
        <ele>44</ele>
        <time>2022-03-30T12:21:24Z</time>
      </trkpt>
      <trkpt lat="49.91354" lon="2.45714">
        <ele>44</ele>
        <time>2022-03-30T12:21:25Z</time>
      </trkpt>
      <trkpt lat="49.91354" lon="2.45713">
        <ele>44</ele>
        <time>2022-03-30T12:21:26Z</time>
      </trkpt>
      <trkpt lat="49.91354" lon="2.45713">
        <ele>44</ele>
        <time>2022-03-30T12:21:27Z</time>
      </trkpt>
      <trkpt lat="49.91354" lon="2.45713">
        <ele>44</ele>
        <time>2022-03-30T12:21:28Z</time>
      </trkpt>
      <trkpt lat="49.91354" lon="2.45713">
        <ele>44</ele>
        <time>2022-03-30T12:21:29Z</time>
      </trkpt>
      <trkpt lat="49.91354" lon="2.45713">
        <ele>44</ele>
        <time>2022-03-30T12:21:30Z</time>
      </trkpt>
      <trkpt lat="49.91354" lon="2.45713">
        <ele>44</ele>
        <time>2022-03-30T12:21:31Z</time>
      </trkpt>
      <trkpt lat="49.91354" lon="2.45713">
        <ele>44</ele>
        <time>2022-03-30T12:21:32Z</time>
      </trkpt>
      <trkpt lat="49.91354" lon="2.45713">
        <ele>44</ele>
        <time>2022-03-30T12:21:33Z</time>
      </trkpt>
      <trkpt lat="49.91354" lon="2.45713">
        <ele>44</ele>
        <time>2022-03-30T12:21:34Z</time>
      </trkpt>
      <trkpt lat="49.91354" lon="2.45713">
        <ele>44</ele>
        <time>2022-03-30T12:21:35Z</time>
      </trkpt>
      <trkpt lat="49.91354" lon="2.45713">
        <ele>44</ele>
        <time>2022-03-30T12:21:36Z</time>
      </trkpt>
      <trkpt lat="49.91354" lon="2.45713">
        <ele>44</ele>
        <time>2022-03-30T12:21:37Z</time>
      </trkpt>
      <trkpt lat="49.91354" lon="2.45713">
        <ele>44</ele>
        <time>2022-03-30T12:21:38Z</time>
      </trkpt>
      <trkpt lat="49.91354" lon="2.45713">
        <ele>44</ele>
        <time>2022-03-30T12:21:39Z</time>
      </trkpt>
      <trkpt lat="49.91354" lon="2.45713">
        <ele>44</ele>
        <time>2022-03-30T12:21:40Z</time>
      </trkpt>
      <trkpt lat="49.91354" lon="2.45713">
        <ele>44</ele>
        <time>2022-03-30T12:21:41Z</time>
      </trkpt>
      <trkpt lat="49.91354" lon="2.45713">
        <ele>44</ele>
        <time>2022-03-30T12:21:42Z</time>
      </trkpt>
      <trkpt lat="49.91354" lon="2.45713">
        <ele>44</ele>
        <time>2022-03-30T12:21:43Z</time>
      </trkpt>
      <trkpt lat="49.91354" lon="2.45713">
        <ele>44</ele>
        <time>2022-03-30T12:21:44Z</time>
      </trkpt>
      <trkpt lat="49.91354" lon="2.45713">
        <ele>44</ele>
        <time>2022-03-30T12:21:45Z</time>
      </trkpt>
      <trkpt lat="49.91354" lon="2.45713">
        <ele>44</ele>
        <time>2022-03-30T12:21:46Z</time>
      </trkpt>
      <trkpt lat="49.91354" lon="2.45713">
        <ele>44</ele>
        <time>2022-03-30T12:21:47Z</time>
      </trkpt>
      <trkpt lat="49.91354" lon="2.45713">
        <ele>44</ele>
        <time>2022-03-30T12:21:48Z</time>
      </trkpt>
      <trkpt lat="49.91354" lon="2.45712">
        <ele>44</ele>
        <time>2022-03-30T12:21:49Z</time>
      </trkpt>
      <trkpt lat="49.91354" lon="2.45712">
        <ele>43.9</ele>
        <time>2022-03-30T12:21:50Z</time>
      </trkpt>
      <trkpt lat="49.91354" lon="2.45712">
        <ele>43.9</ele>
        <time>2022-03-30T12:21:51Z</time>
      </trkpt>
      <trkpt lat="49.91354" lon="2.45712">
        <ele>43.9</ele>
        <time>2022-03-30T12:21:52Z</time>
      </trkpt>
      <trkpt lat="49.91354" lon="2.45712">
        <ele>43.9</ele>
        <time>2022-03-30T12:21:53Z</time>
      </trkpt>
      <trkpt lat="49.91354" lon="2.45712">
        <ele>43.9</ele>
        <time>2022-03-30T12:21:54Z</time>
      </trkpt>
      <trkpt lat="49.91354" lon="2.45712">
        <ele>43.9</ele>
        <time>2022-03-30T12:21:55Z</time>
      </trkpt>
      <trkpt lat="49.91354" lon="2.45712">
        <ele>43.9</ele>
        <time>2022-03-30T12:21:56Z</time>
      </trkpt>
      <trkpt lat="49.91354" lon="2.45712">
        <ele>43.9</ele>
        <time>2022-03-30T12:21:57Z</time>
      </trkpt>
      <trkpt lat="49.91354" lon="2.45712">
        <ele>43.9</ele>
        <time>2022-03-30T12:21:58Z</time>
      </trkpt>
      <trkpt lat="49.91354" lon="2.45712">
        <ele>43.9</ele>
        <time>2022-03-30T12:21:59Z</time>
      </trkpt>
      <trkpt lat="49.91354" lon="2.45712">
        <ele>43.9</ele>
        <time>2022-03-30T12:22:00Z</time>
      </trkpt>
      <trkpt lat="49.91354" lon="2.45712">
        <ele>43.9</ele>
        <time>2022-03-30T12:22:01Z</time>
      </trkpt>
      <trkpt lat="49.91354" lon="2.45712">
        <ele>43.9</ele>
        <time>2022-03-30T12:22:02Z</time>
      </trkpt>
      <trkpt lat="49.91354" lon="2.45712">
        <ele>43.9</ele>
        <time>2022-03-30T12:22:03Z</time>
      </trkpt>
      <trkpt lat="49.91354" lon="2.45712">
        <ele>43.9</ele>
        <time>2022-03-30T12:22:04Z</time>
      </trkpt>
      <trkpt lat="49.91354" lon="2.45712">
        <ele>43.9</ele>
        <time>2022-03-30T12:22:05Z</time>
      </trkpt>
      <trkpt lat="49.91354" lon="2.45712">
        <ele>43.9</ele>
        <time>2022-03-30T12:22:06Z</time>
      </trkpt>
      <trkpt lat="49.91354" lon="2.45712">
        <ele>43.9</ele>
        <time>2022-03-30T12:22:07Z</time>
      </trkpt>
      <trkpt lat="49.91354" lon="2.45712">
        <ele>43.9</ele>
        <time>2022-03-30T12:22:08Z</time>
      </trkpt>
      <trkpt lat="49.91354" lon="2.45712">
        <ele>43.9</ele>
        <time>2022-03-30T12:22:09Z</time>
      </trkpt>
      <trkpt lat="49.91354" lon="2.45712">
        <ele>43.9</ele>
        <time>2022-03-30T12:22:10Z</time>
      </trkpt>
      <trkpt lat="49.91354" lon="2.45712">
        <ele>43.9</ele>
        <time>2022-03-30T12:22:11Z</time>
      </trkpt>
      <trkpt lat="49.91354" lon="2.45712">
        <ele>43.9</ele>
        <time>2022-03-30T12:22:12Z</time>
      </trkpt>
      <trkpt lat="49.91354" lon="2.45712">
        <ele>43.9</ele>
        <time>2022-03-30T12:22:13Z</time>
      </trkpt>
      <trkpt lat="49.91354" lon="2.45712">
        <ele>43.9</ele>
        <time>2022-03-30T12:22:14Z</time>
      </trkpt>
      <trkpt lat="49.91354" lon="2.45712">
        <ele>43.9</ele>
        <time>2022-03-30T12:22:15Z</time>
      </trkpt>
      <trkpt lat="49.91354" lon="2.45712">
        <ele>43.9</ele>
        <time>2022-03-30T12:22:16Z</time>
      </trkpt>
      <trkpt lat="49.91354" lon="2.45712">
        <ele>43.9</ele>
        <time>2022-03-30T12:22:17Z</time>
      </trkpt>
      <trkpt lat="49.91354" lon="2.45712">
        <ele>43.9</ele>
        <time>2022-03-30T12:22:18Z</time>
      </trkpt>
      <trkpt lat="49.91354" lon="2.45712">
        <ele>43.9</ele>
        <time>2022-03-30T12:22:19Z</time>
      </trkpt>
      <trkpt lat="49.91354" lon="2.45712">
        <ele>43.9</ele>
        <time>2022-03-30T12:22:20Z</time>
      </trkpt>
      <trkpt lat="49.91354" lon="2.45712">
        <ele>43.9</ele>
        <time>2022-03-30T12:22:21Z</time>
      </trkpt>
      <trkpt lat="49.91354" lon="2.45712">
        <ele>43.9</ele>
        <time>2022-03-30T12:22:22Z</time>
      </trkpt>
      <trkpt lat="49.91354" lon="2.45712">
        <ele>43.9</ele>
        <time>2022-03-30T12:22:23Z</time>
      </trkpt>
      <trkpt lat="49.91354" lon="2.45712">
        <ele>43.9</ele>
        <time>2022-03-30T12:22:24Z</time>
      </trkpt>
      <trkpt lat="49.91354" lon="2.45712">
        <ele>43.8</ele>
        <time>2022-03-30T12:22:25Z</time>
      </trkpt>
      <trkpt lat="49.91354" lon="2.45712">
        <ele>43.8</ele>
        <time>2022-03-30T12:22:26Z</time>
      </trkpt>
      <trkpt lat="49.91354" lon="2.45712">
        <ele>43.8</ele>
        <time>2022-03-30T12:22:27Z</time>
      </trkpt>
      <trkpt lat="49.91354" lon="2.45712">
        <ele>43.8</ele>
        <time>2022-03-30T12:22:28Z</time>
      </trkpt>
      <trkpt lat="49.91354" lon="2.45712">
        <ele>43.8</ele>
        <time>2022-03-30T12:22:29Z</time>
      </trkpt>
      <trkpt lat="49.91354" lon="2.45712">
        <ele>43.8</ele>
        <time>2022-03-30T12:22:30Z</time>
      </trkpt>
      <trkpt lat="49.91354" lon="2.45712">
        <ele>43.8</ele>
        <time>2022-03-30T12:22:31Z</time>
      </trkpt>
      <trkpt lat="49.91354" lon="2.45712">
        <ele>43.8</ele>
        <time>2022-03-30T12:22:32Z</time>
      </trkpt>
      <trkpt lat="49.91354" lon="2.45712">
        <ele>43.8</ele>
        <time>2022-03-30T12:22:33Z</time>
      </trkpt>
      <trkpt lat="49.91354" lon="2.45712">
        <ele>43.8</ele>
        <time>2022-03-30T12:22:34Z</time>
      </trkpt>
      <trkpt lat="49.91354" lon="2.45712">
        <ele>43.8</ele>
        <time>2022-03-30T12:22:35Z</time>
      </trkpt>
      <trkpt lat="49.91354" lon="2.45712">
        <ele>43.8</ele>
        <time>2022-03-30T12:22:36Z</time>
      </trkpt>
      <trkpt lat="49.91354" lon="2.45712">
        <ele>43.8</ele>
        <time>2022-03-30T12:22:37Z</time>
      </trkpt>
      <trkpt lat="49.91354" lon="2.45712">
        <ele>43.8</ele>
        <time>2022-03-30T12:22:38Z</time>
      </trkpt>
      <trkpt lat="49.91354" lon="2.45712">
        <ele>43.8</ele>
        <time>2022-03-30T12:22:39Z</time>
      </trkpt>
      <trkpt lat="49.91354" lon="2.45712">
        <ele>43.8</ele>
        <time>2022-03-30T12:22:40Z</time>
      </trkpt>
      <trkpt lat="49.91354" lon="2.45712">
        <ele>43.8</ele>
        <time>2022-03-30T12:22:41Z</time>
      </trkpt>
      <trkpt lat="49.91354" lon="2.45712">
        <ele>43.8</ele>
        <time>2022-03-30T12:22:42Z</time>
      </trkpt>
      <trkpt lat="49.91354" lon="2.45712">
        <ele>43.8</ele>
        <time>2022-03-30T12:22:43Z</time>
      </trkpt>
      <trkpt lat="49.91354" lon="2.45712">
        <ele>43.8</ele>
        <time>2022-03-30T12:22:44Z</time>
      </trkpt>
      <trkpt lat="49.91354" lon="2.45712">
        <ele>43.8</ele>
        <time>2022-03-30T12:22:45Z</time>
      </trkpt>
      <trkpt lat="49.91354" lon="2.45712">
        <ele>43.8</ele>
        <time>2022-03-30T12:22:46Z</time>
      </trkpt>
      <trkpt lat="49.91354" lon="2.45712">
        <ele>43.8</ele>
        <time>2022-03-30T12:22:47Z</time>
      </trkpt>
      <trkpt lat="49.91354" lon="2.45712">
        <ele>43.8</ele>
        <time>2022-03-30T12:22:48Z</time>
      </trkpt>
      <trkpt lat="49.91354" lon="2.45712">
        <ele>43.8</ele>
        <time>2022-03-30T12:22:49Z</time>
      </trkpt>
      <trkpt lat="49.91354" lon="2.45712">
        <ele>43.8</ele>
        <time>2022-03-30T12:22:50Z</time>
      </trkpt>
      <trkpt lat="49.91354" lon="2.45712">
        <ele>43.8</ele>
        <time>2022-03-30T12:22:51Z</time>
      </trkpt>
      <trkpt lat="49.91354" lon="2.45712">
        <ele>43.8</ele>
        <time>2022-03-30T12:22:52Z</time>
      </trkpt>
      <trkpt lat="49.91354" lon="2.45712">
        <ele>43.8</ele>
        <time>2022-03-30T12:22:53Z</time>
      </trkpt>
      <trkpt lat="49.91354" lon="2.45712">
        <ele>43.8</ele>
        <time>2022-03-30T12:22:54Z</time>
      </trkpt>
      <trkpt lat="49.91354" lon="2.45712">
        <ele>43.8</ele>
        <time>2022-03-30T12:22:55Z</time>
      </trkpt>
      <trkpt lat="49.91354" lon="2.45712">
        <ele>43.8</ele>
        <time>2022-03-30T12:22:56Z</time>
      </trkpt>
      <trkpt lat="49.91354" lon="2.45712">
        <ele>43.8</ele>
        <time>2022-03-30T12:22:57Z</time>
      </trkpt>
      <trkpt lat="49.91354" lon="2.45712">
        <ele>43.8</ele>
        <time>2022-03-30T12:22:58Z</time>
      </trkpt>
      <trkpt lat="49.91354" lon="2.45712">
        <ele>43.8</ele>
        <time>2022-03-30T12:22:59Z</time>
      </trkpt>
      <trkpt lat="49.91354" lon="2.45712">
        <ele>43.7</ele>
        <time>2022-03-30T12:23:00Z</time>
      </trkpt>
      <trkpt lat="49.91354" lon="2.45712">
        <ele>43.7</ele>
        <time>2022-03-30T12:23:01Z</time>
      </trkpt>
      <trkpt lat="49.91354" lon="2.45712">
        <ele>43.7</ele>
        <time>2022-03-30T12:23:02Z</time>
      </trkpt>
      <trkpt lat="49.91354" lon="2.45711">
        <ele>44.4</ele>
        <time>2022-03-30T12:23:03Z</time>
      </trkpt>
      <trkpt lat="49.91355" lon="2.45712">
        <ele>44.4</ele>
        <time>2022-03-30T12:23:04Z</time>
      </trkpt>
      <trkpt lat="49.91355" lon="2.45712">
        <ele>44.5</ele>
        <time>2022-03-30T12:23:05Z</time>
      </trkpt>
      <trkpt lat="49.91355" lon="2.45712">
        <ele>44.5</ele>
        <time>2022-03-30T12:23:06Z</time>
      </trkpt>
      <trkpt lat="49.91355" lon="2.45713">
        <ele>44.5</ele>
        <time>2022-03-30T12:23:07Z</time>
      </trkpt>
      <trkpt lat="49.91355" lon="2.45713">
        <ele>44.5</ele>
        <time>2022-03-30T12:23:08Z</time>
      </trkpt>
      <trkpt lat="49.91355" lon="2.45713">
        <ele>44.5</ele>
        <time>2022-03-30T12:23:09Z</time>
      </trkpt>
      <trkpt lat="49.91355" lon="2.45713">
        <ele>44.5</ele>
        <time>2022-03-30T12:23:10Z</time>
      </trkpt>
      <trkpt lat="49.91355" lon="2.45713">
        <ele>44.5</ele>
        <time>2022-03-30T12:23:11Z</time>
      </trkpt>
      <trkpt lat="49.91355" lon="2.45712">
        <ele>44.4</ele>
        <time>2022-03-30T12:23:12Z</time>
      </trkpt>
      <trkpt lat="49.91355" lon="2.45712">
        <ele>44.4</ele>
        <time>2022-03-30T12:23:13Z</time>
      </trkpt>
      <trkpt lat="49.91355" lon="2.45712">
        <ele>44.4</ele>
        <time>2022-03-30T12:23:14Z</time>
      </trkpt>
      <trkpt lat="49.91355" lon="2.45712">
        <ele>44.4</ele>
        <time>2022-03-30T12:23:15Z</time>
      </trkpt>
      <trkpt lat="49.91355" lon="2.45712">
        <ele>44.4</ele>
        <time>2022-03-30T12:23:16Z</time>
      </trkpt>
      <trkpt lat="49.91355" lon="2.45712">
        <ele>44.4</ele>
        <time>2022-03-30T12:23:17Z</time>
      </trkpt>
      <trkpt lat="49.91355" lon="2.45712">
        <ele>44.4</ele>
        <time>2022-03-30T12:23:18Z</time>
      </trkpt>
      <trkpt lat="49.91355" lon="2.45713">
        <ele>44.4</ele>
        <time>2022-03-30T12:23:19Z</time>
      </trkpt>
      <trkpt lat="49.91355" lon="2.45714">
        <ele>44.4</ele>
        <time>2022-03-30T12:23:20Z</time>
      </trkpt>
      <trkpt lat="49.91356" lon="2.45715">
        <ele>44.4</ele>
        <time>2022-03-30T12:23:21Z</time>
      </trkpt>
      <trkpt lat="49.91356" lon="2.45715">
        <ele>44.4</ele>
        <time>2022-03-30T12:23:22Z</time>
      </trkpt>
      <trkpt lat="49.91357" lon="2.45716">
        <ele>45.2</ele>
        <time>2022-03-30T12:23:23Z</time>
      </trkpt>
      <trkpt lat="49.91357" lon="2.45717">
        <ele>45.2</ele>
        <time>2022-03-30T12:23:24Z</time>
      </trkpt>
      <trkpt lat="49.91358" lon="2.45718">
        <ele>45.2</ele>
        <time>2022-03-30T12:23:25Z</time>
      </trkpt>
      <trkpt lat="49.91359" lon="2.45718">
        <ele>45.2</ele>
        <time>2022-03-30T12:23:26Z</time>
      </trkpt>
      <trkpt lat="49.9136" lon="2.45719">
        <ele>45.9</ele>
        <time>2022-03-30T12:23:27Z</time>
      </trkpt>
      <trkpt lat="49.9136" lon="2.45719">
        <ele>45.9</ele>
        <time>2022-03-30T12:23:28Z</time>
      </trkpt>
      <trkpt lat="49.91361" lon="2.45718">
        <ele>45.9</ele>
        <time>2022-03-30T12:23:29Z</time>
      </trkpt>
      <trkpt lat="49.91362" lon="2.45718">
        <ele>45.9</ele>
        <time>2022-03-30T12:23:30Z</time>
      </trkpt>
      <trkpt lat="49.91362" lon="2.45718">
        <ele>45.9</ele>
        <time>2022-03-30T12:23:31Z</time>
      </trkpt>
      <trkpt lat="49.91363" lon="2.45718">
        <ele>46.6</ele>
        <time>2022-03-30T12:23:32Z</time>
      </trkpt>
      <trkpt lat="49.91363" lon="2.45717">
        <ele>46.6</ele>
        <time>2022-03-30T12:23:33Z</time>
      </trkpt>
      <trkpt lat="49.91363" lon="2.45717">
        <ele>46.6</ele>
        <time>2022-03-30T12:23:34Z</time>
      </trkpt>
      <trkpt lat="49.91364" lon="2.45717">
        <ele>46.6</ele>
        <time>2022-03-30T12:23:35Z</time>
      </trkpt>
      <trkpt lat="49.91364" lon="2.45717">
        <ele>46.6</ele>
        <time>2022-03-30T12:23:36Z</time>
      </trkpt>
      <trkpt lat="49.91364" lon="2.45717">
        <ele>46.6</ele>
        <time>2022-03-30T12:23:37Z</time>
      </trkpt>
      <trkpt lat="49.91364" lon="2.45716">
        <ele>46.6</ele>
        <time>2022-03-30T12:23:38Z</time>
      </trkpt>
      <trkpt lat="49.91365" lon="2.45716">
        <ele>46.6</ele>
        <time>2022-03-30T12:23:39Z</time>
      </trkpt>
      <trkpt lat="49.91365" lon="2.45716">
        <ele>46.6</ele>
        <time>2022-03-30T12:23:40Z</time>
      </trkpt>
      <trkpt lat="49.91365" lon="2.45717">
        <ele>46.6</ele>
        <time>2022-03-30T12:23:41Z</time>
      </trkpt>
      <trkpt lat="49.91365" lon="2.45717">
        <ele>46.5</ele>
        <time>2022-03-30T12:23:42Z</time>
      </trkpt>
      <trkpt lat="49.91365" lon="2.45717">
        <ele>47.3</ele>
        <time>2022-03-30T12:23:43Z</time>
      </trkpt>
      <trkpt lat="49.91365" lon="2.45717">
        <ele>47.2</ele>
        <time>2022-03-30T12:23:44Z</time>
      </trkpt>
      <trkpt lat="49.91366" lon="2.45718">
        <ele>47.2</ele>
        <time>2022-03-30T12:23:45Z</time>
      </trkpt>
      <trkpt lat="49.91366" lon="2.45719">
        <ele>47.2</ele>
        <time>2022-03-30T12:23:46Z</time>
      </trkpt>
      <trkpt lat="49.91366" lon="2.4572">
        <ele>47.2</ele>
        <time>2022-03-30T12:23:47Z</time>
      </trkpt>
      <trkpt lat="49.91366" lon="2.45721">
        <ele>47.2</ele>
        <time>2022-03-30T12:23:48Z</time>
      </trkpt>
      <trkpt lat="49.91367" lon="2.45723">
        <ele>47.2</ele>
        <time>2022-03-30T12:23:49Z</time>
      </trkpt>
      <trkpt lat="49.91367" lon="2.45724">
        <ele>47.2</ele>
        <time>2022-03-30T12:23:50Z</time>
      </trkpt>
      <trkpt lat="49.91367" lon="2.45725">
        <ele>47.2</ele>
        <time>2022-03-30T12:23:51Z</time>
      </trkpt>
      <trkpt lat="49.91368" lon="2.45727">
        <ele>47.2</ele>
        <time>2022-03-30T12:23:52Z</time>
      </trkpt>
      <trkpt lat="49.91368" lon="2.45728">
        <ele>47.2</ele>
        <time>2022-03-30T12:23:53Z</time>
      </trkpt>
      <trkpt lat="49.91368" lon="2.45729">
        <ele>47.9</ele>
        <time>2022-03-30T12:23:54Z</time>
      </trkpt>
      <trkpt lat="49.91368" lon="2.4573">
        <ele>47.8</ele>
        <time>2022-03-30T12:23:55Z</time>
      </trkpt>
      <trkpt lat="49.91368" lon="2.45731">
        <ele>47.8</ele>
        <time>2022-03-30T12:23:56Z</time>
      </trkpt>
      <trkpt lat="49.91369" lon="2.45732">
        <ele>47.8</ele>
        <time>2022-03-30T12:23:57Z</time>
      </trkpt>
      <trkpt lat="49.91369" lon="2.45732">
        <ele>47.8</ele>
        <time>2022-03-30T12:23:58Z</time>
      </trkpt>
      <trkpt lat="49.91369" lon="2.45733">
        <ele>47.8</ele>
        <time>2022-03-30T12:23:59Z</time>
      </trkpt>
      <trkpt lat="49.91369" lon="2.45734">
        <ele>47.8</ele>
        <time>2022-03-30T12:24:00Z</time>
      </trkpt>
      <trkpt lat="49.9137" lon="2.45735">
        <ele>47.8</ele>
        <time>2022-03-30T12:24:01Z</time>
      </trkpt>
      <trkpt lat="49.9137" lon="2.45736">
        <ele>47.8</ele>
        <time>2022-03-30T12:24:02Z</time>
      </trkpt>
      <trkpt lat="49.9137" lon="2.45737">
        <ele>47.8</ele>
        <time>2022-03-30T12:24:03Z</time>
      </trkpt>
      <trkpt lat="49.9137" lon="2.45738">
        <ele>47.8</ele>
        <time>2022-03-30T12:24:04Z</time>
      </trkpt>
      <trkpt lat="49.9137" lon="2.45739">
        <ele>47.8</ele>
        <time>2022-03-30T12:24:05Z</time>
      </trkpt>
      <trkpt lat="49.9137" lon="2.4574">
        <ele>47.8</ele>
        <time>2022-03-30T12:24:06Z</time>
      </trkpt>
      <trkpt lat="49.9137" lon="2.45741">
        <ele>47.7</ele>
        <time>2022-03-30T12:24:07Z</time>
      </trkpt>
      <trkpt lat="49.9137" lon="2.45742">
        <ele>47.7</ele>
        <time>2022-03-30T12:24:08Z</time>
      </trkpt>
      <trkpt lat="49.9137" lon="2.45743">
        <ele>47.7</ele>
        <time>2022-03-30T12:24:09Z</time>
      </trkpt>
      <trkpt lat="49.9137" lon="2.45744">
        <ele>47.7</ele>
        <time>2022-03-30T12:24:10Z</time>
      </trkpt>
      <trkpt lat="49.9137" lon="2.45745">
        <ele>47.7</ele>
        <time>2022-03-30T12:24:11Z</time>
      </trkpt>
      <trkpt lat="49.91371" lon="2.45747">
        <ele>47.7</ele>
        <time>2022-03-30T12:24:12Z</time>
      </trkpt>
      <trkpt lat="49.91371" lon="2.45748">
        <ele>47.7</ele>
        <time>2022-03-30T12:24:13Z</time>
      </trkpt>
      <trkpt lat="49.91371" lon="2.45749">
        <ele>48.3</ele>
        <time>2022-03-30T12:24:14Z</time>
      </trkpt>
      <trkpt lat="49.91371" lon="2.45749">
        <ele>48.3</ele>
        <time>2022-03-30T12:24:15Z</time>
      </trkpt>
      <trkpt lat="49.91371" lon="2.45751">
        <ele>48.3</ele>
        <time>2022-03-30T12:24:16Z</time>
      </trkpt>
      <trkpt lat="49.91372" lon="2.45752">
        <ele>48.3</ele>
        <time>2022-03-30T12:24:17Z</time>
      </trkpt>
      <trkpt lat="49.91372" lon="2.45753">
        <ele>48.3</ele>
        <time>2022-03-30T12:24:18Z</time>
      </trkpt>
      <trkpt lat="49.91372" lon="2.45755">
        <ele>48.2</ele>
        <time>2022-03-30T12:24:19Z</time>
      </trkpt>
      <trkpt lat="49.91373" lon="2.45758">
        <ele>48.2</ele>
        <time>2022-03-30T12:24:20Z</time>
      </trkpt>
      <trkpt lat="49.91373" lon="2.4576">
        <ele>48.2</ele>
        <time>2022-03-30T12:24:21Z</time>
      </trkpt>
      <trkpt lat="49.91373" lon="2.45762">
        <ele>48.2</ele>
        <time>2022-03-30T12:24:22Z</time>
      </trkpt>
      <trkpt lat="49.91373" lon="2.45764">
        <ele>48.1</ele>
        <time>2022-03-30T12:24:23Z</time>
      </trkpt>
      <trkpt lat="49.91374" lon="2.45765">
        <ele>48.7</ele>
        <time>2022-03-30T12:24:24Z</time>
      </trkpt>
      <trkpt lat="49.91374" lon="2.45766">
        <ele>48.7</ele>
        <time>2022-03-30T12:24:25Z</time>
      </trkpt>
      <trkpt lat="49.91374" lon="2.45768">
        <ele>48.6</ele>
        <time>2022-03-30T12:24:26Z</time>
      </trkpt>
      <trkpt lat="49.91375" lon="2.45769">
        <ele>48.6</ele>
        <time>2022-03-30T12:24:27Z</time>
      </trkpt>
      <trkpt lat="49.91375" lon="2.45771">
        <ele>48.6</ele>
        <time>2022-03-30T12:24:28Z</time>
      </trkpt>
      <trkpt lat="49.91376" lon="2.45772">
        <ele>48.5</ele>
        <time>2022-03-30T12:24:29Z</time>
      </trkpt>
      <trkpt lat="49.91376" lon="2.45774">
        <ele>48.5</ele>
        <time>2022-03-30T12:24:30Z</time>
      </trkpt>
      <trkpt lat="49.91376" lon="2.45776">
        <ele>49</ele>
        <time>2022-03-30T12:24:31Z</time>
      </trkpt>
      <trkpt lat="49.91377" lon="2.45779">
        <ele>48.9</ele>
        <time>2022-03-30T12:24:32Z</time>
      </trkpt>
      <trkpt lat="49.91378" lon="2.4578">
        <ele>48.9</ele>
        <time>2022-03-30T12:24:33Z</time>
      </trkpt>
      <trkpt lat="49.91378" lon="2.45781">
        <ele>48.8</ele>
        <time>2022-03-30T12:24:34Z</time>
      </trkpt>
      <trkpt lat="49.91378" lon="2.45782">
        <ele>48.8</ele>
        <time>2022-03-30T12:24:35Z</time>
      </trkpt>
      <trkpt lat="49.91379" lon="2.45784">
        <ele>48.8</ele>
        <time>2022-03-30T12:24:36Z</time>
      </trkpt>
      <trkpt lat="49.91379" lon="2.45785">
        <ele>48.7</ele>
        <time>2022-03-30T12:24:37Z</time>
      </trkpt>
      <trkpt lat="49.91379" lon="2.45786">
        <ele>49.2</ele>
        <time>2022-03-30T12:24:38Z</time>
      </trkpt>
      <trkpt lat="49.9138" lon="2.45788">
        <ele>49.2</ele>
        <time>2022-03-30T12:24:39Z</time>
      </trkpt>
      <trkpt lat="49.9138" lon="2.45789">
        <ele>49.1</ele>
        <time>2022-03-30T12:24:40Z</time>
      </trkpt>
      <trkpt lat="49.91381" lon="2.45791">
        <ele>49.1</ele>
        <time>2022-03-30T12:24:41Z</time>
      </trkpt>
      <trkpt lat="49.91381" lon="2.45793">
        <ele>49.1</ele>
        <time>2022-03-30T12:24:42Z</time>
      </trkpt>
      <trkpt lat="49.91381" lon="2.45795">
        <ele>49</ele>
        <time>2022-03-30T12:24:43Z</time>
      </trkpt>
      <trkpt lat="49.91382" lon="2.45798">
        <ele>48.9</ele>
        <time>2022-03-30T12:24:44Z</time>
      </trkpt>
      <trkpt lat="49.91382" lon="2.45799">
        <ele>48.9</ele>
        <time>2022-03-30T12:24:45Z</time>
      </trkpt>
      <trkpt lat="49.91382" lon="2.458">
        <ele>49.4</ele>
        <time>2022-03-30T12:24:46Z</time>
      </trkpt>
      <trkpt lat="49.91382" lon="2.45803">
        <ele>49.3</ele>
        <time>2022-03-30T12:24:47Z</time>
      </trkpt>
      <trkpt lat="49.91382" lon="2.45805">
        <ele>49.3</ele>
        <time>2022-03-30T12:24:48Z</time>
      </trkpt>
      <trkpt lat="49.91383" lon="2.45808">
        <ele>49.1</ele>
        <time>2022-03-30T12:24:49Z</time>
      </trkpt>
      <trkpt lat="49.91384" lon="2.45809">
        <ele>49.1</ele>
        <time>2022-03-30T12:24:50Z</time>
      </trkpt>
      <trkpt lat="49.91384" lon="2.4581">
        <ele>49.1</ele>
        <time>2022-03-30T12:24:51Z</time>
      </trkpt>
      <trkpt lat="49.91385" lon="2.45812">
        <ele>49.5</ele>
        <time>2022-03-30T12:24:52Z</time>
      </trkpt>
      <trkpt lat="49.91385" lon="2.45814">
        <ele>49.5</ele>
        <time>2022-03-30T12:24:53Z</time>
      </trkpt>
      <trkpt lat="49.91386" lon="2.45815">
        <ele>49.4</ele>
        <time>2022-03-30T12:24:54Z</time>
      </trkpt>
      <trkpt lat="49.91386" lon="2.45817">
        <ele>49.4</ele>
        <time>2022-03-30T12:24:55Z</time>
      </trkpt>
      <trkpt lat="49.91387" lon="2.45818">
        <ele>49.4</ele>
        <time>2022-03-30T12:24:56Z</time>
      </trkpt>
      <trkpt lat="49.91387" lon="2.45819">
        <ele>49.3</ele>
        <time>2022-03-30T12:24:57Z</time>
      </trkpt>
      <trkpt lat="49.91387" lon="2.45821">
        <ele>49.3</ele>
        <time>2022-03-30T12:24:58Z</time>
      </trkpt>
      <trkpt lat="49.91387" lon="2.45822">
        <ele>49.8</ele>
        <time>2022-03-30T12:24:59Z</time>
      </trkpt>
      <trkpt lat="49.91387" lon="2.45824">
        <ele>49.7</ele>
        <time>2022-03-30T12:25:00Z</time>
      </trkpt>
      <trkpt lat="49.91387" lon="2.45826">
        <ele>49.7</ele>
        <time>2022-03-30T12:25:01Z</time>
      </trkpt>
      <trkpt lat="49.91388" lon="2.45827">
        <ele>49.7</ele>
        <time>2022-03-30T12:25:02Z</time>
      </trkpt>
      <trkpt lat="49.91388" lon="2.45828">
        <ele>49.6</ele>
        <time>2022-03-30T12:25:03Z</time>
      </trkpt>
      <trkpt lat="49.91388" lon="2.4583">
        <ele>49.6</ele>
        <time>2022-03-30T12:25:04Z</time>
      </trkpt>
      <trkpt lat="49.91389" lon="2.45831">
        <ele>49.6</ele>
        <time>2022-03-30T12:25:05Z</time>
      </trkpt>
      <trkpt lat="49.91389" lon="2.45833">
        <ele>49.5</ele>
        <time>2022-03-30T12:25:06Z</time>
      </trkpt>
      <trkpt lat="49.91389" lon="2.45834">
        <ele>49.5</ele>
        <time>2022-03-30T12:25:07Z</time>
      </trkpt>
      <trkpt lat="49.9139" lon="2.45835">
        <ele>49.5</ele>
        <time>2022-03-30T12:25:08Z</time>
      </trkpt>
      <trkpt lat="49.9139" lon="2.45837">
        <ele>49.4</ele>
        <time>2022-03-30T12:25:09Z</time>
      </trkpt>
      <trkpt lat="49.9139" lon="2.45838">
        <ele>49.4</ele>
        <time>2022-03-30T12:25:10Z</time>
      </trkpt>
      <trkpt lat="49.9139" lon="2.4584">
        <ele>49.9</ele>
        <time>2022-03-30T12:25:11Z</time>
      </trkpt>
      <trkpt lat="49.91391" lon="2.45842">
        <ele>49.8</ele>
        <time>2022-03-30T12:25:12Z</time>
      </trkpt>
      <trkpt lat="49.91391" lon="2.45843">
        <ele>49.8</ele>
        <time>2022-03-30T12:25:13Z</time>
      </trkpt>
      <trkpt lat="49.91391" lon="2.45845">
        <ele>49.8</ele>
        <time>2022-03-30T12:25:14Z</time>
      </trkpt>
      <trkpt lat="49.91392" lon="2.45847">
        <ele>49.7</ele>
        <time>2022-03-30T12:25:15Z</time>
      </trkpt>
      <trkpt lat="49.91392" lon="2.45848">
        <ele>49.7</ele>
        <time>2022-03-30T12:25:16Z</time>
      </trkpt>
      <trkpt lat="49.91392" lon="2.4585">
        <ele>49.6</ele>
        <time>2022-03-30T12:25:17Z</time>
      </trkpt>
      <trkpt lat="49.91392" lon="2.45852">
        <ele>49.6</ele>
        <time>2022-03-30T12:25:18Z</time>
      </trkpt>
      <trkpt lat="49.91392" lon="2.45853">
        <ele>49.6</ele>
        <time>2022-03-30T12:25:19Z</time>
      </trkpt>
      <trkpt lat="49.91393" lon="2.45854">
        <ele>49.4</ele>
        <time>2022-03-30T12:25:20Z</time>
      </trkpt>
      <trkpt lat="49.91393" lon="2.45856">
        <ele>49.4</ele>
        <time>2022-03-30T12:25:21Z</time>
      </trkpt>
      <trkpt lat="49.91393" lon="2.45858">
        <ele>49.7</ele>
        <time>2022-03-30T12:25:22Z</time>
      </trkpt>
      <trkpt lat="49.91393" lon="2.4586">
        <ele>49.7</ele>
        <time>2022-03-30T12:25:23Z</time>
      </trkpt>
      <trkpt lat="49.91393" lon="2.4586">
        <ele>49.7</ele>
        <time>2022-03-30T12:25:24Z</time>
      </trkpt>
      <trkpt lat="49.91393" lon="2.45862">
        <ele>49.6</ele>
        <time>2022-03-30T12:25:25Z</time>
      </trkpt>
      <trkpt lat="49.91394" lon="2.45864">
        <ele>49.6</ele>
        <time>2022-03-30T12:25:26Z</time>
      </trkpt>
      <trkpt lat="49.91394" lon="2.45865">
        <ele>49.6</ele>
        <time>2022-03-30T12:25:27Z</time>
      </trkpt>
      <trkpt lat="49.91394" lon="2.45867">
        <ele>49.5</ele>
        <time>2022-03-30T12:25:28Z</time>
      </trkpt>
      <trkpt lat="49.91395" lon="2.45869">
        <ele>49.5</ele>
        <time>2022-03-30T12:25:29Z</time>
      </trkpt>
      <trkpt lat="49.91395" lon="2.4587">
        <ele>49.5</ele>
        <time>2022-03-30T12:25:30Z</time>
      </trkpt>
      <trkpt lat="49.91395" lon="2.45872">
        <ele>49.3</ele>
        <time>2022-03-30T12:25:31Z</time>
      </trkpt>
      <trkpt lat="49.91396" lon="2.45874">
        <ele>49.7</ele>
        <time>2022-03-30T12:25:32Z</time>
      </trkpt>
      <trkpt lat="49.91396" lon="2.45875">
        <ele>49.6</ele>
        <time>2022-03-30T12:25:33Z</time>
      </trkpt>
      <trkpt lat="49.91396" lon="2.45877">
        <ele>49.6</ele>
        <time>2022-03-30T12:25:34Z</time>
      </trkpt>
      <trkpt lat="49.91396" lon="2.45879">
        <ele>49.6</ele>
        <time>2022-03-30T12:25:35Z</time>
      </trkpt>
      <trkpt lat="49.91397" lon="2.45881">
        <ele>49.4</ele>
        <time>2022-03-30T12:25:36Z</time>
      </trkpt>
      <trkpt lat="49.91397" lon="2.45884">
        <ele>49.3</ele>
        <time>2022-03-30T12:25:37Z</time>
      </trkpt>
      <trkpt lat="49.91397" lon="2.45885">
        <ele>49.3</ele>
        <time>2022-03-30T12:25:38Z</time>
      </trkpt>
      <trkpt lat="49.91398" lon="2.45886">
        <ele>49.3</ele>
        <time>2022-03-30T12:25:39Z</time>
      </trkpt>
      <trkpt lat="49.91398" lon="2.45888">
        <ele>49.2</ele>
        <time>2022-03-30T12:25:40Z</time>
      </trkpt>
      <trkpt lat="49.91398" lon="2.45889">
        <ele>49.1</ele>
        <time>2022-03-30T12:25:41Z</time>
      </trkpt>
      <trkpt lat="49.91399" lon="2.45891">
        <ele>49.1</ele>
        <time>2022-03-30T12:25:42Z</time>
      </trkpt>
      <trkpt lat="49.91399" lon="2.45892">
        <ele>49</ele>
        <time>2022-03-30T12:25:43Z</time>
      </trkpt>
      <trkpt lat="49.91399" lon="2.45894">
        <ele>49</ele>
        <time>2022-03-30T12:25:44Z</time>
      </trkpt>
      <trkpt lat="49.914" lon="2.45895">
        <ele>48.9</ele>
        <time>2022-03-30T12:25:45Z</time>
      </trkpt>
      <trkpt lat="49.914" lon="2.45897">
        <ele>48.9</ele>
        <time>2022-03-30T12:25:46Z</time>
      </trkpt>
      <trkpt lat="49.914" lon="2.45899">
        <ele>48.8</ele>
        <time>2022-03-30T12:25:47Z</time>
      </trkpt>
      <trkpt lat="49.914" lon="2.459">
        <ele>48.7</ele>
        <time>2022-03-30T12:25:48Z</time>
      </trkpt>
      <trkpt lat="49.914" lon="2.45902">
        <ele>48.7</ele>
        <time>2022-03-30T12:25:49Z</time>
      </trkpt>
      <trkpt lat="49.91401" lon="2.45904">
        <ele>48.6</ele>
        <time>2022-03-30T12:25:50Z</time>
      </trkpt>
      <trkpt lat="49.91401" lon="2.45905">
        <ele>48.6</ele>
        <time>2022-03-30T12:25:51Z</time>
      </trkpt>
      <trkpt lat="49.91401" lon="2.45907">
        <ele>48.5</ele>
        <time>2022-03-30T12:25:52Z</time>
      </trkpt>
      <trkpt lat="49.91401" lon="2.45909">
        <ele>48.5</ele>
        <time>2022-03-30T12:25:53Z</time>
      </trkpt>
      <trkpt lat="49.91401" lon="2.45911">
        <ele>48.4</ele>
        <time>2022-03-30T12:25:54Z</time>
      </trkpt>
      <trkpt lat="49.91401" lon="2.45912">
        <ele>48.4</ele>
        <time>2022-03-30T12:25:55Z</time>
      </trkpt>
      <trkpt lat="49.91401" lon="2.45914">
        <ele>48.3</ele>
        <time>2022-03-30T12:25:56Z</time>
      </trkpt>
      <trkpt lat="49.91401" lon="2.45916">
        <ele>48.2</ele>
        <time>2022-03-30T12:25:57Z</time>
      </trkpt>
      <trkpt lat="49.91401" lon="2.45919">
        <ele>48.2</ele>
        <time>2022-03-30T12:25:58Z</time>
      </trkpt>
      <trkpt lat="49.91401" lon="2.4592">
        <ele>48.1</ele>
        <time>2022-03-30T12:25:59Z</time>
      </trkpt>
      <trkpt lat="49.91401" lon="2.45922">
        <ele>48.1</ele>
        <time>2022-03-30T12:26:00Z</time>
      </trkpt>
      <trkpt lat="49.91401" lon="2.45923">
        <ele>48</ele>
        <time>2022-03-30T12:26:01Z</time>
      </trkpt>
      <trkpt lat="49.91401" lon="2.45925">
        <ele>48</ele>
        <time>2022-03-30T12:26:02Z</time>
      </trkpt>
      <trkpt lat="49.91401" lon="2.45926">
        <ele>47.9</ele>
        <time>2022-03-30T12:26:03Z</time>
      </trkpt>
      <trkpt lat="49.91401" lon="2.45927">
        <ele>47.9</ele>
        <time>2022-03-30T12:26:04Z</time>
      </trkpt>
      <trkpt lat="49.91402" lon="2.45928">
        <ele>47.9</ele>
        <time>2022-03-30T12:26:05Z</time>
      </trkpt>
      <trkpt lat="49.91402" lon="2.4593">
        <ele>47.8</ele>
        <time>2022-03-30T12:26:06Z</time>
      </trkpt>
      <trkpt lat="49.91402" lon="2.45931">
        <ele>47.8</ele>
        <time>2022-03-30T12:26:07Z</time>
      </trkpt>
      <trkpt lat="49.91403" lon="2.45932">
        <ele>47.7</ele>
        <time>2022-03-30T12:26:08Z</time>
      </trkpt>
      <trkpt lat="49.91403" lon="2.45934">
        <ele>47.7</ele>
        <time>2022-03-30T12:26:09Z</time>
      </trkpt>
      <trkpt lat="49.91404" lon="2.45936">
        <ele>47.6</ele>
        <time>2022-03-30T12:26:10Z</time>
      </trkpt>
      <trkpt lat="49.91404" lon="2.45937">
        <ele>47.6</ele>
        <time>2022-03-30T12:26:11Z</time>
      </trkpt>
      <trkpt lat="49.91404" lon="2.45939">
        <ele>47.5</ele>
        <time>2022-03-30T12:26:12Z</time>
      </trkpt>
      <trkpt lat="49.91405" lon="2.4594">
        <ele>47.5</ele>
        <time>2022-03-30T12:26:13Z</time>
      </trkpt>
      <trkpt lat="49.91405" lon="2.45941">
        <ele>47.4</ele>
        <time>2022-03-30T12:26:14Z</time>
      </trkpt>
      <trkpt lat="49.91406" lon="2.45943">
        <ele>47.4</ele>
        <time>2022-03-30T12:26:15Z</time>
      </trkpt>
      <trkpt lat="49.91406" lon="2.45945">
        <ele>47.3</ele>
        <time>2022-03-30T12:26:16Z</time>
      </trkpt>
      <trkpt lat="49.91406" lon="2.45947">
        <ele>47.3</ele>
        <time>2022-03-30T12:26:17Z</time>
      </trkpt>
      <trkpt lat="49.91406" lon="2.45948">
        <ele>47.2</ele>
        <time>2022-03-30T12:26:18Z</time>
      </trkpt>
      <trkpt lat="49.91407" lon="2.45951">
        <ele>47.1</ele>
        <time>2022-03-30T12:26:19Z</time>
      </trkpt>
      <trkpt lat="49.91407" lon="2.45953">
        <ele>47</ele>
        <time>2022-03-30T12:26:20Z</time>
      </trkpt>
      <trkpt lat="49.91407" lon="2.45954">
        <ele>47</ele>
        <time>2022-03-30T12:26:21Z</time>
      </trkpt>
      <trkpt lat="49.91407" lon="2.45956">
        <ele>46.9</ele>
        <time>2022-03-30T12:26:22Z</time>
      </trkpt>
      <trkpt lat="49.91408" lon="2.45958">
        <ele>46.9</ele>
        <time>2022-03-30T12:26:23Z</time>
      </trkpt>
      <trkpt lat="49.91408" lon="2.45959">
        <ele>46.8</ele>
        <time>2022-03-30T12:26:24Z</time>
      </trkpt>
      <trkpt lat="49.91408" lon="2.4596">
        <ele>46.8</ele>
        <time>2022-03-30T12:26:25Z</time>
      </trkpt>
      <trkpt lat="49.91408" lon="2.45962">
        <ele>46.8</ele>
        <time>2022-03-30T12:26:26Z</time>
      </trkpt>
      <trkpt lat="49.91408" lon="2.45964">
        <ele>46.7</ele>
        <time>2022-03-30T12:26:27Z</time>
      </trkpt>
      <trkpt lat="49.91409" lon="2.45966">
        <ele>46.6</ele>
        <time>2022-03-30T12:26:28Z</time>
      </trkpt>
      <trkpt lat="49.91409" lon="2.45968">
        <ele>46.6</ele>
        <time>2022-03-30T12:26:29Z</time>
      </trkpt>
      <trkpt lat="49.9141" lon="2.45969">
        <ele>46.5</ele>
        <time>2022-03-30T12:26:30Z</time>
      </trkpt>
      <trkpt lat="49.9141" lon="2.45972">
        <ele>46.4</ele>
        <time>2022-03-30T12:26:31Z</time>
      </trkpt>
      <trkpt lat="49.9141" lon="2.45973">
        <ele>46.4</ele>
        <time>2022-03-30T12:26:32Z</time>
      </trkpt>
      <trkpt lat="49.91411" lon="2.45974">
        <ele>46.3</ele>
        <time>2022-03-30T12:26:33Z</time>
      </trkpt>
      <trkpt lat="49.91411" lon="2.45976">
        <ele>46.3</ele>
        <time>2022-03-30T12:26:34Z</time>
      </trkpt>
      <trkpt lat="49.91411" lon="2.45977">
        <ele>46.2</ele>
        <time>2022-03-30T12:26:35Z</time>
      </trkpt>
      <trkpt lat="49.91411" lon="2.45979">
        <ele>46.2</ele>
        <time>2022-03-30T12:26:36Z</time>
      </trkpt>
      <trkpt lat="49.91412" lon="2.4598">
        <ele>46.1</ele>
        <time>2022-03-30T12:26:37Z</time>
      </trkpt>
      <trkpt lat="49.91412" lon="2.4598">
        <ele>46.1</ele>
        <time>2022-03-30T12:26:38Z</time>
      </trkpt>
      <trkpt lat="49.91413" lon="2.4598">
        <ele>46.1</ele>
        <time>2022-03-30T12:26:39Z</time>
      </trkpt>
      <trkpt lat="49.91413" lon="2.4598">
        <ele>46</ele>
        <time>2022-03-30T12:26:40Z</time>
      </trkpt>
      <trkpt lat="49.91413" lon="2.4598">
        <ele>46</ele>
        <time>2022-03-30T12:26:41Z</time>
      </trkpt>
      <trkpt lat="49.91413" lon="2.45979">
        <ele>46</ele>
        <time>2022-03-30T12:26:42Z</time>
      </trkpt>
      <trkpt lat="49.91414" lon="2.45979">
        <ele>46</ele>
        <time>2022-03-30T12:26:43Z</time>
      </trkpt>
      <trkpt lat="49.91414" lon="2.45979">
        <ele>46</ele>
        <time>2022-03-30T12:26:44Z</time>
      </trkpt>
      <trkpt lat="49.91414" lon="2.45979">
        <ele>46</ele>
        <time>2022-03-30T12:26:45Z</time>
      </trkpt>
      <trkpt lat="49.91414" lon="2.45978">
        <ele>46</ele>
        <time>2022-03-30T12:26:46Z</time>
      </trkpt>
      <trkpt lat="49.91414" lon="2.45978">
        <ele>46</ele>
        <time>2022-03-30T12:26:47Z</time>
      </trkpt>
      <trkpt lat="49.91414" lon="2.45978">
        <ele>46</ele>
        <time>2022-03-30T12:26:48Z</time>
      </trkpt>
      <trkpt lat="49.91414" lon="2.45978">
        <ele>45.9</ele>
        <time>2022-03-30T12:26:49Z</time>
      </trkpt>
      <trkpt lat="49.91413" lon="2.45978">
        <ele>45.9</ele>
        <time>2022-03-30T12:26:50Z</time>
      </trkpt>
      <trkpt lat="49.91413" lon="2.45977">
        <ele>45.9</ele>
        <time>2022-03-30T12:26:51Z</time>
      </trkpt>
      <trkpt lat="49.91413" lon="2.45978">
        <ele>45.9</ele>
        <time>2022-03-30T12:26:52Z</time>
      </trkpt>
      <trkpt lat="49.91413" lon="2.45978">
        <ele>45.9</ele>
        <time>2022-03-30T12:26:53Z</time>
      </trkpt>
      <trkpt lat="49.91413" lon="2.45979">
        <ele>45.9</ele>
        <time>2022-03-30T12:26:54Z</time>
      </trkpt>
      <trkpt lat="49.91413" lon="2.45979">
        <ele>45.8</ele>
        <time>2022-03-30T12:26:55Z</time>
      </trkpt>
      <trkpt lat="49.91413" lon="2.4598">
        <ele>45.8</ele>
        <time>2022-03-30T12:26:56Z</time>
      </trkpt>
      <trkpt lat="49.91413" lon="2.45981">
        <ele>45.8</ele>
        <time>2022-03-30T12:26:57Z</time>
      </trkpt>
      <trkpt lat="49.91413" lon="2.45982">
        <ele>45.7</ele>
        <time>2022-03-30T12:26:58Z</time>
      </trkpt>
      <trkpt lat="49.91413" lon="2.45983">
        <ele>45.7</ele>
        <time>2022-03-30T12:26:59Z</time>
      </trkpt>
      <trkpt lat="49.91413" lon="2.45983">
        <ele>45.7</ele>
        <time>2022-03-30T12:27:00Z</time>
      </trkpt>
      <trkpt lat="49.91413" lon="2.45984">
        <ele>45.7</ele>
        <time>2022-03-30T12:27:01Z</time>
      </trkpt>
      <trkpt lat="49.91413" lon="2.45985">
        <ele>45.6</ele>
        <time>2022-03-30T12:27:02Z</time>
      </trkpt>
      <trkpt lat="49.91413" lon="2.45986">
        <ele>45.6</ele>
        <time>2022-03-30T12:27:03Z</time>
      </trkpt>
      <trkpt lat="49.91414" lon="2.45988">
        <ele>45.5</ele>
        <time>2022-03-30T12:27:04Z</time>
      </trkpt>
      <trkpt lat="49.91414" lon="2.45991">
        <ele>45.4</ele>
        <time>2022-03-30T12:27:05Z</time>
      </trkpt>
      <trkpt lat="49.91414" lon="2.45992">
        <ele>45.4</ele>
        <time>2022-03-30T12:27:06Z</time>
      </trkpt>
      <trkpt lat="49.91414" lon="2.45993">
        <ele>45.3</ele>
        <time>2022-03-30T12:27:07Z</time>
      </trkpt>
      <trkpt lat="49.91414" lon="2.45996">
        <ele>45.2</ele>
        <time>2022-03-30T12:27:08Z</time>
      </trkpt>
      <trkpt lat="49.91415" lon="2.45998">
        <ele>45.2</ele>
        <time>2022-03-30T12:27:09Z</time>
      </trkpt>
      <trkpt lat="49.91415" lon="2.45999">
        <ele>45.1</ele>
        <time>2022-03-30T12:27:10Z</time>
      </trkpt>
      <trkpt lat="49.91415" lon="2.46001">
        <ele>45</ele>
        <time>2022-03-30T12:27:11Z</time>
      </trkpt>
      <trkpt lat="49.91416" lon="2.46003">
        <ele>45</ele>
        <time>2022-03-30T12:27:12Z</time>
      </trkpt>
      <trkpt lat="49.91416" lon="2.46006">
        <ele>44.9</ele>
        <time>2022-03-30T12:27:13Z</time>
      </trkpt>
      <trkpt lat="49.91417" lon="2.46008">
        <ele>44.8</ele>
        <time>2022-03-30T12:27:14Z</time>
      </trkpt>
      <trkpt lat="49.91417" lon="2.46011">
        <ele>44.7</ele>
        <time>2022-03-30T12:27:15Z</time>
      </trkpt>
      <trkpt lat="49.91418" lon="2.46012">
        <ele>44.6</ele>
        <time>2022-03-30T12:27:16Z</time>
      </trkpt>
      <trkpt lat="49.91418" lon="2.46014">
        <ele>44.6</ele>
        <time>2022-03-30T12:27:17Z</time>
      </trkpt>
      <trkpt lat="49.91418" lon="2.46016">
        <ele>44.5</ele>
        <time>2022-03-30T12:27:18Z</time>
      </trkpt>
      <trkpt lat="49.91419" lon="2.46018">
        <ele>44.4</ele>
        <time>2022-03-30T12:27:19Z</time>
      </trkpt>
      <trkpt lat="49.9142" lon="2.46021">
        <ele>44.3</ele>
        <time>2022-03-30T12:27:20Z</time>
      </trkpt>
      <trkpt lat="49.91421" lon="2.46022">
        <ele>44.3</ele>
        <time>2022-03-30T12:27:21Z</time>
      </trkpt>
      <trkpt lat="49.91421" lon="2.46023">
        <ele>44.2</ele>
        <time>2022-03-30T12:27:22Z</time>
      </trkpt>
      <trkpt lat="49.91423" lon="2.46025">
        <ele>44.1</ele>
        <time>2022-03-30T12:27:23Z</time>
      </trkpt>
      <trkpt lat="49.91423" lon="2.46026">
        <ele>44.1</ele>
        <time>2022-03-30T12:27:24Z</time>
      </trkpt>
      <trkpt lat="49.91424" lon="2.46028">
        <ele>44</ele>
        <time>2022-03-30T12:27:25Z</time>
      </trkpt>
      <trkpt lat="49.91425" lon="2.46029">
        <ele>44</ele>
        <time>2022-03-30T12:27:26Z</time>
      </trkpt>
      <trkpt lat="49.91426" lon="2.4603">
        <ele>43.9</ele>
        <time>2022-03-30T12:27:27Z</time>
      </trkpt>
      <trkpt lat="49.91426" lon="2.46031">
        <ele>43.9</ele>
        <time>2022-03-30T12:27:28Z</time>
      </trkpt>
      <trkpt lat="49.91427" lon="2.46034">
        <ele>43.8</ele>
        <time>2022-03-30T12:27:29Z</time>
      </trkpt>
      <trkpt lat="49.91428" lon="2.46035">
        <ele>43.7</ele>
        <time>2022-03-30T12:27:30Z</time>
      </trkpt>
      <trkpt lat="49.91428" lon="2.46036">
        <ele>43.7</ele>
        <time>2022-03-30T12:27:31Z</time>
      </trkpt>
      <trkpt lat="49.9143" lon="2.46038">
        <ele>43.6</ele>
        <time>2022-03-30T12:27:32Z</time>
      </trkpt>
      <trkpt lat="49.9143" lon="2.46039">
        <ele>43.6</ele>
        <time>2022-03-30T12:27:33Z</time>
      </trkpt>
      <trkpt lat="49.91431" lon="2.4604">
        <ele>43.5</ele>
        <time>2022-03-30T12:27:34Z</time>
      </trkpt>
      <trkpt lat="49.91432" lon="2.46042">
        <ele>43.5</ele>
        <time>2022-03-30T12:27:35Z</time>
      </trkpt>
      <trkpt lat="49.91432" lon="2.46044">
        <ele>43.4</ele>
        <time>2022-03-30T12:27:36Z</time>
      </trkpt>
      <trkpt lat="49.91433" lon="2.46045">
        <ele>43.4</ele>
        <time>2022-03-30T12:27:37Z</time>
      </trkpt>
      <trkpt lat="49.91434" lon="2.46047">
        <ele>43.3</ele>
        <time>2022-03-30T12:27:38Z</time>
      </trkpt>
      <trkpt lat="49.91434" lon="2.46048">
        <ele>43.3</ele>
        <time>2022-03-30T12:27:39Z</time>
      </trkpt>
      <trkpt lat="49.91435" lon="2.46049">
        <ele>43.2</ele>
        <time>2022-03-30T12:27:40Z</time>
      </trkpt>
      <trkpt lat="49.91435" lon="2.46051">
        <ele>43.2</ele>
        <time>2022-03-30T12:27:41Z</time>
      </trkpt>
      <trkpt lat="49.91436" lon="2.46052">
        <ele>43.1</ele>
        <time>2022-03-30T12:27:42Z</time>
      </trkpt>
      <trkpt lat="49.91436" lon="2.46053">
        <ele>43.1</ele>
        <time>2022-03-30T12:27:43Z</time>
      </trkpt>
      <trkpt lat="49.91437" lon="2.46055">
        <ele>43</ele>
        <time>2022-03-30T12:27:44Z</time>
      </trkpt>
      <trkpt lat="49.91437" lon="2.46056">
        <ele>43</ele>
        <time>2022-03-30T12:27:45Z</time>
      </trkpt>
      <trkpt lat="49.91437" lon="2.46057">
        <ele>43</ele>
        <time>2022-03-30T12:27:46Z</time>
      </trkpt>
      <trkpt lat="49.91437" lon="2.46059">
        <ele>42.9</ele>
        <time>2022-03-30T12:27:47Z</time>
      </trkpt>
      <trkpt lat="49.91437" lon="2.4606">
        <ele>42.9</ele>
        <time>2022-03-30T12:27:48Z</time>
      </trkpt>
      <trkpt lat="49.91437" lon="2.46061">
        <ele>42.9</ele>
        <time>2022-03-30T12:27:49Z</time>
      </trkpt>
      <trkpt lat="49.91437" lon="2.46062">
        <ele>42.8</ele>
        <time>2022-03-30T12:27:50Z</time>
      </trkpt>
      <trkpt lat="49.91437" lon="2.46063">
        <ele>42.8</ele>
        <time>2022-03-30T12:27:51Z</time>
      </trkpt>
      <trkpt lat="49.91437" lon="2.46064">
        <ele>42.8</ele>
        <time>2022-03-30T12:27:52Z</time>
      </trkpt>
      <trkpt lat="49.91437" lon="2.46065">
        <ele>42.7</ele>
        <time>2022-03-30T12:27:53Z</time>
      </trkpt>
      <trkpt lat="49.91437" lon="2.46066">
        <ele>42.7</ele>
        <time>2022-03-30T12:27:54Z</time>
      </trkpt>
      <trkpt lat="49.91437" lon="2.46067">
        <ele>42.7</ele>
        <time>2022-03-30T12:27:55Z</time>
      </trkpt>
      <trkpt lat="49.91437" lon="2.46068">
        <ele>42.7</ele>
        <time>2022-03-30T12:27:56Z</time>
      </trkpt>
      <trkpt lat="49.91437" lon="2.46069">
        <ele>42.6</ele>
        <time>2022-03-30T12:27:57Z</time>
      </trkpt>
      <trkpt lat="49.91437" lon="2.46069">
        <ele>42.6</ele>
        <time>2022-03-30T12:27:58Z</time>
      </trkpt>
      <trkpt lat="49.91437" lon="2.4607">
        <ele>42.6</ele>
        <time>2022-03-30T12:27:59Z</time>
      </trkpt>
      <trkpt lat="49.91437" lon="2.46071">
        <ele>42.6</ele>
        <time>2022-03-30T12:28:00Z</time>
      </trkpt>
      <trkpt lat="49.91437" lon="2.46072">
        <ele>42.6</ele>
        <time>2022-03-30T12:28:01Z</time>
      </trkpt>
      <trkpt lat="49.91437" lon="2.46073">
        <ele>42.5</ele>
        <time>2022-03-30T12:28:02Z</time>
      </trkpt>
      <trkpt lat="49.91437" lon="2.46074">
        <ele>42.5</ele>
        <time>2022-03-30T12:28:03Z</time>
      </trkpt>
      <trkpt lat="49.91437" lon="2.46075">
        <ele>42.5</ele>
        <time>2022-03-30T12:28:04Z</time>
      </trkpt>
      <trkpt lat="49.91437" lon="2.46075">
        <ele>42.4</ele>
        <time>2022-03-30T12:28:05Z</time>
      </trkpt>
      <trkpt lat="49.91437" lon="2.46076">
        <ele>42.4</ele>
        <time>2022-03-30T12:28:06Z</time>
      </trkpt>
      <trkpt lat="49.91437" lon="2.46077">
        <ele>42.4</ele>
        <time>2022-03-30T12:28:07Z</time>
      </trkpt>
      <trkpt lat="49.91437" lon="2.46077">
        <ele>42.4</ele>
        <time>2022-03-30T12:28:08Z</time>
      </trkpt>
      <trkpt lat="49.91437" lon="2.46078">
        <ele>42.4</ele>
        <time>2022-03-30T12:28:09Z</time>
      </trkpt>
      <trkpt lat="49.91437" lon="2.46078">
        <ele>42.4</ele>
        <time>2022-03-30T12:28:10Z</time>
      </trkpt>
      <trkpt lat="49.91437" lon="2.46079">
        <ele>42.3</ele>
        <time>2022-03-30T12:28:11Z</time>
      </trkpt>
      <trkpt lat="49.91437" lon="2.46079">
        <ele>42.3</ele>
        <time>2022-03-30T12:28:12Z</time>
      </trkpt>
      <trkpt lat="49.91438" lon="2.46079">
        <ele>42.3</ele>
        <time>2022-03-30T12:28:13Z</time>
      </trkpt>
      <trkpt lat="49.91438" lon="2.46079">
        <ele>42.3</ele>
        <time>2022-03-30T12:28:14Z</time>
      </trkpt>
      <trkpt lat="49.91438" lon="2.46079">
        <ele>42.3</ele>
        <time>2022-03-30T12:28:15Z</time>
      </trkpt>
      <trkpt lat="49.91438" lon="2.46078">
        <ele>42.3</ele>
        <time>2022-03-30T12:28:16Z</time>
      </trkpt>
      <trkpt lat="49.91438" lon="2.46078">
        <ele>42.3</ele>
        <time>2022-03-30T12:28:17Z</time>
      </trkpt>
      <trkpt lat="49.91438" lon="2.46077">
        <ele>42.2</ele>
        <time>2022-03-30T12:28:18Z</time>
      </trkpt>
      <trkpt lat="49.91438" lon="2.46076">
        <ele>42.2</ele>
        <time>2022-03-30T12:28:19Z</time>
      </trkpt>
      <trkpt lat="49.91438" lon="2.46076">
        <ele>42.2</ele>
        <time>2022-03-30T12:28:20Z</time>
      </trkpt>
      <trkpt lat="49.91438" lon="2.46076">
        <ele>42.2</ele>
        <time>2022-03-30T12:28:21Z</time>
      </trkpt>
      <trkpt lat="49.91438" lon="2.46075">
        <ele>42.2</ele>
        <time>2022-03-30T12:28:22Z</time>
      </trkpt>
      <trkpt lat="49.91438" lon="2.46075">
        <ele>42.2</ele>
        <time>2022-03-30T12:28:23Z</time>
      </trkpt>
      <trkpt lat="49.91438" lon="2.46075">
        <ele>42.2</ele>
        <time>2022-03-30T12:28:24Z</time>
      </trkpt>
      <trkpt lat="49.91438" lon="2.46075">
        <ele>42.2</ele>
        <time>2022-03-30T12:28:25Z</time>
      </trkpt>
      <trkpt lat="49.91438" lon="2.46075">
        <ele>42.2</ele>
        <time>2022-03-30T12:28:26Z</time>
      </trkpt>
      <trkpt lat="49.91438" lon="2.46075">
        <ele>42.2</ele>
        <time>2022-03-30T12:28:27Z</time>
      </trkpt>
      <trkpt lat="49.91438" lon="2.46075">
        <ele>42.2</ele>
        <time>2022-03-30T12:28:28Z</time>
      </trkpt>
      <trkpt lat="49.91438" lon="2.46075">
        <ele>42.2</ele>
        <time>2022-03-30T12:28:29Z</time>
      </trkpt>
      <trkpt lat="49.91438" lon="2.46075">
        <ele>42.2</ele>
        <time>2022-03-30T12:28:30Z</time>
      </trkpt>
      <trkpt lat="49.91438" lon="2.46075">
        <ele>42.2</ele>
        <time>2022-03-30T12:28:31Z</time>
      </trkpt>
      <trkpt lat="49.91438" lon="2.46075">
        <ele>42.2</ele>
        <time>2022-03-30T12:28:32Z</time>
      </trkpt>
      <trkpt lat="49.91438" lon="2.46075">
        <ele>42.2</ele>
        <time>2022-03-30T12:28:33Z</time>
      </trkpt>
      <trkpt lat="49.91438" lon="2.46075">
        <ele>42.2</ele>
        <time>2022-03-30T12:28:34Z</time>
      </trkpt>
      <trkpt lat="49.91438" lon="2.46075">
        <ele>42.2</ele>
        <time>2022-03-30T12:28:35Z</time>
      </trkpt>
      <trkpt lat="49.91438" lon="2.46075">
        <ele>42.2</ele>
        <time>2022-03-30T12:28:36Z</time>
      </trkpt>
      <trkpt lat="49.91438" lon="2.46075">
        <ele>42.2</ele>
        <time>2022-03-30T12:28:37Z</time>
      </trkpt>
      <trkpt lat="49.91438" lon="2.46075">
        <ele>42.2</ele>
        <time>2022-03-30T12:28:38Z</time>
      </trkpt>
      <trkpt lat="49.91438" lon="2.46075">
        <ele>42.2</ele>
        <time>2022-03-30T12:28:39Z</time>
      </trkpt>
      <trkpt lat="49.91438" lon="2.46075">
        <ele>42.2</ele>
        <time>2022-03-30T12:28:40Z</time>
      </trkpt>
      <trkpt lat="49.91438" lon="2.46075">
        <ele>42.2</ele>
        <time>2022-03-30T12:28:41Z</time>
      </trkpt>
      <trkpt lat="49.91438" lon="2.46075">
        <ele>42.2</ele>
        <time>2022-03-30T12:28:42Z</time>
      </trkpt>
      <trkpt lat="49.91438" lon="2.46075">
        <ele>42.2</ele>
        <time>2022-03-30T12:28:43Z</time>
      </trkpt>
      <trkpt lat="49.91438" lon="2.46075">
        <ele>42.2</ele>
        <time>2022-03-30T12:28:44Z</time>
      </trkpt>
      <trkpt lat="49.91438" lon="2.46075">
        <ele>42.2</ele>
        <time>2022-03-30T12:28:45Z</time>
      </trkpt>
      <trkpt lat="49.91438" lon="2.46075">
        <ele>42.2</ele>
        <time>2022-03-30T12:28:46Z</time>
      </trkpt>
      <trkpt lat="49.91438" lon="2.46075">
        <ele>42.2</ele>
        <time>2022-03-30T12:28:47Z</time>
      </trkpt>
      <trkpt lat="49.91438" lon="2.46075">
        <ele>42.2</ele>
        <time>2022-03-30T12:28:48Z</time>
      </trkpt>
      <trkpt lat="49.91438" lon="2.46075">
        <ele>42.2</ele>
        <time>2022-03-30T12:28:49Z</time>
      </trkpt>
      <trkpt lat="49.91438" lon="2.46075">
        <ele>42.2</ele>
        <time>2022-03-30T12:28:50Z</time>
      </trkpt>
      <trkpt lat="49.91438" lon="2.46075">
        <ele>42.2</ele>
        <time>2022-03-30T12:28:51Z</time>
      </trkpt>
      <trkpt lat="49.91438" lon="2.46075">
        <ele>42.2</ele>
        <time>2022-03-30T12:28:52Z</time>
      </trkpt>
      <trkpt lat="49.91438" lon="2.46075">
        <ele>42.2</ele>
        <time>2022-03-30T12:28:53Z</time>
      </trkpt>
      <trkpt lat="49.91438" lon="2.46075">
        <ele>42.2</ele>
        <time>2022-03-30T12:28:54Z</time>
      </trkpt>
      <trkpt lat="49.91438" lon="2.46075">
        <ele>42.2</ele>
        <time>2022-03-30T12:28:55Z</time>
      </trkpt>
      <trkpt lat="49.91438" lon="2.46075">
        <ele>42.2</ele>
        <time>2022-03-30T12:28:56Z</time>
      </trkpt>
      <trkpt lat="49.91438" lon="2.46075">
        <ele>42.2</ele>
        <time>2022-03-30T12:28:57Z</time>
      </trkpt>
      <trkpt lat="49.91438" lon="2.46075">
        <ele>42.2</ele>
        <time>2022-03-30T12:28:58Z</time>
      </trkpt>
      <trkpt lat="49.91438" lon="2.46075">
        <ele>42.2</ele>
        <time>2022-03-30T12:28:59Z</time>
      </trkpt>
      <trkpt lat="49.91438" lon="2.46075">
        <ele>42.2</ele>
        <time>2022-03-30T12:29:00Z</time>
      </trkpt>
      <trkpt lat="49.91438" lon="2.46075">
        <ele>42.2</ele>
        <time>2022-03-30T12:29:01Z</time>
      </trkpt>
      <trkpt lat="49.91438" lon="2.46075">
        <ele>42.2</ele>
        <time>2022-03-30T12:29:02Z</time>
      </trkpt>
      <trkpt lat="49.91438" lon="2.46075">
        <ele>42.1</ele>
        <time>2022-03-30T12:29:03Z</time>
      </trkpt>
      <trkpt lat="49.91439" lon="2.4608">
        <ele>42</ele>
        <time>2022-03-30T12:29:04Z</time>
      </trkpt>
      <trkpt lat="49.91441" lon="2.46084">
        <ele>41.9</ele>
        <time>2022-03-30T12:29:05Z</time>
      </trkpt>
      <trkpt lat="49.91441" lon="2.46085">
        <ele>41.8</ele>
        <time>2022-03-30T12:29:06Z</time>
      </trkpt>
      <trkpt lat="49.91442" lon="2.46086">
        <ele>41.8</ele>
        <time>2022-03-30T12:29:07Z</time>
      </trkpt>
      <trkpt lat="49.91442" lon="2.46088">
        <ele>41.7</ele>
        <time>2022-03-30T12:29:08Z</time>
      </trkpt>
      <trkpt lat="49.91443" lon="2.46089">
        <ele>41.7</ele>
        <time>2022-03-30T12:29:09Z</time>
      </trkpt>
      <trkpt lat="49.91443" lon="2.46091">
        <ele>41.6</ele>
        <time>2022-03-30T12:29:10Z</time>
      </trkpt>
      <trkpt lat="49.91444" lon="2.46094">
        <ele>41.6</ele>
        <time>2022-03-30T12:29:11Z</time>
      </trkpt>
      <trkpt lat="49.91444" lon="2.46096">
        <ele>41.5</ele>
        <time>2022-03-30T12:29:12Z</time>
      </trkpt>
      <trkpt lat="49.91444" lon="2.46097">
        <ele>41.5</ele>
        <time>2022-03-30T12:29:13Z</time>
      </trkpt>
      <trkpt lat="49.91445" lon="2.46098">
        <ele>41.4</ele>
        <time>2022-03-30T12:29:14Z</time>
      </trkpt>
      <trkpt lat="49.91445" lon="2.461">
        <ele>41.4</ele>
        <time>2022-03-30T12:29:15Z</time>
      </trkpt>
      <trkpt lat="49.91445" lon="2.46101">
        <ele>41.3</ele>
        <time>2022-03-30T12:29:16Z</time>
      </trkpt>
      <trkpt lat="49.91445" lon="2.46102">
        <ele>41.3</ele>
        <time>2022-03-30T12:29:17Z</time>
      </trkpt>
      <trkpt lat="49.91446" lon="2.46103">
        <ele>41.3</ele>
        <time>2022-03-30T12:29:18Z</time>
      </trkpt>
      <trkpt lat="49.91446" lon="2.46104">
        <ele>41.2</ele>
        <time>2022-03-30T12:29:19Z</time>
      </trkpt>
      <trkpt lat="49.91446" lon="2.46105">
        <ele>41.2</ele>
        <time>2022-03-30T12:29:20Z</time>
      </trkpt>
      <trkpt lat="49.91446" lon="2.46106">
        <ele>41.2</ele>
        <time>2022-03-30T12:29:21Z</time>
      </trkpt>
      <trkpt lat="49.91447" lon="2.46108">
        <ele>41.1</ele>
        <time>2022-03-30T12:29:22Z</time>
      </trkpt>
      <trkpt lat="49.91447" lon="2.46109">
        <ele>41.1</ele>
        <time>2022-03-30T12:29:23Z</time>
      </trkpt>
      <trkpt lat="49.91447" lon="2.46111">
        <ele>41.1</ele>
        <time>2022-03-30T12:29:24Z</time>
      </trkpt>
      <trkpt lat="49.91447" lon="2.46112">
        <ele>41</ele>
        <time>2022-03-30T12:29:25Z</time>
      </trkpt>
      <trkpt lat="49.91448" lon="2.46113">
        <ele>41</ele>
        <time>2022-03-30T12:29:26Z</time>
      </trkpt>
      <trkpt lat="49.91448" lon="2.46115">
        <ele>41</ele>
        <time>2022-03-30T12:29:27Z</time>
      </trkpt>
      <trkpt lat="49.91448" lon="2.46116">
        <ele>40.9</ele>
        <time>2022-03-30T12:29:28Z</time>
      </trkpt>
      <trkpt lat="49.91448" lon="2.46117">
        <ele>40.9</ele>
        <time>2022-03-30T12:29:29Z</time>
      </trkpt>
      <trkpt lat="49.91448" lon="2.46117">
        <ele>40.9</ele>
        <time>2022-03-30T12:29:30Z</time>
      </trkpt>
      <trkpt lat="49.91449" lon="2.46119">
        <ele>40.8</ele>
        <time>2022-03-30T12:29:31Z</time>
      </trkpt>
      <trkpt lat="49.91449" lon="2.4612">
        <ele>40.8</ele>
        <time>2022-03-30T12:29:32Z</time>
      </trkpt>
      <trkpt lat="49.91449" lon="2.46121">
        <ele>40.8</ele>
        <time>2022-03-30T12:29:33Z</time>
      </trkpt>
      <trkpt lat="49.9145" lon="2.46123">
        <ele>40.7</ele>
        <time>2022-03-30T12:29:34Z</time>
      </trkpt>
      <trkpt lat="49.9145" lon="2.46124">
        <ele>40.7</ele>
        <time>2022-03-30T12:29:35Z</time>
      </trkpt>
      <trkpt lat="49.9145" lon="2.46125">
        <ele>40.7</ele>
        <time>2022-03-30T12:29:36Z</time>
      </trkpt>
      <trkpt lat="49.91451" lon="2.46126">
        <ele>40.6</ele>
        <time>2022-03-30T12:29:37Z</time>
      </trkpt>
      <trkpt lat="49.91451" lon="2.46128">
        <ele>40.6</ele>
        <time>2022-03-30T12:29:38Z</time>
      </trkpt>
      <trkpt lat="49.91451" lon="2.4613">
        <ele>40.5</ele>
        <time>2022-03-30T12:29:39Z</time>
      </trkpt>
      <trkpt lat="49.91452" lon="2.46134">
        <ele>40.4</ele>
        <time>2022-03-30T12:29:40Z</time>
      </trkpt>
      <trkpt lat="49.91453" lon="2.46136">
        <ele>40.3</ele>
        <time>2022-03-30T12:29:41Z</time>
      </trkpt>
      <trkpt lat="49.91453" lon="2.46139">
        <ele>40.3</ele>
        <time>2022-03-30T12:29:42Z</time>
      </trkpt>
      <trkpt lat="49.91454" lon="2.46141">
        <ele>40.2</ele>
        <time>2022-03-30T12:29:43Z</time>
      </trkpt>
      <trkpt lat="49.91454" lon="2.46145">
        <ele>40.1</ele>
        <time>2022-03-30T12:29:44Z</time>
      </trkpt>
      <trkpt lat="49.91454" lon="2.46147">
        <ele>40.1</ele>
        <time>2022-03-30T12:29:45Z</time>
      </trkpt>
      <trkpt lat="49.91455" lon="2.4615">
        <ele>40</ele>
        <time>2022-03-30T12:29:46Z</time>
      </trkpt>
      <trkpt lat="49.91455" lon="2.46151">
        <ele>39.9</ele>
        <time>2022-03-30T12:29:47Z</time>
      </trkpt>
      <trkpt lat="49.91455" lon="2.46153">
        <ele>39.9</ele>
        <time>2022-03-30T12:29:48Z</time>
      </trkpt>
      <trkpt lat="49.91456" lon="2.46154">
        <ele>39.8</ele>
        <time>2022-03-30T12:29:49Z</time>
      </trkpt>
      <trkpt lat="49.91456" lon="2.46157">
        <ele>39.8</ele>
        <time>2022-03-30T12:29:50Z</time>
      </trkpt>
      <trkpt lat="49.91456" lon="2.46158">
        <ele>39.7</ele>
        <time>2022-03-30T12:29:51Z</time>
      </trkpt>
      <trkpt lat="49.91456" lon="2.4616">
        <ele>39.7</ele>
        <time>2022-03-30T12:29:52Z</time>
      </trkpt>
      <trkpt lat="49.91457" lon="2.46162">
        <ele>39.7</ele>
        <time>2022-03-30T12:29:53Z</time>
      </trkpt>
      <trkpt lat="49.91457" lon="2.46163">
        <ele>39.6</ele>
        <time>2022-03-30T12:29:54Z</time>
      </trkpt>
      <trkpt lat="49.91457" lon="2.46165">
        <ele>39.6</ele>
        <time>2022-03-30T12:29:55Z</time>
      </trkpt>
      <trkpt lat="49.91458" lon="2.46167">
        <ele>39.5</ele>
        <time>2022-03-30T12:29:56Z</time>
      </trkpt>
      <trkpt lat="49.91458" lon="2.4617">
        <ele>39.4</ele>
        <time>2022-03-30T12:29:57Z</time>
      </trkpt>
      <trkpt lat="49.91458" lon="2.46171">
        <ele>39.4</ele>
        <time>2022-03-30T12:29:58Z</time>
      </trkpt>
      <trkpt lat="49.91458" lon="2.46172">
        <ele>39.4</ele>
        <time>2022-03-30T12:29:59Z</time>
      </trkpt>
      <trkpt lat="49.91459" lon="2.46174">
        <ele>39.3</ele>
        <time>2022-03-30T12:30:00Z</time>
      </trkpt>
      <trkpt lat="49.91459" lon="2.46175">
        <ele>39.3</ele>
        <time>2022-03-30T12:30:01Z</time>
      </trkpt>
      <trkpt lat="49.91459" lon="2.46177">
        <ele>39.2</ele>
        <time>2022-03-30T12:30:02Z</time>
      </trkpt>
      <trkpt lat="49.9146" lon="2.46179">
        <ele>39.2</ele>
        <time>2022-03-30T12:30:03Z</time>
      </trkpt>
      <trkpt lat="49.9146" lon="2.46181">
        <ele>39.1</ele>
        <time>2022-03-30T12:30:04Z</time>
      </trkpt>
      <trkpt lat="49.91461" lon="2.46182">
        <ele>39.1</ele>
        <time>2022-03-30T12:30:05Z</time>
      </trkpt>
      <trkpt lat="49.91461" lon="2.46185">
        <ele>39</ele>
        <time>2022-03-30T12:30:06Z</time>
      </trkpt>
      <trkpt lat="49.91462" lon="2.46187">
        <ele>38.9</ele>
        <time>2022-03-30T12:30:07Z</time>
      </trkpt>
      <trkpt lat="49.91462" lon="2.46188">
        <ele>38.9</ele>
        <time>2022-03-30T12:30:08Z</time>
      </trkpt>
      <trkpt lat="49.91463" lon="2.46189">
        <ele>38.8</ele>
        <time>2022-03-30T12:30:09Z</time>
      </trkpt>
      <trkpt lat="49.91463" lon="2.46191">
        <ele>38.8</ele>
        <time>2022-03-30T12:30:10Z</time>
      </trkpt>
      <trkpt lat="49.91464" lon="2.46192">
        <ele>38.8</ele>
        <time>2022-03-30T12:30:11Z</time>
      </trkpt>
      <trkpt lat="49.91464" lon="2.46194">
        <ele>38.7</ele>
        <time>2022-03-30T12:30:12Z</time>
      </trkpt>
      <trkpt lat="49.91465" lon="2.46195">
        <ele>38.7</ele>
        <time>2022-03-30T12:30:13Z</time>
      </trkpt>
      <trkpt lat="49.91465" lon="2.46197">
        <ele>38.6</ele>
        <time>2022-03-30T12:30:14Z</time>
      </trkpt>
      <trkpt lat="49.91466" lon="2.46199">
        <ele>38.5</ele>
        <time>2022-03-30T12:30:15Z</time>
      </trkpt>
      <trkpt lat="49.91467" lon="2.462">
        <ele>38.5</ele>
        <time>2022-03-30T12:30:16Z</time>
      </trkpt>
      <trkpt lat="49.91467" lon="2.46202">
        <ele>38.4</ele>
        <time>2022-03-30T12:30:17Z</time>
      </trkpt>
      <trkpt lat="49.91468" lon="2.46203">
        <ele>38.4</ele>
        <time>2022-03-30T12:30:18Z</time>
      </trkpt>
      <trkpt lat="49.91468" lon="2.46204">
        <ele>38.4</ele>
        <time>2022-03-30T12:30:19Z</time>
      </trkpt>
      <trkpt lat="49.91468" lon="2.46206">
        <ele>38.3</ele>
        <time>2022-03-30T12:30:20Z</time>
      </trkpt>
      <trkpt lat="49.91469" lon="2.46207">
        <ele>38.2</ele>
        <time>2022-03-30T12:30:21Z</time>
      </trkpt>
      <trkpt lat="49.91469" lon="2.46209">
        <ele>38.2</ele>
        <time>2022-03-30T12:30:22Z</time>
      </trkpt>
      <trkpt lat="49.91469" lon="2.46211">
        <ele>38.1</ele>
        <time>2022-03-30T12:30:23Z</time>
      </trkpt>
      <trkpt lat="49.9147" lon="2.46212">
        <ele>38.1</ele>
        <time>2022-03-30T12:30:24Z</time>
      </trkpt>
      <trkpt lat="49.9147" lon="2.46214">
        <ele>38</ele>
        <time>2022-03-30T12:30:25Z</time>
      </trkpt>
      <trkpt lat="49.9147" lon="2.46216">
        <ele>38</ele>
        <time>2022-03-30T12:30:26Z</time>
      </trkpt>
      <trkpt lat="49.91471" lon="2.46219">
        <ele>37.9</ele>
        <time>2022-03-30T12:30:27Z</time>
      </trkpt>
      <trkpt lat="49.91471" lon="2.4622">
        <ele>37.8</ele>
        <time>2022-03-30T12:30:28Z</time>
      </trkpt>
      <trkpt lat="49.91471" lon="2.46221">
        <ele>37.8</ele>
        <time>2022-03-30T12:30:29Z</time>
      </trkpt>
      <trkpt lat="49.91472" lon="2.46223">
        <ele>37.7</ele>
        <time>2022-03-30T12:30:30Z</time>
      </trkpt>
      <trkpt lat="49.91472" lon="2.46224">
        <ele>37.7</ele>
        <time>2022-03-30T12:30:31Z</time>
      </trkpt>
      <trkpt lat="49.91472" lon="2.46226">
        <ele>37.6</ele>
        <time>2022-03-30T12:30:32Z</time>
      </trkpt>
      <trkpt lat="49.91473" lon="2.46227">
        <ele>37.6</ele>
        <time>2022-03-30T12:30:33Z</time>
      </trkpt>
      <trkpt lat="49.91473" lon="2.46229">
        <ele>37.5</ele>
        <time>2022-03-30T12:30:34Z</time>
      </trkpt>
      <trkpt lat="49.91473" lon="2.46231">
        <ele>37.5</ele>
        <time>2022-03-30T12:30:35Z</time>
      </trkpt>
      <trkpt lat="49.91474" lon="2.46234">
        <ele>37.3</ele>
        <time>2022-03-30T12:30:36Z</time>
      </trkpt>
      <trkpt lat="49.91474" lon="2.46235">
        <ele>37.3</ele>
        <time>2022-03-30T12:30:37Z</time>
      </trkpt>
      <trkpt lat="49.91474" lon="2.46236">
        <ele>37.3</ele>
        <time>2022-03-30T12:30:38Z</time>
      </trkpt>
      <trkpt lat="49.91475" lon="2.46237">
        <ele>37.2</ele>
        <time>2022-03-30T12:30:39Z</time>
      </trkpt>
      <trkpt lat="49.91475" lon="2.46239">
        <ele>37.2</ele>
        <time>2022-03-30T12:30:40Z</time>
      </trkpt>
      <trkpt lat="49.91476" lon="2.46241">
        <ele>37.1</ele>
        <time>2022-03-30T12:30:41Z</time>
      </trkpt>
      <trkpt lat="49.91476" lon="2.46242">
        <ele>37.1</ele>
        <time>2022-03-30T12:30:42Z</time>
      </trkpt>
      <trkpt lat="49.91476" lon="2.46244">
        <ele>37</ele>
        <time>2022-03-30T12:30:43Z</time>
      </trkpt>
      <trkpt lat="49.91477" lon="2.46246">
        <ele>37</ele>
        <time>2022-03-30T12:30:44Z</time>
      </trkpt>
      <trkpt lat="49.91477" lon="2.46247">
        <ele>36.9</ele>
        <time>2022-03-30T12:30:45Z</time>
      </trkpt>
      <trkpt lat="49.91477" lon="2.46249">
        <ele>36.9</ele>
        <time>2022-03-30T12:30:46Z</time>
      </trkpt>
      <trkpt lat="49.91477" lon="2.4625">
        <ele>36.8</ele>
        <time>2022-03-30T12:30:47Z</time>
      </trkpt>
      <trkpt lat="49.91478" lon="2.46252">
        <ele>36.8</ele>
        <time>2022-03-30T12:30:48Z</time>
      </trkpt>
      <trkpt lat="49.91478" lon="2.46253">
        <ele>36.7</ele>
        <time>2022-03-30T12:30:49Z</time>
      </trkpt>
      <trkpt lat="49.91478" lon="2.46255">
        <ele>36.7</ele>
        <time>2022-03-30T12:30:50Z</time>
      </trkpt>
      <trkpt lat="49.91479" lon="2.46257">
        <ele>36.6</ele>
        <time>2022-03-30T12:30:51Z</time>
      </trkpt>
      <trkpt lat="49.91479" lon="2.46258">
        <ele>36.6</ele>
        <time>2022-03-30T12:30:52Z</time>
      </trkpt>
      <trkpt lat="49.91479" lon="2.4626">
        <ele>36.5</ele>
        <time>2022-03-30T12:30:53Z</time>
      </trkpt>
      <trkpt lat="49.9148" lon="2.46262">
        <ele>36.5</ele>
        <time>2022-03-30T12:30:54Z</time>
      </trkpt>
      <trkpt lat="49.9148" lon="2.46263">
        <ele>36.4</ele>
        <time>2022-03-30T12:30:55Z</time>
      </trkpt>
      <trkpt lat="49.9148" lon="2.46264">
        <ele>36.4</ele>
        <time>2022-03-30T12:30:56Z</time>
      </trkpt>
      <trkpt lat="49.91481" lon="2.46266">
        <ele>36.3</ele>
        <time>2022-03-30T12:30:57Z</time>
      </trkpt>
      <trkpt lat="49.91481" lon="2.46267">
        <ele>36.3</ele>
        <time>2022-03-30T12:30:58Z</time>
      </trkpt>
      <trkpt lat="49.91481" lon="2.46269">
        <ele>36.3</ele>
        <time>2022-03-30T12:30:59Z</time>
      </trkpt>
      <trkpt lat="49.91482" lon="2.4627">
        <ele>36.2</ele>
        <time>2022-03-30T12:31:00Z</time>
      </trkpt>
      <trkpt lat="49.91482" lon="2.46272">
        <ele>36.1</ele>
        <time>2022-03-30T12:31:01Z</time>
      </trkpt>
      <trkpt lat="49.91482" lon="2.46274">
        <ele>36.1</ele>
        <time>2022-03-30T12:31:02Z</time>
      </trkpt>
      <trkpt lat="49.91483" lon="2.46276">
        <ele>36</ele>
        <time>2022-03-30T12:31:03Z</time>
      </trkpt>
      <trkpt lat="49.91483" lon="2.46277">
        <ele>36</ele>
        <time>2022-03-30T12:31:04Z</time>
      </trkpt>
      <trkpt lat="49.91483" lon="2.46278">
        <ele>36</ele>
        <time>2022-03-30T12:31:05Z</time>
      </trkpt>
      <trkpt lat="49.91484" lon="2.46279">
        <ele>35.9</ele>
        <time>2022-03-30T12:31:06Z</time>
      </trkpt>
      <trkpt lat="49.91484" lon="2.46281">
        <ele>35.9</ele>
        <time>2022-03-30T12:31:07Z</time>
      </trkpt>
      <trkpt lat="49.91484" lon="2.46282">
        <ele>35.8</ele>
        <time>2022-03-30T12:31:08Z</time>
      </trkpt>
      <trkpt lat="49.91484" lon="2.46284">
        <ele>35.8</ele>
        <time>2022-03-30T12:31:09Z</time>
      </trkpt>
      <trkpt lat="49.91485" lon="2.46287">
        <ele>35.7</ele>
        <time>2022-03-30T12:31:10Z</time>
      </trkpt>
      <trkpt lat="49.91485" lon="2.46288">
        <ele>35.6</ele>
        <time>2022-03-30T12:31:11Z</time>
      </trkpt>
      <trkpt lat="49.91485" lon="2.46289">
        <ele>35.6</ele>
        <time>2022-03-30T12:31:12Z</time>
      </trkpt>
      <trkpt lat="49.91485" lon="2.46291">
        <ele>35.6</ele>
        <time>2022-03-30T12:31:13Z</time>
      </trkpt>
      <trkpt lat="49.91485" lon="2.46292">
        <ele>35.5</ele>
        <time>2022-03-30T12:31:14Z</time>
      </trkpt>
      <trkpt lat="49.91486" lon="2.46294">
        <ele>35.5</ele>
        <time>2022-03-30T12:31:15Z</time>
      </trkpt>
      <trkpt lat="49.91486" lon="2.46295">
        <ele>35.4</ele>
        <time>2022-03-30T12:31:16Z</time>
      </trkpt>
      <trkpt lat="49.91486" lon="2.46296">
        <ele>35.4</ele>
        <time>2022-03-30T12:31:17Z</time>
      </trkpt>
      <trkpt lat="49.91486" lon="2.46297">
        <ele>35.4</ele>
        <time>2022-03-30T12:31:18Z</time>
      </trkpt>
      <trkpt lat="49.91486" lon="2.46299">
        <ele>35.3</ele>
        <time>2022-03-30T12:31:19Z</time>
      </trkpt>
      <trkpt lat="49.91486" lon="2.463">
        <ele>35.3</ele>
        <time>2022-03-30T12:31:20Z</time>
      </trkpt>
      <trkpt lat="49.91486" lon="2.46301">
        <ele>35.2</ele>
        <time>2022-03-30T12:31:21Z</time>
      </trkpt>
      <trkpt lat="49.91487" lon="2.46302">
        <ele>35.2</ele>
        <time>2022-03-30T12:31:22Z</time>
      </trkpt>
      <trkpt lat="49.91487" lon="2.46303">
        <ele>35.2</ele>
        <time>2022-03-30T12:31:23Z</time>
      </trkpt>
      <trkpt lat="49.91487" lon="2.46305">
        <ele>35.1</ele>
        <time>2022-03-30T12:31:24Z</time>
      </trkpt>
      <trkpt lat="49.91487" lon="2.46306">
        <ele>35.1</ele>
        <time>2022-03-30T12:31:25Z</time>
      </trkpt>
      <trkpt lat="49.91487" lon="2.46308">
        <ele>35.1</ele>
        <time>2022-03-30T12:31:26Z</time>
      </trkpt>
      <trkpt lat="49.91487" lon="2.4631">
        <ele>35</ele>
        <time>2022-03-30T12:31:27Z</time>
      </trkpt>
      <trkpt lat="49.91487" lon="2.46311">
        <ele>35</ele>
        <time>2022-03-30T12:31:28Z</time>
      </trkpt>
      <trkpt lat="49.91488" lon="2.46313">
        <ele>34.9</ele>
        <time>2022-03-30T12:31:29Z</time>
      </trkpt>
      <trkpt lat="49.91488" lon="2.46314">
        <ele>34.9</ele>
        <time>2022-03-30T12:31:30Z</time>
      </trkpt>
      <trkpt lat="49.91488" lon="2.46316">
        <ele>34.8</ele>
        <time>2022-03-30T12:31:31Z</time>
      </trkpt>
      <trkpt lat="49.91488" lon="2.46318">
        <ele>34.8</ele>
        <time>2022-03-30T12:31:32Z</time>
      </trkpt>
      <trkpt lat="49.91489" lon="2.46319">
        <ele>34.8</ele>
        <time>2022-03-30T12:31:33Z</time>
      </trkpt>
      <trkpt lat="49.91489" lon="2.46321">
        <ele>34.7</ele>
        <time>2022-03-30T12:31:34Z</time>
      </trkpt>
      <trkpt lat="49.91489" lon="2.46323">
        <ele>34.7</ele>
        <time>2022-03-30T12:31:35Z</time>
      </trkpt>
      <trkpt lat="49.9149" lon="2.46324">
        <ele>34.6</ele>
        <time>2022-03-30T12:31:36Z</time>
      </trkpt>
      <trkpt lat="49.9149" lon="2.46326">
        <ele>34.6</ele>
        <time>2022-03-30T12:31:37Z</time>
      </trkpt>
      <trkpt lat="49.9149" lon="2.46328">
        <ele>34.5</ele>
        <time>2022-03-30T12:31:38Z</time>
      </trkpt>
      <trkpt lat="49.9149" lon="2.4633">
        <ele>34.5</ele>
        <time>2022-03-30T12:31:39Z</time>
      </trkpt>
      <trkpt lat="49.91491" lon="2.46331">
        <ele>34.4</ele>
        <time>2022-03-30T12:31:40Z</time>
      </trkpt>
      <trkpt lat="49.91491" lon="2.46333">
        <ele>34.4</ele>
        <time>2022-03-30T12:31:41Z</time>
      </trkpt>
      <trkpt lat="49.91491" lon="2.46336">
        <ele>34.3</ele>
        <time>2022-03-30T12:31:42Z</time>
      </trkpt>
      <trkpt lat="49.91492" lon="2.46337">
        <ele>34.3</ele>
        <time>2022-03-30T12:31:43Z</time>
      </trkpt>
      <trkpt lat="49.91492" lon="2.46338">
        <ele>34.3</ele>
        <time>2022-03-30T12:31:44Z</time>
      </trkpt>
      <trkpt lat="49.91492" lon="2.4634">
        <ele>34.2</ele>
        <time>2022-03-30T12:31:45Z</time>
      </trkpt>
      <trkpt lat="49.91492" lon="2.46342">
        <ele>34.2</ele>
        <time>2022-03-30T12:31:46Z</time>
      </trkpt>
      <trkpt lat="49.91493" lon="2.46344">
        <ele>34.1</ele>
        <time>2022-03-30T12:31:47Z</time>
      </trkpt>
      <trkpt lat="49.91493" lon="2.46345">
        <ele>34.1</ele>
        <time>2022-03-30T12:31:48Z</time>
      </trkpt>
      <trkpt lat="49.91494" lon="2.46347">
        <ele>34.1</ele>
        <time>2022-03-30T12:31:49Z</time>
      </trkpt>
      <trkpt lat="49.91494" lon="2.46349">
        <ele>34</ele>
        <time>2022-03-30T12:31:50Z</time>
      </trkpt>
      <trkpt lat="49.91495" lon="2.46351">
        <ele>33.9</ele>
        <time>2022-03-30T12:31:51Z</time>
      </trkpt>
      <trkpt lat="49.91495" lon="2.46353">
        <ele>33.9</ele>
        <time>2022-03-30T12:31:52Z</time>
      </trkpt>
      <trkpt lat="49.91496" lon="2.46354">
        <ele>33.9</ele>
        <time>2022-03-30T12:31:53Z</time>
      </trkpt>
      <trkpt lat="49.91496" lon="2.46355">
        <ele>33.8</ele>
        <time>2022-03-30T12:31:54Z</time>
      </trkpt>
      <trkpt lat="49.91497" lon="2.46357">
        <ele>33.8</ele>
        <time>2022-03-30T12:31:55Z</time>
      </trkpt>
      <trkpt lat="49.91498" lon="2.46358">
        <ele>33.7</ele>
        <time>2022-03-30T12:31:56Z</time>
      </trkpt>
      <trkpt lat="49.91499" lon="2.46359">
        <ele>33.7</ele>
        <time>2022-03-30T12:31:57Z</time>
      </trkpt>
      <trkpt lat="49.915" lon="2.4636">
        <ele>33.7</ele>
        <time>2022-03-30T12:31:58Z</time>
      </trkpt>
      <trkpt lat="49.91501" lon="2.4636">
        <ele>33.6</ele>
        <time>2022-03-30T12:31:59Z</time>
      </trkpt>
      <trkpt lat="49.91501" lon="2.46361">
        <ele>33.6</ele>
        <time>2022-03-30T12:32:00Z</time>
      </trkpt>
      <trkpt lat="49.91502" lon="2.46361">
        <ele>33.6</ele>
        <time>2022-03-30T12:32:01Z</time>
      </trkpt>
      <trkpt lat="49.91503" lon="2.46362">
        <ele>33.6</ele>
        <time>2022-03-30T12:32:02Z</time>
      </trkpt>
      <trkpt lat="49.91503" lon="2.46362">
        <ele>33.5</ele>
        <time>2022-03-30T12:32:03Z</time>
      </trkpt>
      <trkpt lat="49.91503" lon="2.46362">
        <ele>33.5</ele>
        <time>2022-03-30T12:32:04Z</time>
      </trkpt>
      <trkpt lat="49.91503" lon="2.46362">
        <ele>33.5</ele>
        <time>2022-03-30T12:32:05Z</time>
      </trkpt>
      <trkpt lat="49.91503" lon="2.46362">
        <ele>33.5</ele>
        <time>2022-03-30T12:32:06Z</time>
      </trkpt>
      <trkpt lat="49.91503" lon="2.46362">
        <ele>33.5</ele>
        <time>2022-03-30T12:32:07Z</time>
      </trkpt>
      <trkpt lat="49.91503" lon="2.46362">
        <ele>33.5</ele>
        <time>2022-03-30T12:32:08Z</time>
      </trkpt>
      <trkpt lat="49.91503" lon="2.46362">
        <ele>33.5</ele>
        <time>2022-03-30T12:32:09Z</time>
      </trkpt>
      <trkpt lat="49.91502" lon="2.46362">
        <ele>33.5</ele>
        <time>2022-03-30T12:32:10Z</time>
      </trkpt>
      <trkpt lat="49.91502" lon="2.46362">
        <ele>33.5</ele>
        <time>2022-03-30T12:32:11Z</time>
      </trkpt>
      <trkpt lat="49.91502" lon="2.46362">
        <ele>33.5</ele>
        <time>2022-03-30T12:32:12Z</time>
      </trkpt>
      <trkpt lat="49.91502" lon="2.46361">
        <ele>33.5</ele>
        <time>2022-03-30T12:32:13Z</time>
      </trkpt>
      <trkpt lat="49.91502" lon="2.46361">
        <ele>33.5</ele>
        <time>2022-03-30T12:32:14Z</time>
      </trkpt>
      <trkpt lat="49.91502" lon="2.46361">
        <ele>33.5</ele>
        <time>2022-03-30T12:32:15Z</time>
      </trkpt>
      <trkpt lat="49.91502" lon="2.46361">
        <ele>33.5</ele>
        <time>2022-03-30T12:32:16Z</time>
      </trkpt>
      <trkpt lat="49.91502" lon="2.46361">
        <ele>33.5</ele>
        <time>2022-03-30T12:32:17Z</time>
      </trkpt>
      <trkpt lat="49.91502" lon="2.46361">
        <ele>33.5</ele>
        <time>2022-03-30T12:32:18Z</time>
      </trkpt>
      <trkpt lat="49.91502" lon="2.46361">
        <ele>33.5</ele>
        <time>2022-03-30T12:32:19Z</time>
      </trkpt>
      <trkpt lat="49.91502" lon="2.46361">
        <ele>33.5</ele>
        <time>2022-03-30T12:32:20Z</time>
      </trkpt>
      <trkpt lat="49.91502" lon="2.46361">
        <ele>33.5</ele>
        <time>2022-03-30T12:32:21Z</time>
      </trkpt>
      <trkpt lat="49.91502" lon="2.46361">
        <ele>33.5</ele>
        <time>2022-03-30T12:32:22Z</time>
      </trkpt>
      <trkpt lat="49.91502" lon="2.46361">
        <ele>33.5</ele>
        <time>2022-03-30T12:32:23Z</time>
      </trkpt>
      <trkpt lat="49.91501" lon="2.46361">
        <ele>33.5</ele>
        <time>2022-03-30T12:32:24Z</time>
      </trkpt>
      <trkpt lat="49.91501" lon="2.46361">
        <ele>33.5</ele>
        <time>2022-03-30T12:32:25Z</time>
      </trkpt>
      <trkpt lat="49.91501" lon="2.46361">
        <ele>33.5</ele>
        <time>2022-03-30T12:32:26Z</time>
      </trkpt>
      <trkpt lat="49.91501" lon="2.46361">
        <ele>33.5</ele>
        <time>2022-03-30T12:32:27Z</time>
      </trkpt>
      <trkpt lat="49.91501" lon="2.46361">
        <ele>33.5</ele>
        <time>2022-03-30T12:32:28Z</time>
      </trkpt>
      <trkpt lat="49.91501" lon="2.46361">
        <ele>33.5</ele>
        <time>2022-03-30T12:32:29Z</time>
      </trkpt>
      <trkpt lat="49.91501" lon="2.46361">
        <ele>33.5</ele>
        <time>2022-03-30T12:32:30Z</time>
      </trkpt>
      <trkpt lat="49.91501" lon="2.46361">
        <ele>33.5</ele>
        <time>2022-03-30T12:32:31Z</time>
      </trkpt>
      <trkpt lat="49.91501" lon="2.46361">
        <ele>33.5</ele>
        <time>2022-03-30T12:32:32Z</time>
      </trkpt>
      <trkpt lat="49.91501" lon="2.46361">
        <ele>33.5</ele>
        <time>2022-03-30T12:32:33Z</time>
      </trkpt>
      <trkpt lat="49.91501" lon="2.46361">
        <ele>33.5</ele>
        <time>2022-03-30T12:32:34Z</time>
      </trkpt>
      <trkpt lat="49.91501" lon="2.46361">
        <ele>33.5</ele>
        <time>2022-03-30T12:32:35Z</time>
      </trkpt>
      <trkpt lat="49.91501" lon="2.46361">
        <ele>33.5</ele>
        <time>2022-03-30T12:32:36Z</time>
      </trkpt>
      <trkpt lat="49.91501" lon="2.46361">
        <ele>33.5</ele>
        <time>2022-03-30T12:32:37Z</time>
      </trkpt>
      <trkpt lat="49.915" lon="2.46361">
        <ele>33.5</ele>
        <time>2022-03-30T12:32:38Z</time>
      </trkpt>
      <trkpt lat="49.915" lon="2.46361">
        <ele>33.5</ele>
        <time>2022-03-30T12:32:39Z</time>
      </trkpt>
      <trkpt lat="49.915" lon="2.46361">
        <ele>33.5</ele>
        <time>2022-03-30T12:32:40Z</time>
      </trkpt>
      <trkpt lat="49.915" lon="2.46361">
        <ele>33.5</ele>
        <time>2022-03-30T12:32:41Z</time>
      </trkpt>
      <trkpt lat="49.915" lon="2.46361">
        <ele>33.5</ele>
        <time>2022-03-30T12:32:42Z</time>
      </trkpt>
      <trkpt lat="49.915" lon="2.46361">
        <ele>33.5</ele>
        <time>2022-03-30T12:32:43Z</time>
      </trkpt>
      <trkpt lat="49.915" lon="2.46361">
        <ele>33.5</ele>
        <time>2022-03-30T12:32:44Z</time>
      </trkpt>
      <trkpt lat="49.915" lon="2.46361">
        <ele>33.5</ele>
        <time>2022-03-30T12:32:45Z</time>
      </trkpt>
      <trkpt lat="49.915" lon="2.46361">
        <ele>33.5</ele>
        <time>2022-03-30T12:32:46Z</time>
      </trkpt>
      <trkpt lat="49.915" lon="2.46361">
        <ele>33.5</ele>
        <time>2022-03-30T12:32:47Z</time>
      </trkpt>
      <trkpt lat="49.915" lon="2.46361">
        <ele>33.4</ele>
        <time>2022-03-30T12:32:48Z</time>
      </trkpt>
      <trkpt lat="49.915" lon="2.46361">
        <ele>33.4</ele>
        <time>2022-03-30T12:32:49Z</time>
      </trkpt>
      <trkpt lat="49.915" lon="2.46361">
        <ele>33.4</ele>
        <time>2022-03-30T12:32:50Z</time>
      </trkpt>
      <trkpt lat="49.915" lon="2.46361">
        <ele>33.4</ele>
        <time>2022-03-30T12:32:51Z</time>
      </trkpt>
      <trkpt lat="49.91499" lon="2.46361">
        <ele>33.4</ele>
        <time>2022-03-30T12:32:52Z</time>
      </trkpt>
      <trkpt lat="49.91499" lon="2.46361">
        <ele>33.4</ele>
        <time>2022-03-30T12:32:53Z</time>
      </trkpt>
      <trkpt lat="49.91499" lon="2.46361">
        <ele>33.4</ele>
        <time>2022-03-30T12:32:54Z</time>
      </trkpt>
      <trkpt lat="49.91499" lon="2.46361">
        <ele>33.4</ele>
        <time>2022-03-30T12:32:55Z</time>
      </trkpt>
      <trkpt lat="49.91499" lon="2.46361">
        <ele>33.4</ele>
        <time>2022-03-30T12:32:56Z</time>
      </trkpt>
      <trkpt lat="49.91499" lon="2.46361">
        <ele>33.4</ele>
        <time>2022-03-30T12:32:57Z</time>
      </trkpt>
      <trkpt lat="49.91499" lon="2.4636">
        <ele>33.4</ele>
        <time>2022-03-30T12:32:58Z</time>
      </trkpt>
      <trkpt lat="49.91499" lon="2.4636">
        <ele>33.4</ele>
        <time>2022-03-30T12:32:59Z</time>
      </trkpt>
      <trkpt lat="49.91499" lon="2.4636">
        <ele>33.4</ele>
        <time>2022-03-30T12:33:00Z</time>
      </trkpt>
      <trkpt lat="49.91499" lon="2.4636">
        <ele>33.4</ele>
        <time>2022-03-30T12:33:01Z</time>
      </trkpt>
      <trkpt lat="49.91499" lon="2.4636">
        <ele>33.4</ele>
        <time>2022-03-30T12:33:02Z</time>
      </trkpt>
      <trkpt lat="49.91499" lon="2.4636">
        <ele>33.4</ele>
        <time>2022-03-30T12:33:03Z</time>
      </trkpt>
      <trkpt lat="49.91499" lon="2.4636">
        <ele>33.4</ele>
        <time>2022-03-30T12:33:04Z</time>
      </trkpt>
      <trkpt lat="49.91499" lon="2.4636">
        <ele>33.4</ele>
        <time>2022-03-30T12:33:05Z</time>
      </trkpt>
      <trkpt lat="49.91498" lon="2.46361">
        <ele>33.4</ele>
        <time>2022-03-30T12:33:06Z</time>
      </trkpt>
      <trkpt lat="49.91498" lon="2.46361">
        <ele>33.4</ele>
        <time>2022-03-30T12:33:07Z</time>
      </trkpt>
      <trkpt lat="49.91499" lon="2.46362">
        <ele>33.4</ele>
        <time>2022-03-30T12:33:08Z</time>
      </trkpt>
      <trkpt lat="49.91499" lon="2.46363">
        <ele>33.4</ele>
        <time>2022-03-30T12:33:09Z</time>
      </trkpt>
      <trkpt lat="49.915" lon="2.46364">
        <ele>33.3</ele>
        <time>2022-03-30T12:33:10Z</time>
      </trkpt>
      <trkpt lat="49.91501" lon="2.46367">
        <ele>33.3</ele>
        <time>2022-03-30T12:33:11Z</time>
      </trkpt>
      <trkpt lat="49.91501" lon="2.46368">
        <ele>33.3</ele>
        <time>2022-03-30T12:33:12Z</time>
      </trkpt>
      <trkpt lat="49.91502" lon="2.46369">
        <ele>33.3</ele>
        <time>2022-03-30T12:33:13Z</time>
      </trkpt>
      <trkpt lat="49.91503" lon="2.46372">
        <ele>33.2</ele>
        <time>2022-03-30T12:33:14Z</time>
      </trkpt>
      <trkpt lat="49.91503" lon="2.46374">
        <ele>33.2</ele>
        <time>2022-03-30T12:33:15Z</time>
      </trkpt>
      <trkpt lat="49.91504" lon="2.46376">
        <ele>33.2</ele>
        <time>2022-03-30T12:33:16Z</time>
      </trkpt>
      <trkpt lat="49.91505" lon="2.46377">
        <ele>33.2</ele>
        <time>2022-03-30T12:33:17Z</time>
      </trkpt>
      <trkpt lat="49.91505" lon="2.46379">
        <ele>33.1</ele>
        <time>2022-03-30T12:33:18Z</time>
      </trkpt>
      <trkpt lat="49.91506" lon="2.46381">
        <ele>33.1</ele>
        <time>2022-03-30T12:33:19Z</time>
      </trkpt>
      <trkpt lat="49.91506" lon="2.46382">
        <ele>33.1</ele>
        <time>2022-03-30T12:33:20Z</time>
      </trkpt>
      <trkpt lat="49.91507" lon="2.46384">
        <ele>33.1</ele>
        <time>2022-03-30T12:33:21Z</time>
      </trkpt>
      <trkpt lat="49.91508" lon="2.46386">
        <ele>33.1</ele>
        <time>2022-03-30T12:33:22Z</time>
      </trkpt>
      <trkpt lat="49.91508" lon="2.4639">
        <ele>33</ele>
        <time>2022-03-30T12:33:23Z</time>
      </trkpt>
      <trkpt lat="49.91509" lon="2.46391">
        <ele>33</ele>
        <time>2022-03-30T12:33:24Z</time>
      </trkpt>
      <trkpt lat="49.91509" lon="2.46392">
        <ele>33</ele>
        <time>2022-03-30T12:33:25Z</time>
      </trkpt>
      <trkpt lat="49.91509" lon="2.46394">
        <ele>33</ele>
        <time>2022-03-30T12:33:26Z</time>
      </trkpt>
      <trkpt lat="49.9151" lon="2.46396">
        <ele>33</ele>
        <time>2022-03-30T12:33:27Z</time>
      </trkpt>
      <trkpt lat="49.9151" lon="2.46397">
        <ele>33</ele>
        <time>2022-03-30T12:33:28Z</time>
      </trkpt>
      <trkpt lat="49.9151" lon="2.46399">
        <ele>33</ele>
        <time>2022-03-30T12:33:29Z</time>
      </trkpt>
      <trkpt lat="49.91511" lon="2.464">
        <ele>32.9</ele>
        <time>2022-03-30T12:33:30Z</time>
      </trkpt>
      <trkpt lat="49.91511" lon="2.46402">
        <ele>32.9</ele>
        <time>2022-03-30T12:33:31Z</time>
      </trkpt>
      <trkpt lat="49.91511" lon="2.46404">
        <ele>32.9</ele>
        <time>2022-03-30T12:33:32Z</time>
      </trkpt>
      <trkpt lat="49.91512" lon="2.46405">
        <ele>32.9</ele>
        <time>2022-03-30T12:33:33Z</time>
      </trkpt>
      <trkpt lat="49.91512" lon="2.46408">
        <ele>32.9</ele>
        <time>2022-03-30T12:33:34Z</time>
      </trkpt>
      <trkpt lat="49.91513" lon="2.46409">
        <ele>32.9</ele>
        <time>2022-03-30T12:33:35Z</time>
      </trkpt>
      <trkpt lat="49.91513" lon="2.4641">
        <ele>32.9</ele>
        <time>2022-03-30T12:33:36Z</time>
      </trkpt>
      <trkpt lat="49.91513" lon="2.46412">
        <ele>32.8</ele>
        <time>2022-03-30T12:33:37Z</time>
      </trkpt>
      <trkpt lat="49.91513" lon="2.46414">
        <ele>32.8</ele>
        <time>2022-03-30T12:33:38Z</time>
      </trkpt>
      <trkpt lat="49.91514" lon="2.46416">
        <ele>32.8</ele>
        <time>2022-03-30T12:33:39Z</time>
      </trkpt>
      <trkpt lat="49.91514" lon="2.46417">
        <ele>32.8</ele>
        <time>2022-03-30T12:33:40Z</time>
      </trkpt>
      <trkpt lat="49.91514" lon="2.46419">
        <ele>32.8</ele>
        <time>2022-03-30T12:33:41Z</time>
      </trkpt>
      <trkpt lat="49.91514" lon="2.46421">
        <ele>32.8</ele>
        <time>2022-03-30T12:33:42Z</time>
      </trkpt>
      <trkpt lat="49.91514" lon="2.46422">
        <ele>32.8</ele>
        <time>2022-03-30T12:33:43Z</time>
      </trkpt>
      <trkpt lat="49.91514" lon="2.46424">
        <ele>32.8</ele>
        <time>2022-03-30T12:33:44Z</time>
      </trkpt>
      <trkpt lat="49.91514" lon="2.46426">
        <ele>32.8</ele>
        <time>2022-03-30T12:33:45Z</time>
      </trkpt>
      <trkpt lat="49.91514" lon="2.46428">
        <ele>32.8</ele>
        <time>2022-03-30T12:33:46Z</time>
      </trkpt>
      <trkpt lat="49.91514" lon="2.46429">
        <ele>32.8</ele>
        <time>2022-03-30T12:33:47Z</time>
      </trkpt>
      <trkpt lat="49.91514" lon="2.46431">
        <ele>32.8</ele>
        <time>2022-03-30T12:33:48Z</time>
      </trkpt>
      <trkpt lat="49.91514" lon="2.46433">
        <ele>32.7</ele>
        <time>2022-03-30T12:33:49Z</time>
      </trkpt>
      <trkpt lat="49.91515" lon="2.46434">
        <ele>32.7</ele>
        <time>2022-03-30T12:33:50Z</time>
      </trkpt>
      <trkpt lat="49.91515" lon="2.46436">
        <ele>32.7</ele>
        <time>2022-03-30T12:33:51Z</time>
      </trkpt>
      <trkpt lat="49.91515" lon="2.46438">
        <ele>32.7</ele>
        <time>2022-03-30T12:33:52Z</time>
      </trkpt>
      <trkpt lat="49.91515" lon="2.46439">
        <ele>32.7</ele>
        <time>2022-03-30T12:33:53Z</time>
      </trkpt>
      <trkpt lat="49.91515" lon="2.46441">
        <ele>32.7</ele>
        <time>2022-03-30T12:33:54Z</time>
      </trkpt>
      <trkpt lat="49.91515" lon="2.46445">
        <ele>32.7</ele>
        <time>2022-03-30T12:33:55Z</time>
      </trkpt>
      <trkpt lat="49.91515" lon="2.46446">
        <ele>32.7</ele>
        <time>2022-03-30T12:33:56Z</time>
      </trkpt>
      <trkpt lat="49.91515" lon="2.46447">
        <ele>32.7</ele>
        <time>2022-03-30T12:33:57Z</time>
      </trkpt>
      <trkpt lat="49.91515" lon="2.4645">
        <ele>32.7</ele>
        <time>2022-03-30T12:33:58Z</time>
      </trkpt>
      <trkpt lat="49.91516" lon="2.46451">
        <ele>32.7</ele>
        <time>2022-03-30T12:33:59Z</time>
      </trkpt>
      <trkpt lat="49.91516" lon="2.46453">
        <ele>32.7</ele>
        <time>2022-03-30T12:34:00Z</time>
      </trkpt>
      <trkpt lat="49.91516" lon="2.46456">
        <ele>32.7</ele>
        <time>2022-03-30T12:34:01Z</time>
      </trkpt>
      <trkpt lat="49.91516" lon="2.46457">
        <ele>32.7</ele>
        <time>2022-03-30T12:34:02Z</time>
      </trkpt>
      <trkpt lat="49.91516" lon="2.46458">
        <ele>32.7</ele>
        <time>2022-03-30T12:34:03Z</time>
      </trkpt>
      <trkpt lat="49.91516" lon="2.46461">
        <ele>32.7</ele>
        <time>2022-03-30T12:34:04Z</time>
      </trkpt>
      <trkpt lat="49.91517" lon="2.46463">
        <ele>32.7</ele>
        <time>2022-03-30T12:34:05Z</time>
      </trkpt>
      <trkpt lat="49.91517" lon="2.46464">
        <ele>32.7</ele>
        <time>2022-03-30T12:34:06Z</time>
      </trkpt>
      <trkpt lat="49.91517" lon="2.46466">
        <ele>32.7</ele>
        <time>2022-03-30T12:34:07Z</time>
      </trkpt>
      <trkpt lat="49.91517" lon="2.46468">
        <ele>32.7</ele>
        <time>2022-03-30T12:34:08Z</time>
      </trkpt>
      <trkpt lat="49.91517" lon="2.46469">
        <ele>32.7</ele>
        <time>2022-03-30T12:34:09Z</time>
      </trkpt>
      <trkpt lat="49.91517" lon="2.46471">
        <ele>32.7</ele>
        <time>2022-03-30T12:34:10Z</time>
      </trkpt>
      <trkpt lat="49.91517" lon="2.46472">
        <ele>32.7</ele>
        <time>2022-03-30T12:34:11Z</time>
      </trkpt>
      <trkpt lat="49.91517" lon="2.46474">
        <ele>32.7</ele>
        <time>2022-03-30T12:34:12Z</time>
      </trkpt>
      <trkpt lat="49.91517" lon="2.46478">
        <ele>32.7</ele>
        <time>2022-03-30T12:34:13Z</time>
      </trkpt>
      <trkpt lat="49.91518" lon="2.46479">
        <ele>32.7</ele>
        <time>2022-03-30T12:34:14Z</time>
      </trkpt>
      <trkpt lat="49.91518" lon="2.4648">
        <ele>32.7</ele>
        <time>2022-03-30T12:34:15Z</time>
      </trkpt>
      <trkpt lat="49.91518" lon="2.46483">
        <ele>32.7</ele>
        <time>2022-03-30T12:34:16Z</time>
      </trkpt>
      <trkpt lat="49.91518" lon="2.46485">
        <ele>32.7</ele>
        <time>2022-03-30T12:34:17Z</time>
      </trkpt>
      <trkpt lat="49.91518" lon="2.46486">
        <ele>32.7</ele>
        <time>2022-03-30T12:34:18Z</time>
      </trkpt>
      <trkpt lat="49.91518" lon="2.46489">
        <ele>32.8</ele>
        <time>2022-03-30T12:34:19Z</time>
      </trkpt>
      <trkpt lat="49.91518" lon="2.46491">
        <ele>32.8</ele>
        <time>2022-03-30T12:34:20Z</time>
      </trkpt>
      <trkpt lat="49.91518" lon="2.46492">
        <ele>32.8</ele>
        <time>2022-03-30T12:34:21Z</time>
      </trkpt>
      <trkpt lat="49.91519" lon="2.46494">
        <ele>32.8</ele>
        <time>2022-03-30T12:34:22Z</time>
      </trkpt>
      <trkpt lat="49.91519" lon="2.46495">
        <ele>32.8</ele>
        <time>2022-03-30T12:34:23Z</time>
      </trkpt>
      <trkpt lat="49.91519" lon="2.46497">
        <ele>32.8</ele>
        <time>2022-03-30T12:34:24Z</time>
      </trkpt>
      <trkpt lat="49.91519" lon="2.46498">
        <ele>32.8</ele>
        <time>2022-03-30T12:34:25Z</time>
      </trkpt>
      <trkpt lat="49.91519" lon="2.465">
        <ele>32.8</ele>
        <time>2022-03-30T12:34:26Z</time>
      </trkpt>
      <trkpt lat="49.91519" lon="2.46502">
        <ele>32.8</ele>
        <time>2022-03-30T12:34:27Z</time>
      </trkpt>
      <trkpt lat="49.91519" lon="2.46504">
        <ele>32.8</ele>
        <time>2022-03-30T12:34:28Z</time>
      </trkpt>
      <trkpt lat="49.91519" lon="2.46507">
        <ele>32.9</ele>
        <time>2022-03-30T12:34:29Z</time>
      </trkpt>
      <trkpt lat="49.91519" lon="2.4651">
        <ele>32.9</ele>
        <time>2022-03-30T12:34:30Z</time>
      </trkpt>
      <trkpt lat="49.91519" lon="2.46511">
        <ele>32.9</ele>
        <time>2022-03-30T12:34:31Z</time>
      </trkpt>
      <trkpt lat="49.91519" lon="2.46513">
        <ele>32.9</ele>
        <time>2022-03-30T12:34:32Z</time>
      </trkpt>
      <trkpt lat="49.91519" lon="2.46514">
        <ele>32.9</ele>
        <time>2022-03-30T12:34:33Z</time>
      </trkpt>
      <trkpt lat="49.91519" lon="2.46516">
        <ele>32.9</ele>
        <time>2022-03-30T12:34:34Z</time>
      </trkpt>
      <trkpt lat="49.91519" lon="2.46518">
        <ele>32.9</ele>
        <time>2022-03-30T12:34:35Z</time>
      </trkpt>
      <trkpt lat="49.91519" lon="2.46521">
        <ele>33</ele>
        <time>2022-03-30T12:34:36Z</time>
      </trkpt>
      <trkpt lat="49.91519" lon="2.46523">
        <ele>33</ele>
        <time>2022-03-30T12:34:37Z</time>
      </trkpt>
      <trkpt lat="49.91519" lon="2.46524">
        <ele>33</ele>
        <time>2022-03-30T12:34:38Z</time>
      </trkpt>
      <trkpt lat="49.91519" lon="2.46526">
        <ele>33</ele>
        <time>2022-03-30T12:34:39Z</time>
      </trkpt>
      <trkpt lat="49.91519" lon="2.46527">
        <ele>33</ele>
        <time>2022-03-30T12:34:40Z</time>
      </trkpt>
      <trkpt lat="49.91519" lon="2.46528">
        <ele>33</ele>
        <time>2022-03-30T12:34:41Z</time>
      </trkpt>
      <trkpt lat="49.91519" lon="2.4653">
        <ele>33</ele>
        <time>2022-03-30T12:34:42Z</time>
      </trkpt>
      <trkpt lat="49.91519" lon="2.46532">
        <ele>33.1</ele>
        <time>2022-03-30T12:34:43Z</time>
      </trkpt>
      <trkpt lat="49.91519" lon="2.46534">
        <ele>33.1</ele>
        <time>2022-03-30T12:34:44Z</time>
      </trkpt>
      <trkpt lat="49.91519" lon="2.46535">
        <ele>33.1</ele>
        <time>2022-03-30T12:34:45Z</time>
      </trkpt>
      <trkpt lat="49.91519" lon="2.46537">
        <ele>33.1</ele>
        <time>2022-03-30T12:34:46Z</time>
      </trkpt>
      <trkpt lat="49.91518" lon="2.46539">
        <ele>33.2</ele>
        <time>2022-03-30T12:34:47Z</time>
      </trkpt>
      <trkpt lat="49.91518" lon="2.46541">
        <ele>33.2</ele>
        <time>2022-03-30T12:34:48Z</time>
      </trkpt>
      <trkpt lat="49.91518" lon="2.46543">
        <ele>33.2</ele>
        <time>2022-03-30T12:34:49Z</time>
      </trkpt>
      <trkpt lat="49.91518" lon="2.46545">
        <ele>33.2</ele>
        <time>2022-03-30T12:34:50Z</time>
      </trkpt>
      <trkpt lat="49.91518" lon="2.46547">
        <ele>33.3</ele>
        <time>2022-03-30T12:34:51Z</time>
      </trkpt>
      <trkpt lat="49.91518" lon="2.46549">
        <ele>33.3</ele>
        <time>2022-03-30T12:34:52Z</time>
      </trkpt>
      <trkpt lat="49.91518" lon="2.4655">
        <ele>33.3</ele>
        <time>2022-03-30T12:34:53Z</time>
      </trkpt>
      <trkpt lat="49.91518" lon="2.46552">
        <ele>33.3</ele>
        <time>2022-03-30T12:34:54Z</time>
      </trkpt>
      <trkpt lat="49.91518" lon="2.46554">
        <ele>33.4</ele>
        <time>2022-03-30T12:34:55Z</time>
      </trkpt>
      <trkpt lat="49.91518" lon="2.46556">
        <ele>33.4</ele>
        <time>2022-03-30T12:34:56Z</time>
      </trkpt>
      <trkpt lat="49.91518" lon="2.46557">
        <ele>33.4</ele>
        <time>2022-03-30T12:34:57Z</time>
      </trkpt>
      <trkpt lat="49.91518" lon="2.46559">
        <ele>33.4</ele>
        <time>2022-03-30T12:34:58Z</time>
      </trkpt>
      <trkpt lat="49.91518" lon="2.46563">
        <ele>33.5</ele>
        <time>2022-03-30T12:34:59Z</time>
      </trkpt>
      <trkpt lat="49.91518" lon="2.46564">
        <ele>33.5</ele>
        <time>2022-03-30T12:35:00Z</time>
      </trkpt>
      <trkpt lat="49.91518" lon="2.46565">
        <ele>33.5</ele>
        <time>2022-03-30T12:35:01Z</time>
      </trkpt>
      <trkpt lat="49.91518" lon="2.46568">
        <ele>33.5</ele>
        <time>2022-03-30T12:35:02Z</time>
      </trkpt>
      <trkpt lat="49.91518" lon="2.4657">
        <ele>33.6</ele>
        <time>2022-03-30T12:35:03Z</time>
      </trkpt>
      <trkpt lat="49.91518" lon="2.46572">
        <ele>33.6</ele>
        <time>2022-03-30T12:35:04Z</time>
      </trkpt>
      <trkpt lat="49.91518" lon="2.46575">
        <ele>33.6</ele>
        <time>2022-03-30T12:35:05Z</time>
      </trkpt>
      <trkpt lat="49.91518" lon="2.46577">
        <ele>33.6</ele>
        <time>2022-03-30T12:35:06Z</time>
      </trkpt>
      <trkpt lat="49.91518" lon="2.46579">
        <ele>33.6</ele>
        <time>2022-03-30T12:35:07Z</time>
      </trkpt>
      <trkpt lat="49.91518" lon="2.4658">
        <ele>33.7</ele>
        <time>2022-03-30T12:35:08Z</time>
      </trkpt>
      <trkpt lat="49.91518" lon="2.46582">
        <ele>33.7</ele>
        <time>2022-03-30T12:35:09Z</time>
      </trkpt>
      <trkpt lat="49.91518" lon="2.46583">
        <ele>33.7</ele>
        <time>2022-03-30T12:35:10Z</time>
      </trkpt>
      <trkpt lat="49.91518" lon="2.46585">
        <ele>33.7</ele>
        <time>2022-03-30T12:35:11Z</time>
      </trkpt>
      <trkpt lat="49.91518" lon="2.46587">
        <ele>33.7</ele>
        <time>2022-03-30T12:35:12Z</time>
      </trkpt>
      <trkpt lat="49.91518" lon="2.46589">
        <ele>33.7</ele>
        <time>2022-03-30T12:35:13Z</time>
      </trkpt>
      <trkpt lat="49.91518" lon="2.46593">
        <ele>33.7</ele>
        <time>2022-03-30T12:35:14Z</time>
      </trkpt>
      <trkpt lat="49.91518" lon="2.46594">
        <ele>33.7</ele>
        <time>2022-03-30T12:35:15Z</time>
      </trkpt>
      <trkpt lat="49.91518" lon="2.46595">
        <ele>33.7</ele>
        <time>2022-03-30T12:35:16Z</time>
      </trkpt>
      <trkpt lat="49.91518" lon="2.46597">
        <ele>33.7</ele>
        <time>2022-03-30T12:35:17Z</time>
      </trkpt>
      <trkpt lat="49.91518" lon="2.46598">
        <ele>33.7</ele>
        <time>2022-03-30T12:35:18Z</time>
      </trkpt>
      <trkpt lat="49.91518" lon="2.46601">
        <ele>33.7</ele>
        <time>2022-03-30T12:35:19Z</time>
      </trkpt>
      <trkpt lat="49.91518" lon="2.46602">
        <ele>33.7</ele>
        <time>2022-03-30T12:35:20Z</time>
      </trkpt>
      <trkpt lat="49.91518" lon="2.46604">
        <ele>33.7</ele>
        <time>2022-03-30T12:35:21Z</time>
      </trkpt>
      <trkpt lat="49.91518" lon="2.46606">
        <ele>33.7</ele>
        <time>2022-03-30T12:35:22Z</time>
      </trkpt>
      <trkpt lat="49.91518" lon="2.46607">
        <ele>33.7</ele>
        <time>2022-03-30T12:35:23Z</time>
      </trkpt>
      <trkpt lat="49.91518" lon="2.46609">
        <ele>33.7</ele>
        <time>2022-03-30T12:35:24Z</time>
      </trkpt>
      <trkpt lat="49.91518" lon="2.46611">
        <ele>33.7</ele>
        <time>2022-03-30T12:35:25Z</time>
      </trkpt>
      <trkpt lat="49.91518" lon="2.46612">
        <ele>33.6</ele>
        <time>2022-03-30T12:35:26Z</time>
      </trkpt>
      <trkpt lat="49.91518" lon="2.46614">
        <ele>33.6</ele>
        <time>2022-03-30T12:35:27Z</time>
      </trkpt>
      <trkpt lat="49.91518" lon="2.46615">
        <ele>33.6</ele>
        <time>2022-03-30T12:35:28Z</time>
      </trkpt>
      <trkpt lat="49.91518" lon="2.46617">
        <ele>33.6</ele>
        <time>2022-03-30T12:35:29Z</time>
      </trkpt>
      <trkpt lat="49.91518" lon="2.46619">
        <ele>33.6</ele>
        <time>2022-03-30T12:35:30Z</time>
      </trkpt>
      <trkpt lat="49.91518" lon="2.46621">
        <ele>33.6</ele>
        <time>2022-03-30T12:35:31Z</time>
      </trkpt>
      <trkpt lat="49.91518" lon="2.46622">
        <ele>33.5</ele>
        <time>2022-03-30T12:35:32Z</time>
      </trkpt>
      <trkpt lat="49.91518" lon="2.46624">
        <ele>33.5</ele>
        <time>2022-03-30T12:35:33Z</time>
      </trkpt>
      <trkpt lat="49.91518" lon="2.46625">
        <ele>33.5</ele>
        <time>2022-03-30T12:35:34Z</time>
      </trkpt>
      <trkpt lat="49.91518" lon="2.46627">
        <ele>33.5</ele>
        <time>2022-03-30T12:35:35Z</time>
      </trkpt>
      <trkpt lat="49.91518" lon="2.46629">
        <ele>33.5</ele>
        <time>2022-03-30T12:35:36Z</time>
      </trkpt>
      <trkpt lat="49.91518" lon="2.4663">
        <ele>33.4</ele>
        <time>2022-03-30T12:35:37Z</time>
      </trkpt>
      <trkpt lat="49.91518" lon="2.46632">
        <ele>33.4</ele>
        <time>2022-03-30T12:35:38Z</time>
      </trkpt>
      <trkpt lat="49.91518" lon="2.46634">
        <ele>33.4</ele>
        <time>2022-03-30T12:35:39Z</time>
      </trkpt>
      <trkpt lat="49.91519" lon="2.46635">
        <ele>33.3</ele>
        <time>2022-03-30T12:35:40Z</time>
      </trkpt>
      <trkpt lat="49.91519" lon="2.46639">
        <ele>33.3</ele>
        <time>2022-03-30T12:35:41Z</time>
      </trkpt>
      <trkpt lat="49.91519" lon="2.4664">
        <ele>33.3</ele>
        <time>2022-03-30T12:35:42Z</time>
      </trkpt>
      <trkpt lat="49.91519" lon="2.46641">
        <ele>33.3</ele>
        <time>2022-03-30T12:35:43Z</time>
      </trkpt>
      <trkpt lat="49.91519" lon="2.46642">
        <ele>33.2</ele>
        <time>2022-03-30T12:35:44Z</time>
      </trkpt>
      <trkpt lat="49.91519" lon="2.46644">
        <ele>33.2</ele>
        <time>2022-03-30T12:35:45Z</time>
      </trkpt>
      <trkpt lat="49.91519" lon="2.46646">
        <ele>33.2</ele>
        <time>2022-03-30T12:35:46Z</time>
      </trkpt>
      <trkpt lat="49.91519" lon="2.46648">
        <ele>33.1</ele>
        <time>2022-03-30T12:35:47Z</time>
      </trkpt>
      <trkpt lat="49.91519" lon="2.46649">
        <ele>33.1</ele>
        <time>2022-03-30T12:35:48Z</time>
      </trkpt>
      <trkpt lat="49.91519" lon="2.46651">
        <ele>33.1</ele>
        <time>2022-03-30T12:35:49Z</time>
      </trkpt>
      <trkpt lat="49.91519" lon="2.46654">
        <ele>33</ele>
        <time>2022-03-30T12:35:50Z</time>
      </trkpt>
      <trkpt lat="49.91519" lon="2.46656">
        <ele>33</ele>
        <time>2022-03-30T12:35:51Z</time>
      </trkpt>
      <trkpt lat="49.91519" lon="2.46657">
        <ele>33</ele>
        <time>2022-03-30T12:35:52Z</time>
      </trkpt>
      <trkpt lat="49.91519" lon="2.46659">
        <ele>32.9</ele>
        <time>2022-03-30T12:35:53Z</time>
      </trkpt>
      <trkpt lat="49.91519" lon="2.46661">
        <ele>32.9</ele>
        <time>2022-03-30T12:35:54Z</time>
      </trkpt>
      <trkpt lat="49.91519" lon="2.46663">
        <ele>32.9</ele>
        <time>2022-03-30T12:35:55Z</time>
      </trkpt>
      <trkpt lat="49.91519" lon="2.46664">
        <ele>32.8</ele>
        <time>2022-03-30T12:35:56Z</time>
      </trkpt>
      <trkpt lat="49.91519" lon="2.46665">
        <ele>32.8</ele>
        <time>2022-03-30T12:35:57Z</time>
      </trkpt>
      <trkpt lat="49.91519" lon="2.46667">
        <ele>32.8</ele>
        <time>2022-03-30T12:35:58Z</time>
      </trkpt>
      <trkpt lat="49.9152" lon="2.4667">
        <ele>32.7</ele>
        <time>2022-03-30T12:35:59Z</time>
      </trkpt>
      <trkpt lat="49.9152" lon="2.46671">
        <ele>32.7</ele>
        <time>2022-03-30T12:36:00Z</time>
      </trkpt>
      <trkpt lat="49.9152" lon="2.46673">
        <ele>32.7</ele>
        <time>2022-03-30T12:36:01Z</time>
      </trkpt>
      <trkpt lat="49.9152" lon="2.46676">
        <ele>32.7</ele>
        <time>2022-03-30T12:36:02Z</time>
      </trkpt>
      <trkpt lat="49.9152" lon="2.46677">
        <ele>32.6</ele>
        <time>2022-03-30T12:36:03Z</time>
      </trkpt>
      <trkpt lat="49.9152" lon="2.46678">
        <ele>32.6</ele>
        <time>2022-03-30T12:36:04Z</time>
      </trkpt>
      <trkpt lat="49.9152" lon="2.46682">
        <ele>32.6</ele>
        <time>2022-03-30T12:36:05Z</time>
      </trkpt>
      <trkpt lat="49.9152" lon="2.46683">
        <ele>32.6</ele>
        <time>2022-03-30T12:36:06Z</time>
      </trkpt>
      <trkpt lat="49.9152" lon="2.46684">
        <ele>32.5</ele>
        <time>2022-03-30T12:36:07Z</time>
      </trkpt>
      <trkpt lat="49.9152" lon="2.46687">
        <ele>32.5</ele>
        <time>2022-03-30T12:36:08Z</time>
      </trkpt>
      <trkpt lat="49.9152" lon="2.46689">
        <ele>32.5</ele>
        <time>2022-03-30T12:36:09Z</time>
      </trkpt>
      <trkpt lat="49.9152" lon="2.4669">
        <ele>32.5</ele>
        <time>2022-03-30T12:36:10Z</time>
      </trkpt>
      <trkpt lat="49.9152" lon="2.46694">
        <ele>32.4</ele>
        <time>2022-03-30T12:36:11Z</time>
      </trkpt>
      <trkpt lat="49.9152" lon="2.46695">
        <ele>32.4</ele>
        <time>2022-03-30T12:36:12Z</time>
      </trkpt>
      <trkpt lat="49.9152" lon="2.46696">
        <ele>32.4</ele>
        <time>2022-03-30T12:36:13Z</time>
      </trkpt>
      <trkpt lat="49.91519" lon="2.46698">
        <ele>32.4</ele>
        <time>2022-03-30T12:36:14Z</time>
      </trkpt>
      <trkpt lat="49.91519" lon="2.467">
        <ele>32.4</ele>
        <time>2022-03-30T12:36:15Z</time>
      </trkpt>
      <trkpt lat="49.91519" lon="2.46702">
        <ele>32.3</ele>
        <time>2022-03-30T12:36:16Z</time>
      </trkpt>
      <trkpt lat="49.91519" lon="2.46703">
        <ele>32.3</ele>
        <time>2022-03-30T12:36:17Z</time>
      </trkpt>
      <trkpt lat="49.91519" lon="2.46704">
        <ele>32.3</ele>
        <time>2022-03-30T12:36:18Z</time>
      </trkpt>
      <trkpt lat="49.91519" lon="2.46706">
        <ele>32.3</ele>
        <time>2022-03-30T12:36:19Z</time>
      </trkpt>
      <trkpt lat="49.91518" lon="2.46707">
        <ele>32.3</ele>
        <time>2022-03-30T12:36:20Z</time>
      </trkpt>
      <trkpt lat="49.91518" lon="2.46709">
        <ele>32.3</ele>
        <time>2022-03-30T12:36:21Z</time>
      </trkpt>
      <trkpt lat="49.91518" lon="2.4671">
        <ele>32.3</ele>
        <time>2022-03-30T12:36:22Z</time>
      </trkpt>
      <trkpt lat="49.91518" lon="2.46712">
        <ele>32.3</ele>
        <time>2022-03-30T12:36:23Z</time>
      </trkpt>
      <trkpt lat="49.91518" lon="2.46714">
        <ele>32.2</ele>
        <time>2022-03-30T12:36:24Z</time>
      </trkpt>
      <trkpt lat="49.91517" lon="2.46715">
        <ele>32.2</ele>
        <time>2022-03-30T12:36:25Z</time>
      </trkpt>
      <trkpt lat="49.91517" lon="2.46719">
        <ele>32.2</ele>
        <time>2022-03-30T12:36:26Z</time>
      </trkpt>
      <trkpt lat="49.91517" lon="2.4672">
        <ele>32.2</ele>
        <time>2022-03-30T12:36:27Z</time>
      </trkpt>
      <trkpt lat="49.91517" lon="2.46721">
        <ele>32.2</ele>
        <time>2022-03-30T12:36:28Z</time>
      </trkpt>
      <trkpt lat="49.91517" lon="2.46723">
        <ele>32.2</ele>
        <time>2022-03-30T12:36:29Z</time>
      </trkpt>
      <trkpt lat="49.91517" lon="2.46724">
        <ele>32.2</ele>
        <time>2022-03-30T12:36:30Z</time>
      </trkpt>
      <trkpt lat="49.91517" lon="2.46726">
        <ele>32.1</ele>
        <time>2022-03-30T12:36:31Z</time>
      </trkpt>
      <trkpt lat="49.91517" lon="2.46729">
        <ele>32.1</ele>
        <time>2022-03-30T12:36:32Z</time>
      </trkpt>
      <trkpt lat="49.91517" lon="2.4673">
        <ele>32.1</ele>
        <time>2022-03-30T12:36:33Z</time>
      </trkpt>
      <trkpt lat="49.91517" lon="2.46732">
        <ele>32.1</ele>
        <time>2022-03-30T12:36:34Z</time>
      </trkpt>
      <trkpt lat="49.91516" lon="2.46735">
        <ele>32.1</ele>
        <time>2022-03-30T12:36:35Z</time>
      </trkpt>
      <trkpt lat="49.91516" lon="2.46736">
        <ele>32.1</ele>
        <time>2022-03-30T12:36:36Z</time>
      </trkpt>
      <trkpt lat="49.91516" lon="2.46738">
        <ele>32.1</ele>
        <time>2022-03-30T12:36:37Z</time>
      </trkpt>
      <trkpt lat="49.91516" lon="2.46741">
        <ele>32.1</ele>
        <time>2022-03-30T12:36:38Z</time>
      </trkpt>
      <trkpt lat="49.91516" lon="2.46742">
        <ele>32.1</ele>
        <time>2022-03-30T12:36:39Z</time>
      </trkpt>
      <trkpt lat="49.91516" lon="2.46744">
        <ele>32.1</ele>
        <time>2022-03-30T12:36:40Z</time>
      </trkpt>
      <trkpt lat="49.91515" lon="2.46745">
        <ele>32.1</ele>
        <time>2022-03-30T12:36:41Z</time>
      </trkpt>
      <trkpt lat="49.91515" lon="2.46747">
        <ele>32.1</ele>
        <time>2022-03-30T12:36:42Z</time>
      </trkpt>
      <trkpt lat="49.91515" lon="2.46748">
        <ele>32.1</ele>
        <time>2022-03-30T12:36:43Z</time>
      </trkpt>
      <trkpt lat="49.91515" lon="2.4675">
        <ele>32.1</ele>
        <time>2022-03-30T12:36:44Z</time>
      </trkpt>
      <trkpt lat="49.91515" lon="2.46752">
        <ele>32.1</ele>
        <time>2022-03-30T12:36:45Z</time>
      </trkpt>
      <trkpt lat="49.91515" lon="2.46753">
        <ele>32.1</ele>
        <time>2022-03-30T12:36:46Z</time>
      </trkpt>
      <trkpt lat="49.91515" lon="2.46755">
        <ele>32.1</ele>
        <time>2022-03-30T12:36:47Z</time>
      </trkpt>
      <trkpt lat="49.91515" lon="2.46757">
        <ele>32.1</ele>
        <time>2022-03-30T12:36:48Z</time>
      </trkpt>
      <trkpt lat="49.91514" lon="2.46758">
        <ele>32.1</ele>
        <time>2022-03-30T12:36:49Z</time>
      </trkpt>
      <trkpt lat="49.91514" lon="2.4676">
        <ele>32.1</ele>
        <time>2022-03-30T12:36:50Z</time>
      </trkpt>
      <trkpt lat="49.91514" lon="2.46762">
        <ele>32.1</ele>
        <time>2022-03-30T12:36:51Z</time>
      </trkpt>
      <trkpt lat="49.91514" lon="2.46764">
        <ele>32.1</ele>
        <time>2022-03-30T12:36:52Z</time>
      </trkpt>
      <trkpt lat="49.91513" lon="2.46765">
        <ele>32.1</ele>
        <time>2022-03-30T12:36:53Z</time>
      </trkpt>
      <trkpt lat="49.91513" lon="2.46767">
        <ele>32.1</ele>
        <time>2022-03-30T12:36:54Z</time>
      </trkpt>
      <trkpt lat="49.91514" lon="2.46768">
        <ele>32.1</ele>
        <time>2022-03-30T12:36:55Z</time>
      </trkpt>
      <trkpt lat="49.91514" lon="2.46769">
        <ele>32.1</ele>
        <time>2022-03-30T12:36:56Z</time>
      </trkpt>
      <trkpt lat="49.91514" lon="2.46771">
        <ele>32.1</ele>
        <time>2022-03-30T12:36:57Z</time>
      </trkpt>
      <trkpt lat="49.91514" lon="2.46773">
        <ele>32.1</ele>
        <time>2022-03-30T12:36:58Z</time>
      </trkpt>
      <trkpt lat="49.91514" lon="2.46774">
        <ele>32.1</ele>
        <time>2022-03-30T12:36:59Z</time>
      </trkpt>
      <trkpt lat="49.91515" lon="2.46776">
        <ele>32.1</ele>
        <time>2022-03-30T12:37:00Z</time>
      </trkpt>
      <trkpt lat="49.91516" lon="2.46777">
        <ele>32.1</ele>
        <time>2022-03-30T12:37:01Z</time>
      </trkpt>
      <trkpt lat="49.91517" lon="2.46778">
        <ele>32.1</ele>
        <time>2022-03-30T12:37:02Z</time>
      </trkpt>
      <trkpt lat="49.91518" lon="2.46779">
        <ele>32.1</ele>
        <time>2022-03-30T12:37:03Z</time>
      </trkpt>
      <trkpt lat="49.91519" lon="2.46779">
        <ele>32.1</ele>
        <time>2022-03-30T12:37:04Z</time>
      </trkpt>
      <trkpt lat="49.9152" lon="2.46779">
        <ele>32.1</ele>
        <time>2022-03-30T12:37:05Z</time>
      </trkpt>
      <trkpt lat="49.91521" lon="2.46778">
        <ele>32.1</ele>
        <time>2022-03-30T12:37:06Z</time>
      </trkpt>
      <trkpt lat="49.91522" lon="2.46777">
        <ele>32.2</ele>
        <time>2022-03-30T12:37:07Z</time>
      </trkpt>
      <trkpt lat="49.91523" lon="2.46776">
        <ele>32.2</ele>
        <time>2022-03-30T12:37:08Z</time>
      </trkpt>
      <trkpt lat="49.91523" lon="2.46775">
        <ele>32.2</ele>
        <time>2022-03-30T12:37:09Z</time>
      </trkpt>
      <trkpt lat="49.91524" lon="2.46774">
        <ele>32.2</ele>
        <time>2022-03-30T12:37:10Z</time>
      </trkpt>
      <trkpt lat="49.91525" lon="2.46773">
        <ele>32.2</ele>
        <time>2022-03-30T12:37:11Z</time>
      </trkpt>
      <trkpt lat="49.91526" lon="2.46772">
        <ele>32.2</ele>
        <time>2022-03-30T12:37:12Z</time>
      </trkpt>
      <trkpt lat="49.91526" lon="2.46771">
        <ele>32.2</ele>
        <time>2022-03-30T12:37:13Z</time>
      </trkpt>
      <trkpt lat="49.91527" lon="2.4677">
        <ele>32.2</ele>
        <time>2022-03-30T12:37:14Z</time>
      </trkpt>
      <trkpt lat="49.91528" lon="2.46769">
        <ele>32.2</ele>
        <time>2022-03-30T12:37:15Z</time>
      </trkpt>
      <trkpt lat="49.91528" lon="2.46768">
        <ele>32.2</ele>
        <time>2022-03-30T12:37:16Z</time>
      </trkpt>
      <trkpt lat="49.91529" lon="2.46767">
        <ele>32.3</ele>
        <time>2022-03-30T12:37:17Z</time>
      </trkpt>
      <trkpt lat="49.91529" lon="2.46767">
        <ele>32.3</ele>
        <time>2022-03-30T12:37:18Z</time>
      </trkpt>
      <trkpt lat="49.91529" lon="2.46767">
        <ele>32.3</ele>
        <time>2022-03-30T12:37:19Z</time>
      </trkpt>
      <trkpt lat="49.91529" lon="2.46767">
        <ele>32.3</ele>
        <time>2022-03-30T12:37:20Z</time>
      </trkpt>
      <trkpt lat="49.91529" lon="2.46767">
        <ele>32.3</ele>
        <time>2022-03-30T12:37:21Z</time>
      </trkpt>
      <trkpt lat="49.91529" lon="2.46766">
        <ele>32.3</ele>
        <time>2022-03-30T12:37:22Z</time>
      </trkpt>
      <trkpt lat="49.91529" lon="2.46766">
        <ele>32.3</ele>
        <time>2022-03-30T12:37:23Z</time>
      </trkpt>
      <trkpt lat="49.91529" lon="2.46766">
        <ele>32.3</ele>
        <time>2022-03-30T12:37:24Z</time>
      </trkpt>
      <trkpt lat="49.91529" lon="2.46766">
        <ele>32.3</ele>
        <time>2022-03-30T12:37:25Z</time>
      </trkpt>
      <trkpt lat="49.91529" lon="2.46766">
        <ele>32.3</ele>
        <time>2022-03-30T12:37:26Z</time>
      </trkpt>
      <trkpt lat="49.91529" lon="2.46766">
        <ele>32.3</ele>
        <time>2022-03-30T12:37:27Z</time>
      </trkpt>
      <trkpt lat="49.91529" lon="2.46766">
        <ele>32.3</ele>
        <time>2022-03-30T12:37:28Z</time>
      </trkpt>
      <trkpt lat="49.91529" lon="2.46766">
        <ele>32.3</ele>
        <time>2022-03-30T12:37:29Z</time>
      </trkpt>
      <trkpt lat="49.91529" lon="2.46766">
        <ele>32.3</ele>
        <time>2022-03-30T12:37:30Z</time>
      </trkpt>
      <trkpt lat="49.91529" lon="2.46766">
        <ele>32.3</ele>
        <time>2022-03-30T12:37:31Z</time>
      </trkpt>
      <trkpt lat="49.91529" lon="2.46766">
        <ele>32.3</ele>
        <time>2022-03-30T12:37:32Z</time>
      </trkpt>
      <trkpt lat="49.91529" lon="2.46766">
        <ele>32.3</ele>
        <time>2022-03-30T12:37:33Z</time>
      </trkpt>
      <trkpt lat="49.91529" lon="2.46766">
        <ele>32.3</ele>
        <time>2022-03-30T12:37:34Z</time>
      </trkpt>
      <trkpt lat="49.91529" lon="2.46766">
        <ele>32.3</ele>
        <time>2022-03-30T12:37:35Z</time>
      </trkpt>
      <trkpt lat="49.9153" lon="2.46766">
        <ele>32.3</ele>
        <time>2022-03-30T12:37:36Z</time>
      </trkpt>
      <trkpt lat="49.9153" lon="2.46766">
        <ele>32.3</ele>
        <time>2022-03-30T12:37:37Z</time>
      </trkpt>
      <trkpt lat="49.9153" lon="2.46766">
        <ele>32.3</ele>
        <time>2022-03-30T12:37:38Z</time>
      </trkpt>
      <trkpt lat="49.9153" lon="2.46766">
        <ele>32.3</ele>
        <time>2022-03-30T12:37:39Z</time>
      </trkpt>
      <trkpt lat="49.9153" lon="2.46766">
        <ele>32.3</ele>
        <time>2022-03-30T12:37:40Z</time>
      </trkpt>
      <trkpt lat="49.9153" lon="2.46766">
        <ele>32.3</ele>
        <time>2022-03-30T12:37:41Z</time>
      </trkpt>
      <trkpt lat="49.9153" lon="2.46766">
        <ele>32.3</ele>
        <time>2022-03-30T12:37:42Z</time>
      </trkpt>
      <trkpt lat="49.9153" lon="2.46766">
        <ele>32.3</ele>
        <time>2022-03-30T12:37:43Z</time>
      </trkpt>
      <trkpt lat="49.9153" lon="2.46766">
        <ele>32.3</ele>
        <time>2022-03-30T12:37:44Z</time>
      </trkpt>
      <trkpt lat="49.9153" lon="2.46765">
        <ele>32.3</ele>
        <time>2022-03-30T12:37:45Z</time>
      </trkpt>
      <trkpt lat="49.9153" lon="2.46765">
        <ele>32.3</ele>
        <time>2022-03-30T12:37:46Z</time>
      </trkpt>
      <trkpt lat="49.9153" lon="2.46765">
        <ele>32.3</ele>
        <time>2022-03-30T12:37:47Z</time>
      </trkpt>
      <trkpt lat="49.9153" lon="2.46765">
        <ele>32.3</ele>
        <time>2022-03-30T12:37:48Z</time>
      </trkpt>
      <trkpt lat="49.9153" lon="2.46765">
        <ele>32.3</ele>
        <time>2022-03-30T12:37:49Z</time>
      </trkpt>
      <trkpt lat="49.9153" lon="2.46765">
        <ele>32.3</ele>
        <time>2022-03-30T12:37:50Z</time>
      </trkpt>
      <trkpt lat="49.9153" lon="2.46765">
        <ele>32.3</ele>
        <time>2022-03-30T12:37:51Z</time>
      </trkpt>
      <trkpt lat="49.9153" lon="2.46765">
        <ele>32.3</ele>
        <time>2022-03-30T12:37:52Z</time>
      </trkpt>
      <trkpt lat="49.9153" lon="2.46765">
        <ele>32.3</ele>
        <time>2022-03-30T12:37:53Z</time>
      </trkpt>
      <trkpt lat="49.9153" lon="2.46765">
        <ele>32.3</ele>
        <time>2022-03-30T12:37:54Z</time>
      </trkpt>
      <trkpt lat="49.9153" lon="2.46765">
        <ele>32.3</ele>
        <time>2022-03-30T12:37:55Z</time>
      </trkpt>
      <trkpt lat="49.9153" lon="2.46765">
        <ele>32.3</ele>
        <time>2022-03-30T12:37:56Z</time>
      </trkpt>
      <trkpt lat="49.9153" lon="2.46765">
        <ele>32.3</ele>
        <time>2022-03-30T12:37:57Z</time>
      </trkpt>
      <trkpt lat="49.9153" lon="2.46765">
        <ele>32.3</ele>
        <time>2022-03-30T12:37:58Z</time>
      </trkpt>
      <trkpt lat="49.9153" lon="2.46765">
        <ele>32.3</ele>
        <time>2022-03-30T12:37:59Z</time>
      </trkpt>
      <trkpt lat="49.9153" lon="2.46765">
        <ele>32.3</ele>
        <time>2022-03-30T12:38:00Z</time>
      </trkpt>
      <trkpt lat="49.9153" lon="2.46765">
        <ele>32.3</ele>
        <time>2022-03-30T12:38:01Z</time>
      </trkpt>
      <trkpt lat="49.9153" lon="2.46765">
        <ele>32.3</ele>
        <time>2022-03-30T12:38:02Z</time>
      </trkpt>
      <trkpt lat="49.9153" lon="2.46765">
        <ele>32.3</ele>
        <time>2022-03-30T12:38:03Z</time>
      </trkpt>
      <trkpt lat="49.9153" lon="2.46765">
        <ele>32.3</ele>
        <time>2022-03-30T12:38:04Z</time>
      </trkpt>
      <trkpt lat="49.9153" lon="2.46765">
        <ele>32.3</ele>
        <time>2022-03-30T12:38:05Z</time>
      </trkpt>
      <trkpt lat="49.91531" lon="2.46765">
        <ele>32.3</ele>
        <time>2022-03-30T12:38:06Z</time>
      </trkpt>
      <trkpt lat="49.91531" lon="2.46765">
        <ele>32.3</ele>
        <time>2022-03-30T12:38:07Z</time>
      </trkpt>
      <trkpt lat="49.91531" lon="2.46764">
        <ele>32.3</ele>
        <time>2022-03-30T12:38:08Z</time>
      </trkpt>
      <trkpt lat="49.91531" lon="2.46764">
        <ele>32.3</ele>
        <time>2022-03-30T12:38:09Z</time>
      </trkpt>
      <trkpt lat="49.91531" lon="2.46764">
        <ele>32.3</ele>
        <time>2022-03-30T12:38:10Z</time>
      </trkpt>
      <trkpt lat="49.91531" lon="2.46764">
        <ele>32.3</ele>
        <time>2022-03-30T12:38:11Z</time>
      </trkpt>
      <trkpt lat="49.91531" lon="2.46764">
        <ele>32.3</ele>
        <time>2022-03-30T12:38:12Z</time>
      </trkpt>
      <trkpt lat="49.91531" lon="2.46764">
        <ele>32.3</ele>
        <time>2022-03-30T12:38:13Z</time>
      </trkpt>
      <trkpt lat="49.91531" lon="2.46764">
        <ele>32.3</ele>
        <time>2022-03-30T12:38:14Z</time>
      </trkpt>
      <trkpt lat="49.91531" lon="2.46764">
        <ele>32.3</ele>
        <time>2022-03-30T12:38:15Z</time>
      </trkpt>
      <trkpt lat="49.91531" lon="2.46764">
        <ele>32.3</ele>
        <time>2022-03-30T12:38:16Z</time>
      </trkpt>
      <trkpt lat="49.91531" lon="2.46764">
        <ele>32.3</ele>
        <time>2022-03-30T12:38:17Z</time>
      </trkpt>
      <trkpt lat="49.91531" lon="2.46764">
        <ele>32.3</ele>
        <time>2022-03-30T12:38:18Z</time>
      </trkpt>
      <trkpt lat="49.91531" lon="2.46764">
        <ele>32.3</ele>
        <time>2022-03-30T12:38:19Z</time>
      </trkpt>
      <trkpt lat="49.91531" lon="2.46764">
        <ele>32.3</ele>
        <time>2022-03-30T12:38:20Z</time>
      </trkpt>
      <trkpt lat="49.91531" lon="2.46764">
        <ele>32.3</ele>
        <time>2022-03-30T12:38:21Z</time>
      </trkpt>
      <trkpt lat="49.91531" lon="2.46764">
        <ele>32.3</ele>
        <time>2022-03-30T12:38:22Z</time>
      </trkpt>
      <trkpt lat="49.91532" lon="2.46763">
        <ele>32.3</ele>
        <time>2022-03-30T12:38:23Z</time>
      </trkpt>
      <trkpt lat="49.91533" lon="2.46762">
        <ele>32.3</ele>
        <time>2022-03-30T12:38:24Z</time>
      </trkpt>
      <trkpt lat="49.91533" lon="2.46761">
        <ele>32.3</ele>
        <time>2022-03-30T12:38:25Z</time>
      </trkpt>
      <trkpt lat="49.91534" lon="2.46761">
        <ele>32.3</ele>
        <time>2022-03-30T12:38:26Z</time>
      </trkpt>
      <trkpt lat="49.91535" lon="2.4676">
        <ele>32.3</ele>
        <time>2022-03-30T12:38:27Z</time>
      </trkpt>
      <trkpt lat="49.91535" lon="2.46759">
        <ele>32.3</ele>
        <time>2022-03-30T12:38:28Z</time>
      </trkpt>
      <trkpt lat="49.91536" lon="2.46758">
        <ele>32.3</ele>
        <time>2022-03-30T12:38:29Z</time>
      </trkpt>
      <trkpt lat="49.91536" lon="2.46758">
        <ele>32.4</ele>
        <time>2022-03-30T12:38:30Z</time>
      </trkpt>
      <trkpt lat="49.91537" lon="2.46757">
        <ele>32.4</ele>
        <time>2022-03-30T12:38:31Z</time>
      </trkpt>
      <trkpt lat="49.91537" lon="2.46756">
        <ele>32.4</ele>
        <time>2022-03-30T12:38:32Z</time>
      </trkpt>
      <trkpt lat="49.91538" lon="2.46755">
        <ele>32.4</ele>
        <time>2022-03-30T12:38:33Z</time>
      </trkpt>
      <trkpt lat="49.91538" lon="2.46755">
        <ele>32.4</ele>
        <time>2022-03-30T12:38:34Z</time>
      </trkpt>
      <trkpt lat="49.91539" lon="2.46754">
        <ele>32.4</ele>
        <time>2022-03-30T12:38:35Z</time>
      </trkpt>
      <trkpt lat="49.9154" lon="2.46753">
        <ele>32.4</ele>
        <time>2022-03-30T12:38:36Z</time>
      </trkpt>
      <trkpt lat="49.91541" lon="2.46752">
        <ele>32.4</ele>
        <time>2022-03-30T12:38:37Z</time>
      </trkpt>
      <trkpt lat="49.91541" lon="2.46751">
        <ele>32.4</ele>
        <time>2022-03-30T12:38:38Z</time>
      </trkpt>
      <trkpt lat="49.91542" lon="2.46751">
        <ele>32.5</ele>
        <time>2022-03-30T12:38:39Z</time>
      </trkpt>
      <trkpt lat="49.91542" lon="2.4675">
        <ele>32.5</ele>
        <time>2022-03-30T12:38:40Z</time>
      </trkpt>
      <trkpt lat="49.91543" lon="2.46749">
        <ele>32.5</ele>
        <time>2022-03-30T12:38:41Z</time>
      </trkpt>
      <trkpt lat="49.91544" lon="2.46748">
        <ele>32.5</ele>
        <time>2022-03-30T12:38:42Z</time>
      </trkpt>
      <trkpt lat="49.91545" lon="2.46747">
        <ele>32.5</ele>
        <time>2022-03-30T12:38:43Z</time>
      </trkpt>
      <trkpt lat="49.91545" lon="2.46747">
        <ele>32.5</ele>
        <time>2022-03-30T12:38:44Z</time>
      </trkpt>
      <trkpt lat="49.91545" lon="2.46747">
        <ele>32.5</ele>
        <time>2022-03-30T12:38:45Z</time>
      </trkpt>
      <trkpt lat="49.91545" lon="2.46746">
        <ele>32.5</ele>
        <time>2022-03-30T12:38:46Z</time>
      </trkpt>
      <trkpt lat="49.91546" lon="2.46745">
        <ele>32.6</ele>
        <time>2022-03-30T12:38:47Z</time>
      </trkpt>
      <trkpt lat="49.91546" lon="2.46744">
        <ele>32.6</ele>
        <time>2022-03-30T12:38:48Z</time>
      </trkpt>
      <trkpt lat="49.91547" lon="2.46743">
        <ele>32.6</ele>
        <time>2022-03-30T12:38:49Z</time>
      </trkpt>
      <trkpt lat="49.91547" lon="2.46742">
        <ele>32.6</ele>
        <time>2022-03-30T12:38:50Z</time>
      </trkpt>
      <trkpt lat="49.91548" lon="2.46742">
        <ele>32.6</ele>
        <time>2022-03-30T12:38:51Z</time>
      </trkpt>
      <trkpt lat="49.91548" lon="2.46741">
        <ele>32.6</ele>
        <time>2022-03-30T12:38:52Z</time>
      </trkpt>
      <trkpt lat="49.91548" lon="2.46741">
        <ele>32.6</ele>
        <time>2022-03-30T12:38:53Z</time>
      </trkpt>
      <trkpt lat="49.91549" lon="2.4674">
        <ele>32.7</ele>
        <time>2022-03-30T12:38:54Z</time>
      </trkpt>
      <trkpt lat="49.9155" lon="2.46738">
        <ele>32.7</ele>
        <time>2022-03-30T12:38:55Z</time>
      </trkpt>
      <trkpt lat="49.91551" lon="2.46737">
        <ele>32.7</ele>
        <time>2022-03-30T12:38:56Z</time>
      </trkpt>
      <trkpt lat="49.91551" lon="2.46736">
        <ele>32.8</ele>
        <time>2022-03-30T12:38:57Z</time>
      </trkpt>
      <trkpt lat="49.91552" lon="2.46735">
        <ele>32.8</ele>
        <time>2022-03-30T12:38:58Z</time>
      </trkpt>
      <trkpt lat="49.91553" lon="2.46734">
        <ele>32.8</ele>
        <time>2022-03-30T12:38:59Z</time>
      </trkpt>
      <trkpt lat="49.91554" lon="2.46733">
        <ele>32.9</ele>
        <time>2022-03-30T12:39:00Z</time>
      </trkpt>
      <trkpt lat="49.91555" lon="2.46731">
        <ele>32.9</ele>
        <time>2022-03-30T12:39:01Z</time>
      </trkpt>
      <trkpt lat="49.91556" lon="2.4673">
        <ele>32.9</ele>
        <time>2022-03-30T12:39:02Z</time>
      </trkpt>
      <trkpt lat="49.91557" lon="2.46729">
        <ele>33</ele>
        <time>2022-03-30T12:39:03Z</time>
      </trkpt>
      <trkpt lat="49.91557" lon="2.46728">
        <ele>33</ele>
        <time>2022-03-30T12:39:04Z</time>
      </trkpt>
      <trkpt lat="49.91558" lon="2.46727">
        <ele>33</ele>
        <time>2022-03-30T12:39:05Z</time>
      </trkpt>
      <trkpt lat="49.91559" lon="2.46726">
        <ele>33.1</ele>
        <time>2022-03-30T12:39:06Z</time>
      </trkpt>
      <trkpt lat="49.9156" lon="2.46725">
        <ele>33.1</ele>
        <time>2022-03-30T12:39:07Z</time>
      </trkpt>
      <trkpt lat="49.91561" lon="2.46724">
        <ele>33.2</ele>
        <time>2022-03-30T12:39:08Z</time>
      </trkpt>
      <trkpt lat="49.91561" lon="2.46723">
        <ele>33.2</ele>
        <time>2022-03-30T12:39:09Z</time>
      </trkpt>
      <trkpt lat="49.91562" lon="2.46721">
        <ele>33.3</ele>
        <time>2022-03-30T12:39:10Z</time>
      </trkpt>
      <trkpt lat="49.91564" lon="2.46719">
        <ele>33.3</ele>
        <time>2022-03-30T12:39:11Z</time>
      </trkpt>
      <trkpt lat="49.91565" lon="2.46718">
        <ele>33.4</ele>
        <time>2022-03-30T12:39:12Z</time>
      </trkpt>
      <trkpt lat="49.91565" lon="2.46717">
        <ele>33.4</ele>
        <time>2022-03-30T12:39:13Z</time>
      </trkpt>
      <trkpt lat="49.91567" lon="2.46715">
        <ele>33.5</ele>
        <time>2022-03-30T12:39:14Z</time>
      </trkpt>
      <trkpt lat="49.91568" lon="2.46714">
        <ele>33.6</ele>
        <time>2022-03-30T12:39:15Z</time>
      </trkpt>
      <trkpt lat="49.91569" lon="2.46713">
        <ele>33.6</ele>
        <time>2022-03-30T12:39:16Z</time>
      </trkpt>
      <trkpt lat="49.9157" lon="2.46711">
        <ele>33.7</ele>
        <time>2022-03-30T12:39:17Z</time>
      </trkpt>
      <trkpt lat="49.91572" lon="2.46709">
        <ele>33.8</ele>
        <time>2022-03-30T12:39:18Z</time>
      </trkpt>
      <trkpt lat="49.91572" lon="2.46708">
        <ele>33.8</ele>
        <time>2022-03-30T12:39:19Z</time>
      </trkpt>
      <trkpt lat="49.91573" lon="2.46707">
        <ele>33.9</ele>
        <time>2022-03-30T12:39:20Z</time>
      </trkpt>
      <trkpt lat="49.91575" lon="2.46705">
        <ele>34</ele>
        <time>2022-03-30T12:39:21Z</time>
      </trkpt>
      <trkpt lat="49.91575" lon="2.46704">
        <ele>34</ele>
        <time>2022-03-30T12:39:22Z</time>
      </trkpt>
      <trkpt lat="49.91576" lon="2.46703">
        <ele>34</ele>
        <time>2022-03-30T12:39:23Z</time>
      </trkpt>
      <trkpt lat="49.91577" lon="2.46702">
        <ele>34.1</ele>
        <time>2022-03-30T12:39:24Z</time>
      </trkpt>
      <trkpt lat="49.91578" lon="2.46701">
        <ele>34.1</ele>
        <time>2022-03-30T12:39:25Z</time>
      </trkpt>
      <trkpt lat="49.91579" lon="2.467">
        <ele>34.2</ele>
        <time>2022-03-30T12:39:26Z</time>
      </trkpt>
      <trkpt lat="49.91579" lon="2.46698">
        <ele>34.2</ele>
        <time>2022-03-30T12:39:27Z</time>
      </trkpt>
      <trkpt lat="49.9158" lon="2.46697">
        <ele>34.3</ele>
        <time>2022-03-30T12:39:28Z</time>
      </trkpt>
      <trkpt lat="49.91581" lon="2.46696">
        <ele>34.3</ele>
        <time>2022-03-30T12:39:29Z</time>
      </trkpt>
      <trkpt lat="49.91582" lon="2.46695">
        <ele>34.4</ele>
        <time>2022-03-30T12:39:30Z</time>
      </trkpt>
      <trkpt lat="49.91583" lon="2.46693">
        <ele>34.5</ele>
        <time>2022-03-30T12:39:31Z</time>
      </trkpt>
      <trkpt lat="49.91583" lon="2.46692">
        <ele>34.5</ele>
        <time>2022-03-30T12:39:32Z</time>
      </trkpt>
      <trkpt lat="49.91584" lon="2.46691">
        <ele>34.6</ele>
        <time>2022-03-30T12:39:33Z</time>
      </trkpt>
      <trkpt lat="49.91585" lon="2.4669">
        <ele>34.6</ele>
        <time>2022-03-30T12:39:34Z</time>
      </trkpt>
      <trkpt lat="49.91586" lon="2.46689">
        <ele>34.6</ele>
        <time>2022-03-30T12:39:35Z</time>
      </trkpt>
      <trkpt lat="49.91586" lon="2.46688">
        <ele>34.7</ele>
        <time>2022-03-30T12:39:36Z</time>
      </trkpt>
      <trkpt lat="49.91587" lon="2.46687">
        <ele>34.7</ele>
        <time>2022-03-30T12:39:37Z</time>
      </trkpt>
      <trkpt lat="49.91588" lon="2.46686">
        <ele>34.8</ele>
        <time>2022-03-30T12:39:38Z</time>
      </trkpt>
      <trkpt lat="49.91589" lon="2.46685">
        <ele>34.8</ele>
        <time>2022-03-30T12:39:39Z</time>
      </trkpt>
      <trkpt lat="49.91589" lon="2.46684">
        <ele>34.9</ele>
        <time>2022-03-30T12:39:40Z</time>
      </trkpt>
      <trkpt lat="49.9159" lon="2.46683">
        <ele>34.9</ele>
        <time>2022-03-30T12:39:41Z</time>
      </trkpt>
      <trkpt lat="49.91591" lon="2.46682">
        <ele>34.9</ele>
        <time>2022-03-30T12:39:42Z</time>
      </trkpt>
      <trkpt lat="49.91591" lon="2.46681">
        <ele>35</ele>
        <time>2022-03-30T12:39:43Z</time>
      </trkpt>
      <trkpt lat="49.91592" lon="2.4668">
        <ele>35</ele>
        <time>2022-03-30T12:39:44Z</time>
      </trkpt>
      <trkpt lat="49.91594" lon="2.46678">
        <ele>35.1</ele>
        <time>2022-03-30T12:39:45Z</time>
      </trkpt>
      <trkpt lat="49.91594" lon="2.46677">
        <ele>35.1</ele>
        <time>2022-03-30T12:39:46Z</time>
      </trkpt>
      <trkpt lat="49.91595" lon="2.46676">
        <ele>35.2</ele>
        <time>2022-03-30T12:39:47Z</time>
      </trkpt>
      <trkpt lat="49.91596" lon="2.46675">
        <ele>35.2</ele>
        <time>2022-03-30T12:39:48Z</time>
      </trkpt>
      <trkpt lat="49.91596" lon="2.46674">
        <ele>35.3</ele>
        <time>2022-03-30T12:39:49Z</time>
      </trkpt>
      <trkpt lat="49.91597" lon="2.46673">
        <ele>35.3</ele>
        <time>2022-03-30T12:39:50Z</time>
      </trkpt>
      <trkpt lat="49.91598" lon="2.46671">
        <ele>35.3</ele>
        <time>2022-03-30T12:39:51Z</time>
      </trkpt>
      <trkpt lat="49.91599" lon="2.4667">
        <ele>35.4</ele>
        <time>2022-03-30T12:39:52Z</time>
      </trkpt>
      <trkpt lat="49.91599" lon="2.46669">
        <ele>35.4</ele>
        <time>2022-03-30T12:39:53Z</time>
      </trkpt>
      <trkpt lat="49.916" lon="2.46668">
        <ele>35.5</ele>
        <time>2022-03-30T12:39:54Z</time>
      </trkpt>
      <trkpt lat="49.91601" lon="2.46667">
        <ele>35.5</ele>
        <time>2022-03-30T12:39:55Z</time>
      </trkpt>
      <trkpt lat="49.91602" lon="2.46666">
        <ele>35.6</ele>
        <time>2022-03-30T12:39:56Z</time>
      </trkpt>
      <trkpt lat="49.91602" lon="2.46665">
        <ele>35.6</ele>
        <time>2022-03-30T12:39:57Z</time>
      </trkpt>
      <trkpt lat="49.91603" lon="2.46664">
        <ele>35.6</ele>
        <time>2022-03-30T12:39:58Z</time>
      </trkpt>
      <trkpt lat="49.91604" lon="2.46662">
        <ele>35.7</ele>
        <time>2022-03-30T12:39:59Z</time>
      </trkpt>
      <trkpt lat="49.91605" lon="2.46661">
        <ele>35.7</ele>
        <time>2022-03-30T12:40:00Z</time>
      </trkpt>
      <trkpt lat="49.91606" lon="2.4666">
        <ele>35.7</ele>
        <time>2022-03-30T12:40:01Z</time>
      </trkpt>
      <trkpt lat="49.91606" lon="2.46658">
        <ele>35.8</ele>
        <time>2022-03-30T12:40:02Z</time>
      </trkpt>
      <trkpt lat="49.91607" lon="2.46657">
        <ele>35.8</ele>
        <time>2022-03-30T12:40:03Z</time>
      </trkpt>
      <trkpt lat="49.91608" lon="2.46656">
        <ele>35.9</ele>
        <time>2022-03-30T12:40:04Z</time>
      </trkpt>
      <trkpt lat="49.91609" lon="2.46655">
        <ele>35.9</ele>
        <time>2022-03-30T12:40:05Z</time>
      </trkpt>
      <trkpt lat="49.9161" lon="2.46654">
        <ele>35.9</ele>
        <time>2022-03-30T12:40:06Z</time>
      </trkpt>
      <trkpt lat="49.9161" lon="2.46653">
        <ele>36</ele>
        <time>2022-03-30T12:40:07Z</time>
      </trkpt>
      <trkpt lat="49.91611" lon="2.46652">
        <ele>36</ele>
        <time>2022-03-30T12:40:08Z</time>
      </trkpt>
      <trkpt lat="49.91613" lon="2.46649">
        <ele>36.1</ele>
        <time>2022-03-30T12:40:09Z</time>
      </trkpt>
      <trkpt lat="49.91614" lon="2.46649">
        <ele>36.1</ele>
        <time>2022-03-30T12:40:10Z</time>
      </trkpt>
      <trkpt lat="49.91614" lon="2.46648">
        <ele>36.2</ele>
        <time>2022-03-30T12:40:11Z</time>
      </trkpt>
      <trkpt lat="49.91615" lon="2.46647">
        <ele>36.2</ele>
        <time>2022-03-30T12:40:12Z</time>
      </trkpt>
      <trkpt lat="49.91616" lon="2.46646">
        <ele>36.2</ele>
        <time>2022-03-30T12:40:13Z</time>
      </trkpt>
      <trkpt lat="49.91617" lon="2.46645">
        <ele>36.3</ele>
        <time>2022-03-30T12:40:14Z</time>
      </trkpt>
      <trkpt lat="49.91618" lon="2.46644">
        <ele>36.3</ele>
        <time>2022-03-30T12:40:15Z</time>
      </trkpt>
      <trkpt lat="49.91618" lon="2.46643">
        <ele>36.4</ele>
        <time>2022-03-30T12:40:16Z</time>
      </trkpt>
      <trkpt lat="49.91619" lon="2.46642">
        <ele>36.4</ele>
        <time>2022-03-30T12:40:17Z</time>
      </trkpt>
      <trkpt lat="49.9162" lon="2.4664">
        <ele>36.5</ele>
        <time>2022-03-30T12:40:18Z</time>
      </trkpt>
      <trkpt lat="49.91621" lon="2.46639">
        <ele>36.5</ele>
        <time>2022-03-30T12:40:19Z</time>
      </trkpt>
      <trkpt lat="49.91622" lon="2.46638">
        <ele>36.6</ele>
        <time>2022-03-30T12:40:20Z</time>
      </trkpt>
      <trkpt lat="49.91623" lon="2.46637">
        <ele>36.6</ele>
        <time>2022-03-30T12:40:21Z</time>
      </trkpt>
      <trkpt lat="49.91623" lon="2.46636">
        <ele>36.7</ele>
        <time>2022-03-30T12:40:22Z</time>
      </trkpt>
      <trkpt lat="49.91624" lon="2.46635">
        <ele>36.7</ele>
        <time>2022-03-30T12:40:23Z</time>
      </trkpt>
      <trkpt lat="49.91626" lon="2.46633">
        <ele>36.8</ele>
        <time>2022-03-30T12:40:24Z</time>
      </trkpt>
      <trkpt lat="49.91626" lon="2.46632">
        <ele>36.9</ele>
        <time>2022-03-30T12:40:25Z</time>
      </trkpt>
      <trkpt lat="49.91627" lon="2.46631">
        <ele>36.9</ele>
        <time>2022-03-30T12:40:26Z</time>
      </trkpt>
      <trkpt lat="49.91628" lon="2.4663">
        <ele>36.9</ele>
        <time>2022-03-30T12:40:27Z</time>
      </trkpt>
      <trkpt lat="49.91629" lon="2.46629">
        <ele>37</ele>
        <time>2022-03-30T12:40:28Z</time>
      </trkpt>
      <trkpt lat="49.9163" lon="2.46628">
        <ele>37.1</ele>
        <time>2022-03-30T12:40:29Z</time>
      </trkpt>
      <trkpt lat="49.91631" lon="2.46626">
        <ele>37.2</ele>
        <time>2022-03-30T12:40:30Z</time>
      </trkpt>
      <trkpt lat="49.91632" lon="2.46625">
        <ele>37.2</ele>
        <time>2022-03-30T12:40:31Z</time>
      </trkpt>
      <trkpt lat="49.91633" lon="2.46624">
        <ele>37.2</ele>
        <time>2022-03-30T12:40:32Z</time>
      </trkpt>
      <trkpt lat="49.91633" lon="2.46623">
        <ele>37.3</ele>
        <time>2022-03-30T12:40:33Z</time>
      </trkpt>
      <trkpt lat="49.91634" lon="2.46622">
        <ele>37.3</ele>
        <time>2022-03-30T12:40:34Z</time>
      </trkpt>
      <trkpt lat="49.91635" lon="2.46621">
        <ele>37.4</ele>
        <time>2022-03-30T12:40:35Z</time>
      </trkpt>
      <trkpt lat="49.91636" lon="2.4662">
        <ele>37.4</ele>
        <time>2022-03-30T12:40:36Z</time>
      </trkpt>
      <trkpt lat="49.91637" lon="2.46618">
        <ele>37.5</ele>
        <time>2022-03-30T12:40:37Z</time>
      </trkpt>
      <trkpt lat="49.91637" lon="2.46617">
        <ele>37.5</ele>
        <time>2022-03-30T12:40:38Z</time>
      </trkpt>
      <trkpt lat="49.91638" lon="2.46616">
        <ele>37.6</ele>
        <time>2022-03-30T12:40:39Z</time>
      </trkpt>
      <trkpt lat="49.91639" lon="2.46615">
        <ele>37.6</ele>
        <time>2022-03-30T12:40:40Z</time>
      </trkpt>
      <trkpt lat="49.9164" lon="2.46614">
        <ele>37.6</ele>
        <time>2022-03-30T12:40:41Z</time>
      </trkpt>
      <trkpt lat="49.9164" lon="2.46613">
        <ele>37.7</ele>
        <time>2022-03-30T12:40:42Z</time>
      </trkpt>
      <trkpt lat="49.91641" lon="2.46612">
        <ele>37.7</ele>
        <time>2022-03-30T12:40:43Z</time>
      </trkpt>
      <trkpt lat="49.91641" lon="2.46611">
        <ele>37.8</ele>
        <time>2022-03-30T12:40:44Z</time>
      </trkpt>
      <trkpt lat="49.91642" lon="2.4661">
        <ele>37.8</ele>
        <time>2022-03-30T12:40:45Z</time>
      </trkpt>
      <trkpt lat="49.91643" lon="2.46608">
        <ele>37.8</ele>
        <time>2022-03-30T12:40:46Z</time>
      </trkpt>
      <trkpt lat="49.91643" lon="2.46607">
        <ele>37.9</ele>
        <time>2022-03-30T12:40:47Z</time>
      </trkpt>
      <trkpt lat="49.91644" lon="2.46606">
        <ele>37.9</ele>
        <time>2022-03-30T12:40:48Z</time>
      </trkpt>
      <trkpt lat="49.91644" lon="2.46605">
        <ele>38</ele>
        <time>2022-03-30T12:40:49Z</time>
      </trkpt>
      <trkpt lat="49.91645" lon="2.46604">
        <ele>38</ele>
        <time>2022-03-30T12:40:50Z</time>
      </trkpt>
      <trkpt lat="49.91646" lon="2.46603">
        <ele>38</ele>
        <time>2022-03-30T12:40:51Z</time>
      </trkpt>
      <trkpt lat="49.91647" lon="2.46601">
        <ele>38.1</ele>
        <time>2022-03-30T12:40:52Z</time>
      </trkpt>
      <trkpt lat="49.91647" lon="2.466">
        <ele>38.1</ele>
        <time>2022-03-30T12:40:53Z</time>
      </trkpt>
      <trkpt lat="49.91648" lon="2.46599">
        <ele>38.2</ele>
        <time>2022-03-30T12:40:54Z</time>
      </trkpt>
      <trkpt lat="49.91649" lon="2.46598">
        <ele>38.2</ele>
        <time>2022-03-30T12:40:55Z</time>
      </trkpt>
      <trkpt lat="49.9165" lon="2.46597">
        <ele>38.3</ele>
        <time>2022-03-30T12:40:56Z</time>
      </trkpt>
      <trkpt lat="49.9165" lon="2.46596">
        <ele>38.3</ele>
        <time>2022-03-30T12:40:57Z</time>
      </trkpt>
      <trkpt lat="49.91651" lon="2.46595">
        <ele>38.4</ele>
        <time>2022-03-30T12:40:58Z</time>
      </trkpt>
      <trkpt lat="49.91652" lon="2.46594">
        <ele>38.4</ele>
        <time>2022-03-30T12:40:59Z</time>
      </trkpt>
      <trkpt lat="49.91653" lon="2.46593">
        <ele>38.5</ele>
        <time>2022-03-30T12:41:00Z</time>
      </trkpt>
      <trkpt lat="49.91654" lon="2.46592">
        <ele>38.5</ele>
        <time>2022-03-30T12:41:01Z</time>
      </trkpt>
      <trkpt lat="49.91655" lon="2.46591">
        <ele>38.5</ele>
        <time>2022-03-30T12:41:02Z</time>
      </trkpt>
      <trkpt lat="49.91655" lon="2.4659">
        <ele>38.6</ele>
        <time>2022-03-30T12:41:03Z</time>
      </trkpt>
      <trkpt lat="49.91656" lon="2.46589">
        <ele>38.6</ele>
        <time>2022-03-30T12:41:04Z</time>
      </trkpt>
      <trkpt lat="49.91657" lon="2.46587">
        <ele>38.7</ele>
        <time>2022-03-30T12:41:05Z</time>
      </trkpt>
      <trkpt lat="49.91658" lon="2.46586">
        <ele>38.8</ele>
        <time>2022-03-30T12:41:06Z</time>
      </trkpt>
      <trkpt lat="49.91659" lon="2.46586">
        <ele>38.8</ele>
        <time>2022-03-30T12:41:07Z</time>
      </trkpt>
      <trkpt lat="49.9166" lon="2.46585">
        <ele>38.8</ele>
        <time>2022-03-30T12:41:08Z</time>
      </trkpt>
      <trkpt lat="49.9166" lon="2.46584">
        <ele>38.9</ele>
        <time>2022-03-30T12:41:09Z</time>
      </trkpt>
      <trkpt lat="49.91661" lon="2.46583">
        <ele>38.9</ele>
        <time>2022-03-30T12:41:10Z</time>
      </trkpt>
      <trkpt lat="49.91662" lon="2.46582">
        <ele>39</ele>
        <time>2022-03-30T12:41:11Z</time>
      </trkpt>
      <trkpt lat="49.91663" lon="2.46581">
        <ele>39</ele>
        <time>2022-03-30T12:41:12Z</time>
      </trkpt>
      <trkpt lat="49.91664" lon="2.4658">
        <ele>39.1</ele>
        <time>2022-03-30T12:41:13Z</time>
      </trkpt>
      <trkpt lat="49.91665" lon="2.46579">
        <ele>39.1</ele>
        <time>2022-03-30T12:41:14Z</time>
      </trkpt>
      <trkpt lat="49.91665" lon="2.46578">
        <ele>39.2</ele>
        <time>2022-03-30T12:41:15Z</time>
      </trkpt>
      <trkpt lat="49.91666" lon="2.46577">
        <ele>39.2</ele>
        <time>2022-03-30T12:41:16Z</time>
      </trkpt>
      <trkpt lat="49.91667" lon="2.46576">
        <ele>39.3</ele>
        <time>2022-03-30T12:41:17Z</time>
      </trkpt>
      <trkpt lat="49.91668" lon="2.46575">
        <ele>39.3</ele>
        <time>2022-03-30T12:41:18Z</time>
      </trkpt>
      <trkpt lat="49.91669" lon="2.46574">
        <ele>39.4</ele>
        <time>2022-03-30T12:41:19Z</time>
      </trkpt>
      <trkpt lat="49.9167" lon="2.46573">
        <ele>39.5</ele>
        <time>2022-03-30T12:41:20Z</time>
      </trkpt>
      <trkpt lat="49.91671" lon="2.46572">
        <ele>39.5</ele>
        <time>2022-03-30T12:41:21Z</time>
      </trkpt>
      <trkpt lat="49.91671" lon="2.46571">
        <ele>39.5</ele>
        <time>2022-03-30T12:41:22Z</time>
      </trkpt>
      <trkpt lat="49.91672" lon="2.4657">
        <ele>39.6</ele>
        <time>2022-03-30T12:41:23Z</time>
      </trkpt>
      <trkpt lat="49.91673" lon="2.46568">
        <ele>39.7</ele>
        <time>2022-03-30T12:41:24Z</time>
      </trkpt>
      <trkpt lat="49.91675" lon="2.46566">
        <ele>39.8</ele>
        <time>2022-03-30T12:41:25Z</time>
      </trkpt>
      <trkpt lat="49.91675" lon="2.46566">
        <ele>39.8</ele>
        <time>2022-03-30T12:41:26Z</time>
      </trkpt>
      <trkpt lat="49.91676" lon="2.46565">
        <ele>39.9</ele>
        <time>2022-03-30T12:41:27Z</time>
      </trkpt>
      <trkpt lat="49.91678" lon="2.46563">
        <ele>40</ele>
        <time>2022-03-30T12:41:28Z</time>
      </trkpt>
      <trkpt lat="49.91679" lon="2.46562">
        <ele>40</ele>
        <time>2022-03-30T12:41:29Z</time>
      </trkpt>
      <trkpt lat="49.91679" lon="2.46561">
        <ele>40</ele>
        <time>2022-03-30T12:41:30Z</time>
      </trkpt>
      <trkpt lat="49.9168" lon="2.4656">
        <ele>40.1</ele>
        <time>2022-03-30T12:41:31Z</time>
      </trkpt>
      <trkpt lat="49.91681" lon="2.46559">
        <ele>40.1</ele>
        <time>2022-03-30T12:41:32Z</time>
      </trkpt>
      <trkpt lat="49.91682" lon="2.46558">
        <ele>40.2</ele>
        <time>2022-03-30T12:41:33Z</time>
      </trkpt>
      <trkpt lat="49.91684" lon="2.46556">
        <ele>40.3</ele>
        <time>2022-03-30T12:41:34Z</time>
      </trkpt>
      <trkpt lat="49.91684" lon="2.46555">
        <ele>40.3</ele>
        <time>2022-03-30T12:41:35Z</time>
      </trkpt>
      <trkpt lat="49.91685" lon="2.46555">
        <ele>40.4</ele>
        <time>2022-03-30T12:41:36Z</time>
      </trkpt>
      <trkpt lat="49.91686" lon="2.46553">
        <ele>40.4</ele>
        <time>2022-03-30T12:41:37Z</time>
      </trkpt>
      <trkpt lat="49.91687" lon="2.46553">
        <ele>40.4</ele>
        <time>2022-03-30T12:41:38Z</time>
      </trkpt>
      <trkpt lat="49.91688" lon="2.46551">
        <ele>40.5</ele>
        <time>2022-03-30T12:41:39Z</time>
      </trkpt>
      <trkpt lat="49.91688" lon="2.4655">
        <ele>40.5</ele>
        <time>2022-03-30T12:41:40Z</time>
      </trkpt>
      <trkpt lat="49.91689" lon="2.46549">
        <ele>40.6</ele>
        <time>2022-03-30T12:41:41Z</time>
      </trkpt>
      <trkpt lat="49.9169" lon="2.46548">
        <ele>40.6</ele>
        <time>2022-03-30T12:41:42Z</time>
      </trkpt>
      <trkpt lat="49.91692" lon="2.46545">
        <ele>40.7</ele>
        <time>2022-03-30T12:41:43Z</time>
      </trkpt>
      <trkpt lat="49.91692" lon="2.46545">
        <ele>40.7</ele>
        <time>2022-03-30T12:41:44Z</time>
      </trkpt>
      <trkpt lat="49.91693" lon="2.46544">
        <ele>40.7</ele>
        <time>2022-03-30T12:41:45Z</time>
      </trkpt>
      <trkpt lat="49.91693" lon="2.46543">
        <ele>40.8</ele>
        <time>2022-03-30T12:41:46Z</time>
      </trkpt>
      <trkpt lat="49.91694" lon="2.46542">
        <ele>40.8</ele>
        <time>2022-03-30T12:41:47Z</time>
      </trkpt>
      <trkpt lat="49.91695" lon="2.4654">
        <ele>40.8</ele>
        <time>2022-03-30T12:41:48Z</time>
      </trkpt>
      <trkpt lat="49.91695" lon="2.46539">
        <ele>40.9</ele>
        <time>2022-03-30T12:41:49Z</time>
      </trkpt>
      <trkpt lat="49.91696" lon="2.46538">
        <ele>40.9</ele>
        <time>2022-03-30T12:41:50Z</time>
      </trkpt>
      <trkpt lat="49.91697" lon="2.46536">
        <ele>41</ele>
        <time>2022-03-30T12:41:51Z</time>
      </trkpt>
      <trkpt lat="49.91698" lon="2.46535">
        <ele>41</ele>
        <time>2022-03-30T12:41:52Z</time>
      </trkpt>
      <trkpt lat="49.91698" lon="2.46534">
        <ele>41</ele>
        <time>2022-03-30T12:41:53Z</time>
      </trkpt>
      <trkpt lat="49.91699" lon="2.46533">
        <ele>41.1</ele>
        <time>2022-03-30T12:41:54Z</time>
      </trkpt>
      <trkpt lat="49.917" lon="2.46532">
        <ele>41.1</ele>
        <time>2022-03-30T12:41:55Z</time>
      </trkpt>
      <trkpt lat="49.917" lon="2.46531">
        <ele>41.1</ele>
        <time>2022-03-30T12:41:56Z</time>
      </trkpt>
      <trkpt lat="49.91701" lon="2.4653">
        <ele>41.2</ele>
        <time>2022-03-30T12:41:57Z</time>
      </trkpt>
      <trkpt lat="49.91702" lon="2.46529">
        <ele>41.2</ele>
        <time>2022-03-30T12:41:58Z</time>
      </trkpt>
      <trkpt lat="49.91703" lon="2.46527">
        <ele>41.3</ele>
        <time>2022-03-30T12:41:59Z</time>
      </trkpt>
      <trkpt lat="49.91703" lon="2.46526">
        <ele>41.3</ele>
        <time>2022-03-30T12:42:00Z</time>
      </trkpt>
      <trkpt lat="49.91704" lon="2.46525">
        <ele>41.3</ele>
        <time>2022-03-30T12:42:01Z</time>
      </trkpt>
      <trkpt lat="49.91705" lon="2.46524">
        <ele>41.4</ele>
        <time>2022-03-30T12:42:02Z</time>
      </trkpt>
      <trkpt lat="49.91705" lon="2.46523">
        <ele>41.4</ele>
        <time>2022-03-30T12:42:03Z</time>
      </trkpt>
      <trkpt lat="49.91706" lon="2.46522">
        <ele>41.5</ele>
        <time>2022-03-30T12:42:04Z</time>
      </trkpt>
      <trkpt lat="49.91707" lon="2.46521">
        <ele>41.5</ele>
        <time>2022-03-30T12:42:05Z</time>
      </trkpt>
      <trkpt lat="49.91708" lon="2.4652">
        <ele>41.6</ele>
        <time>2022-03-30T12:42:06Z</time>
      </trkpt>
      <trkpt lat="49.91709" lon="2.46519">
        <ele>41.6</ele>
        <time>2022-03-30T12:42:07Z</time>
      </trkpt>
      <trkpt lat="49.9171" lon="2.46518">
        <ele>41.7</ele>
        <time>2022-03-30T12:42:08Z</time>
      </trkpt>
      <trkpt lat="49.9171" lon="2.46517">
        <ele>41.7</ele>
        <time>2022-03-30T12:42:09Z</time>
      </trkpt>
      <trkpt lat="49.91711" lon="2.46516">
        <ele>41.7</ele>
        <time>2022-03-30T12:42:10Z</time>
      </trkpt>
      <trkpt lat="49.91712" lon="2.46515">
        <ele>41.8</ele>
        <time>2022-03-30T12:42:11Z</time>
      </trkpt>
      <trkpt lat="49.91713" lon="2.46513">
        <ele>41.8</ele>
        <time>2022-03-30T12:42:12Z</time>
      </trkpt>
      <trkpt lat="49.91713" lon="2.46512">
        <ele>41.9</ele>
        <time>2022-03-30T12:42:13Z</time>
      </trkpt>
      <trkpt lat="49.91714" lon="2.46511">
        <ele>42</ele>
        <time>2022-03-30T12:42:14Z</time>
      </trkpt>
      <trkpt lat="49.91715" lon="2.4651">
        <ele>42</ele>
        <time>2022-03-30T12:42:15Z</time>
      </trkpt>
      <trkpt lat="49.91716" lon="2.46509">
        <ele>42</ele>
        <time>2022-03-30T12:42:16Z</time>
      </trkpt>
      <trkpt lat="49.91716" lon="2.46508">
        <ele>42.1</ele>
        <time>2022-03-30T12:42:17Z</time>
      </trkpt>
      <trkpt lat="49.91717" lon="2.46507">
        <ele>42.1</ele>
        <time>2022-03-30T12:42:18Z</time>
      </trkpt>
      <trkpt lat="49.91718" lon="2.46506">
        <ele>42.2</ele>
        <time>2022-03-30T12:42:19Z</time>
      </trkpt>
      <trkpt lat="49.91719" lon="2.46505">
        <ele>42.2</ele>
        <time>2022-03-30T12:42:20Z</time>
      </trkpt>
      <trkpt lat="49.9172" lon="2.46504">
        <ele>42.3</ele>
        <time>2022-03-30T12:42:21Z</time>
      </trkpt>
      <trkpt lat="49.91721" lon="2.46502">
        <ele>42.4</ele>
        <time>2022-03-30T12:42:22Z</time>
      </trkpt>
      <trkpt lat="49.91722" lon="2.46501">
        <ele>42.4</ele>
        <time>2022-03-30T12:42:23Z</time>
      </trkpt>
      <trkpt lat="49.91722" lon="2.465">
        <ele>42.5</ele>
        <time>2022-03-30T12:42:24Z</time>
      </trkpt>
      <trkpt lat="49.91723" lon="2.46499">
        <ele>42.5</ele>
        <time>2022-03-30T12:42:25Z</time>
      </trkpt>
      <trkpt lat="49.91724" lon="2.46498">
        <ele>42.6</ele>
        <time>2022-03-30T12:42:26Z</time>
      </trkpt>
      <trkpt lat="49.91725" lon="2.46497">
        <ele>42.6</ele>
        <time>2022-03-30T12:42:27Z</time>
      </trkpt>
      <trkpt lat="49.91727" lon="2.46494">
        <ele>42.7</ele>
        <time>2022-03-30T12:42:28Z</time>
      </trkpt>
      <trkpt lat="49.91727" lon="2.46493">
        <ele>42.8</ele>
        <time>2022-03-30T12:42:29Z</time>
      </trkpt>
      <trkpt lat="49.91728" lon="2.46493">
        <ele>42.8</ele>
        <time>2022-03-30T12:42:30Z</time>
      </trkpt>
      <trkpt lat="49.91729" lon="2.46491">
        <ele>42.9</ele>
        <time>2022-03-30T12:42:31Z</time>
      </trkpt>
      <trkpt lat="49.9173" lon="2.4649">
        <ele>42.9</ele>
        <time>2022-03-30T12:42:32Z</time>
      </trkpt>
      <trkpt lat="49.91731" lon="2.46489">
        <ele>43</ele>
        <time>2022-03-30T12:42:33Z</time>
      </trkpt>
      <trkpt lat="49.91732" lon="2.46487">
        <ele>43.1</ele>
        <time>2022-03-30T12:42:34Z</time>
      </trkpt>
      <trkpt lat="49.91733" lon="2.46486">
        <ele>43.1</ele>
        <time>2022-03-30T12:42:35Z</time>
      </trkpt>
      <trkpt lat="49.91733" lon="2.46485">
        <ele>43.2</ele>
        <time>2022-03-30T12:42:36Z</time>
      </trkpt>
      <trkpt lat="49.91735" lon="2.46484">
        <ele>43.2</ele>
        <time>2022-03-30T12:42:37Z</time>
      </trkpt>
      <trkpt lat="49.91736" lon="2.46483">
        <ele>43.3</ele>
        <time>2022-03-30T12:42:38Z</time>
      </trkpt>
      <trkpt lat="49.91737" lon="2.46481">
        <ele>43.4</ele>
        <time>2022-03-30T12:42:39Z</time>
      </trkpt>
      <trkpt lat="49.91737" lon="2.4648">
        <ele>43.4</ele>
        <time>2022-03-30T12:42:40Z</time>
      </trkpt>
      <trkpt lat="49.91738" lon="2.46479">
        <ele>43.5</ele>
        <time>2022-03-30T12:42:41Z</time>
      </trkpt>
      <trkpt lat="49.91739" lon="2.46478">
        <ele>43.5</ele>
        <time>2022-03-30T12:42:42Z</time>
      </trkpt>
      <trkpt lat="49.9174" lon="2.46477">
        <ele>43.6</ele>
        <time>2022-03-30T12:42:43Z</time>
      </trkpt>
      <trkpt lat="49.91741" lon="2.46476">
        <ele>43.7</ele>
        <time>2022-03-30T12:42:44Z</time>
      </trkpt>
      <trkpt lat="49.91742" lon="2.46475">
        <ele>43.7</ele>
        <time>2022-03-30T12:42:45Z</time>
      </trkpt>
      <trkpt lat="49.91742" lon="2.46475">
        <ele>43.8</ele>
        <time>2022-03-30T12:42:46Z</time>
      </trkpt>
      <trkpt lat="49.91743" lon="2.46474">
        <ele>43.8</ele>
        <time>2022-03-30T12:42:47Z</time>
      </trkpt>
      <trkpt lat="49.91744" lon="2.46473">
        <ele>43.9</ele>
        <time>2022-03-30T12:42:48Z</time>
      </trkpt>
      <trkpt lat="49.91744" lon="2.46472">
        <ele>43.9</ele>
        <time>2022-03-30T12:42:49Z</time>
      </trkpt>
      <trkpt lat="49.91745" lon="2.46471">
        <ele>43.9</ele>
        <time>2022-03-30T12:42:50Z</time>
      </trkpt>
      <trkpt lat="49.91746" lon="2.4647">
        <ele>43.9</ele>
        <time>2022-03-30T12:42:51Z</time>
      </trkpt>
      <trkpt lat="49.91746" lon="2.4647">
        <ele>43.9</ele>
        <time>2022-03-30T12:42:52Z</time>
      </trkpt>
      <trkpt lat="49.91747" lon="2.46469">
        <ele>43.9</ele>
        <time>2022-03-30T12:42:53Z</time>
      </trkpt>
      <trkpt lat="49.91748" lon="2.46468">
        <ele>43.9</ele>
        <time>2022-03-30T12:42:54Z</time>
      </trkpt>
      <trkpt lat="49.91748" lon="2.46467">
        <ele>43.9</ele>
        <time>2022-03-30T12:42:55Z</time>
      </trkpt>
      <trkpt lat="49.91749" lon="2.46466">
        <ele>43.9</ele>
        <time>2022-03-30T12:42:56Z</time>
      </trkpt>
      <trkpt lat="49.91749" lon="2.46465">
        <ele>43.9</ele>
        <time>2022-03-30T12:42:57Z</time>
      </trkpt>
      <trkpt lat="49.9175" lon="2.46464">
        <ele>43.9</ele>
        <time>2022-03-30T12:42:58Z</time>
      </trkpt>
      <trkpt lat="49.9175" lon="2.46463">
        <ele>43.9</ele>
        <time>2022-03-30T12:42:59Z</time>
      </trkpt>
      <trkpt lat="49.9175" lon="2.46463">
        <ele>43.9</ele>
        <time>2022-03-30T12:43:00Z</time>
      </trkpt>
      <trkpt lat="49.91749" lon="2.46463">
        <ele>43.9</ele>
        <time>2022-03-30T12:43:01Z</time>
      </trkpt>
      <trkpt lat="49.91749" lon="2.46463">
        <ele>43.9</ele>
        <time>2022-03-30T12:43:02Z</time>
      </trkpt>
      <trkpt lat="49.91749" lon="2.46464">
        <ele>43.9</ele>
        <time>2022-03-30T12:43:03Z</time>
      </trkpt>
      <trkpt lat="49.91748" lon="2.46464">
        <ele>43.9</ele>
        <time>2022-03-30T12:43:04Z</time>
      </trkpt>
      <trkpt lat="49.91748" lon="2.46464">
        <ele>43.9</ele>
        <time>2022-03-30T12:43:05Z</time>
      </trkpt>
      <trkpt lat="49.91748" lon="2.46464">
        <ele>43.9</ele>
        <time>2022-03-30T12:43:06Z</time>
      </trkpt>
      <trkpt lat="49.91748" lon="2.46464">
        <ele>43.9</ele>
        <time>2022-03-30T12:43:07Z</time>
      </trkpt>
      <trkpt lat="49.91748" lon="2.46464">
        <ele>43.9</ele>
        <time>2022-03-30T12:43:08Z</time>
      </trkpt>
      <trkpt lat="49.91748" lon="2.46464">
        <ele>43.9</ele>
        <time>2022-03-30T12:43:09Z</time>
      </trkpt>
      <trkpt lat="49.91748" lon="2.46464">
        <ele>43.9</ele>
        <time>2022-03-30T12:43:10Z</time>
      </trkpt>
      <trkpt lat="49.91748" lon="2.46464">
        <ele>43.9</ele>
        <time>2022-03-30T12:43:11Z</time>
      </trkpt>
      <trkpt lat="49.91748" lon="2.46464">
        <ele>43.9</ele>
        <time>2022-03-30T12:43:12Z</time>
      </trkpt>
      <trkpt lat="49.91748" lon="2.46464">
        <ele>43.9</ele>
        <time>2022-03-30T12:43:13Z</time>
      </trkpt>
      <trkpt lat="49.91748" lon="2.46464">
        <ele>43.9</ele>
        <time>2022-03-30T12:43:14Z</time>
      </trkpt>
      <trkpt lat="49.91748" lon="2.46464">
        <ele>43.9</ele>
        <time>2022-03-30T12:43:16Z</time>
      </trkpt>
      <trkpt lat="49.91748" lon="2.46464">
        <ele>43.9</ele>
        <time>2022-03-30T12:43:17Z</time>
      </trkpt>
      <trkpt lat="49.91748" lon="2.46464">
        <ele>43.9</ele>
        <time>2022-03-30T12:43:18Z</time>
      </trkpt>
      <trkpt lat="49.91748" lon="2.46464">
        <ele>43.9</ele>
        <time>2022-03-30T12:43:19Z</time>
      </trkpt>
      <trkpt lat="49.91748" lon="2.46464">
        <ele>43.9</ele>
        <time>2022-03-30T12:43:20Z</time>
      </trkpt>
      <trkpt lat="49.91748" lon="2.46464">
        <ele>43.9</ele>
        <time>2022-03-30T12:43:21Z</time>
      </trkpt>
      <trkpt lat="49.91748" lon="2.46464">
        <ele>43.9</ele>
        <time>2022-03-30T12:43:22Z</time>
      </trkpt>
      <trkpt lat="49.91748" lon="2.46464">
        <ele>43.9</ele>
        <time>2022-03-30T12:43:23Z</time>
      </trkpt>
      <trkpt lat="49.91748" lon="2.46464">
        <ele>43.9</ele>
        <time>2022-03-30T12:43:24Z</time>
      </trkpt>
      <trkpt lat="49.91748" lon="2.46464">
        <ele>43.9</ele>
        <time>2022-03-30T12:43:25Z</time>
      </trkpt>
      <trkpt lat="49.91748" lon="2.46464">
        <ele>43.9</ele>
        <time>2022-03-30T12:43:26Z</time>
      </trkpt>
      <trkpt lat="49.91748" lon="2.46464">
        <ele>43.9</ele>
        <time>2022-03-30T12:43:27Z</time>
      </trkpt>
      <trkpt lat="49.91748" lon="2.46464">
        <ele>43.9</ele>
        <time>2022-03-30T12:43:28Z</time>
      </trkpt>
      <trkpt lat="49.91748" lon="2.46464">
        <ele>43.9</ele>
        <time>2022-03-30T12:43:29Z</time>
      </trkpt>
      <trkpt lat="49.91748" lon="2.46464">
        <ele>43.9</ele>
        <time>2022-03-30T12:43:30Z</time>
      </trkpt>
      <trkpt lat="49.91747" lon="2.46466">
        <ele>43.9</ele>
        <time>2022-03-30T12:43:31Z</time>
      </trkpt>
      <trkpt lat="49.91747" lon="2.46467">
        <ele>43.9</ele>
        <time>2022-03-30T12:43:32Z</time>
      </trkpt>
      <trkpt lat="49.91747" lon="2.46468">
        <ele>43.9</ele>
        <time>2022-03-30T12:43:33Z</time>
      </trkpt>
      <trkpt lat="49.91747" lon="2.46469">
        <ele>43.9</ele>
        <time>2022-03-30T12:43:34Z</time>
      </trkpt>
      <trkpt lat="49.91747" lon="2.4647">
        <ele>43.9</ele>
        <time>2022-03-30T12:43:35Z</time>
      </trkpt>
      <trkpt lat="49.91747" lon="2.4647">
        <ele>43.9</ele>
        <time>2022-03-30T12:43:36Z</time>
      </trkpt>
      <trkpt lat="49.91748" lon="2.46471">
        <ele>43.9</ele>
        <time>2022-03-30T12:43:37Z</time>
      </trkpt>
      <trkpt lat="49.91748" lon="2.46472">
        <ele>43.8</ele>
        <time>2022-03-30T12:43:38Z</time>
      </trkpt>
      <trkpt lat="49.91748" lon="2.46472">
        <ele>43.8</ele>
        <time>2022-03-30T12:43:39Z</time>
      </trkpt>
      <trkpt lat="49.91748" lon="2.46472">
        <ele>43.8</ele>
        <time>2022-03-30T12:43:40Z</time>
      </trkpt>
      <trkpt lat="49.91748" lon="2.46472">
        <ele>43.8</ele>
        <time>2022-03-30T12:43:41Z</time>
      </trkpt>
      <trkpt lat="49.91748" lon="2.46472">
        <ele>43.8</ele>
        <time>2022-03-30T12:43:42Z</time>
      </trkpt>
      <trkpt lat="49.91748" lon="2.46472">
        <ele>43.8</ele>
        <time>2022-03-30T12:43:43Z</time>
      </trkpt>
      <trkpt lat="49.91748" lon="2.46472">
        <ele>43.8</ele>
        <time>2022-03-30T12:43:44Z</time>
      </trkpt>
      <trkpt lat="49.91748" lon="2.46472">
        <ele>43.8</ele>
        <time>2022-03-30T12:43:45Z</time>
      </trkpt>
      <trkpt lat="49.91748" lon="2.46472">
        <ele>43.8</ele>
        <time>2022-03-30T12:43:46Z</time>
      </trkpt>
      <trkpt lat="49.91748" lon="2.46472">
        <ele>43.8</ele>
        <time>2022-03-30T12:43:47Z</time>
      </trkpt>
      <trkpt lat="49.91748" lon="2.46472">
        <ele>43.8</ele>
        <time>2022-03-30T12:43:48Z</time>
      </trkpt>
      <trkpt lat="49.91748" lon="2.46472">
        <ele>43.8</ele>
        <time>2022-03-30T12:43:49Z</time>
      </trkpt>
      <trkpt lat="49.91748" lon="2.46472">
        <ele>43.8</ele>
        <time>2022-03-30T12:43:50Z</time>
      </trkpt>
      <trkpt lat="49.91748" lon="2.46472">
        <ele>43.8</ele>
        <time>2022-03-30T12:43:51Z</time>
      </trkpt>
      <trkpt lat="49.91748" lon="2.46472">
        <ele>43.8</ele>
        <time>2022-03-30T12:43:52Z</time>
      </trkpt>
      <trkpt lat="49.91748" lon="2.46472">
        <ele>43.8</ele>
        <time>2022-03-30T12:43:53Z</time>
      </trkpt>
      <trkpt lat="49.91748" lon="2.46472">
        <ele>43.8</ele>
        <time>2022-03-30T12:43:54Z</time>
      </trkpt>
      <trkpt lat="49.91748" lon="2.46472">
        <ele>43.8</ele>
        <time>2022-03-30T12:43:55Z</time>
      </trkpt>
      <trkpt lat="49.91748" lon="2.46472">
        <ele>43.8</ele>
        <time>2022-03-30T12:43:56Z</time>
      </trkpt>
      <trkpt lat="49.91748" lon="2.46472">
        <ele>43.8</ele>
        <time>2022-03-30T12:43:57Z</time>
      </trkpt>
      <trkpt lat="49.91748" lon="2.46472">
        <ele>43.8</ele>
        <time>2022-03-30T12:43:58Z</time>
      </trkpt>
      <trkpt lat="49.91748" lon="2.46472">
        <ele>43.8</ele>
        <time>2022-03-30T12:43:59Z</time>
      </trkpt>
      <trkpt lat="49.91748" lon="2.46472">
        <ele>43.8</ele>
        <time>2022-03-30T12:44:00Z</time>
      </trkpt>
      <trkpt lat="49.91748" lon="2.46472">
        <ele>43.8</ele>
        <time>2022-03-30T12:44:01Z</time>
      </trkpt>
      <trkpt lat="49.91748" lon="2.46472">
        <ele>43.8</ele>
        <time>2022-03-30T12:44:02Z</time>
      </trkpt>
      <trkpt lat="49.91748" lon="2.46472">
        <ele>43.8</ele>
        <time>2022-03-30T12:44:03Z</time>
      </trkpt>
      <trkpt lat="49.91748" lon="2.46472">
        <ele>43.8</ele>
        <time>2022-03-30T12:44:04Z</time>
      </trkpt>
      <trkpt lat="49.91748" lon="2.46472">
        <ele>43.8</ele>
        <time>2022-03-30T12:44:05Z</time>
      </trkpt>
      <trkpt lat="49.91748" lon="2.46472">
        <ele>43.8</ele>
        <time>2022-03-30T12:44:06Z</time>
      </trkpt>
      <trkpt lat="49.91748" lon="2.46472">
        <ele>43.8</ele>
        <time>2022-03-30T12:44:07Z</time>
      </trkpt>
      <trkpt lat="49.91748" lon="2.46472">
        <ele>43.8</ele>
        <time>2022-03-30T12:44:08Z</time>
      </trkpt>
      <trkpt lat="49.91748" lon="2.46472">
        <ele>43.8</ele>
        <time>2022-03-30T12:44:09Z</time>
      </trkpt>
      <trkpt lat="49.91748" lon="2.46472">
        <ele>43.8</ele>
        <time>2022-03-30T12:44:10Z</time>
      </trkpt>
      <trkpt lat="49.91748" lon="2.46472">
        <ele>43.8</ele>
        <time>2022-03-30T12:44:11Z</time>
      </trkpt>
      <trkpt lat="49.91748" lon="2.46472">
        <ele>43.8</ele>
        <time>2022-03-30T12:44:12Z</time>
      </trkpt>
      <trkpt lat="49.91748" lon="2.46472">
        <ele>43.8</ele>
        <time>2022-03-30T12:44:13Z</time>
      </trkpt>
      <trkpt lat="49.91748" lon="2.46472">
        <ele>43.8</ele>
        <time>2022-03-30T12:44:14Z</time>
      </trkpt>
      <trkpt lat="49.91748" lon="2.46472">
        <ele>43.8</ele>
        <time>2022-03-30T12:44:15Z</time>
      </trkpt>
      <trkpt lat="49.91748" lon="2.46472">
        <ele>43.8</ele>
        <time>2022-03-30T12:44:16Z</time>
      </trkpt>
      <trkpt lat="49.91748" lon="2.46472">
        <ele>43.8</ele>
        <time>2022-03-30T12:44:17Z</time>
      </trkpt>
      <trkpt lat="49.91748" lon="2.46472">
        <ele>43.8</ele>
        <time>2022-03-30T12:44:18Z</time>
      </trkpt>
      <trkpt lat="49.91748" lon="2.46472">
        <ele>43.8</ele>
        <time>2022-03-30T12:44:19Z</time>
      </trkpt>
      <trkpt lat="49.91748" lon="2.46472">
        <ele>43.8</ele>
        <time>2022-03-30T12:44:20Z</time>
      </trkpt>
      <trkpt lat="49.91748" lon="2.46472">
        <ele>43.8</ele>
        <time>2022-03-30T12:44:21Z</time>
      </trkpt>
      <trkpt lat="49.91748" lon="2.46472">
        <ele>43.8</ele>
        <time>2022-03-30T12:44:22Z</time>
      </trkpt>
      <trkpt lat="49.91748" lon="2.46472">
        <ele>43.8</ele>
        <time>2022-03-30T12:44:23Z</time>
      </trkpt>
      <trkpt lat="49.91748" lon="2.46472">
        <ele>43.8</ele>
        <time>2022-03-30T12:44:24Z</time>
      </trkpt>
      <trkpt lat="49.91748" lon="2.46472">
        <ele>43.8</ele>
        <time>2022-03-30T12:44:25Z</time>
      </trkpt>
      <trkpt lat="49.91748" lon="2.46472">
        <ele>43.8</ele>
        <time>2022-03-30T12:44:26Z</time>
      </trkpt>
      <trkpt lat="49.91748" lon="2.46472">
        <ele>43.8</ele>
        <time>2022-03-30T12:44:27Z</time>
      </trkpt>
      <trkpt lat="49.91748" lon="2.46472">
        <ele>43.8</ele>
        <time>2022-03-30T12:44:28Z</time>
      </trkpt>
      <trkpt lat="49.91748" lon="2.46472">
        <ele>43.8</ele>
        <time>2022-03-30T12:44:29Z</time>
      </trkpt>
      <trkpt lat="49.91748" lon="2.46472">
        <ele>43.8</ele>
        <time>2022-03-30T12:44:30Z</time>
      </trkpt>
      <trkpt lat="49.91748" lon="2.46472">
        <ele>43.8</ele>
        <time>2022-03-30T12:44:31Z</time>
      </trkpt>
      <trkpt lat="49.91748" lon="2.46472">
        <ele>43.8</ele>
        <time>2022-03-30T12:44:32Z</time>
      </trkpt>
      <trkpt lat="49.91747" lon="2.46472">
        <ele>43.8</ele>
        <time>2022-03-30T12:44:33Z</time>
      </trkpt>
      <trkpt lat="49.91747" lon="2.46472">
        <ele>43.8</ele>
        <time>2022-03-30T12:44:34Z</time>
      </trkpt>
      <trkpt lat="49.91748" lon="2.46474">
        <ele>43.8</ele>
        <time>2022-03-30T12:44:35Z</time>
      </trkpt>
      <trkpt lat="49.91749" lon="2.46476">
        <ele>43.8</ele>
        <time>2022-03-30T12:44:36Z</time>
      </trkpt>
      <trkpt lat="49.91749" lon="2.46477">
        <ele>43.8</ele>
        <time>2022-03-30T12:44:37Z</time>
      </trkpt>
      <trkpt lat="49.9175" lon="2.46479">
        <ele>43.7</ele>
        <time>2022-03-30T12:44:38Z</time>
      </trkpt>
      <trkpt lat="49.91751" lon="2.46481">
        <ele>43.7</ele>
        <time>2022-03-30T12:44:39Z</time>
      </trkpt>
      <trkpt lat="49.91752" lon="2.46483">
        <ele>43.7</ele>
        <time>2022-03-30T12:44:40Z</time>
      </trkpt>
      <trkpt lat="49.91753" lon="2.46486">
        <ele>43.7</ele>
        <time>2022-03-30T12:44:41Z</time>
      </trkpt>
      <trkpt lat="49.91753" lon="2.46488">
        <ele>43.7</ele>
        <time>2022-03-30T12:44:42Z</time>
      </trkpt>
      <trkpt lat="49.91753" lon="2.46489">
        <ele>43.6</ele>
        <time>2022-03-30T12:44:43Z</time>
      </trkpt>
      <trkpt lat="49.91754" lon="2.46492">
        <ele>43.6</ele>
        <time>2022-03-30T12:44:44Z</time>
      </trkpt>
      <trkpt lat="49.91754" lon="2.46493">
        <ele>43.6</ele>
        <time>2022-03-30T12:44:45Z</time>
      </trkpt>
      <trkpt lat="49.91755" lon="2.46495">
        <ele>43.6</ele>
        <time>2022-03-30T12:44:46Z</time>
      </trkpt>
      <trkpt lat="49.91755" lon="2.46498">
        <ele>43.5</ele>
        <time>2022-03-30T12:44:47Z</time>
      </trkpt>
      <trkpt lat="49.91755" lon="2.46499">
        <ele>43.5</ele>
        <time>2022-03-30T12:44:48Z</time>
      </trkpt>
      <trkpt lat="49.91756" lon="2.465">
        <ele>43.5</ele>
        <time>2022-03-30T12:44:49Z</time>
      </trkpt>
      <trkpt lat="49.91756" lon="2.46502">
        <ele>43.5</ele>
        <time>2022-03-30T12:44:50Z</time>
      </trkpt>
      <trkpt lat="49.91756" lon="2.46504">
        <ele>43.4</ele>
        <time>2022-03-30T12:44:51Z</time>
      </trkpt>
      <trkpt lat="49.91756" lon="2.46505">
        <ele>43.4</ele>
        <time>2022-03-30T12:44:52Z</time>
      </trkpt>
      <trkpt lat="49.91756" lon="2.46507">
        <ele>43.4</ele>
        <time>2022-03-30T12:44:53Z</time>
      </trkpt>
      <trkpt lat="49.91756" lon="2.46508">
        <ele>43.4</ele>
        <time>2022-03-30T12:44:54Z</time>
      </trkpt>
      <trkpt lat="49.91757" lon="2.4651">
        <ele>43.4</ele>
        <time>2022-03-30T12:44:55Z</time>
      </trkpt>
      <trkpt lat="49.91757" lon="2.46513">
        <ele>43.3</ele>
        <time>2022-03-30T12:44:56Z</time>
      </trkpt>
      <trkpt lat="49.91757" lon="2.46514">
        <ele>43.3</ele>
        <time>2022-03-30T12:44:57Z</time>
      </trkpt>
      <trkpt lat="49.91758" lon="2.46515">
        <ele>43.3</ele>
        <time>2022-03-30T12:44:58Z</time>
      </trkpt>
      <trkpt lat="49.91758" lon="2.46517">
        <ele>43.3</ele>
        <time>2022-03-30T12:44:59Z</time>
      </trkpt>
      <trkpt lat="49.91758" lon="2.46519">
        <ele>43.3</ele>
        <time>2022-03-30T12:45:00Z</time>
      </trkpt>
      <trkpt lat="49.91758" lon="2.4652">
        <ele>43.2</ele>
        <time>2022-03-30T12:45:01Z</time>
      </trkpt>
      <trkpt lat="49.91758" lon="2.46521">
        <ele>43.2</ele>
        <time>2022-03-30T12:45:02Z</time>
      </trkpt>
      <trkpt lat="49.91758" lon="2.46523">
        <ele>43.2</ele>
        <time>2022-03-30T12:45:03Z</time>
      </trkpt>
      <trkpt lat="49.91759" lon="2.46525">
        <ele>43.2</ele>
        <time>2022-03-30T12:45:04Z</time>
      </trkpt>
      <trkpt lat="49.91759" lon="2.46527">
        <ele>43.2</ele>
        <time>2022-03-30T12:45:05Z</time>
      </trkpt>
      <trkpt lat="49.91759" lon="2.46529">
        <ele>43.2</ele>
        <time>2022-03-30T12:45:06Z</time>
      </trkpt>
      <trkpt lat="49.91759" lon="2.4653">
        <ele>43.1</ele>
        <time>2022-03-30T12:45:07Z</time>
      </trkpt>
      <trkpt lat="49.9176" lon="2.46532">
        <ele>43.1</ele>
        <time>2022-03-30T12:45:08Z</time>
      </trkpt>
      <trkpt lat="49.9176" lon="2.46534">
        <ele>43.1</ele>
        <time>2022-03-30T12:45:09Z</time>
      </trkpt>
      <trkpt lat="49.9176" lon="2.46536">
        <ele>43.1</ele>
        <time>2022-03-30T12:45:10Z</time>
      </trkpt>
      <trkpt lat="49.9176" lon="2.46538">
        <ele>43.1</ele>
        <time>2022-03-30T12:45:11Z</time>
      </trkpt>
      <trkpt lat="49.91761" lon="2.46539">
        <ele>43.1</ele>
        <time>2022-03-30T12:45:12Z</time>
      </trkpt>
      <trkpt lat="49.91761" lon="2.46541">
        <ele>43.1</ele>
        <time>2022-03-30T12:45:13Z</time>
      </trkpt>
      <trkpt lat="49.91761" lon="2.46543">
        <ele>43.1</ele>
        <time>2022-03-30T12:45:14Z</time>
      </trkpt>
      <trkpt lat="49.91762" lon="2.46546">
        <ele>43.1</ele>
        <time>2022-03-30T12:45:15Z</time>
      </trkpt>
      <trkpt lat="49.91762" lon="2.46548">
        <ele>43.1</ele>
        <time>2022-03-30T12:45:16Z</time>
      </trkpt>
      <trkpt lat="49.91762" lon="2.46549">
        <ele>43.1</ele>
        <time>2022-03-30T12:45:17Z</time>
      </trkpt>
      <trkpt lat="49.91762" lon="2.46552">
        <ele>43</ele>
        <time>2022-03-30T12:45:18Z</time>
      </trkpt>
      <trkpt lat="49.91763" lon="2.46554">
        <ele>43</ele>
        <time>2022-03-30T12:45:19Z</time>
      </trkpt>
      <trkpt lat="49.91763" lon="2.46555">
        <ele>43</ele>
        <time>2022-03-30T12:45:20Z</time>
      </trkpt>
      <trkpt lat="49.91763" lon="2.46558">
        <ele>43</ele>
        <time>2022-03-30T12:45:21Z</time>
      </trkpt>
      <trkpt lat="49.91764" lon="2.46559">
        <ele>43</ele>
        <time>2022-03-30T12:45:22Z</time>
      </trkpt>
      <trkpt lat="49.91764" lon="2.46561">
        <ele>43</ele>
        <time>2022-03-30T12:45:23Z</time>
      </trkpt>
      <trkpt lat="49.91764" lon="2.46564">
        <ele>43</ele>
        <time>2022-03-30T12:45:24Z</time>
      </trkpt>
      <trkpt lat="49.91764" lon="2.46565">
        <ele>43</ele>
        <time>2022-03-30T12:45:25Z</time>
      </trkpt>
      <trkpt lat="49.91765" lon="2.46566">
        <ele>42.9</ele>
        <time>2022-03-30T12:45:26Z</time>
      </trkpt>
      <trkpt lat="49.91765" lon="2.46568">
        <ele>42.9</ele>
        <time>2022-03-30T12:45:27Z</time>
      </trkpt>
      <trkpt lat="49.91765" lon="2.4657">
        <ele>42.9</ele>
        <time>2022-03-30T12:45:28Z</time>
      </trkpt>
      <trkpt lat="49.91765" lon="2.46572">
        <ele>42.9</ele>
        <time>2022-03-30T12:45:29Z</time>
      </trkpt>
      <trkpt lat="49.91766" lon="2.46575">
        <ele>42.9</ele>
        <time>2022-03-30T12:45:30Z</time>
      </trkpt>
      <trkpt lat="49.91766" lon="2.46576">
        <ele>42.9</ele>
        <time>2022-03-30T12:45:31Z</time>
      </trkpt>
      <trkpt lat="49.91766" lon="2.46578">
        <ele>42.9</ele>
        <time>2022-03-30T12:45:32Z</time>
      </trkpt>
      <trkpt lat="49.91767" lon="2.46579">
        <ele>42.8</ele>
        <time>2022-03-30T12:45:33Z</time>
      </trkpt>
      <trkpt lat="49.91767" lon="2.46581">
        <ele>42.8</ele>
        <time>2022-03-30T12:45:34Z</time>
      </trkpt>
      <trkpt lat="49.91767" lon="2.46583">
        <ele>42.8</ele>
        <time>2022-03-30T12:45:35Z</time>
      </trkpt>
      <trkpt lat="49.91767" lon="2.46584">
        <ele>42.8</ele>
        <time>2022-03-30T12:45:36Z</time>
      </trkpt>
      <trkpt lat="49.91768" lon="2.46585">
        <ele>42.8</ele>
        <time>2022-03-30T12:45:37Z</time>
      </trkpt>
      <trkpt lat="49.91768" lon="2.46588">
        <ele>42.8</ele>
        <time>2022-03-30T12:45:38Z</time>
      </trkpt>
      <trkpt lat="49.91769" lon="2.46591">
        <ele>42.8</ele>
        <time>2022-03-30T12:45:39Z</time>
      </trkpt>
      <trkpt lat="49.91769" lon="2.46592">
        <ele>42.7</ele>
        <time>2022-03-30T12:45:40Z</time>
      </trkpt>
      <trkpt lat="49.91769" lon="2.46593">
        <ele>42.7</ele>
        <time>2022-03-30T12:45:41Z</time>
      </trkpt>
      <trkpt lat="49.9177" lon="2.46596">
        <ele>42.7</ele>
        <time>2022-03-30T12:45:42Z</time>
      </trkpt>
      <trkpt lat="49.9177" lon="2.46598">
        <ele>42.7</ele>
        <time>2022-03-30T12:45:43Z</time>
      </trkpt>
      <trkpt lat="49.91771" lon="2.46599">
        <ele>42.7</ele>
        <time>2022-03-30T12:45:44Z</time>
      </trkpt>
      <trkpt lat="49.91772" lon="2.46602">
        <ele>42.7</ele>
        <time>2022-03-30T12:45:45Z</time>
      </trkpt>
      <trkpt lat="49.91772" lon="2.46603">
        <ele>42.7</ele>
        <time>2022-03-30T12:45:46Z</time>
      </trkpt>
      <trkpt lat="49.91772" lon="2.46604">
        <ele>42.6</ele>
        <time>2022-03-30T12:45:47Z</time>
      </trkpt>
      <trkpt lat="49.91773" lon="2.46606">
        <ele>42.6</ele>
        <time>2022-03-30T12:45:48Z</time>
      </trkpt>
      <trkpt lat="49.91773" lon="2.46608">
        <ele>42.6</ele>
        <time>2022-03-30T12:45:49Z</time>
      </trkpt>
      <trkpt lat="49.91774" lon="2.46609">
        <ele>42.6</ele>
        <time>2022-03-30T12:45:50Z</time>
      </trkpt>
      <trkpt lat="49.91774" lon="2.46611">
        <ele>42.6</ele>
        <time>2022-03-30T12:45:51Z</time>
      </trkpt>
      <trkpt lat="49.91774" lon="2.46612">
        <ele>42.6</ele>
        <time>2022-03-30T12:45:52Z</time>
      </trkpt>
      <trkpt lat="49.91775" lon="2.46614">
        <ele>42.6</ele>
        <time>2022-03-30T12:45:53Z</time>
      </trkpt>
      <trkpt lat="49.91775" lon="2.46616">
        <ele>42.6</ele>
        <time>2022-03-30T12:45:54Z</time>
      </trkpt>
      <trkpt lat="49.91775" lon="2.46617">
        <ele>42.6</ele>
        <time>2022-03-30T12:45:55Z</time>
      </trkpt>
      <trkpt lat="49.91776" lon="2.46619">
        <ele>42.6</ele>
        <time>2022-03-30T12:45:56Z</time>
      </trkpt>
      <trkpt lat="49.91776" lon="2.46621">
        <ele>42.5</ele>
        <time>2022-03-30T12:45:57Z</time>
      </trkpt>
      <trkpt lat="49.91777" lon="2.46622">
        <ele>42.5</ele>
        <time>2022-03-30T12:45:58Z</time>
      </trkpt>
      <trkpt lat="49.91777" lon="2.46624">
        <ele>42.5</ele>
        <time>2022-03-30T12:45:59Z</time>
      </trkpt>
      <trkpt lat="49.91778" lon="2.46627">
        <ele>42.5</ele>
        <time>2022-03-30T12:46:00Z</time>
      </trkpt>
      <trkpt lat="49.91778" lon="2.46628">
        <ele>42.5</ele>
        <time>2022-03-30T12:46:01Z</time>
      </trkpt>
      <trkpt lat="49.91778" lon="2.46629">
        <ele>42.5</ele>
        <time>2022-03-30T12:46:02Z</time>
      </trkpt>
      <trkpt lat="49.91779" lon="2.46632">
        <ele>42.5</ele>
        <time>2022-03-30T12:46:03Z</time>
      </trkpt>
      <trkpt lat="49.91779" lon="2.46633">
        <ele>42.5</ele>
        <time>2022-03-30T12:46:04Z</time>
      </trkpt>
      <trkpt lat="49.91779" lon="2.46634">
        <ele>42.5</ele>
        <time>2022-03-30T12:46:05Z</time>
      </trkpt>
      <trkpt lat="49.9178" lon="2.46635">
        <ele>42.5</ele>
        <time>2022-03-30T12:46:06Z</time>
      </trkpt>
      <trkpt lat="49.9178" lon="2.46636">
        <ele>42.5</ele>
        <time>2022-03-30T12:46:07Z</time>
      </trkpt>
      <trkpt lat="49.9178" lon="2.46638">
        <ele>42.5</ele>
        <time>2022-03-30T12:46:08Z</time>
      </trkpt>
      <trkpt lat="49.91781" lon="2.4664">
        <ele>42.5</ele>
        <time>2022-03-30T12:46:09Z</time>
      </trkpt>
      <trkpt lat="49.91781" lon="2.46642">
        <ele>42.5</ele>
        <time>2022-03-30T12:46:10Z</time>
      </trkpt>
      <trkpt lat="49.91782" lon="2.46644">
        <ele>42.5</ele>
        <time>2022-03-30T12:46:11Z</time>
      </trkpt>
      <trkpt lat="49.91782" lon="2.46645">
        <ele>42.5</ele>
        <time>2022-03-30T12:46:12Z</time>
      </trkpt>
      <trkpt lat="49.91782" lon="2.46647">
        <ele>42.4</ele>
        <time>2022-03-30T12:46:13Z</time>
      </trkpt>
      <trkpt lat="49.91783" lon="2.46649">
        <ele>42.4</ele>
        <time>2022-03-30T12:46:14Z</time>
      </trkpt>
      <trkpt lat="49.91783" lon="2.4665">
        <ele>42.4</ele>
        <time>2022-03-30T12:46:15Z</time>
      </trkpt>
      <trkpt lat="49.91783" lon="2.46653">
        <ele>42.4</ele>
        <time>2022-03-30T12:46:16Z</time>
      </trkpt>
      <trkpt lat="49.91784" lon="2.46654">
        <ele>42.4</ele>
        <time>2022-03-30T12:46:17Z</time>
      </trkpt>
      <trkpt lat="49.91784" lon="2.46655">
        <ele>42.4</ele>
        <time>2022-03-30T12:46:18Z</time>
      </trkpt>
      <trkpt lat="49.91784" lon="2.46656">
        <ele>42.4</ele>
        <time>2022-03-30T12:46:19Z</time>
      </trkpt>
      <trkpt lat="49.91785" lon="2.46659">
        <ele>42.4</ele>
        <time>2022-03-30T12:46:20Z</time>
      </trkpt>
      <trkpt lat="49.91785" lon="2.4666">
        <ele>42.4</ele>
        <time>2022-03-30T12:46:21Z</time>
      </trkpt>
      <trkpt lat="49.91786" lon="2.46661">
        <ele>42.4</ele>
        <time>2022-03-30T12:46:22Z</time>
      </trkpt>
      <trkpt lat="49.91786" lon="2.46665">
        <ele>42.3</ele>
        <time>2022-03-30T12:46:23Z</time>
      </trkpt>
      <trkpt lat="49.91787" lon="2.46666">
        <ele>42.3</ele>
        <time>2022-03-30T12:46:24Z</time>
      </trkpt>
      <trkpt lat="49.91787" lon="2.46667">
        <ele>42.3</ele>
        <time>2022-03-30T12:46:25Z</time>
      </trkpt>
      <trkpt lat="49.91788" lon="2.4667">
        <ele>42.3</ele>
        <time>2022-03-30T12:46:26Z</time>
      </trkpt>
      <trkpt lat="49.91788" lon="2.46672">
        <ele>42.3</ele>
        <time>2022-03-30T12:46:27Z</time>
      </trkpt>
      <trkpt lat="49.91788" lon="2.46673">
        <ele>42.3</ele>
        <time>2022-03-30T12:46:28Z</time>
      </trkpt>
      <trkpt lat="49.91789" lon="2.46676">
        <ele>42.3</ele>
        <time>2022-03-30T12:46:29Z</time>
      </trkpt>
      <trkpt lat="49.9179" lon="2.46678">
        <ele>42.3</ele>
        <time>2022-03-30T12:46:30Z</time>
      </trkpt>
      <trkpt lat="49.9179" lon="2.46679">
        <ele>42.3</ele>
        <time>2022-03-30T12:46:31Z</time>
      </trkpt>
      <trkpt lat="49.9179" lon="2.46681">
        <ele>42.2</ele>
        <time>2022-03-30T12:46:32Z</time>
      </trkpt>
      <trkpt lat="49.91791" lon="2.46683">
        <ele>42.2</ele>
        <time>2022-03-30T12:46:33Z</time>
      </trkpt>
      <trkpt lat="49.91792" lon="2.46685">
        <ele>42.2</ele>
        <time>2022-03-30T12:46:34Z</time>
      </trkpt>
      <trkpt lat="49.91792" lon="2.46687">
        <ele>42.2</ele>
        <time>2022-03-30T12:46:35Z</time>
      </trkpt>
      <trkpt lat="49.91793" lon="2.4669">
        <ele>42.2</ele>
        <time>2022-03-30T12:46:36Z</time>
      </trkpt>
      <trkpt lat="49.91794" lon="2.46691">
        <ele>42.2</ele>
        <time>2022-03-30T12:46:37Z</time>
      </trkpt>
      <trkpt lat="49.91794" lon="2.46692">
        <ele>42.2</ele>
        <time>2022-03-30T12:46:38Z</time>
      </trkpt>
      <trkpt lat="49.91795" lon="2.46694">
        <ele>42.2</ele>
        <time>2022-03-30T12:46:39Z</time>
      </trkpt>
      <trkpt lat="49.91795" lon="2.46696">
        <ele>42.2</ele>
        <time>2022-03-30T12:46:40Z</time>
      </trkpt>
      <trkpt lat="49.91795" lon="2.46699">
        <ele>42.2</ele>
        <time>2022-03-30T12:46:41Z</time>
      </trkpt>
      <trkpt lat="49.91796" lon="2.46701">
        <ele>42.1</ele>
        <time>2022-03-30T12:46:42Z</time>
      </trkpt>
      <trkpt lat="49.91796" lon="2.46702">
        <ele>42.1</ele>
        <time>2022-03-30T12:46:43Z</time>
      </trkpt>
      <trkpt lat="49.91796" lon="2.46706">
        <ele>42.1</ele>
        <time>2022-03-30T12:46:44Z</time>
      </trkpt>
      <trkpt lat="49.91796" lon="2.46707">
        <ele>42.1</ele>
        <time>2022-03-30T12:46:45Z</time>
      </trkpt>
      <trkpt lat="49.91796" lon="2.46708">
        <ele>42.1</ele>
        <time>2022-03-30T12:46:46Z</time>
      </trkpt>
      <trkpt lat="49.91797" lon="2.46711">
        <ele>42.1</ele>
        <time>2022-03-30T12:46:47Z</time>
      </trkpt>
      <trkpt lat="49.91797" lon="2.46713">
        <ele>42.1</ele>
        <time>2022-03-30T12:46:48Z</time>
      </trkpt>
      <trkpt lat="49.91798" lon="2.46714">
        <ele>42.1</ele>
        <time>2022-03-30T12:46:49Z</time>
      </trkpt>
      <trkpt lat="49.91798" lon="2.46715">
        <ele>42.1</ele>
        <time>2022-03-30T12:46:50Z</time>
      </trkpt>
      <trkpt lat="49.91799" lon="2.46717">
        <ele>42.1</ele>
        <time>2022-03-30T12:46:51Z</time>
      </trkpt>
      <trkpt lat="49.918" lon="2.46718">
        <ele>42.1</ele>
        <time>2022-03-30T12:46:52Z</time>
      </trkpt>
      <trkpt lat="49.91801" lon="2.46719">
        <ele>42</ele>
        <time>2022-03-30T12:46:53Z</time>
      </trkpt>
      <trkpt lat="49.91801" lon="2.46721">
        <ele>42</ele>
        <time>2022-03-30T12:46:54Z</time>
      </trkpt>
      <trkpt lat="49.91802" lon="2.46722">
        <ele>42</ele>
        <time>2022-03-30T12:46:55Z</time>
      </trkpt>
      <trkpt lat="49.91803" lon="2.46723">
        <ele>42</ele>
        <time>2022-03-30T12:46:56Z</time>
      </trkpt>
      <trkpt lat="49.91803" lon="2.46724">
        <ele>42</ele>
        <time>2022-03-30T12:46:57Z</time>
      </trkpt>
      <trkpt lat="49.91804" lon="2.46726">
        <ele>42</ele>
        <time>2022-03-30T12:46:58Z</time>
      </trkpt>
      <trkpt lat="49.91805" lon="2.46728">
        <ele>42</ele>
        <time>2022-03-30T12:46:59Z</time>
      </trkpt>
      <trkpt lat="49.91806" lon="2.46729">
        <ele>42</ele>
        <time>2022-03-30T12:47:00Z</time>
      </trkpt>
      <trkpt lat="49.91806" lon="2.4673">
        <ele>42</ele>
        <time>2022-03-30T12:47:01Z</time>
      </trkpt>
      <trkpt lat="49.91807" lon="2.46731">
        <ele>42</ele>
        <time>2022-03-30T12:47:02Z</time>
      </trkpt>
      <trkpt lat="49.91808" lon="2.46733">
        <ele>42</ele>
        <time>2022-03-30T12:47:03Z</time>
      </trkpt>
      <trkpt lat="49.91808" lon="2.46734">
        <ele>41.9</ele>
        <time>2022-03-30T12:47:04Z</time>
      </trkpt>
      <trkpt lat="49.91809" lon="2.46736">
        <ele>41.9</ele>
        <time>2022-03-30T12:47:05Z</time>
      </trkpt>
      <trkpt lat="49.91809" lon="2.46737">
        <ele>41.9</ele>
        <time>2022-03-30T12:47:06Z</time>
      </trkpt>
      <trkpt lat="49.9181" lon="2.46738">
        <ele>41.9</ele>
        <time>2022-03-30T12:47:07Z</time>
      </trkpt>
      <trkpt lat="49.9181" lon="2.46739">
        <ele>41.9</ele>
        <time>2022-03-30T12:47:08Z</time>
      </trkpt>
      <trkpt lat="49.91811" lon="2.4674">
        <ele>41.9</ele>
        <time>2022-03-30T12:47:09Z</time>
      </trkpt>
      <trkpt lat="49.91812" lon="2.46742">
        <ele>41.9</ele>
        <time>2022-03-30T12:47:10Z</time>
      </trkpt>
      <trkpt lat="49.91812" lon="2.46743">
        <ele>41.9</ele>
        <time>2022-03-30T12:47:11Z</time>
      </trkpt>
      <trkpt lat="49.91813" lon="2.46745">
        <ele>41.9</ele>
        <time>2022-03-30T12:47:12Z</time>
      </trkpt>
      <trkpt lat="49.91813" lon="2.46746">
        <ele>41.9</ele>
        <time>2022-03-30T12:47:13Z</time>
      </trkpt>
      <trkpt lat="49.91814" lon="2.46748">
        <ele>41.9</ele>
        <time>2022-03-30T12:47:14Z</time>
      </trkpt>
      <trkpt lat="49.91814" lon="2.46749">
        <ele>41.9</ele>
        <time>2022-03-30T12:47:15Z</time>
      </trkpt>
      <trkpt lat="49.91815" lon="2.46751">
        <ele>41.9</ele>
        <time>2022-03-30T12:47:16Z</time>
      </trkpt>
      <trkpt lat="49.91816" lon="2.46754">
        <ele>41.9</ele>
        <time>2022-03-30T12:47:17Z</time>
      </trkpt>
      <trkpt lat="49.91816" lon="2.46755">
        <ele>41.9</ele>
        <time>2022-03-30T12:47:18Z</time>
      </trkpt>
      <trkpt lat="49.91817" lon="2.46756">
        <ele>41.9</ele>
        <time>2022-03-30T12:47:19Z</time>
      </trkpt>
      <trkpt lat="49.91818" lon="2.46759">
        <ele>41.9</ele>
        <time>2022-03-30T12:47:20Z</time>
      </trkpt>
      <trkpt lat="49.91818" lon="2.4676">
        <ele>41.9</ele>
        <time>2022-03-30T12:47:21Z</time>
      </trkpt>
      <trkpt lat="49.91819" lon="2.46761">
        <ele>41.9</ele>
        <time>2022-03-30T12:47:22Z</time>
      </trkpt>
      <trkpt lat="49.91819" lon="2.46762">
        <ele>41.9</ele>
        <time>2022-03-30T12:47:23Z</time>
      </trkpt>
      <trkpt lat="49.9182" lon="2.46764">
        <ele>41.9</ele>
        <time>2022-03-30T12:47:24Z</time>
      </trkpt>
      <trkpt lat="49.91821" lon="2.46765">
        <ele>41.9</ele>
        <time>2022-03-30T12:47:25Z</time>
      </trkpt>
      <trkpt lat="49.91821" lon="2.46767">
        <ele>41.9</ele>
        <time>2022-03-30T12:47:26Z</time>
      </trkpt>
      <trkpt lat="49.91821" lon="2.46768">
        <ele>41.9</ele>
        <time>2022-03-30T12:47:27Z</time>
      </trkpt>
      <trkpt lat="49.91822" lon="2.46769">
        <ele>41.9</ele>
        <time>2022-03-30T12:47:28Z</time>
      </trkpt>
      <trkpt lat="49.91823" lon="2.46771">
        <ele>41.9</ele>
        <time>2022-03-30T12:47:29Z</time>
      </trkpt>
      <trkpt lat="49.91823" lon="2.46773">
        <ele>41.9</ele>
        <time>2022-03-30T12:47:30Z</time>
      </trkpt>
      <trkpt lat="49.91824" lon="2.46776">
        <ele>41.9</ele>
        <time>2022-03-30T12:47:31Z</time>
      </trkpt>
      <trkpt lat="49.91825" lon="2.46777">
        <ele>41.9</ele>
        <time>2022-03-30T12:47:32Z</time>
      </trkpt>
      <trkpt lat="49.91825" lon="2.46778">
        <ele>41.9</ele>
        <time>2022-03-30T12:47:33Z</time>
      </trkpt>
      <trkpt lat="49.91826" lon="2.46781">
        <ele>41.9</ele>
        <time>2022-03-30T12:47:34Z</time>
      </trkpt>
      <trkpt lat="49.91827" lon="2.46782">
        <ele>42</ele>
        <time>2022-03-30T12:47:35Z</time>
      </trkpt>
      <trkpt lat="49.91827" lon="2.46783">
        <ele>42</ele>
        <time>2022-03-30T12:47:36Z</time>
      </trkpt>
      <trkpt lat="49.91829" lon="2.46786">
        <ele>42</ele>
        <time>2022-03-30T12:47:37Z</time>
      </trkpt>
      <trkpt lat="49.91829" lon="2.46787">
        <ele>42</ele>
        <time>2022-03-30T12:47:38Z</time>
      </trkpt>
      <trkpt lat="49.9183" lon="2.46787">
        <ele>42</ele>
        <time>2022-03-30T12:47:39Z</time>
      </trkpt>
      <trkpt lat="49.91831" lon="2.46789">
        <ele>42</ele>
        <time>2022-03-30T12:47:40Z</time>
      </trkpt>
      <trkpt lat="49.91831" lon="2.4679">
        <ele>42</ele>
        <time>2022-03-30T12:47:41Z</time>
      </trkpt>
      <trkpt lat="49.91832" lon="2.46791">
        <ele>42</ele>
        <time>2022-03-30T12:47:42Z</time>
      </trkpt>
      <trkpt lat="49.91832" lon="2.46792">
        <ele>42</ele>
        <time>2022-03-30T12:47:43Z</time>
      </trkpt>
      <trkpt lat="49.91833" lon="2.46795">
        <ele>42</ele>
        <time>2022-03-30T12:47:44Z</time>
      </trkpt>
      <trkpt lat="49.91834" lon="2.46796">
        <ele>42</ele>
        <time>2022-03-30T12:47:45Z</time>
      </trkpt>
      <trkpt lat="49.91834" lon="2.46797">
        <ele>42</ele>
        <time>2022-03-30T12:47:46Z</time>
      </trkpt>
      <trkpt lat="49.91835" lon="2.46798">
        <ele>42</ele>
        <time>2022-03-30T12:47:47Z</time>
      </trkpt>
      <trkpt lat="49.91836" lon="2.468">
        <ele>42</ele>
        <time>2022-03-30T12:47:48Z</time>
      </trkpt>
      <trkpt lat="49.91837" lon="2.46801">
        <ele>42</ele>
        <time>2022-03-30T12:47:49Z</time>
      </trkpt>
      <trkpt lat="49.91837" lon="2.46802">
        <ele>42</ele>
        <time>2022-03-30T12:47:50Z</time>
      </trkpt>
      <trkpt lat="49.91838" lon="2.46804">
        <ele>42</ele>
        <time>2022-03-30T12:47:51Z</time>
      </trkpt>
      <trkpt lat="49.91839" lon="2.46805">
        <ele>42</ele>
        <time>2022-03-30T12:47:52Z</time>
      </trkpt>
      <trkpt lat="49.9184" lon="2.46807">
        <ele>42</ele>
        <time>2022-03-30T12:47:53Z</time>
      </trkpt>
      <trkpt lat="49.9184" lon="2.46808">
        <ele>42</ele>
        <time>2022-03-30T12:47:54Z</time>
      </trkpt>
      <trkpt lat="49.91841" lon="2.46809">
        <ele>42</ele>
        <time>2022-03-30T12:47:55Z</time>
      </trkpt>
      <trkpt lat="49.91841" lon="2.4681">
        <ele>42</ele>
        <time>2022-03-30T12:47:56Z</time>
      </trkpt>
      <trkpt lat="49.91842" lon="2.46811">
        <ele>42</ele>
        <time>2022-03-30T12:47:57Z</time>
      </trkpt>
      <trkpt lat="49.91842" lon="2.46813">
        <ele>42</ele>
        <time>2022-03-30T12:47:58Z</time>
      </trkpt>
      <trkpt lat="49.91843" lon="2.46815">
        <ele>41.9</ele>
        <time>2022-03-30T12:47:59Z</time>
      </trkpt>
      <trkpt lat="49.91843" lon="2.46816">
        <ele>41.9</ele>
        <time>2022-03-30T12:48:00Z</time>
      </trkpt>
      <trkpt lat="49.91844" lon="2.46818">
        <ele>41.9</ele>
        <time>2022-03-30T12:48:01Z</time>
      </trkpt>
      <trkpt lat="49.91844" lon="2.46819">
        <ele>41.9</ele>
        <time>2022-03-30T12:48:02Z</time>
      </trkpt>
      <trkpt lat="49.91845" lon="2.46821">
        <ele>41.9</ele>
        <time>2022-03-30T12:48:03Z</time>
      </trkpt>
      <trkpt lat="49.91846" lon="2.46822">
        <ele>41.9</ele>
        <time>2022-03-30T12:48:04Z</time>
      </trkpt>
      <trkpt lat="49.91846" lon="2.46824">
        <ele>41.9</ele>
        <time>2022-03-30T12:48:05Z</time>
      </trkpt>
      <trkpt lat="49.91847" lon="2.46826">
        <ele>41.9</ele>
        <time>2022-03-30T12:48:06Z</time>
      </trkpt>
      <trkpt lat="49.91847" lon="2.46828">
        <ele>41.9</ele>
        <time>2022-03-30T12:48:07Z</time>
      </trkpt>
      <trkpt lat="49.91848" lon="2.46829">
        <ele>41.9</ele>
        <time>2022-03-30T12:48:08Z</time>
      </trkpt>
      <trkpt lat="49.91848" lon="2.46831">
        <ele>41.9</ele>
        <time>2022-03-30T12:48:09Z</time>
      </trkpt>
      <trkpt lat="49.91849" lon="2.46832">
        <ele>41.9</ele>
        <time>2022-03-30T12:48:10Z</time>
      </trkpt>
      <trkpt lat="49.9185" lon="2.46833">
        <ele>41.8</ele>
        <time>2022-03-30T12:48:11Z</time>
      </trkpt>
      <trkpt lat="49.91851" lon="2.46834">
        <ele>41.8</ele>
        <time>2022-03-30T12:48:12Z</time>
      </trkpt>
      <trkpt lat="49.91852" lon="2.46837">
        <ele>41.8</ele>
        <time>2022-03-30T12:48:13Z</time>
      </trkpt>
      <trkpt lat="49.91853" lon="2.46838">
        <ele>41.8</ele>
        <time>2022-03-30T12:48:14Z</time>
      </trkpt>
      <trkpt lat="49.91853" lon="2.46839">
        <ele>41.8</ele>
        <time>2022-03-30T12:48:15Z</time>
      </trkpt>
      <trkpt lat="49.91855" lon="2.46841">
        <ele>41.8</ele>
        <time>2022-03-30T12:48:16Z</time>
      </trkpt>
      <trkpt lat="49.91855" lon="2.46842">
        <ele>41.8</ele>
        <time>2022-03-30T12:48:17Z</time>
      </trkpt>
      <trkpt lat="49.91856" lon="2.46843">
        <ele>41.8</ele>
        <time>2022-03-30T12:48:18Z</time>
      </trkpt>
      <trkpt lat="49.91856" lon="2.46845">
        <ele>41.8</ele>
        <time>2022-03-30T12:48:19Z</time>
      </trkpt>
      <trkpt lat="49.91857" lon="2.46847">
        <ele>41.8</ele>
        <time>2022-03-30T12:48:20Z</time>
      </trkpt>
      <trkpt lat="49.91858" lon="2.46849">
        <ele>41.8</ele>
        <time>2022-03-30T12:48:21Z</time>
      </trkpt>
      <trkpt lat="49.91859" lon="2.4685">
        <ele>41.8</ele>
        <time>2022-03-30T12:48:22Z</time>
      </trkpt>
      <trkpt lat="49.91859" lon="2.46851">
        <ele>41.8</ele>
        <time>2022-03-30T12:48:23Z</time>
      </trkpt>
      <trkpt lat="49.9186" lon="2.46852">
        <ele>41.8</ele>
        <time>2022-03-30T12:48:24Z</time>
      </trkpt>
      <trkpt lat="49.9186" lon="2.46853">
        <ele>41.8</ele>
        <time>2022-03-30T12:48:25Z</time>
      </trkpt>
      <trkpt lat="49.91861" lon="2.46855">
        <ele>41.8</ele>
        <time>2022-03-30T12:48:26Z</time>
      </trkpt>
      <trkpt lat="49.91862" lon="2.46856">
        <ele>41.8</ele>
        <time>2022-03-30T12:48:27Z</time>
      </trkpt>
      <trkpt lat="49.91863" lon="2.46857">
        <ele>41.8</ele>
        <time>2022-03-30T12:48:28Z</time>
      </trkpt>
      <trkpt lat="49.91864" lon="2.46859">
        <ele>41.8</ele>
        <time>2022-03-30T12:48:29Z</time>
      </trkpt>
      <trkpt lat="49.91865" lon="2.4686">
        <ele>41.8</ele>
        <time>2022-03-30T12:48:30Z</time>
      </trkpt>
      <trkpt lat="49.91865" lon="2.46861">
        <ele>41.8</ele>
        <time>2022-03-30T12:48:31Z</time>
      </trkpt>
      <trkpt lat="49.91866" lon="2.46862">
        <ele>41.8</ele>
        <time>2022-03-30T12:48:32Z</time>
      </trkpt>
      <trkpt lat="49.91868" lon="2.46864">
        <ele>41.8</ele>
        <time>2022-03-30T12:48:33Z</time>
      </trkpt>
      <trkpt lat="49.91868" lon="2.46865">
        <ele>41.8</ele>
        <time>2022-03-30T12:48:34Z</time>
      </trkpt>
      <trkpt lat="49.91869" lon="2.46866">
        <ele>41.8</ele>
        <time>2022-03-30T12:48:35Z</time>
      </trkpt>
      <trkpt lat="49.9187" lon="2.46868">
        <ele>41.7</ele>
        <time>2022-03-30T12:48:36Z</time>
      </trkpt>
      <trkpt lat="49.91871" lon="2.46869">
        <ele>41.7</ele>
        <time>2022-03-30T12:48:37Z</time>
      </trkpt>
      <trkpt lat="49.91872" lon="2.4687">
        <ele>41.7</ele>
        <time>2022-03-30T12:48:38Z</time>
      </trkpt>
      <trkpt lat="49.91873" lon="2.46871">
        <ele>41.7</ele>
        <time>2022-03-30T12:48:39Z</time>
      </trkpt>
      <trkpt lat="49.91873" lon="2.46873">
        <ele>41.7</ele>
        <time>2022-03-30T12:48:40Z</time>
      </trkpt>
      <trkpt lat="49.91874" lon="2.46874">
        <ele>41.7</ele>
        <time>2022-03-30T12:48:41Z</time>
      </trkpt>
      <trkpt lat="49.91875" lon="2.46875">
        <ele>41.7</ele>
        <time>2022-03-30T12:48:42Z</time>
      </trkpt>
      <trkpt lat="49.91876" lon="2.46876">
        <ele>41.7</ele>
        <time>2022-03-30T12:48:43Z</time>
      </trkpt>
      <trkpt lat="49.91877" lon="2.46877">
        <ele>41.7</ele>
        <time>2022-03-30T12:48:44Z</time>
      </trkpt>
      <trkpt lat="49.91878" lon="2.46879">
        <ele>41.7</ele>
        <time>2022-03-30T12:48:45Z</time>
      </trkpt>
      <trkpt lat="49.91878" lon="2.4688">
        <ele>41.7</ele>
        <time>2022-03-30T12:48:46Z</time>
      </trkpt>
      <trkpt lat="49.91879" lon="2.46881">
        <ele>41.7</ele>
        <time>2022-03-30T12:48:47Z</time>
      </trkpt>
      <trkpt lat="49.9188" lon="2.46884">
        <ele>41.7</ele>
        <time>2022-03-30T12:48:48Z</time>
      </trkpt>
      <trkpt lat="49.91881" lon="2.46885">
        <ele>41.7</ele>
        <time>2022-03-30T12:48:49Z</time>
      </trkpt>
      <trkpt lat="49.91881" lon="2.46886">
        <ele>41.7</ele>
        <time>2022-03-30T12:48:50Z</time>
      </trkpt>
      <trkpt lat="49.91882" lon="2.46887">
        <ele>41.7</ele>
        <time>2022-03-30T12:48:51Z</time>
      </trkpt>
      <trkpt lat="49.91883" lon="2.46889">
        <ele>41.7</ele>
        <time>2022-03-30T12:48:52Z</time>
      </trkpt>
      <trkpt lat="49.91885" lon="2.46891">
        <ele>41.7</ele>
        <time>2022-03-30T12:48:53Z</time>
      </trkpt>
      <trkpt lat="49.91885" lon="2.46892">
        <ele>41.7</ele>
        <time>2022-03-30T12:48:54Z</time>
      </trkpt>
      <trkpt lat="49.91886" lon="2.46893">
        <ele>41.7</ele>
        <time>2022-03-30T12:48:55Z</time>
      </trkpt>
      <trkpt lat="49.91886" lon="2.46894">
        <ele>41.7</ele>
        <time>2022-03-30T12:48:56Z</time>
      </trkpt>
      <trkpt lat="49.91887" lon="2.46895">
        <ele>41.7</ele>
        <time>2022-03-30T12:48:57Z</time>
      </trkpt>
      <trkpt lat="49.91888" lon="2.46897">
        <ele>41.7</ele>
        <time>2022-03-30T12:48:58Z</time>
      </trkpt>
      <trkpt lat="49.91889" lon="2.46899">
        <ele>41.7</ele>
        <time>2022-03-30T12:48:59Z</time>
      </trkpt>
      <trkpt lat="49.91889" lon="2.46901">
        <ele>41.7</ele>
        <time>2022-03-30T12:49:00Z</time>
      </trkpt>
      <trkpt lat="49.9189" lon="2.46902">
        <ele>41.7</ele>
        <time>2022-03-30T12:49:01Z</time>
      </trkpt>
      <trkpt lat="49.91891" lon="2.46904">
        <ele>41.7</ele>
        <time>2022-03-30T12:49:02Z</time>
      </trkpt>
      <trkpt lat="49.91892" lon="2.46905">
        <ele>41.7</ele>
        <time>2022-03-30T12:49:03Z</time>
      </trkpt>
      <trkpt lat="49.91892" lon="2.46906">
        <ele>41.7</ele>
        <time>2022-03-30T12:49:04Z</time>
      </trkpt>
      <trkpt lat="49.91893" lon="2.46909">
        <ele>41.6</ele>
        <time>2022-03-30T12:49:05Z</time>
      </trkpt>
      <trkpt lat="49.91894" lon="2.4691">
        <ele>41.6</ele>
        <time>2022-03-30T12:49:06Z</time>
      </trkpt>
      <trkpt lat="49.91894" lon="2.46911">
        <ele>41.6</ele>
        <time>2022-03-30T12:49:07Z</time>
      </trkpt>
      <trkpt lat="49.91895" lon="2.46913">
        <ele>41.6</ele>
        <time>2022-03-30T12:49:08Z</time>
      </trkpt>
      <trkpt lat="49.91896" lon="2.46914">
        <ele>41.6</ele>
        <time>2022-03-30T12:49:09Z</time>
      </trkpt>
      <trkpt lat="49.91896" lon="2.46915">
        <ele>41.6</ele>
        <time>2022-03-30T12:49:10Z</time>
      </trkpt>
      <trkpt lat="49.91897" lon="2.46917">
        <ele>41.5</ele>
        <time>2022-03-30T12:49:11Z</time>
      </trkpt>
      <trkpt lat="49.91897" lon="2.46918">
        <ele>41.5</ele>
        <time>2022-03-30T12:49:12Z</time>
      </trkpt>
      <trkpt lat="49.91898" lon="2.46919">
        <ele>41.5</ele>
        <time>2022-03-30T12:49:13Z</time>
      </trkpt>
      <trkpt lat="49.91899" lon="2.46922">
        <ele>41.5</ele>
        <time>2022-03-30T12:49:14Z</time>
      </trkpt>
      <trkpt lat="49.919" lon="2.46923">
        <ele>41.5</ele>
        <time>2022-03-30T12:49:15Z</time>
      </trkpt>
      <trkpt lat="49.919" lon="2.46924">
        <ele>41.5</ele>
        <time>2022-03-30T12:49:16Z</time>
      </trkpt>
      <trkpt lat="49.91902" lon="2.46927">
        <ele>41.4</ele>
        <time>2022-03-30T12:49:17Z</time>
      </trkpt>
      <trkpt lat="49.91902" lon="2.46928">
        <ele>41.4</ele>
        <time>2022-03-30T12:49:18Z</time>
      </trkpt>
      <trkpt lat="49.91903" lon="2.46929">
        <ele>41.4</ele>
        <time>2022-03-30T12:49:19Z</time>
      </trkpt>
      <trkpt lat="49.91904" lon="2.46931">
        <ele>41.4</ele>
        <time>2022-03-30T12:49:20Z</time>
      </trkpt>
      <trkpt lat="49.91905" lon="2.46932">
        <ele>41.4</ele>
        <time>2022-03-30T12:49:21Z</time>
      </trkpt>
      <trkpt lat="49.91905" lon="2.46933">
        <ele>41.4</ele>
        <time>2022-03-30T12:49:22Z</time>
      </trkpt>
      <trkpt lat="49.91906" lon="2.46935">
        <ele>41.4</ele>
        <time>2022-03-30T12:49:23Z</time>
      </trkpt>
      <trkpt lat="49.91906" lon="2.46936">
        <ele>41.4</ele>
        <time>2022-03-30T12:49:24Z</time>
      </trkpt>
      <trkpt lat="49.91907" lon="2.46937">
        <ele>41.4</ele>
        <time>2022-03-30T12:49:25Z</time>
      </trkpt>
      <trkpt lat="49.91908" lon="2.46938">
        <ele>41.3</ele>
        <time>2022-03-30T12:49:26Z</time>
      </trkpt>
      <trkpt lat="49.91909" lon="2.4694">
        <ele>41.3</ele>
        <time>2022-03-30T12:49:27Z</time>
      </trkpt>
      <trkpt lat="49.91909" lon="2.46941">
        <ele>41.3</ele>
        <time>2022-03-30T12:49:28Z</time>
      </trkpt>
      <trkpt lat="49.9191" lon="2.46943">
        <ele>41.3</ele>
        <time>2022-03-30T12:49:29Z</time>
      </trkpt>
      <trkpt lat="49.91911" lon="2.46945">
        <ele>41.3</ele>
        <time>2022-03-30T12:49:30Z</time>
      </trkpt>
      <trkpt lat="49.91912" lon="2.46947">
        <ele>41.3</ele>
        <time>2022-03-30T12:49:31Z</time>
      </trkpt>
      <trkpt lat="49.91913" lon="2.46948">
        <ele>41.3</ele>
        <time>2022-03-30T12:49:32Z</time>
      </trkpt>
      <trkpt lat="49.91913" lon="2.46949">
        <ele>41.3</ele>
        <time>2022-03-30T12:49:33Z</time>
      </trkpt>
      <trkpt lat="49.91915" lon="2.46952">
        <ele>41.3</ele>
        <time>2022-03-30T12:49:34Z</time>
      </trkpt>
      <trkpt lat="49.91915" lon="2.46953">
        <ele>41.3</ele>
        <time>2022-03-30T12:49:35Z</time>
      </trkpt>
      <trkpt lat="49.91916" lon="2.46954">
        <ele>41.3</ele>
        <time>2022-03-30T12:49:36Z</time>
      </trkpt>
      <trkpt lat="49.91917" lon="2.46956">
        <ele>41.2</ele>
        <time>2022-03-30T12:49:37Z</time>
      </trkpt>
      <trkpt lat="49.91918" lon="2.46957">
        <ele>41.2</ele>
        <time>2022-03-30T12:49:38Z</time>
      </trkpt>
      <trkpt lat="49.91918" lon="2.46958">
        <ele>41.2</ele>
        <time>2022-03-30T12:49:39Z</time>
      </trkpt>
      <trkpt lat="49.91919" lon="2.46959">
        <ele>41.2</ele>
        <time>2022-03-30T12:49:40Z</time>
      </trkpt>
      <trkpt lat="49.9192" lon="2.4696">
        <ele>41.2</ele>
        <time>2022-03-30T12:49:41Z</time>
      </trkpt>
      <trkpt lat="49.9192" lon="2.46962">
        <ele>41.2</ele>
        <time>2022-03-30T12:49:42Z</time>
      </trkpt>
      <trkpt lat="49.91921" lon="2.46963">
        <ele>41.2</ele>
        <time>2022-03-30T12:49:43Z</time>
      </trkpt>
      <trkpt lat="49.91922" lon="2.46965">
        <ele>41.2</ele>
        <time>2022-03-30T12:49:44Z</time>
      </trkpt>
      <trkpt lat="49.91923" lon="2.46966">
        <ele>41.2</ele>
        <time>2022-03-30T12:49:45Z</time>
      </trkpt>
      <trkpt lat="49.91924" lon="2.46967">
        <ele>41.2</ele>
        <time>2022-03-30T12:49:46Z</time>
      </trkpt>
      <trkpt lat="49.91924" lon="2.46969">
        <ele>41.2</ele>
        <time>2022-03-30T12:49:47Z</time>
      </trkpt>
      <trkpt lat="49.91925" lon="2.4697">
        <ele>41.2</ele>
        <time>2022-03-30T12:49:48Z</time>
      </trkpt>
      <trkpt lat="49.91926" lon="2.46971">
        <ele>41.2</ele>
        <time>2022-03-30T12:49:49Z</time>
      </trkpt>
      <trkpt lat="49.91927" lon="2.46973">
        <ele>41.2</ele>
        <time>2022-03-30T12:49:50Z</time>
      </trkpt>
      <trkpt lat="49.91928" lon="2.46975">
        <ele>41.2</ele>
        <time>2022-03-30T12:49:51Z</time>
      </trkpt>
      <trkpt lat="49.91928" lon="2.46976">
        <ele>41.2</ele>
        <time>2022-03-30T12:49:52Z</time>
      </trkpt>
      <trkpt lat="49.91929" lon="2.46978">
        <ele>41.3</ele>
        <time>2022-03-30T12:49:53Z</time>
      </trkpt>
      <trkpt lat="49.9193" lon="2.46979">
        <ele>41.3</ele>
        <time>2022-03-30T12:49:54Z</time>
      </trkpt>
      <trkpt lat="49.9193" lon="2.4698">
        <ele>41.3</ele>
        <time>2022-03-30T12:49:55Z</time>
      </trkpt>
      <trkpt lat="49.91931" lon="2.46981">
        <ele>41.3</ele>
        <time>2022-03-30T12:49:56Z</time>
      </trkpt>
      <trkpt lat="49.91931" lon="2.46982">
        <ele>41.3</ele>
        <time>2022-03-30T12:49:57Z</time>
      </trkpt>
      <trkpt lat="49.91932" lon="2.46984">
        <ele>41.3</ele>
        <time>2022-03-30T12:49:58Z</time>
      </trkpt>
      <trkpt lat="49.91933" lon="2.46986">
        <ele>41.3</ele>
        <time>2022-03-30T12:49:59Z</time>
      </trkpt>
      <trkpt lat="49.91934" lon="2.46988">
        <ele>41.3</ele>
        <time>2022-03-30T12:50:00Z</time>
      </trkpt>
      <trkpt lat="49.91935" lon="2.4699">
        <ele>41.3</ele>
        <time>2022-03-30T12:50:01Z</time>
      </trkpt>
      <trkpt lat="49.91935" lon="2.46991">
        <ele>41.3</ele>
        <time>2022-03-30T12:50:02Z</time>
      </trkpt>
      <trkpt lat="49.91937" lon="2.46994">
        <ele>41.3</ele>
        <time>2022-03-30T12:50:03Z</time>
      </trkpt>
      <trkpt lat="49.91937" lon="2.46995">
        <ele>41.3</ele>
        <time>2022-03-30T12:50:04Z</time>
      </trkpt>
      <trkpt lat="49.91938" lon="2.46996">
        <ele>41.3</ele>
        <time>2022-03-30T12:50:05Z</time>
      </trkpt>
      <trkpt lat="49.91939" lon="2.46998">
        <ele>41.2</ele>
        <time>2022-03-30T12:50:06Z</time>
      </trkpt>
      <trkpt lat="49.9194" lon="2.47">
        <ele>41.2</ele>
        <time>2022-03-30T12:50:07Z</time>
      </trkpt>
      <trkpt lat="49.91941" lon="2.47002">
        <ele>41.2</ele>
        <time>2022-03-30T12:50:08Z</time>
      </trkpt>
      <trkpt lat="49.91942" lon="2.47003">
        <ele>41.2</ele>
        <time>2022-03-30T12:50:09Z</time>
      </trkpt>
      <trkpt lat="49.91942" lon="2.47004">
        <ele>41.2</ele>
        <time>2022-03-30T12:50:10Z</time>
      </trkpt>
      <trkpt lat="49.91943" lon="2.47007">
        <ele>41.2</ele>
        <time>2022-03-30T12:50:11Z</time>
      </trkpt>
      <trkpt lat="49.91944" lon="2.47008">
        <ele>41.2</ele>
        <time>2022-03-30T12:50:12Z</time>
      </trkpt>
      <trkpt lat="49.91944" lon="2.47009">
        <ele>41.2</ele>
        <time>2022-03-30T12:50:13Z</time>
      </trkpt>
      <trkpt lat="49.91945" lon="2.47011">
        <ele>41.2</ele>
        <time>2022-03-30T12:50:14Z</time>
      </trkpt>
      <trkpt lat="49.91945" lon="2.47012">
        <ele>41.2</ele>
        <time>2022-03-30T12:50:15Z</time>
      </trkpt>
      <trkpt lat="49.91946" lon="2.47014">
        <ele>41.2</ele>
        <time>2022-03-30T12:50:16Z</time>
      </trkpt>
      <trkpt lat="49.91947" lon="2.47015">
        <ele>41.2</ele>
        <time>2022-03-30T12:50:17Z</time>
      </trkpt>
      <trkpt lat="49.91948" lon="2.47016">
        <ele>41.2</ele>
        <time>2022-03-30T12:50:18Z</time>
      </trkpt>
      <trkpt lat="49.91948" lon="2.47018">
        <ele>41.2</ele>
        <time>2022-03-30T12:50:19Z</time>
      </trkpt>
      <trkpt lat="49.9195" lon="2.4702">
        <ele>41.2</ele>
        <time>2022-03-30T12:50:20Z</time>
      </trkpt>
      <trkpt lat="49.9195" lon="2.47021">
        <ele>41.2</ele>
        <time>2022-03-30T12:50:21Z</time>
      </trkpt>
      <trkpt lat="49.91951" lon="2.47022">
        <ele>41.2</ele>
        <time>2022-03-30T12:50:22Z</time>
      </trkpt>
      <trkpt lat="49.91952" lon="2.47024">
        <ele>41.2</ele>
        <time>2022-03-30T12:50:23Z</time>
      </trkpt>
      <trkpt lat="49.91952" lon="2.47025">
        <ele>41.2</ele>
        <time>2022-03-30T12:50:24Z</time>
      </trkpt>
      <trkpt lat="49.91953" lon="2.47026">
        <ele>41.2</ele>
        <time>2022-03-30T12:50:25Z</time>
      </trkpt>
      <trkpt lat="49.91955" lon="2.47029">
        <ele>41.2</ele>
        <time>2022-03-30T12:50:26Z</time>
      </trkpt>
      <trkpt lat="49.91955" lon="2.4703">
        <ele>41.2</ele>
        <time>2022-03-30T12:50:27Z</time>
      </trkpt>
      <trkpt lat="49.91956" lon="2.47031">
        <ele>41.2</ele>
        <time>2022-03-30T12:50:28Z</time>
      </trkpt>
      <trkpt lat="49.91957" lon="2.47033">
        <ele>41.2</ele>
        <time>2022-03-30T12:50:29Z</time>
      </trkpt>
      <trkpt lat="49.91958" lon="2.47034">
        <ele>41.2</ele>
        <time>2022-03-30T12:50:30Z</time>
      </trkpt>
      <trkpt lat="49.91958" lon="2.47035">
        <ele>41.2</ele>
        <time>2022-03-30T12:50:31Z</time>
      </trkpt>
      <trkpt lat="49.9196" lon="2.47038">
        <ele>41.2</ele>
        <time>2022-03-30T12:50:32Z</time>
      </trkpt>
      <trkpt lat="49.9196" lon="2.47039">
        <ele>41.3</ele>
        <time>2022-03-30T12:50:33Z</time>
      </trkpt>
      <trkpt lat="49.91961" lon="2.4704">
        <ele>41.3</ele>
        <time>2022-03-30T12:50:34Z</time>
      </trkpt>
      <trkpt lat="49.91963" lon="2.47042">
        <ele>41.3</ele>
        <time>2022-03-30T12:50:35Z</time>
      </trkpt>
      <trkpt lat="49.91963" lon="2.47043">
        <ele>41.3</ele>
        <time>2022-03-30T12:50:36Z</time>
      </trkpt>
      <trkpt lat="49.91964" lon="2.47044">
        <ele>41.3</ele>
        <time>2022-03-30T12:50:37Z</time>
      </trkpt>
      <trkpt lat="49.91965" lon="2.47045">
        <ele>41.3</ele>
        <time>2022-03-30T12:50:38Z</time>
      </trkpt>
      <trkpt lat="49.91965" lon="2.47047">
        <ele>41.3</ele>
        <time>2022-03-30T12:50:39Z</time>
      </trkpt>
      <trkpt lat="49.91966" lon="2.47048">
        <ele>41.4</ele>
        <time>2022-03-30T12:50:40Z</time>
      </trkpt>
      <trkpt lat="49.91967" lon="2.47049">
        <ele>41.4</ele>
        <time>2022-03-30T12:50:41Z</time>
      </trkpt>
      <trkpt lat="49.91967" lon="2.4705">
        <ele>41.4</ele>
        <time>2022-03-30T12:50:42Z</time>
      </trkpt>
      <trkpt lat="49.91968" lon="2.47051">
        <ele>41.4</ele>
        <time>2022-03-30T12:50:43Z</time>
      </trkpt>
      <trkpt lat="49.9197" lon="2.47054">
        <ele>41.4</ele>
        <time>2022-03-30T12:50:44Z</time>
      </trkpt>
      <trkpt lat="49.9197" lon="2.47055">
        <ele>41.5</ele>
        <time>2022-03-30T12:50:45Z</time>
      </trkpt>
      <trkpt lat="49.91971" lon="2.47056">
        <ele>41.5</ele>
        <time>2022-03-30T12:50:46Z</time>
      </trkpt>
      <trkpt lat="49.91971" lon="2.47058">
        <ele>41.5</ele>
        <time>2022-03-30T12:50:47Z</time>
      </trkpt>
      <trkpt lat="49.91972" lon="2.47059">
        <ele>41.5</ele>
        <time>2022-03-30T12:50:48Z</time>
      </trkpt>
      <trkpt lat="49.91973" lon="2.4706">
        <ele>41.5</ele>
        <time>2022-03-30T12:50:49Z</time>
      </trkpt>
      <trkpt lat="49.91974" lon="2.47063">
        <ele>41.5</ele>
        <time>2022-03-30T12:50:50Z</time>
      </trkpt>
      <trkpt lat="49.91975" lon="2.47064">
        <ele>41.5</ele>
        <time>2022-03-30T12:50:51Z</time>
      </trkpt>
      <trkpt lat="49.91975" lon="2.47066">
        <ele>41.6</ele>
        <time>2022-03-30T12:50:52Z</time>
      </trkpt>
      <trkpt lat="49.91976" lon="2.47067">
        <ele>41.6</ele>
        <time>2022-03-30T12:50:53Z</time>
      </trkpt>
      <trkpt lat="49.91976" lon="2.47068">
        <ele>41.6</ele>
        <time>2022-03-30T12:50:54Z</time>
      </trkpt>
      <trkpt lat="49.91977" lon="2.47069">
        <ele>41.6</ele>
        <time>2022-03-30T12:50:55Z</time>
      </trkpt>
      <trkpt lat="49.91977" lon="2.47071">
        <ele>41.6</ele>
        <time>2022-03-30T12:50:56Z</time>
      </trkpt>
      <trkpt lat="49.91978" lon="2.47072">
        <ele>41.6</ele>
        <time>2022-03-30T12:50:57Z</time>
      </trkpt>
      <trkpt lat="49.91979" lon="2.47074">
        <ele>41.6</ele>
        <time>2022-03-30T12:50:58Z</time>
      </trkpt>
      <trkpt lat="49.91979" lon="2.47075">
        <ele>41.6</ele>
        <time>2022-03-30T12:50:59Z</time>
      </trkpt>
      <trkpt lat="49.9198" lon="2.47077">
        <ele>41.6</ele>
        <time>2022-03-30T12:51:00Z</time>
      </trkpt>
      <trkpt lat="49.91981" lon="2.47078">
        <ele>41.6</ele>
        <time>2022-03-30T12:51:01Z</time>
      </trkpt>
      <trkpt lat="49.91982" lon="2.4708">
        <ele>41.6</ele>
        <time>2022-03-30T12:51:02Z</time>
      </trkpt>
      <trkpt lat="49.91983" lon="2.47081">
        <ele>41.6</ele>
        <time>2022-03-30T12:51:03Z</time>
      </trkpt>
      <trkpt lat="49.91983" lon="2.47082">
        <ele>41.6</ele>
        <time>2022-03-30T12:51:04Z</time>
      </trkpt>
      <trkpt lat="49.91984" lon="2.47084">
        <ele>41.6</ele>
        <time>2022-03-30T12:51:05Z</time>
      </trkpt>
      <trkpt lat="49.91984" lon="2.47085">
        <ele>41.6</ele>
        <time>2022-03-30T12:51:06Z</time>
      </trkpt>
      <trkpt lat="49.91985" lon="2.47086">
        <ele>41.6</ele>
        <time>2022-03-30T12:51:07Z</time>
      </trkpt>
      <trkpt lat="49.91986" lon="2.47088">
        <ele>41.6</ele>
        <time>2022-03-30T12:51:08Z</time>
      </trkpt>
      <trkpt lat="49.91987" lon="2.47089">
        <ele>41.6</ele>
        <time>2022-03-30T12:51:09Z</time>
      </trkpt>
      <trkpt lat="49.91987" lon="2.4709">
        <ele>41.6</ele>
        <time>2022-03-30T12:51:10Z</time>
      </trkpt>
      <trkpt lat="49.91988" lon="2.47092">
        <ele>41.6</ele>
        <time>2022-03-30T12:51:11Z</time>
      </trkpt>
      <trkpt lat="49.91989" lon="2.47093">
        <ele>41.6</ele>
        <time>2022-03-30T12:51:12Z</time>
      </trkpt>
      <trkpt lat="49.91989" lon="2.47095">
        <ele>41.6</ele>
        <time>2022-03-30T12:51:13Z</time>
      </trkpt>
      <trkpt lat="49.9199" lon="2.47096">
        <ele>41.6</ele>
        <time>2022-03-30T12:51:14Z</time>
      </trkpt>
      <trkpt lat="49.91991" lon="2.47098">
        <ele>41.6</ele>
        <time>2022-03-30T12:51:15Z</time>
      </trkpt>
      <trkpt lat="49.91992" lon="2.471">
        <ele>41.6</ele>
        <time>2022-03-30T12:51:16Z</time>
      </trkpt>
      <trkpt lat="49.91993" lon="2.47102">
        <ele>41.6</ele>
        <time>2022-03-30T12:51:17Z</time>
      </trkpt>
      <trkpt lat="49.91993" lon="2.47103">
        <ele>41.6</ele>
        <time>2022-03-30T12:51:18Z</time>
      </trkpt>
      <trkpt lat="49.91995" lon="2.47106">
        <ele>41.6</ele>
        <time>2022-03-30T12:51:20Z</time>
      </trkpt>
      <trkpt lat="49.91995" lon="2.47107">
        <ele>41.6</ele>
        <time>2022-03-30T12:51:21Z</time>
      </trkpt>
      <trkpt lat="49.91996" lon="2.47109">
        <ele>41.6</ele>
        <time>2022-03-30T12:51:22Z</time>
      </trkpt>
      <trkpt lat="49.91997" lon="2.47112">
        <ele>41.6</ele>
        <time>2022-03-30T12:51:23Z</time>
      </trkpt>
      <trkpt lat="49.91998" lon="2.47113">
        <ele>41.6</ele>
        <time>2022-03-30T12:51:24Z</time>
      </trkpt>
      <trkpt lat="49.91998" lon="2.47114">
        <ele>41.6</ele>
        <time>2022-03-30T12:51:25Z</time>
      </trkpt>
      <trkpt lat="49.91999" lon="2.47116">
        <ele>41.6</ele>
        <time>2022-03-30T12:51:26Z</time>
      </trkpt>
      <trkpt lat="49.92" lon="2.47117">
        <ele>41.6</ele>
        <time>2022-03-30T12:51:27Z</time>
      </trkpt>
      <trkpt lat="49.92" lon="2.47119">
        <ele>41.6</ele>
        <time>2022-03-30T12:51:28Z</time>
      </trkpt>
      <trkpt lat="49.92002" lon="2.47121">
        <ele>41.6</ele>
        <time>2022-03-30T12:51:29Z</time>
      </trkpt>
      <trkpt lat="49.92002" lon="2.47122">
        <ele>41.6</ele>
        <time>2022-03-30T12:51:30Z</time>
      </trkpt>
      <trkpt lat="49.92003" lon="2.47123">
        <ele>41.5</ele>
        <time>2022-03-30T12:51:31Z</time>
      </trkpt>
      <trkpt lat="49.92003" lon="2.47125">
        <ele>41.5</ele>
        <time>2022-03-30T12:51:32Z</time>
      </trkpt>
      <trkpt lat="49.92004" lon="2.47126">
        <ele>41.5</ele>
        <time>2022-03-30T12:51:33Z</time>
      </trkpt>
      <trkpt lat="49.92005" lon="2.47127">
        <ele>41.5</ele>
        <time>2022-03-30T12:51:34Z</time>
      </trkpt>
      <trkpt lat="49.92006" lon="2.4713">
        <ele>41.5</ele>
        <time>2022-03-30T12:51:35Z</time>
      </trkpt>
      <trkpt lat="49.92006" lon="2.47131">
        <ele>41.5</ele>
        <time>2022-03-30T12:51:36Z</time>
      </trkpt>
      <trkpt lat="49.92007" lon="2.47132">
        <ele>41.5</ele>
        <time>2022-03-30T12:51:37Z</time>
      </trkpt>
      <trkpt lat="49.92008" lon="2.47133">
        <ele>41.5</ele>
        <time>2022-03-30T12:51:38Z</time>
      </trkpt>
      <trkpt lat="49.92009" lon="2.47134">
        <ele>41.5</ele>
        <time>2022-03-30T12:51:39Z</time>
      </trkpt>
      <trkpt lat="49.92009" lon="2.47136">
        <ele>41.5</ele>
        <time>2022-03-30T12:51:40Z</time>
      </trkpt>
      <trkpt lat="49.9201" lon="2.47137">
        <ele>41.5</ele>
        <time>2022-03-30T12:51:41Z</time>
      </trkpt>
      <trkpt lat="49.92011" lon="2.47139">
        <ele>41.5</ele>
        <time>2022-03-30T12:51:42Z</time>
      </trkpt>
      <trkpt lat="49.92012" lon="2.4714">
        <ele>41.6</ele>
        <time>2022-03-30T12:51:43Z</time>
      </trkpt>
      <trkpt lat="49.92013" lon="2.47143">
        <ele>41.6</ele>
        <time>2022-03-30T12:51:44Z</time>
      </trkpt>
      <trkpt lat="49.92013" lon="2.47144">
        <ele>41.6</ele>
        <time>2022-03-30T12:51:45Z</time>
      </trkpt>
      <trkpt lat="49.92014" lon="2.47145">
        <ele>41.6</ele>
        <time>2022-03-30T12:51:46Z</time>
      </trkpt>
      <trkpt lat="49.92015" lon="2.47146">
        <ele>41.6</ele>
        <time>2022-03-30T12:51:47Z</time>
      </trkpt>
      <trkpt lat="49.92015" lon="2.47147">
        <ele>41.6</ele>
        <time>2022-03-30T12:51:48Z</time>
      </trkpt>
      <trkpt lat="49.92016" lon="2.47149">
        <ele>41.6</ele>
        <time>2022-03-30T12:51:49Z</time>
      </trkpt>
      <trkpt lat="49.92016" lon="2.4715">
        <ele>41.7</ele>
        <time>2022-03-30T12:51:50Z</time>
      </trkpt>
      <trkpt lat="49.92017" lon="2.47151">
        <ele>41.7</ele>
        <time>2022-03-30T12:51:51Z</time>
      </trkpt>
      <trkpt lat="49.92017" lon="2.47153">
        <ele>41.7</ele>
        <time>2022-03-30T12:51:52Z</time>
      </trkpt>
      <trkpt lat="49.92019" lon="2.47156">
        <ele>41.7</ele>
        <time>2022-03-30T12:51:53Z</time>
      </trkpt>
      <trkpt lat="49.92019" lon="2.47157">
        <ele>41.7</ele>
        <time>2022-03-30T12:51:54Z</time>
      </trkpt>
      <trkpt lat="49.92019" lon="2.47158">
        <ele>41.7</ele>
        <time>2022-03-30T12:51:55Z</time>
      </trkpt>
      <trkpt lat="49.9202" lon="2.4716">
        <ele>41.7</ele>
        <time>2022-03-30T12:51:56Z</time>
      </trkpt>
      <trkpt lat="49.9202" lon="2.47161">
        <ele>41.8</ele>
        <time>2022-03-30T12:51:57Z</time>
      </trkpt>
      <trkpt lat="49.92021" lon="2.47163">
        <ele>41.8</ele>
        <time>2022-03-30T12:51:58Z</time>
      </trkpt>
      <trkpt lat="49.92022" lon="2.47165">
        <ele>41.8</ele>
        <time>2022-03-30T12:51:59Z</time>
      </trkpt>
      <trkpt lat="49.92022" lon="2.47166">
        <ele>41.8</ele>
        <time>2022-03-30T12:52:00Z</time>
      </trkpt>
      <trkpt lat="49.92023" lon="2.47168">
        <ele>41.8</ele>
        <time>2022-03-30T12:52:01Z</time>
      </trkpt>
      <trkpt lat="49.92024" lon="2.47169">
        <ele>41.8</ele>
        <time>2022-03-30T12:52:02Z</time>
      </trkpt>
      <trkpt lat="49.92024" lon="2.47171">
        <ele>41.8</ele>
        <time>2022-03-30T12:52:03Z</time>
      </trkpt>
      <trkpt lat="49.92025" lon="2.47172">
        <ele>41.8</ele>
        <time>2022-03-30T12:52:04Z</time>
      </trkpt>
      <trkpt lat="49.92025" lon="2.47174">
        <ele>41.8</ele>
        <time>2022-03-30T12:52:05Z</time>
      </trkpt>
      <trkpt lat="49.92026" lon="2.47175">
        <ele>41.8</ele>
        <time>2022-03-30T12:52:06Z</time>
      </trkpt>
      <trkpt lat="49.92027" lon="2.47177">
        <ele>41.8</ele>
        <time>2022-03-30T12:52:07Z</time>
      </trkpt>
      <trkpt lat="49.92027" lon="2.47178">
        <ele>41.8</ele>
        <time>2022-03-30T12:52:08Z</time>
      </trkpt>
      <trkpt lat="49.92028" lon="2.47179">
        <ele>41.8</ele>
        <time>2022-03-30T12:52:09Z</time>
      </trkpt>
      <trkpt lat="49.92029" lon="2.47181">
        <ele>41.8</ele>
        <time>2022-03-30T12:52:10Z</time>
      </trkpt>
      <trkpt lat="49.92029" lon="2.47182">
        <ele>41.8</ele>
        <time>2022-03-30T12:52:11Z</time>
      </trkpt>
      <trkpt lat="49.9203" lon="2.47183">
        <ele>41.8</ele>
        <time>2022-03-30T12:52:12Z</time>
      </trkpt>
      <trkpt lat="49.92031" lon="2.47186">
        <ele>41.8</ele>
        <time>2022-03-30T12:52:13Z</time>
      </trkpt>
      <trkpt lat="49.92031" lon="2.47187">
        <ele>41.8</ele>
        <time>2022-03-30T12:52:14Z</time>
      </trkpt>
      <trkpt lat="49.92032" lon="2.47188">
        <ele>41.8</ele>
        <time>2022-03-30T12:52:15Z</time>
      </trkpt>
      <trkpt lat="49.92032" lon="2.4719">
        <ele>41.8</ele>
        <time>2022-03-30T12:52:16Z</time>
      </trkpt>
      <trkpt lat="49.92033" lon="2.47191">
        <ele>41.9</ele>
        <time>2022-03-30T12:52:17Z</time>
      </trkpt>
      <trkpt lat="49.92034" lon="2.47192">
        <ele>41.9</ele>
        <time>2022-03-30T12:52:18Z</time>
      </trkpt>
      <trkpt lat="49.92034" lon="2.47193">
        <ele>41.9</ele>
        <time>2022-03-30T12:52:19Z</time>
      </trkpt>
      <trkpt lat="49.92035" lon="2.47194">
        <ele>41.9</ele>
        <time>2022-03-30T12:52:20Z</time>
      </trkpt>
      <trkpt lat="49.92035" lon="2.47196">
        <ele>41.9</ele>
        <time>2022-03-30T12:52:21Z</time>
      </trkpt>
      <trkpt lat="49.92037" lon="2.47198">
        <ele>41.9</ele>
        <time>2022-03-30T12:52:22Z</time>
      </trkpt>
      <trkpt lat="49.92037" lon="2.47199">
        <ele>41.9</ele>
        <time>2022-03-30T12:52:23Z</time>
      </trkpt>
      <trkpt lat="49.92038" lon="2.472">
        <ele>41.9</ele>
        <time>2022-03-30T12:52:24Z</time>
      </trkpt>
      <trkpt lat="49.92039" lon="2.47203">
        <ele>42</ele>
        <time>2022-03-30T12:52:25Z</time>
      </trkpt>
      <trkpt lat="49.92039" lon="2.47204">
        <ele>42</ele>
        <time>2022-03-30T12:52:26Z</time>
      </trkpt>
      <trkpt lat="49.9204" lon="2.47205">
        <ele>42</ele>
        <time>2022-03-30T12:52:27Z</time>
      </trkpt>
      <trkpt lat="49.92041" lon="2.47206">
        <ele>42</ele>
        <time>2022-03-30T12:52:28Z</time>
      </trkpt>
      <trkpt lat="49.92042" lon="2.47208">
        <ele>42</ele>
        <time>2022-03-30T12:52:29Z</time>
      </trkpt>
      <trkpt lat="49.92043" lon="2.47211">
        <ele>42.1</ele>
        <time>2022-03-30T12:52:30Z</time>
      </trkpt>
      <trkpt lat="49.92044" lon="2.47212">
        <ele>42.1</ele>
        <time>2022-03-30T12:52:31Z</time>
      </trkpt>
      <trkpt lat="49.92044" lon="2.47213">
        <ele>42.1</ele>
        <time>2022-03-30T12:52:32Z</time>
      </trkpt>
      <trkpt lat="49.92045" lon="2.47214">
        <ele>42.1</ele>
        <time>2022-03-30T12:52:33Z</time>
      </trkpt>
      <trkpt lat="49.92045" lon="2.47215">
        <ele>42.1</ele>
        <time>2022-03-30T12:52:34Z</time>
      </trkpt>
      <trkpt lat="49.92046" lon="2.47217">
        <ele>42.1</ele>
        <time>2022-03-30T12:52:35Z</time>
      </trkpt>
      <trkpt lat="49.92047" lon="2.4722">
        <ele>42.1</ele>
        <time>2022-03-30T12:52:36Z</time>
      </trkpt>
      <trkpt lat="49.92048" lon="2.47221">
        <ele>42.2</ele>
        <time>2022-03-30T12:52:37Z</time>
      </trkpt>
      <trkpt lat="49.92048" lon="2.47222">
        <ele>42.2</ele>
        <time>2022-03-30T12:52:38Z</time>
      </trkpt>
      <trkpt lat="49.92049" lon="2.47223">
        <ele>42.2</ele>
        <time>2022-03-30T12:52:39Z</time>
      </trkpt>
      <trkpt lat="49.92049" lon="2.47225">
        <ele>42.2</ele>
        <time>2022-03-30T12:52:40Z</time>
      </trkpt>
      <trkpt lat="49.9205" lon="2.47226">
        <ele>42.2</ele>
        <time>2022-03-30T12:52:41Z</time>
      </trkpt>
      <trkpt lat="49.92051" lon="2.47228">
        <ele>42.2</ele>
        <time>2022-03-30T12:52:42Z</time>
      </trkpt>
      <trkpt lat="49.92052" lon="2.47229">
        <ele>42.2</ele>
        <time>2022-03-30T12:52:43Z</time>
      </trkpt>
      <trkpt lat="49.92053" lon="2.4723">
        <ele>42.2</ele>
        <time>2022-03-30T12:52:44Z</time>
      </trkpt>
      <trkpt lat="49.92053" lon="2.47231">
        <ele>42.2</ele>
        <time>2022-03-30T12:52:45Z</time>
      </trkpt>
      <trkpt lat="49.92054" lon="2.47232">
        <ele>42.2</ele>
        <time>2022-03-30T12:52:46Z</time>
      </trkpt>
      <trkpt lat="49.92054" lon="2.47233">
        <ele>42.2</ele>
        <time>2022-03-30T12:52:47Z</time>
      </trkpt>
      <trkpt lat="49.92055" lon="2.47235">
        <ele>42.2</ele>
        <time>2022-03-30T12:52:48Z</time>
      </trkpt>
      <trkpt lat="49.92055" lon="2.47236">
        <ele>42.2</ele>
        <time>2022-03-30T12:52:49Z</time>
      </trkpt>
      <trkpt lat="49.92056" lon="2.47238">
        <ele>42.2</ele>
        <time>2022-03-30T12:52:50Z</time>
      </trkpt>
      <trkpt lat="49.92057" lon="2.47239">
        <ele>42.2</ele>
        <time>2022-03-30T12:52:51Z</time>
      </trkpt>
      <trkpt lat="49.92057" lon="2.4724">
        <ele>42.2</ele>
        <time>2022-03-30T12:52:52Z</time>
      </trkpt>
      <trkpt lat="49.92058" lon="2.47242">
        <ele>42.2</ele>
        <time>2022-03-30T12:52:53Z</time>
      </trkpt>
      <trkpt lat="49.92059" lon="2.47245">
        <ele>42.2</ele>
        <time>2022-03-30T12:52:54Z</time>
      </trkpt>
      <trkpt lat="49.9206" lon="2.47246">
        <ele>42.2</ele>
        <time>2022-03-30T12:52:55Z</time>
      </trkpt>
      <trkpt lat="49.9206" lon="2.47246">
        <ele>42.2</ele>
        <time>2022-03-30T12:52:56Z</time>
      </trkpt>
      <trkpt lat="49.92061" lon="2.47248">
        <ele>42.2</ele>
        <time>2022-03-30T12:52:57Z</time>
      </trkpt>
      <trkpt lat="49.92062" lon="2.47249">
        <ele>42.2</ele>
        <time>2022-03-30T12:52:58Z</time>
      </trkpt>
      <trkpt lat="49.92062" lon="2.4725">
        <ele>42.2</ele>
        <time>2022-03-30T12:52:59Z</time>
      </trkpt>
      <trkpt lat="49.92063" lon="2.47252">
        <ele>42.2</ele>
        <time>2022-03-30T12:53:00Z</time>
      </trkpt>
      <trkpt lat="49.92064" lon="2.47253">
        <ele>42.2</ele>
        <time>2022-03-30T12:53:01Z</time>
      </trkpt>
      <trkpt lat="49.92064" lon="2.47254">
        <ele>42.2</ele>
        <time>2022-03-30T12:53:02Z</time>
      </trkpt>
      <trkpt lat="49.92066" lon="2.47256">
        <ele>42.3</ele>
        <time>2022-03-30T12:53:03Z</time>
      </trkpt>
      <trkpt lat="49.92066" lon="2.47257">
        <ele>42.3</ele>
        <time>2022-03-30T12:53:04Z</time>
      </trkpt>
      <trkpt lat="49.92067" lon="2.47258">
        <ele>42.3</ele>
        <time>2022-03-30T12:53:05Z</time>
      </trkpt>
      <trkpt lat="49.92067" lon="2.4726">
        <ele>42.3</ele>
        <time>2022-03-30T12:53:06Z</time>
      </trkpt>
      <trkpt lat="49.92068" lon="2.47261">
        <ele>42.3</ele>
        <time>2022-03-30T12:53:07Z</time>
      </trkpt>
      <trkpt lat="49.92069" lon="2.47263">
        <ele>42.3</ele>
        <time>2022-03-30T12:53:08Z</time>
      </trkpt>
      <trkpt lat="49.9207" lon="2.47264">
        <ele>42.3</ele>
        <time>2022-03-30T12:53:09Z</time>
      </trkpt>
      <trkpt lat="49.9207" lon="2.47265">
        <ele>42.3</ele>
        <time>2022-03-30T12:53:10Z</time>
      </trkpt>
      <trkpt lat="49.92071" lon="2.47266">
        <ele>42.3</ele>
        <time>2022-03-30T12:53:11Z</time>
      </trkpt>
      <trkpt lat="49.92072" lon="2.47268">
        <ele>42.3</ele>
        <time>2022-03-30T12:53:12Z</time>
      </trkpt>
      <trkpt lat="49.92072" lon="2.47269">
        <ele>42.3</ele>
        <time>2022-03-30T12:53:13Z</time>
      </trkpt>
      <trkpt lat="49.92073" lon="2.4727">
        <ele>42.3</ele>
        <time>2022-03-30T12:53:14Z</time>
      </trkpt>
      <trkpt lat="49.92074" lon="2.47273">
        <ele>42.3</ele>
        <time>2022-03-30T12:53:15Z</time>
      </trkpt>
      <trkpt lat="49.92075" lon="2.47274">
        <ele>42.3</ele>
        <time>2022-03-30T12:53:16Z</time>
      </trkpt>
      <trkpt lat="49.92076" lon="2.47275">
        <ele>42.3</ele>
        <time>2022-03-30T12:53:17Z</time>
      </trkpt>
      <trkpt lat="49.92076" lon="2.47276">
        <ele>42.4</ele>
        <time>2022-03-30T12:53:18Z</time>
      </trkpt>
      <trkpt lat="49.92077" lon="2.47278">
        <ele>42.4</ele>
        <time>2022-03-30T12:53:19Z</time>
      </trkpt>
      <trkpt lat="49.92078" lon="2.47279">
        <ele>42.4</ele>
        <time>2022-03-30T12:53:20Z</time>
      </trkpt>
      <trkpt lat="49.92078" lon="2.4728">
        <ele>42.4</ele>
        <time>2022-03-30T12:53:21Z</time>
      </trkpt>
      <trkpt lat="49.92079" lon="2.47282">
        <ele>42.4</ele>
        <time>2022-03-30T12:53:22Z</time>
      </trkpt>
      <trkpt lat="49.9208" lon="2.47283">
        <ele>42.4</ele>
        <time>2022-03-30T12:53:23Z</time>
      </trkpt>
      <trkpt lat="49.92081" lon="2.47286">
        <ele>42.4</ele>
        <time>2022-03-30T12:53:24Z</time>
      </trkpt>
      <trkpt lat="49.92081" lon="2.47287">
        <ele>42.4</ele>
        <time>2022-03-30T12:53:25Z</time>
      </trkpt>
      <trkpt lat="49.92082" lon="2.47288">
        <ele>42.5</ele>
        <time>2022-03-30T12:53:26Z</time>
      </trkpt>
      <trkpt lat="49.92083" lon="2.4729">
        <ele>42.5</ele>
        <time>2022-03-30T12:53:27Z</time>
      </trkpt>
      <trkpt lat="49.92083" lon="2.47291">
        <ele>42.5</ele>
        <time>2022-03-30T12:53:28Z</time>
      </trkpt>
      <trkpt lat="49.92084" lon="2.47292">
        <ele>42.5</ele>
        <time>2022-03-30T12:53:29Z</time>
      </trkpt>
      <trkpt lat="49.92085" lon="2.47294">
        <ele>42.5</ele>
        <time>2022-03-30T12:53:30Z</time>
      </trkpt>
      <trkpt lat="49.92085" lon="2.47295">
        <ele>42.5</ele>
        <time>2022-03-30T12:53:31Z</time>
      </trkpt>
      <trkpt lat="49.92086" lon="2.47296">
        <ele>42.6</ele>
        <time>2022-03-30T12:53:32Z</time>
      </trkpt>
      <trkpt lat="49.92086" lon="2.47297">
        <ele>42.6</ele>
        <time>2022-03-30T12:53:33Z</time>
      </trkpt>
      <trkpt lat="49.92087" lon="2.47299">
        <ele>42.6</ele>
        <time>2022-03-30T12:53:34Z</time>
      </trkpt>
      <trkpt lat="49.92088" lon="2.47301">
        <ele>42.6</ele>
        <time>2022-03-30T12:53:35Z</time>
      </trkpt>
      <trkpt lat="49.92089" lon="2.47303">
        <ele>42.7</ele>
        <time>2022-03-30T12:53:36Z</time>
      </trkpt>
      <trkpt lat="49.92089" lon="2.47304">
        <ele>42.7</ele>
        <time>2022-03-30T12:53:37Z</time>
      </trkpt>
      <trkpt lat="49.9209" lon="2.47305">
        <ele>42.7</ele>
        <time>2022-03-30T12:53:38Z</time>
      </trkpt>
      <trkpt lat="49.9209" lon="2.47307">
        <ele>42.7</ele>
        <time>2022-03-30T12:53:39Z</time>
      </trkpt>
      <trkpt lat="49.92091" lon="2.47309">
        <ele>42.8</ele>
        <time>2022-03-30T12:53:40Z</time>
      </trkpt>
      <trkpt lat="49.92092" lon="2.4731">
        <ele>42.8</ele>
        <time>2022-03-30T12:53:41Z</time>
      </trkpt>
      <trkpt lat="49.92092" lon="2.47312">
        <ele>42.8</ele>
        <time>2022-03-30T12:53:42Z</time>
      </trkpt>
      <trkpt lat="49.92093" lon="2.47313">
        <ele>42.8</ele>
        <time>2022-03-30T12:53:43Z</time>
      </trkpt>
      <trkpt lat="49.92093" lon="2.47314">
        <ele>42.9</ele>
        <time>2022-03-30T12:53:44Z</time>
      </trkpt>
      <trkpt lat="49.92094" lon="2.47316">
        <ele>42.9</ele>
        <time>2022-03-30T12:53:45Z</time>
      </trkpt>
      <trkpt lat="49.92095" lon="2.47318">
        <ele>42.9</ele>
        <time>2022-03-30T12:53:46Z</time>
      </trkpt>
      <trkpt lat="49.92095" lon="2.47319">
        <ele>42.9</ele>
        <time>2022-03-30T12:53:47Z</time>
      </trkpt>
      <trkpt lat="49.92096" lon="2.47321">
        <ele>42.9</ele>
        <time>2022-03-30T12:53:48Z</time>
      </trkpt>
      <trkpt lat="49.92097" lon="2.47322">
        <ele>43</ele>
        <time>2022-03-30T12:53:49Z</time>
      </trkpt>
      <trkpt lat="49.92098" lon="2.47325">
        <ele>43</ele>
        <time>2022-03-30T12:53:50Z</time>
      </trkpt>
      <trkpt lat="49.92098" lon="2.47326">
        <ele>43</ele>
        <time>2022-03-30T12:53:51Z</time>
      </trkpt>
      <trkpt lat="49.92099" lon="2.47327">
        <ele>43</ele>
        <time>2022-03-30T12:53:52Z</time>
      </trkpt>
      <trkpt lat="49.92099" lon="2.47328">
        <ele>43.1</ele>
        <time>2022-03-30T12:53:53Z</time>
      </trkpt>
      <trkpt lat="49.921" lon="2.47329">
        <ele>43.1</ele>
        <time>2022-03-30T12:53:54Z</time>
      </trkpt>
      <trkpt lat="49.921" lon="2.4733">
        <ele>43.1</ele>
        <time>2022-03-30T12:53:55Z</time>
      </trkpt>
      <trkpt lat="49.92101" lon="2.47332">
        <ele>43.1</ele>
        <time>2022-03-30T12:53:56Z</time>
      </trkpt>
      <trkpt lat="49.92102" lon="2.47334">
        <ele>43.1</ele>
        <time>2022-03-30T12:53:57Z</time>
      </trkpt>
      <trkpt lat="49.92102" lon="2.47335">
        <ele>43.2</ele>
        <time>2022-03-30T12:53:58Z</time>
      </trkpt>
      <trkpt lat="49.92103" lon="2.47337">
        <ele>43.2</ele>
        <time>2022-03-30T12:53:59Z</time>
      </trkpt>
      <trkpt lat="49.92103" lon="2.47338">
        <ele>43.2</ele>
        <time>2022-03-30T12:54:00Z</time>
      </trkpt>
      <trkpt lat="49.92104" lon="2.47339">
        <ele>43.2</ele>
        <time>2022-03-30T12:54:01Z</time>
      </trkpt>
      <trkpt lat="49.92104" lon="2.47341">
        <ele>43.2</ele>
        <time>2022-03-30T12:54:02Z</time>
      </trkpt>
      <trkpt lat="49.92105" lon="2.47343">
        <ele>43.3</ele>
        <time>2022-03-30T12:54:03Z</time>
      </trkpt>
      <trkpt lat="49.92106" lon="2.47344">
        <ele>43.3</ele>
        <time>2022-03-30T12:54:04Z</time>
      </trkpt>
      <trkpt lat="49.92106" lon="2.47345">
        <ele>43.3</ele>
        <time>2022-03-30T12:54:05Z</time>
      </trkpt>
      <trkpt lat="49.92107" lon="2.47346">
        <ele>43.3</ele>
        <time>2022-03-30T12:54:06Z</time>
      </trkpt>
      <trkpt lat="49.92107" lon="2.47347">
        <ele>43.3</ele>
        <time>2022-03-30T12:54:07Z</time>
      </trkpt>
      <trkpt lat="49.92108" lon="2.47349">
        <ele>43.3</ele>
        <time>2022-03-30T12:54:08Z</time>
      </trkpt>
      <trkpt lat="49.92109" lon="2.4735">
        <ele>43.4</ele>
        <time>2022-03-30T12:54:09Z</time>
      </trkpt>
      <trkpt lat="49.92109" lon="2.47352">
        <ele>43.4</ele>
        <time>2022-03-30T12:54:10Z</time>
      </trkpt>
      <trkpt lat="49.9211" lon="2.47355">
        <ele>43.4</ele>
        <time>2022-03-30T12:54:11Z</time>
      </trkpt>
      <trkpt lat="49.92111" lon="2.47356">
        <ele>43.4</ele>
        <time>2022-03-30T12:54:12Z</time>
      </trkpt>
      <trkpt lat="49.92111" lon="2.47357">
        <ele>43.5</ele>
        <time>2022-03-30T12:54:13Z</time>
      </trkpt>
      <trkpt lat="49.92112" lon="2.4736">
        <ele>43.5</ele>
        <time>2022-03-30T12:54:14Z</time>
      </trkpt>
      <trkpt lat="49.92113" lon="2.47361">
        <ele>43.5</ele>
        <time>2022-03-30T12:54:15Z</time>
      </trkpt>
      <trkpt lat="49.92113" lon="2.47362">
        <ele>43.5</ele>
        <time>2022-03-30T12:54:16Z</time>
      </trkpt>
      <trkpt lat="49.92114" lon="2.47363">
        <ele>43.5</ele>
        <time>2022-03-30T12:54:17Z</time>
      </trkpt>
      <trkpt lat="49.92114" lon="2.47364">
        <ele>43.6</ele>
        <time>2022-03-30T12:54:18Z</time>
      </trkpt>
      <trkpt lat="49.92115" lon="2.47366">
        <ele>43.6</ele>
        <time>2022-03-30T12:54:19Z</time>
      </trkpt>
      <trkpt lat="49.92116" lon="2.47368">
        <ele>43.6</ele>
        <time>2022-03-30T12:54:20Z</time>
      </trkpt>
      <trkpt lat="49.92116" lon="2.47369">
        <ele>43.6</ele>
        <time>2022-03-30T12:54:21Z</time>
      </trkpt>
      <trkpt lat="49.92117" lon="2.47371">
        <ele>43.6</ele>
        <time>2022-03-30T12:54:22Z</time>
      </trkpt>
      <trkpt lat="49.92118" lon="2.47373">
        <ele>43.7</ele>
        <time>2022-03-30T12:54:23Z</time>
      </trkpt>
      <trkpt lat="49.92119" lon="2.47375">
        <ele>43.7</ele>
        <time>2022-03-30T12:54:24Z</time>
      </trkpt>
      <trkpt lat="49.92119" lon="2.47376">
        <ele>43.7</ele>
        <time>2022-03-30T12:54:25Z</time>
      </trkpt>
      <trkpt lat="49.9212" lon="2.47378">
        <ele>43.7</ele>
        <time>2022-03-30T12:54:26Z</time>
      </trkpt>
      <trkpt lat="49.9212" lon="2.47379">
        <ele>43.8</ele>
        <time>2022-03-30T12:54:27Z</time>
      </trkpt>
      <trkpt lat="49.92121" lon="2.4738">
        <ele>43.8</ele>
        <time>2022-03-30T12:54:28Z</time>
      </trkpt>
      <trkpt lat="49.92121" lon="2.47382">
        <ele>43.8</ele>
        <time>2022-03-30T12:54:29Z</time>
      </trkpt>
      <trkpt lat="49.92122" lon="2.47383">
        <ele>43.8</ele>
        <time>2022-03-30T12:54:30Z</time>
      </trkpt>
      <trkpt lat="49.92122" lon="2.47385">
        <ele>43.8</ele>
        <time>2022-03-30T12:54:31Z</time>
      </trkpt>
      <trkpt lat="49.92123" lon="2.47386">
        <ele>43.9</ele>
        <time>2022-03-30T12:54:32Z</time>
      </trkpt>
      <trkpt lat="49.92123" lon="2.47388">
        <ele>43.9</ele>
        <time>2022-03-30T12:54:33Z</time>
      </trkpt>
      <trkpt lat="49.92124" lon="2.47389">
        <ele>43.9</ele>
        <time>2022-03-30T12:54:34Z</time>
      </trkpt>
      <trkpt lat="49.92125" lon="2.47392">
        <ele>43.9</ele>
        <time>2022-03-30T12:54:35Z</time>
      </trkpt>
      <trkpt lat="49.92126" lon="2.47393">
        <ele>43.9</ele>
        <time>2022-03-30T12:54:36Z</time>
      </trkpt>
      <trkpt lat="49.92126" lon="2.47394">
        <ele>43.9</ele>
        <time>2022-03-30T12:54:37Z</time>
      </trkpt>
      <trkpt lat="49.92126" lon="2.47396">
        <ele>44</ele>
        <time>2022-03-30T12:54:38Z</time>
      </trkpt>
      <trkpt lat="49.92127" lon="2.47397">
        <ele>44</ele>
        <time>2022-03-30T12:54:39Z</time>
      </trkpt>
      <trkpt lat="49.92128" lon="2.47398">
        <ele>44</ele>
        <time>2022-03-30T12:54:40Z</time>
      </trkpt>
      <trkpt lat="49.92128" lon="2.474">
        <ele>44</ele>
        <time>2022-03-30T12:54:41Z</time>
      </trkpt>
      <trkpt lat="49.92129" lon="2.47402">
        <ele>44</ele>
        <time>2022-03-30T12:54:42Z</time>
      </trkpt>
      <trkpt lat="49.92129" lon="2.47403">
        <ele>44</ele>
        <time>2022-03-30T12:54:43Z</time>
      </trkpt>
      <trkpt lat="49.9213" lon="2.47406">
        <ele>44.1</ele>
        <time>2022-03-30T12:54:44Z</time>
      </trkpt>
      <trkpt lat="49.92131" lon="2.47407">
        <ele>44.1</ele>
        <time>2022-03-30T12:54:45Z</time>
      </trkpt>
      <trkpt lat="49.92131" lon="2.47408">
        <ele>44.1</ele>
        <time>2022-03-30T12:54:46Z</time>
      </trkpt>
      <trkpt lat="49.92132" lon="2.4741">
        <ele>44.1</ele>
        <time>2022-03-30T12:54:47Z</time>
      </trkpt>
      <trkpt lat="49.92132" lon="2.47411">
        <ele>44.1</ele>
        <time>2022-03-30T12:54:48Z</time>
      </trkpt>
      <trkpt lat="49.92133" lon="2.47412">
        <ele>44.1</ele>
        <time>2022-03-30T12:54:49Z</time>
      </trkpt>
      <trkpt lat="49.92133" lon="2.47414">
        <ele>44.1</ele>
        <time>2022-03-30T12:54:50Z</time>
      </trkpt>
      <trkpt lat="49.92134" lon="2.47415">
        <ele>44.1</ele>
        <time>2022-03-30T12:54:51Z</time>
      </trkpt>
      <trkpt lat="49.92134" lon="2.47417">
        <ele>44.2</ele>
        <time>2022-03-30T12:54:52Z</time>
      </trkpt>
      <trkpt lat="49.92135" lon="2.47418">
        <ele>44.2</ele>
        <time>2022-03-30T12:54:53Z</time>
      </trkpt>
      <trkpt lat="49.92135" lon="2.4742">
        <ele>44.2</ele>
        <time>2022-03-30T12:54:54Z</time>
      </trkpt>
      <trkpt lat="49.92136" lon="2.47421">
        <ele>44.2</ele>
        <time>2022-03-30T12:54:55Z</time>
      </trkpt>
      <trkpt lat="49.92137" lon="2.47424">
        <ele>44.3</ele>
        <time>2022-03-30T12:54:56Z</time>
      </trkpt>
      <trkpt lat="49.92138" lon="2.47425">
        <ele>44.3</ele>
        <time>2022-03-30T12:54:57Z</time>
      </trkpt>
      <trkpt lat="49.92138" lon="2.47426">
        <ele>44.3</ele>
        <time>2022-03-30T12:54:58Z</time>
      </trkpt>
      <trkpt lat="49.92139" lon="2.47428">
        <ele>44.3</ele>
        <time>2022-03-30T12:54:59Z</time>
      </trkpt>
      <trkpt lat="49.92139" lon="2.47429">
        <ele>44.3</ele>
        <time>2022-03-30T12:55:00Z</time>
      </trkpt>
      <trkpt lat="49.92139" lon="2.47431">
        <ele>44.4</ele>
        <time>2022-03-30T12:55:01Z</time>
      </trkpt>
      <trkpt lat="49.92141" lon="2.47433">
        <ele>44.4</ele>
        <time>2022-03-30T12:55:02Z</time>
      </trkpt>
      <trkpt lat="49.92141" lon="2.47434">
        <ele>44.4</ele>
        <time>2022-03-30T12:55:03Z</time>
      </trkpt>
      <trkpt lat="49.92141" lon="2.47435">
        <ele>44.5</ele>
        <time>2022-03-30T12:55:04Z</time>
      </trkpt>
      <trkpt lat="49.92142" lon="2.47437">
        <ele>44.5</ele>
        <time>2022-03-30T12:55:05Z</time>
      </trkpt>
      <trkpt lat="49.92143" lon="2.47439">
        <ele>44.5</ele>
        <time>2022-03-30T12:55:06Z</time>
      </trkpt>
      <trkpt lat="49.92143" lon="2.4744">
        <ele>44.6</ele>
        <time>2022-03-30T12:55:07Z</time>
      </trkpt>
      <trkpt lat="49.92144" lon="2.47442">
        <ele>44.6</ele>
        <time>2022-03-30T12:55:08Z</time>
      </trkpt>
      <trkpt lat="49.92145" lon="2.47444">
        <ele>44.6</ele>
        <time>2022-03-30T12:55:09Z</time>
      </trkpt>
      <trkpt lat="49.92145" lon="2.47446">
        <ele>44.7</ele>
        <time>2022-03-30T12:55:10Z</time>
      </trkpt>
      <trkpt lat="49.92146" lon="2.47447">
        <ele>44.7</ele>
        <time>2022-03-30T12:55:11Z</time>
      </trkpt>
      <trkpt lat="49.92146" lon="2.47448">
        <ele>44.7</ele>
        <time>2022-03-30T12:55:12Z</time>
      </trkpt>
      <trkpt lat="49.92147" lon="2.47451">
        <ele>44.8</ele>
        <time>2022-03-30T12:55:13Z</time>
      </trkpt>
      <trkpt lat="49.92147" lon="2.47452">
        <ele>44.8</ele>
        <time>2022-03-30T12:55:14Z</time>
      </trkpt>
      <trkpt lat="49.92148" lon="2.47454">
        <ele>44.8</ele>
        <time>2022-03-30T12:55:15Z</time>
      </trkpt>
      <trkpt lat="49.92148" lon="2.47455">
        <ele>44.9</ele>
        <time>2022-03-30T12:55:16Z</time>
      </trkpt>
      <trkpt lat="49.92149" lon="2.47457">
        <ele>44.9</ele>
        <time>2022-03-30T12:55:17Z</time>
      </trkpt>
      <trkpt lat="49.92149" lon="2.47459">
        <ele>44.9</ele>
        <time>2022-03-30T12:55:18Z</time>
      </trkpt>
      <trkpt lat="49.9215" lon="2.47462">
        <ele>45</ele>
        <time>2022-03-30T12:55:19Z</time>
      </trkpt>
      <trkpt lat="49.9215" lon="2.47463">
        <ele>45</ele>
        <time>2022-03-30T12:55:20Z</time>
      </trkpt>
      <trkpt lat="49.92151" lon="2.47464">
        <ele>45</ele>
        <time>2022-03-30T12:55:21Z</time>
      </trkpt>
      <trkpt lat="49.92151" lon="2.47466">
        <ele>45</ele>
        <time>2022-03-30T12:55:22Z</time>
      </trkpt>
      <trkpt lat="49.92152" lon="2.47467">
        <ele>45.1</ele>
        <time>2022-03-30T12:55:23Z</time>
      </trkpt>
      <trkpt lat="49.92152" lon="2.47468">
        <ele>45.1</ele>
        <time>2022-03-30T12:55:24Z</time>
      </trkpt>
      <trkpt lat="49.92152" lon="2.47469">
        <ele>45.1</ele>
        <time>2022-03-30T12:55:25Z</time>
      </trkpt>
      <trkpt lat="49.92153" lon="2.47471">
        <ele>45.1</ele>
        <time>2022-03-30T12:55:26Z</time>
      </trkpt>
      <trkpt lat="49.92153" lon="2.47473">
        <ele>45.1</ele>
        <time>2022-03-30T12:55:27Z</time>
      </trkpt>
      <trkpt lat="49.92154" lon="2.47474">
        <ele>45.2</ele>
        <time>2022-03-30T12:55:28Z</time>
      </trkpt>
      <trkpt lat="49.92155" lon="2.47477">
        <ele>45.2</ele>
        <time>2022-03-30T12:55:29Z</time>
      </trkpt>
      <trkpt lat="49.92155" lon="2.47478">
        <ele>45.2</ele>
        <time>2022-03-30T12:55:30Z</time>
      </trkpt>
      <trkpt lat="49.92156" lon="2.47479">
        <ele>45.2</ele>
        <time>2022-03-30T12:55:31Z</time>
      </trkpt>
      <trkpt lat="49.92156" lon="2.47481">
        <ele>45.3</ele>
        <time>2022-03-30T12:55:32Z</time>
      </trkpt>
      <trkpt lat="49.92157" lon="2.47482">
        <ele>45.3</ele>
        <time>2022-03-30T12:55:33Z</time>
      </trkpt>
      <trkpt lat="49.92157" lon="2.47484">
        <ele>45.3</ele>
        <time>2022-03-30T12:55:34Z</time>
      </trkpt>
      <trkpt lat="49.92158" lon="2.47485">
        <ele>45.3</ele>
        <time>2022-03-30T12:55:35Z</time>
      </trkpt>
      <trkpt lat="49.92158" lon="2.47487">
        <ele>45.3</ele>
        <time>2022-03-30T12:55:36Z</time>
      </trkpt>
      <trkpt lat="49.92159" lon="2.47488">
        <ele>45.4</ele>
        <time>2022-03-30T12:55:37Z</time>
      </trkpt>
      <trkpt lat="49.92159" lon="2.4749">
        <ele>45.4</ele>
        <time>2022-03-30T12:55:38Z</time>
      </trkpt>
      <trkpt lat="49.9216" lon="2.47492">
        <ele>45.4</ele>
        <time>2022-03-30T12:55:39Z</time>
      </trkpt>
      <trkpt lat="49.92161" lon="2.47493">
        <ele>45.4</ele>
        <time>2022-03-30T12:55:40Z</time>
      </trkpt>
      <trkpt lat="49.92162" lon="2.47496">
        <ele>45.5</ele>
        <time>2022-03-30T12:55:41Z</time>
      </trkpt>
      <trkpt lat="49.92162" lon="2.47497">
        <ele>45.5</ele>
        <time>2022-03-30T12:55:42Z</time>
      </trkpt>
      <trkpt lat="49.92162" lon="2.47498">
        <ele>45.5</ele>
        <time>2022-03-30T12:55:43Z</time>
      </trkpt>
      <trkpt lat="49.92163" lon="2.475">
        <ele>45.5</ele>
        <time>2022-03-30T12:55:44Z</time>
      </trkpt>
      <trkpt lat="49.92164" lon="2.47501">
        <ele>45.5</ele>
        <time>2022-03-30T12:55:45Z</time>
      </trkpt>
      <trkpt lat="49.92164" lon="2.47502">
        <ele>45.5</ele>
        <time>2022-03-30T12:55:46Z</time>
      </trkpt>
      <trkpt lat="49.92165" lon="2.47504">
        <ele>45.6</ele>
        <time>2022-03-30T12:55:47Z</time>
      </trkpt>
      <trkpt lat="49.92166" lon="2.47505">
        <ele>45.6</ele>
        <time>2022-03-30T12:55:48Z</time>
      </trkpt>
      <trkpt lat="49.92166" lon="2.47507">
        <ele>45.6</ele>
        <time>2022-03-30T12:55:49Z</time>
      </trkpt>
      <trkpt lat="49.92167" lon="2.47508">
        <ele>45.6</ele>
        <time>2022-03-30T12:55:50Z</time>
      </trkpt>
      <trkpt lat="49.92168" lon="2.4751">
        <ele>45.6</ele>
        <time>2022-03-30T12:55:51Z</time>
      </trkpt>
      <trkpt lat="49.92168" lon="2.47511">
        <ele>45.6</ele>
        <time>2022-03-30T12:55:52Z</time>
      </trkpt>
      <trkpt lat="49.9217" lon="2.47514">
        <ele>45.6</ele>
        <time>2022-03-30T12:55:53Z</time>
      </trkpt>
      <trkpt lat="49.9217" lon="2.47515">
        <ele>45.7</ele>
        <time>2022-03-30T12:55:54Z</time>
      </trkpt>
      <trkpt lat="49.92171" lon="2.47516">
        <ele>45.7</ele>
        <time>2022-03-30T12:55:55Z</time>
      </trkpt>
      <trkpt lat="49.92171" lon="2.47518">
        <ele>45.7</ele>
        <time>2022-03-30T12:55:56Z</time>
      </trkpt>
      <trkpt lat="49.92172" lon="2.47519">
        <ele>45.7</ele>
        <time>2022-03-30T12:55:57Z</time>
      </trkpt>
      <trkpt lat="49.92172" lon="2.4752">
        <ele>45.7</ele>
        <time>2022-03-30T12:55:58Z</time>
      </trkpt>
      <trkpt lat="49.92173" lon="2.47522">
        <ele>45.7</ele>
        <time>2022-03-30T12:55:59Z</time>
      </trkpt>
      <trkpt lat="49.92173" lon="2.47523">
        <ele>45.7</ele>
        <time>2022-03-30T12:56:00Z</time>
      </trkpt>
      <trkpt lat="49.92174" lon="2.47525">
        <ele>45.7</ele>
        <time>2022-03-30T12:56:01Z</time>
      </trkpt>
      <trkpt lat="49.92175" lon="2.47527">
        <ele>45.7</ele>
        <time>2022-03-30T12:56:02Z</time>
      </trkpt>
      <trkpt lat="49.92175" lon="2.47529">
        <ele>45.7</ele>
        <time>2022-03-30T12:56:03Z</time>
      </trkpt>
      <trkpt lat="49.92175" lon="2.4753">
        <ele>45.7</ele>
        <time>2022-03-30T12:56:04Z</time>
      </trkpt>
      <trkpt lat="49.92176" lon="2.47532">
        <ele>45.7</ele>
        <time>2022-03-30T12:56:05Z</time>
      </trkpt>
      <trkpt lat="49.92176" lon="2.47533">
        <ele>45.8</ele>
        <time>2022-03-30T12:56:06Z</time>
      </trkpt>
      <trkpt lat="49.92176" lon="2.47535">
        <ele>45.8</ele>
        <time>2022-03-30T12:56:07Z</time>
      </trkpt>
      <trkpt lat="49.92177" lon="2.47536">
        <ele>45.8</ele>
        <time>2022-03-30T12:56:08Z</time>
      </trkpt>
      <trkpt lat="49.92177" lon="2.47538">
        <ele>45.8</ele>
        <time>2022-03-30T12:56:09Z</time>
      </trkpt>
      <trkpt lat="49.92177" lon="2.47539">
        <ele>45.8</ele>
        <time>2022-03-30T12:56:10Z</time>
      </trkpt>
      <trkpt lat="49.92178" lon="2.47541">
        <ele>45.8</ele>
        <time>2022-03-30T12:56:11Z</time>
      </trkpt>
      <trkpt lat="49.92178" lon="2.47542">
        <ele>45.9</ele>
        <time>2022-03-30T12:56:12Z</time>
      </trkpt>
      <trkpt lat="49.92179" lon="2.47544">
        <ele>45.9</ele>
        <time>2022-03-30T12:56:13Z</time>
      </trkpt>
      <trkpt lat="49.92179" lon="2.47547">
        <ele>45.9</ele>
        <time>2022-03-30T12:56:14Z</time>
      </trkpt>
      <trkpt lat="49.92179" lon="2.47548">
        <ele>45.9</ele>
        <time>2022-03-30T12:56:15Z</time>
      </trkpt>
      <trkpt lat="49.9218" lon="2.47549">
        <ele>45.9</ele>
        <time>2022-03-30T12:56:16Z</time>
      </trkpt>
      <trkpt lat="49.9218" lon="2.4755">
        <ele>45.9</ele>
        <time>2022-03-30T12:56:17Z</time>
      </trkpt>
      <trkpt lat="49.9218" lon="2.47551">
        <ele>46</ele>
        <time>2022-03-30T12:56:18Z</time>
      </trkpt>
      <trkpt lat="49.92181" lon="2.47552">
        <ele>46</ele>
        <time>2022-03-30T12:56:19Z</time>
      </trkpt>
      <trkpt lat="49.92181" lon="2.47554">
        <ele>46</ele>
        <time>2022-03-30T12:56:20Z</time>
      </trkpt>
      <trkpt lat="49.92181" lon="2.47556">
        <ele>46</ele>
        <time>2022-03-30T12:56:21Z</time>
      </trkpt>
      <trkpt lat="49.92182" lon="2.47557">
        <ele>46</ele>
        <time>2022-03-30T12:56:22Z</time>
      </trkpt>
      <trkpt lat="49.92182" lon="2.47559">
        <ele>46.1</ele>
        <time>2022-03-30T12:56:23Z</time>
      </trkpt>
      <trkpt lat="49.92183" lon="2.4756">
        <ele>46.1</ele>
        <time>2022-03-30T12:56:24Z</time>
      </trkpt>
      <trkpt lat="49.92183" lon="2.47561">
        <ele>46.1</ele>
        <time>2022-03-30T12:56:25Z</time>
      </trkpt>
      <trkpt lat="49.92183" lon="2.47563">
        <ele>46.1</ele>
        <time>2022-03-30T12:56:26Z</time>
      </trkpt>
      <trkpt lat="49.92184" lon="2.47564">
        <ele>46.1</ele>
        <time>2022-03-30T12:56:27Z</time>
      </trkpt>
      <trkpt lat="49.92184" lon="2.47566">
        <ele>46.1</ele>
        <time>2022-03-30T12:56:28Z</time>
      </trkpt>
      <trkpt lat="49.92185" lon="2.47567">
        <ele>46.1</ele>
        <time>2022-03-30T12:56:29Z</time>
      </trkpt>
      <trkpt lat="49.92185" lon="2.47568">
        <ele>46.2</ele>
        <time>2022-03-30T12:56:30Z</time>
      </trkpt>
      <trkpt lat="49.92185" lon="2.47569">
        <ele>46.2</ele>
        <time>2022-03-30T12:56:31Z</time>
      </trkpt>
      <trkpt lat="49.92185" lon="2.4757">
        <ele>46.2</ele>
        <time>2022-03-30T12:56:32Z</time>
      </trkpt>
      <trkpt lat="49.92185" lon="2.47571">
        <ele>46.2</ele>
        <time>2022-03-30T12:56:33Z</time>
      </trkpt>
      <trkpt lat="49.92185" lon="2.47572">
        <ele>46.2</ele>
        <time>2022-03-30T12:56:34Z</time>
      </trkpt>
      <trkpt lat="49.92185" lon="2.47573">
        <ele>46.2</ele>
        <time>2022-03-30T12:56:35Z</time>
      </trkpt>
      <trkpt lat="49.92185" lon="2.47575">
        <ele>46.2</ele>
        <time>2022-03-30T12:56:36Z</time>
      </trkpt>
      <trkpt lat="49.92185" lon="2.47576">
        <ele>46.2</ele>
        <time>2022-03-30T12:56:37Z</time>
      </trkpt>
      <trkpt lat="49.92185" lon="2.47577">
        <ele>46.2</ele>
        <time>2022-03-30T12:56:38Z</time>
      </trkpt>
      <trkpt lat="49.92185" lon="2.47577">
        <ele>46.2</ele>
        <time>2022-03-30T12:56:39Z</time>
      </trkpt>
      <trkpt lat="49.92185" lon="2.47578">
        <ele>46.2</ele>
        <time>2022-03-30T12:56:40Z</time>
      </trkpt>
      <trkpt lat="49.92186" lon="2.47578">
        <ele>46.2</ele>
        <time>2022-03-30T12:56:41Z</time>
      </trkpt>
      <trkpt lat="49.92186" lon="2.47578">
        <ele>46.2</ele>
        <time>2022-03-30T12:56:42Z</time>
      </trkpt>
      <trkpt lat="49.92187" lon="2.47578">
        <ele>46.2</ele>
        <time>2022-03-30T12:56:43Z</time>
      </trkpt>
      <trkpt lat="49.92187" lon="2.47577">
        <ele>46.2</ele>
        <time>2022-03-30T12:56:44Z</time>
      </trkpt>
      <trkpt lat="49.92187" lon="2.47576">
        <ele>46.2</ele>
        <time>2022-03-30T12:56:45Z</time>
      </trkpt>
      <trkpt lat="49.92187" lon="2.47576">
        <ele>46.2</ele>
        <time>2022-03-30T12:56:46Z</time>
      </trkpt>
      <trkpt lat="49.92187" lon="2.47576">
        <ele>46.2</ele>
        <time>2022-03-30T12:56:47Z</time>
      </trkpt>
      <trkpt lat="49.92187" lon="2.47575">
        <ele>46.2</ele>
        <time>2022-03-30T12:56:48Z</time>
      </trkpt>
      <trkpt lat="49.92187" lon="2.47575">
        <ele>46.2</ele>
        <time>2022-03-30T12:56:49Z</time>
      </trkpt>
      <trkpt lat="49.92187" lon="2.47575">
        <ele>46.2</ele>
        <time>2022-03-30T12:56:50Z</time>
      </trkpt>
      <trkpt lat="49.92187" lon="2.47575">
        <ele>46.2</ele>
        <time>2022-03-30T12:56:51Z</time>
      </trkpt>
      <trkpt lat="49.92187" lon="2.47575">
        <ele>46.2</ele>
        <time>2022-03-30T12:56:52Z</time>
      </trkpt>
      <trkpt lat="49.92187" lon="2.47575">
        <ele>46.2</ele>
        <time>2022-03-30T12:56:53Z</time>
      </trkpt>
      <trkpt lat="49.92187" lon="2.47575">
        <ele>46.2</ele>
        <time>2022-03-30T12:56:54Z</time>
      </trkpt>
      <trkpt lat="49.92187" lon="2.47575">
        <ele>46.2</ele>
        <time>2022-03-30T12:56:55Z</time>
      </trkpt>
      <trkpt lat="49.92187" lon="2.47575">
        <ele>46.2</ele>
        <time>2022-03-30T12:56:56Z</time>
      </trkpt>
      <trkpt lat="49.92187" lon="2.47575">
        <ele>46.2</ele>
        <time>2022-03-30T12:56:57Z</time>
      </trkpt>
      <trkpt lat="49.92187" lon="2.47575">
        <ele>46.2</ele>
        <time>2022-03-30T12:56:58Z</time>
      </trkpt>
      <trkpt lat="49.92187" lon="2.47575">
        <ele>46.2</ele>
        <time>2022-03-30T12:56:59Z</time>
      </trkpt>
      <trkpt lat="49.92187" lon="2.47575">
        <ele>46.2</ele>
        <time>2022-03-30T12:57:00Z</time>
      </trkpt>
      <trkpt lat="49.92187" lon="2.47575">
        <ele>46.2</ele>
        <time>2022-03-30T12:57:01Z</time>
      </trkpt>
      <trkpt lat="49.92187" lon="2.47575">
        <ele>46.2</ele>
        <time>2022-03-30T12:57:02Z</time>
      </trkpt>
      <trkpt lat="49.92187" lon="2.47575">
        <ele>46.2</ele>
        <time>2022-03-30T12:57:03Z</time>
      </trkpt>
      <trkpt lat="49.92187" lon="2.47575">
        <ele>46.2</ele>
        <time>2022-03-30T12:57:04Z</time>
      </trkpt>
      <trkpt lat="49.92187" lon="2.47575">
        <ele>46.2</ele>
        <time>2022-03-30T12:57:05Z</time>
      </trkpt>
      <trkpt lat="49.92187" lon="2.47575">
        <ele>46.2</ele>
        <time>2022-03-30T12:57:06Z</time>
      </trkpt>
      <trkpt lat="49.92187" lon="2.47575">
        <ele>46.2</ele>
        <time>2022-03-30T12:57:07Z</time>
      </trkpt>
      <trkpt lat="49.92187" lon="2.47575">
        <ele>46.2</ele>
        <time>2022-03-30T12:57:08Z</time>
      </trkpt>
      <trkpt lat="49.92187" lon="2.47575">
        <ele>46.2</ele>
        <time>2022-03-30T12:57:09Z</time>
      </trkpt>
      <trkpt lat="49.92187" lon="2.47575">
        <ele>46.2</ele>
        <time>2022-03-30T12:57:10Z</time>
      </trkpt>
      <trkpt lat="49.92187" lon="2.47575">
        <ele>46.2</ele>
        <time>2022-03-30T12:57:11Z</time>
      </trkpt>
      <trkpt lat="49.92187" lon="2.47575">
        <ele>46.2</ele>
        <time>2022-03-30T12:57:12Z</time>
      </trkpt>
      <trkpt lat="49.92187" lon="2.47575">
        <ele>46.2</ele>
        <time>2022-03-30T12:57:13Z</time>
      </trkpt>
      <trkpt lat="49.92187" lon="2.47575">
        <ele>46.2</ele>
        <time>2022-03-30T12:57:14Z</time>
      </trkpt>
      <trkpt lat="49.92187" lon="2.47575">
        <ele>46.2</ele>
        <time>2022-03-30T12:57:15Z</time>
      </trkpt>
      <trkpt lat="49.92187" lon="2.47575">
        <ele>46.2</ele>
        <time>2022-03-30T12:57:16Z</time>
      </trkpt>
      <trkpt lat="49.92187" lon="2.47575">
        <ele>46.2</ele>
        <time>2022-03-30T12:57:17Z</time>
      </trkpt>
      <trkpt lat="49.92187" lon="2.47575">
        <ele>46.2</ele>
        <time>2022-03-30T12:57:18Z</time>
      </trkpt>
      <trkpt lat="49.92187" lon="2.47575">
        <ele>46.2</ele>
        <time>2022-03-30T12:57:19Z</time>
      </trkpt>
      <trkpt lat="49.92187" lon="2.47575">
        <ele>46.2</ele>
        <time>2022-03-30T12:57:20Z</time>
      </trkpt>
      <trkpt lat="49.92187" lon="2.47575">
        <ele>46.2</ele>
        <time>2022-03-30T12:57:21Z</time>
      </trkpt>
      <trkpt lat="49.92187" lon="2.47575">
        <ele>46.2</ele>
        <time>2022-03-30T12:57:22Z</time>
      </trkpt>
      <trkpt lat="49.92187" lon="2.47575">
        <ele>46.2</ele>
        <time>2022-03-30T12:57:23Z</time>
      </trkpt>
      <trkpt lat="49.92187" lon="2.47575">
        <ele>46.2</ele>
        <time>2022-03-30T12:57:24Z</time>
      </trkpt>
      <trkpt lat="49.92187" lon="2.47575">
        <ele>46.2</ele>
        <time>2022-03-30T12:57:25Z</time>
      </trkpt>
      <trkpt lat="49.92187" lon="2.47575">
        <ele>46.2</ele>
        <time>2022-03-30T12:57:26Z</time>
      </trkpt>
      <trkpt lat="49.92187" lon="2.47575">
        <ele>46.2</ele>
        <time>2022-03-30T12:57:27Z</time>
      </trkpt>
      <trkpt lat="49.92187" lon="2.47575">
        <ele>46.2</ele>
        <time>2022-03-30T12:57:28Z</time>
      </trkpt>
      <trkpt lat="49.92187" lon="2.47575">
        <ele>46.2</ele>
        <time>2022-03-30T12:57:29Z</time>
      </trkpt>
      <trkpt lat="49.92187" lon="2.47575">
        <ele>46.2</ele>
        <time>2022-03-30T12:57:30Z</time>
      </trkpt>
      <trkpt lat="49.92187" lon="2.47575">
        <ele>46.2</ele>
        <time>2022-03-30T12:57:31Z</time>
      </trkpt>
      <trkpt lat="49.92187" lon="2.47575">
        <ele>46.2</ele>
        <time>2022-03-30T12:57:32Z</time>
      </trkpt>
      <trkpt lat="49.92187" lon="2.47575">
        <ele>46.2</ele>
        <time>2022-03-30T12:57:33Z</time>
      </trkpt>
      <trkpt lat="49.92187" lon="2.47575">
        <ele>46.2</ele>
        <time>2022-03-30T12:57:34Z</time>
      </trkpt>
      <trkpt lat="49.92187" lon="2.47575">
        <ele>46.2</ele>
        <time>2022-03-30T12:57:35Z</time>
      </trkpt>
      <trkpt lat="49.92187" lon="2.47575">
        <ele>46.2</ele>
        <time>2022-03-30T12:57:36Z</time>
      </trkpt>
      <trkpt lat="49.92187" lon="2.47575">
        <ele>46.2</ele>
        <time>2022-03-30T12:57:37Z</time>
      </trkpt>
      <trkpt lat="49.92187" lon="2.47575">
        <ele>46.2</ele>
        <time>2022-03-30T12:57:38Z</time>
      </trkpt>
      <trkpt lat="49.92187" lon="2.47575">
        <ele>46.2</ele>
        <time>2022-03-30T12:57:39Z</time>
      </trkpt>
      <trkpt lat="49.92187" lon="2.47575">
        <ele>46.2</ele>
        <time>2022-03-30T12:57:40Z</time>
      </trkpt>
      <trkpt lat="49.92187" lon="2.47575">
        <ele>46.2</ele>
        <time>2022-03-30T12:57:41Z</time>
      </trkpt>
      <trkpt lat="49.92187" lon="2.47575">
        <ele>46.2</ele>
        <time>2022-03-30T12:57:42Z</time>
      </trkpt>
      <trkpt lat="49.92187" lon="2.47575">
        <ele>46.2</ele>
        <time>2022-03-30T12:57:43Z</time>
      </trkpt>
      <trkpt lat="49.92187" lon="2.47575">
        <ele>46.2</ele>
        <time>2022-03-30T12:57:44Z</time>
      </trkpt>
      <trkpt lat="49.92187" lon="2.47575">
        <ele>46.2</ele>
        <time>2022-03-30T12:57:45Z</time>
      </trkpt>
      <trkpt lat="49.92187" lon="2.47575">
        <ele>46.2</ele>
        <time>2022-03-30T12:57:46Z</time>
      </trkpt>
      <trkpt lat="49.92187" lon="2.47575">
        <ele>46.2</ele>
        <time>2022-03-30T12:57:47Z</time>
      </trkpt>
      <trkpt lat="49.92187" lon="2.47575">
        <ele>46.2</ele>
        <time>2022-03-30T12:57:48Z</time>
      </trkpt>
      <trkpt lat="49.92187" lon="2.47575">
        <ele>46.2</ele>
        <time>2022-03-30T12:57:49Z</time>
      </trkpt>
      <trkpt lat="49.92187" lon="2.47575">
        <ele>46.2</ele>
        <time>2022-03-30T12:57:50Z</time>
      </trkpt>
      <trkpt lat="49.92187" lon="2.47575">
        <ele>46.2</ele>
        <time>2022-03-30T12:57:51Z</time>
      </trkpt>
      <trkpt lat="49.92187" lon="2.47575">
        <ele>46.2</ele>
        <time>2022-03-30T12:57:52Z</time>
      </trkpt>
      <trkpt lat="49.92187" lon="2.47575">
        <ele>46.2</ele>
        <time>2022-03-30T12:57:53Z</time>
      </trkpt>
      <trkpt lat="49.92187" lon="2.47575">
        <ele>46.2</ele>
        <time>2022-03-30T12:57:54Z</time>
      </trkpt>
      <trkpt lat="49.92187" lon="2.47575">
        <ele>46.2</ele>
        <time>2022-03-30T12:57:55Z</time>
      </trkpt>
      <trkpt lat="49.92187" lon="2.47575">
        <ele>46.2</ele>
        <time>2022-03-30T12:57:56Z</time>
      </trkpt>
      <trkpt lat="49.92187" lon="2.47575">
        <ele>46.2</ele>
        <time>2022-03-30T12:57:57Z</time>
      </trkpt>
      <trkpt lat="49.92187" lon="2.47575">
        <ele>46.2</ele>
        <time>2022-03-30T12:57:58Z</time>
      </trkpt>
      <trkpt lat="49.92187" lon="2.47575">
        <ele>46.2</ele>
        <time>2022-03-30T12:57:59Z</time>
      </trkpt>
      <trkpt lat="49.92187" lon="2.47575">
        <ele>46.2</ele>
        <time>2022-03-30T12:58:00Z</time>
      </trkpt>
      <trkpt lat="49.92187" lon="2.47575">
        <ele>46.2</ele>
        <time>2022-03-30T12:58:01Z</time>
      </trkpt>
      <trkpt lat="49.92187" lon="2.47575">
        <ele>46.2</ele>
        <time>2022-03-30T12:58:02Z</time>
      </trkpt>
      <trkpt lat="49.92187" lon="2.47575">
        <ele>46.2</ele>
        <time>2022-03-30T12:58:03Z</time>
      </trkpt>
      <trkpt lat="49.92187" lon="2.47575">
        <ele>46.2</ele>
        <time>2022-03-30T12:58:04Z</time>
      </trkpt>
      <trkpt lat="49.92187" lon="2.47575">
        <ele>46.2</ele>
        <time>2022-03-30T12:58:05Z</time>
      </trkpt>
      <trkpt lat="49.92187" lon="2.47575">
        <ele>46.2</ele>
        <time>2022-03-30T12:58:06Z</time>
      </trkpt>
      <trkpt lat="49.92187" lon="2.47575">
        <ele>46.2</ele>
        <time>2022-03-30T12:58:07Z</time>
      </trkpt>
      <trkpt lat="49.92187" lon="2.47575">
        <ele>46.2</ele>
        <time>2022-03-30T12:58:08Z</time>
      </trkpt>
      <trkpt lat="49.92187" lon="2.47575">
        <ele>46.2</ele>
        <time>2022-03-30T12:58:09Z</time>
      </trkpt>
      <trkpt lat="49.92187" lon="2.47575">
        <ele>46.2</ele>
        <time>2022-03-30T12:58:10Z</time>
      </trkpt>
      <trkpt lat="49.92187" lon="2.47575">
        <ele>46.2</ele>
        <time>2022-03-30T12:58:11Z</time>
      </trkpt>
      <trkpt lat="49.92187" lon="2.47575">
        <ele>46.2</ele>
        <time>2022-03-30T12:58:12Z</time>
      </trkpt>
      <trkpt lat="49.92187" lon="2.47575">
        <ele>46.2</ele>
        <time>2022-03-30T12:58:13Z</time>
      </trkpt>
      <trkpt lat="49.92187" lon="2.47575">
        <ele>46.2</ele>
        <time>2022-03-30T12:58:14Z</time>
      </trkpt>
      <trkpt lat="49.92187" lon="2.47575">
        <ele>46.2</ele>
        <time>2022-03-30T12:58:15Z</time>
      </trkpt>
      <trkpt lat="49.92186" lon="2.47574">
        <ele>46.3</ele>
        <time>2022-03-30T12:58:16Z</time>
      </trkpt>
      <trkpt lat="49.92184" lon="2.47573">
        <ele>46.3</ele>
        <time>2022-03-30T12:58:17Z</time>
      </trkpt>
      <trkpt lat="49.92185" lon="2.47574">
        <ele>46.3</ele>
        <time>2022-03-30T12:58:18Z</time>
      </trkpt>
      <trkpt lat="49.92185" lon="2.47575">
        <ele>46.3</ele>
        <time>2022-03-30T12:58:19Z</time>
      </trkpt>
      <trkpt lat="49.92186" lon="2.47577">
        <ele>46.3</ele>
        <time>2022-03-30T12:58:20Z</time>
      </trkpt>
      <trkpt lat="49.92186" lon="2.47579">
        <ele>46.3</ele>
        <time>2022-03-30T12:58:21Z</time>
      </trkpt>
      <trkpt lat="49.92187" lon="2.47581">
        <ele>46.3</ele>
        <time>2022-03-30T12:58:22Z</time>
      </trkpt>
      <trkpt lat="49.92187" lon="2.47583">
        <ele>46.3</ele>
        <time>2022-03-30T12:58:23Z</time>
      </trkpt>
      <trkpt lat="49.92188" lon="2.47585">
        <ele>46.3</ele>
        <time>2022-03-30T12:58:24Z</time>
      </trkpt>
      <trkpt lat="49.92188" lon="2.47587">
        <ele>46.3</ele>
        <time>2022-03-30T12:58:25Z</time>
      </trkpt>
      <trkpt lat="49.92189" lon="2.47589">
        <ele>46.3</ele>
        <time>2022-03-30T12:58:26Z</time>
      </trkpt>
      <trkpt lat="49.9219" lon="2.47592">
        <ele>46.3</ele>
        <time>2022-03-30T12:58:27Z</time>
      </trkpt>
      <trkpt lat="49.9219" lon="2.47593">
        <ele>46.3</ele>
        <time>2022-03-30T12:58:28Z</time>
      </trkpt>
      <trkpt lat="49.9219" lon="2.47594">
        <ele>46.3</ele>
        <time>2022-03-30T12:58:29Z</time>
      </trkpt>
      <trkpt lat="49.92191" lon="2.47596">
        <ele>46.3</ele>
        <time>2022-03-30T12:58:30Z</time>
      </trkpt>
      <trkpt lat="49.92192" lon="2.47597">
        <ele>46.3</ele>
        <time>2022-03-30T12:58:31Z</time>
      </trkpt>
      <trkpt lat="49.92192" lon="2.47598">
        <ele>46.3</ele>
        <time>2022-03-30T12:58:32Z</time>
      </trkpt>
      <trkpt lat="49.92193" lon="2.47598">
        <ele>46.3</ele>
        <time>2022-03-30T12:58:33Z</time>
      </trkpt>
      <trkpt lat="49.92194" lon="2.47597">
        <ele>46.3</ele>
        <time>2022-03-30T12:58:34Z</time>
      </trkpt>
      <trkpt lat="49.92194" lon="2.47597">
        <ele>46.3</ele>
        <time>2022-03-30T12:58:35Z</time>
      </trkpt>
      <trkpt lat="49.92195" lon="2.47598">
        <ele>46.3</ele>
        <time>2022-03-30T12:58:36Z</time>
      </trkpt>
      <trkpt lat="49.92195" lon="2.476">
        <ele>46.3</ele>
        <time>2022-03-30T12:58:37Z</time>
      </trkpt>
      <trkpt lat="49.92195" lon="2.47601">
        <ele>46.4</ele>
        <time>2022-03-30T12:58:38Z</time>
      </trkpt>
      <trkpt lat="49.92196" lon="2.47603">
        <ele>46.4</ele>
        <time>2022-03-30T12:58:39Z</time>
      </trkpt>
      <trkpt lat="49.92196" lon="2.47605">
        <ele>46.4</ele>
        <time>2022-03-30T12:58:40Z</time>
      </trkpt>
      <trkpt lat="49.92197" lon="2.47607">
        <ele>46.4</ele>
        <time>2022-03-30T12:58:41Z</time>
      </trkpt>
      <trkpt lat="49.92197" lon="2.47608">
        <ele>46.4</ele>
        <time>2022-03-30T12:58:42Z</time>
      </trkpt>
      <trkpt lat="49.92197" lon="2.47609">
        <ele>46.4</ele>
        <time>2022-03-30T12:58:43Z</time>
      </trkpt>
      <trkpt lat="49.92198" lon="2.4761">
        <ele>46.4</ele>
        <time>2022-03-30T12:58:44Z</time>
      </trkpt>
      <trkpt lat="49.92198" lon="2.47611">
        <ele>46.4</ele>
        <time>2022-03-30T12:58:45Z</time>
      </trkpt>
      <trkpt lat="49.92199" lon="2.47613">
        <ele>46.4</ele>
        <time>2022-03-30T12:58:46Z</time>
      </trkpt>
      <trkpt lat="49.92199" lon="2.47614">
        <ele>46.4</ele>
        <time>2022-03-30T12:58:47Z</time>
      </trkpt>
      <trkpt lat="49.922" lon="2.47616">
        <ele>46.4</ele>
        <time>2022-03-30T12:58:48Z</time>
      </trkpt>
      <trkpt lat="49.922" lon="2.47618">
        <ele>46.4</ele>
        <time>2022-03-30T12:58:49Z</time>
      </trkpt>
      <trkpt lat="49.92201" lon="2.47619">
        <ele>46.4</ele>
        <time>2022-03-30T12:58:50Z</time>
      </trkpt>
      <trkpt lat="49.92201" lon="2.47621">
        <ele>46.4</ele>
        <time>2022-03-30T12:58:51Z</time>
      </trkpt>
      <trkpt lat="49.92201" lon="2.47622">
        <ele>46.4</ele>
        <time>2022-03-30T12:58:52Z</time>
      </trkpt>
      <trkpt lat="49.92202" lon="2.47624">
        <ele>46.4</ele>
        <time>2022-03-30T12:58:53Z</time>
      </trkpt>
      <trkpt lat="49.92202" lon="2.47627">
        <ele>46.4</ele>
        <time>2022-03-30T12:58:54Z</time>
      </trkpt>
      <trkpt lat="49.92202" lon="2.47628">
        <ele>46.4</ele>
        <time>2022-03-30T12:58:55Z</time>
      </trkpt>
      <trkpt lat="49.92202" lon="2.47629">
        <ele>46.4</ele>
        <time>2022-03-30T12:58:56Z</time>
      </trkpt>
      <trkpt lat="49.92203" lon="2.47631">
        <ele>46.4</ele>
        <time>2022-03-30T12:58:57Z</time>
      </trkpt>
      <trkpt lat="49.92203" lon="2.47633">
        <ele>46.4</ele>
        <time>2022-03-30T12:58:58Z</time>
      </trkpt>
      <trkpt lat="49.92203" lon="2.47634">
        <ele>46.4</ele>
        <time>2022-03-30T12:58:59Z</time>
      </trkpt>
      <trkpt lat="49.92204" lon="2.47637">
        <ele>46.4</ele>
        <time>2022-03-30T12:59:00Z</time>
      </trkpt>
      <trkpt lat="49.92204" lon="2.47639">
        <ele>46.4</ele>
        <time>2022-03-30T12:59:01Z</time>
      </trkpt>
      <trkpt lat="49.92204" lon="2.4764">
        <ele>46.4</ele>
        <time>2022-03-30T12:59:02Z</time>
      </trkpt>
      <trkpt lat="49.92205" lon="2.47641">
        <ele>46.4</ele>
        <time>2022-03-30T12:59:03Z</time>
      </trkpt>
      <trkpt lat="49.92205" lon="2.47642">
        <ele>46.4</ele>
        <time>2022-03-30T12:59:04Z</time>
      </trkpt>
      <trkpt lat="49.92205" lon="2.47644">
        <ele>46.4</ele>
        <time>2022-03-30T12:59:05Z</time>
      </trkpt>
      <trkpt lat="49.92205" lon="2.47645">
        <ele>46.4</ele>
        <time>2022-03-30T12:59:06Z</time>
      </trkpt>
      <trkpt lat="49.92205" lon="2.47647">
        <ele>46.4</ele>
        <time>2022-03-30T12:59:07Z</time>
      </trkpt>
      <trkpt lat="49.92206" lon="2.47649">
        <ele>46.4</ele>
        <time>2022-03-30T12:59:08Z</time>
      </trkpt>
      <trkpt lat="49.92206" lon="2.4765">
        <ele>46.4</ele>
        <time>2022-03-30T12:59:09Z</time>
      </trkpt>
      <trkpt lat="49.92206" lon="2.47652">
        <ele>46.4</ele>
        <time>2022-03-30T12:59:10Z</time>
      </trkpt>
      <trkpt lat="49.92207" lon="2.47654">
        <ele>46.4</ele>
        <time>2022-03-30T12:59:11Z</time>
      </trkpt>
      <trkpt lat="49.92207" lon="2.47655">
        <ele>46.4</ele>
        <time>2022-03-30T12:59:12Z</time>
      </trkpt>
      <trkpt lat="49.92208" lon="2.47658">
        <ele>46.4</ele>
        <time>2022-03-30T12:59:13Z</time>
      </trkpt>
      <trkpt lat="49.92208" lon="2.4766">
        <ele>46.4</ele>
        <time>2022-03-30T12:59:14Z</time>
      </trkpt>
      <trkpt lat="49.92208" lon="2.47661">
        <ele>46.4</ele>
        <time>2022-03-30T12:59:15Z</time>
      </trkpt>
      <trkpt lat="49.92209" lon="2.47663">
        <ele>46.4</ele>
        <time>2022-03-30T12:59:16Z</time>
      </trkpt>
      <trkpt lat="49.92209" lon="2.47664">
        <ele>46.4</ele>
        <time>2022-03-30T12:59:17Z</time>
      </trkpt>
      <trkpt lat="49.92209" lon="2.47665">
        <ele>46.5</ele>
        <time>2022-03-30T12:59:18Z</time>
      </trkpt>
      <trkpt lat="49.92209" lon="2.47667">
        <ele>46.5</ele>
        <time>2022-03-30T12:59:19Z</time>
      </trkpt>
      <trkpt lat="49.9221" lon="2.47668">
        <ele>46.5</ele>
        <time>2022-03-30T12:59:20Z</time>
      </trkpt>
      <trkpt lat="49.9221" lon="2.47671">
        <ele>46.5</ele>
        <time>2022-03-30T12:59:21Z</time>
      </trkpt>
      <trkpt lat="49.92211" lon="2.47674">
        <ele>46.5</ele>
        <time>2022-03-30T12:59:22Z</time>
      </trkpt>
      <trkpt lat="49.92211" lon="2.47675">
        <ele>46.5</ele>
        <time>2022-03-30T12:59:23Z</time>
      </trkpt>
      <trkpt lat="49.92211" lon="2.47676">
        <ele>46.5</ele>
        <time>2022-03-30T12:59:24Z</time>
      </trkpt>
      <trkpt lat="49.92212" lon="2.47678">
        <ele>46.5</ele>
        <time>2022-03-30T12:59:25Z</time>
      </trkpt>
      <trkpt lat="49.92212" lon="2.4768">
        <ele>46.6</ele>
        <time>2022-03-30T12:59:26Z</time>
      </trkpt>
      <trkpt lat="49.92213" lon="2.47682">
        <ele>46.6</ele>
        <time>2022-03-30T12:59:27Z</time>
      </trkpt>
      <trkpt lat="49.92213" lon="2.47684">
        <ele>46.6</ele>
        <time>2022-03-30T12:59:28Z</time>
      </trkpt>
      <trkpt lat="49.92213" lon="2.47686">
        <ele>46.6</ele>
        <time>2022-03-30T12:59:29Z</time>
      </trkpt>
      <trkpt lat="49.92214" lon="2.47687">
        <ele>46.6</ele>
        <time>2022-03-30T12:59:30Z</time>
      </trkpt>
      <trkpt lat="49.92214" lon="2.47689">
        <ele>46.6</ele>
        <time>2022-03-30T12:59:31Z</time>
      </trkpt>
      <trkpt lat="49.92214" lon="2.4769">
        <ele>46.6</ele>
        <time>2022-03-30T12:59:32Z</time>
      </trkpt>
      <trkpt lat="49.92215" lon="2.47693">
        <ele>46.6</ele>
        <time>2022-03-30T12:59:33Z</time>
      </trkpt>
      <trkpt lat="49.92215" lon="2.47694">
        <ele>46.6</ele>
        <time>2022-03-30T12:59:34Z</time>
      </trkpt>
      <trkpt lat="49.92215" lon="2.47696">
        <ele>46.6</ele>
        <time>2022-03-30T12:59:35Z</time>
      </trkpt>
      <trkpt lat="49.92216" lon="2.47699">
        <ele>46.6</ele>
        <time>2022-03-30T12:59:36Z</time>
      </trkpt>
      <trkpt lat="49.92216" lon="2.477">
        <ele>46.6</ele>
        <time>2022-03-30T12:59:37Z</time>
      </trkpt>
      <trkpt lat="49.92216" lon="2.47701">
        <ele>46.6</ele>
        <time>2022-03-30T12:59:38Z</time>
      </trkpt>
      <trkpt lat="49.92217" lon="2.47704">
        <ele>46.6</ele>
        <time>2022-03-30T12:59:39Z</time>
      </trkpt>
      <trkpt lat="49.92217" lon="2.47706">
        <ele>46.6</ele>
        <time>2022-03-30T12:59:40Z</time>
      </trkpt>
      <trkpt lat="49.92218" lon="2.47707">
        <ele>46.6</ele>
        <time>2022-03-30T12:59:41Z</time>
      </trkpt>
      <trkpt lat="49.92218" lon="2.47709">
        <ele>46.6</ele>
        <time>2022-03-30T12:59:42Z</time>
      </trkpt>
      <trkpt lat="49.92218" lon="2.47711">
        <ele>46.6</ele>
        <time>2022-03-30T12:59:43Z</time>
      </trkpt>
      <trkpt lat="49.92219" lon="2.47714">
        <ele>46.6</ele>
        <time>2022-03-30T12:59:44Z</time>
      </trkpt>
      <trkpt lat="49.9222" lon="2.47715">
        <ele>46.6</ele>
        <time>2022-03-30T12:59:45Z</time>
      </trkpt>
      <trkpt lat="49.9222" lon="2.47716">
        <ele>46.6</ele>
        <time>2022-03-30T12:59:46Z</time>
      </trkpt>
      <trkpt lat="49.9222" lon="2.47718">
        <ele>46.6</ele>
        <time>2022-03-30T12:59:47Z</time>
      </trkpt>
      <trkpt lat="49.92221" lon="2.47719">
        <ele>46.6</ele>
        <time>2022-03-30T12:59:48Z</time>
      </trkpt>
      <trkpt lat="49.92221" lon="2.4772">
        <ele>46.6</ele>
        <time>2022-03-30T12:59:49Z</time>
      </trkpt>
      <trkpt lat="49.92222" lon="2.47723">
        <ele>46.6</ele>
        <time>2022-03-30T12:59:50Z</time>
      </trkpt>
      <trkpt lat="49.92222" lon="2.47725">
        <ele>46.6</ele>
        <time>2022-03-30T12:59:51Z</time>
      </trkpt>
      <trkpt lat="49.92222" lon="2.47726">
        <ele>46.6</ele>
        <time>2022-03-30T12:59:52Z</time>
      </trkpt>
      <trkpt lat="49.92223" lon="2.47729">
        <ele>46.6</ele>
        <time>2022-03-30T12:59:53Z</time>
      </trkpt>
      <trkpt lat="49.92224" lon="2.4773">
        <ele>46.6</ele>
        <time>2022-03-30T12:59:54Z</time>
      </trkpt>
      <trkpt lat="49.92224" lon="2.47732">
        <ele>46.6</ele>
        <time>2022-03-30T12:59:55Z</time>
      </trkpt>
      <trkpt lat="49.92225" lon="2.47735">
        <ele>46.6</ele>
        <time>2022-03-30T12:59:56Z</time>
      </trkpt>
      <trkpt lat="49.92225" lon="2.47736">
        <ele>46.6</ele>
        <time>2022-03-30T12:59:57Z</time>
      </trkpt>
      <trkpt lat="49.92225" lon="2.47737">
        <ele>46.6</ele>
        <time>2022-03-30T12:59:58Z</time>
      </trkpt>
      <trkpt lat="49.92226" lon="2.47739">
        <ele>46.6</ele>
        <time>2022-03-30T12:59:59Z</time>
      </trkpt>
      <trkpt lat="49.92226" lon="2.47741">
        <ele>46.6</ele>
        <time>2022-03-30T13:00:00Z</time>
      </trkpt>
      <trkpt lat="49.92227" lon="2.47743">
        <ele>46.5</ele>
        <time>2022-03-30T13:00:01Z</time>
      </trkpt>
      <trkpt lat="49.92227" lon="2.47745">
        <ele>46.5</ele>
        <time>2022-03-30T13:00:02Z</time>
      </trkpt>
      <trkpt lat="49.92227" lon="2.47746">
        <ele>46.5</ele>
        <time>2022-03-30T13:00:03Z</time>
      </trkpt>
      <trkpt lat="49.92228" lon="2.47748">
        <ele>46.5</ele>
        <time>2022-03-30T13:00:04Z</time>
      </trkpt>
      <trkpt lat="49.92228" lon="2.47749">
        <ele>46.5</ele>
        <time>2022-03-30T13:00:05Z</time>
      </trkpt>
      <trkpt lat="49.92229" lon="2.47751">
        <ele>46.5</ele>
        <time>2022-03-30T13:00:06Z</time>
      </trkpt>
      <trkpt lat="49.92229" lon="2.47755">
        <ele>46.5</ele>
        <time>2022-03-30T13:00:07Z</time>
      </trkpt>
      <trkpt lat="49.92229" lon="2.47756">
        <ele>46.5</ele>
        <time>2022-03-30T13:00:08Z</time>
      </trkpt>
      <trkpt lat="49.9223" lon="2.47757">
        <ele>46.5</ele>
        <time>2022-03-30T13:00:09Z</time>
      </trkpt>
      <trkpt lat="49.9223" lon="2.4776">
        <ele>46.5</ele>
        <time>2022-03-30T13:00:10Z</time>
      </trkpt>
      <trkpt lat="49.92231" lon="2.47761">
        <ele>46.5</ele>
        <time>2022-03-30T13:00:11Z</time>
      </trkpt>
      <trkpt lat="49.92231" lon="2.47763">
        <ele>46.5</ele>
        <time>2022-03-30T13:00:12Z</time>
      </trkpt>
      <trkpt lat="49.92231" lon="2.47765">
        <ele>46.5</ele>
        <time>2022-03-30T13:00:13Z</time>
      </trkpt>
      <trkpt lat="49.92232" lon="2.47767">
        <ele>46.5</ele>
        <time>2022-03-30T13:00:14Z</time>
      </trkpt>
      <trkpt lat="49.92232" lon="2.4777">
        <ele>46.4</ele>
        <time>2022-03-30T13:00:15Z</time>
      </trkpt>
      <trkpt lat="49.92233" lon="2.47771">
        <ele>46.4</ele>
        <time>2022-03-30T13:00:16Z</time>
      </trkpt>
      <trkpt lat="49.92233" lon="2.47772">
        <ele>46.4</ele>
        <time>2022-03-30T13:00:17Z</time>
      </trkpt>
      <trkpt lat="49.92233" lon="2.47774">
        <ele>46.4</ele>
        <time>2022-03-30T13:00:18Z</time>
      </trkpt>
      <trkpt lat="49.92234" lon="2.47775">
        <ele>46.4</ele>
        <time>2022-03-30T13:00:19Z</time>
      </trkpt>
      <trkpt lat="49.92234" lon="2.47777">
        <ele>46.4</ele>
        <time>2022-03-30T13:00:20Z</time>
      </trkpt>
      <trkpt lat="49.92235" lon="2.4778">
        <ele>46.4</ele>
        <time>2022-03-30T13:00:21Z</time>
      </trkpt>
      <trkpt lat="49.92235" lon="2.47781">
        <ele>46.4</ele>
        <time>2022-03-30T13:00:22Z</time>
      </trkpt>
      <trkpt lat="49.92235" lon="2.47782">
        <ele>46.4</ele>
        <time>2022-03-30T13:00:23Z</time>
      </trkpt>
      <trkpt lat="49.92236" lon="2.47785">
        <ele>46.4</ele>
        <time>2022-03-30T13:00:24Z</time>
      </trkpt>
      <trkpt lat="49.92236" lon="2.47786">
        <ele>46.4</ele>
        <time>2022-03-30T13:00:25Z</time>
      </trkpt>
      <trkpt lat="49.92237" lon="2.47788">
        <ele>46.4</ele>
        <time>2022-03-30T13:00:26Z</time>
      </trkpt>
      <trkpt lat="49.92237" lon="2.4779">
        <ele>46.4</ele>
        <time>2022-03-30T13:00:27Z</time>
      </trkpt>
      <trkpt lat="49.92238" lon="2.47792">
        <ele>46.4</ele>
        <time>2022-03-30T13:00:28Z</time>
      </trkpt>
      <trkpt lat="49.92238" lon="2.47793">
        <ele>46.4</ele>
        <time>2022-03-30T13:00:29Z</time>
      </trkpt>
      <trkpt lat="49.92239" lon="2.47794">
        <ele>46.4</ele>
        <time>2022-03-30T13:00:30Z</time>
      </trkpt>
      <trkpt lat="49.92239" lon="2.47795">
        <ele>46.4</ele>
        <time>2022-03-30T13:00:31Z</time>
      </trkpt>
      <trkpt lat="49.9224" lon="2.47795">
        <ele>46.4</ele>
        <time>2022-03-30T13:00:32Z</time>
      </trkpt>
      <trkpt lat="49.92241" lon="2.47796">
        <ele>46.5</ele>
        <time>2022-03-30T13:00:33Z</time>
      </trkpt>
      <trkpt lat="49.92242" lon="2.47796">
        <ele>46.5</ele>
        <time>2022-03-30T13:00:34Z</time>
      </trkpt>
      <trkpt lat="49.92243" lon="2.47797">
        <ele>46.5</ele>
        <time>2022-03-30T13:00:35Z</time>
      </trkpt>
      <trkpt lat="49.92244" lon="2.47798">
        <ele>46.5</ele>
        <time>2022-03-30T13:00:36Z</time>
      </trkpt>
      <trkpt lat="49.92244" lon="2.47799">
        <ele>46.5</ele>
        <time>2022-03-30T13:00:37Z</time>
      </trkpt>
      <trkpt lat="49.92244" lon="2.478">
        <ele>46.5</ele>
        <time>2022-03-30T13:00:38Z</time>
      </trkpt>
      <trkpt lat="49.92244" lon="2.47801">
        <ele>46.5</ele>
        <time>2022-03-30T13:00:39Z</time>
      </trkpt>
      <trkpt lat="49.92244" lon="2.47802">
        <ele>46.5</ele>
        <time>2022-03-30T13:00:40Z</time>
      </trkpt>
      <trkpt lat="49.92244" lon="2.47803">
        <ele>46.6</ele>
        <time>2022-03-30T13:00:41Z</time>
      </trkpt>
      <trkpt lat="49.92244" lon="2.47805">
        <ele>46.6</ele>
        <time>2022-03-30T13:00:42Z</time>
      </trkpt>
      <trkpt lat="49.92244" lon="2.47806">
        <ele>46.6</ele>
        <time>2022-03-30T13:00:43Z</time>
      </trkpt>
      <trkpt lat="49.92244" lon="2.47808">
        <ele>46.6</ele>
        <time>2022-03-30T13:00:44Z</time>
      </trkpt>
      <trkpt lat="49.92244" lon="2.4781">
        <ele>46.6</ele>
        <time>2022-03-30T13:00:45Z</time>
      </trkpt>
      <trkpt lat="49.92244" lon="2.47811">
        <ele>46.7</ele>
        <time>2022-03-30T13:00:46Z</time>
      </trkpt>
      <trkpt lat="49.92245" lon="2.47814">
        <ele>46.7</ele>
        <time>2022-03-30T13:00:47Z</time>
      </trkpt>
      <trkpt lat="49.92245" lon="2.47816">
        <ele>46.7</ele>
        <time>2022-03-30T13:00:48Z</time>
      </trkpt>
      <trkpt lat="49.92246" lon="2.47817">
        <ele>46.8</ele>
        <time>2022-03-30T13:00:49Z</time>
      </trkpt>
      <trkpt lat="49.92246" lon="2.47819">
        <ele>46.8</ele>
        <time>2022-03-30T13:00:50Z</time>
      </trkpt>
      <trkpt lat="49.92246" lon="2.4782">
        <ele>46.8</ele>
        <time>2022-03-30T13:00:51Z</time>
      </trkpt>
      <trkpt lat="49.92247" lon="2.47821">
        <ele>46.8</ele>
        <time>2022-03-30T13:00:52Z</time>
      </trkpt>
      <trkpt lat="49.92247" lon="2.47824">
        <ele>46.9</ele>
        <time>2022-03-30T13:00:53Z</time>
      </trkpt>
      <trkpt lat="49.92248" lon="2.47826">
        <ele>46.9</ele>
        <time>2022-03-30T13:00:54Z</time>
      </trkpt>
      <trkpt lat="49.92248" lon="2.47827">
        <ele>46.9</ele>
        <time>2022-03-30T13:00:55Z</time>
      </trkpt>
      <trkpt lat="49.92249" lon="2.4783">
        <ele>47</ele>
        <time>2022-03-30T13:00:56Z</time>
      </trkpt>
      <trkpt lat="49.92249" lon="2.47831">
        <ele>47</ele>
        <time>2022-03-30T13:00:57Z</time>
      </trkpt>
      <trkpt lat="49.9225" lon="2.47832">
        <ele>47</ele>
        <time>2022-03-30T13:00:58Z</time>
      </trkpt>
      <trkpt lat="49.92251" lon="2.47836">
        <ele>47</ele>
        <time>2022-03-30T13:00:59Z</time>
      </trkpt>
      <trkpt lat="49.92251" lon="2.47837">
        <ele>47.1</ele>
        <time>2022-03-30T13:01:00Z</time>
      </trkpt>
      <trkpt lat="49.92252" lon="2.47838">
        <ele>47.1</ele>
        <time>2022-03-30T13:01:01Z</time>
      </trkpt>
      <trkpt lat="49.92252" lon="2.4784">
        <ele>47.1</ele>
        <time>2022-03-30T13:01:02Z</time>
      </trkpt>
      <trkpt lat="49.92253" lon="2.47842">
        <ele>47.1</ele>
        <time>2022-03-30T13:01:03Z</time>
      </trkpt>
      <trkpt lat="49.92254" lon="2.47845">
        <ele>47.1</ele>
        <time>2022-03-30T13:01:04Z</time>
      </trkpt>
      <trkpt lat="49.92255" lon="2.47846">
        <ele>47.2</ele>
        <time>2022-03-30T13:01:05Z</time>
      </trkpt>
      <trkpt lat="49.92255" lon="2.47847">
        <ele>47.2</ele>
        <time>2022-03-30T13:01:06Z</time>
      </trkpt>
      <trkpt lat="49.92255" lon="2.47848">
        <ele>47.2</ele>
        <time>2022-03-30T13:01:07Z</time>
      </trkpt>
      <trkpt lat="49.92256" lon="2.4785">
        <ele>47.2</ele>
        <time>2022-03-30T13:01:08Z</time>
      </trkpt>
      <trkpt lat="49.92256" lon="2.47852">
        <ele>47.2</ele>
        <time>2022-03-30T13:01:09Z</time>
      </trkpt>
      <trkpt lat="49.92257" lon="2.47854">
        <ele>47.2</ele>
        <time>2022-03-30T13:01:10Z</time>
      </trkpt>
      <trkpt lat="49.92257" lon="2.47856">
        <ele>47.3</ele>
        <time>2022-03-30T13:01:11Z</time>
      </trkpt>
      <trkpt lat="49.92258" lon="2.47859">
        <ele>47.3</ele>
        <time>2022-03-30T13:01:12Z</time>
      </trkpt>
      <trkpt lat="49.92259" lon="2.4786">
        <ele>47.3</ele>
        <time>2022-03-30T13:01:13Z</time>
      </trkpt>
      <trkpt lat="49.92259" lon="2.47861">
        <ele>47.3</ele>
        <time>2022-03-30T13:01:14Z</time>
      </trkpt>
      <trkpt lat="49.9226" lon="2.47863">
        <ele>47.3</ele>
        <time>2022-03-30T13:01:15Z</time>
      </trkpt>
      <trkpt lat="49.92261" lon="2.47865">
        <ele>47.4</ele>
        <time>2022-03-30T13:01:16Z</time>
      </trkpt>
      <trkpt lat="49.92262" lon="2.47868">
        <ele>47.4</ele>
        <time>2022-03-30T13:01:17Z</time>
      </trkpt>
      <trkpt lat="49.92262" lon="2.47869">
        <ele>47.4</ele>
        <time>2022-03-30T13:01:18Z</time>
      </trkpt>
      <trkpt lat="49.92263" lon="2.4787">
        <ele>47.4</ele>
        <time>2022-03-30T13:01:19Z</time>
      </trkpt>
      <trkpt lat="49.92263" lon="2.47871">
        <ele>47.4</ele>
        <time>2022-03-30T13:01:20Z</time>
      </trkpt>
      <trkpt lat="49.92264" lon="2.47873">
        <ele>47.4</ele>
        <time>2022-03-30T13:01:21Z</time>
      </trkpt>
      <trkpt lat="49.92265" lon="2.47874">
        <ele>47.5</ele>
        <time>2022-03-30T13:01:22Z</time>
      </trkpt>
      <trkpt lat="49.92266" lon="2.47878">
        <ele>47.5</ele>
        <time>2022-03-30T13:01:23Z</time>
      </trkpt>
      <trkpt lat="49.92266" lon="2.47879">
        <ele>47.5</ele>
        <time>2022-03-30T13:01:25Z</time>
      </trkpt>
      <trkpt lat="49.92267" lon="2.47881">
        <ele>47.5</ele>
        <time>2022-03-30T13:01:26Z</time>
      </trkpt>
      <trkpt lat="49.92267" lon="2.47882">
        <ele>47.5</ele>
        <time>2022-03-30T13:01:27Z</time>
      </trkpt>
      <trkpt lat="49.92268" lon="2.47884">
        <ele>47.6</ele>
        <time>2022-03-30T13:01:28Z</time>
      </trkpt>
      <trkpt lat="49.92269" lon="2.47886">
        <ele>47.6</ele>
        <time>2022-03-30T13:01:29Z</time>
      </trkpt>
      <trkpt lat="49.92269" lon="2.47887">
        <ele>47.6</ele>
        <time>2022-03-30T13:01:30Z</time>
      </trkpt>
      <trkpt lat="49.92269" lon="2.47888">
        <ele>47.6</ele>
        <time>2022-03-30T13:01:31Z</time>
      </trkpt>
      <trkpt lat="49.9227" lon="2.4789">
        <ele>47.7</ele>
        <time>2022-03-30T13:01:32Z</time>
      </trkpt>
      <trkpt lat="49.9227" lon="2.47891">
        <ele>47.7</ele>
        <time>2022-03-30T13:01:33Z</time>
      </trkpt>
      <trkpt lat="49.92271" lon="2.47892">
        <ele>47.7</ele>
        <time>2022-03-30T13:01:34Z</time>
      </trkpt>
      <trkpt lat="49.92271" lon="2.47893">
        <ele>47.7</ele>
        <time>2022-03-30T13:01:35Z</time>
      </trkpt>
      <trkpt lat="49.92272" lon="2.47895">
        <ele>47.8</ele>
        <time>2022-03-30T13:01:36Z</time>
      </trkpt>
      <trkpt lat="49.92273" lon="2.47896">
        <ele>47.8</ele>
        <time>2022-03-30T13:01:37Z</time>
      </trkpt>
      <trkpt lat="49.92274" lon="2.47897">
        <ele>47.8</ele>
        <time>2022-03-30T13:01:38Z</time>
      </trkpt>
      <trkpt lat="49.92274" lon="2.47898">
        <ele>47.8</ele>
        <time>2022-03-30T13:01:39Z</time>
      </trkpt>
      <trkpt lat="49.92275" lon="2.47899">
        <ele>47.9</ele>
        <time>2022-03-30T13:01:40Z</time>
      </trkpt>
      <trkpt lat="49.92275" lon="2.479">
        <ele>47.9</ele>
        <time>2022-03-30T13:01:41Z</time>
      </trkpt>
      <trkpt lat="49.92276" lon="2.47901">
        <ele>47.9</ele>
        <time>2022-03-30T13:01:42Z</time>
      </trkpt>
      <trkpt lat="49.92277" lon="2.47902">
        <ele>47.9</ele>
        <time>2022-03-30T13:01:43Z</time>
      </trkpt>
      <trkpt lat="49.92277" lon="2.47903">
        <ele>48</ele>
        <time>2022-03-30T13:01:44Z</time>
      </trkpt>
      <trkpt lat="49.92278" lon="2.47903">
        <ele>48</ele>
        <time>2022-03-30T13:01:45Z</time>
      </trkpt>
      <trkpt lat="49.92278" lon="2.47904">
        <ele>48</ele>
        <time>2022-03-30T13:01:46Z</time>
      </trkpt>
      <trkpt lat="49.92279" lon="2.47905">
        <ele>48</ele>
        <time>2022-03-30T13:01:47Z</time>
      </trkpt>
      <trkpt lat="49.92278" lon="2.47906">
        <ele>48</ele>
        <time>2022-03-30T13:01:48Z</time>
      </trkpt>
      <trkpt lat="49.92278" lon="2.47906">
        <ele>48</ele>
        <time>2022-03-30T13:01:49Z</time>
      </trkpt>
      <trkpt lat="49.92278" lon="2.47906">
        <ele>48</ele>
        <time>2022-03-30T13:01:50Z</time>
      </trkpt>
      <trkpt lat="49.92278" lon="2.47906">
        <ele>48</ele>
        <time>2022-03-30T13:01:51Z</time>
      </trkpt>
      <trkpt lat="49.92278" lon="2.47906">
        <ele>48.1</ele>
        <time>2022-03-30T13:01:52Z</time>
      </trkpt>
      <trkpt lat="49.92278" lon="2.47905">
        <ele>48.1</ele>
        <time>2022-03-30T13:01:53Z</time>
      </trkpt>
      <trkpt lat="49.92278" lon="2.47905">
        <ele>48.1</ele>
        <time>2022-03-30T13:01:54Z</time>
      </trkpt>
      <trkpt lat="49.92278" lon="2.47905">
        <ele>48.1</ele>
        <time>2022-03-30T13:01:55Z</time>
      </trkpt>
      <trkpt lat="49.92278" lon="2.47905">
        <ele>48.1</ele>
        <time>2022-03-30T13:01:56Z</time>
      </trkpt>
      <trkpt lat="49.92278" lon="2.47905">
        <ele>48.1</ele>
        <time>2022-03-30T13:01:57Z</time>
      </trkpt>
      <trkpt lat="49.92278" lon="2.47905">
        <ele>48.1</ele>
        <time>2022-03-30T13:01:58Z</time>
      </trkpt>
      <trkpt lat="49.92278" lon="2.47905">
        <ele>48.1</ele>
        <time>2022-03-30T13:01:59Z</time>
      </trkpt>
      <trkpt lat="49.92278" lon="2.47905">
        <ele>48.1</ele>
        <time>2022-03-30T13:02:00Z</time>
      </trkpt>
      <trkpt lat="49.92278" lon="2.47905">
        <ele>48.1</ele>
        <time>2022-03-30T13:02:01Z</time>
      </trkpt>
      <trkpt lat="49.92278" lon="2.47905">
        <ele>48.1</ele>
        <time>2022-03-30T13:02:02Z</time>
      </trkpt>
      <trkpt lat="49.92278" lon="2.47905">
        <ele>48.1</ele>
        <time>2022-03-30T13:02:03Z</time>
      </trkpt>
      <trkpt lat="49.92278" lon="2.47905">
        <ele>48.1</ele>
        <time>2022-03-30T13:02:04Z</time>
      </trkpt>
      <trkpt lat="49.92278" lon="2.47905">
        <ele>48.1</ele>
        <time>2022-03-30T13:02:05Z</time>
      </trkpt>
      <trkpt lat="49.92278" lon="2.47905">
        <ele>48.1</ele>
        <time>2022-03-30T13:02:06Z</time>
      </trkpt>
      <trkpt lat="49.92278" lon="2.47905">
        <ele>48.1</ele>
        <time>2022-03-30T13:02:07Z</time>
      </trkpt>
      <trkpt lat="49.92278" lon="2.47905">
        <ele>48.1</ele>
        <time>2022-03-30T13:02:08Z</time>
      </trkpt>
      <trkpt lat="49.92278" lon="2.47905">
        <ele>48.1</ele>
        <time>2022-03-30T13:02:09Z</time>
      </trkpt>
      <trkpt lat="49.92278" lon="2.47905">
        <ele>48.1</ele>
        <time>2022-03-30T13:02:10Z</time>
      </trkpt>
      <trkpt lat="49.92278" lon="2.47905">
        <ele>48.1</ele>
        <time>2022-03-30T13:02:11Z</time>
      </trkpt>
      <trkpt lat="49.92278" lon="2.47905">
        <ele>48.1</ele>
        <time>2022-03-30T13:02:12Z</time>
      </trkpt>
      <trkpt lat="49.92278" lon="2.47905">
        <ele>48.1</ele>
        <time>2022-03-30T13:02:13Z</time>
      </trkpt>
      <trkpt lat="49.92278" lon="2.47905">
        <ele>48.1</ele>
        <time>2022-03-30T13:02:14Z</time>
      </trkpt>
      <trkpt lat="49.92278" lon="2.47905">
        <ele>48.1</ele>
        <time>2022-03-30T13:02:15Z</time>
      </trkpt>
      <trkpt lat="49.92278" lon="2.47906">
        <ele>48.1</ele>
        <time>2022-03-30T13:02:16Z</time>
      </trkpt>
      <trkpt lat="49.92278" lon="2.47906">
        <ele>48.1</ele>
        <time>2022-03-30T13:02:17Z</time>
      </trkpt>
      <trkpt lat="49.92278" lon="2.47907">
        <ele>48.1</ele>
        <time>2022-03-30T13:02:18Z</time>
      </trkpt>
      <trkpt lat="49.92279" lon="2.47907">
        <ele>48.1</ele>
        <time>2022-03-30T13:02:19Z</time>
      </trkpt>
      <trkpt lat="49.9228" lon="2.47908">
        <ele>48.2</ele>
        <time>2022-03-30T13:02:20Z</time>
      </trkpt>
      <trkpt lat="49.92281" lon="2.47908">
        <ele>48.2</ele>
        <time>2022-03-30T13:02:21Z</time>
      </trkpt>
      <trkpt lat="49.92282" lon="2.47908">
        <ele>48.2</ele>
        <time>2022-03-30T13:02:22Z</time>
      </trkpt>
      <trkpt lat="49.92283" lon="2.47908">
        <ele>48.2</ele>
        <time>2022-03-30T13:02:23Z</time>
      </trkpt>
      <trkpt lat="49.92283" lon="2.47908">
        <ele>48.3</ele>
        <time>2022-03-30T13:02:24Z</time>
      </trkpt>
      <trkpt lat="49.92284" lon="2.47907">
        <ele>48.3</ele>
        <time>2022-03-30T13:02:25Z</time>
      </trkpt>
      <trkpt lat="49.92285" lon="2.47907">
        <ele>48.3</ele>
        <time>2022-03-30T13:02:26Z</time>
      </trkpt>
      <trkpt lat="49.92286" lon="2.47906">
        <ele>48.3</ele>
        <time>2022-03-30T13:02:27Z</time>
      </trkpt>
      <trkpt lat="49.92287" lon="2.47905">
        <ele>48.4</ele>
        <time>2022-03-30T13:02:28Z</time>
      </trkpt>
      <trkpt lat="49.92287" lon="2.47905">
        <ele>48.4</ele>
        <time>2022-03-30T13:02:29Z</time>
      </trkpt>
      <trkpt lat="49.92288" lon="2.47904">
        <ele>48.4</ele>
        <time>2022-03-30T13:02:30Z</time>
      </trkpt>
      <trkpt lat="49.92289" lon="2.47903">
        <ele>48.4</ele>
        <time>2022-03-30T13:02:31Z</time>
      </trkpt>
      <trkpt lat="49.9229" lon="2.47902">
        <ele>48.5</ele>
        <time>2022-03-30T13:02:32Z</time>
      </trkpt>
      <trkpt lat="49.92291" lon="2.47901">
        <ele>48.5</ele>
        <time>2022-03-30T13:02:33Z</time>
      </trkpt>
      <trkpt lat="49.92292" lon="2.47901">
        <ele>48.6</ele>
        <time>2022-03-30T13:02:34Z</time>
      </trkpt>
      <trkpt lat="49.92293" lon="2.47903">
        <ele>48.6</ele>
        <time>2022-03-30T13:02:35Z</time>
      </trkpt>
      <trkpt lat="49.92294" lon="2.47904">
        <ele>48.6</ele>
        <time>2022-03-30T13:02:36Z</time>
      </trkpt>
      <trkpt lat="49.92295" lon="2.47903">
        <ele>48.7</ele>
        <time>2022-03-30T13:02:37Z</time>
      </trkpt>
      <trkpt lat="49.92296" lon="2.47903">
        <ele>48.7</ele>
        <time>2022-03-30T13:02:38Z</time>
      </trkpt>
      <trkpt lat="49.92297" lon="2.47902">
        <ele>48.8</ele>
        <time>2022-03-30T13:02:39Z</time>
      </trkpt>
      <trkpt lat="49.92298" lon="2.47901">
        <ele>48.8</ele>
        <time>2022-03-30T13:02:40Z</time>
      </trkpt>
      <trkpt lat="49.92298" lon="2.479">
        <ele>48.8</ele>
        <time>2022-03-30T13:02:41Z</time>
      </trkpt>
      <trkpt lat="49.92299" lon="2.47899">
        <ele>48.9</ele>
        <time>2022-03-30T13:02:42Z</time>
      </trkpt>
      <trkpt lat="49.923" lon="2.47899">
        <ele>48.9</ele>
        <time>2022-03-30T13:02:43Z</time>
      </trkpt>
      <trkpt lat="49.923" lon="2.47898">
        <ele>48.9</ele>
        <time>2022-03-30T13:02:44Z</time>
      </trkpt>
      <trkpt lat="49.92301" lon="2.47898">
        <ele>49</ele>
        <time>2022-03-30T13:02:45Z</time>
      </trkpt>
      <trkpt lat="49.92302" lon="2.47897">
        <ele>49</ele>
        <time>2022-03-30T13:02:46Z</time>
      </trkpt>
      <trkpt lat="49.92303" lon="2.47896">
        <ele>49.1</ele>
        <time>2022-03-30T13:02:47Z</time>
      </trkpt>
      <trkpt lat="49.92304" lon="2.47895">
        <ele>49.1</ele>
        <time>2022-03-30T13:02:48Z</time>
      </trkpt>
      <trkpt lat="49.92305" lon="2.47895">
        <ele>49.2</ele>
        <time>2022-03-30T13:02:49Z</time>
      </trkpt>
      <trkpt lat="49.92306" lon="2.47895">
        <ele>49.2</ele>
        <time>2022-03-30T13:02:50Z</time>
      </trkpt>
      <trkpt lat="49.92307" lon="2.47894">
        <ele>49.3</ele>
        <time>2022-03-30T13:02:51Z</time>
      </trkpt>
      <trkpt lat="49.92308" lon="2.47894">
        <ele>49.3</ele>
        <time>2022-03-30T13:02:52Z</time>
      </trkpt>
      <trkpt lat="49.92309" lon="2.47894">
        <ele>49.4</ele>
        <time>2022-03-30T13:02:53Z</time>
      </trkpt>
      <trkpt lat="49.9231" lon="2.47893">
        <ele>49.4</ele>
        <time>2022-03-30T13:02:54Z</time>
      </trkpt>
      <trkpt lat="49.92311" lon="2.47893">
        <ele>49.5</ele>
        <time>2022-03-30T13:02:55Z</time>
      </trkpt>
      <trkpt lat="49.92312" lon="2.47893">
        <ele>49.5</ele>
        <time>2022-03-30T13:02:56Z</time>
      </trkpt>
      <trkpt lat="49.92313" lon="2.47892">
        <ele>49.5</ele>
        <time>2022-03-30T13:02:57Z</time>
      </trkpt>
      <trkpt lat="49.92314" lon="2.47892">
        <ele>49.6</ele>
        <time>2022-03-30T13:02:58Z</time>
      </trkpt>
      <trkpt lat="49.92315" lon="2.47892">
        <ele>49.6</ele>
        <time>2022-03-30T13:02:59Z</time>
      </trkpt>
      <trkpt lat="49.92317" lon="2.47892">
        <ele>49.7</ele>
        <time>2022-03-30T13:03:00Z</time>
      </trkpt>
      <trkpt lat="49.92318" lon="2.47891">
        <ele>49.8</ele>
        <time>2022-03-30T13:03:01Z</time>
      </trkpt>
      <trkpt lat="49.92318" lon="2.47891">
        <ele>49.8</ele>
        <time>2022-03-30T13:03:02Z</time>
      </trkpt>
      <trkpt lat="49.9232" lon="2.47891">
        <ele>49.9</ele>
        <time>2022-03-30T13:03:03Z</time>
      </trkpt>
      <trkpt lat="49.92321" lon="2.4789">
        <ele>49.9</ele>
        <time>2022-03-30T13:03:04Z</time>
      </trkpt>
      <trkpt lat="49.92322" lon="2.4789">
        <ele>50</ele>
        <time>2022-03-30T13:03:05Z</time>
      </trkpt>
      <trkpt lat="49.92324" lon="2.4789">
        <ele>50.1</ele>
        <time>2022-03-30T13:03:06Z</time>
      </trkpt>
      <trkpt lat="49.92324" lon="2.47889">
        <ele>50.1</ele>
        <time>2022-03-30T13:03:07Z</time>
      </trkpt>
      <trkpt lat="49.92325" lon="2.47889">
        <ele>50.1</ele>
        <time>2022-03-30T13:03:08Z</time>
      </trkpt>
      <trkpt lat="49.92326" lon="2.47889">
        <ele>50.2</ele>
        <time>2022-03-30T13:03:09Z</time>
      </trkpt>
      <trkpt lat="49.92327" lon="2.47888">
        <ele>50.2</ele>
        <time>2022-03-30T13:03:10Z</time>
      </trkpt>
      <trkpt lat="49.92329" lon="2.47888">
        <ele>50.3</ele>
        <time>2022-03-30T13:03:11Z</time>
      </trkpt>
      <trkpt lat="49.9233" lon="2.47888">
        <ele>50.4</ele>
        <time>2022-03-30T13:03:12Z</time>
      </trkpt>
      <trkpt lat="49.92331" lon="2.47887">
        <ele>50.4</ele>
        <time>2022-03-30T13:03:13Z</time>
      </trkpt>
      <trkpt lat="49.92331" lon="2.47887">
        <ele>50.4</ele>
        <time>2022-03-30T13:03:14Z</time>
      </trkpt>
      <trkpt lat="49.92332" lon="2.47887">
        <ele>50.5</ele>
        <time>2022-03-30T13:03:15Z</time>
      </trkpt>
      <trkpt lat="49.92333" lon="2.47887">
        <ele>50.5</ele>
        <time>2022-03-30T13:03:16Z</time>
      </trkpt>
      <trkpt lat="49.92334" lon="2.47887">
        <ele>50.6</ele>
        <time>2022-03-30T13:03:17Z</time>
      </trkpt>
      <trkpt lat="49.92335" lon="2.47887">
        <ele>50.6</ele>
        <time>2022-03-30T13:03:18Z</time>
      </trkpt>
      <trkpt lat="49.92336" lon="2.47887">
        <ele>50.7</ele>
        <time>2022-03-30T13:03:19Z</time>
      </trkpt>
      <trkpt lat="49.92338" lon="2.47887">
        <ele>50.7</ele>
        <time>2022-03-30T13:03:20Z</time>
      </trkpt>
      <trkpt lat="49.92339" lon="2.47887">
        <ele>50.8</ele>
        <time>2022-03-30T13:03:21Z</time>
      </trkpt>
      <trkpt lat="49.9234" lon="2.47887">
        <ele>50.8</ele>
        <time>2022-03-30T13:03:22Z</time>
      </trkpt>
      <trkpt lat="49.92341" lon="2.47887">
        <ele>50.9</ele>
        <time>2022-03-30T13:03:23Z</time>
      </trkpt>
      <trkpt lat="49.92342" lon="2.47887">
        <ele>50.9</ele>
        <time>2022-03-30T13:03:24Z</time>
      </trkpt>
      <trkpt lat="49.92343" lon="2.47887">
        <ele>51</ele>
        <time>2022-03-30T13:03:25Z</time>
      </trkpt>
      <trkpt lat="49.92344" lon="2.47887">
        <ele>51</ele>
        <time>2022-03-30T13:03:26Z</time>
      </trkpt>
      <trkpt lat="49.92345" lon="2.47887">
        <ele>51.1</ele>
        <time>2022-03-30T13:03:27Z</time>
      </trkpt>
      <trkpt lat="49.92346" lon="2.47887">
        <ele>51.1</ele>
        <time>2022-03-30T13:03:28Z</time>
      </trkpt>
      <trkpt lat="49.92347" lon="2.47887">
        <ele>51.2</ele>
        <time>2022-03-30T13:03:29Z</time>
      </trkpt>
      <trkpt lat="49.92348" lon="2.47886">
        <ele>51.2</ele>
        <time>2022-03-30T13:03:30Z</time>
      </trkpt>
      <trkpt lat="49.92349" lon="2.47886">
        <ele>51.3</ele>
        <time>2022-03-30T13:03:31Z</time>
      </trkpt>
      <trkpt lat="49.9235" lon="2.47886">
        <ele>51.3</ele>
        <time>2022-03-30T13:03:32Z</time>
      </trkpt>
      <trkpt lat="49.92351" lon="2.47885">
        <ele>51.4</ele>
        <time>2022-03-30T13:03:33Z</time>
      </trkpt>
      <trkpt lat="49.92352" lon="2.47885">
        <ele>51.4</ele>
        <time>2022-03-30T13:03:34Z</time>
      </trkpt>
      <trkpt lat="49.92353" lon="2.47885">
        <ele>51.5</ele>
        <time>2022-03-30T13:03:35Z</time>
      </trkpt>
      <trkpt lat="49.92354" lon="2.47885">
        <ele>51.5</ele>
        <time>2022-03-30T13:03:36Z</time>
      </trkpt>
      <trkpt lat="49.92355" lon="2.47885">
        <ele>51.5</ele>
        <time>2022-03-30T13:03:37Z</time>
      </trkpt>
      <trkpt lat="49.92355" lon="2.47885">
        <ele>51.6</ele>
        <time>2022-03-30T13:03:38Z</time>
      </trkpt>
      <trkpt lat="49.92356" lon="2.47885">
        <ele>51.6</ele>
        <time>2022-03-30T13:03:39Z</time>
      </trkpt>
      <trkpt lat="49.92357" lon="2.47885">
        <ele>51.6</ele>
        <time>2022-03-30T13:03:40Z</time>
      </trkpt>
      <trkpt lat="49.92357" lon="2.47885">
        <ele>51.7</ele>
        <time>2022-03-30T13:03:41Z</time>
      </trkpt>
      <trkpt lat="49.92358" lon="2.47885">
        <ele>51.7</ele>
        <time>2022-03-30T13:03:42Z</time>
      </trkpt>
      <trkpt lat="49.92359" lon="2.47885">
        <ele>51.7</ele>
        <time>2022-03-30T13:03:43Z</time>
      </trkpt>
      <trkpt lat="49.9236" lon="2.47885">
        <ele>51.8</ele>
        <time>2022-03-30T13:03:44Z</time>
      </trkpt>
      <trkpt lat="49.92362" lon="2.47885">
        <ele>51.8</ele>
        <time>2022-03-30T13:03:45Z</time>
      </trkpt>
      <trkpt lat="49.92363" lon="2.47885">
        <ele>51.9</ele>
        <time>2022-03-30T13:03:46Z</time>
      </trkpt>
      <trkpt lat="49.92364" lon="2.47886">
        <ele>51.9</ele>
        <time>2022-03-30T13:03:47Z</time>
      </trkpt>
      <trkpt lat="49.92365" lon="2.47886">
        <ele>52</ele>
        <time>2022-03-30T13:03:48Z</time>
      </trkpt>
      <trkpt lat="49.92366" lon="2.47886">
        <ele>52</ele>
        <time>2022-03-30T13:03:49Z</time>
      </trkpt>
      <trkpt lat="49.92367" lon="2.47886">
        <ele>52</ele>
        <time>2022-03-30T13:03:50Z</time>
      </trkpt>
      <trkpt lat="49.92368" lon="2.47886">
        <ele>52.1</ele>
        <time>2022-03-30T13:03:51Z</time>
      </trkpt>
      <trkpt lat="49.92369" lon="2.47887">
        <ele>52.1</ele>
        <time>2022-03-30T13:03:52Z</time>
      </trkpt>
      <trkpt lat="49.9237" lon="2.47887">
        <ele>52.2</ele>
        <time>2022-03-30T13:03:53Z</time>
      </trkpt>
      <trkpt lat="49.92372" lon="2.47887">
        <ele>52.2</ele>
        <time>2022-03-30T13:03:54Z</time>
      </trkpt>
      <trkpt lat="49.92373" lon="2.47887">
        <ele>52.3</ele>
        <time>2022-03-30T13:03:55Z</time>
      </trkpt>
      <trkpt lat="49.92374" lon="2.47887">
        <ele>52.3</ele>
        <time>2022-03-30T13:03:56Z</time>
      </trkpt>
      <trkpt lat="49.92375" lon="2.47887">
        <ele>52.3</ele>
        <time>2022-03-30T13:03:57Z</time>
      </trkpt>
      <trkpt lat="49.92376" lon="2.47887">
        <ele>52.4</ele>
        <time>2022-03-30T13:03:58Z</time>
      </trkpt>
      <trkpt lat="49.92377" lon="2.47888">
        <ele>52.4</ele>
        <time>2022-03-30T13:03:59Z</time>
      </trkpt>
      <trkpt lat="49.92379" lon="2.47888">
        <ele>52.4</ele>
        <time>2022-03-30T13:04:00Z</time>
      </trkpt>
      <trkpt lat="49.9238" lon="2.47888">
        <ele>52.4</ele>
        <time>2022-03-30T13:04:01Z</time>
      </trkpt>
      <trkpt lat="49.92382" lon="2.47888">
        <ele>52.5</ele>
        <time>2022-03-30T13:04:02Z</time>
      </trkpt>
      <trkpt lat="49.92383" lon="2.47888">
        <ele>52.5</ele>
        <time>2022-03-30T13:04:03Z</time>
      </trkpt>
      <trkpt lat="49.92384" lon="2.47888">
        <ele>52.5</ele>
        <time>2022-03-30T13:04:04Z</time>
      </trkpt>
      <trkpt lat="49.92385" lon="2.47888">
        <ele>52.5</ele>
        <time>2022-03-30T13:04:05Z</time>
      </trkpt>
      <trkpt lat="49.92386" lon="2.47888">
        <ele>52.6</ele>
        <time>2022-03-30T13:04:06Z</time>
      </trkpt>
      <trkpt lat="49.92387" lon="2.47888">
        <ele>52.6</ele>
        <time>2022-03-30T13:04:07Z</time>
      </trkpt>
      <trkpt lat="49.92389" lon="2.47888">
        <ele>52.6</ele>
        <time>2022-03-30T13:04:08Z</time>
      </trkpt>
      <trkpt lat="49.9239" lon="2.47888">
        <ele>52.6</ele>
        <time>2022-03-30T13:04:09Z</time>
      </trkpt>
      <trkpt lat="49.9239" lon="2.47888">
        <ele>52.6</ele>
        <time>2022-03-30T13:04:10Z</time>
      </trkpt>
      <trkpt lat="49.92392" lon="2.47888">
        <ele>52.7</ele>
        <time>2022-03-30T13:04:11Z</time>
      </trkpt>
      <trkpt lat="49.92393" lon="2.47888">
        <ele>52.7</ele>
        <time>2022-03-30T13:04:12Z</time>
      </trkpt>
      <trkpt lat="49.92394" lon="2.47888">
        <ele>52.7</ele>
        <time>2022-03-30T13:04:13Z</time>
      </trkpt>
      <trkpt lat="49.92396" lon="2.47887">
        <ele>52.7</ele>
        <time>2022-03-30T13:04:14Z</time>
      </trkpt>
      <trkpt lat="49.92397" lon="2.47887">
        <ele>52.7</ele>
        <time>2022-03-30T13:04:15Z</time>
      </trkpt>
      <trkpt lat="49.92398" lon="2.47887">
        <ele>52.7</ele>
        <time>2022-03-30T13:04:16Z</time>
      </trkpt>
      <trkpt lat="49.92399" lon="2.47887">
        <ele>52.7</ele>
        <time>2022-03-30T13:04:17Z</time>
      </trkpt>
      <trkpt lat="49.924" lon="2.47887">
        <ele>52.7</ele>
        <time>2022-03-30T13:04:18Z</time>
      </trkpt>
      <trkpt lat="49.92401" lon="2.47887">
        <ele>52.7</ele>
        <time>2022-03-30T13:04:19Z</time>
      </trkpt>
      <trkpt lat="49.92403" lon="2.47886">
        <ele>52.7</ele>
        <time>2022-03-30T13:04:20Z</time>
      </trkpt>
      <trkpt lat="49.92404" lon="2.47886">
        <ele>52.7</ele>
        <time>2022-03-30T13:04:21Z</time>
      </trkpt>
      <trkpt lat="49.92405" lon="2.47886">
        <ele>52.7</ele>
        <time>2022-03-30T13:04:22Z</time>
      </trkpt>
      <trkpt lat="49.92407" lon="2.47885">
        <ele>52.7</ele>
        <time>2022-03-30T13:04:23Z</time>
      </trkpt>
      <trkpt lat="49.92408" lon="2.47885">
        <ele>52.7</ele>
        <time>2022-03-30T13:04:24Z</time>
      </trkpt>
      <trkpt lat="49.92408" lon="2.47885">
        <ele>52.7</ele>
        <time>2022-03-30T13:04:25Z</time>
      </trkpt>
      <trkpt lat="49.92411" lon="2.47884">
        <ele>52.7</ele>
        <time>2022-03-30T13:04:26Z</time>
      </trkpt>
      <trkpt lat="49.92411" lon="2.47884">
        <ele>52.7</ele>
        <time>2022-03-30T13:04:27Z</time>
      </trkpt>
      <trkpt lat="49.92412" lon="2.47884">
        <ele>52.7</ele>
        <time>2022-03-30T13:04:28Z</time>
      </trkpt>
      <trkpt lat="49.92414" lon="2.47883">
        <ele>52.7</ele>
        <time>2022-03-30T13:04:29Z</time>
      </trkpt>
      <trkpt lat="49.92415" lon="2.47883">
        <ele>52.7</ele>
        <time>2022-03-30T13:04:30Z</time>
      </trkpt>
      <trkpt lat="49.92416" lon="2.47883">
        <ele>52.7</ele>
        <time>2022-03-30T13:04:31Z</time>
      </trkpt>
      <trkpt lat="49.92417" lon="2.47882">
        <ele>52.6</ele>
        <time>2022-03-30T13:04:32Z</time>
      </trkpt>
      <trkpt lat="49.92419" lon="2.47881">
        <ele>52.6</ele>
        <time>2022-03-30T13:04:33Z</time>
      </trkpt>
      <trkpt lat="49.92421" lon="2.47881">
        <ele>52.6</ele>
        <time>2022-03-30T13:04:34Z</time>
      </trkpt>
      <trkpt lat="49.92422" lon="2.4788">
        <ele>52.6</ele>
        <time>2022-03-30T13:04:35Z</time>
      </trkpt>
      <trkpt lat="49.92423" lon="2.4788">
        <ele>52.6</ele>
        <time>2022-03-30T13:04:36Z</time>
      </trkpt>
      <trkpt lat="49.92424" lon="2.4788">
        <ele>52.6</ele>
        <time>2022-03-30T13:04:37Z</time>
      </trkpt>
      <trkpt lat="49.92425" lon="2.47879">
        <ele>52.6</ele>
        <time>2022-03-30T13:04:38Z</time>
      </trkpt>
      <trkpt lat="49.92426" lon="2.47878">
        <ele>52.6</ele>
        <time>2022-03-30T13:04:39Z</time>
      </trkpt>
      <trkpt lat="49.92427" lon="2.47878">
        <ele>52.5</ele>
        <time>2022-03-30T13:04:40Z</time>
      </trkpt>
      <trkpt lat="49.92428" lon="2.47878">
        <ele>52.5</ele>
        <time>2022-03-30T13:04:41Z</time>
      </trkpt>
      <trkpt lat="49.92429" lon="2.47877">
        <ele>52.5</ele>
        <time>2022-03-30T13:04:42Z</time>
      </trkpt>
      <trkpt lat="49.92431" lon="2.47876">
        <ele>52.5</ele>
        <time>2022-03-30T13:04:43Z</time>
      </trkpt>
      <trkpt lat="49.92432" lon="2.47875">
        <ele>52.5</ele>
        <time>2022-03-30T13:04:44Z</time>
      </trkpt>
      <trkpt lat="49.92433" lon="2.47875">
        <ele>52.4</ele>
        <time>2022-03-30T13:04:45Z</time>
      </trkpt>
      <trkpt lat="49.92434" lon="2.47874">
        <ele>52.4</ele>
        <time>2022-03-30T13:04:46Z</time>
      </trkpt>
      <trkpt lat="49.92435" lon="2.47873">
        <ele>52.4</ele>
        <time>2022-03-30T13:04:47Z</time>
      </trkpt>
      <trkpt lat="49.92437" lon="2.47872">
        <ele>52.4</ele>
        <time>2022-03-30T13:04:48Z</time>
      </trkpt>
      <trkpt lat="49.92438" lon="2.47872">
        <ele>52.3</ele>
        <time>2022-03-30T13:04:49Z</time>
      </trkpt>
      <trkpt lat="49.92439" lon="2.47871">
        <ele>52.3</ele>
        <time>2022-03-30T13:04:50Z</time>
      </trkpt>
      <trkpt lat="49.9244" lon="2.4787">
        <ele>52.3</ele>
        <time>2022-03-30T13:04:51Z</time>
      </trkpt>
      <trkpt lat="49.92442" lon="2.47869">
        <ele>52.2</ele>
        <time>2022-03-30T13:04:52Z</time>
      </trkpt>
      <trkpt lat="49.92443" lon="2.47869">
        <ele>52.2</ele>
        <time>2022-03-30T13:04:53Z</time>
      </trkpt>
      <trkpt lat="49.92445" lon="2.47867">
        <ele>52.2</ele>
        <time>2022-03-30T13:04:54Z</time>
      </trkpt>
      <trkpt lat="49.92446" lon="2.47867">
        <ele>52.1</ele>
        <time>2022-03-30T13:04:55Z</time>
      </trkpt>
      <trkpt lat="49.92447" lon="2.47866">
        <ele>52.1</ele>
        <time>2022-03-30T13:04:56Z</time>
      </trkpt>
      <trkpt lat="49.92448" lon="2.47866">
        <ele>52.1</ele>
        <time>2022-03-30T13:04:57Z</time>
      </trkpt>
      <trkpt lat="49.92449" lon="2.47865">
        <ele>52</ele>
        <time>2022-03-30T13:04:58Z</time>
      </trkpt>
      <trkpt lat="49.92451" lon="2.47864">
        <ele>52</ele>
        <time>2022-03-30T13:04:59Z</time>
      </trkpt>
      <trkpt lat="49.92452" lon="2.47863">
        <ele>51.9</ele>
        <time>2022-03-30T13:05:00Z</time>
      </trkpt>
      <trkpt lat="49.92453" lon="2.47863">
        <ele>51.9</ele>
        <time>2022-03-30T13:05:01Z</time>
      </trkpt>
      <trkpt lat="49.92454" lon="2.47862">
        <ele>51.9</ele>
        <time>2022-03-30T13:05:02Z</time>
      </trkpt>
      <trkpt lat="49.92455" lon="2.47862">
        <ele>51.8</ele>
        <time>2022-03-30T13:05:03Z</time>
      </trkpt>
      <trkpt lat="49.92456" lon="2.47861">
        <ele>51.8</ele>
        <time>2022-03-30T13:05:04Z</time>
      </trkpt>
      <trkpt lat="49.92457" lon="2.47861">
        <ele>51.8</ele>
        <time>2022-03-30T13:05:05Z</time>
      </trkpt>
      <trkpt lat="49.92458" lon="2.4786">
        <ele>51.8</ele>
        <time>2022-03-30T13:05:06Z</time>
      </trkpt>
      <trkpt lat="49.92459" lon="2.47859">
        <ele>51.7</ele>
        <time>2022-03-30T13:05:07Z</time>
      </trkpt>
      <trkpt lat="49.92461" lon="2.47858">
        <ele>51.7</ele>
        <time>2022-03-30T13:05:08Z</time>
      </trkpt>
      <trkpt lat="49.92462" lon="2.47858">
        <ele>51.6</ele>
        <time>2022-03-30T13:05:09Z</time>
      </trkpt>
      <trkpt lat="49.92462" lon="2.47857">
        <ele>51.6</ele>
        <time>2022-03-30T13:05:10Z</time>
      </trkpt>
      <trkpt lat="49.92464" lon="2.47856">
        <ele>51.6</ele>
        <time>2022-03-30T13:05:11Z</time>
      </trkpt>
      <trkpt lat="49.92465" lon="2.47856">
        <ele>51.5</ele>
        <time>2022-03-30T13:05:12Z</time>
      </trkpt>
      <trkpt lat="49.92467" lon="2.47855">
        <ele>51.5</ele>
        <time>2022-03-30T13:05:13Z</time>
      </trkpt>
      <trkpt lat="49.92468" lon="2.47854">
        <ele>51.4</ele>
        <time>2022-03-30T13:05:14Z</time>
      </trkpt>
      <trkpt lat="49.92469" lon="2.47854">
        <ele>51.4</ele>
        <time>2022-03-30T13:05:15Z</time>
      </trkpt>
      <trkpt lat="49.92471" lon="2.47853">
        <ele>51.3</ele>
        <time>2022-03-30T13:05:16Z</time>
      </trkpt>
      <trkpt lat="49.92472" lon="2.47852">
        <ele>51.3</ele>
        <time>2022-03-30T13:05:17Z</time>
      </trkpt>
      <trkpt lat="49.92473" lon="2.47852">
        <ele>51.3</ele>
        <time>2022-03-30T13:05:18Z</time>
      </trkpt>
      <trkpt lat="49.92475" lon="2.47851">
        <ele>51.2</ele>
        <time>2022-03-30T13:05:19Z</time>
      </trkpt>
      <trkpt lat="49.92475" lon="2.47851">
        <ele>51.2</ele>
        <time>2022-03-30T13:05:20Z</time>
      </trkpt>
      <trkpt lat="49.92476" lon="2.4785">
        <ele>51.2</ele>
        <time>2022-03-30T13:05:21Z</time>
      </trkpt>
      <trkpt lat="49.92478" lon="2.47849">
        <ele>51.1</ele>
        <time>2022-03-30T13:05:22Z</time>
      </trkpt>
      <trkpt lat="49.92479" lon="2.47849">
        <ele>51.1</ele>
        <time>2022-03-30T13:05:23Z</time>
      </trkpt>
      <trkpt lat="49.9248" lon="2.47848">
        <ele>51</ele>
        <time>2022-03-30T13:05:24Z</time>
      </trkpt>
      <trkpt lat="49.92482" lon="2.47847">
        <ele>51</ele>
        <time>2022-03-30T13:05:25Z</time>
      </trkpt>
      <trkpt lat="49.92483" lon="2.47847">
        <ele>50.9</ele>
        <time>2022-03-30T13:05:26Z</time>
      </trkpt>
      <trkpt lat="49.92484" lon="2.47846">
        <ele>50.9</ele>
        <time>2022-03-30T13:05:27Z</time>
      </trkpt>
      <trkpt lat="49.92486" lon="2.47845">
        <ele>50.8</ele>
        <time>2022-03-30T13:05:28Z</time>
      </trkpt>
      <trkpt lat="49.92486" lon="2.47844">
        <ele>50.8</ele>
        <time>2022-03-30T13:05:29Z</time>
      </trkpt>
      <trkpt lat="49.92487" lon="2.47844">
        <ele>50.8</ele>
        <time>2022-03-30T13:05:30Z</time>
      </trkpt>
      <trkpt lat="49.92489" lon="2.47843">
        <ele>50.7</ele>
        <time>2022-03-30T13:05:31Z</time>
      </trkpt>
      <trkpt lat="49.9249" lon="2.47842">
        <ele>50.7</ele>
        <time>2022-03-30T13:05:32Z</time>
      </trkpt>
      <trkpt lat="49.92491" lon="2.47842">
        <ele>50.6</ele>
        <time>2022-03-30T13:05:33Z</time>
      </trkpt>
      <trkpt lat="49.92493" lon="2.47841">
        <ele>50.6</ele>
        <time>2022-03-30T13:05:34Z</time>
      </trkpt>
      <trkpt lat="49.92493" lon="2.4784">
        <ele>50.5</ele>
        <time>2022-03-30T13:05:35Z</time>
      </trkpt>
      <trkpt lat="49.92494" lon="2.4784">
        <ele>50.5</ele>
        <time>2022-03-30T13:05:36Z</time>
      </trkpt>
      <trkpt lat="49.92495" lon="2.47839">
        <ele>50.5</ele>
        <time>2022-03-30T13:05:37Z</time>
      </trkpt>
      <trkpt lat="49.92496" lon="2.47839">
        <ele>50.4</ele>
        <time>2022-03-30T13:05:38Z</time>
      </trkpt>
      <trkpt lat="49.92497" lon="2.47838">
        <ele>50.4</ele>
        <time>2022-03-30T13:05:39Z</time>
      </trkpt>
      <trkpt lat="49.92499" lon="2.47837">
        <ele>50.3</ele>
        <time>2022-03-30T13:05:40Z</time>
      </trkpt>
      <trkpt lat="49.925" lon="2.47836">
        <ele>50.3</ele>
        <time>2022-03-30T13:05:41Z</time>
      </trkpt>
      <trkpt lat="49.92501" lon="2.47836">
        <ele>50.3</ele>
        <time>2022-03-30T13:05:42Z</time>
      </trkpt>
      <trkpt lat="49.92503" lon="2.47835">
        <ele>50.2</ele>
        <time>2022-03-30T13:05:43Z</time>
      </trkpt>
      <trkpt lat="49.92504" lon="2.47834">
        <ele>50.2</ele>
        <time>2022-03-30T13:05:44Z</time>
      </trkpt>
      <trkpt lat="49.92506" lon="2.47833">
        <ele>50.1</ele>
        <time>2022-03-30T13:05:45Z</time>
      </trkpt>
      <trkpt lat="49.92507" lon="2.47833">
        <ele>50</ele>
        <time>2022-03-30T13:05:46Z</time>
      </trkpt>
      <trkpt lat="49.92508" lon="2.47832">
        <ele>50</ele>
        <time>2022-03-30T13:05:47Z</time>
      </trkpt>
      <trkpt lat="49.92509" lon="2.47831">
        <ele>50</ele>
        <time>2022-03-30T13:05:48Z</time>
      </trkpt>
      <trkpt lat="49.92511" lon="2.47831">
        <ele>49.9</ele>
        <time>2022-03-30T13:05:49Z</time>
      </trkpt>
      <trkpt lat="49.92513" lon="2.47829">
        <ele>49.8</ele>
        <time>2022-03-30T13:05:50Z</time>
      </trkpt>
      <trkpt lat="49.92513" lon="2.47829">
        <ele>49.8</ele>
        <time>2022-03-30T13:05:51Z</time>
      </trkpt>
      <trkpt lat="49.92514" lon="2.47829">
        <ele>49.8</ele>
        <time>2022-03-30T13:05:52Z</time>
      </trkpt>
      <trkpt lat="49.92515" lon="2.47828">
        <ele>49.7</ele>
        <time>2022-03-30T13:05:53Z</time>
      </trkpt>
      <trkpt lat="49.92516" lon="2.47827">
        <ele>49.7</ele>
        <time>2022-03-30T13:05:54Z</time>
      </trkpt>
      <trkpt lat="49.92517" lon="2.47826">
        <ele>49.6</ele>
        <time>2022-03-30T13:05:55Z</time>
      </trkpt>
      <trkpt lat="49.92519" lon="2.47825">
        <ele>49.6</ele>
        <time>2022-03-30T13:05:56Z</time>
      </trkpt>
      <trkpt lat="49.9252" lon="2.47824">
        <ele>49.5</ele>
        <time>2022-03-30T13:05:57Z</time>
      </trkpt>
      <trkpt lat="49.92521" lon="2.47824">
        <ele>49.5</ele>
        <time>2022-03-30T13:05:58Z</time>
      </trkpt>
      <trkpt lat="49.92522" lon="2.47823">
        <ele>49.5</ele>
        <time>2022-03-30T13:05:59Z</time>
      </trkpt>
      <trkpt lat="49.92522" lon="2.47822">
        <ele>49.4</ele>
        <time>2022-03-30T13:06:00Z</time>
      </trkpt>
      <trkpt lat="49.92523" lon="2.47822">
        <ele>49.4</ele>
        <time>2022-03-30T13:06:01Z</time>
      </trkpt>
      <trkpt lat="49.92524" lon="2.47822">
        <ele>49.4</ele>
        <time>2022-03-30T13:06:02Z</time>
      </trkpt>
      <trkpt lat="49.92524" lon="2.47821">
        <ele>49.3</ele>
        <time>2022-03-30T13:06:03Z</time>
      </trkpt>
      <trkpt lat="49.92525" lon="2.4782">
        <ele>49.3</ele>
        <time>2022-03-30T13:06:04Z</time>
      </trkpt>
      <trkpt lat="49.92526" lon="2.47819">
        <ele>49.3</ele>
        <time>2022-03-30T13:06:05Z</time>
      </trkpt>
      <trkpt lat="49.92527" lon="2.47818">
        <ele>49.2</ele>
        <time>2022-03-30T13:06:06Z</time>
      </trkpt>
      <trkpt lat="49.92528" lon="2.47818">
        <ele>49.2</ele>
        <time>2022-03-30T13:06:07Z</time>
      </trkpt>
      <trkpt lat="49.92529" lon="2.47817">
        <ele>49.2</ele>
        <time>2022-03-30T13:06:08Z</time>
      </trkpt>
      <trkpt lat="49.9253" lon="2.47816">
        <ele>49.1</ele>
        <time>2022-03-30T13:06:09Z</time>
      </trkpt>
      <trkpt lat="49.92531" lon="2.47815">
        <ele>49.1</ele>
        <time>2022-03-30T13:06:10Z</time>
      </trkpt>
      <trkpt lat="49.92532" lon="2.47815">
        <ele>49.1</ele>
        <time>2022-03-30T13:06:11Z</time>
      </trkpt>
      <trkpt lat="49.92533" lon="2.47813">
        <ele>49</ele>
        <time>2022-03-30T13:06:12Z</time>
      </trkpt>
      <trkpt lat="49.92534" lon="2.47812">
        <ele>49</ele>
        <time>2022-03-30T13:06:13Z</time>
      </trkpt>
      <trkpt lat="49.92535" lon="2.47811">
        <ele>49</ele>
        <time>2022-03-30T13:06:14Z</time>
      </trkpt>
      <trkpt lat="49.92536" lon="2.47811">
        <ele>49</ele>
        <time>2022-03-30T13:06:15Z</time>
      </trkpt>
      <trkpt lat="49.92537" lon="2.4781">
        <ele>48.9</ele>
        <time>2022-03-30T13:06:16Z</time>
      </trkpt>
      <trkpt lat="49.92538" lon="2.47809">
        <ele>48.9</ele>
        <time>2022-03-30T13:06:17Z</time>
      </trkpt>
      <trkpt lat="49.92539" lon="2.47808">
        <ele>48.9</ele>
        <time>2022-03-30T13:06:18Z</time>
      </trkpt>
      <trkpt lat="49.9254" lon="2.47806">
        <ele>48.9</ele>
        <time>2022-03-30T13:06:19Z</time>
      </trkpt>
      <trkpt lat="49.92541" lon="2.47805">
        <ele>48.8</ele>
        <time>2022-03-30T13:06:20Z</time>
      </trkpt>
      <trkpt lat="49.92542" lon="2.47804">
        <ele>48.8</ele>
        <time>2022-03-30T13:06:21Z</time>
      </trkpt>
      <trkpt lat="49.92543" lon="2.47804">
        <ele>48.8</ele>
        <time>2022-03-30T13:06:22Z</time>
      </trkpt>
      <trkpt lat="49.92543" lon="2.47803">
        <ele>48.7</ele>
        <time>2022-03-30T13:06:23Z</time>
      </trkpt>
      <trkpt lat="49.92544" lon="2.47802">
        <ele>48.7</ele>
        <time>2022-03-30T13:06:24Z</time>
      </trkpt>
      <trkpt lat="49.92545" lon="2.47801">
        <ele>48.7</ele>
        <time>2022-03-30T13:06:25Z</time>
      </trkpt>
      <trkpt lat="49.92546" lon="2.478">
        <ele>48.7</ele>
        <time>2022-03-30T13:06:26Z</time>
      </trkpt>
      <trkpt lat="49.92548" lon="2.47799">
        <ele>48.6</ele>
        <time>2022-03-30T13:06:27Z</time>
      </trkpt>
      <trkpt lat="49.92549" lon="2.47798">
        <ele>48.6</ele>
        <time>2022-03-30T13:06:28Z</time>
      </trkpt>
      <trkpt lat="49.92549" lon="2.47797">
        <ele>48.6</ele>
        <time>2022-03-30T13:06:29Z</time>
      </trkpt>
      <trkpt lat="49.92551" lon="2.47796">
        <ele>48.5</ele>
        <time>2022-03-30T13:06:30Z</time>
      </trkpt>
      <trkpt lat="49.92552" lon="2.47795">
        <ele>48.5</ele>
        <time>2022-03-30T13:06:31Z</time>
      </trkpt>
      <trkpt lat="49.92554" lon="2.47793">
        <ele>48.5</ele>
        <time>2022-03-30T13:06:32Z</time>
      </trkpt>
      <trkpt lat="49.92554" lon="2.47793">
        <ele>48.4</ele>
        <time>2022-03-30T13:06:33Z</time>
      </trkpt>
      <trkpt lat="49.92555" lon="2.47792">
        <ele>48.4</ele>
        <time>2022-03-30T13:06:34Z</time>
      </trkpt>
      <trkpt lat="49.92557" lon="2.4779">
        <ele>48.4</ele>
        <time>2022-03-30T13:06:35Z</time>
      </trkpt>
      <trkpt lat="49.92558" lon="2.4779">
        <ele>48.4</ele>
        <time>2022-03-30T13:06:36Z</time>
      </trkpt>
      <trkpt lat="49.92558" lon="2.47789">
        <ele>48.3</ele>
        <time>2022-03-30T13:06:37Z</time>
      </trkpt>
      <trkpt lat="49.9256" lon="2.47788">
        <ele>48.3</ele>
        <time>2022-03-30T13:06:38Z</time>
      </trkpt>
      <trkpt lat="49.92561" lon="2.47787">
        <ele>48.3</ele>
        <time>2022-03-30T13:06:39Z</time>
      </trkpt>
      <trkpt lat="49.92561" lon="2.47786">
        <ele>48.3</ele>
        <time>2022-03-30T13:06:40Z</time>
      </trkpt>
      <trkpt lat="49.92563" lon="2.47785">
        <ele>48.2</ele>
        <time>2022-03-30T13:06:41Z</time>
      </trkpt>
      <trkpt lat="49.92564" lon="2.47784">
        <ele>48.2</ele>
        <time>2022-03-30T13:06:42Z</time>
      </trkpt>
      <trkpt lat="49.92565" lon="2.47783">
        <ele>48.2</ele>
        <time>2022-03-30T13:06:43Z</time>
      </trkpt>
      <trkpt lat="49.92567" lon="2.47782">
        <ele>48.2</ele>
        <time>2022-03-30T13:06:44Z</time>
      </trkpt>
      <trkpt lat="49.92567" lon="2.47781">
        <ele>48.2</ele>
        <time>2022-03-30T13:06:45Z</time>
      </trkpt>
      <trkpt lat="49.92568" lon="2.47781">
        <ele>48.1</ele>
        <time>2022-03-30T13:06:46Z</time>
      </trkpt>
      <trkpt lat="49.92569" lon="2.4778">
        <ele>48.1</ele>
        <time>2022-03-30T13:06:47Z</time>
      </trkpt>
      <trkpt lat="49.9257" lon="2.47779">
        <ele>48.1</ele>
        <time>2022-03-30T13:06:48Z</time>
      </trkpt>
      <trkpt lat="49.92572" lon="2.47778">
        <ele>48.1</ele>
        <time>2022-03-30T13:06:49Z</time>
      </trkpt>
      <trkpt lat="49.92573" lon="2.47777">
        <ele>48.1</ele>
        <time>2022-03-30T13:06:50Z</time>
      </trkpt>
      <trkpt lat="49.92574" lon="2.47776">
        <ele>48</ele>
        <time>2022-03-30T13:06:51Z</time>
      </trkpt>
      <trkpt lat="49.92575" lon="2.47775">
        <ele>48</ele>
        <time>2022-03-30T13:06:52Z</time>
      </trkpt>
      <trkpt lat="49.92577" lon="2.47773">
        <ele>48</ele>
        <time>2022-03-30T13:06:53Z</time>
      </trkpt>
      <trkpt lat="49.92578" lon="2.47772">
        <ele>48</ele>
        <time>2022-03-30T13:06:54Z</time>
      </trkpt>
      <trkpt lat="49.92579" lon="2.47771">
        <ele>48</ele>
        <time>2022-03-30T13:06:55Z</time>
      </trkpt>
      <trkpt lat="49.9258" lon="2.4777">
        <ele>48</ele>
        <time>2022-03-30T13:06:56Z</time>
      </trkpt>
      <trkpt lat="49.92581" lon="2.4777">
        <ele>47.9</ele>
        <time>2022-03-30T13:06:57Z</time>
      </trkpt>
      <trkpt lat="49.92582" lon="2.47769">
        <ele>47.9</ele>
        <time>2022-03-30T13:06:58Z</time>
      </trkpt>
      <trkpt lat="49.92584" lon="2.47767">
        <ele>47.9</ele>
        <time>2022-03-30T13:06:59Z</time>
      </trkpt>
      <trkpt lat="49.92584" lon="2.47767">
        <ele>47.9</ele>
        <time>2022-03-30T13:07:00Z</time>
      </trkpt>
      <trkpt lat="49.92585" lon="2.47766">
        <ele>47.9</ele>
        <time>2022-03-30T13:07:01Z</time>
      </trkpt>
      <trkpt lat="49.92586" lon="2.47765">
        <ele>47.9</ele>
        <time>2022-03-30T13:07:02Z</time>
      </trkpt>
      <trkpt lat="49.92587" lon="2.47764">
        <ele>47.9</ele>
        <time>2022-03-30T13:07:03Z</time>
      </trkpt>
      <trkpt lat="49.92588" lon="2.47764">
        <ele>47.9</ele>
        <time>2022-03-30T13:07:04Z</time>
      </trkpt>
      <trkpt lat="49.92589" lon="2.47763">
        <ele>47.9</ele>
        <time>2022-03-30T13:07:05Z</time>
      </trkpt>
      <trkpt lat="49.9259" lon="2.47762">
        <ele>47.8</ele>
        <time>2022-03-30T13:07:06Z</time>
      </trkpt>
      <trkpt lat="49.92591" lon="2.47761">
        <ele>47.8</ele>
        <time>2022-03-30T13:07:07Z</time>
      </trkpt>
      <trkpt lat="49.92593" lon="2.4776">
        <ele>47.8</ele>
        <time>2022-03-30T13:07:08Z</time>
      </trkpt>
      <trkpt lat="49.92594" lon="2.47759">
        <ele>47.8</ele>
        <time>2022-03-30T13:07:09Z</time>
      </trkpt>
      <trkpt lat="49.92595" lon="2.47758">
        <ele>47.8</ele>
        <time>2022-03-30T13:07:10Z</time>
      </trkpt>
      <trkpt lat="49.92596" lon="2.47757">
        <ele>47.8</ele>
        <time>2022-03-30T13:07:11Z</time>
      </trkpt>
      <trkpt lat="49.92597" lon="2.47757">
        <ele>47.8</ele>
        <time>2022-03-30T13:07:12Z</time>
      </trkpt>
      <trkpt lat="49.92599" lon="2.47756">
        <ele>47.8</ele>
        <time>2022-03-30T13:07:13Z</time>
      </trkpt>
      <trkpt lat="49.926" lon="2.47755">
        <ele>47.8</ele>
        <time>2022-03-30T13:07:14Z</time>
      </trkpt>
      <trkpt lat="49.92601" lon="2.47754">
        <ele>47.8</ele>
        <time>2022-03-30T13:07:15Z</time>
      </trkpt>
      <trkpt lat="49.92602" lon="2.47753">
        <ele>47.8</ele>
        <time>2022-03-30T13:07:16Z</time>
      </trkpt>
      <trkpt lat="49.92604" lon="2.47752">
        <ele>47.8</ele>
        <time>2022-03-30T13:07:17Z</time>
      </trkpt>
      <trkpt lat="49.92605" lon="2.47751">
        <ele>47.8</ele>
        <time>2022-03-30T13:07:18Z</time>
      </trkpt>
      <trkpt lat="49.92607" lon="2.4775">
        <ele>47.8</ele>
        <time>2022-03-30T13:07:19Z</time>
      </trkpt>
      <trkpt lat="49.92608" lon="2.47749">
        <ele>47.8</ele>
        <time>2022-03-30T13:07:20Z</time>
      </trkpt>
      <trkpt lat="49.92609" lon="2.47748">
        <ele>47.7</ele>
        <time>2022-03-30T13:07:21Z</time>
      </trkpt>
      <trkpt lat="49.9261" lon="2.47747">
        <ele>47.7</ele>
        <time>2022-03-30T13:07:22Z</time>
      </trkpt>
      <trkpt lat="49.92611" lon="2.47747">
        <ele>47.7</ele>
        <time>2022-03-30T13:07:23Z</time>
      </trkpt>
      <trkpt lat="49.92612" lon="2.47746">
        <ele>47.7</ele>
        <time>2022-03-30T13:07:24Z</time>
      </trkpt>
      <trkpt lat="49.92613" lon="2.47745">
        <ele>47.7</ele>
        <time>2022-03-30T13:07:25Z</time>
      </trkpt>
      <trkpt lat="49.92614" lon="2.47745">
        <ele>47.7</ele>
        <time>2022-03-30T13:07:26Z</time>
      </trkpt>
      <trkpt lat="49.92615" lon="2.47744">
        <ele>47.7</ele>
        <time>2022-03-30T13:07:27Z</time>
      </trkpt>
      <trkpt lat="49.92616" lon="2.47743">
        <ele>47.7</ele>
        <time>2022-03-30T13:07:28Z</time>
      </trkpt>
      <trkpt lat="49.92617" lon="2.47743">
        <ele>47.8</ele>
        <time>2022-03-30T13:07:29Z</time>
      </trkpt>
      <trkpt lat="49.92618" lon="2.47742">
        <ele>47.8</ele>
        <time>2022-03-30T13:07:30Z</time>
      </trkpt>
      <trkpt lat="49.9262" lon="2.47741">
        <ele>47.8</ele>
        <time>2022-03-30T13:07:31Z</time>
      </trkpt>
      <trkpt lat="49.92621" lon="2.4774">
        <ele>47.8</ele>
        <time>2022-03-30T13:07:32Z</time>
      </trkpt>
      <trkpt lat="49.92622" lon="2.4774">
        <ele>47.8</ele>
        <time>2022-03-30T13:07:33Z</time>
      </trkpt>
      <trkpt lat="49.92623" lon="2.47739">
        <ele>47.8</ele>
        <time>2022-03-30T13:07:34Z</time>
      </trkpt>
      <trkpt lat="49.92624" lon="2.47739">
        <ele>47.8</ele>
        <time>2022-03-30T13:07:35Z</time>
      </trkpt>
      <trkpt lat="49.92625" lon="2.47738">
        <ele>47.8</ele>
        <time>2022-03-30T13:07:36Z</time>
      </trkpt>
      <trkpt lat="49.92626" lon="2.47738">
        <ele>47.8</ele>
        <time>2022-03-30T13:07:37Z</time>
      </trkpt>
      <trkpt lat="49.92627" lon="2.47737">
        <ele>47.8</ele>
        <time>2022-03-30T13:07:38Z</time>
      </trkpt>
      <trkpt lat="49.92628" lon="2.47736">
        <ele>47.8</ele>
        <time>2022-03-30T13:07:39Z</time>
      </trkpt>
      <trkpt lat="49.92629" lon="2.47736">
        <ele>47.8</ele>
        <time>2022-03-30T13:07:40Z</time>
      </trkpt>
      <trkpt lat="49.9263" lon="2.47736">
        <ele>47.8</ele>
        <time>2022-03-30T13:07:41Z</time>
      </trkpt>
      <trkpt lat="49.92631" lon="2.47735">
        <ele>47.8</ele>
        <time>2022-03-30T13:07:42Z</time>
      </trkpt>
      <trkpt lat="49.92633" lon="2.47734">
        <ele>47.8</ele>
        <time>2022-03-30T13:07:43Z</time>
      </trkpt>
      <trkpt lat="49.92634" lon="2.47734">
        <ele>47.8</ele>
        <time>2022-03-30T13:07:44Z</time>
      </trkpt>
      <trkpt lat="49.92635" lon="2.47733">
        <ele>47.8</ele>
        <time>2022-03-30T13:07:45Z</time>
      </trkpt>
      <trkpt lat="49.92636" lon="2.47733">
        <ele>47.8</ele>
        <time>2022-03-30T13:07:46Z</time>
      </trkpt>
      <trkpt lat="49.92638" lon="2.47732">
        <ele>47.8</ele>
        <time>2022-03-30T13:07:47Z</time>
      </trkpt>
      <trkpt lat="49.92639" lon="2.47731">
        <ele>47.8</ele>
        <time>2022-03-30T13:07:48Z</time>
      </trkpt>
      <trkpt lat="49.92641" lon="2.47731">
        <ele>47.8</ele>
        <time>2022-03-30T13:07:49Z</time>
      </trkpt>
      <trkpt lat="49.92642" lon="2.4773">
        <ele>47.9</ele>
        <time>2022-03-30T13:07:50Z</time>
      </trkpt>
      <trkpt lat="49.92643" lon="2.47729">
        <ele>47.9</ele>
        <time>2022-03-30T13:07:51Z</time>
      </trkpt>
      <trkpt lat="49.92645" lon="2.47729">
        <ele>47.9</ele>
        <time>2022-03-30T13:07:52Z</time>
      </trkpt>
      <trkpt lat="49.92646" lon="2.47728">
        <ele>47.9</ele>
        <time>2022-03-30T13:07:53Z</time>
      </trkpt>
      <trkpt lat="49.92647" lon="2.47728">
        <ele>47.9</ele>
        <time>2022-03-30T13:07:54Z</time>
      </trkpt>
      <trkpt lat="49.92649" lon="2.47727">
        <ele>47.9</ele>
        <time>2022-03-30T13:07:55Z</time>
      </trkpt>
      <trkpt lat="49.9265" lon="2.47727">
        <ele>47.9</ele>
        <time>2022-03-30T13:07:56Z</time>
      </trkpt>
      <trkpt lat="49.92651" lon="2.47726">
        <ele>47.9</ele>
        <time>2022-03-30T13:07:57Z</time>
      </trkpt>
      <trkpt lat="49.92653" lon="2.47725">
        <ele>48</ele>
        <time>2022-03-30T13:07:58Z</time>
      </trkpt>
      <trkpt lat="49.92654" lon="2.47725">
        <ele>48</ele>
        <time>2022-03-30T13:07:59Z</time>
      </trkpt>
      <trkpt lat="49.92655" lon="2.47724">
        <ele>48</ele>
        <time>2022-03-30T13:08:00Z</time>
      </trkpt>
      <trkpt lat="49.92656" lon="2.47724">
        <ele>48</ele>
        <time>2022-03-30T13:08:01Z</time>
      </trkpt>
      <trkpt lat="49.92657" lon="2.47723">
        <ele>48</ele>
        <time>2022-03-30T13:08:02Z</time>
      </trkpt>
      <trkpt lat="49.92658" lon="2.47723">
        <ele>48</ele>
        <time>2022-03-30T13:08:03Z</time>
      </trkpt>
      <trkpt lat="49.92659" lon="2.47723">
        <ele>48</ele>
        <time>2022-03-30T13:08:04Z</time>
      </trkpt>
      <trkpt lat="49.9266" lon="2.47722">
        <ele>48.1</ele>
        <time>2022-03-30T13:08:05Z</time>
      </trkpt>
      <trkpt lat="49.92662" lon="2.47721">
        <ele>48.1</ele>
        <time>2022-03-30T13:08:06Z</time>
      </trkpt>
      <trkpt lat="49.92663" lon="2.47721">
        <ele>48.1</ele>
        <time>2022-03-30T13:08:07Z</time>
      </trkpt>
      <trkpt lat="49.92664" lon="2.4772">
        <ele>48.1</ele>
        <time>2022-03-30T13:08:08Z</time>
      </trkpt>
      <trkpt lat="49.92666" lon="2.47719">
        <ele>48.1</ele>
        <time>2022-03-30T13:08:09Z</time>
      </trkpt>
      <trkpt lat="49.92667" lon="2.47719">
        <ele>48.1</ele>
        <time>2022-03-30T13:08:10Z</time>
      </trkpt>
      <trkpt lat="49.92667" lon="2.47719">
        <ele>48.2</ele>
        <time>2022-03-30T13:08:11Z</time>
      </trkpt>
      <trkpt lat="49.92669" lon="2.47718">
        <ele>48.2</ele>
        <time>2022-03-30T13:08:12Z</time>
      </trkpt>
      <trkpt lat="49.9267" lon="2.47718">
        <ele>48.2</ele>
        <time>2022-03-30T13:08:13Z</time>
      </trkpt>
      <trkpt lat="49.92671" lon="2.47717">
        <ele>48.2</ele>
        <time>2022-03-30T13:08:14Z</time>
      </trkpt>
      <trkpt lat="49.92672" lon="2.47717">
        <ele>48.2</ele>
        <time>2022-03-30T13:08:15Z</time>
      </trkpt>
      <trkpt lat="49.92674" lon="2.47716">
        <ele>48.2</ele>
        <time>2022-03-30T13:08:16Z</time>
      </trkpt>
      <trkpt lat="49.92676" lon="2.47715">
        <ele>48.3</ele>
        <time>2022-03-30T13:08:17Z</time>
      </trkpt>
      <trkpt lat="49.92676" lon="2.47715">
        <ele>48.3</ele>
        <time>2022-03-30T13:08:18Z</time>
      </trkpt>
      <trkpt lat="49.92677" lon="2.47714">
        <ele>48.3</ele>
        <time>2022-03-30T13:08:19Z</time>
      </trkpt>
      <trkpt lat="49.92678" lon="2.47714">
        <ele>48.3</ele>
        <time>2022-03-30T13:08:20Z</time>
      </trkpt>
      <trkpt lat="49.92679" lon="2.47713">
        <ele>48.3</ele>
        <time>2022-03-30T13:08:21Z</time>
      </trkpt>
      <trkpt lat="49.9268" lon="2.47713">
        <ele>48.3</ele>
        <time>2022-03-30T13:08:22Z</time>
      </trkpt>
      <trkpt lat="49.92682" lon="2.47712">
        <ele>48.4</ele>
        <time>2022-03-30T13:08:23Z</time>
      </trkpt>
      <trkpt lat="49.92682" lon="2.47712">
        <ele>48.4</ele>
        <time>2022-03-30T13:08:24Z</time>
      </trkpt>
      <trkpt lat="49.92683" lon="2.47711">
        <ele>48.4</ele>
        <time>2022-03-30T13:08:25Z</time>
      </trkpt>
      <trkpt lat="49.92685" lon="2.4771">
        <ele>48.4</ele>
        <time>2022-03-30T13:08:26Z</time>
      </trkpt>
      <trkpt lat="49.92686" lon="2.4771">
        <ele>48.4</ele>
        <time>2022-03-30T13:08:27Z</time>
      </trkpt>
      <trkpt lat="49.92687" lon="2.47709">
        <ele>48.4</ele>
        <time>2022-03-30T13:08:28Z</time>
      </trkpt>
      <trkpt lat="49.92689" lon="2.47708">
        <ele>48.5</ele>
        <time>2022-03-30T13:08:29Z</time>
      </trkpt>
      <trkpt lat="49.9269" lon="2.47708">
        <ele>48.5</ele>
        <time>2022-03-30T13:08:30Z</time>
      </trkpt>
      <trkpt lat="49.9269" lon="2.47707">
        <ele>48.5</ele>
        <time>2022-03-30T13:08:31Z</time>
      </trkpt>
      <trkpt lat="49.92692" lon="2.47706">
        <ele>48.5</ele>
        <time>2022-03-30T13:08:32Z</time>
      </trkpt>
      <trkpt lat="49.92693" lon="2.47706">
        <ele>48.5</ele>
        <time>2022-03-30T13:08:33Z</time>
      </trkpt>
      <trkpt lat="49.92694" lon="2.47705">
        <ele>48.5</ele>
        <time>2022-03-30T13:08:34Z</time>
      </trkpt>
      <trkpt lat="49.92695" lon="2.47704">
        <ele>48.6</ele>
        <time>2022-03-30T13:08:35Z</time>
      </trkpt>
      <trkpt lat="49.92696" lon="2.47703">
        <ele>48.6</ele>
        <time>2022-03-30T13:08:36Z</time>
      </trkpt>
      <trkpt lat="49.92697" lon="2.47702">
        <ele>48.6</ele>
        <time>2022-03-30T13:08:37Z</time>
      </trkpt>
      <trkpt lat="49.92698" lon="2.47702">
        <ele>48.6</ele>
        <time>2022-03-30T13:08:38Z</time>
      </trkpt>
      <trkpt lat="49.92699" lon="2.47701">
        <ele>48.6</ele>
        <time>2022-03-30T13:08:39Z</time>
      </trkpt>
      <trkpt lat="49.927" lon="2.477">
        <ele>48.6</ele>
        <time>2022-03-30T13:08:40Z</time>
      </trkpt>
      <trkpt lat="49.92701" lon="2.47699">
        <ele>48.6</ele>
        <time>2022-03-30T13:08:41Z</time>
      </trkpt>
      <trkpt lat="49.92702" lon="2.47699">
        <ele>48.7</ele>
        <time>2022-03-30T13:08:42Z</time>
      </trkpt>
      <trkpt lat="49.92703" lon="2.47698">
        <ele>48.7</ele>
        <time>2022-03-30T13:08:43Z</time>
      </trkpt>
      <trkpt lat="49.92704" lon="2.47697">
        <ele>48.7</ele>
        <time>2022-03-30T13:08:44Z</time>
      </trkpt>
      <trkpt lat="49.92705" lon="2.47696">
        <ele>48.7</ele>
        <time>2022-03-30T13:08:45Z</time>
      </trkpt>
      <trkpt lat="49.92706" lon="2.47696">
        <ele>48.7</ele>
        <time>2022-03-30T13:08:46Z</time>
      </trkpt>
      <trkpt lat="49.92707" lon="2.47695">
        <ele>48.7</ele>
        <time>2022-03-30T13:08:47Z</time>
      </trkpt>
      <trkpt lat="49.92708" lon="2.47695">
        <ele>48.8</ele>
        <time>2022-03-30T13:08:48Z</time>
      </trkpt>
      <trkpt lat="49.9271" lon="2.47694">
        <ele>48.8</ele>
        <time>2022-03-30T13:08:49Z</time>
      </trkpt>
      <trkpt lat="49.92711" lon="2.47693">
        <ele>48.8</ele>
        <time>2022-03-30T13:08:50Z</time>
      </trkpt>
      <trkpt lat="49.92712" lon="2.47693">
        <ele>48.8</ele>
        <time>2022-03-30T13:08:51Z</time>
      </trkpt>
      <trkpt lat="49.92713" lon="2.47692">
        <ele>48.8</ele>
        <time>2022-03-30T13:08:52Z</time>
      </trkpt>
      <trkpt lat="49.92714" lon="2.47691">
        <ele>48.8</ele>
        <time>2022-03-30T13:08:53Z</time>
      </trkpt>
      <trkpt lat="49.92715" lon="2.4769">
        <ele>48.9</ele>
        <time>2022-03-30T13:08:54Z</time>
      </trkpt>
      <trkpt lat="49.92715" lon="2.4769">
        <ele>48.9</ele>
        <time>2022-03-30T13:08:55Z</time>
      </trkpt>
      <trkpt lat="49.92716" lon="2.47689">
        <ele>48.9</ele>
        <time>2022-03-30T13:08:56Z</time>
      </trkpt>
      <trkpt lat="49.92717" lon="2.47688">
        <ele>48.9</ele>
        <time>2022-03-30T13:08:57Z</time>
      </trkpt>
      <trkpt lat="49.92719" lon="2.47686">
        <ele>48.9</ele>
        <time>2022-03-30T13:08:58Z</time>
      </trkpt>
      <trkpt lat="49.9272" lon="2.47686">
        <ele>48.9</ele>
        <time>2022-03-30T13:08:59Z</time>
      </trkpt>
      <trkpt lat="49.92721" lon="2.47685">
        <ele>49</ele>
        <time>2022-03-30T13:09:00Z</time>
      </trkpt>
      <trkpt lat="49.92722" lon="2.47683">
        <ele>49</ele>
        <time>2022-03-30T13:09:01Z</time>
      </trkpt>
      <trkpt lat="49.92723" lon="2.47683">
        <ele>49</ele>
        <time>2022-03-30T13:09:02Z</time>
      </trkpt>
      <trkpt lat="49.92724" lon="2.47682">
        <ele>49</ele>
        <time>2022-03-30T13:09:03Z</time>
      </trkpt>
      <trkpt lat="49.92725" lon="2.4768">
        <ele>49</ele>
        <time>2022-03-30T13:09:04Z</time>
      </trkpt>
      <trkpt lat="49.92726" lon="2.47679">
        <ele>49.1</ele>
        <time>2022-03-30T13:09:05Z</time>
      </trkpt>
      <trkpt lat="49.92727" lon="2.47679">
        <ele>49.1</ele>
        <time>2022-03-30T13:09:06Z</time>
      </trkpt>
      <trkpt lat="49.92728" lon="2.47677">
        <ele>49.1</ele>
        <time>2022-03-30T13:09:07Z</time>
      </trkpt>
      <trkpt lat="49.92729" lon="2.47676">
        <ele>49.1</ele>
        <time>2022-03-30T13:09:08Z</time>
      </trkpt>
      <trkpt lat="49.9273" lon="2.47675">
        <ele>49.1</ele>
        <time>2022-03-30T13:09:09Z</time>
      </trkpt>
      <trkpt lat="49.92731" lon="2.47674">
        <ele>49.1</ele>
        <time>2022-03-30T13:09:10Z</time>
      </trkpt>
      <trkpt lat="49.92732" lon="2.47673">
        <ele>49.2</ele>
        <time>2022-03-30T13:09:11Z</time>
      </trkpt>
      <trkpt lat="49.92732" lon="2.47672">
        <ele>49.2</ele>
        <time>2022-03-30T13:09:12Z</time>
      </trkpt>
      <trkpt lat="49.92733" lon="2.47671">
        <ele>49.2</ele>
        <time>2022-03-30T13:09:13Z</time>
      </trkpt>
      <trkpt lat="49.92734" lon="2.4767">
        <ele>49.3</ele>
        <time>2022-03-30T13:09:14Z</time>
      </trkpt>
      <trkpt lat="49.92735" lon="2.47669">
        <ele>49.3</ele>
        <time>2022-03-30T13:09:15Z</time>
      </trkpt>
      <trkpt lat="49.92736" lon="2.47668">
        <ele>49.3</ele>
        <time>2022-03-30T13:09:16Z</time>
      </trkpt>
      <trkpt lat="49.92736" lon="2.47667">
        <ele>49.3</ele>
        <time>2022-03-30T13:09:17Z</time>
      </trkpt>
      <trkpt lat="49.92737" lon="2.47666">
        <ele>49.3</ele>
        <time>2022-03-30T13:09:18Z</time>
      </trkpt>
      <trkpt lat="49.92738" lon="2.47665">
        <ele>49.4</ele>
        <time>2022-03-30T13:09:19Z</time>
      </trkpt>
      <trkpt lat="49.92738" lon="2.47664">
        <ele>49.4</ele>
        <time>2022-03-30T13:09:20Z</time>
      </trkpt>
      <trkpt lat="49.92739" lon="2.47662">
        <ele>49.4</ele>
        <time>2022-03-30T13:09:21Z</time>
      </trkpt>
      <trkpt lat="49.92739" lon="2.47662">
        <ele>49.4</ele>
        <time>2022-03-30T13:09:22Z</time>
      </trkpt>
      <trkpt lat="49.9274" lon="2.47661">
        <ele>49.4</ele>
        <time>2022-03-30T13:09:23Z</time>
      </trkpt>
      <trkpt lat="49.9274" lon="2.4766">
        <ele>49.4</ele>
        <time>2022-03-30T13:09:24Z</time>
      </trkpt>
      <trkpt lat="49.9274" lon="2.47658">
        <ele>49.5</ele>
        <time>2022-03-30T13:09:25Z</time>
      </trkpt>
      <trkpt lat="49.9274" lon="2.47657">
        <ele>49.5</ele>
        <time>2022-03-30T13:09:26Z</time>
      </trkpt>
      <trkpt lat="49.92741" lon="2.47656">
        <ele>49.5</ele>
        <time>2022-03-30T13:09:27Z</time>
      </trkpt>
      <trkpt lat="49.92741" lon="2.47655">
        <ele>49.5</ele>
        <time>2022-03-30T13:09:28Z</time>
      </trkpt>
      <trkpt lat="49.92742" lon="2.47654">
        <ele>49.6</ele>
        <time>2022-03-30T13:09:29Z</time>
      </trkpt>
      <trkpt lat="49.92742" lon="2.47653">
        <ele>49.6</ele>
        <time>2022-03-30T13:09:30Z</time>
      </trkpt>
      <trkpt lat="49.92743" lon="2.47652">
        <ele>49.6</ele>
        <time>2022-03-30T13:09:31Z</time>
      </trkpt>
      <trkpt lat="49.92743" lon="2.47651">
        <ele>49.6</ele>
        <time>2022-03-30T13:09:32Z</time>
      </trkpt>
      <trkpt lat="49.92744" lon="2.4765">
        <ele>49.7</ele>
        <time>2022-03-30T13:09:33Z</time>
      </trkpt>
      <trkpt lat="49.92745" lon="2.47648">
        <ele>49.7</ele>
        <time>2022-03-30T13:09:34Z</time>
      </trkpt>
      <trkpt lat="49.92746" lon="2.47647">
        <ele>49.7</ele>
        <time>2022-03-30T13:09:35Z</time>
      </trkpt>
      <trkpt lat="49.92746" lon="2.47646">
        <ele>49.7</ele>
        <time>2022-03-30T13:09:36Z</time>
      </trkpt>
      <trkpt lat="49.92746" lon="2.47644">
        <ele>49.8</ele>
        <time>2022-03-30T13:09:37Z</time>
      </trkpt>
      <trkpt lat="49.92747" lon="2.47643">
        <ele>49.8</ele>
        <time>2022-03-30T13:09:38Z</time>
      </trkpt>
      <trkpt lat="49.92747" lon="2.47643">
        <ele>49.8</ele>
        <time>2022-03-30T13:09:39Z</time>
      </trkpt>
      <trkpt lat="49.92746" lon="2.47643">
        <ele>49.8</ele>
        <time>2022-03-30T13:09:40Z</time>
      </trkpt>
      <trkpt lat="49.92746" lon="2.47643">
        <ele>49.8</ele>
        <time>2022-03-30T13:09:41Z</time>
      </trkpt>
      <trkpt lat="49.92746" lon="2.47643">
        <ele>49.8</ele>
        <time>2022-03-30T13:09:42Z</time>
      </trkpt>
      <trkpt lat="49.92746" lon="2.47643">
        <ele>49.8</ele>
        <time>2022-03-30T13:09:43Z</time>
      </trkpt>
      <trkpt lat="49.92746" lon="2.47643">
        <ele>49.8</ele>
        <time>2022-03-30T13:09:44Z</time>
      </trkpt>
      <trkpt lat="49.92746" lon="2.47643">
        <ele>49.8</ele>
        <time>2022-03-30T13:09:45Z</time>
      </trkpt>
      <trkpt lat="49.92746" lon="2.47643">
        <ele>49.8</ele>
        <time>2022-03-30T13:09:46Z</time>
      </trkpt>
      <trkpt lat="49.92746" lon="2.47643">
        <ele>49.8</ele>
        <time>2022-03-30T13:09:47Z</time>
      </trkpt>
      <trkpt lat="49.92746" lon="2.47643">
        <ele>49.8</ele>
        <time>2022-03-30T13:09:48Z</time>
      </trkpt>
      <trkpt lat="49.92746" lon="2.47643">
        <ele>49.8</ele>
        <time>2022-03-30T13:09:49Z</time>
      </trkpt>
      <trkpt lat="49.92746" lon="2.47643">
        <ele>49.8</ele>
        <time>2022-03-30T13:09:50Z</time>
      </trkpt>
      <trkpt lat="49.92746" lon="2.47643">
        <ele>49.8</ele>
        <time>2022-03-30T13:09:51Z</time>
      </trkpt>
      <trkpt lat="49.92746" lon="2.47643">
        <ele>49.8</ele>
        <time>2022-03-30T13:09:52Z</time>
      </trkpt>
      <trkpt lat="49.92746" lon="2.47643">
        <ele>49.8</ele>
        <time>2022-03-30T13:09:53Z</time>
      </trkpt>
      <trkpt lat="49.92746" lon="2.47643">
        <ele>49.8</ele>
        <time>2022-03-30T13:09:54Z</time>
      </trkpt>
      <trkpt lat="49.92746" lon="2.47643">
        <ele>49.8</ele>
        <time>2022-03-30T13:09:55Z</time>
      </trkpt>
      <trkpt lat="49.92746" lon="2.47643">
        <ele>49.8</ele>
        <time>2022-03-30T13:09:56Z</time>
      </trkpt>
      <trkpt lat="49.92746" lon="2.47643">
        <ele>49.8</ele>
        <time>2022-03-30T13:09:57Z</time>
      </trkpt>
      <trkpt lat="49.92746" lon="2.47643">
        <ele>49.8</ele>
        <time>2022-03-30T13:09:58Z</time>
      </trkpt>
      <trkpt lat="49.92746" lon="2.47643">
        <ele>49.8</ele>
        <time>2022-03-30T13:09:59Z</time>
      </trkpt>
      <trkpt lat="49.92746" lon="2.47643">
        <ele>49.8</ele>
        <time>2022-03-30T13:10:00Z</time>
      </trkpt>
      <trkpt lat="49.92746" lon="2.47643">
        <ele>49.8</ele>
        <time>2022-03-30T13:10:01Z</time>
      </trkpt>
      <trkpt lat="49.92746" lon="2.47643">
        <ele>49.8</ele>
        <time>2022-03-30T13:10:02Z</time>
      </trkpt>
      <trkpt lat="49.92746" lon="2.47643">
        <ele>49.8</ele>
        <time>2022-03-30T13:10:03Z</time>
      </trkpt>
      <trkpt lat="49.92746" lon="2.47643">
        <ele>49.8</ele>
        <time>2022-03-30T13:10:04Z</time>
      </trkpt>
      <trkpt lat="49.92746" lon="2.47643">
        <ele>49.8</ele>
        <time>2022-03-30T13:10:05Z</time>
      </trkpt>
      <trkpt lat="49.92746" lon="2.47643">
        <ele>49.8</ele>
        <time>2022-03-30T13:10:06Z</time>
      </trkpt>
      <trkpt lat="49.92746" lon="2.47643">
        <ele>49.8</ele>
        <time>2022-03-30T13:10:07Z</time>
      </trkpt>
      <trkpt lat="49.92746" lon="2.47643">
        <ele>49.8</ele>
        <time>2022-03-30T13:10:08Z</time>
      </trkpt>
      <trkpt lat="49.92746" lon="2.47643">
        <ele>49.8</ele>
        <time>2022-03-30T13:10:09Z</time>
      </trkpt>
      <trkpt lat="49.92746" lon="2.47643">
        <ele>49.8</ele>
        <time>2022-03-30T13:10:10Z</time>
      </trkpt>
      <trkpt lat="49.92746" lon="2.47643">
        <ele>49.8</ele>
        <time>2022-03-30T13:10:11Z</time>
      </trkpt>
      <trkpt lat="49.92746" lon="2.47643">
        <ele>49.8</ele>
        <time>2022-03-30T13:10:12Z</time>
      </trkpt>
      <trkpt lat="49.92746" lon="2.47643">
        <ele>49.8</ele>
        <time>2022-03-30T13:10:13Z</time>
      </trkpt>
      <trkpt lat="49.92746" lon="2.47643">
        <ele>49.8</ele>
        <time>2022-03-30T13:10:14Z</time>
      </trkpt>
      <trkpt lat="49.92746" lon="2.47643">
        <ele>49.8</ele>
        <time>2022-03-30T13:10:15Z</time>
      </trkpt>
      <trkpt lat="49.92746" lon="2.47643">
        <ele>49.8</ele>
        <time>2022-03-30T13:10:16Z</time>
      </trkpt>
      <trkpt lat="49.92746" lon="2.47643">
        <ele>49.8</ele>
        <time>2022-03-30T13:10:17Z</time>
      </trkpt>
      <trkpt lat="49.92746" lon="2.47643">
        <ele>49.8</ele>
        <time>2022-03-30T13:10:18Z</time>
      </trkpt>
      <trkpt lat="49.92746" lon="2.47643">
        <ele>49.8</ele>
        <time>2022-03-30T13:10:19Z</time>
      </trkpt>
      <trkpt lat="49.92746" lon="2.47643">
        <ele>49.8</ele>
        <time>2022-03-30T13:10:20Z</time>
      </trkpt>
      <trkpt lat="49.92746" lon="2.47643">
        <ele>49.8</ele>
        <time>2022-03-30T13:10:21Z</time>
      </trkpt>
      <trkpt lat="49.92746" lon="2.47643">
        <ele>49.8</ele>
        <time>2022-03-30T13:10:22Z</time>
      </trkpt>
      <trkpt lat="49.92746" lon="2.47643">
        <ele>49.8</ele>
        <time>2022-03-30T13:10:23Z</time>
      </trkpt>
      <trkpt lat="49.92746" lon="2.47643">
        <ele>49.8</ele>
        <time>2022-03-30T13:10:24Z</time>
      </trkpt>
      <trkpt lat="49.92746" lon="2.47643">
        <ele>49.8</ele>
        <time>2022-03-30T13:10:25Z</time>
      </trkpt>
      <trkpt lat="49.92746" lon="2.47643">
        <ele>49.8</ele>
        <time>2022-03-30T13:10:26Z</time>
      </trkpt>
      <trkpt lat="49.92746" lon="2.47643">
        <ele>49.8</ele>
        <time>2022-03-30T13:10:27Z</time>
      </trkpt>
      <trkpt lat="49.92746" lon="2.47643">
        <ele>49.8</ele>
        <time>2022-03-30T13:10:28Z</time>
      </trkpt>
      <trkpt lat="49.92746" lon="2.47643">
        <ele>49.8</ele>
        <time>2022-03-30T13:10:29Z</time>
      </trkpt>
      <trkpt lat="49.92746" lon="2.47643">
        <ele>49.8</ele>
        <time>2022-03-30T13:10:30Z</time>
      </trkpt>
      <trkpt lat="49.92746" lon="2.47643">
        <ele>49.8</ele>
        <time>2022-03-30T13:10:31Z</time>
      </trkpt>
      <trkpt lat="49.92746" lon="2.47643">
        <ele>49.8</ele>
        <time>2022-03-30T13:10:32Z</time>
      </trkpt>
      <trkpt lat="49.92746" lon="2.47643">
        <ele>49.8</ele>
        <time>2022-03-30T13:10:33Z</time>
      </trkpt>
      <trkpt lat="49.92746" lon="2.47643">
        <ele>49.8</ele>
        <time>2022-03-30T13:10:34Z</time>
      </trkpt>
      <trkpt lat="49.92746" lon="2.47643">
        <ele>49.8</ele>
        <time>2022-03-30T13:10:35Z</time>
      </trkpt>
      <trkpt lat="49.92746" lon="2.47643">
        <ele>49.8</ele>
        <time>2022-03-30T13:10:36Z</time>
      </trkpt>
      <trkpt lat="49.92746" lon="2.47643">
        <ele>49.8</ele>
        <time>2022-03-30T13:10:37Z</time>
      </trkpt>
      <trkpt lat="49.92746" lon="2.47643">
        <ele>49.8</ele>
        <time>2022-03-30T13:10:38Z</time>
      </trkpt>
      <trkpt lat="49.92746" lon="2.47643">
        <ele>49.8</ele>
        <time>2022-03-30T13:10:39Z</time>
      </trkpt>
      <trkpt lat="49.92746" lon="2.47643">
        <ele>49.8</ele>
        <time>2022-03-30T13:10:40Z</time>
      </trkpt>
      <trkpt lat="49.92746" lon="2.47643">
        <ele>49.8</ele>
        <time>2022-03-30T13:10:41Z</time>
      </trkpt>
      <trkpt lat="49.92746" lon="2.47643">
        <ele>49.8</ele>
        <time>2022-03-30T13:10:42Z</time>
      </trkpt>
      <trkpt lat="49.92746" lon="2.47643">
        <ele>49.8</ele>
        <time>2022-03-30T13:10:43Z</time>
      </trkpt>
      <trkpt lat="49.92746" lon="2.47643">
        <ele>49.8</ele>
        <time>2022-03-30T13:10:44Z</time>
      </trkpt>
      <trkpt lat="49.92746" lon="2.47643">
        <ele>49.8</ele>
        <time>2022-03-30T13:10:45Z</time>
      </trkpt>
      <trkpt lat="49.92746" lon="2.47643">
        <ele>49.8</ele>
        <time>2022-03-30T13:10:46Z</time>
      </trkpt>
      <trkpt lat="49.92746" lon="2.47643">
        <ele>49.8</ele>
        <time>2022-03-30T13:10:47Z</time>
      </trkpt>
      <trkpt lat="49.92746" lon="2.47643">
        <ele>49.8</ele>
        <time>2022-03-30T13:10:48Z</time>
      </trkpt>
      <trkpt lat="49.92746" lon="2.47643">
        <ele>49.8</ele>
        <time>2022-03-30T13:10:49Z</time>
      </trkpt>
      <trkpt lat="49.92746" lon="2.47643">
        <ele>49.8</ele>
        <time>2022-03-30T13:10:50Z</time>
      </trkpt>
      <trkpt lat="49.92746" lon="2.47643">
        <ele>49.8</ele>
        <time>2022-03-30T13:10:51Z</time>
      </trkpt>
      <trkpt lat="49.92746" lon="2.47643">
        <ele>49.8</ele>
        <time>2022-03-30T13:10:52Z</time>
      </trkpt>
      <trkpt lat="49.92746" lon="2.47643">
        <ele>49.8</ele>
        <time>2022-03-30T13:10:53Z</time>
      </trkpt>
      <trkpt lat="49.92746" lon="2.47643">
        <ele>49.8</ele>
        <time>2022-03-30T13:10:54Z</time>
      </trkpt>
      <trkpt lat="49.92746" lon="2.47643">
        <ele>49.8</ele>
        <time>2022-03-30T13:10:55Z</time>
      </trkpt>
      <trkpt lat="49.92746" lon="2.47643">
        <ele>49.8</ele>
        <time>2022-03-30T13:10:56Z</time>
      </trkpt>
      <trkpt lat="49.92746" lon="2.47643">
        <ele>49.8</ele>
        <time>2022-03-30T13:10:57Z</time>
      </trkpt>
      <trkpt lat="49.92746" lon="2.47643">
        <ele>49.8</ele>
        <time>2022-03-30T13:10:58Z</time>
      </trkpt>
      <trkpt lat="49.92746" lon="2.47643">
        <ele>49.8</ele>
        <time>2022-03-30T13:10:59Z</time>
      </trkpt>
      <trkpt lat="49.92746" lon="2.47643">
        <ele>49.8</ele>
        <time>2022-03-30T13:11:00Z</time>
      </trkpt>
      <trkpt lat="49.92746" lon="2.47643">
        <ele>49.8</ele>
        <time>2022-03-30T13:11:01Z</time>
      </trkpt>
      <trkpt lat="49.92746" lon="2.47643">
        <ele>49.8</ele>
        <time>2022-03-30T13:11:02Z</time>
      </trkpt>
      <trkpt lat="49.92746" lon="2.47643">
        <ele>49.8</ele>
        <time>2022-03-30T13:11:03Z</time>
      </trkpt>
      <trkpt lat="49.92746" lon="2.47643">
        <ele>49.8</ele>
        <time>2022-03-30T13:11:04Z</time>
      </trkpt>
      <trkpt lat="49.92746" lon="2.47643">
        <ele>49.8</ele>
        <time>2022-03-30T13:11:05Z</time>
      </trkpt>
      <trkpt lat="49.92746" lon="2.47643">
        <ele>49.8</ele>
        <time>2022-03-30T13:11:06Z</time>
      </trkpt>
      <trkpt lat="49.92746" lon="2.47643">
        <ele>49.8</ele>
        <time>2022-03-30T13:11:07Z</time>
      </trkpt>
      <trkpt lat="49.92746" lon="2.47643">
        <ele>49.8</ele>
        <time>2022-03-30T13:11:08Z</time>
      </trkpt>
      <trkpt lat="49.92746" lon="2.47643">
        <ele>49.8</ele>
        <time>2022-03-30T13:11:09Z</time>
      </trkpt>
      <trkpt lat="49.92746" lon="2.47643">
        <ele>49.8</ele>
        <time>2022-03-30T13:11:10Z</time>
      </trkpt>
      <trkpt lat="49.92746" lon="2.47643">
        <ele>49.8</ele>
        <time>2022-03-30T13:11:11Z</time>
      </trkpt>
      <trkpt lat="49.92746" lon="2.47643">
        <ele>49.8</ele>
        <time>2022-03-30T13:11:12Z</time>
      </trkpt>
      <trkpt lat="49.92746" lon="2.47643">
        <ele>49.8</ele>
        <time>2022-03-30T13:11:13Z</time>
      </trkpt>
      <trkpt lat="49.92746" lon="2.47643">
        <ele>49.8</ele>
        <time>2022-03-30T13:11:14Z</time>
      </trkpt>
      <trkpt lat="49.92746" lon="2.47643">
        <ele>49.8</ele>
        <time>2022-03-30T13:11:15Z</time>
      </trkpt>
      <trkpt lat="49.92746" lon="2.47643">
        <ele>49.8</ele>
        <time>2022-03-30T13:11:16Z</time>
      </trkpt>
      <trkpt lat="49.92746" lon="2.47643">
        <ele>49.8</ele>
        <time>2022-03-30T13:11:17Z</time>
      </trkpt>
      <trkpt lat="49.92746" lon="2.47643">
        <ele>49.8</ele>
        <time>2022-03-30T13:11:18Z</time>
      </trkpt>
      <trkpt lat="49.92746" lon="2.47643">
        <ele>49.8</ele>
        <time>2022-03-30T13:11:19Z</time>
      </trkpt>
      <trkpt lat="49.92746" lon="2.47643">
        <ele>49.8</ele>
        <time>2022-03-30T13:11:20Z</time>
      </trkpt>
      <trkpt lat="49.92746" lon="2.47643">
        <ele>49.8</ele>
        <time>2022-03-30T13:11:21Z</time>
      </trkpt>
      <trkpt lat="49.92746" lon="2.47644">
        <ele>49.8</ele>
        <time>2022-03-30T13:11:22Z</time>
      </trkpt>
      <trkpt lat="49.92746" lon="2.47645">
        <ele>49.9</ele>
        <time>2022-03-30T13:11:23Z</time>
      </trkpt>
      <trkpt lat="49.92746" lon="2.47645">
        <ele>49.9</ele>
        <time>2022-03-30T13:11:24Z</time>
      </trkpt>
      <trkpt lat="49.92747" lon="2.47645">
        <ele>49.9</ele>
        <time>2022-03-30T13:11:25Z</time>
      </trkpt>
      <trkpt lat="49.92747" lon="2.47644">
        <ele>49.9</ele>
        <time>2022-03-30T13:11:26Z</time>
      </trkpt>
      <trkpt lat="49.92748" lon="2.47643">
        <ele>49.9</ele>
        <time>2022-03-30T13:11:27Z</time>
      </trkpt>
      <trkpt lat="49.92748" lon="2.47641">
        <ele>49.9</ele>
        <time>2022-03-30T13:11:28Z</time>
      </trkpt>
      <trkpt lat="49.92749" lon="2.4764">
        <ele>50</ele>
        <time>2022-03-30T13:11:29Z</time>
      </trkpt>
      <trkpt lat="49.92749" lon="2.47639">
        <ele>50</ele>
        <time>2022-03-30T13:11:30Z</time>
      </trkpt>
      <trkpt lat="49.92749" lon="2.47637">
        <ele>50</ele>
        <time>2022-03-30T13:11:31Z</time>
      </trkpt>
      <trkpt lat="49.9275" lon="2.47636">
        <ele>50</ele>
        <time>2022-03-30T13:11:32Z</time>
      </trkpt>
      <trkpt lat="49.9275" lon="2.47635">
        <ele>50</ele>
        <time>2022-03-30T13:11:33Z</time>
      </trkpt>
      <trkpt lat="49.92751" lon="2.47634">
        <ele>50</ele>
        <time>2022-03-30T13:11:34Z</time>
      </trkpt>
      <trkpt lat="49.92751" lon="2.47633">
        <ele>50.1</ele>
        <time>2022-03-30T13:11:35Z</time>
      </trkpt>
      <trkpt lat="49.92752" lon="2.47632">
        <ele>50.1</ele>
        <time>2022-03-30T13:11:36Z</time>
      </trkpt>
      <trkpt lat="49.92753" lon="2.4763">
        <ele>50.1</ele>
        <time>2022-03-30T13:11:37Z</time>
      </trkpt>
      <trkpt lat="49.92754" lon="2.47629">
        <ele>50.1</ele>
        <time>2022-03-30T13:11:38Z</time>
      </trkpt>
      <trkpt lat="49.92754" lon="2.47627">
        <ele>50.1</ele>
        <time>2022-03-30T13:11:39Z</time>
      </trkpt>
      <trkpt lat="49.92756" lon="2.47625">
        <ele>50.2</ele>
        <time>2022-03-30T13:11:40Z</time>
      </trkpt>
      <trkpt lat="49.92756" lon="2.47624">
        <ele>50.2</ele>
        <time>2022-03-30T13:11:41Z</time>
      </trkpt>
      <trkpt lat="49.92757" lon="2.47623">
        <ele>50.2</ele>
        <time>2022-03-30T13:11:42Z</time>
      </trkpt>
      <trkpt lat="49.92758" lon="2.47622">
        <ele>50.2</ele>
        <time>2022-03-30T13:11:43Z</time>
      </trkpt>
      <trkpt lat="49.92758" lon="2.4762">
        <ele>50.3</ele>
        <time>2022-03-30T13:11:44Z</time>
      </trkpt>
      <trkpt lat="49.9276" lon="2.47617">
        <ele>50.3</ele>
        <time>2022-03-30T13:11:45Z</time>
      </trkpt>
      <trkpt lat="49.9276" lon="2.47616">
        <ele>50.3</ele>
        <time>2022-03-30T13:11:46Z</time>
      </trkpt>
      <trkpt lat="49.92761" lon="2.47615">
        <ele>50.4</ele>
        <time>2022-03-30T13:11:47Z</time>
      </trkpt>
      <trkpt lat="49.92761" lon="2.47614">
        <ele>50.4</ele>
        <time>2022-03-30T13:11:48Z</time>
      </trkpt>
      <trkpt lat="49.92762" lon="2.47613">
        <ele>50.4</ele>
        <time>2022-03-30T13:11:49Z</time>
      </trkpt>
      <trkpt lat="49.92763" lon="2.47611">
        <ele>50.4</ele>
        <time>2022-03-30T13:11:50Z</time>
      </trkpt>
      <trkpt lat="49.92764" lon="2.4761">
        <ele>50.5</ele>
        <time>2022-03-30T13:11:51Z</time>
      </trkpt>
      <trkpt lat="49.92764" lon="2.47609">
        <ele>50.5</ele>
        <time>2022-03-30T13:11:52Z</time>
      </trkpt>
      <trkpt lat="49.92765" lon="2.47608">
        <ele>50.5</ele>
        <time>2022-03-30T13:11:53Z</time>
      </trkpt>
      <trkpt lat="49.92767" lon="2.47605">
        <ele>50.6</ele>
        <time>2022-03-30T13:11:54Z</time>
      </trkpt>
      <trkpt lat="49.92767" lon="2.47604">
        <ele>50.6</ele>
        <time>2022-03-30T13:11:55Z</time>
      </trkpt>
      <trkpt lat="49.92768" lon="2.47603">
        <ele>50.7</ele>
        <time>2022-03-30T13:11:56Z</time>
      </trkpt>
      <trkpt lat="49.92768" lon="2.47602">
        <ele>50.7</ele>
        <time>2022-03-30T13:11:57Z</time>
      </trkpt>
      <trkpt lat="49.92769" lon="2.47601">
        <ele>50.7</ele>
        <time>2022-03-30T13:11:58Z</time>
      </trkpt>
      <trkpt lat="49.9277" lon="2.476">
        <ele>50.8</ele>
        <time>2022-03-30T13:11:59Z</time>
      </trkpt>
      <trkpt lat="49.9277" lon="2.47599">
        <ele>50.8</ele>
        <time>2022-03-30T13:12:00Z</time>
      </trkpt>
      <trkpt lat="49.92771" lon="2.47597">
        <ele>50.8</ele>
        <time>2022-03-30T13:12:01Z</time>
      </trkpt>
      <trkpt lat="49.92772" lon="2.47596">
        <ele>50.9</ele>
        <time>2022-03-30T13:12:02Z</time>
      </trkpt>
      <trkpt lat="49.92772" lon="2.47595">
        <ele>50.9</ele>
        <time>2022-03-30T13:12:03Z</time>
      </trkpt>
      <trkpt lat="49.92773" lon="2.47593">
        <ele>50.9</ele>
        <time>2022-03-30T13:12:04Z</time>
      </trkpt>
      <trkpt lat="49.92773" lon="2.47592">
        <ele>50.9</ele>
        <time>2022-03-30T13:12:05Z</time>
      </trkpt>
      <trkpt lat="49.92774" lon="2.47591">
        <ele>50.9</ele>
        <time>2022-03-30T13:12:06Z</time>
      </trkpt>
      <trkpt lat="49.92774" lon="2.47589">
        <ele>51</ele>
        <time>2022-03-30T13:12:07Z</time>
      </trkpt>
      <trkpt lat="49.92775" lon="2.47588">
        <ele>51</ele>
        <time>2022-03-30T13:12:08Z</time>
      </trkpt>
      <trkpt lat="49.92776" lon="2.47586">
        <ele>51</ele>
        <time>2022-03-30T13:12:09Z</time>
      </trkpt>
      <trkpt lat="49.92776" lon="2.47584">
        <ele>51.1</ele>
        <time>2022-03-30T13:12:10Z</time>
      </trkpt>
      <trkpt lat="49.92777" lon="2.47583">
        <ele>51.1</ele>
        <time>2022-03-30T13:12:11Z</time>
      </trkpt>
      <trkpt lat="49.92778" lon="2.47581">
        <ele>51.1</ele>
        <time>2022-03-30T13:12:12Z</time>
      </trkpt>
      <trkpt lat="49.92778" lon="2.4758">
        <ele>51.1</ele>
        <time>2022-03-30T13:12:13Z</time>
      </trkpt>
      <trkpt lat="49.92779" lon="2.47579">
        <ele>51.1</ele>
        <time>2022-03-30T13:12:14Z</time>
      </trkpt>
      <trkpt lat="49.9278" lon="2.47578">
        <ele>51.2</ele>
        <time>2022-03-30T13:12:15Z</time>
      </trkpt>
      <trkpt lat="49.9278" lon="2.47576">
        <ele>51.2</ele>
        <time>2022-03-30T13:12:16Z</time>
      </trkpt>
      <trkpt lat="49.92781" lon="2.47574">
        <ele>51.2</ele>
        <time>2022-03-30T13:12:17Z</time>
      </trkpt>
      <trkpt lat="49.92782" lon="2.47573">
        <ele>51.2</ele>
        <time>2022-03-30T13:12:18Z</time>
      </trkpt>
      <trkpt lat="49.92783" lon="2.47571">
        <ele>51.3</ele>
        <time>2022-03-30T13:12:19Z</time>
      </trkpt>
      <trkpt lat="49.92783" lon="2.4757">
        <ele>51.3</ele>
        <time>2022-03-30T13:12:20Z</time>
      </trkpt>
      <trkpt lat="49.92784" lon="2.47568">
        <ele>51.3</ele>
        <time>2022-03-30T13:12:21Z</time>
      </trkpt>
      <trkpt lat="49.92785" lon="2.47566">
        <ele>51.4</ele>
        <time>2022-03-30T13:12:22Z</time>
      </trkpt>
      <trkpt lat="49.92785" lon="2.47565">
        <ele>51.4</ele>
        <time>2022-03-30T13:12:23Z</time>
      </trkpt>
      <trkpt lat="49.92786" lon="2.47563">
        <ele>51.4</ele>
        <time>2022-03-30T13:12:24Z</time>
      </trkpt>
      <trkpt lat="49.92786" lon="2.47562">
        <ele>51.4</ele>
        <time>2022-03-30T13:12:25Z</time>
      </trkpt>
      <trkpt lat="49.92787" lon="2.47561">
        <ele>51.5</ele>
        <time>2022-03-30T13:12:26Z</time>
      </trkpt>
      <trkpt lat="49.92787" lon="2.47559">
        <ele>51.5</ele>
        <time>2022-03-30T13:12:27Z</time>
      </trkpt>
      <trkpt lat="49.92788" lon="2.47558">
        <ele>51.5</ele>
        <time>2022-03-30T13:12:28Z</time>
      </trkpt>
      <trkpt lat="49.92788" lon="2.47556">
        <ele>51.6</ele>
        <time>2022-03-30T13:12:29Z</time>
      </trkpt>
      <trkpt lat="49.92789" lon="2.47555">
        <ele>51.6</ele>
        <time>2022-03-30T13:12:30Z</time>
      </trkpt>
      <trkpt lat="49.9279" lon="2.47554">
        <ele>51.6</ele>
        <time>2022-03-30T13:12:31Z</time>
      </trkpt>
      <trkpt lat="49.9279" lon="2.47552">
        <ele>51.7</ele>
        <time>2022-03-30T13:12:32Z</time>
      </trkpt>
      <trkpt lat="49.92791" lon="2.47551">
        <ele>51.7</ele>
        <time>2022-03-30T13:12:33Z</time>
      </trkpt>
      <trkpt lat="49.92792" lon="2.47549">
        <ele>51.8</ele>
        <time>2022-03-30T13:12:34Z</time>
      </trkpt>
      <trkpt lat="49.92792" lon="2.47548">
        <ele>51.8</ele>
        <time>2022-03-30T13:12:35Z</time>
      </trkpt>
      <trkpt lat="49.92793" lon="2.47547">
        <ele>51.8</ele>
        <time>2022-03-30T13:12:36Z</time>
      </trkpt>
      <trkpt lat="49.92793" lon="2.47546">
        <ele>51.9</ele>
        <time>2022-03-30T13:12:37Z</time>
      </trkpt>
      <trkpt lat="49.92794" lon="2.47544">
        <ele>51.9</ele>
        <time>2022-03-30T13:12:38Z</time>
      </trkpt>
      <trkpt lat="49.92795" lon="2.47543">
        <ele>51.9</ele>
        <time>2022-03-30T13:12:39Z</time>
      </trkpt>
      <trkpt lat="49.92795" lon="2.47542">
        <ele>52</ele>
        <time>2022-03-30T13:12:40Z</time>
      </trkpt>
      <trkpt lat="49.92796" lon="2.4754">
        <ele>52</ele>
        <time>2022-03-30T13:12:41Z</time>
      </trkpt>
      <trkpt lat="49.92796" lon="2.47538">
        <ele>52.1</ele>
        <time>2022-03-30T13:12:42Z</time>
      </trkpt>
      <trkpt lat="49.92797" lon="2.47537">
        <ele>52.1</ele>
        <time>2022-03-30T13:12:43Z</time>
      </trkpt>
      <trkpt lat="49.92797" lon="2.47535">
        <ele>52.1</ele>
        <time>2022-03-30T13:12:44Z</time>
      </trkpt>
      <trkpt lat="49.92798" lon="2.47534">
        <ele>52.2</ele>
        <time>2022-03-30T13:12:45Z</time>
      </trkpt>
      <trkpt lat="49.92798" lon="2.47533">
        <ele>52.2</ele>
        <time>2022-03-30T13:12:46Z</time>
      </trkpt>
      <trkpt lat="49.92799" lon="2.47532">
        <ele>52.2</ele>
        <time>2022-03-30T13:12:47Z</time>
      </trkpt>
      <trkpt lat="49.928" lon="2.47531">
        <ele>52.3</ele>
        <time>2022-03-30T13:12:48Z</time>
      </trkpt>
      <trkpt lat="49.92801" lon="2.47528">
        <ele>52.3</ele>
        <time>2022-03-30T13:12:49Z</time>
      </trkpt>
      <trkpt lat="49.92801" lon="2.47527">
        <ele>52.4</ele>
        <time>2022-03-30T13:12:50Z</time>
      </trkpt>
      <trkpt lat="49.92802" lon="2.47526">
        <ele>52.4</ele>
        <time>2022-03-30T13:12:51Z</time>
      </trkpt>
      <trkpt lat="49.92803" lon="2.47523">
        <ele>52.5</ele>
        <time>2022-03-30T13:12:52Z</time>
      </trkpt>
      <trkpt lat="49.92803" lon="2.47522">
        <ele>52.5</ele>
        <time>2022-03-30T13:12:53Z</time>
      </trkpt>
      <trkpt lat="49.92804" lon="2.47521">
        <ele>52.5</ele>
        <time>2022-03-30T13:12:54Z</time>
      </trkpt>
      <trkpt lat="49.92804" lon="2.4752">
        <ele>52.6</ele>
        <time>2022-03-30T13:12:55Z</time>
      </trkpt>
      <trkpt lat="49.92805" lon="2.47519">
        <ele>52.6</ele>
        <time>2022-03-30T13:12:56Z</time>
      </trkpt>
      <trkpt lat="49.92805" lon="2.47518">
        <ele>52.7</ele>
        <time>2022-03-30T13:12:57Z</time>
      </trkpt>
      <trkpt lat="49.92806" lon="2.47516">
        <ele>52.7</ele>
        <time>2022-03-30T13:12:58Z</time>
      </trkpt>
      <trkpt lat="49.92807" lon="2.47515">
        <ele>52.8</ele>
        <time>2022-03-30T13:12:59Z</time>
      </trkpt>
      <trkpt lat="49.92807" lon="2.47514">
        <ele>52.9</ele>
        <time>2022-03-30T13:13:00Z</time>
      </trkpt>
      <trkpt lat="49.92808" lon="2.47512">
        <ele>52.9</ele>
        <time>2022-03-30T13:13:01Z</time>
      </trkpt>
      <trkpt lat="49.92809" lon="2.47511">
        <ele>53</ele>
        <time>2022-03-30T13:13:02Z</time>
      </trkpt>
      <trkpt lat="49.92809" lon="2.47509">
        <ele>53.1</ele>
        <time>2022-03-30T13:13:03Z</time>
      </trkpt>
      <trkpt lat="49.9281" lon="2.47508">
        <ele>53.1</ele>
        <time>2022-03-30T13:13:04Z</time>
      </trkpt>
      <trkpt lat="49.92811" lon="2.47507">
        <ele>53.2</ele>
        <time>2022-03-30T13:13:05Z</time>
      </trkpt>
      <trkpt lat="49.92811" lon="2.47506">
        <ele>53.3</ele>
        <time>2022-03-30T13:13:06Z</time>
      </trkpt>
      <trkpt lat="49.92812" lon="2.47505">
        <ele>53.3</ele>
        <time>2022-03-30T13:13:07Z</time>
      </trkpt>
      <trkpt lat="49.92813" lon="2.47504">
        <ele>53.4</ele>
        <time>2022-03-30T13:13:08Z</time>
      </trkpt>
      <trkpt lat="49.92813" lon="2.47502">
        <ele>53.5</ele>
        <time>2022-03-30T13:13:09Z</time>
      </trkpt>
      <trkpt lat="49.92814" lon="2.475">
        <ele>53.7</ele>
        <time>2022-03-30T13:13:10Z</time>
      </trkpt>
      <trkpt lat="49.92815" lon="2.47499">
        <ele>53.7</ele>
        <time>2022-03-30T13:13:11Z</time>
      </trkpt>
      <trkpt lat="49.92815" lon="2.47498">
        <ele>53.8</ele>
        <time>2022-03-30T13:13:12Z</time>
      </trkpt>
      <trkpt lat="49.92816" lon="2.47497">
        <ele>53.8</ele>
        <time>2022-03-30T13:13:13Z</time>
      </trkpt>
      <trkpt lat="49.92816" lon="2.47496">
        <ele>53.9</ele>
        <time>2022-03-30T13:13:14Z</time>
      </trkpt>
      <trkpt lat="49.92817" lon="2.47495">
        <ele>54</ele>
        <time>2022-03-30T13:13:15Z</time>
      </trkpt>
      <trkpt lat="49.92818" lon="2.47493">
        <ele>54.1</ele>
        <time>2022-03-30T13:13:16Z</time>
      </trkpt>
      <trkpt lat="49.92818" lon="2.47492">
        <ele>54.2</ele>
        <time>2022-03-30T13:13:17Z</time>
      </trkpt>
      <trkpt lat="49.92819" lon="2.47491">
        <ele>54.3</ele>
        <time>2022-03-30T13:13:18Z</time>
      </trkpt>
      <trkpt lat="49.92819" lon="2.4749">
        <ele>54.3</ele>
        <time>2022-03-30T13:13:19Z</time>
      </trkpt>
      <trkpt lat="49.9282" lon="2.47488">
        <ele>54.4</ele>
        <time>2022-03-30T13:13:20Z</time>
      </trkpt>
      <trkpt lat="49.9282" lon="2.47487">
        <ele>54.5</ele>
        <time>2022-03-30T13:13:21Z</time>
      </trkpt>
      <trkpt lat="49.92821" lon="2.47486">
        <ele>54.6</ele>
        <time>2022-03-30T13:13:22Z</time>
      </trkpt>
      <trkpt lat="49.92822" lon="2.47484">
        <ele>54.7</ele>
        <time>2022-03-30T13:13:23Z</time>
      </trkpt>
      <trkpt lat="49.92822" lon="2.47483">
        <ele>54.8</ele>
        <time>2022-03-30T13:13:24Z</time>
      </trkpt>
      <trkpt lat="49.92823" lon="2.47482">
        <ele>54.9</ele>
        <time>2022-03-30T13:13:25Z</time>
      </trkpt>
      <trkpt lat="49.92823" lon="2.47481">
        <ele>54.9</ele>
        <time>2022-03-30T13:13:26Z</time>
      </trkpt>
      <trkpt lat="49.92824" lon="2.47479">
        <ele>55</ele>
        <time>2022-03-30T13:13:27Z</time>
      </trkpt>
      <trkpt lat="49.92824" lon="2.47478">
        <ele>55.1</ele>
        <time>2022-03-30T13:13:28Z</time>
      </trkpt>
      <trkpt lat="49.92825" lon="2.47477">
        <ele>55.2</ele>
        <time>2022-03-30T13:13:29Z</time>
      </trkpt>
      <trkpt lat="49.92826" lon="2.47476">
        <ele>55.2</ele>
        <time>2022-03-30T13:13:30Z</time>
      </trkpt>
      <trkpt lat="49.92826" lon="2.47474">
        <ele>55.3</ele>
        <time>2022-03-30T13:13:31Z</time>
      </trkpt>
      <trkpt lat="49.92827" lon="2.47473">
        <ele>55.4</ele>
        <time>2022-03-30T13:13:32Z</time>
      </trkpt>
      <trkpt lat="49.92827" lon="2.47472">
        <ele>55.5</ele>
        <time>2022-03-30T13:13:33Z</time>
      </trkpt>
      <trkpt lat="49.92828" lon="2.47471">
        <ele>55.5</ele>
        <time>2022-03-30T13:13:34Z</time>
      </trkpt>
      <trkpt lat="49.92829" lon="2.4747">
        <ele>55.6</ele>
        <time>2022-03-30T13:13:35Z</time>
      </trkpt>
      <trkpt lat="49.92829" lon="2.47469">
        <ele>55.7</ele>
        <time>2022-03-30T13:13:36Z</time>
      </trkpt>
      <trkpt lat="49.9283" lon="2.47468">
        <ele>55.8</ele>
        <time>2022-03-30T13:13:37Z</time>
      </trkpt>
      <trkpt lat="49.9283" lon="2.47466">
        <ele>55.8</ele>
        <time>2022-03-30T13:13:38Z</time>
      </trkpt>
      <trkpt lat="49.92831" lon="2.47465">
        <ele>55.9</ele>
        <time>2022-03-30T13:13:39Z</time>
      </trkpt>
      <trkpt lat="49.92832" lon="2.47464">
        <ele>56</ele>
        <time>2022-03-30T13:13:40Z</time>
      </trkpt>
      <trkpt lat="49.92833" lon="2.47462">
        <ele>56.1</ele>
        <time>2022-03-30T13:13:41Z</time>
      </trkpt>
      <trkpt lat="49.92833" lon="2.47461">
        <ele>56.2</ele>
        <time>2022-03-30T13:13:42Z</time>
      </trkpt>
      <trkpt lat="49.92834" lon="2.4746">
        <ele>56.2</ele>
        <time>2022-03-30T13:13:43Z</time>
      </trkpt>
      <trkpt lat="49.92834" lon="2.4746">
        <ele>56.3</ele>
        <time>2022-03-30T13:13:44Z</time>
      </trkpt>
      <trkpt lat="49.92835" lon="2.47458">
        <ele>56.4</ele>
        <time>2022-03-30T13:13:45Z</time>
      </trkpt>
      <trkpt lat="49.92835" lon="2.47456">
        <ele>56.5</ele>
        <time>2022-03-30T13:13:46Z</time>
      </trkpt>
      <trkpt lat="49.92836" lon="2.47455">
        <ele>56.6</ele>
        <time>2022-03-30T13:13:47Z</time>
      </trkpt>
      <trkpt lat="49.92836" lon="2.47454">
        <ele>56.6</ele>
        <time>2022-03-30T13:13:48Z</time>
      </trkpt>
      <trkpt lat="49.92837" lon="2.47453">
        <ele>56.7</ele>
        <time>2022-03-30T13:13:49Z</time>
      </trkpt>
      <trkpt lat="49.92837" lon="2.47451">
        <ele>56.8</ele>
        <time>2022-03-30T13:13:50Z</time>
      </trkpt>
      <trkpt lat="49.92838" lon="2.4745">
        <ele>56.9</ele>
        <time>2022-03-30T13:13:51Z</time>
      </trkpt>
      <trkpt lat="49.92838" lon="2.47448">
        <ele>57</ele>
        <time>2022-03-30T13:13:52Z</time>
      </trkpt>
      <trkpt lat="49.92839" lon="2.47447">
        <ele>57.1</ele>
        <time>2022-03-30T13:13:53Z</time>
      </trkpt>
      <trkpt lat="49.9284" lon="2.47445">
        <ele>57.2</ele>
        <time>2022-03-30T13:13:54Z</time>
      </trkpt>
      <trkpt lat="49.9284" lon="2.47444">
        <ele>57.2</ele>
        <time>2022-03-30T13:13:55Z</time>
      </trkpt>
      <trkpt lat="49.92841" lon="2.47443">
        <ele>57.3</ele>
        <time>2022-03-30T13:13:56Z</time>
      </trkpt>
      <trkpt lat="49.92841" lon="2.47442">
        <ele>57.4</ele>
        <time>2022-03-30T13:13:57Z</time>
      </trkpt>
      <trkpt lat="49.92842" lon="2.47441">
        <ele>57.5</ele>
        <time>2022-03-30T13:13:58Z</time>
      </trkpt>
      <trkpt lat="49.92842" lon="2.47439">
        <ele>57.6</ele>
        <time>2022-03-30T13:13:59Z</time>
      </trkpt>
      <trkpt lat="49.92843" lon="2.47438">
        <ele>57.7</ele>
        <time>2022-03-30T13:14:00Z</time>
      </trkpt>
      <trkpt lat="49.92844" lon="2.47437">
        <ele>57.8</ele>
        <time>2022-03-30T13:14:01Z</time>
      </trkpt>
      <trkpt lat="49.92844" lon="2.47436">
        <ele>57.8</ele>
        <time>2022-03-30T13:14:02Z</time>
      </trkpt>
      <trkpt lat="49.92845" lon="2.47435">
        <ele>57.9</ele>
        <time>2022-03-30T13:14:03Z</time>
      </trkpt>
      <trkpt lat="49.92845" lon="2.47434">
        <ele>58</ele>
        <time>2022-03-30T13:14:04Z</time>
      </trkpt>
      <trkpt lat="49.92846" lon="2.47432">
        <ele>58.1</ele>
        <time>2022-03-30T13:14:05Z</time>
      </trkpt>
      <trkpt lat="49.92846" lon="2.47431">
        <ele>58.2</ele>
        <time>2022-03-30T13:14:06Z</time>
      </trkpt>
      <trkpt lat="49.92847" lon="2.4743">
        <ele>58.3</ele>
        <time>2022-03-30T13:14:07Z</time>
      </trkpt>
      <trkpt lat="49.92847" lon="2.47429">
        <ele>58.4</ele>
        <time>2022-03-30T13:14:08Z</time>
      </trkpt>
      <trkpt lat="49.92848" lon="2.47427">
        <ele>58.5</ele>
        <time>2022-03-30T13:14:09Z</time>
      </trkpt>
      <trkpt lat="49.92849" lon="2.47426">
        <ele>58.5</ele>
        <time>2022-03-30T13:14:10Z</time>
      </trkpt>
      <trkpt lat="49.92849" lon="2.47425">
        <ele>58.6</ele>
        <time>2022-03-30T13:14:11Z</time>
      </trkpt>
      <trkpt lat="49.9285" lon="2.47424">
        <ele>58.8</ele>
        <time>2022-03-30T13:14:12Z</time>
      </trkpt>
      <trkpt lat="49.92851" lon="2.47422">
        <ele>58.8</ele>
        <time>2022-03-30T13:14:13Z</time>
      </trkpt>
      <trkpt lat="49.92851" lon="2.47421">
        <ele>58.9</ele>
        <time>2022-03-30T13:14:14Z</time>
      </trkpt>
      <trkpt lat="49.92852" lon="2.4742">
        <ele>59</ele>
        <time>2022-03-30T13:14:15Z</time>
      </trkpt>
      <trkpt lat="49.92852" lon="2.47419">
        <ele>59.1</ele>
        <time>2022-03-30T13:14:16Z</time>
      </trkpt>
      <trkpt lat="49.92853" lon="2.47418">
        <ele>59.2</ele>
        <time>2022-03-30T13:14:17Z</time>
      </trkpt>
      <trkpt lat="49.92854" lon="2.47417">
        <ele>59.3</ele>
        <time>2022-03-30T13:14:18Z</time>
      </trkpt>
      <trkpt lat="49.92854" lon="2.47415">
        <ele>59.4</ele>
        <time>2022-03-30T13:14:19Z</time>
      </trkpt>
      <trkpt lat="49.92855" lon="2.47414">
        <ele>59.5</ele>
        <time>2022-03-30T13:14:20Z</time>
      </trkpt>
      <trkpt lat="49.92856" lon="2.47412">
        <ele>59.6</ele>
        <time>2022-03-30T13:14:21Z</time>
      </trkpt>
      <trkpt lat="49.92856" lon="2.47411">
        <ele>59.7</ele>
        <time>2022-03-30T13:14:22Z</time>
      </trkpt>
      <trkpt lat="49.92856" lon="2.4741">
        <ele>59.8</ele>
        <time>2022-03-30T13:14:23Z</time>
      </trkpt>
      <trkpt lat="49.92857" lon="2.47409">
        <ele>59.8</ele>
        <time>2022-03-30T13:14:24Z</time>
      </trkpt>
      <trkpt lat="49.92857" lon="2.47408">
        <ele>59.9</ele>
        <time>2022-03-30T13:14:25Z</time>
      </trkpt>
      <trkpt lat="49.92858" lon="2.47407">
        <ele>60</ele>
        <time>2022-03-30T13:14:26Z</time>
      </trkpt>
      <trkpt lat="49.92858" lon="2.47406">
        <ele>60.1</ele>
        <time>2022-03-30T13:14:27Z</time>
      </trkpt>
      <trkpt lat="49.92859" lon="2.47405">
        <ele>60.2</ele>
        <time>2022-03-30T13:14:28Z</time>
      </trkpt>
      <trkpt lat="49.92859" lon="2.47404">
        <ele>60.3</ele>
        <time>2022-03-30T13:14:29Z</time>
      </trkpt>
      <trkpt lat="49.9286" lon="2.47403">
        <ele>60.3</ele>
        <time>2022-03-30T13:14:30Z</time>
      </trkpt>
      <trkpt lat="49.9286" lon="2.47401">
        <ele>60.4</ele>
        <time>2022-03-30T13:14:31Z</time>
      </trkpt>
      <trkpt lat="49.92861" lon="2.474">
        <ele>60.5</ele>
        <time>2022-03-30T13:14:32Z</time>
      </trkpt>
      <trkpt lat="49.92861" lon="2.47399">
        <ele>60.6</ele>
        <time>2022-03-30T13:14:33Z</time>
      </trkpt>
      <trkpt lat="49.92862" lon="2.47398">
        <ele>60.7</ele>
        <time>2022-03-30T13:14:34Z</time>
      </trkpt>
      <trkpt lat="49.92863" lon="2.47397">
        <ele>60.8</ele>
        <time>2022-03-30T13:14:35Z</time>
      </trkpt>
      <trkpt lat="49.92863" lon="2.47395">
        <ele>60.9</ele>
        <time>2022-03-30T13:14:36Z</time>
      </trkpt>
      <trkpt lat="49.92864" lon="2.47394">
        <ele>61</ele>
        <time>2022-03-30T13:14:37Z</time>
      </trkpt>
      <trkpt lat="49.92865" lon="2.47393">
        <ele>61.1</ele>
        <time>2022-03-30T13:14:38Z</time>
      </trkpt>
      <trkpt lat="49.92865" lon="2.47392">
        <ele>61.1</ele>
        <time>2022-03-30T13:14:39Z</time>
      </trkpt>
      <trkpt lat="49.92866" lon="2.47391">
        <ele>61.2</ele>
        <time>2022-03-30T13:14:40Z</time>
      </trkpt>
      <trkpt lat="49.92866" lon="2.47389">
        <ele>61.3</ele>
        <time>2022-03-30T13:14:41Z</time>
      </trkpt>
      <trkpt lat="49.92867" lon="2.47388">
        <ele>61.4</ele>
        <time>2022-03-30T13:14:42Z</time>
      </trkpt>
      <trkpt lat="49.92868" lon="2.47386">
        <ele>61.5</ele>
        <time>2022-03-30T13:14:43Z</time>
      </trkpt>
      <trkpt lat="49.92868" lon="2.47385">
        <ele>61.6</ele>
        <time>2022-03-30T13:14:44Z</time>
      </trkpt>
      <trkpt lat="49.92869" lon="2.47384">
        <ele>61.7</ele>
        <time>2022-03-30T13:14:45Z</time>
      </trkpt>
      <trkpt lat="49.92869" lon="2.47382">
        <ele>61.8</ele>
        <time>2022-03-30T13:14:46Z</time>
      </trkpt>
      <trkpt lat="49.9287" lon="2.47381">
        <ele>61.9</ele>
        <time>2022-03-30T13:14:47Z</time>
      </trkpt>
      <trkpt lat="49.92871" lon="2.4738">
        <ele>62</ele>
        <time>2022-03-30T13:14:48Z</time>
      </trkpt>
      <trkpt lat="49.92871" lon="2.47378">
        <ele>62.1</ele>
        <time>2022-03-30T13:14:49Z</time>
      </trkpt>
      <trkpt lat="49.92872" lon="2.47377">
        <ele>62.2</ele>
        <time>2022-03-30T13:14:50Z</time>
      </trkpt>
      <trkpt lat="49.92873" lon="2.47376">
        <ele>62.3</ele>
        <time>2022-03-30T13:14:51Z</time>
      </trkpt>
      <trkpt lat="49.92873" lon="2.47375">
        <ele>62.3</ele>
        <time>2022-03-30T13:14:52Z</time>
      </trkpt>
      <trkpt lat="49.92874" lon="2.47373">
        <ele>62.4</ele>
        <time>2022-03-30T13:14:53Z</time>
      </trkpt>
      <trkpt lat="49.92874" lon="2.47372">
        <ele>62.5</ele>
        <time>2022-03-30T13:14:54Z</time>
      </trkpt>
      <trkpt lat="49.92875" lon="2.47371">
        <ele>62.6</ele>
        <time>2022-03-30T13:14:55Z</time>
      </trkpt>
      <trkpt lat="49.92876" lon="2.47369">
        <ele>62.7</ele>
        <time>2022-03-30T13:14:56Z</time>
      </trkpt>
      <trkpt lat="49.92876" lon="2.47368">
        <ele>62.8</ele>
        <time>2022-03-30T13:14:57Z</time>
      </trkpt>
      <trkpt lat="49.92877" lon="2.47367">
        <ele>62.8</ele>
        <time>2022-03-30T13:14:58Z</time>
      </trkpt>
      <trkpt lat="49.92877" lon="2.47366">
        <ele>62.9</ele>
        <time>2022-03-30T13:14:59Z</time>
      </trkpt>
      <trkpt lat="49.92878" lon="2.47365">
        <ele>63</ele>
        <time>2022-03-30T13:15:00Z</time>
      </trkpt>
      <trkpt lat="49.92878" lon="2.47364">
        <ele>63.1</ele>
        <time>2022-03-30T13:15:01Z</time>
      </trkpt>
      <trkpt lat="49.92879" lon="2.47362">
        <ele>63.2</ele>
        <time>2022-03-30T13:15:02Z</time>
      </trkpt>
      <trkpt lat="49.9288" lon="2.47361">
        <ele>63.3</ele>
        <time>2022-03-30T13:15:03Z</time>
      </trkpt>
      <trkpt lat="49.9288" lon="2.4736">
        <ele>63.3</ele>
        <time>2022-03-30T13:15:04Z</time>
      </trkpt>
      <trkpt lat="49.92881" lon="2.47359">
        <ele>63.4</ele>
        <time>2022-03-30T13:15:05Z</time>
      </trkpt>
      <trkpt lat="49.92881" lon="2.47357">
        <ele>63.5</ele>
        <time>2022-03-30T13:15:06Z</time>
      </trkpt>
      <trkpt lat="49.92882" lon="2.47356">
        <ele>63.6</ele>
        <time>2022-03-30T13:15:07Z</time>
      </trkpt>
      <trkpt lat="49.92882" lon="2.47355">
        <ele>63.7</ele>
        <time>2022-03-30T13:15:08Z</time>
      </trkpt>
      <trkpt lat="49.92883" lon="2.47353">
        <ele>63.8</ele>
        <time>2022-03-30T13:15:09Z</time>
      </trkpt>
      <trkpt lat="49.92884" lon="2.47352">
        <ele>63.9</ele>
        <time>2022-03-30T13:15:10Z</time>
      </trkpt>
      <trkpt lat="49.92884" lon="2.47351">
        <ele>64</ele>
        <time>2022-03-30T13:15:11Z</time>
      </trkpt>
      <trkpt lat="49.92885" lon="2.4735">
        <ele>64.1</ele>
        <time>2022-03-30T13:15:12Z</time>
      </trkpt>
      <trkpt lat="49.92885" lon="2.47349">
        <ele>64.1</ele>
        <time>2022-03-30T13:15:13Z</time>
      </trkpt>
      <trkpt lat="49.92886" lon="2.47347">
        <ele>64.2</ele>
        <time>2022-03-30T13:15:14Z</time>
      </trkpt>
      <trkpt lat="49.92887" lon="2.47346">
        <ele>64.3</ele>
        <time>2022-03-30T13:15:15Z</time>
      </trkpt>
      <trkpt lat="49.92887" lon="2.47345">
        <ele>64.4</ele>
        <time>2022-03-30T13:15:16Z</time>
      </trkpt>
      <trkpt lat="49.92888" lon="2.47344">
        <ele>64.5</ele>
        <time>2022-03-30T13:15:17Z</time>
      </trkpt>
      <trkpt lat="49.92888" lon="2.47343">
        <ele>64.6</ele>
        <time>2022-03-30T13:15:18Z</time>
      </trkpt>
      <trkpt lat="49.92889" lon="2.47341">
        <ele>64.7</ele>
        <time>2022-03-30T13:15:19Z</time>
      </trkpt>
      <trkpt lat="49.9289" lon="2.4734">
        <ele>64.8</ele>
        <time>2022-03-30T13:15:20Z</time>
      </trkpt>
      <trkpt lat="49.9289" lon="2.47338">
        <ele>64.9</ele>
        <time>2022-03-30T13:15:21Z</time>
      </trkpt>
      <trkpt lat="49.92891" lon="2.47337">
        <ele>65</ele>
        <time>2022-03-30T13:15:22Z</time>
      </trkpt>
      <trkpt lat="49.92892" lon="2.47336">
        <ele>65.1</ele>
        <time>2022-03-30T13:15:23Z</time>
      </trkpt>
      <trkpt lat="49.92892" lon="2.47334">
        <ele>65.2</ele>
        <time>2022-03-30T13:15:24Z</time>
      </trkpt>
      <trkpt lat="49.92893" lon="2.47333">
        <ele>65.3</ele>
        <time>2022-03-30T13:15:25Z</time>
      </trkpt>
      <trkpt lat="49.92894" lon="2.47332">
        <ele>65.4</ele>
        <time>2022-03-30T13:15:26Z</time>
      </trkpt>
      <trkpt lat="49.92894" lon="2.4733">
        <ele>65.5</ele>
        <time>2022-03-30T13:15:27Z</time>
      </trkpt>
      <trkpt lat="49.92895" lon="2.47329">
        <ele>65.6</ele>
        <time>2022-03-30T13:15:28Z</time>
      </trkpt>
      <trkpt lat="49.92896" lon="2.47328">
        <ele>65.7</ele>
        <time>2022-03-30T13:15:29Z</time>
      </trkpt>
      <trkpt lat="49.92896" lon="2.47326">
        <ele>65.8</ele>
        <time>2022-03-30T13:15:30Z</time>
      </trkpt>
      <trkpt lat="49.92897" lon="2.47325">
        <ele>65.9</ele>
        <time>2022-03-30T13:15:31Z</time>
      </trkpt>
      <trkpt lat="49.92897" lon="2.47324">
        <ele>66</ele>
        <time>2022-03-30T13:15:32Z</time>
      </trkpt>
      <trkpt lat="49.92898" lon="2.47323">
        <ele>66.1</ele>
        <time>2022-03-30T13:15:33Z</time>
      </trkpt>
      <trkpt lat="49.92899" lon="2.47321">
        <ele>66.2</ele>
        <time>2022-03-30T13:15:34Z</time>
      </trkpt>
      <trkpt lat="49.92899" lon="2.4732">
        <ele>66.2</ele>
        <time>2022-03-30T13:15:35Z</time>
      </trkpt>
      <trkpt lat="49.929" lon="2.47319">
        <ele>66.3</ele>
        <time>2022-03-30T13:15:36Z</time>
      </trkpt>
      <trkpt lat="49.929" lon="2.47318">
        <ele>66.4</ele>
        <time>2022-03-30T13:15:37Z</time>
      </trkpt>
      <trkpt lat="49.92901" lon="2.47317">
        <ele>66.5</ele>
        <time>2022-03-30T13:15:38Z</time>
      </trkpt>
      <trkpt lat="49.92901" lon="2.47316">
        <ele>66.6</ele>
        <time>2022-03-30T13:15:39Z</time>
      </trkpt>
      <trkpt lat="49.92902" lon="2.47314">
        <ele>66.7</ele>
        <time>2022-03-30T13:15:40Z</time>
      </trkpt>
      <trkpt lat="49.92903" lon="2.47313">
        <ele>66.7</ele>
        <time>2022-03-30T13:15:41Z</time>
      </trkpt>
      <trkpt lat="49.92903" lon="2.47312">
        <ele>66.8</ele>
        <time>2022-03-30T13:15:42Z</time>
      </trkpt>
      <trkpt lat="49.92904" lon="2.47311">
        <ele>66.9</ele>
        <time>2022-03-30T13:15:43Z</time>
      </trkpt>
      <trkpt lat="49.92904" lon="2.4731">
        <ele>67</ele>
        <time>2022-03-30T13:15:44Z</time>
      </trkpt>
      <trkpt lat="49.92905" lon="2.47308">
        <ele>67</ele>
        <time>2022-03-30T13:15:45Z</time>
      </trkpt>
      <trkpt lat="49.92905" lon="2.47307">
        <ele>67.1</ele>
        <time>2022-03-30T13:15:46Z</time>
      </trkpt>
      <trkpt lat="49.92906" lon="2.47306">
        <ele>67.2</ele>
        <time>2022-03-30T13:15:47Z</time>
      </trkpt>
      <trkpt lat="49.92907" lon="2.47304">
        <ele>67.3</ele>
        <time>2022-03-30T13:15:48Z</time>
      </trkpt>
      <trkpt lat="49.92907" lon="2.47303">
        <ele>67.3</ele>
        <time>2022-03-30T13:15:49Z</time>
      </trkpt>
      <trkpt lat="49.92908" lon="2.47302">
        <ele>67.4</ele>
        <time>2022-03-30T13:15:50Z</time>
      </trkpt>
      <trkpt lat="49.92908" lon="2.47301">
        <ele>67.4</ele>
        <time>2022-03-30T13:15:51Z</time>
      </trkpt>
      <trkpt lat="49.92909" lon="2.47299">
        <ele>67.5</ele>
        <time>2022-03-30T13:15:52Z</time>
      </trkpt>
      <trkpt lat="49.9291" lon="2.47298">
        <ele>67.6</ele>
        <time>2022-03-30T13:15:53Z</time>
      </trkpt>
      <trkpt lat="49.9291" lon="2.47297">
        <ele>67.7</ele>
        <time>2022-03-30T13:15:54Z</time>
      </trkpt>
      <trkpt lat="49.92911" lon="2.47296">
        <ele>67.7</ele>
        <time>2022-03-30T13:15:55Z</time>
      </trkpt>
      <trkpt lat="49.92911" lon="2.47295">
        <ele>67.8</ele>
        <time>2022-03-30T13:15:56Z</time>
      </trkpt>
      <trkpt lat="49.92912" lon="2.47293">
        <ele>67.8</ele>
        <time>2022-03-30T13:15:57Z</time>
      </trkpt>
      <trkpt lat="49.92913" lon="2.47292">
        <ele>67.9</ele>
        <time>2022-03-30T13:15:58Z</time>
      </trkpt>
      <trkpt lat="49.92913" lon="2.47291">
        <ele>67.9</ele>
        <time>2022-03-30T13:15:59Z</time>
      </trkpt>
      <trkpt lat="49.92914" lon="2.47289">
        <ele>68</ele>
        <time>2022-03-30T13:16:00Z</time>
      </trkpt>
      <trkpt lat="49.92915" lon="2.47288">
        <ele>68.1</ele>
        <time>2022-03-30T13:16:01Z</time>
      </trkpt>
      <trkpt lat="49.92915" lon="2.47287">
        <ele>68.1</ele>
        <time>2022-03-30T13:16:02Z</time>
      </trkpt>
      <trkpt lat="49.92916" lon="2.47286">
        <ele>68.2</ele>
        <time>2022-03-30T13:16:03Z</time>
      </trkpt>
      <trkpt lat="49.92916" lon="2.47285">
        <ele>68.2</ele>
        <time>2022-03-30T13:16:04Z</time>
      </trkpt>
      <trkpt lat="49.92917" lon="2.47284">
        <ele>68.3</ele>
        <time>2022-03-30T13:16:05Z</time>
      </trkpt>
      <trkpt lat="49.92917" lon="2.47283">
        <ele>68.3</ele>
        <time>2022-03-30T13:16:06Z</time>
      </trkpt>
      <trkpt lat="49.92918" lon="2.47281">
        <ele>68.4</ele>
        <time>2022-03-30T13:16:07Z</time>
      </trkpt>
      <trkpt lat="49.92918" lon="2.4728">
        <ele>68.4</ele>
        <time>2022-03-30T13:16:08Z</time>
      </trkpt>
      <trkpt lat="49.92919" lon="2.47279">
        <ele>68.5</ele>
        <time>2022-03-30T13:16:09Z</time>
      </trkpt>
      <trkpt lat="49.9292" lon="2.47278">
        <ele>68.5</ele>
        <time>2022-03-30T13:16:10Z</time>
      </trkpt>
      <trkpt lat="49.9292" lon="2.47277">
        <ele>68.6</ele>
        <time>2022-03-30T13:16:11Z</time>
      </trkpt>
      <trkpt lat="49.92921" lon="2.47276">
        <ele>68.6</ele>
        <time>2022-03-30T13:16:12Z</time>
      </trkpt>
      <trkpt lat="49.92921" lon="2.47275">
        <ele>68.7</ele>
        <time>2022-03-30T13:16:13Z</time>
      </trkpt>
      <trkpt lat="49.92922" lon="2.47273">
        <ele>68.7</ele>
        <time>2022-03-30T13:16:14Z</time>
      </trkpt>
      <trkpt lat="49.92922" lon="2.47272">
        <ele>68.8</ele>
        <time>2022-03-30T13:16:15Z</time>
      </trkpt>
      <trkpt lat="49.92923" lon="2.47271">
        <ele>68.8</ele>
        <time>2022-03-30T13:16:16Z</time>
      </trkpt>
      <trkpt lat="49.92924" lon="2.4727">
        <ele>68.9</ele>
        <time>2022-03-30T13:16:17Z</time>
      </trkpt>
      <trkpt lat="49.92924" lon="2.47269">
        <ele>68.9</ele>
        <time>2022-03-30T13:16:18Z</time>
      </trkpt>
      <trkpt lat="49.92924" lon="2.47268">
        <ele>69</ele>
        <time>2022-03-30T13:16:19Z</time>
      </trkpt>
      <trkpt lat="49.92925" lon="2.47266">
        <ele>69.1</ele>
        <time>2022-03-30T13:16:20Z</time>
      </trkpt>
      <trkpt lat="49.92926" lon="2.47265">
        <ele>69.1</ele>
        <time>2022-03-30T13:16:21Z</time>
      </trkpt>
      <trkpt lat="49.92926" lon="2.47263">
        <ele>69.2</ele>
        <time>2022-03-30T13:16:22Z</time>
      </trkpt>
      <trkpt lat="49.92927" lon="2.47262">
        <ele>69.3</ele>
        <time>2022-03-30T13:16:23Z</time>
      </trkpt>
      <trkpt lat="49.92927" lon="2.47261">
        <ele>69.3</ele>
        <time>2022-03-30T13:16:24Z</time>
      </trkpt>
      <trkpt lat="49.92928" lon="2.4726">
        <ele>69.4</ele>
        <time>2022-03-30T13:16:25Z</time>
      </trkpt>
      <trkpt lat="49.92928" lon="2.47259">
        <ele>69.4</ele>
        <time>2022-03-30T13:16:26Z</time>
      </trkpt>
      <trkpt lat="49.92929" lon="2.47257">
        <ele>69.5</ele>
        <time>2022-03-30T13:16:27Z</time>
      </trkpt>
      <trkpt lat="49.92929" lon="2.47256">
        <ele>69.6</ele>
        <time>2022-03-30T13:16:28Z</time>
      </trkpt>
      <trkpt lat="49.9293" lon="2.47255">
        <ele>69.6</ele>
        <time>2022-03-30T13:16:29Z</time>
      </trkpt>
      <trkpt lat="49.9293" lon="2.47253">
        <ele>69.7</ele>
        <time>2022-03-30T13:16:30Z</time>
      </trkpt>
      <trkpt lat="49.92931" lon="2.47252">
        <ele>69.7</ele>
        <time>2022-03-30T13:16:31Z</time>
      </trkpt>
      <trkpt lat="49.92932" lon="2.47251">
        <ele>69.8</ele>
        <time>2022-03-30T13:16:32Z</time>
      </trkpt>
      <trkpt lat="49.92932" lon="2.47249">
        <ele>69.9</ele>
        <time>2022-03-30T13:16:33Z</time>
      </trkpt>
      <trkpt lat="49.92933" lon="2.47248">
        <ele>69.9</ele>
        <time>2022-03-30T13:16:34Z</time>
      </trkpt>
      <trkpt lat="49.92933" lon="2.47247">
        <ele>70</ele>
        <time>2022-03-30T13:16:35Z</time>
      </trkpt>
      <trkpt lat="49.92934" lon="2.47246">
        <ele>70</ele>
        <time>2022-03-30T13:16:36Z</time>
      </trkpt>
      <trkpt lat="49.92934" lon="2.47245">
        <ele>70.1</ele>
        <time>2022-03-30T13:16:37Z</time>
      </trkpt>
      <trkpt lat="49.92935" lon="2.47244">
        <ele>70.1</ele>
        <time>2022-03-30T13:16:38Z</time>
      </trkpt>
      <trkpt lat="49.92936" lon="2.47242">
        <ele>70.2</ele>
        <time>2022-03-30T13:16:39Z</time>
      </trkpt>
      <trkpt lat="49.92936" lon="2.47241">
        <ele>70.3</ele>
        <time>2022-03-30T13:16:40Z</time>
      </trkpt>
      <trkpt lat="49.92937" lon="2.47239">
        <ele>70.3</ele>
        <time>2022-03-30T13:16:41Z</time>
      </trkpt>
      <trkpt lat="49.92937" lon="2.47238">
        <ele>70.4</ele>
        <time>2022-03-30T13:16:42Z</time>
      </trkpt>
      <trkpt lat="49.92938" lon="2.47237">
        <ele>70.4</ele>
        <time>2022-03-30T13:16:43Z</time>
      </trkpt>
      <trkpt lat="49.92938" lon="2.47236">
        <ele>70.5</ele>
        <time>2022-03-30T13:16:44Z</time>
      </trkpt>
      <trkpt lat="49.92939" lon="2.47235">
        <ele>70.5</ele>
        <time>2022-03-30T13:16:45Z</time>
      </trkpt>
      <trkpt lat="49.9294" lon="2.47233">
        <ele>70.6</ele>
        <time>2022-03-30T13:16:46Z</time>
      </trkpt>
      <trkpt lat="49.92941" lon="2.47232">
        <ele>70.6</ele>
        <time>2022-03-30T13:16:47Z</time>
      </trkpt>
      <trkpt lat="49.92941" lon="2.47231">
        <ele>70.7</ele>
        <time>2022-03-30T13:16:48Z</time>
      </trkpt>
      <trkpt lat="49.92942" lon="2.4723">
        <ele>70.7</ele>
        <time>2022-03-30T13:16:49Z</time>
      </trkpt>
      <trkpt lat="49.92942" lon="2.47228">
        <ele>70.8</ele>
        <time>2022-03-30T13:16:50Z</time>
      </trkpt>
      <trkpt lat="49.92943" lon="2.47227">
        <ele>70.8</ele>
        <time>2022-03-30T13:16:51Z</time>
      </trkpt>
      <trkpt lat="49.92943" lon="2.47226">
        <ele>70.8</ele>
        <time>2022-03-30T13:16:52Z</time>
      </trkpt>
      <trkpt lat="49.92944" lon="2.47224">
        <ele>70.9</ele>
        <time>2022-03-30T13:16:53Z</time>
      </trkpt>
      <trkpt lat="49.92944" lon="2.47223">
        <ele>70.9</ele>
        <time>2022-03-30T13:16:54Z</time>
      </trkpt>
      <trkpt lat="49.92945" lon="2.47221">
        <ele>71</ele>
        <time>2022-03-30T13:16:55Z</time>
      </trkpt>
      <trkpt lat="49.92945" lon="2.4722">
        <ele>71</ele>
        <time>2022-03-30T13:16:56Z</time>
      </trkpt>
      <trkpt lat="49.92946" lon="2.47219">
        <ele>71.1</ele>
        <time>2022-03-30T13:16:57Z</time>
      </trkpt>
      <trkpt lat="49.92946" lon="2.47217">
        <ele>71.1</ele>
        <time>2022-03-30T13:16:58Z</time>
      </trkpt>
      <trkpt lat="49.92946" lon="2.47216">
        <ele>71.2</ele>
        <time>2022-03-30T13:16:59Z</time>
      </trkpt>
      <trkpt lat="49.92947" lon="2.47214">
        <ele>71.2</ele>
        <time>2022-03-30T13:17:00Z</time>
      </trkpt>
      <trkpt lat="49.92947" lon="2.47213">
        <ele>71.3</ele>
        <time>2022-03-30T13:17:01Z</time>
      </trkpt>
      <trkpt lat="49.92948" lon="2.47211">
        <ele>71.3</ele>
        <time>2022-03-30T13:17:02Z</time>
      </trkpt>
      <trkpt lat="49.92948" lon="2.4721">
        <ele>71.4</ele>
        <time>2022-03-30T13:17:03Z</time>
      </trkpt>
      <trkpt lat="49.92948" lon="2.47209">
        <ele>71.4</ele>
        <time>2022-03-30T13:17:04Z</time>
      </trkpt>
      <trkpt lat="49.92948" lon="2.47207">
        <ele>71.4</ele>
        <time>2022-03-30T13:17:05Z</time>
      </trkpt>
      <trkpt lat="49.92949" lon="2.47206">
        <ele>71.5</ele>
        <time>2022-03-30T13:17:06Z</time>
      </trkpt>
      <trkpt lat="49.92949" lon="2.47204">
        <ele>71.5</ele>
        <time>2022-03-30T13:17:07Z</time>
      </trkpt>
      <trkpt lat="49.92949" lon="2.47203">
        <ele>71.6</ele>
        <time>2022-03-30T13:17:08Z</time>
      </trkpt>
      <trkpt lat="49.92949" lon="2.47202">
        <ele>71.6</ele>
        <time>2022-03-30T13:17:09Z</time>
      </trkpt>
      <trkpt lat="49.92949" lon="2.472">
        <ele>71.7</ele>
        <time>2022-03-30T13:17:10Z</time>
      </trkpt>
      <trkpt lat="49.92949" lon="2.47199">
        <ele>71.7</ele>
        <time>2022-03-30T13:17:11Z</time>
      </trkpt>
      <trkpt lat="49.92949" lon="2.47197">
        <ele>71.8</ele>
        <time>2022-03-30T13:17:12Z</time>
      </trkpt>
      <trkpt lat="49.92949" lon="2.47195">
        <ele>71.8</ele>
        <time>2022-03-30T13:17:13Z</time>
      </trkpt>
      <trkpt lat="49.92949" lon="2.47194">
        <ele>71.9</ele>
        <time>2022-03-30T13:17:14Z</time>
      </trkpt>
      <trkpt lat="49.92949" lon="2.4719">
        <ele>72</ele>
        <time>2022-03-30T13:17:15Z</time>
      </trkpt>
      <trkpt lat="49.92949" lon="2.47189">
        <ele>72.1</ele>
        <time>2022-03-30T13:17:16Z</time>
      </trkpt>
      <trkpt lat="49.92949" lon="2.47188">
        <ele>72.1</ele>
        <time>2022-03-30T13:17:17Z</time>
      </trkpt>
      <trkpt lat="49.92949" lon="2.47187">
        <ele>72.2</ele>
        <time>2022-03-30T13:17:18Z</time>
      </trkpt>
      <trkpt lat="49.92949" lon="2.47185">
        <ele>72.2</ele>
        <time>2022-03-30T13:17:19Z</time>
      </trkpt>
      <trkpt lat="49.92949" lon="2.47183">
        <ele>72.3</ele>
        <time>2022-03-30T13:17:20Z</time>
      </trkpt>
      <trkpt lat="49.92949" lon="2.47182">
        <ele>72.4</ele>
        <time>2022-03-30T13:17:21Z</time>
      </trkpt>
      <trkpt lat="49.92949" lon="2.4718">
        <ele>72.4</ele>
        <time>2022-03-30T13:17:22Z</time>
      </trkpt>
      <trkpt lat="49.92949" lon="2.47178">
        <ele>72.5</ele>
        <time>2022-03-30T13:17:23Z</time>
      </trkpt>
      <trkpt lat="49.92949" lon="2.47177">
        <ele>72.6</ele>
        <time>2022-03-30T13:17:24Z</time>
      </trkpt>
      <trkpt lat="49.92949" lon="2.47175">
        <ele>72.6</ele>
        <time>2022-03-30T13:17:25Z</time>
      </trkpt>
      <trkpt lat="49.92949" lon="2.47174">
        <ele>72.7</ele>
        <time>2022-03-30T13:17:26Z</time>
      </trkpt>
      <trkpt lat="49.92949" lon="2.47172">
        <ele>72.8</ele>
        <time>2022-03-30T13:17:27Z</time>
      </trkpt>
      <trkpt lat="49.92949" lon="2.47171">
        <ele>72.8</ele>
        <time>2022-03-30T13:17:28Z</time>
      </trkpt>
      <trkpt lat="49.92949" lon="2.47169">
        <ele>72.9</ele>
        <time>2022-03-30T13:17:29Z</time>
      </trkpt>
      <trkpt lat="49.92949" lon="2.47168">
        <ele>73</ele>
        <time>2022-03-30T13:17:30Z</time>
      </trkpt>
      <trkpt lat="49.92949" lon="2.47166">
        <ele>73.1</ele>
        <time>2022-03-30T13:17:31Z</time>
      </trkpt>
      <trkpt lat="49.92949" lon="2.47165">
        <ele>73.1</ele>
        <time>2022-03-30T13:17:32Z</time>
      </trkpt>
      <trkpt lat="49.92949" lon="2.47163">
        <ele>73.2</ele>
        <time>2022-03-30T13:17:33Z</time>
      </trkpt>
      <trkpt lat="49.92949" lon="2.47162">
        <ele>73.2</ele>
        <time>2022-03-30T13:17:34Z</time>
      </trkpt>
      <trkpt lat="49.92949" lon="2.47161">
        <ele>73.3</ele>
        <time>2022-03-30T13:17:35Z</time>
      </trkpt>
      <trkpt lat="49.92948" lon="2.47159">
        <ele>73.4</ele>
        <time>2022-03-30T13:17:36Z</time>
      </trkpt>
      <trkpt lat="49.92948" lon="2.47157">
        <ele>73.5</ele>
        <time>2022-03-30T13:17:37Z</time>
      </trkpt>
      <trkpt lat="49.92948" lon="2.47156">
        <ele>73.5</ele>
        <time>2022-03-30T13:17:38Z</time>
      </trkpt>
      <trkpt lat="49.92948" lon="2.47155">
        <ele>73.6</ele>
        <time>2022-03-30T13:17:39Z</time>
      </trkpt>
      <trkpt lat="49.92948" lon="2.47153">
        <ele>73.7</ele>
        <time>2022-03-30T13:17:40Z</time>
      </trkpt>
      <trkpt lat="49.92948" lon="2.47152">
        <ele>73.7</ele>
        <time>2022-03-30T13:17:41Z</time>
      </trkpt>
      <trkpt lat="49.92948" lon="2.4715">
        <ele>73.8</ele>
        <time>2022-03-30T13:17:42Z</time>
      </trkpt>
      <trkpt lat="49.92947" lon="2.47149">
        <ele>73.9</ele>
        <time>2022-03-30T13:17:43Z</time>
      </trkpt>
      <trkpt lat="49.92947" lon="2.47147">
        <ele>74</ele>
        <time>2022-03-30T13:17:44Z</time>
      </trkpt>
      <trkpt lat="49.92947" lon="2.47146">
        <ele>74</ele>
        <time>2022-03-30T13:17:45Z</time>
      </trkpt>
      <trkpt lat="49.92947" lon="2.47143">
        <ele>74.2</ele>
        <time>2022-03-30T13:17:46Z</time>
      </trkpt>
      <trkpt lat="49.92947" lon="2.47142">
        <ele>74.2</ele>
        <time>2022-03-30T13:17:47Z</time>
      </trkpt>
      <trkpt lat="49.92947" lon="2.47141">
        <ele>74.3</ele>
        <time>2022-03-30T13:17:48Z</time>
      </trkpt>
      <trkpt lat="49.92947" lon="2.4714">
        <ele>74.3</ele>
        <time>2022-03-30T13:17:49Z</time>
      </trkpt>
      <trkpt lat="49.92947" lon="2.47139">
        <ele>74.4</ele>
        <time>2022-03-30T13:17:50Z</time>
      </trkpt>
      <trkpt lat="49.92946" lon="2.47138">
        <ele>74.5</ele>
        <time>2022-03-30T13:17:51Z</time>
      </trkpt>
      <trkpt lat="49.92946" lon="2.47137">
        <ele>74.5</ele>
        <time>2022-03-30T13:17:52Z</time>
      </trkpt>
      <trkpt lat="49.92946" lon="2.47135">
        <ele>74.6</ele>
        <time>2022-03-30T13:17:53Z</time>
      </trkpt>
      <trkpt lat="49.92946" lon="2.47134">
        <ele>74.7</ele>
        <time>2022-03-30T13:17:54Z</time>
      </trkpt>
      <trkpt lat="49.92946" lon="2.47132">
        <ele>74.7</ele>
        <time>2022-03-30T13:17:55Z</time>
      </trkpt>
      <trkpt lat="49.92946" lon="2.4713">
        <ele>74.8</ele>
        <time>2022-03-30T13:17:56Z</time>
      </trkpt>
      <trkpt lat="49.92946" lon="2.47129">
        <ele>74.9</ele>
        <time>2022-03-30T13:17:57Z</time>
      </trkpt>
      <trkpt lat="49.92945" lon="2.47128">
        <ele>75</ele>
        <time>2022-03-30T13:17:58Z</time>
      </trkpt>
      <trkpt lat="49.92945" lon="2.47126">
        <ele>75.1</ele>
        <time>2022-03-30T13:17:59Z</time>
      </trkpt>
      <trkpt lat="49.92945" lon="2.47125">
        <ele>75.1</ele>
        <time>2022-03-30T13:18:00Z</time>
      </trkpt>
      <trkpt lat="49.92945" lon="2.47123">
        <ele>75.2</ele>
        <time>2022-03-30T13:18:01Z</time>
      </trkpt>
      <trkpt lat="49.92944" lon="2.47122">
        <ele>75.3</ele>
        <time>2022-03-30T13:18:02Z</time>
      </trkpt>
      <trkpt lat="49.92944" lon="2.47119">
        <ele>75.4</ele>
        <time>2022-03-30T13:18:03Z</time>
      </trkpt>
      <trkpt lat="49.92944" lon="2.47118">
        <ele>75.5</ele>
        <time>2022-03-30T13:18:04Z</time>
      </trkpt>
      <trkpt lat="49.92943" lon="2.47117">
        <ele>75.5</ele>
        <time>2022-03-30T13:18:05Z</time>
      </trkpt>
      <trkpt lat="49.92943" lon="2.47116">
        <ele>75.6</ele>
        <time>2022-03-30T13:18:06Z</time>
      </trkpt>
      <trkpt lat="49.92943" lon="2.47114">
        <ele>75.7</ele>
        <time>2022-03-30T13:18:07Z</time>
      </trkpt>
      <trkpt lat="49.92943" lon="2.47113">
        <ele>75.8</ele>
        <time>2022-03-30T13:18:08Z</time>
      </trkpt>
      <trkpt lat="49.92942" lon="2.47111">
        <ele>75.9</ele>
        <time>2022-03-30T13:18:09Z</time>
      </trkpt>
      <trkpt lat="49.92942" lon="2.47109">
        <ele>76</ele>
        <time>2022-03-30T13:18:10Z</time>
      </trkpt>
      <trkpt lat="49.92942" lon="2.47108">
        <ele>76</ele>
        <time>2022-03-30T13:18:11Z</time>
      </trkpt>
      <trkpt lat="49.92942" lon="2.47106">
        <ele>76.1</ele>
        <time>2022-03-30T13:18:12Z</time>
      </trkpt>
      <trkpt lat="49.92941" lon="2.47105">
        <ele>76.2</ele>
        <time>2022-03-30T13:18:13Z</time>
      </trkpt>
      <trkpt lat="49.92941" lon="2.47103">
        <ele>76.3</ele>
        <time>2022-03-30T13:18:14Z</time>
      </trkpt>
      <trkpt lat="49.92941" lon="2.47101">
        <ele>76.4</ele>
        <time>2022-03-30T13:18:15Z</time>
      </trkpt>
      <trkpt lat="49.92941" lon="2.47099">
        <ele>76.5</ele>
        <time>2022-03-30T13:18:16Z</time>
      </trkpt>
      <trkpt lat="49.9294" lon="2.47098">
        <ele>76.6</ele>
        <time>2022-03-30T13:18:17Z</time>
      </trkpt>
      <trkpt lat="49.9294" lon="2.47096">
        <ele>76.6</ele>
        <time>2022-03-30T13:18:18Z</time>
      </trkpt>
      <trkpt lat="49.9294" lon="2.47095">
        <ele>76.7</ele>
        <time>2022-03-30T13:18:19Z</time>
      </trkpt>
      <trkpt lat="49.9294" lon="2.47093">
        <ele>76.8</ele>
        <time>2022-03-30T13:18:20Z</time>
      </trkpt>
      <trkpt lat="49.9294" lon="2.47092">
        <ele>76.9</ele>
        <time>2022-03-30T13:18:21Z</time>
      </trkpt>
      <trkpt lat="49.92939" lon="2.4709">
        <ele>77</ele>
        <time>2022-03-30T13:18:22Z</time>
      </trkpt>
      <trkpt lat="49.92939" lon="2.47088">
        <ele>77</ele>
        <time>2022-03-30T13:18:23Z</time>
      </trkpt>
      <trkpt lat="49.92939" lon="2.47087">
        <ele>77.1</ele>
        <time>2022-03-30T13:18:24Z</time>
      </trkpt>
      <trkpt lat="49.92939" lon="2.47085">
        <ele>77.2</ele>
        <time>2022-03-30T13:18:25Z</time>
      </trkpt>
      <trkpt lat="49.92939" lon="2.47084">
        <ele>77.2</ele>
        <time>2022-03-30T13:18:26Z</time>
      </trkpt>
      <trkpt lat="49.92939" lon="2.47082">
        <ele>77.3</ele>
        <time>2022-03-30T13:18:27Z</time>
      </trkpt>
      <trkpt lat="49.92938" lon="2.4708">
        <ele>77.3</ele>
        <time>2022-03-30T13:18:28Z</time>
      </trkpt>
      <trkpt lat="49.92938" lon="2.47079">
        <ele>77.4</ele>
        <time>2022-03-30T13:18:29Z</time>
      </trkpt>
      <trkpt lat="49.92938" lon="2.47077">
        <ele>77.5</ele>
        <time>2022-03-30T13:18:30Z</time>
      </trkpt>
      <trkpt lat="49.92938" lon="2.47076">
        <ele>77.6</ele>
        <time>2022-03-30T13:18:31Z</time>
      </trkpt>
      <trkpt lat="49.92937" lon="2.47074">
        <ele>77.6</ele>
        <time>2022-03-30T13:18:32Z</time>
      </trkpt>
      <trkpt lat="49.92937" lon="2.47073">
        <ele>77.7</ele>
        <time>2022-03-30T13:18:33Z</time>
      </trkpt>
      <trkpt lat="49.92937" lon="2.47071">
        <ele>77.8</ele>
        <time>2022-03-30T13:18:34Z</time>
      </trkpt>
      <trkpt lat="49.92936" lon="2.4707">
        <ele>77.9</ele>
        <time>2022-03-30T13:18:35Z</time>
      </trkpt>
      <trkpt lat="49.92936" lon="2.47068">
        <ele>78</ele>
        <time>2022-03-30T13:18:36Z</time>
      </trkpt>
      <trkpt lat="49.92936" lon="2.47067">
        <ele>78</ele>
        <time>2022-03-30T13:18:37Z</time>
      </trkpt>
      <trkpt lat="49.92935" lon="2.47065">
        <ele>78.1</ele>
        <time>2022-03-30T13:18:38Z</time>
      </trkpt>
      <trkpt lat="49.92935" lon="2.47064">
        <ele>78.2</ele>
        <time>2022-03-30T13:18:39Z</time>
      </trkpt>
      <trkpt lat="49.92935" lon="2.47063">
        <ele>78.3</ele>
        <time>2022-03-30T13:18:40Z</time>
      </trkpt>
      <trkpt lat="49.92935" lon="2.47061">
        <ele>78.3</ele>
        <time>2022-03-30T13:18:41Z</time>
      </trkpt>
      <trkpt lat="49.92935" lon="2.4706">
        <ele>78.4</ele>
        <time>2022-03-30T13:18:42Z</time>
      </trkpt>
      <trkpt lat="49.92935" lon="2.47058">
        <ele>78.5</ele>
        <time>2022-03-30T13:18:43Z</time>
      </trkpt>
      <trkpt lat="49.92935" lon="2.47057">
        <ele>78.5</ele>
        <time>2022-03-30T13:18:44Z</time>
      </trkpt>
      <trkpt lat="49.92934" lon="2.47056">
        <ele>78.6</ele>
        <time>2022-03-30T13:18:45Z</time>
      </trkpt>
      <trkpt lat="49.92934" lon="2.47054">
        <ele>78.6</ele>
        <time>2022-03-30T13:18:46Z</time>
      </trkpt>
      <trkpt lat="49.92934" lon="2.47053">
        <ele>78.7</ele>
        <time>2022-03-30T13:18:47Z</time>
      </trkpt>
      <trkpt lat="49.92934" lon="2.47051">
        <ele>78.8</ele>
        <time>2022-03-30T13:18:48Z</time>
      </trkpt>
      <trkpt lat="49.92933" lon="2.4705">
        <ele>78.9</ele>
        <time>2022-03-30T13:18:49Z</time>
      </trkpt>
      <trkpt lat="49.92933" lon="2.47049">
        <ele>79</ele>
        <time>2022-03-30T13:18:50Z</time>
      </trkpt>
      <trkpt lat="49.92933" lon="2.47047">
        <ele>79.1</ele>
        <time>2022-03-30T13:18:51Z</time>
      </trkpt>
      <trkpt lat="49.92933" lon="2.47046">
        <ele>79.2</ele>
        <time>2022-03-30T13:18:52Z</time>
      </trkpt>
      <trkpt lat="49.92932" lon="2.47044">
        <ele>79.2</ele>
        <time>2022-03-30T13:18:53Z</time>
      </trkpt>
      <trkpt lat="49.92932" lon="2.47042">
        <ele>79.4</ele>
        <time>2022-03-30T13:18:54Z</time>
      </trkpt>
      <trkpt lat="49.92932" lon="2.47041">
        <ele>79.5</ele>
        <time>2022-03-30T13:18:55Z</time>
      </trkpt>
      <trkpt lat="49.92931" lon="2.4704">
        <ele>79.5</ele>
        <time>2022-03-30T13:18:56Z</time>
      </trkpt>
      <trkpt lat="49.92931" lon="2.47038">
        <ele>79.5</ele>
        <time>2022-03-30T13:18:57Z</time>
      </trkpt>
      <trkpt lat="49.92931" lon="2.47037">
        <ele>79.6</ele>
        <time>2022-03-30T13:18:58Z</time>
      </trkpt>
      <trkpt lat="49.92931" lon="2.47035">
        <ele>79.7</ele>
        <time>2022-03-30T13:18:59Z</time>
      </trkpt>
      <trkpt lat="49.9293" lon="2.47034">
        <ele>79.8</ele>
        <time>2022-03-30T13:19:00Z</time>
      </trkpt>
      <trkpt lat="49.9293" lon="2.47032">
        <ele>79.9</ele>
        <time>2022-03-30T13:19:01Z</time>
      </trkpt>
      <trkpt lat="49.9293" lon="2.4703">
        <ele>80</ele>
        <time>2022-03-30T13:19:02Z</time>
      </trkpt>
      <trkpt lat="49.9293" lon="2.47029">
        <ele>80.1</ele>
        <time>2022-03-30T13:19:03Z</time>
      </trkpt>
      <trkpt lat="49.92929" lon="2.47027">
        <ele>80.2</ele>
        <time>2022-03-30T13:19:04Z</time>
      </trkpt>
      <trkpt lat="49.92929" lon="2.47026">
        <ele>80.3</ele>
        <time>2022-03-30T13:19:05Z</time>
      </trkpt>
      <trkpt lat="49.92929" lon="2.47025">
        <ele>80.3</ele>
        <time>2022-03-30T13:19:06Z</time>
      </trkpt>
      <trkpt lat="49.92929" lon="2.47023">
        <ele>80.4</ele>
        <time>2022-03-30T13:19:07Z</time>
      </trkpt>
      <trkpt lat="49.92929" lon="2.47021">
        <ele>80.5</ele>
        <time>2022-03-30T13:19:08Z</time>
      </trkpt>
      <trkpt lat="49.92929" lon="2.4702">
        <ele>80.6</ele>
        <time>2022-03-30T13:19:09Z</time>
      </trkpt>
      <trkpt lat="49.92929" lon="2.47018">
        <ele>80.6</ele>
        <time>2022-03-30T13:19:10Z</time>
      </trkpt>
      <trkpt lat="49.92928" lon="2.47017">
        <ele>80.7</ele>
        <time>2022-03-30T13:19:11Z</time>
      </trkpt>
      <trkpt lat="49.92928" lon="2.47016">
        <ele>80.8</ele>
        <time>2022-03-30T13:19:12Z</time>
      </trkpt>
      <trkpt lat="49.92928" lon="2.47014">
        <ele>80.8</ele>
        <time>2022-03-30T13:19:13Z</time>
      </trkpt>
      <trkpt lat="49.92928" lon="2.47013">
        <ele>80.9</ele>
        <time>2022-03-30T13:19:14Z</time>
      </trkpt>
      <trkpt lat="49.92928" lon="2.47012">
        <ele>81</ele>
        <time>2022-03-30T13:19:15Z</time>
      </trkpt>
      <trkpt lat="49.92927" lon="2.4701">
        <ele>81</ele>
        <time>2022-03-30T13:19:16Z</time>
      </trkpt>
      <trkpt lat="49.92927" lon="2.47009">
        <ele>81.1</ele>
        <time>2022-03-30T13:19:17Z</time>
      </trkpt>
      <trkpt lat="49.92927" lon="2.47008">
        <ele>81.2</ele>
        <time>2022-03-30T13:19:18Z</time>
      </trkpt>
      <trkpt lat="49.92927" lon="2.47006">
        <ele>81.3</ele>
        <time>2022-03-30T13:19:19Z</time>
      </trkpt>
      <trkpt lat="49.92926" lon="2.47004">
        <ele>81.3</ele>
        <time>2022-03-30T13:19:20Z</time>
      </trkpt>
      <trkpt lat="49.92926" lon="2.47003">
        <ele>81.4</ele>
        <time>2022-03-30T13:19:21Z</time>
      </trkpt>
      <trkpt lat="49.92926" lon="2.47002">
        <ele>81.5</ele>
        <time>2022-03-30T13:19:22Z</time>
      </trkpt>
      <trkpt lat="49.92926" lon="2.47">
        <ele>81.6</ele>
        <time>2022-03-30T13:19:23Z</time>
      </trkpt>
      <trkpt lat="49.92925" lon="2.46999">
        <ele>81.6</ele>
        <time>2022-03-30T13:19:24Z</time>
      </trkpt>
      <trkpt lat="49.92925" lon="2.46997">
        <ele>81.7</ele>
        <time>2022-03-30T13:19:25Z</time>
      </trkpt>
      <trkpt lat="49.92925" lon="2.46996">
        <ele>81.7</ele>
        <time>2022-03-30T13:19:26Z</time>
      </trkpt>
      <trkpt lat="49.92925" lon="2.46994">
        <ele>81.8</ele>
        <time>2022-03-30T13:19:27Z</time>
      </trkpt>
      <trkpt lat="49.92925" lon="2.46993">
        <ele>81.9</ele>
        <time>2022-03-30T13:19:28Z</time>
      </trkpt>
      <trkpt lat="49.92925" lon="2.46991">
        <ele>81.9</ele>
        <time>2022-03-30T13:19:29Z</time>
      </trkpt>
      <trkpt lat="49.92925" lon="2.4699">
        <ele>82</ele>
        <time>2022-03-30T13:19:30Z</time>
      </trkpt>
      <trkpt lat="49.92925" lon="2.46988">
        <ele>82.1</ele>
        <time>2022-03-30T13:19:31Z</time>
      </trkpt>
      <trkpt lat="49.92924" lon="2.46986">
        <ele>82.2</ele>
        <time>2022-03-30T13:19:32Z</time>
      </trkpt>
      <trkpt lat="49.92924" lon="2.46984">
        <ele>82.3</ele>
        <time>2022-03-30T13:19:33Z</time>
      </trkpt>
      <trkpt lat="49.92924" lon="2.46983">
        <ele>82.3</ele>
        <time>2022-03-30T13:19:34Z</time>
      </trkpt>
      <trkpt lat="49.92924" lon="2.46981">
        <ele>82.4</ele>
        <time>2022-03-30T13:19:35Z</time>
      </trkpt>
      <trkpt lat="49.92924" lon="2.4698">
        <ele>82.5</ele>
        <time>2022-03-30T13:19:36Z</time>
      </trkpt>
      <trkpt lat="49.92924" lon="2.46978">
        <ele>82.6</ele>
        <time>2022-03-30T13:19:37Z</time>
      </trkpt>
      <trkpt lat="49.92924" lon="2.46977">
        <ele>82.7</ele>
        <time>2022-03-30T13:19:38Z</time>
      </trkpt>
      <trkpt lat="49.92924" lon="2.46975">
        <ele>82.8</ele>
        <time>2022-03-30T13:19:39Z</time>
      </trkpt>
      <trkpt lat="49.92923" lon="2.46973">
        <ele>82.9</ele>
        <time>2022-03-30T13:19:40Z</time>
      </trkpt>
      <trkpt lat="49.92923" lon="2.46971">
        <ele>82.9</ele>
        <time>2022-03-30T13:19:41Z</time>
      </trkpt>
      <trkpt lat="49.92923" lon="2.4697">
        <ele>83</ele>
        <time>2022-03-30T13:19:42Z</time>
      </trkpt>
      <trkpt lat="49.92923" lon="2.46968">
        <ele>83.1</ele>
        <time>2022-03-30T13:19:43Z</time>
      </trkpt>
      <trkpt lat="49.92923" lon="2.46967">
        <ele>83.2</ele>
        <time>2022-03-30T13:19:44Z</time>
      </trkpt>
      <trkpt lat="49.92923" lon="2.46965">
        <ele>83.1</ele>
        <time>2022-03-30T13:19:45Z</time>
      </trkpt>
      <trkpt lat="49.92923" lon="2.46964">
        <ele>83.2</ele>
        <time>2022-03-30T13:19:46Z</time>
      </trkpt>
      <trkpt lat="49.92923" lon="2.46962">
        <ele>83.3</ele>
        <time>2022-03-30T13:19:47Z</time>
      </trkpt>
      <trkpt lat="49.92923" lon="2.46961">
        <ele>83.3</ele>
        <time>2022-03-30T13:19:48Z</time>
      </trkpt>
      <trkpt lat="49.92923" lon="2.4696">
        <ele>83.4</ele>
        <time>2022-03-30T13:19:49Z</time>
      </trkpt>
      <trkpt lat="49.92922" lon="2.46958">
        <ele>83.5</ele>
        <time>2022-03-30T13:19:50Z</time>
      </trkpt>
      <trkpt lat="49.92922" lon="2.46957">
        <ele>83.5</ele>
        <time>2022-03-30T13:19:51Z</time>
      </trkpt>
      <trkpt lat="49.92922" lon="2.46955">
        <ele>83.6</ele>
        <time>2022-03-30T13:19:52Z</time>
      </trkpt>
      <trkpt lat="49.92922" lon="2.46954">
        <ele>83.7</ele>
        <time>2022-03-30T13:19:53Z</time>
      </trkpt>
      <trkpt lat="49.92922" lon="2.46953">
        <ele>83.7</ele>
        <time>2022-03-30T13:19:54Z</time>
      </trkpt>
      <trkpt lat="49.92922" lon="2.46951">
        <ele>83.8</ele>
        <time>2022-03-30T13:19:55Z</time>
      </trkpt>
      <trkpt lat="49.92922" lon="2.4695">
        <ele>83.8</ele>
        <time>2022-03-30T13:19:56Z</time>
      </trkpt>
      <trkpt lat="49.92922" lon="2.46949">
        <ele>83.9</ele>
        <time>2022-03-30T13:19:57Z</time>
      </trkpt>
      <trkpt lat="49.92921" lon="2.46947">
        <ele>84</ele>
        <time>2022-03-30T13:19:58Z</time>
      </trkpt>
      <trkpt lat="49.92921" lon="2.46945">
        <ele>84</ele>
        <time>2022-03-30T13:19:59Z</time>
      </trkpt>
      <trkpt lat="49.92921" lon="2.46944">
        <ele>84.1</ele>
        <time>2022-03-30T13:20:00Z</time>
      </trkpt>
      <trkpt lat="49.92921" lon="2.46942">
        <ele>84.1</ele>
        <time>2022-03-30T13:20:01Z</time>
      </trkpt>
      <trkpt lat="49.92921" lon="2.46941">
        <ele>84.2</ele>
        <time>2022-03-30T13:20:02Z</time>
      </trkpt>
      <trkpt lat="49.92921" lon="2.46939">
        <ele>84.3</ele>
        <time>2022-03-30T13:20:03Z</time>
      </trkpt>
      <trkpt lat="49.92921" lon="2.46938">
        <ele>84.3</ele>
        <time>2022-03-30T13:20:04Z</time>
      </trkpt>
      <trkpt lat="49.9292" lon="2.46936">
        <ele>84.4</ele>
        <time>2022-03-30T13:20:05Z</time>
      </trkpt>
      <trkpt lat="49.9292" lon="2.46934">
        <ele>84.5</ele>
        <time>2022-03-30T13:20:06Z</time>
      </trkpt>
      <trkpt lat="49.9292" lon="2.46933">
        <ele>84.5</ele>
        <time>2022-03-30T13:20:07Z</time>
      </trkpt>
      <trkpt lat="49.9292" lon="2.46932">
        <ele>84.6</ele>
        <time>2022-03-30T13:20:08Z</time>
      </trkpt>
      <trkpt lat="49.9292" lon="2.4693">
        <ele>84.6</ele>
        <time>2022-03-30T13:20:09Z</time>
      </trkpt>
      <trkpt lat="49.92919" lon="2.46928">
        <ele>84.7</ele>
        <time>2022-03-30T13:20:10Z</time>
      </trkpt>
      <trkpt lat="49.92919" lon="2.46927">
        <ele>84.8</ele>
        <time>2022-03-30T13:20:11Z</time>
      </trkpt>
      <trkpt lat="49.92919" lon="2.46925">
        <ele>84.8</ele>
        <time>2022-03-30T13:20:12Z</time>
      </trkpt>
      <trkpt lat="49.92919" lon="2.46923">
        <ele>84.9</ele>
        <time>2022-03-30T13:20:13Z</time>
      </trkpt>
      <trkpt lat="49.92918" lon="2.46922">
        <ele>85</ele>
        <time>2022-03-30T13:20:14Z</time>
      </trkpt>
      <trkpt lat="49.92918" lon="2.4692">
        <ele>85</ele>
        <time>2022-03-30T13:20:15Z</time>
      </trkpt>
      <trkpt lat="49.92918" lon="2.46919">
        <ele>85.1</ele>
        <time>2022-03-30T13:20:16Z</time>
      </trkpt>
      <trkpt lat="49.92918" lon="2.46917">
        <ele>85.1</ele>
        <time>2022-03-30T13:20:17Z</time>
      </trkpt>
      <trkpt lat="49.92917" lon="2.46916">
        <ele>85.2</ele>
        <time>2022-03-30T13:20:18Z</time>
      </trkpt>
      <trkpt lat="49.92917" lon="2.46915">
        <ele>85.2</ele>
        <time>2022-03-30T13:20:19Z</time>
      </trkpt>
      <trkpt lat="49.92917" lon="2.46913">
        <ele>85.3</ele>
        <time>2022-03-30T13:20:20Z</time>
      </trkpt>
      <trkpt lat="49.92917" lon="2.46911">
        <ele>85.3</ele>
        <time>2022-03-30T13:20:21Z</time>
      </trkpt>
      <trkpt lat="49.92916" lon="2.4691">
        <ele>85.4</ele>
        <time>2022-03-30T13:20:22Z</time>
      </trkpt>
      <trkpt lat="49.92916" lon="2.46909">
        <ele>85.4</ele>
        <time>2022-03-30T13:20:23Z</time>
      </trkpt>
      <trkpt lat="49.92916" lon="2.46907">
        <ele>85.5</ele>
        <time>2022-03-30T13:20:24Z</time>
      </trkpt>
      <trkpt lat="49.92915" lon="2.46905">
        <ele>85.5</ele>
        <time>2022-03-30T13:20:25Z</time>
      </trkpt>
      <trkpt lat="49.92915" lon="2.46903">
        <ele>85.6</ele>
        <time>2022-03-30T13:20:26Z</time>
      </trkpt>
      <trkpt lat="49.92915" lon="2.46902">
        <ele>85.6</ele>
        <time>2022-03-30T13:20:27Z</time>
      </trkpt>
      <trkpt lat="49.92915" lon="2.46901">
        <ele>85.7</ele>
        <time>2022-03-30T13:20:28Z</time>
      </trkpt>
      <trkpt lat="49.92915" lon="2.46899">
        <ele>85.7</ele>
        <time>2022-03-30T13:20:29Z</time>
      </trkpt>
      <trkpt lat="49.92915" lon="2.46898">
        <ele>85.8</ele>
        <time>2022-03-30T13:20:30Z</time>
      </trkpt>
      <trkpt lat="49.92915" lon="2.46897">
        <ele>85.8</ele>
        <time>2022-03-30T13:20:31Z</time>
      </trkpt>
      <trkpt lat="49.92914" lon="2.46895">
        <ele>85.9</ele>
        <time>2022-03-30T13:20:32Z</time>
      </trkpt>
      <trkpt lat="49.92914" lon="2.46893">
        <ele>85.9</ele>
        <time>2022-03-30T13:20:33Z</time>
      </trkpt>
      <trkpt lat="49.92914" lon="2.46892">
        <ele>86</ele>
        <time>2022-03-30T13:20:34Z</time>
      </trkpt>
      <trkpt lat="49.92914" lon="2.4689">
        <ele>86</ele>
        <time>2022-03-30T13:20:35Z</time>
      </trkpt>
      <trkpt lat="49.92914" lon="2.46888">
        <ele>86.1</ele>
        <time>2022-03-30T13:20:36Z</time>
      </trkpt>
      <trkpt lat="49.92914" lon="2.46887">
        <ele>86.1</ele>
        <time>2022-03-30T13:20:37Z</time>
      </trkpt>
      <trkpt lat="49.92914" lon="2.46885">
        <ele>86.2</ele>
        <time>2022-03-30T13:20:38Z</time>
      </trkpt>
      <trkpt lat="49.92914" lon="2.46884">
        <ele>86.2</ele>
        <time>2022-03-30T13:20:39Z</time>
      </trkpt>
      <trkpt lat="49.92914" lon="2.46882">
        <ele>86.3</ele>
        <time>2022-03-30T13:20:40Z</time>
      </trkpt>
      <trkpt lat="49.92913" lon="2.46881">
        <ele>86.3</ele>
        <time>2022-03-30T13:20:41Z</time>
      </trkpt>
      <trkpt lat="49.92913" lon="2.46879">
        <ele>86.3</ele>
        <time>2022-03-30T13:20:42Z</time>
      </trkpt>
      <trkpt lat="49.92913" lon="2.46877">
        <ele>86.4</ele>
        <time>2022-03-30T13:20:43Z</time>
      </trkpt>
      <trkpt lat="49.92913" lon="2.46875">
        <ele>86.5</ele>
        <time>2022-03-30T13:20:44Z</time>
      </trkpt>
      <trkpt lat="49.92912" lon="2.46873">
        <ele>86.5</ele>
        <time>2022-03-30T13:20:45Z</time>
      </trkpt>
      <trkpt lat="49.92912" lon="2.46872">
        <ele>86.6</ele>
        <time>2022-03-30T13:20:46Z</time>
      </trkpt>
      <trkpt lat="49.92912" lon="2.46871">
        <ele>86.6</ele>
        <time>2022-03-30T13:20:47Z</time>
      </trkpt>
      <trkpt lat="49.92912" lon="2.46869">
        <ele>86.6</ele>
        <time>2022-03-30T13:20:48Z</time>
      </trkpt>
      <trkpt lat="49.92912" lon="2.46867">
        <ele>86.7</ele>
        <time>2022-03-30T13:20:49Z</time>
      </trkpt>
      <trkpt lat="49.92912" lon="2.46866">
        <ele>86.7</ele>
        <time>2022-03-30T13:20:50Z</time>
      </trkpt>
      <trkpt lat="49.92911" lon="2.46864">
        <ele>86.8</ele>
        <time>2022-03-30T13:20:51Z</time>
      </trkpt>
      <trkpt lat="49.92911" lon="2.46862">
        <ele>86.8</ele>
        <time>2022-03-30T13:20:52Z</time>
      </trkpt>
      <trkpt lat="49.92911" lon="2.46861">
        <ele>86.8</ele>
        <time>2022-03-30T13:20:53Z</time>
      </trkpt>
      <trkpt lat="49.92911" lon="2.4686">
        <ele>86.9</ele>
        <time>2022-03-30T13:20:54Z</time>
      </trkpt>
      <trkpt lat="49.92911" lon="2.46858">
        <ele>86.9</ele>
        <time>2022-03-30T13:20:55Z</time>
      </trkpt>
      <trkpt lat="49.92911" lon="2.46857">
        <ele>87</ele>
        <time>2022-03-30T13:20:56Z</time>
      </trkpt>
      <trkpt lat="49.9291" lon="2.46855">
        <ele>87</ele>
        <time>2022-03-30T13:20:57Z</time>
      </trkpt>
      <trkpt lat="49.9291" lon="2.46854">
        <ele>87</ele>
        <time>2022-03-30T13:20:58Z</time>
      </trkpt>
      <trkpt lat="49.9291" lon="2.46852">
        <ele>87.1</ele>
        <time>2022-03-30T13:20:59Z</time>
      </trkpt>
      <trkpt lat="49.9291" lon="2.4685">
        <ele>87.1</ele>
        <time>2022-03-30T13:21:00Z</time>
      </trkpt>
      <trkpt lat="49.9291" lon="2.46848">
        <ele>87.2</ele>
        <time>2022-03-30T13:21:01Z</time>
      </trkpt>
      <trkpt lat="49.92909" lon="2.46847">
        <ele>87.2</ele>
        <time>2022-03-30T13:21:02Z</time>
      </trkpt>
      <trkpt lat="49.92909" lon="2.46846">
        <ele>87.2</ele>
        <time>2022-03-30T13:21:03Z</time>
      </trkpt>
      <trkpt lat="49.92909" lon="2.46844">
        <ele>87.3</ele>
        <time>2022-03-30T13:21:04Z</time>
      </trkpt>
      <trkpt lat="49.92909" lon="2.46842">
        <ele>87.3</ele>
        <time>2022-03-30T13:21:05Z</time>
      </trkpt>
      <trkpt lat="49.92908" lon="2.4684">
        <ele>87.4</ele>
        <time>2022-03-30T13:21:06Z</time>
      </trkpt>
      <trkpt lat="49.92908" lon="2.46839">
        <ele>87.4</ele>
        <time>2022-03-30T13:21:07Z</time>
      </trkpt>
      <trkpt lat="49.92908" lon="2.46837">
        <ele>87.5</ele>
        <time>2022-03-30T13:21:08Z</time>
      </trkpt>
      <trkpt lat="49.92908" lon="2.46835">
        <ele>87.5</ele>
        <time>2022-03-30T13:21:09Z</time>
      </trkpt>
      <trkpt lat="49.92908" lon="2.46834">
        <ele>87.5</ele>
        <time>2022-03-30T13:21:10Z</time>
      </trkpt>
      <trkpt lat="49.92908" lon="2.46832">
        <ele>87.6</ele>
        <time>2022-03-30T13:21:11Z</time>
      </trkpt>
      <trkpt lat="49.92907" lon="2.4683">
        <ele>87.6</ele>
        <time>2022-03-30T13:21:12Z</time>
      </trkpt>
      <trkpt lat="49.92907" lon="2.46829">
        <ele>87.6</ele>
        <time>2022-03-30T13:21:13Z</time>
      </trkpt>
      <trkpt lat="49.92907" lon="2.46827">
        <ele>87.7</ele>
        <time>2022-03-30T13:21:14Z</time>
      </trkpt>
      <trkpt lat="49.92907" lon="2.46825">
        <ele>87.7</ele>
        <time>2022-03-30T13:21:15Z</time>
      </trkpt>
      <trkpt lat="49.92907" lon="2.46823">
        <ele>87.8</ele>
        <time>2022-03-30T13:21:16Z</time>
      </trkpt>
      <trkpt lat="49.92907" lon="2.46822">
        <ele>87.8</ele>
        <time>2022-03-30T13:21:17Z</time>
      </trkpt>
      <trkpt lat="49.92907" lon="2.4682">
        <ele>87.8</ele>
        <time>2022-03-30T13:21:18Z</time>
      </trkpt>
      <trkpt lat="49.92907" lon="2.46819">
        <ele>87.9</ele>
        <time>2022-03-30T13:21:19Z</time>
      </trkpt>
      <trkpt lat="49.92906" lon="2.46817">
        <ele>87.9</ele>
        <time>2022-03-30T13:21:20Z</time>
      </trkpt>
      <trkpt lat="49.92906" lon="2.46815">
        <ele>87.9</ele>
        <time>2022-03-30T13:21:21Z</time>
      </trkpt>
      <trkpt lat="49.92906" lon="2.46814">
        <ele>88</ele>
        <time>2022-03-30T13:21:22Z</time>
      </trkpt>
      <trkpt lat="49.92906" lon="2.46812">
        <ele>88</ele>
        <time>2022-03-30T13:21:23Z</time>
      </trkpt>
      <trkpt lat="49.92905" lon="2.46811">
        <ele>88.1</ele>
        <time>2022-03-30T13:21:24Z</time>
      </trkpt>
      <trkpt lat="49.92905" lon="2.46809">
        <ele>88.1</ele>
        <time>2022-03-30T13:21:25Z</time>
      </trkpt>
      <trkpt lat="49.92904" lon="2.46807">
        <ele>88.2</ele>
        <time>2022-03-30T13:21:26Z</time>
      </trkpt>
      <trkpt lat="49.92904" lon="2.46805">
        <ele>88.2</ele>
        <time>2022-03-30T13:21:27Z</time>
      </trkpt>
      <trkpt lat="49.92904" lon="2.46804">
        <ele>88.3</ele>
        <time>2022-03-30T13:21:28Z</time>
      </trkpt>
      <trkpt lat="49.92904" lon="2.46802">
        <ele>88.3</ele>
        <time>2022-03-30T13:21:29Z</time>
      </trkpt>
      <trkpt lat="49.92904" lon="2.46801">
        <ele>88.3</ele>
        <time>2022-03-30T13:21:30Z</time>
      </trkpt>
      <trkpt lat="49.92903" lon="2.46799">
        <ele>88.4</ele>
        <time>2022-03-30T13:21:31Z</time>
      </trkpt>
      <trkpt lat="49.92903" lon="2.46797">
        <ele>88.4</ele>
        <time>2022-03-30T13:21:32Z</time>
      </trkpt>
      <trkpt lat="49.92903" lon="2.46796">
        <ele>88.5</ele>
        <time>2022-03-30T13:21:33Z</time>
      </trkpt>
      <trkpt lat="49.92903" lon="2.46794">
        <ele>88.5</ele>
        <time>2022-03-30T13:21:34Z</time>
      </trkpt>
      <trkpt lat="49.92902" lon="2.46791">
        <ele>88.6</ele>
        <time>2022-03-30T13:21:35Z</time>
      </trkpt>
      <trkpt lat="49.92902" lon="2.4679">
        <ele>88.6</ele>
        <time>2022-03-30T13:21:36Z</time>
      </trkpt>
      <trkpt lat="49.92902" lon="2.46789">
        <ele>88.7</ele>
        <time>2022-03-30T13:21:37Z</time>
      </trkpt>
      <trkpt lat="49.92902" lon="2.46788">
        <ele>88.7</ele>
        <time>2022-03-30T13:21:38Z</time>
      </trkpt>
      <trkpt lat="49.92902" lon="2.46786">
        <ele>88.7</ele>
        <time>2022-03-30T13:21:39Z</time>
      </trkpt>
      <trkpt lat="49.92902" lon="2.46785">
        <ele>88.8</ele>
        <time>2022-03-30T13:21:40Z</time>
      </trkpt>
      <trkpt lat="49.92901" lon="2.46783">
        <ele>88.8</ele>
        <time>2022-03-30T13:21:41Z</time>
      </trkpt>
      <trkpt lat="49.92901" lon="2.46781">
        <ele>88.9</ele>
        <time>2022-03-30T13:21:42Z</time>
      </trkpt>
      <trkpt lat="49.92901" lon="2.4678">
        <ele>88.9</ele>
        <time>2022-03-30T13:21:43Z</time>
      </trkpt>
      <trkpt lat="49.929" lon="2.46778">
        <ele>89</ele>
        <time>2022-03-30T13:21:44Z</time>
      </trkpt>
      <trkpt lat="49.929" lon="2.46777">
        <ele>89</ele>
        <time>2022-03-30T13:21:45Z</time>
      </trkpt>
      <trkpt lat="49.929" lon="2.46775">
        <ele>89</ele>
        <time>2022-03-30T13:21:46Z</time>
      </trkpt>
      <trkpt lat="49.929" lon="2.46774">
        <ele>89.1</ele>
        <time>2022-03-30T13:21:47Z</time>
      </trkpt>
      <trkpt lat="49.929" lon="2.46772">
        <ele>89.1</ele>
        <time>2022-03-30T13:21:48Z</time>
      </trkpt>
      <trkpt lat="49.92899" lon="2.46771">
        <ele>89.2</ele>
        <time>2022-03-30T13:21:49Z</time>
      </trkpt>
      <trkpt lat="49.92899" lon="2.46769">
        <ele>89.2</ele>
        <time>2022-03-30T13:21:50Z</time>
      </trkpt>
      <trkpt lat="49.92899" lon="2.46767">
        <ele>89.3</ele>
        <time>2022-03-30T13:21:51Z</time>
      </trkpt>
      <trkpt lat="49.92899" lon="2.46766">
        <ele>89.3</ele>
        <time>2022-03-30T13:21:52Z</time>
      </trkpt>
      <trkpt lat="49.92899" lon="2.46765">
        <ele>89.3</ele>
        <time>2022-03-30T13:21:53Z</time>
      </trkpt>
      <trkpt lat="49.92898" lon="2.46763">
        <ele>89.4</ele>
        <time>2022-03-30T13:21:54Z</time>
      </trkpt>
      <trkpt lat="49.92898" lon="2.46761">
        <ele>89.4</ele>
        <time>2022-03-30T13:21:55Z</time>
      </trkpt>
      <trkpt lat="49.92898" lon="2.46759">
        <ele>89.5</ele>
        <time>2022-03-30T13:21:56Z</time>
      </trkpt>
      <trkpt lat="49.92897" lon="2.46756">
        <ele>89.6</ele>
        <time>2022-03-30T13:21:57Z</time>
      </trkpt>
      <trkpt lat="49.92897" lon="2.46755">
        <ele>89.6</ele>
        <time>2022-03-30T13:21:58Z</time>
      </trkpt>
      <trkpt lat="49.92897" lon="2.46754">
        <ele>89.7</ele>
        <time>2022-03-30T13:21:59Z</time>
      </trkpt>
      <trkpt lat="49.92897" lon="2.46753">
        <ele>89.7</ele>
        <time>2022-03-30T13:22:00Z</time>
      </trkpt>
      <trkpt lat="49.92897" lon="2.46751">
        <ele>89.8</ele>
        <time>2022-03-30T13:22:01Z</time>
      </trkpt>
      <trkpt lat="49.92897" lon="2.46749">
        <ele>89.8</ele>
        <time>2022-03-30T13:22:02Z</time>
      </trkpt>
      <trkpt lat="49.92897" lon="2.46748">
        <ele>89.9</ele>
        <time>2022-03-30T13:22:03Z</time>
      </trkpt>
      <trkpt lat="49.92896" lon="2.46746">
        <ele>90</ele>
        <time>2022-03-30T13:22:04Z</time>
      </trkpt>
      <trkpt lat="49.92896" lon="2.46745">
        <ele>90</ele>
        <time>2022-03-30T13:22:05Z</time>
      </trkpt>
      <trkpt lat="49.92896" lon="2.46743">
        <ele>90.1</ele>
        <time>2022-03-30T13:22:06Z</time>
      </trkpt>
      <trkpt lat="49.92896" lon="2.46741">
        <ele>90.2</ele>
        <time>2022-03-30T13:22:07Z</time>
      </trkpt>
      <trkpt lat="49.92896" lon="2.46739">
        <ele>90.2</ele>
        <time>2022-03-30T13:22:08Z</time>
      </trkpt>
      <trkpt lat="49.92896" lon="2.46738">
        <ele>90.3</ele>
        <time>2022-03-30T13:22:09Z</time>
      </trkpt>
      <trkpt lat="49.92896" lon="2.46737">
        <ele>90.3</ele>
        <time>2022-03-30T13:22:10Z</time>
      </trkpt>
      <trkpt lat="49.92895" lon="2.46735">
        <ele>90.4</ele>
        <time>2022-03-30T13:22:11Z</time>
      </trkpt>
      <trkpt lat="49.92895" lon="2.46734">
        <ele>90.5</ele>
        <time>2022-03-30T13:22:12Z</time>
      </trkpt>
      <trkpt lat="49.92895" lon="2.46732">
        <ele>90.5</ele>
        <time>2022-03-30T13:22:13Z</time>
      </trkpt>
      <trkpt lat="49.92895" lon="2.46731">
        <ele>90.6</ele>
        <time>2022-03-30T13:22:14Z</time>
      </trkpt>
      <trkpt lat="49.92895" lon="2.46729">
        <ele>90.6</ele>
        <time>2022-03-30T13:22:15Z</time>
      </trkpt>
      <trkpt lat="49.92894" lon="2.46727">
        <ele>90.7</ele>
        <time>2022-03-30T13:22:16Z</time>
      </trkpt>
      <trkpt lat="49.92894" lon="2.46725">
        <ele>90.8</ele>
        <time>2022-03-30T13:22:17Z</time>
      </trkpt>
      <trkpt lat="49.92894" lon="2.46724">
        <ele>90.8</ele>
        <time>2022-03-30T13:22:18Z</time>
      </trkpt>
      <trkpt lat="49.92894" lon="2.46722">
        <ele>90.8</ele>
        <time>2022-03-30T13:22:19Z</time>
      </trkpt>
      <trkpt lat="49.92894" lon="2.46721">
        <ele>90.9</ele>
        <time>2022-03-30T13:22:20Z</time>
      </trkpt>
      <trkpt lat="49.92894" lon="2.46719">
        <ele>90.9</ele>
        <time>2022-03-30T13:22:21Z</time>
      </trkpt>
      <trkpt lat="49.92894" lon="2.46718">
        <ele>91</ele>
        <time>2022-03-30T13:22:22Z</time>
      </trkpt>
      <trkpt lat="49.92893" lon="2.46716">
        <ele>91</ele>
        <time>2022-03-30T13:22:23Z</time>
      </trkpt>
      <trkpt lat="49.92893" lon="2.46713">
        <ele>91.1</ele>
        <time>2022-03-30T13:22:24Z</time>
      </trkpt>
      <trkpt lat="49.92893" lon="2.46712">
        <ele>91.1</ele>
        <time>2022-03-30T13:22:25Z</time>
      </trkpt>
      <trkpt lat="49.92892" lon="2.4671">
        <ele>91.1</ele>
        <time>2022-03-30T13:22:26Z</time>
      </trkpt>
      <trkpt lat="49.92892" lon="2.46709">
        <ele>91.1</ele>
        <time>2022-03-30T13:22:27Z</time>
      </trkpt>
      <trkpt lat="49.92892" lon="2.46708">
        <ele>91.2</ele>
        <time>2022-03-30T13:22:28Z</time>
      </trkpt>
      <trkpt lat="49.92892" lon="2.46706">
        <ele>91.2</ele>
        <time>2022-03-30T13:22:29Z</time>
      </trkpt>
      <trkpt lat="49.92892" lon="2.46704">
        <ele>91.2</ele>
        <time>2022-03-30T13:22:30Z</time>
      </trkpt>
      <trkpt lat="49.92891" lon="2.46703">
        <ele>91.2</ele>
        <time>2022-03-30T13:22:31Z</time>
      </trkpt>
      <trkpt lat="49.92891" lon="2.46701">
        <ele>91.3</ele>
        <time>2022-03-30T13:22:32Z</time>
      </trkpt>
      <trkpt lat="49.92891" lon="2.46699">
        <ele>91.3</ele>
        <time>2022-03-30T13:22:33Z</time>
      </trkpt>
      <trkpt lat="49.92891" lon="2.46698">
        <ele>91.3</ele>
        <time>2022-03-30T13:22:34Z</time>
      </trkpt>
      <trkpt lat="49.9289" lon="2.46696">
        <ele>91.3</ele>
        <time>2022-03-30T13:22:35Z</time>
      </trkpt>
      <trkpt lat="49.9289" lon="2.46694">
        <ele>91.4</ele>
        <time>2022-03-30T13:22:36Z</time>
      </trkpt>
      <trkpt lat="49.9289" lon="2.46692">
        <ele>91.4</ele>
        <time>2022-03-30T13:22:37Z</time>
      </trkpt>
      <trkpt lat="49.9289" lon="2.46691">
        <ele>91.4</ele>
        <time>2022-03-30T13:22:38Z</time>
      </trkpt>
      <trkpt lat="49.9289" lon="2.4669">
        <ele>91.4</ele>
        <time>2022-03-30T13:22:39Z</time>
      </trkpt>
      <trkpt lat="49.9289" lon="2.46688">
        <ele>91.4</ele>
        <time>2022-03-30T13:22:40Z</time>
      </trkpt>
      <trkpt lat="49.9289" lon="2.46687">
        <ele>91.5</ele>
        <time>2022-03-30T13:22:41Z</time>
      </trkpt>
      <trkpt lat="49.92889" lon="2.46685">
        <ele>91.5</ele>
        <time>2022-03-30T13:22:42Z</time>
      </trkpt>
      <trkpt lat="49.92889" lon="2.46683">
        <ele>91.5</ele>
        <time>2022-03-30T13:22:43Z</time>
      </trkpt>
      <trkpt lat="49.92889" lon="2.46681">
        <ele>91.5</ele>
        <time>2022-03-30T13:22:44Z</time>
      </trkpt>
      <trkpt lat="49.92889" lon="2.4668">
        <ele>91.6</ele>
        <time>2022-03-30T13:22:45Z</time>
      </trkpt>
      <trkpt lat="49.92889" lon="2.46678">
        <ele>91.6</ele>
        <time>2022-03-30T13:22:46Z</time>
      </trkpt>
      <trkpt lat="49.92888" lon="2.46677">
        <ele>91.7</ele>
        <time>2022-03-30T13:22:47Z</time>
      </trkpt>
      <trkpt lat="49.92888" lon="2.46675">
        <ele>91.7</ele>
        <time>2022-03-30T13:22:48Z</time>
      </trkpt>
      <trkpt lat="49.92888" lon="2.46674">
        <ele>91.7</ele>
        <time>2022-03-30T13:22:49Z</time>
      </trkpt>
      <trkpt lat="49.92888" lon="2.46672">
        <ele>91.8</ele>
        <time>2022-03-30T13:22:50Z</time>
      </trkpt>
      <trkpt lat="49.92887" lon="2.4667">
        <ele>91.8</ele>
        <time>2022-03-30T13:22:51Z</time>
      </trkpt>
      <trkpt lat="49.92887" lon="2.46668">
        <ele>91.8</ele>
        <time>2022-03-30T13:22:52Z</time>
      </trkpt>
      <trkpt lat="49.92887" lon="2.46667">
        <ele>91.9</ele>
        <time>2022-03-30T13:22:53Z</time>
      </trkpt>
      <trkpt lat="49.92886" lon="2.46664">
        <ele>92</ele>
        <time>2022-03-30T13:22:54Z</time>
      </trkpt>
      <trkpt lat="49.92886" lon="2.46662">
        <ele>92</ele>
        <time>2022-03-30T13:22:55Z</time>
      </trkpt>
      <trkpt lat="49.92886" lon="2.46661">
        <ele>92</ele>
        <time>2022-03-30T13:22:56Z</time>
      </trkpt>
      <trkpt lat="49.92886" lon="2.46659">
        <ele>92.1</ele>
        <time>2022-03-30T13:22:57Z</time>
      </trkpt>
      <trkpt lat="49.92886" lon="2.46658">
        <ele>92.1</ele>
        <time>2022-03-30T13:22:58Z</time>
      </trkpt>
      <trkpt lat="49.92886" lon="2.46657">
        <ele>92.1</ele>
        <time>2022-03-30T13:22:59Z</time>
      </trkpt>
      <trkpt lat="49.92886" lon="2.46655">
        <ele>92.2</ele>
        <time>2022-03-30T13:23:00Z</time>
      </trkpt>
      <trkpt lat="49.92885" lon="2.46653">
        <ele>92.2</ele>
        <time>2022-03-30T13:23:01Z</time>
      </trkpt>
      <trkpt lat="49.92885" lon="2.46652">
        <ele>92.3</ele>
        <time>2022-03-30T13:23:02Z</time>
      </trkpt>
      <trkpt lat="49.92885" lon="2.4665">
        <ele>92.3</ele>
        <time>2022-03-30T13:23:03Z</time>
      </trkpt>
      <trkpt lat="49.92885" lon="2.46648">
        <ele>92.4</ele>
        <time>2022-03-30T13:23:04Z</time>
      </trkpt>
      <trkpt lat="49.92885" lon="2.46647">
        <ele>92.4</ele>
        <time>2022-03-30T13:23:05Z</time>
      </trkpt>
      <trkpt lat="49.92885" lon="2.46644">
        <ele>92.5</ele>
        <time>2022-03-30T13:23:06Z</time>
      </trkpt>
      <trkpt lat="49.92884" lon="2.46643">
        <ele>92.5</ele>
        <time>2022-03-30T13:23:07Z</time>
      </trkpt>
      <trkpt lat="49.92884" lon="2.46642">
        <ele>92.5</ele>
        <time>2022-03-30T13:23:08Z</time>
      </trkpt>
      <trkpt lat="49.92884" lon="2.46641">
        <ele>92.6</ele>
        <time>2022-03-30T13:23:09Z</time>
      </trkpt>
      <trkpt lat="49.92884" lon="2.46639">
        <ele>92.6</ele>
        <time>2022-03-30T13:23:10Z</time>
      </trkpt>
      <trkpt lat="49.92884" lon="2.46638">
        <ele>92.6</ele>
        <time>2022-03-30T13:23:11Z</time>
      </trkpt>
      <trkpt lat="49.92884" lon="2.46636">
        <ele>92.7</ele>
        <time>2022-03-30T13:23:12Z</time>
      </trkpt>
      <trkpt lat="49.92883" lon="2.46634">
        <ele>92.7</ele>
        <time>2022-03-30T13:23:13Z</time>
      </trkpt>
      <trkpt lat="49.92883" lon="2.46632">
        <ele>92.8</ele>
        <time>2022-03-30T13:23:14Z</time>
      </trkpt>
      <trkpt lat="49.92883" lon="2.4663">
        <ele>92.8</ele>
        <time>2022-03-30T13:23:15Z</time>
      </trkpt>
      <trkpt lat="49.92882" lon="2.46628">
        <ele>92.8</ele>
        <time>2022-03-30T13:23:16Z</time>
      </trkpt>
      <trkpt lat="49.92882" lon="2.46626">
        <ele>92.9</ele>
        <time>2022-03-30T13:23:17Z</time>
      </trkpt>
      <trkpt lat="49.92882" lon="2.46625">
        <ele>92.9</ele>
        <time>2022-03-30T13:23:18Z</time>
      </trkpt>
      <trkpt lat="49.92882" lon="2.46624">
        <ele>92.9</ele>
        <time>2022-03-30T13:23:19Z</time>
      </trkpt>
      <trkpt lat="49.92882" lon="2.46622">
        <ele>92.9</ele>
        <time>2022-03-30T13:23:20Z</time>
      </trkpt>
      <trkpt lat="49.92881" lon="2.4662">
        <ele>93</ele>
        <time>2022-03-30T13:23:21Z</time>
      </trkpt>
      <trkpt lat="49.92881" lon="2.46618">
        <ele>93</ele>
        <time>2022-03-30T13:23:22Z</time>
      </trkpt>
      <trkpt lat="49.92881" lon="2.46617">
        <ele>93</ele>
        <time>2022-03-30T13:23:23Z</time>
      </trkpt>
      <trkpt lat="49.9288" lon="2.46614">
        <ele>93.1</ele>
        <time>2022-03-30T13:23:24Z</time>
      </trkpt>
      <trkpt lat="49.9288" lon="2.46612">
        <ele>93.1</ele>
        <time>2022-03-30T13:23:25Z</time>
      </trkpt>
      <trkpt lat="49.9288" lon="2.46611">
        <ele>93.1</ele>
        <time>2022-03-30T13:23:26Z</time>
      </trkpt>
      <trkpt lat="49.9288" lon="2.46609">
        <ele>93.1</ele>
        <time>2022-03-30T13:23:27Z</time>
      </trkpt>
      <trkpt lat="49.9288" lon="2.46608">
        <ele>93.1</ele>
        <time>2022-03-30T13:23:28Z</time>
      </trkpt>
      <trkpt lat="49.9288" lon="2.46606">
        <ele>93.1</ele>
        <time>2022-03-30T13:23:29Z</time>
      </trkpt>
      <trkpt lat="49.92879" lon="2.46603">
        <ele>93.2</ele>
        <time>2022-03-30T13:23:30Z</time>
      </trkpt>
      <trkpt lat="49.92879" lon="2.46602">
        <ele>93.2</ele>
        <time>2022-03-30T13:23:31Z</time>
      </trkpt>
      <trkpt lat="49.92879" lon="2.46601">
        <ele>93.2</ele>
        <time>2022-03-30T13:23:32Z</time>
      </trkpt>
      <trkpt lat="49.92879" lon="2.46599">
        <ele>93.2</ele>
        <time>2022-03-30T13:23:33Z</time>
      </trkpt>
      <trkpt lat="49.92879" lon="2.46597">
        <ele>93.3</ele>
        <time>2022-03-30T13:23:34Z</time>
      </trkpt>
      <trkpt lat="49.92878" lon="2.46595">
        <ele>93.3</ele>
        <time>2022-03-30T13:23:35Z</time>
      </trkpt>
      <trkpt lat="49.92878" lon="2.46592">
        <ele>93.3</ele>
        <time>2022-03-30T13:23:36Z</time>
      </trkpt>
      <trkpt lat="49.92878" lon="2.46591">
        <ele>93.3</ele>
        <time>2022-03-30T13:23:37Z</time>
      </trkpt>
      <trkpt lat="49.92878" lon="2.46589">
        <ele>93.4</ele>
        <time>2022-03-30T13:23:38Z</time>
      </trkpt>
      <trkpt lat="49.92878" lon="2.46588">
        <ele>93.4</ele>
        <time>2022-03-30T13:23:39Z</time>
      </trkpt>
      <trkpt lat="49.92878" lon="2.46587">
        <ele>93.4</ele>
        <time>2022-03-30T13:23:40Z</time>
      </trkpt>
      <trkpt lat="49.92878" lon="2.46585">
        <ele>93.4</ele>
        <time>2022-03-30T13:23:41Z</time>
      </trkpt>
      <trkpt lat="49.92877" lon="2.46583">
        <ele>93.4</ele>
        <time>2022-03-30T13:23:42Z</time>
      </trkpt>
      <trkpt lat="49.92877" lon="2.46582">
        <ele>93.4</ele>
        <time>2022-03-30T13:23:43Z</time>
      </trkpt>
      <trkpt lat="49.92877" lon="2.4658">
        <ele>93.4</ele>
        <time>2022-03-30T13:23:44Z</time>
      </trkpt>
      <trkpt lat="49.92877" lon="2.46577">
        <ele>93.5</ele>
        <time>2022-03-30T13:23:45Z</time>
      </trkpt>
      <trkpt lat="49.92877" lon="2.46576">
        <ele>93.5</ele>
        <time>2022-03-30T13:23:46Z</time>
      </trkpt>
      <trkpt lat="49.92877" lon="2.46575">
        <ele>93.5</ele>
        <time>2022-03-30T13:23:47Z</time>
      </trkpt>
      <trkpt lat="49.92877" lon="2.46573">
        <ele>93.5</ele>
        <time>2022-03-30T13:23:48Z</time>
      </trkpt>
      <trkpt lat="49.92876" lon="2.46572">
        <ele>93.5</ele>
        <time>2022-03-30T13:23:49Z</time>
      </trkpt>
      <trkpt lat="49.92876" lon="2.4657">
        <ele>93.5</ele>
        <time>2022-03-30T13:23:50Z</time>
      </trkpt>
      <trkpt lat="49.92876" lon="2.46568">
        <ele>93.5</ele>
        <time>2022-03-30T13:23:51Z</time>
      </trkpt>
      <trkpt lat="49.92876" lon="2.46567">
        <ele>93.6</ele>
        <time>2022-03-30T13:23:52Z</time>
      </trkpt>
      <trkpt lat="49.92876" lon="2.46566">
        <ele>93.6</ele>
        <time>2022-03-30T13:23:53Z</time>
      </trkpt>
      <trkpt lat="49.92876" lon="2.46564">
        <ele>93.6</ele>
        <time>2022-03-30T13:23:54Z</time>
      </trkpt>
      <trkpt lat="49.92876" lon="2.46562">
        <ele>93.6</ele>
        <time>2022-03-30T13:23:55Z</time>
      </trkpt>
      <trkpt lat="49.92876" lon="2.4656">
        <ele>93.6</ele>
        <time>2022-03-30T13:23:56Z</time>
      </trkpt>
      <trkpt lat="49.92876" lon="2.46558">
        <ele>93.6</ele>
        <time>2022-03-30T13:23:57Z</time>
      </trkpt>
      <trkpt lat="49.92876" lon="2.46556">
        <ele>93.6</ele>
        <time>2022-03-30T13:23:58Z</time>
      </trkpt>
      <trkpt lat="49.92876" lon="2.46555">
        <ele>93.6</ele>
        <time>2022-03-30T13:23:59Z</time>
      </trkpt>
      <trkpt lat="49.92875" lon="2.46554">
        <ele>93.6</ele>
        <time>2022-03-30T13:24:00Z</time>
      </trkpt>
      <trkpt lat="49.92875" lon="2.46552">
        <ele>93.6</ele>
        <time>2022-03-30T13:24:01Z</time>
      </trkpt>
      <trkpt lat="49.92875" lon="2.46551">
        <ele>93.6</ele>
        <time>2022-03-30T13:24:02Z</time>
      </trkpt>
      <trkpt lat="49.92875" lon="2.46549">
        <ele>93.6</ele>
        <time>2022-03-30T13:24:03Z</time>
      </trkpt>
      <trkpt lat="49.92874" lon="2.46548">
        <ele>93.6</ele>
        <time>2022-03-30T13:24:04Z</time>
      </trkpt>
      <trkpt lat="49.92874" lon="2.46546">
        <ele>93.6</ele>
        <time>2022-03-30T13:24:05Z</time>
      </trkpt>
      <trkpt lat="49.92874" lon="2.46545">
        <ele>93.7</ele>
        <time>2022-03-30T13:24:06Z</time>
      </trkpt>
      <trkpt lat="49.92874" lon="2.46544">
        <ele>93.7</ele>
        <time>2022-03-30T13:24:07Z</time>
      </trkpt>
      <trkpt lat="49.92874" lon="2.46543">
        <ele>93.7</ele>
        <time>2022-03-30T13:24:08Z</time>
      </trkpt>
      <trkpt lat="49.92873" lon="2.46541">
        <ele>93.7</ele>
        <time>2022-03-30T13:24:09Z</time>
      </trkpt>
      <trkpt lat="49.92873" lon="2.46539">
        <ele>93.7</ele>
        <time>2022-03-30T13:24:10Z</time>
      </trkpt>
      <trkpt lat="49.92873" lon="2.46538">
        <ele>93.7</ele>
        <time>2022-03-30T13:24:11Z</time>
      </trkpt>
      <trkpt lat="49.92872" lon="2.46536">
        <ele>93.7</ele>
        <time>2022-03-30T13:24:12Z</time>
      </trkpt>
      <trkpt lat="49.92872" lon="2.46535">
        <ele>93.7</ele>
        <time>2022-03-30T13:24:13Z</time>
      </trkpt>
      <trkpt lat="49.92872" lon="2.46533">
        <ele>93.7</ele>
        <time>2022-03-30T13:24:14Z</time>
      </trkpt>
      <trkpt lat="49.92871" lon="2.46532">
        <ele>93.7</ele>
        <time>2022-03-30T13:24:15Z</time>
      </trkpt>
      <trkpt lat="49.92871" lon="2.46531">
        <ele>93.7</ele>
        <time>2022-03-30T13:24:16Z</time>
      </trkpt>
      <trkpt lat="49.9287" lon="2.4653">
        <ele>93.7</ele>
        <time>2022-03-30T13:24:17Z</time>
      </trkpt>
      <trkpt lat="49.9287" lon="2.4653">
        <ele>93.7</ele>
        <time>2022-03-30T13:24:18Z</time>
      </trkpt>
      <trkpt lat="49.92869" lon="2.46531">
        <ele>93.7</ele>
        <time>2022-03-30T13:24:19Z</time>
      </trkpt>
      <trkpt lat="49.92869" lon="2.46531">
        <ele>93.8</ele>
        <time>2022-03-30T13:24:20Z</time>
      </trkpt>
      <trkpt lat="49.92868" lon="2.46531">
        <ele>93.8</ele>
        <time>2022-03-30T13:24:21Z</time>
      </trkpt>
      <trkpt lat="49.92868" lon="2.46531">
        <ele>93.8</ele>
        <time>2022-03-30T13:24:22Z</time>
      </trkpt>
      <trkpt lat="49.92868" lon="2.46531">
        <ele>93.8</ele>
        <time>2022-03-30T13:24:23Z</time>
      </trkpt>
      <trkpt lat="49.92868" lon="2.4653">
        <ele>93.8</ele>
        <time>2022-03-30T13:24:24Z</time>
      </trkpt>
      <trkpt lat="49.92868" lon="2.4653">
        <ele>93.8</ele>
        <time>2022-03-30T13:24:25Z</time>
      </trkpt>
      <trkpt lat="49.92868" lon="2.4653">
        <ele>93.8</ele>
        <time>2022-03-30T13:24:26Z</time>
      </trkpt>
      <trkpt lat="49.92867" lon="2.46529">
        <ele>93.8</ele>
        <time>2022-03-30T13:24:27Z</time>
      </trkpt>
      <trkpt lat="49.92867" lon="2.46529">
        <ele>93.8</ele>
        <time>2022-03-30T13:24:28Z</time>
      </trkpt>
      <trkpt lat="49.92867" lon="2.46529">
        <ele>93.8</ele>
        <time>2022-03-30T13:24:29Z</time>
      </trkpt>
      <trkpt lat="49.92867" lon="2.46529">
        <ele>93.8</ele>
        <time>2022-03-30T13:24:30Z</time>
      </trkpt>
      <trkpt lat="49.92867" lon="2.46529">
        <ele>93.8</ele>
        <time>2022-03-30T13:24:31Z</time>
      </trkpt>
      <trkpt lat="49.92867" lon="2.46529">
        <ele>93.8</ele>
        <time>2022-03-30T13:24:32Z</time>
      </trkpt>
      <trkpt lat="49.92867" lon="2.46529">
        <ele>93.8</ele>
        <time>2022-03-30T13:24:33Z</time>
      </trkpt>
      <trkpt lat="49.92867" lon="2.46529">
        <ele>93.8</ele>
        <time>2022-03-30T13:24:34Z</time>
      </trkpt>
      <trkpt lat="49.92867" lon="2.4653">
        <ele>93.8</ele>
        <time>2022-03-30T13:24:35Z</time>
      </trkpt>
      <trkpt lat="49.92867" lon="2.4653">
        <ele>93.8</ele>
        <time>2022-03-30T13:24:36Z</time>
      </trkpt>
      <trkpt lat="49.92867" lon="2.4653">
        <ele>93.8</ele>
        <time>2022-03-30T13:24:37Z</time>
      </trkpt>
      <trkpt lat="49.92867" lon="2.4653">
        <ele>93.8</ele>
        <time>2022-03-30T13:24:38Z</time>
      </trkpt>
      <trkpt lat="49.92867" lon="2.4653">
        <ele>93.8</ele>
        <time>2022-03-30T13:24:39Z</time>
      </trkpt>
      <trkpt lat="49.92867" lon="2.4653">
        <ele>93.8</ele>
        <time>2022-03-30T13:24:40Z</time>
      </trkpt>
      <trkpt lat="49.92867" lon="2.4653">
        <ele>93.8</ele>
        <time>2022-03-30T13:24:41Z</time>
      </trkpt>
      <trkpt lat="49.92867" lon="2.4653">
        <ele>93.8</ele>
        <time>2022-03-30T13:24:42Z</time>
      </trkpt>
      <trkpt lat="49.92867" lon="2.4653">
        <ele>93.8</ele>
        <time>2022-03-30T13:24:43Z</time>
      </trkpt>
      <trkpt lat="49.92867" lon="2.4653">
        <ele>93.8</ele>
        <time>2022-03-30T13:24:44Z</time>
      </trkpt>
      <trkpt lat="49.92867" lon="2.4653">
        <ele>93.8</ele>
        <time>2022-03-30T13:24:45Z</time>
      </trkpt>
      <trkpt lat="49.92867" lon="2.4653">
        <ele>93.8</ele>
        <time>2022-03-30T13:24:46Z</time>
      </trkpt>
      <trkpt lat="49.92867" lon="2.4653">
        <ele>93.8</ele>
        <time>2022-03-30T13:24:47Z</time>
      </trkpt>
      <trkpt lat="49.92867" lon="2.4653">
        <ele>93.8</ele>
        <time>2022-03-30T13:24:48Z</time>
      </trkpt>
      <trkpt lat="49.92867" lon="2.4653">
        <ele>93.8</ele>
        <time>2022-03-30T13:24:49Z</time>
      </trkpt>
      <trkpt lat="49.92867" lon="2.4653">
        <ele>93.8</ele>
        <time>2022-03-30T13:24:50Z</time>
      </trkpt>
      <trkpt lat="49.92867" lon="2.4653">
        <ele>93.8</ele>
        <time>2022-03-30T13:24:51Z</time>
      </trkpt>
      <trkpt lat="49.92867" lon="2.4653">
        <ele>93.8</ele>
        <time>2022-03-30T13:24:52Z</time>
      </trkpt>
      <trkpt lat="49.92867" lon="2.4653">
        <ele>93.8</ele>
        <time>2022-03-30T13:24:53Z</time>
      </trkpt>
      <trkpt lat="49.92867" lon="2.4653">
        <ele>93.8</ele>
        <time>2022-03-30T13:24:54Z</time>
      </trkpt>
      <trkpt lat="49.92867" lon="2.4653">
        <ele>93.8</ele>
        <time>2022-03-30T13:24:55Z</time>
      </trkpt>
      <trkpt lat="49.92867" lon="2.4653">
        <ele>93.8</ele>
        <time>2022-03-30T13:24:56Z</time>
      </trkpt>
      <trkpt lat="49.92867" lon="2.4653">
        <ele>93.8</ele>
        <time>2022-03-30T13:24:57Z</time>
      </trkpt>
      <trkpt lat="49.92867" lon="2.4653">
        <ele>93.8</ele>
        <time>2022-03-30T13:24:58Z</time>
      </trkpt>
      <trkpt lat="49.92867" lon="2.4653">
        <ele>93.8</ele>
        <time>2022-03-30T13:24:59Z</time>
      </trkpt>
      <trkpt lat="49.92867" lon="2.4653">
        <ele>93.8</ele>
        <time>2022-03-30T13:25:00Z</time>
      </trkpt>
      <trkpt lat="49.92867" lon="2.4653">
        <ele>93.8</ele>
        <time>2022-03-30T13:25:01Z</time>
      </trkpt>
      <trkpt lat="49.92867" lon="2.4653">
        <ele>93.8</ele>
        <time>2022-03-30T13:25:02Z</time>
      </trkpt>
      <trkpt lat="49.92867" lon="2.4653">
        <ele>93.8</ele>
        <time>2022-03-30T13:25:03Z</time>
      </trkpt>
      <trkpt lat="49.92867" lon="2.4653">
        <ele>93.8</ele>
        <time>2022-03-30T13:25:04Z</time>
      </trkpt>
      <trkpt lat="49.92867" lon="2.4653">
        <ele>93.8</ele>
        <time>2022-03-30T13:25:05Z</time>
      </trkpt>
      <trkpt lat="49.92867" lon="2.4653">
        <ele>93.8</ele>
        <time>2022-03-30T13:25:06Z</time>
      </trkpt>
      <trkpt lat="49.92867" lon="2.4653">
        <ele>93.8</ele>
        <time>2022-03-30T13:25:07Z</time>
      </trkpt>
      <trkpt lat="49.92867" lon="2.4653">
        <ele>93.8</ele>
        <time>2022-03-30T13:25:08Z</time>
      </trkpt>
      <trkpt lat="49.92867" lon="2.4653">
        <ele>93.8</ele>
        <time>2022-03-30T13:25:09Z</time>
      </trkpt>
      <trkpt lat="49.92867" lon="2.4653">
        <ele>93.8</ele>
        <time>2022-03-30T13:25:10Z</time>
      </trkpt>
      <trkpt lat="49.92867" lon="2.4653">
        <ele>93.8</ele>
        <time>2022-03-30T13:25:11Z</time>
      </trkpt>
      <trkpt lat="49.92867" lon="2.4653">
        <ele>93.8</ele>
        <time>2022-03-30T13:25:12Z</time>
      </trkpt>
      <trkpt lat="49.92867" lon="2.4653">
        <ele>93.8</ele>
        <time>2022-03-30T13:25:13Z</time>
      </trkpt>
      <trkpt lat="49.92867" lon="2.4653">
        <ele>93.8</ele>
        <time>2022-03-30T13:25:14Z</time>
      </trkpt>
      <trkpt lat="49.92867" lon="2.4653">
        <ele>93.8</ele>
        <time>2022-03-30T13:25:15Z</time>
      </trkpt>
      <trkpt lat="49.92867" lon="2.4653">
        <ele>93.8</ele>
        <time>2022-03-30T13:25:16Z</time>
      </trkpt>
      <trkpt lat="49.92867" lon="2.4653">
        <ele>93.8</ele>
        <time>2022-03-30T13:25:17Z</time>
      </trkpt>
      <trkpt lat="49.92867" lon="2.4653">
        <ele>93.8</ele>
        <time>2022-03-30T13:25:18Z</time>
      </trkpt>
      <trkpt lat="49.92867" lon="2.4653">
        <ele>93.8</ele>
        <time>2022-03-30T13:25:19Z</time>
      </trkpt>
      <trkpt lat="49.92867" lon="2.4653">
        <ele>93.8</ele>
        <time>2022-03-30T13:25:20Z</time>
      </trkpt>
      <trkpt lat="49.92867" lon="2.4653">
        <ele>93.8</ele>
        <time>2022-03-30T13:25:21Z</time>
      </trkpt>
      <trkpt lat="49.92867" lon="2.4653">
        <ele>93.8</ele>
        <time>2022-03-30T13:25:22Z</time>
      </trkpt>
      <trkpt lat="49.92867" lon="2.4653">
        <ele>93.8</ele>
        <time>2022-03-30T13:25:23Z</time>
      </trkpt>
      <trkpt lat="49.92867" lon="2.4653">
        <ele>93.8</ele>
        <time>2022-03-30T13:25:24Z</time>
      </trkpt>
      <trkpt lat="49.92867" lon="2.4653">
        <ele>93.8</ele>
        <time>2022-03-30T13:25:25Z</time>
      </trkpt>
      <trkpt lat="49.92867" lon="2.4653">
        <ele>93.8</ele>
        <time>2022-03-30T13:25:26Z</time>
      </trkpt>
      <trkpt lat="49.92867" lon="2.4653">
        <ele>93.8</ele>
        <time>2022-03-30T13:25:27Z</time>
      </trkpt>
      <trkpt lat="49.92867" lon="2.4653">
        <ele>93.8</ele>
        <time>2022-03-30T13:25:28Z</time>
      </trkpt>
      <trkpt lat="49.92867" lon="2.4653">
        <ele>93.8</ele>
        <time>2022-03-30T13:25:29Z</time>
      </trkpt>
      <trkpt lat="49.92867" lon="2.4653">
        <ele>93.8</ele>
        <time>2022-03-30T13:25:30Z</time>
      </trkpt>
      <trkpt lat="49.92867" lon="2.4653">
        <ele>93.8</ele>
        <time>2022-03-30T13:25:31Z</time>
      </trkpt>
      <trkpt lat="49.92867" lon="2.4653">
        <ele>93.8</ele>
        <time>2022-03-30T13:25:32Z</time>
      </trkpt>
      <trkpt lat="49.92867" lon="2.4653">
        <ele>93.8</ele>
        <time>2022-03-30T13:25:33Z</time>
      </trkpt>
      <trkpt lat="49.92867" lon="2.4653">
        <ele>93.8</ele>
        <time>2022-03-30T13:25:34Z</time>
      </trkpt>
      <trkpt lat="49.92867" lon="2.4653">
        <ele>93.8</ele>
        <time>2022-03-30T13:25:35Z</time>
      </trkpt>
      <trkpt lat="49.92867" lon="2.4653">
        <ele>93.8</ele>
        <time>2022-03-30T13:25:36Z</time>
      </trkpt>
      <trkpt lat="49.92867" lon="2.4653">
        <ele>93.8</ele>
        <time>2022-03-30T13:25:37Z</time>
      </trkpt>
      <trkpt lat="49.92867" lon="2.4653">
        <ele>93.8</ele>
        <time>2022-03-30T13:25:38Z</time>
      </trkpt>
      <trkpt lat="49.92867" lon="2.4653">
        <ele>93.8</ele>
        <time>2022-03-30T13:25:39Z</time>
      </trkpt>
      <trkpt lat="49.92867" lon="2.4653">
        <ele>93.8</ele>
        <time>2022-03-30T13:25:40Z</time>
      </trkpt>
      <trkpt lat="49.92867" lon="2.4653">
        <ele>93.8</ele>
        <time>2022-03-30T13:25:41Z</time>
      </trkpt>
      <trkpt lat="49.92867" lon="2.4653">
        <ele>93.8</ele>
        <time>2022-03-30T13:25:42Z</time>
      </trkpt>
      <trkpt lat="49.92867" lon="2.4653">
        <ele>93.8</ele>
        <time>2022-03-30T13:25:43Z</time>
      </trkpt>
      <trkpt lat="49.92867" lon="2.4653">
        <ele>93.8</ele>
        <time>2022-03-30T13:25:44Z</time>
      </trkpt>
      <trkpt lat="49.92867" lon="2.4653">
        <ele>93.8</ele>
        <time>2022-03-30T13:25:45Z</time>
      </trkpt>
      <trkpt lat="49.92867" lon="2.4653">
        <ele>93.8</ele>
        <time>2022-03-30T13:25:46Z</time>
      </trkpt>
      <trkpt lat="49.92867" lon="2.4653">
        <ele>93.8</ele>
        <time>2022-03-30T13:25:47Z</time>
      </trkpt>
      <trkpt lat="49.92867" lon="2.4653">
        <ele>93.8</ele>
        <time>2022-03-30T13:25:48Z</time>
      </trkpt>
      <trkpt lat="49.92867" lon="2.4653">
        <ele>93.8</ele>
        <time>2022-03-30T13:25:49Z</time>
      </trkpt>
      <trkpt lat="49.92867" lon="2.4653">
        <ele>93.8</ele>
        <time>2022-03-30T13:25:50Z</time>
      </trkpt>
      <trkpt lat="49.92867" lon="2.4653">
        <ele>93.8</ele>
        <time>2022-03-30T13:25:51Z</time>
      </trkpt>
      <trkpt lat="49.92867" lon="2.4653">
        <ele>93.8</ele>
        <time>2022-03-30T13:25:52Z</time>
      </trkpt>
      <trkpt lat="49.92867" lon="2.4653">
        <ele>93.8</ele>
        <time>2022-03-30T13:25:53Z</time>
      </trkpt>
      <trkpt lat="49.92867" lon="2.4653">
        <ele>93.8</ele>
        <time>2022-03-30T13:25:54Z</time>
      </trkpt>
      <trkpt lat="49.92867" lon="2.4653">
        <ele>93.8</ele>
        <time>2022-03-30T13:25:55Z</time>
      </trkpt>
      <trkpt lat="49.92867" lon="2.4653">
        <ele>93.8</ele>
        <time>2022-03-30T13:25:56Z</time>
      </trkpt>
      <trkpt lat="49.92867" lon="2.4653">
        <ele>93.8</ele>
        <time>2022-03-30T13:25:57Z</time>
      </trkpt>
      <trkpt lat="49.92867" lon="2.4653">
        <ele>93.8</ele>
        <time>2022-03-30T13:25:58Z</time>
      </trkpt>
      <trkpt lat="49.92867" lon="2.4653">
        <ele>93.8</ele>
        <time>2022-03-30T13:25:59Z</time>
      </trkpt>
      <trkpt lat="49.92867" lon="2.4653">
        <ele>93.8</ele>
        <time>2022-03-30T13:26:00Z</time>
      </trkpt>
      <trkpt lat="49.92867" lon="2.4653">
        <ele>93.8</ele>
        <time>2022-03-30T13:26:01Z</time>
      </trkpt>
      <trkpt lat="49.92867" lon="2.4653">
        <ele>93.8</ele>
        <time>2022-03-30T13:26:02Z</time>
      </trkpt>
      <trkpt lat="49.92867" lon="2.4653">
        <ele>93.8</ele>
        <time>2022-03-30T13:26:03Z</time>
      </trkpt>
      <trkpt lat="49.92867" lon="2.4653">
        <ele>93.8</ele>
        <time>2022-03-30T13:26:04Z</time>
      </trkpt>
      <trkpt lat="49.92867" lon="2.4653">
        <ele>93.8</ele>
        <time>2022-03-30T13:26:05Z</time>
      </trkpt>
      <trkpt lat="49.92867" lon="2.4653">
        <ele>93.8</ele>
        <time>2022-03-30T13:26:06Z</time>
      </trkpt>
      <trkpt lat="49.92867" lon="2.4653">
        <ele>93.8</ele>
        <time>2022-03-30T13:26:07Z</time>
      </trkpt>
      <trkpt lat="49.92867" lon="2.4653">
        <ele>93.8</ele>
        <time>2022-03-30T13:26:08Z</time>
      </trkpt>
      <trkpt lat="49.92867" lon="2.4653">
        <ele>93.8</ele>
        <time>2022-03-30T13:26:09Z</time>
      </trkpt>
      <trkpt lat="49.92867" lon="2.4653">
        <ele>93.8</ele>
        <time>2022-03-30T13:26:10Z</time>
      </trkpt>
      <trkpt lat="49.92867" lon="2.4653">
        <ele>93.8</ele>
        <time>2022-03-30T13:26:11Z</time>
      </trkpt>
      <trkpt lat="49.92867" lon="2.4653">
        <ele>93.8</ele>
        <time>2022-03-30T13:26:12Z</time>
      </trkpt>
      <trkpt lat="49.92867" lon="2.4653">
        <ele>93.8</ele>
        <time>2022-03-30T13:26:13Z</time>
      </trkpt>
      <trkpt lat="49.92867" lon="2.4653">
        <ele>93.8</ele>
        <time>2022-03-30T13:26:14Z</time>
      </trkpt>
      <trkpt lat="49.92867" lon="2.4653">
        <ele>93.8</ele>
        <time>2022-03-30T13:26:15Z</time>
      </trkpt>
      <trkpt lat="49.92867" lon="2.4653">
        <ele>93.8</ele>
        <time>2022-03-30T13:26:16Z</time>
      </trkpt>
      <trkpt lat="49.92867" lon="2.4653">
        <ele>93.8</ele>
        <time>2022-03-30T13:26:17Z</time>
      </trkpt>
      <trkpt lat="49.92867" lon="2.4653">
        <ele>93.8</ele>
        <time>2022-03-30T13:26:18Z</time>
      </trkpt>
      <trkpt lat="49.92867" lon="2.4653">
        <ele>93.8</ele>
        <time>2022-03-30T13:26:19Z</time>
      </trkpt>
      <trkpt lat="49.92867" lon="2.4653">
        <ele>93.8</ele>
        <time>2022-03-30T13:26:20Z</time>
      </trkpt>
      <trkpt lat="49.92867" lon="2.4653">
        <ele>93.8</ele>
        <time>2022-03-30T13:26:21Z</time>
      </trkpt>
      <trkpt lat="49.92867" lon="2.4653">
        <ele>93.8</ele>
        <time>2022-03-30T13:26:22Z</time>
      </trkpt>
      <trkpt lat="49.92867" lon="2.4653">
        <ele>93.8</ele>
        <time>2022-03-30T13:26:23Z</time>
      </trkpt>
      <trkpt lat="49.92867" lon="2.4653">
        <ele>93.8</ele>
        <time>2022-03-30T13:26:24Z</time>
      </trkpt>
      <trkpt lat="49.92867" lon="2.4653">
        <ele>93.8</ele>
        <time>2022-03-30T13:26:25Z</time>
      </trkpt>
      <trkpt lat="49.92867" lon="2.4653">
        <ele>93.8</ele>
        <time>2022-03-30T13:26:26Z</time>
      </trkpt>
      <trkpt lat="49.92867" lon="2.4653">
        <ele>93.8</ele>
        <time>2022-03-30T13:26:27Z</time>
      </trkpt>
      <trkpt lat="49.92867" lon="2.4653">
        <ele>93.8</ele>
        <time>2022-03-30T13:26:28Z</time>
      </trkpt>
      <trkpt lat="49.92867" lon="2.4653">
        <ele>93.8</ele>
        <time>2022-03-30T13:26:29Z</time>
      </trkpt>
      <trkpt lat="49.92867" lon="2.4653">
        <ele>93.8</ele>
        <time>2022-03-30T13:26:30Z</time>
      </trkpt>
      <trkpt lat="49.92867" lon="2.4653">
        <ele>93.8</ele>
        <time>2022-03-30T13:26:31Z</time>
      </trkpt>
      <trkpt lat="49.92867" lon="2.4653">
        <ele>93.8</ele>
        <time>2022-03-30T13:26:32Z</time>
      </trkpt>
      <trkpt lat="49.92867" lon="2.4653">
        <ele>93.8</ele>
        <time>2022-03-30T13:26:33Z</time>
      </trkpt>
      <trkpt lat="49.92867" lon="2.4653">
        <ele>93.8</ele>
        <time>2022-03-30T13:26:34Z</time>
      </trkpt>
      <trkpt lat="49.92867" lon="2.4653">
        <ele>93.8</ele>
        <time>2022-03-30T13:26:35Z</time>
      </trkpt>
      <trkpt lat="49.92867" lon="2.4653">
        <ele>93.8</ele>
        <time>2022-03-30T13:26:36Z</time>
      </trkpt>
      <trkpt lat="49.92867" lon="2.4653">
        <ele>93.8</ele>
        <time>2022-03-30T13:26:37Z</time>
      </trkpt>
      <trkpt lat="49.92867" lon="2.4653">
        <ele>93.8</ele>
        <time>2022-03-30T13:26:38Z</time>
      </trkpt>
      <trkpt lat="49.92867" lon="2.4653">
        <ele>93.8</ele>
        <time>2022-03-30T13:26:39Z</time>
      </trkpt>
      <trkpt lat="49.92867" lon="2.4653">
        <ele>93.8</ele>
        <time>2022-03-30T13:26:40Z</time>
      </trkpt>
      <trkpt lat="49.92867" lon="2.4653">
        <ele>93.8</ele>
        <time>2022-03-30T13:26:41Z</time>
      </trkpt>
      <trkpt lat="49.92867" lon="2.4653">
        <ele>93.8</ele>
        <time>2022-03-30T13:26:42Z</time>
      </trkpt>
      <trkpt lat="49.92867" lon="2.4653">
        <ele>93.8</ele>
        <time>2022-03-30T13:26:43Z</time>
      </trkpt>
      <trkpt lat="49.92867" lon="2.4653">
        <ele>93.8</ele>
        <time>2022-03-30T13:26:44Z</time>
      </trkpt>
      <trkpt lat="49.92867" lon="2.4653">
        <ele>93.8</ele>
        <time>2022-03-30T13:26:45Z</time>
      </trkpt>
      <trkpt lat="49.92867" lon="2.4653">
        <ele>93.8</ele>
        <time>2022-03-30T13:26:46Z</time>
      </trkpt>
      <trkpt lat="49.92867" lon="2.4653">
        <ele>93.8</ele>
        <time>2022-03-30T13:26:47Z</time>
      </trkpt>
      <trkpt lat="49.92867" lon="2.4653">
        <ele>93.8</ele>
        <time>2022-03-30T13:26:48Z</time>
      </trkpt>
      <trkpt lat="49.92869" lon="2.46531">
        <ele>93.8</ele>
        <time>2022-03-30T13:26:49Z</time>
      </trkpt>
      <trkpt lat="49.92871" lon="2.46532">
        <ele>93.8</ele>
        <time>2022-03-30T13:26:50Z</time>
      </trkpt>
      <trkpt lat="49.92871" lon="2.46532">
        <ele>93.8</ele>
        <time>2022-03-30T13:26:51Z</time>
      </trkpt>
      <trkpt lat="49.92871" lon="2.46531">
        <ele>93.8</ele>
        <time>2022-03-30T13:26:52Z</time>
      </trkpt>
      <trkpt lat="49.92871" lon="2.4653">
        <ele>93.9</ele>
        <time>2022-03-30T13:26:53Z</time>
      </trkpt>
      <trkpt lat="49.92871" lon="2.46528">
        <ele>93.9</ele>
        <time>2022-03-30T13:26:54Z</time>
      </trkpt>
      <trkpt lat="49.92871" lon="2.46525">
        <ele>93.9</ele>
        <time>2022-03-30T13:26:55Z</time>
      </trkpt>
      <trkpt lat="49.92871" lon="2.46524">
        <ele>93.9</ele>
        <time>2022-03-30T13:26:56Z</time>
      </trkpt>
      <trkpt lat="49.92871" lon="2.46522">
        <ele>93.9</ele>
        <time>2022-03-30T13:26:57Z</time>
      </trkpt>
      <trkpt lat="49.92871" lon="2.46521">
        <ele>93.9</ele>
        <time>2022-03-30T13:26:58Z</time>
      </trkpt>
      <trkpt lat="49.92871" lon="2.46519">
        <ele>94</ele>
        <time>2022-03-30T13:26:59Z</time>
      </trkpt>
      <trkpt lat="49.92871" lon="2.46517">
        <ele>94</ele>
        <time>2022-03-30T13:27:00Z</time>
      </trkpt>
      <trkpt lat="49.92872" lon="2.46516">
        <ele>94</ele>
        <time>2022-03-30T13:27:01Z</time>
      </trkpt>
      <trkpt lat="49.92872" lon="2.46514">
        <ele>94</ele>
        <time>2022-03-30T13:27:02Z</time>
      </trkpt>
      <trkpt lat="49.92872" lon="2.46513">
        <ele>94</ele>
        <time>2022-03-30T13:27:03Z</time>
      </trkpt>
      <trkpt lat="49.92873" lon="2.46511">
        <ele>94.1</ele>
        <time>2022-03-30T13:27:04Z</time>
      </trkpt>
      <trkpt lat="49.92874" lon="2.46509">
        <ele>94.1</ele>
        <time>2022-03-30T13:27:05Z</time>
      </trkpt>
      <trkpt lat="49.92874" lon="2.46508">
        <ele>94.1</ele>
        <time>2022-03-30T13:27:06Z</time>
      </trkpt>
      <trkpt lat="49.92875" lon="2.46507">
        <ele>94.2</ele>
        <time>2022-03-30T13:27:07Z</time>
      </trkpt>
      <trkpt lat="49.92876" lon="2.46506">
        <ele>94.2</ele>
        <time>2022-03-30T13:27:08Z</time>
      </trkpt>
      <trkpt lat="49.92877" lon="2.46505">
        <ele>94.2</ele>
        <time>2022-03-30T13:27:09Z</time>
      </trkpt>
      <trkpt lat="49.92878" lon="2.46504">
        <ele>94.3</ele>
        <time>2022-03-30T13:27:10Z</time>
      </trkpt>
      <trkpt lat="49.92879" lon="2.46503">
        <ele>94.3</ele>
        <time>2022-03-30T13:27:11Z</time>
      </trkpt>
      <trkpt lat="49.92879" lon="2.46502">
        <ele>94.3</ele>
        <time>2022-03-30T13:27:12Z</time>
      </trkpt>
      <trkpt lat="49.9288" lon="2.465">
        <ele>94.4</ele>
        <time>2022-03-30T13:27:13Z</time>
      </trkpt>
      <trkpt lat="49.92881" lon="2.465">
        <ele>94.4</ele>
        <time>2022-03-30T13:27:14Z</time>
      </trkpt>
      <trkpt lat="49.92882" lon="2.46499">
        <ele>94.4</ele>
        <time>2022-03-30T13:27:15Z</time>
      </trkpt>
      <trkpt lat="49.92883" lon="2.46498">
        <ele>94.5</ele>
        <time>2022-03-30T13:27:16Z</time>
      </trkpt>
      <trkpt lat="49.92884" lon="2.46497">
        <ele>94.5</ele>
        <time>2022-03-30T13:27:17Z</time>
      </trkpt>
      <trkpt lat="49.92884" lon="2.46496">
        <ele>94.5</ele>
        <time>2022-03-30T13:27:18Z</time>
      </trkpt>
      <trkpt lat="49.92885" lon="2.46495">
        <ele>94.6</ele>
        <time>2022-03-30T13:27:19Z</time>
      </trkpt>
      <trkpt lat="49.92886" lon="2.46494">
        <ele>94.6</ele>
        <time>2022-03-30T13:27:20Z</time>
      </trkpt>
      <trkpt lat="49.92886" lon="2.46493">
        <ele>94.6</ele>
        <time>2022-03-30T13:27:21Z</time>
      </trkpt>
      <trkpt lat="49.92886" lon="2.46493">
        <ele>94.6</ele>
        <time>2022-03-30T13:27:22Z</time>
      </trkpt>
      <trkpt lat="49.92886" lon="2.46492">
        <ele>94.6</ele>
        <time>2022-03-30T13:27:23Z</time>
      </trkpt>
      <trkpt lat="49.92887" lon="2.46491">
        <ele>94.7</ele>
        <time>2022-03-30T13:27:24Z</time>
      </trkpt>
      <trkpt lat="49.92888" lon="2.4649">
        <ele>94.7</ele>
        <time>2022-03-30T13:27:25Z</time>
      </trkpt>
      <trkpt lat="49.92888" lon="2.46489">
        <ele>94.7</ele>
        <time>2022-03-30T13:27:26Z</time>
      </trkpt>
      <trkpt lat="49.92888" lon="2.46488">
        <ele>94.7</ele>
        <time>2022-03-30T13:27:27Z</time>
      </trkpt>
      <trkpt lat="49.92889" lon="2.46487">
        <ele>94.8</ele>
        <time>2022-03-30T13:27:28Z</time>
      </trkpt>
      <trkpt lat="49.9289" lon="2.46487">
        <ele>94.8</ele>
        <time>2022-03-30T13:27:29Z</time>
      </trkpt>
      <trkpt lat="49.9289" lon="2.46485">
        <ele>94.8</ele>
        <time>2022-03-30T13:27:30Z</time>
      </trkpt>
      <trkpt lat="49.92891" lon="2.46484">
        <ele>94.8</ele>
        <time>2022-03-30T13:27:31Z</time>
      </trkpt>
      <trkpt lat="49.92891" lon="2.46484">
        <ele>94.9</ele>
        <time>2022-03-30T13:27:32Z</time>
      </trkpt>
      <trkpt lat="49.92891" lon="2.46483">
        <ele>94.9</ele>
        <time>2022-03-30T13:27:33Z</time>
      </trkpt>
      <trkpt lat="49.92891" lon="2.46483">
        <ele>94.9</ele>
        <time>2022-03-30T13:27:34Z</time>
      </trkpt>
      <trkpt lat="49.92892" lon="2.46483">
        <ele>94.9</ele>
        <time>2022-03-30T13:27:35Z</time>
      </trkpt>
      <trkpt lat="49.92892" lon="2.46482">
        <ele>94.9</ele>
        <time>2022-03-30T13:27:36Z</time>
      </trkpt>
      <trkpt lat="49.92892" lon="2.46481">
        <ele>94.9</ele>
        <time>2022-03-30T13:27:37Z</time>
      </trkpt>
      <trkpt lat="49.92893" lon="2.46481">
        <ele>94.9</ele>
        <time>2022-03-30T13:27:38Z</time>
      </trkpt>
      <trkpt lat="49.92893" lon="2.4648">
        <ele>94.9</ele>
        <time>2022-03-30T13:27:39Z</time>
      </trkpt>
      <trkpt lat="49.92893" lon="2.4648">
        <ele>95</ele>
        <time>2022-03-30T13:27:40Z</time>
      </trkpt>
      <trkpt lat="49.92894" lon="2.46479">
        <ele>95</ele>
        <time>2022-03-30T13:27:41Z</time>
      </trkpt>
      <trkpt lat="49.92894" lon="2.46478">
        <ele>95</ele>
        <time>2022-03-30T13:27:42Z</time>
      </trkpt>
      <trkpt lat="49.92895" lon="2.46476">
        <ele>95</ele>
        <time>2022-03-30T13:27:43Z</time>
      </trkpt>
      <trkpt lat="49.92896" lon="2.46475">
        <ele>95.1</ele>
        <time>2022-03-30T13:27:44Z</time>
      </trkpt>
      <trkpt lat="49.92897" lon="2.46472">
        <ele>95.1</ele>
        <time>2022-03-30T13:27:45Z</time>
      </trkpt>
      <trkpt lat="49.92897" lon="2.46471">
        <ele>95.2</ele>
        <time>2022-03-30T13:27:46Z</time>
      </trkpt>
      <trkpt lat="49.92898" lon="2.4647">
        <ele>95.2</ele>
        <time>2022-03-30T13:27:47Z</time>
      </trkpt>
      <trkpt lat="49.92898" lon="2.46469">
        <ele>95.2</ele>
        <time>2022-03-30T13:27:48Z</time>
      </trkpt>
      <trkpt lat="49.92899" lon="2.46468">
        <ele>95.3</ele>
        <time>2022-03-30T13:27:49Z</time>
      </trkpt>
      <trkpt lat="49.929" lon="2.46467">
        <ele>95.3</ele>
        <time>2022-03-30T13:27:50Z</time>
      </trkpt>
      <trkpt lat="49.92901" lon="2.46465">
        <ele>95.3</ele>
        <time>2022-03-30T13:27:51Z</time>
      </trkpt>
      <trkpt lat="49.92902" lon="2.46464">
        <ele>95.4</ele>
        <time>2022-03-30T13:27:52Z</time>
      </trkpt>
      <trkpt lat="49.92903" lon="2.46463">
        <ele>95.4</ele>
        <time>2022-03-30T13:27:53Z</time>
      </trkpt>
      <trkpt lat="49.92904" lon="2.46461">
        <ele>95.5</ele>
        <time>2022-03-30T13:27:54Z</time>
      </trkpt>
      <trkpt lat="49.92904" lon="2.4646">
        <ele>95.5</ele>
        <time>2022-03-30T13:27:55Z</time>
      </trkpt>
      <trkpt lat="49.92905" lon="2.46459">
        <ele>95.5</ele>
        <time>2022-03-30T13:27:56Z</time>
      </trkpt>
      <trkpt lat="49.92905" lon="2.46459">
        <ele>95.5</ele>
        <time>2022-03-30T13:27:57Z</time>
      </trkpt>
      <trkpt lat="49.92906" lon="2.46457">
        <ele>95.6</ele>
        <time>2022-03-30T13:27:58Z</time>
      </trkpt>
      <trkpt lat="49.92907" lon="2.46456">
        <ele>95.6</ele>
        <time>2022-03-30T13:27:59Z</time>
      </trkpt>
      <trkpt lat="49.92908" lon="2.46455">
        <ele>95.7</ele>
        <time>2022-03-30T13:28:00Z</time>
      </trkpt>
      <trkpt lat="49.92909" lon="2.46453">
        <ele>95.7</ele>
        <time>2022-03-30T13:28:01Z</time>
      </trkpt>
      <trkpt lat="49.9291" lon="2.46452">
        <ele>95.8</ele>
        <time>2022-03-30T13:28:02Z</time>
      </trkpt>
      <trkpt lat="49.9291" lon="2.46451">
        <ele>95.8</ele>
        <time>2022-03-30T13:28:03Z</time>
      </trkpt>
      <trkpt lat="49.92911" lon="2.46451">
        <ele>95.8</ele>
        <time>2022-03-30T13:28:04Z</time>
      </trkpt>
      <trkpt lat="49.92912" lon="2.46451">
        <ele>95.8</ele>
        <time>2022-03-30T13:28:05Z</time>
      </trkpt>
      <trkpt lat="49.92913" lon="2.4645">
        <ele>95.9</ele>
        <time>2022-03-30T13:28:06Z</time>
      </trkpt>
      <trkpt lat="49.92914" lon="2.46449">
        <ele>95.9</ele>
        <time>2022-03-30T13:28:07Z</time>
      </trkpt>
      <trkpt lat="49.92915" lon="2.46448">
        <ele>96</ele>
        <time>2022-03-30T13:28:08Z</time>
      </trkpt>
      <trkpt lat="49.92916" lon="2.46447">
        <ele>96</ele>
        <time>2022-03-30T13:28:09Z</time>
      </trkpt>
      <trkpt lat="49.92917" lon="2.46446">
        <ele>96</ele>
        <time>2022-03-30T13:28:10Z</time>
      </trkpt>
      <trkpt lat="49.92918" lon="2.46445">
        <ele>96.1</ele>
        <time>2022-03-30T13:28:11Z</time>
      </trkpt>
      <trkpt lat="49.92919" lon="2.46444">
        <ele>96.1</ele>
        <time>2022-03-30T13:28:12Z</time>
      </trkpt>
      <trkpt lat="49.92919" lon="2.46443">
        <ele>96.2</ele>
        <time>2022-03-30T13:28:13Z</time>
      </trkpt>
      <trkpt lat="49.9292" lon="2.46443">
        <ele>96.2</ele>
        <time>2022-03-30T13:28:14Z</time>
      </trkpt>
      <trkpt lat="49.92921" lon="2.46442">
        <ele>96.2</ele>
        <time>2022-03-30T13:28:15Z</time>
      </trkpt>
      <trkpt lat="49.92922" lon="2.46441">
        <ele>96.3</ele>
        <time>2022-03-30T13:28:16Z</time>
      </trkpt>
      <trkpt lat="49.92922" lon="2.4644">
        <ele>96.3</ele>
        <time>2022-03-30T13:28:17Z</time>
      </trkpt>
      <trkpt lat="49.92923" lon="2.46439">
        <ele>96.3</ele>
        <time>2022-03-30T13:28:18Z</time>
      </trkpt>
      <trkpt lat="49.92924" lon="2.46438">
        <ele>96.4</ele>
        <time>2022-03-30T13:28:19Z</time>
      </trkpt>
      <trkpt lat="49.92925" lon="2.46437">
        <ele>96.4</ele>
        <time>2022-03-30T13:28:20Z</time>
      </trkpt>
      <trkpt lat="49.92926" lon="2.46436">
        <ele>96.5</ele>
        <time>2022-03-30T13:28:21Z</time>
      </trkpt>
      <trkpt lat="49.92927" lon="2.46435">
        <ele>96.5</ele>
        <time>2022-03-30T13:28:22Z</time>
      </trkpt>
      <trkpt lat="49.92928" lon="2.46434">
        <ele>96.6</ele>
        <time>2022-03-30T13:28:23Z</time>
      </trkpt>
      <trkpt lat="49.92928" lon="2.46433">
        <ele>96.6</ele>
        <time>2022-03-30T13:28:24Z</time>
      </trkpt>
      <trkpt lat="49.92929" lon="2.46432">
        <ele>96.6</ele>
        <time>2022-03-30T13:28:25Z</time>
      </trkpt>
      <trkpt lat="49.9293" lon="2.46431">
        <ele>96.7</ele>
        <time>2022-03-30T13:28:26Z</time>
      </trkpt>
      <trkpt lat="49.92931" lon="2.4643">
        <ele>96.7</ele>
        <time>2022-03-30T13:28:27Z</time>
      </trkpt>
      <trkpt lat="49.92931" lon="2.46428">
        <ele>96.7</ele>
        <time>2022-03-30T13:28:28Z</time>
      </trkpt>
      <trkpt lat="49.92933" lon="2.46426">
        <ele>96.8</ele>
        <time>2022-03-30T13:28:29Z</time>
      </trkpt>
      <trkpt lat="49.92933" lon="2.46425">
        <ele>96.8</ele>
        <time>2022-03-30T13:28:30Z</time>
      </trkpt>
      <trkpt lat="49.92934" lon="2.46424">
        <ele>96.8</ele>
        <time>2022-03-30T13:28:31Z</time>
      </trkpt>
      <trkpt lat="49.92935" lon="2.46423">
        <ele>96.8</ele>
        <time>2022-03-30T13:28:32Z</time>
      </trkpt>
      <trkpt lat="49.92936" lon="2.46422">
        <ele>96.9</ele>
        <time>2022-03-30T13:28:33Z</time>
      </trkpt>
      <trkpt lat="49.92937" lon="2.46421">
        <ele>96.9</ele>
        <time>2022-03-30T13:28:34Z</time>
      </trkpt>
      <trkpt lat="49.92937" lon="2.4642">
        <ele>96.9</ele>
        <time>2022-03-30T13:28:35Z</time>
      </trkpt>
      <trkpt lat="49.92939" lon="2.46419">
        <ele>96.9</ele>
        <time>2022-03-30T13:28:36Z</time>
      </trkpt>
      <trkpt lat="49.9294" lon="2.46418">
        <ele>96.9</ele>
        <time>2022-03-30T13:28:37Z</time>
      </trkpt>
      <trkpt lat="49.92941" lon="2.46416">
        <ele>96.9</ele>
        <time>2022-03-30T13:28:38Z</time>
      </trkpt>
      <trkpt lat="49.92942" lon="2.46415">
        <ele>97</ele>
        <time>2022-03-30T13:28:39Z</time>
      </trkpt>
      <trkpt lat="49.92942" lon="2.46414">
        <ele>97</ele>
        <time>2022-03-30T13:28:40Z</time>
      </trkpt>
      <trkpt lat="49.92944" lon="2.46412">
        <ele>97</ele>
        <time>2022-03-30T13:28:41Z</time>
      </trkpt>
      <trkpt lat="49.92944" lon="2.46411">
        <ele>97</ele>
        <time>2022-03-30T13:28:42Z</time>
      </trkpt>
      <trkpt lat="49.92945" lon="2.4641">
        <ele>97</ele>
        <time>2022-03-30T13:28:43Z</time>
      </trkpt>
      <trkpt lat="49.92947" lon="2.46408">
        <ele>97</ele>
        <time>2022-03-30T13:28:44Z</time>
      </trkpt>
      <trkpt lat="49.92948" lon="2.46408">
        <ele>97</ele>
        <time>2022-03-30T13:28:45Z</time>
      </trkpt>
      <trkpt lat="49.92948" lon="2.46407">
        <ele>97</ele>
        <time>2022-03-30T13:28:46Z</time>
      </trkpt>
      <trkpt lat="49.9295" lon="2.46405">
        <ele>97.1</ele>
        <time>2022-03-30T13:28:47Z</time>
      </trkpt>
      <trkpt lat="49.9295" lon="2.46404">
        <ele>97.1</ele>
        <time>2022-03-30T13:28:48Z</time>
      </trkpt>
      <trkpt lat="49.92951" lon="2.46403">
        <ele>97.1</ele>
        <time>2022-03-30T13:28:49Z</time>
      </trkpt>
      <trkpt lat="49.92952" lon="2.46402">
        <ele>97.1</ele>
        <time>2022-03-30T13:28:50Z</time>
      </trkpt>
      <trkpt lat="49.92953" lon="2.46401">
        <ele>97.1</ele>
        <time>2022-03-30T13:28:51Z</time>
      </trkpt>
      <trkpt lat="49.92954" lon="2.464">
        <ele>97.1</ele>
        <time>2022-03-30T13:28:52Z</time>
      </trkpt>
      <trkpt lat="49.92954" lon="2.46399">
        <ele>97.1</ele>
        <time>2022-03-30T13:28:53Z</time>
      </trkpt>
      <trkpt lat="49.92955" lon="2.46398">
        <ele>97.1</ele>
        <time>2022-03-30T13:28:54Z</time>
      </trkpt>
      <trkpt lat="49.92956" lon="2.46397">
        <ele>97.2</ele>
        <time>2022-03-30T13:28:55Z</time>
      </trkpt>
      <trkpt lat="49.92957" lon="2.46396">
        <ele>97.2</ele>
        <time>2022-03-30T13:28:56Z</time>
      </trkpt>
      <trkpt lat="49.92958" lon="2.46394">
        <ele>97.2</ele>
        <time>2022-03-30T13:28:57Z</time>
      </trkpt>
      <trkpt lat="49.92959" lon="2.46393">
        <ele>97.2</ele>
        <time>2022-03-30T13:28:58Z</time>
      </trkpt>
      <trkpt lat="49.9296" lon="2.46391">
        <ele>97.2</ele>
        <time>2022-03-30T13:28:59Z</time>
      </trkpt>
      <trkpt lat="49.92961" lon="2.4639">
        <ele>97.2</ele>
        <time>2022-03-30T13:29:00Z</time>
      </trkpt>
      <trkpt lat="49.92961" lon="2.46389">
        <ele>97.2</ele>
        <time>2022-03-30T13:29:01Z</time>
      </trkpt>
      <trkpt lat="49.92962" lon="2.46388">
        <ele>97.2</ele>
        <time>2022-03-30T13:29:02Z</time>
      </trkpt>
      <trkpt lat="49.92963" lon="2.46387">
        <ele>97.2</ele>
        <time>2022-03-30T13:29:03Z</time>
      </trkpt>
      <trkpt lat="49.92963" lon="2.46387">
        <ele>97.2</ele>
        <time>2022-03-30T13:29:04Z</time>
      </trkpt>
      <trkpt lat="49.92964" lon="2.46386">
        <ele>97.2</ele>
        <time>2022-03-30T13:29:05Z</time>
      </trkpt>
      <trkpt lat="49.92965" lon="2.46384">
        <ele>97.2</ele>
        <time>2022-03-30T13:29:06Z</time>
      </trkpt>
      <trkpt lat="49.92965" lon="2.46383">
        <ele>97.2</ele>
        <time>2022-03-30T13:29:07Z</time>
      </trkpt>
      <trkpt lat="49.92966" lon="2.46381">
        <ele>97.2</ele>
        <time>2022-03-30T13:29:08Z</time>
      </trkpt>
      <trkpt lat="49.92967" lon="2.4638">
        <ele>97.2</ele>
        <time>2022-03-30T13:29:09Z</time>
      </trkpt>
      <trkpt lat="49.92967" lon="2.46379">
        <ele>97.2</ele>
        <time>2022-03-30T13:29:10Z</time>
      </trkpt>
      <trkpt lat="49.92968" lon="2.46378">
        <ele>97.2</ele>
        <time>2022-03-30T13:29:11Z</time>
      </trkpt>
      <trkpt lat="49.92969" lon="2.46376">
        <ele>97.1</ele>
        <time>2022-03-30T13:29:12Z</time>
      </trkpt>
      <trkpt lat="49.9297" lon="2.46375">
        <ele>97.1</ele>
        <time>2022-03-30T13:29:13Z</time>
      </trkpt>
      <trkpt lat="49.92971" lon="2.46373">
        <ele>97.1</ele>
        <time>2022-03-30T13:29:14Z</time>
      </trkpt>
      <trkpt lat="49.92972" lon="2.46372">
        <ele>97.1</ele>
        <time>2022-03-30T13:29:15Z</time>
      </trkpt>
      <trkpt lat="49.92973" lon="2.46371">
        <ele>97.1</ele>
        <time>2022-03-30T13:29:16Z</time>
      </trkpt>
      <trkpt lat="49.92974" lon="2.4637">
        <ele>97.1</ele>
        <time>2022-03-30T13:29:17Z</time>
      </trkpt>
      <trkpt lat="49.92974" lon="2.46369">
        <ele>97.1</ele>
        <time>2022-03-30T13:29:18Z</time>
      </trkpt>
      <trkpt lat="49.92975" lon="2.46368">
        <ele>97.1</ele>
        <time>2022-03-30T13:29:19Z</time>
      </trkpt>
      <trkpt lat="49.92976" lon="2.46367">
        <ele>97.1</ele>
        <time>2022-03-30T13:29:20Z</time>
      </trkpt>
      <trkpt lat="49.92977" lon="2.46366">
        <ele>97.1</ele>
        <time>2022-03-30T13:29:21Z</time>
      </trkpt>
      <trkpt lat="49.92978" lon="2.46365">
        <ele>97</ele>
        <time>2022-03-30T13:29:22Z</time>
      </trkpt>
      <trkpt lat="49.9298" lon="2.46363">
        <ele>97</ele>
        <time>2022-03-30T13:29:23Z</time>
      </trkpt>
      <trkpt lat="49.92981" lon="2.46362">
        <ele>97</ele>
        <time>2022-03-30T13:29:24Z</time>
      </trkpt>
      <trkpt lat="49.92981" lon="2.46361">
        <ele>97</ele>
        <time>2022-03-30T13:29:25Z</time>
      </trkpt>
      <trkpt lat="49.92983" lon="2.46359">
        <ele>97</ele>
        <time>2022-03-30T13:29:26Z</time>
      </trkpt>
      <trkpt lat="49.92984" lon="2.46358">
        <ele>96.9</ele>
        <time>2022-03-30T13:29:27Z</time>
      </trkpt>
      <trkpt lat="49.92984" lon="2.46357">
        <ele>96.9</ele>
        <time>2022-03-30T13:29:28Z</time>
      </trkpt>
      <trkpt lat="49.92985" lon="2.46357">
        <ele>96.9</ele>
        <time>2022-03-30T13:29:29Z</time>
      </trkpt>
      <trkpt lat="49.92986" lon="2.46356">
        <ele>96.9</ele>
        <time>2022-03-30T13:29:30Z</time>
      </trkpt>
      <trkpt lat="49.92987" lon="2.46354">
        <ele>96.9</ele>
        <time>2022-03-30T13:29:31Z</time>
      </trkpt>
      <trkpt lat="49.92987" lon="2.46353">
        <ele>96.9</ele>
        <time>2022-03-30T13:29:32Z</time>
      </trkpt>
      <trkpt lat="49.92988" lon="2.46352">
        <ele>96.8</ele>
        <time>2022-03-30T13:29:33Z</time>
      </trkpt>
      <trkpt lat="49.92989" lon="2.46351">
        <ele>96.8</ele>
        <time>2022-03-30T13:29:34Z</time>
      </trkpt>
      <trkpt lat="49.92991" lon="2.46348">
        <ele>96.8</ele>
        <time>2022-03-30T13:29:35Z</time>
      </trkpt>
      <trkpt lat="49.92991" lon="2.46347">
        <ele>96.8</ele>
        <time>2022-03-30T13:29:36Z</time>
      </trkpt>
      <trkpt lat="49.92992" lon="2.46346">
        <ele>96.7</ele>
        <time>2022-03-30T13:29:38Z</time>
      </trkpt>
      <trkpt lat="49.92993" lon="2.46345">
        <ele>96.7</ele>
        <time>2022-03-30T13:29:39Z</time>
      </trkpt>
      <trkpt lat="49.92994" lon="2.46343">
        <ele>96.7</ele>
        <time>2022-03-30T13:29:40Z</time>
      </trkpt>
      <trkpt lat="49.92995" lon="2.46342">
        <ele>96.7</ele>
        <time>2022-03-30T13:29:41Z</time>
      </trkpt>
      <trkpt lat="49.92995" lon="2.46341">
        <ele>96.6</ele>
        <time>2022-03-30T13:29:42Z</time>
      </trkpt>
      <trkpt lat="49.92996" lon="2.4634">
        <ele>96.6</ele>
        <time>2022-03-30T13:29:43Z</time>
      </trkpt>
      <trkpt lat="49.92997" lon="2.46339">
        <ele>96.6</ele>
        <time>2022-03-30T13:29:44Z</time>
      </trkpt>
      <trkpt lat="49.92997" lon="2.46338">
        <ele>96.6</ele>
        <time>2022-03-30T13:29:45Z</time>
      </trkpt>
      <trkpt lat="49.92998" lon="2.46336">
        <ele>96.6</ele>
        <time>2022-03-30T13:29:46Z</time>
      </trkpt>
      <trkpt lat="49.92999" lon="2.46335">
        <ele>96.6</ele>
        <time>2022-03-30T13:29:47Z</time>
      </trkpt>
      <trkpt lat="49.93" lon="2.46334">
        <ele>96.6</ele>
        <time>2022-03-30T13:29:48Z</time>
      </trkpt>
      <trkpt lat="49.93001" lon="2.46332">
        <ele>96.5</ele>
        <time>2022-03-30T13:29:49Z</time>
      </trkpt>
      <trkpt lat="49.93001" lon="2.46331">
        <ele>96.5</ele>
        <time>2022-03-30T13:29:50Z</time>
      </trkpt>
      <trkpt lat="49.93002" lon="2.4633">
        <ele>96.5</ele>
        <time>2022-03-30T13:29:51Z</time>
      </trkpt>
      <trkpt lat="49.93003" lon="2.46328">
        <ele>96.5</ele>
        <time>2022-03-30T13:29:52Z</time>
      </trkpt>
      <trkpt lat="49.93004" lon="2.46327">
        <ele>96.5</ele>
        <time>2022-03-30T13:29:53Z</time>
      </trkpt>
      <trkpt lat="49.93005" lon="2.46326">
        <ele>96.5</ele>
        <time>2022-03-30T13:29:54Z</time>
      </trkpt>
      <trkpt lat="49.93005" lon="2.46325">
        <ele>96.5</ele>
        <time>2022-03-30T13:29:55Z</time>
      </trkpt>
      <trkpt lat="49.93006" lon="2.46324">
        <ele>96.5</ele>
        <time>2022-03-30T13:29:56Z</time>
      </trkpt>
      <trkpt lat="49.93007" lon="2.46323">
        <ele>96.5</ele>
        <time>2022-03-30T13:29:57Z</time>
      </trkpt>
      <trkpt lat="49.93007" lon="2.46322">
        <ele>96.5</ele>
        <time>2022-03-30T13:29:58Z</time>
      </trkpt>
      <trkpt lat="49.93008" lon="2.46321">
        <ele>96.5</ele>
        <time>2022-03-30T13:29:59Z</time>
      </trkpt>
      <trkpt lat="49.93009" lon="2.4632">
        <ele>96.5</ele>
        <time>2022-03-30T13:30:00Z</time>
      </trkpt>
      <trkpt lat="49.9301" lon="2.46319">
        <ele>96.5</ele>
        <time>2022-03-30T13:30:01Z</time>
      </trkpt>
      <trkpt lat="49.93011" lon="2.46318">
        <ele>96.5</ele>
        <time>2022-03-30T13:30:02Z</time>
      </trkpt>
      <trkpt lat="49.93012" lon="2.46317">
        <ele>96.5</ele>
        <time>2022-03-30T13:30:03Z</time>
      </trkpt>
      <trkpt lat="49.93012" lon="2.46316">
        <ele>96.5</ele>
        <time>2022-03-30T13:30:04Z</time>
      </trkpt>
      <trkpt lat="49.93013" lon="2.46315">
        <ele>96.5</ele>
        <time>2022-03-30T13:30:05Z</time>
      </trkpt>
      <trkpt lat="49.93014" lon="2.46314">
        <ele>96.6</ele>
        <time>2022-03-30T13:30:06Z</time>
      </trkpt>
      <trkpt lat="49.93015" lon="2.46313">
        <ele>96.6</ele>
        <time>2022-03-30T13:30:07Z</time>
      </trkpt>
      <trkpt lat="49.93016" lon="2.46311">
        <ele>96.6</ele>
        <time>2022-03-30T13:30:08Z</time>
      </trkpt>
      <trkpt lat="49.93017" lon="2.4631">
        <ele>96.6</ele>
        <time>2022-03-30T13:30:09Z</time>
      </trkpt>
      <trkpt lat="49.93018" lon="2.46309">
        <ele>96.6</ele>
        <time>2022-03-30T13:30:10Z</time>
      </trkpt>
      <trkpt lat="49.93018" lon="2.46308">
        <ele>96.6</ele>
        <time>2022-03-30T13:30:11Z</time>
      </trkpt>
      <trkpt lat="49.93019" lon="2.46307">
        <ele>96.6</ele>
        <time>2022-03-30T13:30:12Z</time>
      </trkpt>
      <trkpt lat="49.9302" lon="2.46306">
        <ele>96.7</ele>
        <time>2022-03-30T13:30:13Z</time>
      </trkpt>
      <trkpt lat="49.93022" lon="2.46304">
        <ele>96.7</ele>
        <time>2022-03-30T13:30:14Z</time>
      </trkpt>
      <trkpt lat="49.93023" lon="2.46303">
        <ele>96.7</ele>
        <time>2022-03-30T13:30:15Z</time>
      </trkpt>
      <trkpt lat="49.93023" lon="2.46303">
        <ele>96.7</ele>
        <time>2022-03-30T13:30:16Z</time>
      </trkpt>
      <trkpt lat="49.93025" lon="2.463">
        <ele>96.7</ele>
        <time>2022-03-30T13:30:17Z</time>
      </trkpt>
      <trkpt lat="49.93026" lon="2.463">
        <ele>96.8</ele>
        <time>2022-03-30T13:30:18Z</time>
      </trkpt>
      <trkpt lat="49.93026" lon="2.46299">
        <ele>96.8</ele>
        <time>2022-03-30T13:30:19Z</time>
      </trkpt>
      <trkpt lat="49.93028" lon="2.46297">
        <ele>96.8</ele>
        <time>2022-03-30T13:30:20Z</time>
      </trkpt>
      <trkpt lat="49.93029" lon="2.46296">
        <ele>96.8</ele>
        <time>2022-03-30T13:30:21Z</time>
      </trkpt>
      <trkpt lat="49.9303" lon="2.46295">
        <ele>96.8</ele>
        <time>2022-03-30T13:30:22Z</time>
      </trkpt>
      <trkpt lat="49.93031" lon="2.46294">
        <ele>96.9</ele>
        <time>2022-03-30T13:30:23Z</time>
      </trkpt>
      <trkpt lat="49.93032" lon="2.46293">
        <ele>96.9</ele>
        <time>2022-03-30T13:30:24Z</time>
      </trkpt>
      <trkpt lat="49.93032" lon="2.46292">
        <ele>96.9</ele>
        <time>2022-03-30T13:30:25Z</time>
      </trkpt>
      <trkpt lat="49.93034" lon="2.46291">
        <ele>96.9</ele>
        <time>2022-03-30T13:30:26Z</time>
      </trkpt>
      <trkpt lat="49.93035" lon="2.4629">
        <ele>96.9</ele>
        <time>2022-03-30T13:30:27Z</time>
      </trkpt>
      <trkpt lat="49.93036" lon="2.46288">
        <ele>97</ele>
        <time>2022-03-30T13:30:28Z</time>
      </trkpt>
      <trkpt lat="49.93037" lon="2.46287">
        <ele>97</ele>
        <time>2022-03-30T13:30:29Z</time>
      </trkpt>
      <trkpt lat="49.93038" lon="2.46287">
        <ele>97</ele>
        <time>2022-03-30T13:30:30Z</time>
      </trkpt>
      <trkpt lat="49.93039" lon="2.46285">
        <ele>97</ele>
        <time>2022-03-30T13:30:31Z</time>
      </trkpt>
      <trkpt lat="49.9304" lon="2.46284">
        <ele>97</ele>
        <time>2022-03-30T13:30:32Z</time>
      </trkpt>
      <trkpt lat="49.93041" lon="2.46284">
        <ele>97</ele>
        <time>2022-03-30T13:30:33Z</time>
      </trkpt>
      <trkpt lat="49.93041" lon="2.46283">
        <ele>97</ele>
        <time>2022-03-30T13:30:34Z</time>
      </trkpt>
      <trkpt lat="49.93042" lon="2.46282">
        <ele>97.1</ele>
        <time>2022-03-30T13:30:35Z</time>
      </trkpt>
      <trkpt lat="49.93043" lon="2.46281">
        <ele>97.1</ele>
        <time>2022-03-30T13:30:36Z</time>
      </trkpt>
      <trkpt lat="49.93045" lon="2.46279">
        <ele>97.1</ele>
        <time>2022-03-30T13:30:37Z</time>
      </trkpt>
      <trkpt lat="49.93046" lon="2.46278">
        <ele>97.1</ele>
        <time>2022-03-30T13:30:38Z</time>
      </trkpt>
      <trkpt lat="49.93046" lon="2.46277">
        <ele>97.1</ele>
        <time>2022-03-30T13:30:39Z</time>
      </trkpt>
      <trkpt lat="49.93047" lon="2.46276">
        <ele>97.1</ele>
        <time>2022-03-30T13:30:40Z</time>
      </trkpt>
      <trkpt lat="49.93048" lon="2.46275">
        <ele>97.2</ele>
        <time>2022-03-30T13:30:41Z</time>
      </trkpt>
      <trkpt lat="49.93049" lon="2.46275">
        <ele>97.2</ele>
        <time>2022-03-30T13:30:42Z</time>
      </trkpt>
      <trkpt lat="49.9305" lon="2.46274">
        <ele>97.2</ele>
        <time>2022-03-30T13:30:43Z</time>
      </trkpt>
      <trkpt lat="49.93051" lon="2.46273">
        <ele>97.2</ele>
        <time>2022-03-30T13:30:44Z</time>
      </trkpt>
      <trkpt lat="49.93052" lon="2.46272">
        <ele>97.2</ele>
        <time>2022-03-30T13:30:45Z</time>
      </trkpt>
      <trkpt lat="49.93054" lon="2.4627">
        <ele>97.2</ele>
        <time>2022-03-30T13:30:46Z</time>
      </trkpt>
      <trkpt lat="49.93055" lon="2.46269">
        <ele>97.2</ele>
        <time>2022-03-30T13:30:47Z</time>
      </trkpt>
      <trkpt lat="49.93055" lon="2.46268">
        <ele>97.2</ele>
        <time>2022-03-30T13:30:48Z</time>
      </trkpt>
      <trkpt lat="49.93056" lon="2.46267">
        <ele>97.3</ele>
        <time>2022-03-30T13:30:49Z</time>
      </trkpt>
      <trkpt lat="49.93057" lon="2.46266">
        <ele>97.3</ele>
        <time>2022-03-30T13:30:50Z</time>
      </trkpt>
      <trkpt lat="49.93058" lon="2.46265">
        <ele>97.3</ele>
        <time>2022-03-30T13:30:51Z</time>
      </trkpt>
      <trkpt lat="49.93059" lon="2.46264">
        <ele>97.3</ele>
        <time>2022-03-30T13:30:52Z</time>
      </trkpt>
      <trkpt lat="49.9306" lon="2.46263">
        <ele>97.3</ele>
        <time>2022-03-30T13:30:53Z</time>
      </trkpt>
      <trkpt lat="49.93061" lon="2.46262">
        <ele>97.3</ele>
        <time>2022-03-30T13:30:54Z</time>
      </trkpt>
      <trkpt lat="49.93061" lon="2.46261">
        <ele>97.3</ele>
        <time>2022-03-30T13:30:55Z</time>
      </trkpt>
      <trkpt lat="49.93062" lon="2.4626">
        <ele>97.3</ele>
        <time>2022-03-30T13:30:56Z</time>
      </trkpt>
      <trkpt lat="49.93063" lon="2.46259">
        <ele>97.3</ele>
        <time>2022-03-30T13:30:57Z</time>
      </trkpt>
      <trkpt lat="49.93065" lon="2.46257">
        <ele>97.3</ele>
        <time>2022-03-30T13:30:58Z</time>
      </trkpt>
      <trkpt lat="49.93065" lon="2.46256">
        <ele>97.3</ele>
        <time>2022-03-30T13:30:59Z</time>
      </trkpt>
      <trkpt lat="49.93066" lon="2.46255">
        <ele>97.3</ele>
        <time>2022-03-30T13:31:00Z</time>
      </trkpt>
      <trkpt lat="49.93067" lon="2.46254">
        <ele>97.3</ele>
        <time>2022-03-30T13:31:01Z</time>
      </trkpt>
      <trkpt lat="49.93068" lon="2.46253">
        <ele>97.3</ele>
        <time>2022-03-30T13:31:02Z</time>
      </trkpt>
      <trkpt lat="49.93069" lon="2.46252">
        <ele>97.3</ele>
        <time>2022-03-30T13:31:03Z</time>
      </trkpt>
      <trkpt lat="49.9307" lon="2.46251">
        <ele>97.3</ele>
        <time>2022-03-30T13:31:04Z</time>
      </trkpt>
      <trkpt lat="49.93071" lon="2.4625">
        <ele>97.3</ele>
        <time>2022-03-30T13:31:05Z</time>
      </trkpt>
      <trkpt lat="49.93072" lon="2.46249">
        <ele>97.3</ele>
        <time>2022-03-30T13:31:06Z</time>
      </trkpt>
      <trkpt lat="49.93073" lon="2.46248">
        <ele>97.3</ele>
        <time>2022-03-30T13:31:07Z</time>
      </trkpt>
      <trkpt lat="49.93074" lon="2.46247">
        <ele>97.3</ele>
        <time>2022-03-30T13:31:08Z</time>
      </trkpt>
      <trkpt lat="49.93075" lon="2.46246">
        <ele>97.3</ele>
        <time>2022-03-30T13:31:09Z</time>
      </trkpt>
      <trkpt lat="49.93076" lon="2.46245">
        <ele>97.3</ele>
        <time>2022-03-30T13:31:10Z</time>
      </trkpt>
      <trkpt lat="49.93077" lon="2.46244">
        <ele>97.3</ele>
        <time>2022-03-30T13:31:11Z</time>
      </trkpt>
      <trkpt lat="49.93079" lon="2.46242">
        <ele>97.3</ele>
        <time>2022-03-30T13:31:12Z</time>
      </trkpt>
      <trkpt lat="49.9308" lon="2.46242">
        <ele>97.3</ele>
        <time>2022-03-30T13:31:13Z</time>
      </trkpt>
      <trkpt lat="49.9308" lon="2.46241">
        <ele>97.3</ele>
        <time>2022-03-30T13:31:14Z</time>
      </trkpt>
      <trkpt lat="49.93081" lon="2.4624">
        <ele>97.3</ele>
        <time>2022-03-30T13:31:15Z</time>
      </trkpt>
      <trkpt lat="49.93082" lon="2.4624">
        <ele>97.3</ele>
        <time>2022-03-30T13:31:16Z</time>
      </trkpt>
      <trkpt lat="49.93083" lon="2.46238">
        <ele>97.3</ele>
        <time>2022-03-30T13:31:17Z</time>
      </trkpt>
      <trkpt lat="49.93085" lon="2.46237">
        <ele>97.3</ele>
        <time>2022-03-30T13:31:18Z</time>
      </trkpt>
      <trkpt lat="49.93086" lon="2.46236">
        <ele>97.3</ele>
        <time>2022-03-30T13:31:19Z</time>
      </trkpt>
      <trkpt lat="49.93086" lon="2.46235">
        <ele>97.3</ele>
        <time>2022-03-30T13:31:20Z</time>
      </trkpt>
      <trkpt lat="49.93087" lon="2.46234">
        <ele>97.3</ele>
        <time>2022-03-30T13:31:21Z</time>
      </trkpt>
      <trkpt lat="49.93089" lon="2.46233">
        <ele>97.3</ele>
        <time>2022-03-30T13:31:22Z</time>
      </trkpt>
      <trkpt lat="49.9309" lon="2.46232">
        <ele>97.3</ele>
        <time>2022-03-30T13:31:23Z</time>
      </trkpt>
      <trkpt lat="49.93091" lon="2.46231">
        <ele>97.3</ele>
        <time>2022-03-30T13:31:24Z</time>
      </trkpt>
      <trkpt lat="49.93091" lon="2.4623">
        <ele>97.3</ele>
        <time>2022-03-30T13:31:25Z</time>
      </trkpt>
      <trkpt lat="49.93092" lon="2.46229">
        <ele>97.3</ele>
        <time>2022-03-30T13:31:26Z</time>
      </trkpt>
      <trkpt lat="49.93093" lon="2.46228">
        <ele>97.3</ele>
        <time>2022-03-30T13:31:27Z</time>
      </trkpt>
      <trkpt lat="49.93094" lon="2.46227">
        <ele>97.3</ele>
        <time>2022-03-30T13:31:28Z</time>
      </trkpt>
      <trkpt lat="49.93095" lon="2.46226">
        <ele>97.3</ele>
        <time>2022-03-30T13:31:29Z</time>
      </trkpt>
      <trkpt lat="49.93096" lon="2.46225">
        <ele>97.3</ele>
        <time>2022-03-30T13:31:30Z</time>
      </trkpt>
      <trkpt lat="49.93097" lon="2.46224">
        <ele>97.3</ele>
        <time>2022-03-30T13:31:31Z</time>
      </trkpt>
      <trkpt lat="49.93097" lon="2.46223">
        <ele>97.3</ele>
        <time>2022-03-30T13:31:32Z</time>
      </trkpt>
      <trkpt lat="49.93098" lon="2.46222">
        <ele>97.3</ele>
        <time>2022-03-30T13:31:33Z</time>
      </trkpt>
      <trkpt lat="49.93099" lon="2.46221">
        <ele>97.3</ele>
        <time>2022-03-30T13:31:34Z</time>
      </trkpt>
      <trkpt lat="49.931" lon="2.4622">
        <ele>97.3</ele>
        <time>2022-03-30T13:31:35Z</time>
      </trkpt>
      <trkpt lat="49.93101" lon="2.46219">
        <ele>97.3</ele>
        <time>2022-03-30T13:31:36Z</time>
      </trkpt>
      <trkpt lat="49.93101" lon="2.46218">
        <ele>97.3</ele>
        <time>2022-03-30T13:31:37Z</time>
      </trkpt>
      <trkpt lat="49.93103" lon="2.46216">
        <ele>97.3</ele>
        <time>2022-03-30T13:31:38Z</time>
      </trkpt>
      <trkpt lat="49.93104" lon="2.46215">
        <ele>97.3</ele>
        <time>2022-03-30T13:31:39Z</time>
      </trkpt>
      <trkpt lat="49.93104" lon="2.46214">
        <ele>97.3</ele>
        <time>2022-03-30T13:31:40Z</time>
      </trkpt>
      <trkpt lat="49.93105" lon="2.46213">
        <ele>97.3</ele>
        <time>2022-03-30T13:31:41Z</time>
      </trkpt>
      <trkpt lat="49.93106" lon="2.46212">
        <ele>97.3</ele>
        <time>2022-03-30T13:31:42Z</time>
      </trkpt>
      <trkpt lat="49.93107" lon="2.46211">
        <ele>97.3</ele>
        <time>2022-03-30T13:31:43Z</time>
      </trkpt>
      <trkpt lat="49.93107" lon="2.4621">
        <ele>97.3</ele>
        <time>2022-03-30T13:31:44Z</time>
      </trkpt>
      <trkpt lat="49.93108" lon="2.46209">
        <ele>97.3</ele>
        <time>2022-03-30T13:31:45Z</time>
      </trkpt>
      <trkpt lat="49.93109" lon="2.46207">
        <ele>97.3</ele>
        <time>2022-03-30T13:31:46Z</time>
      </trkpt>
      <trkpt lat="49.9311" lon="2.46206">
        <ele>97.3</ele>
        <time>2022-03-30T13:31:47Z</time>
      </trkpt>
      <trkpt lat="49.93111" lon="2.46205">
        <ele>97.3</ele>
        <time>2022-03-30T13:31:48Z</time>
      </trkpt>
      <trkpt lat="49.93112" lon="2.46204">
        <ele>97.3</ele>
        <time>2022-03-30T13:31:49Z</time>
      </trkpt>
      <trkpt lat="49.93113" lon="2.46203">
        <ele>97.3</ele>
        <time>2022-03-30T13:31:50Z</time>
      </trkpt>
      <trkpt lat="49.93114" lon="2.46202">
        <ele>97.3</ele>
        <time>2022-03-30T13:31:51Z</time>
      </trkpt>
      <trkpt lat="49.93114" lon="2.46201">
        <ele>97.3</ele>
        <time>2022-03-30T13:31:52Z</time>
      </trkpt>
      <trkpt lat="49.93115" lon="2.462">
        <ele>97.3</ele>
        <time>2022-03-30T13:31:53Z</time>
      </trkpt>
      <trkpt lat="49.93116" lon="2.462">
        <ele>97.3</ele>
        <time>2022-03-30T13:31:54Z</time>
      </trkpt>
      <trkpt lat="49.93116" lon="2.46199">
        <ele>97.3</ele>
        <time>2022-03-30T13:31:55Z</time>
      </trkpt>
      <trkpt lat="49.93117" lon="2.46198">
        <ele>97.3</ele>
        <time>2022-03-30T13:31:56Z</time>
      </trkpt>
      <trkpt lat="49.93118" lon="2.46197">
        <ele>97.4</ele>
        <time>2022-03-30T13:31:57Z</time>
      </trkpt>
      <trkpt lat="49.93119" lon="2.46196">
        <ele>97.4</ele>
        <time>2022-03-30T13:31:58Z</time>
      </trkpt>
      <trkpt lat="49.9312" lon="2.46195">
        <ele>97.4</ele>
        <time>2022-03-30T13:31:59Z</time>
      </trkpt>
      <trkpt lat="49.93121" lon="2.46194">
        <ele>97.4</ele>
        <time>2022-03-30T13:32:00Z</time>
      </trkpt>
      <trkpt lat="49.93121" lon="2.46193">
        <ele>97.4</ele>
        <time>2022-03-30T13:32:01Z</time>
      </trkpt>
      <trkpt lat="49.93122" lon="2.46192">
        <ele>97.4</ele>
        <time>2022-03-30T13:32:02Z</time>
      </trkpt>
      <trkpt lat="49.93123" lon="2.46191">
        <ele>97.4</ele>
        <time>2022-03-30T13:32:03Z</time>
      </trkpt>
      <trkpt lat="49.93123" lon="2.46191">
        <ele>97.4</ele>
        <time>2022-03-30T13:32:04Z</time>
      </trkpt>
      <trkpt lat="49.93124" lon="2.4619">
        <ele>97.4</ele>
        <time>2022-03-30T13:32:05Z</time>
      </trkpt>
      <trkpt lat="49.93125" lon="2.46189">
        <ele>97.4</ele>
        <time>2022-03-30T13:32:06Z</time>
      </trkpt>
      <trkpt lat="49.93126" lon="2.46188">
        <ele>97.4</ele>
        <time>2022-03-30T13:32:07Z</time>
      </trkpt>
      <trkpt lat="49.93127" lon="2.46187">
        <ele>97.4</ele>
        <time>2022-03-30T13:32:08Z</time>
      </trkpt>
      <trkpt lat="49.93128" lon="2.46185">
        <ele>97.4</ele>
        <time>2022-03-30T13:32:09Z</time>
      </trkpt>
      <trkpt lat="49.93129" lon="2.46184">
        <ele>97.4</ele>
        <time>2022-03-30T13:32:10Z</time>
      </trkpt>
      <trkpt lat="49.9313" lon="2.46183">
        <ele>97.5</ele>
        <time>2022-03-30T13:32:11Z</time>
      </trkpt>
      <trkpt lat="49.93131" lon="2.46182">
        <ele>97.5</ele>
        <time>2022-03-30T13:32:12Z</time>
      </trkpt>
      <trkpt lat="49.93132" lon="2.46181">
        <ele>97.5</ele>
        <time>2022-03-30T13:32:13Z</time>
      </trkpt>
      <trkpt lat="49.93132" lon="2.4618">
        <ele>97.5</ele>
        <time>2022-03-30T13:32:14Z</time>
      </trkpt>
      <trkpt lat="49.93133" lon="2.46179">
        <ele>97.5</ele>
        <time>2022-03-30T13:32:15Z</time>
      </trkpt>
      <trkpt lat="49.93134" lon="2.46178">
        <ele>97.5</ele>
        <time>2022-03-30T13:32:16Z</time>
      </trkpt>
      <trkpt lat="49.93135" lon="2.46177">
        <ele>97.5</ele>
        <time>2022-03-30T13:32:17Z</time>
      </trkpt>
      <trkpt lat="49.93135" lon="2.46176">
        <ele>97.5</ele>
        <time>2022-03-30T13:32:18Z</time>
      </trkpt>
      <trkpt lat="49.93136" lon="2.46175">
        <ele>97.5</ele>
        <time>2022-03-30T13:32:19Z</time>
      </trkpt>
      <trkpt lat="49.93137" lon="2.46174">
        <ele>97.5</ele>
        <time>2022-03-30T13:32:20Z</time>
      </trkpt>
      <trkpt lat="49.93138" lon="2.46173">
        <ele>97.5</ele>
        <time>2022-03-30T13:32:21Z</time>
      </trkpt>
      <trkpt lat="49.93139" lon="2.46172">
        <ele>97.5</ele>
        <time>2022-03-30T13:32:22Z</time>
      </trkpt>
      <trkpt lat="49.9314" lon="2.46171">
        <ele>97.5</ele>
        <time>2022-03-30T13:32:23Z</time>
      </trkpt>
      <trkpt lat="49.9314" lon="2.4617">
        <ele>97.6</ele>
        <time>2022-03-30T13:32:24Z</time>
      </trkpt>
      <trkpt lat="49.93141" lon="2.46169">
        <ele>97.6</ele>
        <time>2022-03-30T13:32:25Z</time>
      </trkpt>
      <trkpt lat="49.93142" lon="2.46168">
        <ele>97.6</ele>
        <time>2022-03-30T13:32:26Z</time>
      </trkpt>
      <trkpt lat="49.93143" lon="2.46167">
        <ele>97.6</ele>
        <time>2022-03-30T13:32:27Z</time>
      </trkpt>
      <trkpt lat="49.93144" lon="2.46166">
        <ele>97.6</ele>
        <time>2022-03-30T13:32:28Z</time>
      </trkpt>
      <trkpt lat="49.93145" lon="2.46165">
        <ele>97.6</ele>
        <time>2022-03-30T13:32:29Z</time>
      </trkpt>
      <trkpt lat="49.93146" lon="2.46164">
        <ele>97.6</ele>
        <time>2022-03-30T13:32:30Z</time>
      </trkpt>
      <trkpt lat="49.93146" lon="2.46163">
        <ele>97.6</ele>
        <time>2022-03-30T13:32:31Z</time>
      </trkpt>
      <trkpt lat="49.93147" lon="2.46162">
        <ele>97.6</ele>
        <time>2022-03-30T13:32:32Z</time>
      </trkpt>
      <trkpt lat="49.93148" lon="2.46161">
        <ele>97.6</ele>
        <time>2022-03-30T13:32:33Z</time>
      </trkpt>
      <trkpt lat="49.93149" lon="2.4616">
        <ele>97.6</ele>
        <time>2022-03-30T13:32:34Z</time>
      </trkpt>
      <trkpt lat="49.9315" lon="2.46159">
        <ele>97.6</ele>
        <time>2022-03-30T13:32:35Z</time>
      </trkpt>
      <trkpt lat="49.93151" lon="2.46157">
        <ele>97.7</ele>
        <time>2022-03-30T13:32:36Z</time>
      </trkpt>
      <trkpt lat="49.93152" lon="2.46156">
        <ele>97.7</ele>
        <time>2022-03-30T13:32:37Z</time>
      </trkpt>
      <trkpt lat="49.93153" lon="2.46155">
        <ele>97.7</ele>
        <time>2022-03-30T13:32:38Z</time>
      </trkpt>
      <trkpt lat="49.93154" lon="2.46154">
        <ele>97.7</ele>
        <time>2022-03-30T13:32:39Z</time>
      </trkpt>
      <trkpt lat="49.93154" lon="2.46153">
        <ele>97.7</ele>
        <time>2022-03-30T13:32:40Z</time>
      </trkpt>
      <trkpt lat="49.93155" lon="2.46152">
        <ele>97.7</ele>
        <time>2022-03-30T13:32:41Z</time>
      </trkpt>
      <trkpt lat="49.93157" lon="2.46151">
        <ele>97.7</ele>
        <time>2022-03-30T13:32:42Z</time>
      </trkpt>
      <trkpt lat="49.93158" lon="2.4615">
        <ele>97.7</ele>
        <time>2022-03-30T13:32:43Z</time>
      </trkpt>
      <trkpt lat="49.9316" lon="2.46149">
        <ele>97.7</ele>
        <time>2022-03-30T13:32:44Z</time>
      </trkpt>
      <trkpt lat="49.9316" lon="2.46148">
        <ele>97.7</ele>
        <time>2022-03-30T13:32:45Z</time>
      </trkpt>
      <trkpt lat="49.93161" lon="2.46147">
        <ele>97.7</ele>
        <time>2022-03-30T13:32:46Z</time>
      </trkpt>
      <trkpt lat="49.93162" lon="2.46146">
        <ele>97.7</ele>
        <time>2022-03-30T13:32:47Z</time>
      </trkpt>
      <trkpt lat="49.93164" lon="2.46144">
        <ele>97.7</ele>
        <time>2022-03-30T13:32:48Z</time>
      </trkpt>
      <trkpt lat="49.93164" lon="2.46143">
        <ele>97.7</ele>
        <time>2022-03-30T13:32:49Z</time>
      </trkpt>
      <trkpt lat="49.93165" lon="2.46143">
        <ele>97.7</ele>
        <time>2022-03-30T13:32:50Z</time>
      </trkpt>
      <trkpt lat="49.93166" lon="2.46142">
        <ele>97.7</ele>
        <time>2022-03-30T13:32:51Z</time>
      </trkpt>
      <trkpt lat="49.93167" lon="2.46141">
        <ele>97.7</ele>
        <time>2022-03-30T13:32:52Z</time>
      </trkpt>
      <trkpt lat="49.93168" lon="2.4614">
        <ele>97.7</ele>
        <time>2022-03-30T13:32:53Z</time>
      </trkpt>
      <trkpt lat="49.93169" lon="2.46139">
        <ele>97.7</ele>
        <time>2022-03-30T13:32:54Z</time>
      </trkpt>
      <trkpt lat="49.9317" lon="2.46138">
        <ele>97.7</ele>
        <time>2022-03-30T13:32:55Z</time>
      </trkpt>
      <trkpt lat="49.93171" lon="2.46137">
        <ele>97.7</ele>
        <time>2022-03-30T13:32:56Z</time>
      </trkpt>
      <trkpt lat="49.93172" lon="2.46136">
        <ele>97.7</ele>
        <time>2022-03-30T13:32:57Z</time>
      </trkpt>
      <trkpt lat="49.93173" lon="2.46134">
        <ele>97.7</ele>
        <time>2022-03-30T13:32:58Z</time>
      </trkpt>
      <trkpt lat="49.93174" lon="2.46134">
        <ele>97.7</ele>
        <time>2022-03-30T13:32:59Z</time>
      </trkpt>
      <trkpt lat="49.93174" lon="2.46133">
        <ele>97.7</ele>
        <time>2022-03-30T13:33:00Z</time>
      </trkpt>
      <trkpt lat="49.93175" lon="2.46132">
        <ele>97.7</ele>
        <time>2022-03-30T13:33:01Z</time>
      </trkpt>
      <trkpt lat="49.93176" lon="2.46131">
        <ele>97.8</ele>
        <time>2022-03-30T13:33:02Z</time>
      </trkpt>
      <trkpt lat="49.93177" lon="2.4613">
        <ele>97.8</ele>
        <time>2022-03-30T13:33:03Z</time>
      </trkpt>
      <trkpt lat="49.93178" lon="2.46129">
        <ele>97.8</ele>
        <time>2022-03-30T13:33:04Z</time>
      </trkpt>
      <trkpt lat="49.93178" lon="2.46128">
        <ele>97.8</ele>
        <time>2022-03-30T13:33:05Z</time>
      </trkpt>
      <trkpt lat="49.93179" lon="2.46128">
        <ele>97.8</ele>
        <time>2022-03-30T13:33:06Z</time>
      </trkpt>
      <trkpt lat="49.93181" lon="2.46126">
        <ele>97.8</ele>
        <time>2022-03-30T13:33:07Z</time>
      </trkpt>
      <trkpt lat="49.93182" lon="2.46125">
        <ele>97.8</ele>
        <time>2022-03-30T13:33:08Z</time>
      </trkpt>
      <trkpt lat="49.93183" lon="2.46125">
        <ele>97.8</ele>
        <time>2022-03-30T13:33:09Z</time>
      </trkpt>
      <trkpt lat="49.93184" lon="2.46124">
        <ele>97.8</ele>
        <time>2022-03-30T13:33:10Z</time>
      </trkpt>
      <trkpt lat="49.93185" lon="2.46123">
        <ele>97.8</ele>
        <time>2022-03-30T13:33:11Z</time>
      </trkpt>
      <trkpt lat="49.93186" lon="2.46122">
        <ele>97.8</ele>
        <time>2022-03-30T13:33:12Z</time>
      </trkpt>
      <trkpt lat="49.93186" lon="2.46121">
        <ele>97.8</ele>
        <time>2022-03-30T13:33:13Z</time>
      </trkpt>
      <trkpt lat="49.93187" lon="2.4612">
        <ele>97.8</ele>
        <time>2022-03-30T13:33:14Z</time>
      </trkpt>
      <trkpt lat="49.93188" lon="2.46119">
        <ele>97.8</ele>
        <time>2022-03-30T13:33:15Z</time>
      </trkpt>
      <trkpt lat="49.93189" lon="2.46119">
        <ele>97.8</ele>
        <time>2022-03-30T13:33:16Z</time>
      </trkpt>
      <trkpt lat="49.93191" lon="2.46117">
        <ele>97.8</ele>
        <time>2022-03-30T13:33:17Z</time>
      </trkpt>
      <trkpt lat="49.93192" lon="2.46116">
        <ele>97.8</ele>
        <time>2022-03-30T13:33:18Z</time>
      </trkpt>
      <trkpt lat="49.93192" lon="2.46115">
        <ele>97.8</ele>
        <time>2022-03-30T13:33:19Z</time>
      </trkpt>
      <trkpt lat="49.93193" lon="2.46115">
        <ele>97.8</ele>
        <time>2022-03-30T13:33:20Z</time>
      </trkpt>
      <trkpt lat="49.93194" lon="2.46114">
        <ele>97.8</ele>
        <time>2022-03-30T13:33:21Z</time>
      </trkpt>
      <trkpt lat="49.93195" lon="2.46113">
        <ele>97.8</ele>
        <time>2022-03-30T13:33:22Z</time>
      </trkpt>
      <trkpt lat="49.93196" lon="2.46112">
        <ele>97.8</ele>
        <time>2022-03-30T13:33:23Z</time>
      </trkpt>
      <trkpt lat="49.93198" lon="2.46111">
        <ele>97.8</ele>
        <time>2022-03-30T13:33:24Z</time>
      </trkpt>
      <trkpt lat="49.93199" lon="2.4611">
        <ele>97.8</ele>
        <time>2022-03-30T13:33:25Z</time>
      </trkpt>
      <trkpt lat="49.93199" lon="2.46109">
        <ele>97.8</ele>
        <time>2022-03-30T13:33:26Z</time>
      </trkpt>
      <trkpt lat="49.932" lon="2.46108">
        <ele>97.8</ele>
        <time>2022-03-30T13:33:27Z</time>
      </trkpt>
      <trkpt lat="49.93201" lon="2.46107">
        <ele>97.8</ele>
        <time>2022-03-30T13:33:28Z</time>
      </trkpt>
      <trkpt lat="49.93202" lon="2.46107">
        <ele>97.8</ele>
        <time>2022-03-30T13:33:29Z</time>
      </trkpt>
      <trkpt lat="49.93203" lon="2.46106">
        <ele>97.8</ele>
        <time>2022-03-30T13:33:30Z</time>
      </trkpt>
      <trkpt lat="49.93204" lon="2.46105">
        <ele>97.8</ele>
        <time>2022-03-30T13:33:31Z</time>
      </trkpt>
      <trkpt lat="49.93204" lon="2.46104">
        <ele>97.8</ele>
        <time>2022-03-30T13:33:32Z</time>
      </trkpt>
      <trkpt lat="49.93205" lon="2.46102">
        <ele>97.9</ele>
        <time>2022-03-30T13:33:33Z</time>
      </trkpt>
      <trkpt lat="49.93206" lon="2.46101">
        <ele>97.9</ele>
        <time>2022-03-30T13:33:34Z</time>
      </trkpt>
      <trkpt lat="49.93207" lon="2.461">
        <ele>98.2</ele>
        <time>2022-03-30T13:33:35Z</time>
      </trkpt>
      <trkpt lat="49.93207" lon="2.46099">
        <ele>98.2</ele>
        <time>2022-03-30T13:33:36Z</time>
      </trkpt>
      <trkpt lat="49.93208" lon="2.46097">
        <ele>98.2</ele>
        <time>2022-03-30T13:33:37Z</time>
      </trkpt>
      <trkpt lat="49.93208" lon="2.46096">
        <ele>98.2</ele>
        <time>2022-03-30T13:33:38Z</time>
      </trkpt>
      <trkpt lat="49.93208" lon="2.46095">
        <ele>98.2</ele>
        <time>2022-03-30T13:33:39Z</time>
      </trkpt>
      <trkpt lat="49.93208" lon="2.46094">
        <ele>98.2</ele>
        <time>2022-03-30T13:33:40Z</time>
      </trkpt>
      <trkpt lat="49.93208" lon="2.46094">
        <ele>98.2</ele>
        <time>2022-03-30T13:33:41Z</time>
      </trkpt>
      <trkpt lat="49.93208" lon="2.46094">
        <ele>98.2</ele>
        <time>2022-03-30T13:33:42Z</time>
      </trkpt>
      <trkpt lat="49.93208" lon="2.46094">
        <ele>98.2</ele>
        <time>2022-03-30T13:33:43Z</time>
      </trkpt>
      <trkpt lat="49.93208" lon="2.46094">
        <ele>98.2</ele>
        <time>2022-03-30T13:33:44Z</time>
      </trkpt>
      <trkpt lat="49.93208" lon="2.46094">
        <ele>98.2</ele>
        <time>2022-03-30T13:33:45Z</time>
      </trkpt>
      <trkpt lat="49.93208" lon="2.46094">
        <ele>98.2</ele>
        <time>2022-03-30T13:33:46Z</time>
      </trkpt>
      <trkpt lat="49.93208" lon="2.46094">
        <ele>98.2</ele>
        <time>2022-03-30T13:33:47Z</time>
      </trkpt>
      <trkpt lat="49.93207" lon="2.46094">
        <ele>98.2</ele>
        <time>2022-03-30T13:33:48Z</time>
      </trkpt>
      <trkpt lat="49.93207" lon="2.46094">
        <ele>98.2</ele>
        <time>2022-03-30T13:33:49Z</time>
      </trkpt>
      <trkpt lat="49.93207" lon="2.46094">
        <ele>98.2</ele>
        <time>2022-03-30T13:33:50Z</time>
      </trkpt>
      <trkpt lat="49.93207" lon="2.46094">
        <ele>98.2</ele>
        <time>2022-03-30T13:33:51Z</time>
      </trkpt>
      <trkpt lat="49.93207" lon="2.46094">
        <ele>98.2</ele>
        <time>2022-03-30T13:33:52Z</time>
      </trkpt>
      <trkpt lat="49.93207" lon="2.46094">
        <ele>98.2</ele>
        <time>2022-03-30T13:33:53Z</time>
      </trkpt>
      <trkpt lat="49.93207" lon="2.46094">
        <ele>98.2</ele>
        <time>2022-03-30T13:33:54Z</time>
      </trkpt>
      <trkpt lat="49.93207" lon="2.46094">
        <ele>98.2</ele>
        <time>2022-03-30T13:33:55Z</time>
      </trkpt>
      <trkpt lat="49.93207" lon="2.46094">
        <ele>98.2</ele>
        <time>2022-03-30T13:33:56Z</time>
      </trkpt>
      <trkpt lat="49.93207" lon="2.46094">
        <ele>98.2</ele>
        <time>2022-03-30T13:33:57Z</time>
      </trkpt>
      <trkpt lat="49.93207" lon="2.46094">
        <ele>98.2</ele>
        <time>2022-03-30T13:33:58Z</time>
      </trkpt>
      <trkpt lat="49.93207" lon="2.46094">
        <ele>98.2</ele>
        <time>2022-03-30T13:33:59Z</time>
      </trkpt>
      <trkpt lat="49.93207" lon="2.46095">
        <ele>98.2</ele>
        <time>2022-03-30T13:34:00Z</time>
      </trkpt>
      <trkpt lat="49.93207" lon="2.46095">
        <ele>98.2</ele>
        <time>2022-03-30T13:34:01Z</time>
      </trkpt>
      <trkpt lat="49.93207" lon="2.46095">
        <ele>98.2</ele>
        <time>2022-03-30T13:34:02Z</time>
      </trkpt>
      <trkpt lat="49.93207" lon="2.46095">
        <ele>98.2</ele>
        <time>2022-03-30T13:34:03Z</time>
      </trkpt>
      <trkpt lat="49.93207" lon="2.46095">
        <ele>98.2</ele>
        <time>2022-03-30T13:34:04Z</time>
      </trkpt>
      <trkpt lat="49.93207" lon="2.46095">
        <ele>98.2</ele>
        <time>2022-03-30T13:34:05Z</time>
      </trkpt>
      <trkpt lat="49.93207" lon="2.46095">
        <ele>98.2</ele>
        <time>2022-03-30T13:34:06Z</time>
      </trkpt>
      <trkpt lat="49.93207" lon="2.46095">
        <ele>98.2</ele>
        <time>2022-03-30T13:34:07Z</time>
      </trkpt>
      <trkpt lat="49.93207" lon="2.46095">
        <ele>98.2</ele>
        <time>2022-03-30T13:34:08Z</time>
      </trkpt>
      <trkpt lat="49.93207" lon="2.46095">
        <ele>98.2</ele>
        <time>2022-03-30T13:34:09Z</time>
      </trkpt>
      <trkpt lat="49.93207" lon="2.46095">
        <ele>98.2</ele>
        <time>2022-03-30T13:34:10Z</time>
      </trkpt>
      <trkpt lat="49.93207" lon="2.46095">
        <ele>98.2</ele>
        <time>2022-03-30T13:34:11Z</time>
      </trkpt>
      <trkpt lat="49.93207" lon="2.46095">
        <ele>98.2</ele>
        <time>2022-03-30T13:34:12Z</time>
      </trkpt>
      <trkpt lat="49.93207" lon="2.46095">
        <ele>98.2</ele>
        <time>2022-03-30T13:34:13Z</time>
      </trkpt>
      <trkpt lat="49.93207" lon="2.46097">
        <ele>98.2</ele>
        <time>2022-03-30T13:34:14Z</time>
      </trkpt>
      <trkpt lat="49.93207" lon="2.46099">
        <ele>98.2</ele>
        <time>2022-03-30T13:34:15Z</time>
      </trkpt>
      <trkpt lat="49.93207" lon="2.461">
        <ele>98.2</ele>
        <time>2022-03-30T13:34:16Z</time>
      </trkpt>
      <trkpt lat="49.93207" lon="2.461">
        <ele>98.2</ele>
        <time>2022-03-30T13:34:17Z</time>
      </trkpt>
      <trkpt lat="49.93207" lon="2.46099">
        <ele>98.2</ele>
        <time>2022-03-30T13:34:18Z</time>
      </trkpt>
      <trkpt lat="49.93207" lon="2.46098">
        <ele>98.2</ele>
        <time>2022-03-30T13:34:19Z</time>
      </trkpt>
      <trkpt lat="49.93207" lon="2.46097">
        <ele>98.2</ele>
        <time>2022-03-30T13:34:20Z</time>
      </trkpt>
      <trkpt lat="49.93207" lon="2.46096">
        <ele>98.2</ele>
        <time>2022-03-30T13:34:21Z</time>
      </trkpt>
      <trkpt lat="49.93206" lon="2.46096">
        <ele>98.2</ele>
        <time>2022-03-30T13:34:22Z</time>
      </trkpt>
      <trkpt lat="49.93206" lon="2.46095">
        <ele>98.2</ele>
        <time>2022-03-30T13:34:23Z</time>
      </trkpt>
      <trkpt lat="49.93205" lon="2.46094">
        <ele>98.2</ele>
        <time>2022-03-30T13:34:24Z</time>
      </trkpt>
      <trkpt lat="49.93204" lon="2.46093">
        <ele>98.2</ele>
        <time>2022-03-30T13:34:25Z</time>
      </trkpt>
      <trkpt lat="49.93203" lon="2.46093">
        <ele>98.2</ele>
        <time>2022-03-30T13:34:26Z</time>
      </trkpt>
      <trkpt lat="49.93202" lon="2.46092">
        <ele>98.2</ele>
        <time>2022-03-30T13:34:27Z</time>
      </trkpt>
      <trkpt lat="49.93201" lon="2.46092">
        <ele>98.2</ele>
        <time>2022-03-30T13:34:28Z</time>
      </trkpt>
      <trkpt lat="49.93201" lon="2.46091">
        <ele>98.2</ele>
        <time>2022-03-30T13:34:29Z</time>
      </trkpt>
      <trkpt lat="49.932" lon="2.46091">
        <ele>98.2</ele>
        <time>2022-03-30T13:34:30Z</time>
      </trkpt>
      <trkpt lat="49.93198" lon="2.46091">
        <ele>98.2</ele>
        <time>2022-03-30T13:34:31Z</time>
      </trkpt>
      <trkpt lat="49.93198" lon="2.46091">
        <ele>98.1</ele>
        <time>2022-03-30T13:34:32Z</time>
      </trkpt>
      <trkpt lat="49.93197" lon="2.46091">
        <ele>98.1</ele>
        <time>2022-03-30T13:34:33Z</time>
      </trkpt>
      <trkpt lat="49.93196" lon="2.46091">
        <ele>98.1</ele>
        <time>2022-03-30T13:34:34Z</time>
      </trkpt>
      <trkpt lat="49.93195" lon="2.46091">
        <ele>98.1</ele>
        <time>2022-03-30T13:34:35Z</time>
      </trkpt>
      <trkpt lat="49.93194" lon="2.46091">
        <ele>98.1</ele>
        <time>2022-03-30T13:34:36Z</time>
      </trkpt>
      <trkpt lat="49.93193" lon="2.46092">
        <ele>98.1</ele>
        <time>2022-03-30T13:34:37Z</time>
      </trkpt>
      <trkpt lat="49.93192" lon="2.46092">
        <ele>98.1</ele>
        <time>2022-03-30T13:34:38Z</time>
      </trkpt>
      <trkpt lat="49.93192" lon="2.46092">
        <ele>98.1</ele>
        <time>2022-03-30T13:34:39Z</time>
      </trkpt>
      <trkpt lat="49.9319" lon="2.46092">
        <ele>98.1</ele>
        <time>2022-03-30T13:34:40Z</time>
      </trkpt>
      <trkpt lat="49.93189" lon="2.46092">
        <ele>98.1</ele>
        <time>2022-03-30T13:34:41Z</time>
      </trkpt>
      <trkpt lat="49.93188" lon="2.46092">
        <ele>98.1</ele>
        <time>2022-03-30T13:34:42Z</time>
      </trkpt>
      <trkpt lat="49.93188" lon="2.46092">
        <ele>98.1</ele>
        <time>2022-03-30T13:34:43Z</time>
      </trkpt>
      <trkpt lat="49.93187" lon="2.46092">
        <ele>98.1</ele>
        <time>2022-03-30T13:34:44Z</time>
      </trkpt>
      <trkpt lat="49.93186" lon="2.46092">
        <ele>98.1</ele>
        <time>2022-03-30T13:34:45Z</time>
      </trkpt>
      <trkpt lat="49.93185" lon="2.46092">
        <ele>98.1</ele>
        <time>2022-03-30T13:34:46Z</time>
      </trkpt>
      <trkpt lat="49.93184" lon="2.46092">
        <ele>98.1</ele>
        <time>2022-03-30T13:34:47Z</time>
      </trkpt>
      <trkpt lat="49.93183" lon="2.46092">
        <ele>98.1</ele>
        <time>2022-03-30T13:34:48Z</time>
      </trkpt>
      <trkpt lat="49.93182" lon="2.46092">
        <ele>98.1</ele>
        <time>2022-03-30T13:34:49Z</time>
      </trkpt>
      <trkpt lat="49.93181" lon="2.46092">
        <ele>98.1</ele>
        <time>2022-03-30T13:34:50Z</time>
      </trkpt>
      <trkpt lat="49.9318" lon="2.46092">
        <ele>98.1</ele>
        <time>2022-03-30T13:34:51Z</time>
      </trkpt>
      <trkpt lat="49.93179" lon="2.46092">
        <ele>98.1</ele>
        <time>2022-03-30T13:34:52Z</time>
      </trkpt>
      <trkpt lat="49.93178" lon="2.46092">
        <ele>98.1</ele>
        <time>2022-03-30T13:34:53Z</time>
      </trkpt>
      <trkpt lat="49.93177" lon="2.46092">
        <ele>98.1</ele>
        <time>2022-03-30T13:34:54Z</time>
      </trkpt>
      <trkpt lat="49.93176" lon="2.46092">
        <ele>98.1</ele>
        <time>2022-03-30T13:34:55Z</time>
      </trkpt>
      <trkpt lat="49.93174" lon="2.46092">
        <ele>98.1</ele>
        <time>2022-03-30T13:34:56Z</time>
      </trkpt>
      <trkpt lat="49.93173" lon="2.46092">
        <ele>98.1</ele>
        <time>2022-03-30T13:34:57Z</time>
      </trkpt>
      <trkpt lat="49.93173" lon="2.46092">
        <ele>98.1</ele>
        <time>2022-03-30T13:34:58Z</time>
      </trkpt>
      <trkpt lat="49.93172" lon="2.46091">
        <ele>98.1</ele>
        <time>2022-03-30T13:34:59Z</time>
      </trkpt>
      <trkpt lat="49.93171" lon="2.46091">
        <ele>98</ele>
        <time>2022-03-30T13:35:00Z</time>
      </trkpt>
      <trkpt lat="49.93169" lon="2.46091">
        <ele>98</ele>
        <time>2022-03-30T13:35:01Z</time>
      </trkpt>
      <trkpt lat="49.93168" lon="2.46092">
        <ele>98</ele>
        <time>2022-03-30T13:35:02Z</time>
      </trkpt>
      <trkpt lat="49.93167" lon="2.46092">
        <ele>98</ele>
        <time>2022-03-30T13:35:03Z</time>
      </trkpt>
      <trkpt lat="49.93166" lon="2.46092">
        <ele>98</ele>
        <time>2022-03-30T13:35:04Z</time>
      </trkpt>
      <trkpt lat="49.93165" lon="2.46092">
        <ele>98</ele>
        <time>2022-03-30T13:35:05Z</time>
      </trkpt>
      <trkpt lat="49.93164" lon="2.46092">
        <ele>98</ele>
        <time>2022-03-30T13:35:06Z</time>
      </trkpt>
      <trkpt lat="49.93163" lon="2.46092">
        <ele>98</ele>
        <time>2022-03-30T13:35:07Z</time>
      </trkpt>
      <trkpt lat="49.93162" lon="2.46092">
        <ele>98</ele>
        <time>2022-03-30T13:35:08Z</time>
      </trkpt>
      <trkpt lat="49.93161" lon="2.46092">
        <ele>98</ele>
        <time>2022-03-30T13:35:09Z</time>
      </trkpt>
      <trkpt lat="49.9316" lon="2.46092">
        <ele>98</ele>
        <time>2022-03-30T13:35:10Z</time>
      </trkpt>
      <trkpt lat="49.93158" lon="2.46092">
        <ele>98</ele>
        <time>2022-03-30T13:35:11Z</time>
      </trkpt>
      <trkpt lat="49.93157" lon="2.46092">
        <ele>98</ele>
        <time>2022-03-30T13:35:12Z</time>
      </trkpt>
      <trkpt lat="49.93156" lon="2.46093">
        <ele>98</ele>
        <time>2022-03-30T13:35:13Z</time>
      </trkpt>
      <trkpt lat="49.93154" lon="2.46093">
        <ele>98</ele>
        <time>2022-03-30T13:35:14Z</time>
      </trkpt>
      <trkpt lat="49.93153" lon="2.46093">
        <ele>98</ele>
        <time>2022-03-30T13:35:15Z</time>
      </trkpt>
      <trkpt lat="49.93153" lon="2.46093">
        <ele>98</ele>
        <time>2022-03-30T13:35:16Z</time>
      </trkpt>
      <trkpt lat="49.93151" lon="2.46093">
        <ele>98</ele>
        <time>2022-03-30T13:35:17Z</time>
      </trkpt>
      <trkpt lat="49.9315" lon="2.46093">
        <ele>98</ele>
        <time>2022-03-30T13:35:18Z</time>
      </trkpt>
      <trkpt lat="49.93149" lon="2.46093">
        <ele>98</ele>
        <time>2022-03-30T13:35:19Z</time>
      </trkpt>
      <trkpt lat="49.93149" lon="2.46092">
        <ele>98</ele>
        <time>2022-03-30T13:35:20Z</time>
      </trkpt>
      <trkpt lat="49.93148" lon="2.46092">
        <ele>98</ele>
        <time>2022-03-30T13:35:21Z</time>
      </trkpt>
      <trkpt lat="49.93146" lon="2.46092">
        <ele>97.9</ele>
        <time>2022-03-30T13:35:22Z</time>
      </trkpt>
      <trkpt lat="49.93144" lon="2.46092">
        <ele>97.9</ele>
        <time>2022-03-30T13:35:23Z</time>
      </trkpt>
      <trkpt lat="49.93143" lon="2.46092">
        <ele>97.9</ele>
        <time>2022-03-30T13:35:24Z</time>
      </trkpt>
      <trkpt lat="49.93143" lon="2.46092">
        <ele>97.9</ele>
        <time>2022-03-30T13:35:25Z</time>
      </trkpt>
      <trkpt lat="49.93141" lon="2.46092">
        <ele>97.9</ele>
        <time>2022-03-30T13:35:26Z</time>
      </trkpt>
      <trkpt lat="49.9314" lon="2.46092">
        <ele>97.9</ele>
        <time>2022-03-30T13:35:27Z</time>
      </trkpt>
      <trkpt lat="49.93139" lon="2.46093">
        <ele>97.9</ele>
        <time>2022-03-30T13:35:28Z</time>
      </trkpt>
      <trkpt lat="49.93137" lon="2.46093">
        <ele>97.9</ele>
        <time>2022-03-30T13:35:29Z</time>
      </trkpt>
      <trkpt lat="49.93136" lon="2.46093">
        <ele>97.9</ele>
        <time>2022-03-30T13:35:30Z</time>
      </trkpt>
      <trkpt lat="49.93135" lon="2.46093">
        <ele>97.9</ele>
        <time>2022-03-30T13:35:31Z</time>
      </trkpt>
      <trkpt lat="49.93134" lon="2.46093">
        <ele>97.9</ele>
        <time>2022-03-30T13:35:32Z</time>
      </trkpt>
      <trkpt lat="49.93133" lon="2.46093">
        <ele>97.9</ele>
        <time>2022-03-30T13:35:33Z</time>
      </trkpt>
      <trkpt lat="49.93132" lon="2.46092">
        <ele>97.9</ele>
        <time>2022-03-30T13:35:34Z</time>
      </trkpt>
      <trkpt lat="49.9313" lon="2.46093">
        <ele>97.9</ele>
        <time>2022-03-30T13:35:35Z</time>
      </trkpt>
      <trkpt lat="49.93129" lon="2.46093">
        <ele>97.9</ele>
        <time>2022-03-30T13:35:36Z</time>
      </trkpt>
      <trkpt lat="49.93128" lon="2.46093">
        <ele>97.9</ele>
        <time>2022-03-30T13:35:37Z</time>
      </trkpt>
      <trkpt lat="49.93127" lon="2.46093">
        <ele>97.8</ele>
        <time>2022-03-30T13:35:38Z</time>
      </trkpt>
      <trkpt lat="49.93126" lon="2.46094">
        <ele>97.8</ele>
        <time>2022-03-30T13:35:39Z</time>
      </trkpt>
      <trkpt lat="49.93125" lon="2.46094">
        <ele>97.8</ele>
        <time>2022-03-30T13:35:40Z</time>
      </trkpt>
      <trkpt lat="49.93123" lon="2.46095">
        <ele>97.8</ele>
        <time>2022-03-30T13:35:41Z</time>
      </trkpt>
      <trkpt lat="49.93122" lon="2.46095">
        <ele>97.8</ele>
        <time>2022-03-30T13:35:42Z</time>
      </trkpt>
      <trkpt lat="49.93121" lon="2.46095">
        <ele>97.8</ele>
        <time>2022-03-30T13:35:43Z</time>
      </trkpt>
      <trkpt lat="49.93119" lon="2.46095">
        <ele>97.8</ele>
        <time>2022-03-30T13:35:44Z</time>
      </trkpt>
      <trkpt lat="49.93119" lon="2.46095">
        <ele>97.8</ele>
        <time>2022-03-30T13:35:45Z</time>
      </trkpt>
      <trkpt lat="49.93118" lon="2.46095">
        <ele>97.8</ele>
        <time>2022-03-30T13:35:46Z</time>
      </trkpt>
      <trkpt lat="49.93117" lon="2.46095">
        <ele>97.8</ele>
        <time>2022-03-30T13:35:47Z</time>
      </trkpt>
      <trkpt lat="49.93116" lon="2.46095">
        <ele>97.8</ele>
        <time>2022-03-30T13:35:48Z</time>
      </trkpt>
      <trkpt lat="49.93115" lon="2.46095">
        <ele>97.8</ele>
        <time>2022-03-30T13:35:49Z</time>
      </trkpt>
      <trkpt lat="49.93115" lon="2.46095">
        <ele>97.8</ele>
        <time>2022-03-30T13:35:50Z</time>
      </trkpt>
      <trkpt lat="49.93114" lon="2.46095">
        <ele>97.8</ele>
        <time>2022-03-30T13:35:51Z</time>
      </trkpt>
      <trkpt lat="49.93112" lon="2.46095">
        <ele>97.8</ele>
        <time>2022-03-30T13:35:52Z</time>
      </trkpt>
      <trkpt lat="49.93111" lon="2.46095">
        <ele>97.8</ele>
        <time>2022-03-30T13:35:53Z</time>
      </trkpt>
      <trkpt lat="49.9311" lon="2.46095">
        <ele>97.8</ele>
        <time>2022-03-30T13:35:54Z</time>
      </trkpt>
      <trkpt lat="49.93109" lon="2.46095">
        <ele>97.8</ele>
        <time>2022-03-30T13:35:55Z</time>
      </trkpt>
      <trkpt lat="49.93108" lon="2.46095">
        <ele>97.7</ele>
        <time>2022-03-30T13:35:56Z</time>
      </trkpt>
      <trkpt lat="49.93107" lon="2.46095">
        <ele>97.7</ele>
        <time>2022-03-30T13:35:57Z</time>
      </trkpt>
      <trkpt lat="49.93106" lon="2.46095">
        <ele>97.7</ele>
        <time>2022-03-30T13:35:58Z</time>
      </trkpt>
      <trkpt lat="49.93105" lon="2.46094">
        <ele>97.7</ele>
        <time>2022-03-30T13:35:59Z</time>
      </trkpt>
      <trkpt lat="49.93104" lon="2.46094">
        <ele>97.7</ele>
        <time>2022-03-30T13:36:00Z</time>
      </trkpt>
      <trkpt lat="49.93103" lon="2.46094">
        <ele>97.7</ele>
        <time>2022-03-30T13:36:01Z</time>
      </trkpt>
      <trkpt lat="49.93102" lon="2.46094">
        <ele>97.7</ele>
        <time>2022-03-30T13:36:02Z</time>
      </trkpt>
      <trkpt lat="49.93099" lon="2.46094">
        <ele>97.7</ele>
        <time>2022-03-30T13:36:03Z</time>
      </trkpt>
      <trkpt lat="49.93098" lon="2.46093">
        <ele>97.7</ele>
        <time>2022-03-30T13:36:04Z</time>
      </trkpt>
      <trkpt lat="49.93098" lon="2.46093">
        <ele>97.7</ele>
        <time>2022-03-30T13:36:05Z</time>
      </trkpt>
      <trkpt lat="49.93097" lon="2.46093">
        <ele>97.7</ele>
        <time>2022-03-30T13:36:06Z</time>
      </trkpt>
      <trkpt lat="49.93096" lon="2.46092">
        <ele>97.7</ele>
        <time>2022-03-30T13:36:07Z</time>
      </trkpt>
      <trkpt lat="49.93095" lon="2.46092">
        <ele>97.7</ele>
        <time>2022-03-30T13:36:08Z</time>
      </trkpt>
      <trkpt lat="49.93094" lon="2.46092">
        <ele>97.7</ele>
        <time>2022-03-30T13:36:09Z</time>
      </trkpt>
      <trkpt lat="49.93093" lon="2.46092">
        <ele>97.6</ele>
        <time>2022-03-30T13:36:10Z</time>
      </trkpt>
      <trkpt lat="49.93092" lon="2.46091">
        <ele>97.6</ele>
        <time>2022-03-30T13:36:11Z</time>
      </trkpt>
      <trkpt lat="49.93091" lon="2.46091">
        <ele>97.6</ele>
        <time>2022-03-30T13:36:12Z</time>
      </trkpt>
      <trkpt lat="49.9309" lon="2.46091">
        <ele>97.6</ele>
        <time>2022-03-30T13:36:13Z</time>
      </trkpt>
      <trkpt lat="49.93089" lon="2.46091">
        <ele>97.6</ele>
        <time>2022-03-30T13:36:14Z</time>
      </trkpt>
      <trkpt lat="49.93086" lon="2.4609">
        <ele>97.6</ele>
        <time>2022-03-30T13:36:15Z</time>
      </trkpt>
      <trkpt lat="49.93086" lon="2.46089">
        <ele>97.6</ele>
        <time>2022-03-30T13:36:16Z</time>
      </trkpt>
      <trkpt lat="49.93085" lon="2.46089">
        <ele>97.6</ele>
        <time>2022-03-30T13:36:17Z</time>
      </trkpt>
      <trkpt lat="49.93084" lon="2.46088">
        <ele>97.6</ele>
        <time>2022-03-30T13:36:18Z</time>
      </trkpt>
      <trkpt lat="49.93083" lon="2.46088">
        <ele>97.6</ele>
        <time>2022-03-30T13:36:19Z</time>
      </trkpt>
      <trkpt lat="49.93082" lon="2.46087">
        <ele>97.6</ele>
        <time>2022-03-30T13:36:20Z</time>
      </trkpt>
      <trkpt lat="49.93081" lon="2.46087">
        <ele>97.6</ele>
        <time>2022-03-30T13:36:21Z</time>
      </trkpt>
      <trkpt lat="49.9308" lon="2.46086">
        <ele>97.6</ele>
        <time>2022-03-30T13:36:22Z</time>
      </trkpt>
      <trkpt lat="49.93079" lon="2.46085">
        <ele>97.6</ele>
        <time>2022-03-30T13:36:23Z</time>
      </trkpt>
      <trkpt lat="49.93078" lon="2.46084">
        <ele>97.5</ele>
        <time>2022-03-30T13:36:24Z</time>
      </trkpt>
      <trkpt lat="49.93077" lon="2.46083">
        <ele>97.5</ele>
        <time>2022-03-30T13:36:25Z</time>
      </trkpt>
      <trkpt lat="49.93076" lon="2.46082">
        <ele>97.5</ele>
        <time>2022-03-30T13:36:26Z</time>
      </trkpt>
      <trkpt lat="49.93074" lon="2.46081">
        <ele>97.5</ele>
        <time>2022-03-30T13:36:27Z</time>
      </trkpt>
      <trkpt lat="49.93073" lon="2.4608">
        <ele>97.5</ele>
        <time>2022-03-30T13:36:28Z</time>
      </trkpt>
      <trkpt lat="49.93073" lon="2.4608">
        <ele>97.5</ele>
        <time>2022-03-30T13:36:29Z</time>
      </trkpt>
      <trkpt lat="49.93072" lon="2.46079">
        <ele>97.5</ele>
        <time>2022-03-30T13:36:30Z</time>
      </trkpt>
      <trkpt lat="49.93071" lon="2.46078">
        <ele>97.5</ele>
        <time>2022-03-30T13:36:31Z</time>
      </trkpt>
      <trkpt lat="49.9307" lon="2.46077">
        <ele>97.5</ele>
        <time>2022-03-30T13:36:32Z</time>
      </trkpt>
      <trkpt lat="49.93069" lon="2.46076">
        <ele>97.5</ele>
        <time>2022-03-30T13:36:33Z</time>
      </trkpt>
      <trkpt lat="49.93068" lon="2.46075">
        <ele>97.5</ele>
        <time>2022-03-30T13:36:34Z</time>
      </trkpt>
      <trkpt lat="49.93067" lon="2.46074">
        <ele>97.5</ele>
        <time>2022-03-30T13:36:35Z</time>
      </trkpt>
      <trkpt lat="49.93066" lon="2.46073">
        <ele>97.5</ele>
        <time>2022-03-30T13:36:36Z</time>
      </trkpt>
      <trkpt lat="49.93065" lon="2.46072">
        <ele>97.4</ele>
        <time>2022-03-30T13:36:37Z</time>
      </trkpt>
      <trkpt lat="49.93064" lon="2.46071">
        <ele>97.4</ele>
        <time>2022-03-30T13:36:38Z</time>
      </trkpt>
      <trkpt lat="49.93063" lon="2.4607">
        <ele>97.4</ele>
        <time>2022-03-30T13:36:39Z</time>
      </trkpt>
      <trkpt lat="49.93062" lon="2.46069">
        <ele>97.4</ele>
        <time>2022-03-30T13:36:40Z</time>
      </trkpt>
      <trkpt lat="49.93061" lon="2.46068">
        <ele>97.4</ele>
        <time>2022-03-30T13:36:41Z</time>
      </trkpt>
      <trkpt lat="49.9306" lon="2.46067">
        <ele>97.4</ele>
        <time>2022-03-30T13:36:42Z</time>
      </trkpt>
      <trkpt lat="49.93059" lon="2.46066">
        <ele>97.4</ele>
        <time>2022-03-30T13:36:43Z</time>
      </trkpt>
      <trkpt lat="49.93058" lon="2.46065">
        <ele>97.4</ele>
        <time>2022-03-30T13:36:44Z</time>
      </trkpt>
      <trkpt lat="49.93057" lon="2.46064">
        <ele>97.3</ele>
        <time>2022-03-30T13:36:45Z</time>
      </trkpt>
      <trkpt lat="49.93056" lon="2.46064">
        <ele>97.3</ele>
        <time>2022-03-30T13:36:46Z</time>
      </trkpt>
      <trkpt lat="49.93055" lon="2.46063">
        <ele>97.3</ele>
        <time>2022-03-30T13:36:47Z</time>
      </trkpt>
      <trkpt lat="49.93054" lon="2.46062">
        <ele>97.3</ele>
        <time>2022-03-30T13:36:48Z</time>
      </trkpt>
      <trkpt lat="49.93053" lon="2.46061">
        <ele>97.3</ele>
        <time>2022-03-30T13:36:49Z</time>
      </trkpt>
      <trkpt lat="49.93052" lon="2.4606">
        <ele>97.3</ele>
        <time>2022-03-30T13:36:50Z</time>
      </trkpt>
      <trkpt lat="49.93051" lon="2.46059">
        <ele>97.3</ele>
        <time>2022-03-30T13:36:51Z</time>
      </trkpt>
      <trkpt lat="49.9305" lon="2.46059">
        <ele>97.3</ele>
        <time>2022-03-30T13:36:52Z</time>
      </trkpt>
      <trkpt lat="49.93048" lon="2.46057">
        <ele>97.2</ele>
        <time>2022-03-30T13:36:53Z</time>
      </trkpt>
      <trkpt lat="49.93047" lon="2.46057">
        <ele>97.2</ele>
        <time>2022-03-30T13:36:54Z</time>
      </trkpt>
      <trkpt lat="49.93046" lon="2.46056">
        <ele>97.2</ele>
        <time>2022-03-30T13:36:55Z</time>
      </trkpt>
      <trkpt lat="49.93045" lon="2.46055">
        <ele>97.2</ele>
        <time>2022-03-30T13:36:56Z</time>
      </trkpt>
      <trkpt lat="49.93044" lon="2.46055">
        <ele>97.2</ele>
        <time>2022-03-30T13:36:57Z</time>
      </trkpt>
      <trkpt lat="49.93043" lon="2.46054">
        <ele>97.2</ele>
        <time>2022-03-30T13:36:58Z</time>
      </trkpt>
      <trkpt lat="49.93042" lon="2.46054">
        <ele>97.2</ele>
        <time>2022-03-30T13:36:59Z</time>
      </trkpt>
      <trkpt lat="49.93041" lon="2.46053">
        <ele>97.1</ele>
        <time>2022-03-30T13:37:00Z</time>
      </trkpt>
      <trkpt lat="49.9304" lon="2.46052">
        <ele>97.1</ele>
        <time>2022-03-30T13:37:01Z</time>
      </trkpt>
      <trkpt lat="49.93039" lon="2.46051">
        <ele>97.1</ele>
        <time>2022-03-30T13:37:02Z</time>
      </trkpt>
      <trkpt lat="49.93038" lon="2.46051">
        <ele>97.1</ele>
        <time>2022-03-30T13:37:03Z</time>
      </trkpt>
      <trkpt lat="49.93037" lon="2.4605">
        <ele>97.1</ele>
        <time>2022-03-30T13:37:04Z</time>
      </trkpt>
      <trkpt lat="49.93035" lon="2.46049">
        <ele>97.1</ele>
        <time>2022-03-30T13:37:05Z</time>
      </trkpt>
      <trkpt lat="49.93035" lon="2.46048">
        <ele>97.1</ele>
        <time>2022-03-30T13:37:06Z</time>
      </trkpt>
      <trkpt lat="49.93034" lon="2.46048">
        <ele>97</ele>
        <time>2022-03-30T13:37:07Z</time>
      </trkpt>
      <trkpt lat="49.93033" lon="2.46047">
        <ele>97</ele>
        <time>2022-03-30T13:37:08Z</time>
      </trkpt>
      <trkpt lat="49.93032" lon="2.46046">
        <ele>97</ele>
        <time>2022-03-30T13:37:09Z</time>
      </trkpt>
      <trkpt lat="49.93031" lon="2.46045">
        <ele>97</ele>
        <time>2022-03-30T13:37:10Z</time>
      </trkpt>
      <trkpt lat="49.9303" lon="2.46045">
        <ele>97</ele>
        <time>2022-03-30T13:37:11Z</time>
      </trkpt>
      <trkpt lat="49.93029" lon="2.46044">
        <ele>97</ele>
        <time>2022-03-30T13:37:12Z</time>
      </trkpt>
      <trkpt lat="49.93028" lon="2.46043">
        <ele>97</ele>
        <time>2022-03-30T13:37:13Z</time>
      </trkpt>
      <trkpt lat="49.93026" lon="2.46042">
        <ele>97</ele>
        <time>2022-03-30T13:37:14Z</time>
      </trkpt>
      <trkpt lat="49.93025" lon="2.46041">
        <ele>96.9</ele>
        <time>2022-03-30T13:37:15Z</time>
      </trkpt>
      <trkpt lat="49.93025" lon="2.46041">
        <ele>96.9</ele>
        <time>2022-03-30T13:37:16Z</time>
      </trkpt>
      <trkpt lat="49.93023" lon="2.4604">
        <ele>96.9</ele>
        <time>2022-03-30T13:37:17Z</time>
      </trkpt>
      <trkpt lat="49.93022" lon="2.46038">
        <ele>96.9</ele>
        <time>2022-03-30T13:37:18Z</time>
      </trkpt>
      <trkpt lat="49.93021" lon="2.46037">
        <ele>96.9</ele>
        <time>2022-03-30T13:37:19Z</time>
      </trkpt>
      <trkpt lat="49.9302" lon="2.46037">
        <ele>96.9</ele>
        <time>2022-03-30T13:37:20Z</time>
      </trkpt>
      <trkpt lat="49.93019" lon="2.46036">
        <ele>96.9</ele>
        <time>2022-03-30T13:37:21Z</time>
      </trkpt>
      <trkpt lat="49.93018" lon="2.46035">
        <ele>96.9</ele>
        <time>2022-03-30T13:37:22Z</time>
      </trkpt>
      <trkpt lat="49.93017" lon="2.46034">
        <ele>96.9</ele>
        <time>2022-03-30T13:37:23Z</time>
      </trkpt>
      <trkpt lat="49.93016" lon="2.46033">
        <ele>96.9</ele>
        <time>2022-03-30T13:37:24Z</time>
      </trkpt>
      <trkpt lat="49.93015" lon="2.46032">
        <ele>96.9</ele>
        <time>2022-03-30T13:37:25Z</time>
      </trkpt>
      <trkpt lat="49.93014" lon="2.46031">
        <ele>96.9</ele>
        <time>2022-03-30T13:37:26Z</time>
      </trkpt>
      <trkpt lat="49.93013" lon="2.46031">
        <ele>96.9</ele>
        <time>2022-03-30T13:37:27Z</time>
      </trkpt>
      <trkpt lat="49.93011" lon="2.46029">
        <ele>96.8</ele>
        <time>2022-03-30T13:37:28Z</time>
      </trkpt>
      <trkpt lat="49.93011" lon="2.46028">
        <ele>96.8</ele>
        <time>2022-03-30T13:37:29Z</time>
      </trkpt>
      <trkpt lat="49.9301" lon="2.46028">
        <ele>96.8</ele>
        <time>2022-03-30T13:37:30Z</time>
      </trkpt>
      <trkpt lat="49.93009" lon="2.46027">
        <ele>96.8</ele>
        <time>2022-03-30T13:37:31Z</time>
      </trkpt>
      <trkpt lat="49.93008" lon="2.46026">
        <ele>96.8</ele>
        <time>2022-03-30T13:37:32Z</time>
      </trkpt>
      <trkpt lat="49.93007" lon="2.46025">
        <ele>96.8</ele>
        <time>2022-03-30T13:37:33Z</time>
      </trkpt>
      <trkpt lat="49.93006" lon="2.46024">
        <ele>96.8</ele>
        <time>2022-03-30T13:37:34Z</time>
      </trkpt>
      <trkpt lat="49.93005" lon="2.46023">
        <ele>96.8</ele>
        <time>2022-03-30T13:37:35Z</time>
      </trkpt>
      <trkpt lat="49.93004" lon="2.46022">
        <ele>96.8</ele>
        <time>2022-03-30T13:37:36Z</time>
      </trkpt>
      <trkpt lat="49.93003" lon="2.46021">
        <ele>96.8</ele>
        <time>2022-03-30T13:37:37Z</time>
      </trkpt>
      <trkpt lat="49.93002" lon="2.4602">
        <ele>96.8</ele>
        <time>2022-03-30T13:37:38Z</time>
      </trkpt>
      <trkpt lat="49.93001" lon="2.4602">
        <ele>96.8</ele>
        <time>2022-03-30T13:37:39Z</time>
      </trkpt>
      <trkpt lat="49.93" lon="2.46018">
        <ele>96.9</ele>
        <time>2022-03-30T13:37:40Z</time>
      </trkpt>
      <trkpt lat="49.92999" lon="2.46017">
        <ele>96.9</ele>
        <time>2022-03-30T13:37:41Z</time>
      </trkpt>
      <trkpt lat="49.92998" lon="2.46017">
        <ele>96.9</ele>
        <time>2022-03-30T13:37:42Z</time>
      </trkpt>
      <trkpt lat="49.92997" lon="2.46016">
        <ele>96.9</ele>
        <time>2022-03-30T13:37:43Z</time>
      </trkpt>
      <trkpt lat="49.92996" lon="2.46015">
        <ele>96.9</ele>
        <time>2022-03-30T13:37:44Z</time>
      </trkpt>
      <trkpt lat="49.92996" lon="2.46015">
        <ele>96.9</ele>
        <time>2022-03-30T13:37:45Z</time>
      </trkpt>
      <trkpt lat="49.92995" lon="2.46014">
        <ele>96.9</ele>
        <time>2022-03-30T13:37:46Z</time>
      </trkpt>
      <trkpt lat="49.92994" lon="2.46013">
        <ele>96.9</ele>
        <time>2022-03-30T13:37:47Z</time>
      </trkpt>
      <trkpt lat="49.92993" lon="2.46012">
        <ele>96.9</ele>
        <time>2022-03-30T13:37:48Z</time>
      </trkpt>
      <trkpt lat="49.92992" lon="2.46012">
        <ele>96.9</ele>
        <time>2022-03-30T13:37:49Z</time>
      </trkpt>
      <trkpt lat="49.92991" lon="2.46011">
        <ele>96.9</ele>
        <time>2022-03-30T13:37:50Z</time>
      </trkpt>
      <trkpt lat="49.9299" lon="2.4601">
        <ele>96.9</ele>
        <time>2022-03-30T13:37:51Z</time>
      </trkpt>
      <trkpt lat="49.92989" lon="2.46009">
        <ele>96.9</ele>
        <time>2022-03-30T13:37:52Z</time>
      </trkpt>
      <trkpt lat="49.92988" lon="2.46008">
        <ele>96.9</ele>
        <time>2022-03-30T13:37:53Z</time>
      </trkpt>
      <trkpt lat="49.92987" lon="2.46008">
        <ele>96.9</ele>
        <time>2022-03-30T13:37:54Z</time>
      </trkpt>
      <trkpt lat="49.92987" lon="2.46007">
        <ele>96.9</ele>
        <time>2022-03-30T13:37:55Z</time>
      </trkpt>
      <trkpt lat="49.92985" lon="2.46006">
        <ele>97</ele>
        <time>2022-03-30T13:37:56Z</time>
      </trkpt>
      <trkpt lat="49.92984" lon="2.46006">
        <ele>97</ele>
        <time>2022-03-30T13:37:57Z</time>
      </trkpt>
      <trkpt lat="49.92984" lon="2.46005">
        <ele>97</ele>
        <time>2022-03-30T13:37:58Z</time>
      </trkpt>
      <trkpt lat="49.92983" lon="2.46004">
        <ele>97</ele>
        <time>2022-03-30T13:37:59Z</time>
      </trkpt>
      <trkpt lat="49.92981" lon="2.46004">
        <ele>97</ele>
        <time>2022-03-30T13:38:00Z</time>
      </trkpt>
      <trkpt lat="49.9298" lon="2.46003">
        <ele>97</ele>
        <time>2022-03-30T13:38:01Z</time>
      </trkpt>
      <trkpt lat="49.92979" lon="2.46002">
        <ele>97</ele>
        <time>2022-03-30T13:38:02Z</time>
      </trkpt>
      <trkpt lat="49.92978" lon="2.46002">
        <ele>97</ele>
        <time>2022-03-30T13:38:03Z</time>
      </trkpt>
      <trkpt lat="49.92977" lon="2.46001">
        <ele>97</ele>
        <time>2022-03-30T13:38:04Z</time>
      </trkpt>
      <trkpt lat="49.92976" lon="2.46001">
        <ele>97</ele>
        <time>2022-03-30T13:38:05Z</time>
      </trkpt>
      <trkpt lat="49.92975" lon="2.46">
        <ele>97</ele>
        <time>2022-03-30T13:38:06Z</time>
      </trkpt>
      <trkpt lat="49.92974" lon="2.46">
        <ele>97</ele>
        <time>2022-03-30T13:38:07Z</time>
      </trkpt>
      <trkpt lat="49.92973" lon="2.45999">
        <ele>97</ele>
        <time>2022-03-30T13:38:08Z</time>
      </trkpt>
      <trkpt lat="49.92972" lon="2.45998">
        <ele>97.1</ele>
        <time>2022-03-30T13:38:09Z</time>
      </trkpt>
      <trkpt lat="49.92971" lon="2.45997">
        <ele>97.1</ele>
        <time>2022-03-30T13:38:10Z</time>
      </trkpt>
      <trkpt lat="49.9297" lon="2.45997">
        <ele>97.1</ele>
        <time>2022-03-30T13:38:11Z</time>
      </trkpt>
      <trkpt lat="49.92969" lon="2.45996">
        <ele>97.1</ele>
        <time>2022-03-30T13:38:12Z</time>
      </trkpt>
      <trkpt lat="49.92968" lon="2.45995">
        <ele>97.1</ele>
        <time>2022-03-30T13:38:13Z</time>
      </trkpt>
      <trkpt lat="49.92967" lon="2.45995">
        <ele>97.1</ele>
        <time>2022-03-30T13:38:14Z</time>
      </trkpt>
      <trkpt lat="49.92966" lon="2.45994">
        <ele>97.1</ele>
        <time>2022-03-30T13:38:15Z</time>
      </trkpt>
      <trkpt lat="49.92965" lon="2.45993">
        <ele>97.1</ele>
        <time>2022-03-30T13:38:16Z</time>
      </trkpt>
      <trkpt lat="49.92964" lon="2.45992">
        <ele>97.1</ele>
        <time>2022-03-30T13:38:17Z</time>
      </trkpt>
      <trkpt lat="49.92963" lon="2.45992">
        <ele>97.1</ele>
        <time>2022-03-30T13:38:18Z</time>
      </trkpt>
      <trkpt lat="49.92962" lon="2.45991">
        <ele>97.1</ele>
        <time>2022-03-30T13:38:19Z</time>
      </trkpt>
      <trkpt lat="49.92961" lon="2.4599">
        <ele>97.1</ele>
        <time>2022-03-30T13:38:20Z</time>
      </trkpt>
      <trkpt lat="49.9296" lon="2.4599">
        <ele>97.1</ele>
        <time>2022-03-30T13:38:21Z</time>
      </trkpt>
      <trkpt lat="49.92959" lon="2.45989">
        <ele>97.1</ele>
        <time>2022-03-30T13:38:22Z</time>
      </trkpt>
      <trkpt lat="49.92958" lon="2.45989">
        <ele>97.1</ele>
        <time>2022-03-30T13:38:23Z</time>
      </trkpt>
      <trkpt lat="49.92957" lon="2.45988">
        <ele>97.1</ele>
        <time>2022-03-30T13:38:24Z</time>
      </trkpt>
      <trkpt lat="49.92956" lon="2.45987">
        <ele>97.1</ele>
        <time>2022-03-30T13:38:25Z</time>
      </trkpt>
      <trkpt lat="49.92955" lon="2.45987">
        <ele>97.1</ele>
        <time>2022-03-30T13:38:26Z</time>
      </trkpt>
      <trkpt lat="49.92954" lon="2.45986">
        <ele>97.2</ele>
        <time>2022-03-30T13:38:27Z</time>
      </trkpt>
      <trkpt lat="49.92953" lon="2.45985">
        <ele>97.2</ele>
        <time>2022-03-30T13:38:28Z</time>
      </trkpt>
      <trkpt lat="49.92952" lon="2.45984">
        <ele>97.2</ele>
        <time>2022-03-30T13:38:29Z</time>
      </trkpt>
      <trkpt lat="49.92951" lon="2.45983">
        <ele>97.2</ele>
        <time>2022-03-30T13:38:30Z</time>
      </trkpt>
      <trkpt lat="49.9295" lon="2.45983">
        <ele>97.2</ele>
        <time>2022-03-30T13:38:31Z</time>
      </trkpt>
      <trkpt lat="49.92949" lon="2.45982">
        <ele>97.2</ele>
        <time>2022-03-30T13:38:32Z</time>
      </trkpt>
      <trkpt lat="49.92948" lon="2.45982">
        <ele>97.2</ele>
        <time>2022-03-30T13:38:33Z</time>
      </trkpt>
      <trkpt lat="49.92946" lon="2.4598">
        <ele>97.2</ele>
        <time>2022-03-30T13:38:34Z</time>
      </trkpt>
      <trkpt lat="49.92946" lon="2.4598">
        <ele>97.2</ele>
        <time>2022-03-30T13:38:35Z</time>
      </trkpt>
      <trkpt lat="49.92945" lon="2.45979">
        <ele>97.2</ele>
        <time>2022-03-30T13:38:36Z</time>
      </trkpt>
      <trkpt lat="49.92944" lon="2.45978">
        <ele>97.2</ele>
        <time>2022-03-30T13:38:37Z</time>
      </trkpt>
      <trkpt lat="49.92943" lon="2.45977">
        <ele>97.2</ele>
        <time>2022-03-30T13:38:38Z</time>
      </trkpt>
      <trkpt lat="49.92942" lon="2.45977">
        <ele>97.2</ele>
        <time>2022-03-30T13:38:39Z</time>
      </trkpt>
      <trkpt lat="49.92941" lon="2.45976">
        <ele>97.2</ele>
        <time>2022-03-30T13:38:40Z</time>
      </trkpt>
      <trkpt lat="49.9294" lon="2.45976">
        <ele>97.2</ele>
        <time>2022-03-30T13:38:41Z</time>
      </trkpt>
      <trkpt lat="49.92938" lon="2.45975">
        <ele>97.2</ele>
        <time>2022-03-30T13:38:42Z</time>
      </trkpt>
      <trkpt lat="49.92937" lon="2.45975">
        <ele>97.2</ele>
        <time>2022-03-30T13:38:43Z</time>
      </trkpt>
      <trkpt lat="49.92936" lon="2.45974">
        <ele>97.2</ele>
        <time>2022-03-30T13:38:44Z</time>
      </trkpt>
      <trkpt lat="49.92935" lon="2.45974">
        <ele>97.2</ele>
        <time>2022-03-30T13:38:45Z</time>
      </trkpt>
      <trkpt lat="49.92933" lon="2.45972">
        <ele>97.2</ele>
        <time>2022-03-30T13:38:46Z</time>
      </trkpt>
      <trkpt lat="49.92932" lon="2.45972">
        <ele>97.2</ele>
        <time>2022-03-30T13:38:47Z</time>
      </trkpt>
      <trkpt lat="49.92932" lon="2.45972">
        <ele>97.2</ele>
        <time>2022-03-30T13:38:48Z</time>
      </trkpt>
      <trkpt lat="49.92931" lon="2.45971">
        <ele>97.2</ele>
        <time>2022-03-30T13:38:49Z</time>
      </trkpt>
      <trkpt lat="49.9293" lon="2.45971">
        <ele>97.2</ele>
        <time>2022-03-30T13:38:50Z</time>
      </trkpt>
      <trkpt lat="49.92929" lon="2.4597">
        <ele>97.2</ele>
        <time>2022-03-30T13:38:51Z</time>
      </trkpt>
      <trkpt lat="49.92928" lon="2.45969">
        <ele>97.2</ele>
        <time>2022-03-30T13:38:52Z</time>
      </trkpt>
      <trkpt lat="49.92927" lon="2.45969">
        <ele>97.2</ele>
        <time>2022-03-30T13:38:53Z</time>
      </trkpt>
      <trkpt lat="49.92926" lon="2.45968">
        <ele>97.2</ele>
        <time>2022-03-30T13:38:54Z</time>
      </trkpt>
      <trkpt lat="49.92924" lon="2.45967">
        <ele>97.2</ele>
        <time>2022-03-30T13:38:55Z</time>
      </trkpt>
      <trkpt lat="49.92923" lon="2.45967">
        <ele>97.2</ele>
        <time>2022-03-30T13:38:56Z</time>
      </trkpt>
      <trkpt lat="49.92922" lon="2.45967">
        <ele>97.2</ele>
        <time>2022-03-30T13:38:57Z</time>
      </trkpt>
      <trkpt lat="49.92921" lon="2.45966">
        <ele>97.2</ele>
        <time>2022-03-30T13:38:58Z</time>
      </trkpt>
      <trkpt lat="49.9292" lon="2.45965">
        <ele>97.2</ele>
        <time>2022-03-30T13:38:59Z</time>
      </trkpt>
      <trkpt lat="49.92919" lon="2.45965">
        <ele>97.2</ele>
        <time>2022-03-30T13:39:00Z</time>
      </trkpt>
      <trkpt lat="49.92918" lon="2.45964">
        <ele>97.2</ele>
        <time>2022-03-30T13:39:01Z</time>
      </trkpt>
      <trkpt lat="49.92918" lon="2.45963">
        <ele>97.2</ele>
        <time>2022-03-30T13:39:02Z</time>
      </trkpt>
      <trkpt lat="49.92917" lon="2.45962">
        <ele>97.2</ele>
        <time>2022-03-30T13:39:03Z</time>
      </trkpt>
      <trkpt lat="49.92915" lon="2.45961">
        <ele>97.2</ele>
        <time>2022-03-30T13:39:04Z</time>
      </trkpt>
      <trkpt lat="49.92914" lon="2.4596">
        <ele>97.2</ele>
        <time>2022-03-30T13:39:05Z</time>
      </trkpt>
      <trkpt lat="49.92913" lon="2.4596">
        <ele>97.2</ele>
        <time>2022-03-30T13:39:06Z</time>
      </trkpt>
      <trkpt lat="49.92912" lon="2.45959">
        <ele>97.2</ele>
        <time>2022-03-30T13:39:07Z</time>
      </trkpt>
      <trkpt lat="49.92912" lon="2.45958">
        <ele>97.2</ele>
        <time>2022-03-30T13:39:08Z</time>
      </trkpt>
      <trkpt lat="49.9291" lon="2.45958">
        <ele>97.2</ele>
        <time>2022-03-30T13:39:09Z</time>
      </trkpt>
      <trkpt lat="49.92909" lon="2.45957">
        <ele>97.2</ele>
        <time>2022-03-30T13:39:10Z</time>
      </trkpt>
      <trkpt lat="49.92908" lon="2.45956">
        <ele>97.2</ele>
        <time>2022-03-30T13:39:11Z</time>
      </trkpt>
      <trkpt lat="49.92907" lon="2.45956">
        <ele>97.2</ele>
        <time>2022-03-30T13:39:12Z</time>
      </trkpt>
      <trkpt lat="49.92906" lon="2.45955">
        <ele>97.1</ele>
        <time>2022-03-30T13:39:13Z</time>
      </trkpt>
      <trkpt lat="49.92905" lon="2.45954">
        <ele>97.1</ele>
        <time>2022-03-30T13:39:14Z</time>
      </trkpt>
      <trkpt lat="49.92904" lon="2.45954">
        <ele>97.1</ele>
        <time>2022-03-30T13:39:15Z</time>
      </trkpt>
      <trkpt lat="49.92903" lon="2.45953">
        <ele>97.1</ele>
        <time>2022-03-30T13:39:16Z</time>
      </trkpt>
      <trkpt lat="49.92902" lon="2.45952">
        <ele>97.1</ele>
        <time>2022-03-30T13:39:17Z</time>
      </trkpt>
      <trkpt lat="49.92901" lon="2.45952">
        <ele>97.1</ele>
        <time>2022-03-30T13:39:18Z</time>
      </trkpt>
      <trkpt lat="49.92901" lon="2.45951">
        <ele>97.1</ele>
        <time>2022-03-30T13:39:19Z</time>
      </trkpt>
      <trkpt lat="49.929" lon="2.4595">
        <ele>97.1</ele>
        <time>2022-03-30T13:39:20Z</time>
      </trkpt>
      <trkpt lat="49.92899" lon="2.4595">
        <ele>97.1</ele>
        <time>2022-03-30T13:39:21Z</time>
      </trkpt>
      <trkpt lat="49.92898" lon="2.45949">
        <ele>97.1</ele>
        <time>2022-03-30T13:39:22Z</time>
      </trkpt>
      <trkpt lat="49.92897" lon="2.45948">
        <ele>97.1</ele>
        <time>2022-03-30T13:39:23Z</time>
      </trkpt>
      <trkpt lat="49.92896" lon="2.45948">
        <ele>97.1</ele>
        <time>2022-03-30T13:39:24Z</time>
      </trkpt>
      <trkpt lat="49.92894" lon="2.45947">
        <ele>97.1</ele>
        <time>2022-03-30T13:39:25Z</time>
      </trkpt>
      <trkpt lat="49.92893" lon="2.45946">
        <ele>97.1</ele>
        <time>2022-03-30T13:39:26Z</time>
      </trkpt>
      <trkpt lat="49.92892" lon="2.45946">
        <ele>97.1</ele>
        <time>2022-03-30T13:39:27Z</time>
      </trkpt>
      <trkpt lat="49.92891" lon="2.45945">
        <ele>97.1</ele>
        <time>2022-03-30T13:39:28Z</time>
      </trkpt>
      <trkpt lat="49.9289" lon="2.45945">
        <ele>97.1</ele>
        <time>2022-03-30T13:39:29Z</time>
      </trkpt>
      <trkpt lat="49.92889" lon="2.45944">
        <ele>97.1</ele>
        <time>2022-03-30T13:39:30Z</time>
      </trkpt>
      <trkpt lat="49.92888" lon="2.45944">
        <ele>97.1</ele>
        <time>2022-03-30T13:39:31Z</time>
      </trkpt>
      <trkpt lat="49.92887" lon="2.45943">
        <ele>97.1</ele>
        <time>2022-03-30T13:39:32Z</time>
      </trkpt>
      <trkpt lat="49.92886" lon="2.45943">
        <ele>97.1</ele>
        <time>2022-03-30T13:39:33Z</time>
      </trkpt>
      <trkpt lat="49.92885" lon="2.45942">
        <ele>97.1</ele>
        <time>2022-03-30T13:39:34Z</time>
      </trkpt>
      <trkpt lat="49.92884" lon="2.45942">
        <ele>97.1</ele>
        <time>2022-03-30T13:39:35Z</time>
      </trkpt>
      <trkpt lat="49.92883" lon="2.45941">
        <ele>97.1</ele>
        <time>2022-03-30T13:39:36Z</time>
      </trkpt>
      <trkpt lat="49.92881" lon="2.45941">
        <ele>97.1</ele>
        <time>2022-03-30T13:39:37Z</time>
      </trkpt>
      <trkpt lat="49.9288" lon="2.4594">
        <ele>97.1</ele>
        <time>2022-03-30T13:39:38Z</time>
      </trkpt>
      <trkpt lat="49.92879" lon="2.4594">
        <ele>97.1</ele>
        <time>2022-03-30T13:39:39Z</time>
      </trkpt>
      <trkpt lat="49.92878" lon="2.45939">
        <ele>97.1</ele>
        <time>2022-03-30T13:39:40Z</time>
      </trkpt>
      <trkpt lat="49.92877" lon="2.45939">
        <ele>97.1</ele>
        <time>2022-03-30T13:39:41Z</time>
      </trkpt>
      <trkpt lat="49.92876" lon="2.45938">
        <ele>97.1</ele>
        <time>2022-03-30T13:39:42Z</time>
      </trkpt>
      <trkpt lat="49.92875" lon="2.45937">
        <ele>97.1</ele>
        <time>2022-03-30T13:39:43Z</time>
      </trkpt>
      <trkpt lat="49.92874" lon="2.45937">
        <ele>97.1</ele>
        <time>2022-03-30T13:39:44Z</time>
      </trkpt>
      <trkpt lat="49.92873" lon="2.45936">
        <ele>97.1</ele>
        <time>2022-03-30T13:39:45Z</time>
      </trkpt>
      <trkpt lat="49.92871" lon="2.45934">
        <ele>97.1</ele>
        <time>2022-03-30T13:39:46Z</time>
      </trkpt>
      <trkpt lat="49.9287" lon="2.45934">
        <ele>97.1</ele>
        <time>2022-03-30T13:39:47Z</time>
      </trkpt>
      <trkpt lat="49.92869" lon="2.45933">
        <ele>97.1</ele>
        <time>2022-03-30T13:39:48Z</time>
      </trkpt>
      <trkpt lat="49.92868" lon="2.45932">
        <ele>97.1</ele>
        <time>2022-03-30T13:39:49Z</time>
      </trkpt>
      <trkpt lat="49.92868" lon="2.45931">
        <ele>97.1</ele>
        <time>2022-03-30T13:39:50Z</time>
      </trkpt>
      <trkpt lat="49.92867" lon="2.4593">
        <ele>97.1</ele>
        <time>2022-03-30T13:39:51Z</time>
      </trkpt>
      <trkpt lat="49.92866" lon="2.4593">
        <ele>97.1</ele>
        <time>2022-03-30T13:39:52Z</time>
      </trkpt>
      <trkpt lat="49.92865" lon="2.45929">
        <ele>97.1</ele>
        <time>2022-03-30T13:39:53Z</time>
      </trkpt>
      <trkpt lat="49.92864" lon="2.45928">
        <ele>97.1</ele>
        <time>2022-03-30T13:39:54Z</time>
      </trkpt>
      <trkpt lat="49.92863" lon="2.45927">
        <ele>97.1</ele>
        <time>2022-03-30T13:39:55Z</time>
      </trkpt>
      <trkpt lat="49.92862" lon="2.45927">
        <ele>97.1</ele>
        <time>2022-03-30T13:39:56Z</time>
      </trkpt>
      <trkpt lat="49.92862" lon="2.45926">
        <ele>97.1</ele>
        <time>2022-03-30T13:39:57Z</time>
      </trkpt>
      <trkpt lat="49.92861" lon="2.45925">
        <ele>97.1</ele>
        <time>2022-03-30T13:39:58Z</time>
      </trkpt>
      <trkpt lat="49.9286" lon="2.45925">
        <ele>97.1</ele>
        <time>2022-03-30T13:39:59Z</time>
      </trkpt>
      <trkpt lat="49.92859" lon="2.45925">
        <ele>97.1</ele>
        <time>2022-03-30T13:40:00Z</time>
      </trkpt>
      <trkpt lat="49.92859" lon="2.45925">
        <ele>97.1</ele>
        <time>2022-03-30T13:40:01Z</time>
      </trkpt>
      <trkpt lat="49.92858" lon="2.45924">
        <ele>97.1</ele>
        <time>2022-03-30T13:40:02Z</time>
      </trkpt>
      <trkpt lat="49.92857" lon="2.45924">
        <ele>97.1</ele>
        <time>2022-03-30T13:40:03Z</time>
      </trkpt>
      <trkpt lat="49.92856" lon="2.45924">
        <ele>97.1</ele>
        <time>2022-03-30T13:40:04Z</time>
      </trkpt>
      <trkpt lat="49.92856" lon="2.45924">
        <ele>97.1</ele>
        <time>2022-03-30T13:40:05Z</time>
      </trkpt>
      <trkpt lat="49.92855" lon="2.45923">
        <ele>97.1</ele>
        <time>2022-03-30T13:40:06Z</time>
      </trkpt>
      <trkpt lat="49.92855" lon="2.45923">
        <ele>97.1</ele>
        <time>2022-03-30T13:40:07Z</time>
      </trkpt>
      <trkpt lat="49.92854" lon="2.45922">
        <ele>97.1</ele>
        <time>2022-03-30T13:40:08Z</time>
      </trkpt>
      <trkpt lat="49.92854" lon="2.45921">
        <ele>97.1</ele>
        <time>2022-03-30T13:40:09Z</time>
      </trkpt>
      <trkpt lat="49.92854" lon="2.4592">
        <ele>97.1</ele>
        <time>2022-03-30T13:40:10Z</time>
      </trkpt>
      <trkpt lat="49.92854" lon="2.45919">
        <ele>97.1</ele>
        <time>2022-03-30T13:40:11Z</time>
      </trkpt>
      <trkpt lat="49.92853" lon="2.45919">
        <ele>97.1</ele>
        <time>2022-03-30T13:40:12Z</time>
      </trkpt>
      <trkpt lat="49.92854" lon="2.45919">
        <ele>97.1</ele>
        <time>2022-03-30T13:40:13Z</time>
      </trkpt>
      <trkpt lat="49.92854" lon="2.45919">
        <ele>97.1</ele>
        <time>2022-03-30T13:40:14Z</time>
      </trkpt>
      <trkpt lat="49.92854" lon="2.45919">
        <ele>97.1</ele>
        <time>2022-03-30T13:40:15Z</time>
      </trkpt>
      <trkpt lat="49.92854" lon="2.45919">
        <ele>97.1</ele>
        <time>2022-03-30T13:40:16Z</time>
      </trkpt>
      <trkpt lat="49.92854" lon="2.45919">
        <ele>97.1</ele>
        <time>2022-03-30T13:40:17Z</time>
      </trkpt>
      <trkpt lat="49.92854" lon="2.45919">
        <ele>97.1</ele>
        <time>2022-03-30T13:40:18Z</time>
      </trkpt>
      <trkpt lat="49.92854" lon="2.45919">
        <ele>97.1</ele>
        <time>2022-03-30T13:40:19Z</time>
      </trkpt>
      <trkpt lat="49.92854" lon="2.45919">
        <ele>97.1</ele>
        <time>2022-03-30T13:40:20Z</time>
      </trkpt>
      <trkpt lat="49.92854" lon="2.45919">
        <ele>97.1</ele>
        <time>2022-03-30T13:40:21Z</time>
      </trkpt>
      <trkpt lat="49.92854" lon="2.45919">
        <ele>97.1</ele>
        <time>2022-03-30T13:40:22Z</time>
      </trkpt>
      <trkpt lat="49.92854" lon="2.45919">
        <ele>97.1</ele>
        <time>2022-03-30T13:40:23Z</time>
      </trkpt>
      <trkpt lat="49.92854" lon="2.45919">
        <ele>97.1</ele>
        <time>2022-03-30T13:40:24Z</time>
      </trkpt>
      <trkpt lat="49.92854" lon="2.45919">
        <ele>97.1</ele>
        <time>2022-03-30T13:40:25Z</time>
      </trkpt>
      <trkpt lat="49.92854" lon="2.45919">
        <ele>97.1</ele>
        <time>2022-03-30T13:40:26Z</time>
      </trkpt>
      <trkpt lat="49.92854" lon="2.45919">
        <ele>97.1</ele>
        <time>2022-03-30T13:40:27Z</time>
      </trkpt>
      <trkpt lat="49.92854" lon="2.45919">
        <ele>97.1</ele>
        <time>2022-03-30T13:40:28Z</time>
      </trkpt>
      <trkpt lat="49.92854" lon="2.45919">
        <ele>97.1</ele>
        <time>2022-03-30T13:40:29Z</time>
      </trkpt>
      <trkpt lat="49.92854" lon="2.45919">
        <ele>97.1</ele>
        <time>2022-03-30T13:40:30Z</time>
      </trkpt>
      <trkpt lat="49.92854" lon="2.45919">
        <ele>97.1</ele>
        <time>2022-03-30T13:40:31Z</time>
      </trkpt>
      <trkpt lat="49.92854" lon="2.45919">
        <ele>97.1</ele>
        <time>2022-03-30T13:40:32Z</time>
      </trkpt>
      <trkpt lat="49.92854" lon="2.45919">
        <ele>97.1</ele>
        <time>2022-03-30T13:40:33Z</time>
      </trkpt>
      <trkpt lat="49.92854" lon="2.45919">
        <ele>97.1</ele>
        <time>2022-03-30T13:40:34Z</time>
      </trkpt>
      <trkpt lat="49.92854" lon="2.45919">
        <ele>97.1</ele>
        <time>2022-03-30T13:40:35Z</time>
      </trkpt>
      <trkpt lat="49.92855" lon="2.45919">
        <ele>97.1</ele>
        <time>2022-03-30T13:40:36Z</time>
      </trkpt>
      <trkpt lat="49.92855" lon="2.45919">
        <ele>97.1</ele>
        <time>2022-03-30T13:40:37Z</time>
      </trkpt>
      <trkpt lat="49.92856" lon="2.45919">
        <ele>97.1</ele>
        <time>2022-03-30T13:40:38Z</time>
      </trkpt>
      <trkpt lat="49.92856" lon="2.45919">
        <ele>97.1</ele>
        <time>2022-03-30T13:40:39Z</time>
      </trkpt>
      <trkpt lat="49.92857" lon="2.45919">
        <ele>97.1</ele>
        <time>2022-03-30T13:40:40Z</time>
      </trkpt>
      <trkpt lat="49.92857" lon="2.4592">
        <ele>97.1</ele>
        <time>2022-03-30T13:40:41Z</time>
      </trkpt>
      <trkpt lat="49.92857" lon="2.4592">
        <ele>97.1</ele>
        <time>2022-03-30T13:40:42Z</time>
      </trkpt>
      <trkpt lat="49.92858" lon="2.45921">
        <ele>97.1</ele>
        <time>2022-03-30T13:40:43Z</time>
      </trkpt>
      <trkpt lat="49.92858" lon="2.45921">
        <ele>97.1</ele>
        <time>2022-03-30T13:40:44Z</time>
      </trkpt>
      <trkpt lat="49.92858" lon="2.45921">
        <ele>97.1</ele>
        <time>2022-03-30T13:40:45Z</time>
      </trkpt>
      <trkpt lat="49.92858" lon="2.45921">
        <ele>97.1</ele>
        <time>2022-03-30T13:40:46Z</time>
      </trkpt>
      <trkpt lat="49.92858" lon="2.45921">
        <ele>97.1</ele>
        <time>2022-03-30T13:40:47Z</time>
      </trkpt>
      <trkpt lat="49.92858" lon="2.45921">
        <ele>97.1</ele>
        <time>2022-03-30T13:40:48Z</time>
      </trkpt>
      <trkpt lat="49.92858" lon="2.45921">
        <ele>97.1</ele>
        <time>2022-03-30T13:40:49Z</time>
      </trkpt>
      <trkpt lat="49.92858" lon="2.45921">
        <ele>97.1</ele>
        <time>2022-03-30T13:40:50Z</time>
      </trkpt>
      <trkpt lat="49.92858" lon="2.45921">
        <ele>97.1</ele>
        <time>2022-03-30T13:40:51Z</time>
      </trkpt>
      <trkpt lat="49.92858" lon="2.45921">
        <ele>97.1</ele>
        <time>2022-03-30T13:40:52Z</time>
      </trkpt>
      <trkpt lat="49.92858" lon="2.45921">
        <ele>97.1</ele>
        <time>2022-03-30T13:40:53Z</time>
      </trkpt>
      <trkpt lat="49.92858" lon="2.45921">
        <ele>97.1</ele>
        <time>2022-03-30T13:40:54Z</time>
      </trkpt>
      <trkpt lat="49.92858" lon="2.45921">
        <ele>97.1</ele>
        <time>2022-03-30T13:40:55Z</time>
      </trkpt>
      <trkpt lat="49.92858" lon="2.45921">
        <ele>97.1</ele>
        <time>2022-03-30T13:40:56Z</time>
      </trkpt>
      <trkpt lat="49.92858" lon="2.45921">
        <ele>97.1</ele>
        <time>2022-03-30T13:40:57Z</time>
      </trkpt>
      <trkpt lat="49.92858" lon="2.45921">
        <ele>97.1</ele>
        <time>2022-03-30T13:40:58Z</time>
      </trkpt>
      <trkpt lat="49.92858" lon="2.45921">
        <ele>97.1</ele>
        <time>2022-03-30T13:40:59Z</time>
      </trkpt>
      <trkpt lat="49.92858" lon="2.45921">
        <ele>97.1</ele>
        <time>2022-03-30T13:41:00Z</time>
      </trkpt>
      <trkpt lat="49.92858" lon="2.45921">
        <ele>97.1</ele>
        <time>2022-03-30T13:41:01Z</time>
      </trkpt>
      <trkpt lat="49.92858" lon="2.45921">
        <ele>97.1</ele>
        <time>2022-03-30T13:41:02Z</time>
      </trkpt>
      <trkpt lat="49.92858" lon="2.45921">
        <ele>97.1</ele>
        <time>2022-03-30T13:41:03Z</time>
      </trkpt>
      <trkpt lat="49.92858" lon="2.45921">
        <ele>97.1</ele>
        <time>2022-03-30T13:41:04Z</time>
      </trkpt>
      <trkpt lat="49.92858" lon="2.45921">
        <ele>97.1</ele>
        <time>2022-03-30T13:41:05Z</time>
      </trkpt>
      <trkpt lat="49.92858" lon="2.45921">
        <ele>97.1</ele>
        <time>2022-03-30T13:41:06Z</time>
      </trkpt>
      <trkpt lat="49.92858" lon="2.45921">
        <ele>97.1</ele>
        <time>2022-03-30T13:41:07Z</time>
      </trkpt>
      <trkpt lat="49.92858" lon="2.45921">
        <ele>97.1</ele>
        <time>2022-03-30T13:41:08Z</time>
      </trkpt>
      <trkpt lat="49.92858" lon="2.45921">
        <ele>97.1</ele>
        <time>2022-03-30T13:41:09Z</time>
      </trkpt>
      <trkpt lat="49.92858" lon="2.45921">
        <ele>97.1</ele>
        <time>2022-03-30T13:41:10Z</time>
      </trkpt>
      <trkpt lat="49.92858" lon="2.45921">
        <ele>97.1</ele>
        <time>2022-03-30T13:41:11Z</time>
      </trkpt>
      <trkpt lat="49.92858" lon="2.45921">
        <ele>97.1</ele>
        <time>2022-03-30T13:41:12Z</time>
      </trkpt>
      <trkpt lat="49.92858" lon="2.45921">
        <ele>97.1</ele>
        <time>2022-03-30T13:41:13Z</time>
      </trkpt>
      <trkpt lat="49.92858" lon="2.45921">
        <ele>97.1</ele>
        <time>2022-03-30T13:41:14Z</time>
      </trkpt>
      <trkpt lat="49.92858" lon="2.45921">
        <ele>97.1</ele>
        <time>2022-03-30T13:41:15Z</time>
      </trkpt>
      <trkpt lat="49.92858" lon="2.45921">
        <ele>97.1</ele>
        <time>2022-03-30T13:41:16Z</time>
      </trkpt>
      <trkpt lat="49.92858" lon="2.45921">
        <ele>97.1</ele>
        <time>2022-03-30T13:41:17Z</time>
      </trkpt>
      <trkpt lat="49.92858" lon="2.45921">
        <ele>97.1</ele>
        <time>2022-03-30T13:41:18Z</time>
      </trkpt>
      <trkpt lat="49.92858" lon="2.45921">
        <ele>97.1</ele>
        <time>2022-03-30T13:41:19Z</time>
      </trkpt>
      <trkpt lat="49.92858" lon="2.45921">
        <ele>97.1</ele>
        <time>2022-03-30T13:41:20Z</time>
      </trkpt>
      <trkpt lat="49.92858" lon="2.45921">
        <ele>97.1</ele>
        <time>2022-03-30T13:41:21Z</time>
      </trkpt>
      <trkpt lat="49.92858" lon="2.45921">
        <ele>97.1</ele>
        <time>2022-03-30T13:41:22Z</time>
      </trkpt>
      <trkpt lat="49.92858" lon="2.45921">
        <ele>97.1</ele>
        <time>2022-03-30T13:41:23Z</time>
      </trkpt>
      <trkpt lat="49.92858" lon="2.45921">
        <ele>97.1</ele>
        <time>2022-03-30T13:41:24Z</time>
      </trkpt>
      <trkpt lat="49.92858" lon="2.45921">
        <ele>97.1</ele>
        <time>2022-03-30T13:41:25Z</time>
      </trkpt>
      <trkpt lat="49.92858" lon="2.45921">
        <ele>97.1</ele>
        <time>2022-03-30T13:41:26Z</time>
      </trkpt>
      <trkpt lat="49.92858" lon="2.45921">
        <ele>97.1</ele>
        <time>2022-03-30T13:41:27Z</time>
      </trkpt>
      <trkpt lat="49.92858" lon="2.45921">
        <ele>97.1</ele>
        <time>2022-03-30T13:41:28Z</time>
      </trkpt>
      <trkpt lat="49.92858" lon="2.45921">
        <ele>97.1</ele>
        <time>2022-03-30T13:41:29Z</time>
      </trkpt>
      <trkpt lat="49.92858" lon="2.45921">
        <ele>97.1</ele>
        <time>2022-03-30T13:41:30Z</time>
      </trkpt>
      <trkpt lat="49.92857" lon="2.45922">
        <ele>97.1</ele>
        <time>2022-03-30T13:41:31Z</time>
      </trkpt>
      <trkpt lat="49.92856" lon="2.45922">
        <ele>97.1</ele>
        <time>2022-03-30T13:41:32Z</time>
      </trkpt>
      <trkpt lat="49.92854" lon="2.45923">
        <ele>97.1</ele>
        <time>2022-03-30T13:41:33Z</time>
      </trkpt>
      <trkpt lat="49.92853" lon="2.45923">
        <ele>97.2</ele>
        <time>2022-03-30T13:41:34Z</time>
      </trkpt>
      <trkpt lat="49.92852" lon="2.45922">
        <ele>97.2</ele>
        <time>2022-03-30T13:41:35Z</time>
      </trkpt>
      <trkpt lat="49.92851" lon="2.45922">
        <ele>97.2</ele>
        <time>2022-03-30T13:41:36Z</time>
      </trkpt>
      <trkpt lat="49.92849" lon="2.45921">
        <ele>97.2</ele>
        <time>2022-03-30T13:41:37Z</time>
      </trkpt>
      <trkpt lat="49.92848" lon="2.45921">
        <ele>97.2</ele>
        <time>2022-03-30T13:41:38Z</time>
      </trkpt>
      <trkpt lat="49.92847" lon="2.45921">
        <ele>97.2</ele>
        <time>2022-03-30T13:41:39Z</time>
      </trkpt>
      <trkpt lat="49.92845" lon="2.45919">
        <ele>97.2</ele>
        <time>2022-03-30T13:41:40Z</time>
      </trkpt>
      <trkpt lat="49.92845" lon="2.45919">
        <ele>97.2</ele>
        <time>2022-03-30T13:41:41Z</time>
      </trkpt>
      <trkpt lat="49.92844" lon="2.45918">
        <ele>97.2</ele>
        <time>2022-03-30T13:41:42Z</time>
      </trkpt>
      <trkpt lat="49.92843" lon="2.45917">
        <ele>97.2</ele>
        <time>2022-03-30T13:41:43Z</time>
      </trkpt>
      <trkpt lat="49.92841" lon="2.45916">
        <ele>97.2</ele>
        <time>2022-03-30T13:41:44Z</time>
      </trkpt>
      <trkpt lat="49.9284" lon="2.45915">
        <ele>97.1</ele>
        <time>2022-03-30T13:41:45Z</time>
      </trkpt>
      <trkpt lat="49.92839" lon="2.45914">
        <ele>97.1</ele>
        <time>2022-03-30T13:41:46Z</time>
      </trkpt>
      <trkpt lat="49.92838" lon="2.45914">
        <ele>97.1</ele>
        <time>2022-03-30T13:41:47Z</time>
      </trkpt>
      <trkpt lat="49.92837" lon="2.45913">
        <ele>97.1</ele>
        <time>2022-03-30T13:41:48Z</time>
      </trkpt>
      <trkpt lat="49.92836" lon="2.45912">
        <ele>97.1</ele>
        <time>2022-03-30T13:41:49Z</time>
      </trkpt>
      <trkpt lat="49.92836" lon="2.45911">
        <ele>97.1</ele>
        <time>2022-03-30T13:41:50Z</time>
      </trkpt>
      <trkpt lat="49.92834" lon="2.45909">
        <ele>97.1</ele>
        <time>2022-03-30T13:41:51Z</time>
      </trkpt>
      <trkpt lat="49.92833" lon="2.45909">
        <ele>97.1</ele>
        <time>2022-03-30T13:41:52Z</time>
      </trkpt>
      <trkpt lat="49.92832" lon="2.45908">
        <ele>97.1</ele>
        <time>2022-03-30T13:41:53Z</time>
      </trkpt>
      <trkpt lat="49.92831" lon="2.45907">
        <ele>97.1</ele>
        <time>2022-03-30T13:41:54Z</time>
      </trkpt>
      <trkpt lat="49.92831" lon="2.45906">
        <ele>97.1</ele>
        <time>2022-03-30T13:41:55Z</time>
      </trkpt>
      <trkpt lat="49.9283" lon="2.45906">
        <ele>97.1</ele>
        <time>2022-03-30T13:41:56Z</time>
      </trkpt>
      <trkpt lat="49.92829" lon="2.45905">
        <ele>97.1</ele>
        <time>2022-03-30T13:41:57Z</time>
      </trkpt>
      <trkpt lat="49.92828" lon="2.45904">
        <ele>97.1</ele>
        <time>2022-03-30T13:41:58Z</time>
      </trkpt>
      <trkpt lat="49.92827" lon="2.45903">
        <ele>97.1</ele>
        <time>2022-03-30T13:41:59Z</time>
      </trkpt>
      <trkpt lat="49.92825" lon="2.45901">
        <ele>97</ele>
        <time>2022-03-30T13:42:00Z</time>
      </trkpt>
      <trkpt lat="49.92824" lon="2.45901">
        <ele>97</ele>
        <time>2022-03-30T13:42:01Z</time>
      </trkpt>
      <trkpt lat="49.92824" lon="2.459">
        <ele>97</ele>
        <time>2022-03-30T13:42:02Z</time>
      </trkpt>
      <trkpt lat="49.92823" lon="2.45899">
        <ele>97</ele>
        <time>2022-03-30T13:42:03Z</time>
      </trkpt>
      <trkpt lat="49.92822" lon="2.45898">
        <ele>97</ele>
        <time>2022-03-30T13:42:04Z</time>
      </trkpt>
      <trkpt lat="49.92821" lon="2.45897">
        <ele>97</ele>
        <time>2022-03-30T13:42:05Z</time>
      </trkpt>
      <trkpt lat="49.92819" lon="2.45896">
        <ele>97</ele>
        <time>2022-03-30T13:42:06Z</time>
      </trkpt>
      <trkpt lat="49.92818" lon="2.45895">
        <ele>97</ele>
        <time>2022-03-30T13:42:07Z</time>
      </trkpt>
      <trkpt lat="49.92817" lon="2.45894">
        <ele>97</ele>
        <time>2022-03-30T13:42:08Z</time>
      </trkpt>
      <trkpt lat="49.92816" lon="2.45893">
        <ele>97</ele>
        <time>2022-03-30T13:42:09Z</time>
      </trkpt>
      <trkpt lat="49.92815" lon="2.45893">
        <ele>97</ele>
        <time>2022-03-30T13:42:10Z</time>
      </trkpt>
      <trkpt lat="49.92814" lon="2.45892">
        <ele>97</ele>
        <time>2022-03-30T13:42:11Z</time>
      </trkpt>
      <trkpt lat="49.92813" lon="2.45891">
        <ele>97</ele>
        <time>2022-03-30T13:42:12Z</time>
      </trkpt>
      <trkpt lat="49.92812" lon="2.45891">
        <ele>97</ele>
        <time>2022-03-30T13:42:13Z</time>
      </trkpt>
      <trkpt lat="49.92811" lon="2.4589">
        <ele>97</ele>
        <time>2022-03-30T13:42:14Z</time>
      </trkpt>
      <trkpt lat="49.9281" lon="2.45889">
        <ele>97</ele>
        <time>2022-03-30T13:42:15Z</time>
      </trkpt>
      <trkpt lat="49.9281" lon="2.45889">
        <ele>96.9</ele>
        <time>2022-03-30T13:42:16Z</time>
      </trkpt>
      <trkpt lat="49.92809" lon="2.45888">
        <ele>96.9</ele>
        <time>2022-03-30T13:42:17Z</time>
      </trkpt>
      <trkpt lat="49.92808" lon="2.45887">
        <ele>96.9</ele>
        <time>2022-03-30T13:42:18Z</time>
      </trkpt>
      <trkpt lat="49.92807" lon="2.45887">
        <ele>96.9</ele>
        <time>2022-03-30T13:42:19Z</time>
      </trkpt>
      <trkpt lat="49.92806" lon="2.45886">
        <ele>96.9</ele>
        <time>2022-03-30T13:42:20Z</time>
      </trkpt>
      <trkpt lat="49.92805" lon="2.45885">
        <ele>96.9</ele>
        <time>2022-03-30T13:42:21Z</time>
      </trkpt>
      <trkpt lat="49.92803" lon="2.45883">
        <ele>96.9</ele>
        <time>2022-03-30T13:42:22Z</time>
      </trkpt>
      <trkpt lat="49.92803" lon="2.45883">
        <ele>96.9</ele>
        <time>2022-03-30T13:42:23Z</time>
      </trkpt>
      <trkpt lat="49.92802" lon="2.45882">
        <ele>96.9</ele>
        <time>2022-03-30T13:42:24Z</time>
      </trkpt>
      <trkpt lat="49.92801" lon="2.45881">
        <ele>96.9</ele>
        <time>2022-03-30T13:42:25Z</time>
      </trkpt>
      <trkpt lat="49.928" lon="2.4588">
        <ele>96.9</ele>
        <time>2022-03-30T13:42:26Z</time>
      </trkpt>
      <trkpt lat="49.928" lon="2.4588">
        <ele>96.9</ele>
        <time>2022-03-30T13:42:27Z</time>
      </trkpt>
      <trkpt lat="49.92799" lon="2.45879">
        <ele>96.9</ele>
        <time>2022-03-30T13:42:28Z</time>
      </trkpt>
      <trkpt lat="49.92798" lon="2.45878">
        <ele>96.9</ele>
        <time>2022-03-30T13:42:29Z</time>
      </trkpt>
      <trkpt lat="49.92797" lon="2.45877">
        <ele>96.9</ele>
        <time>2022-03-30T13:42:30Z</time>
      </trkpt>
      <trkpt lat="49.92796" lon="2.45876">
        <ele>96.9</ele>
        <time>2022-03-30T13:42:31Z</time>
      </trkpt>
      <trkpt lat="49.92795" lon="2.45875">
        <ele>96.9</ele>
        <time>2022-03-30T13:42:32Z</time>
      </trkpt>
      <trkpt lat="49.92794" lon="2.45875">
        <ele>96.9</ele>
        <time>2022-03-30T13:42:33Z</time>
      </trkpt>
      <trkpt lat="49.92792" lon="2.45873">
        <ele>96.9</ele>
        <time>2022-03-30T13:42:34Z</time>
      </trkpt>
      <trkpt lat="49.92792" lon="2.45873">
        <ele>96.9</ele>
        <time>2022-03-30T13:42:35Z</time>
      </trkpt>
      <trkpt lat="49.92791" lon="2.45872">
        <ele>96.9</ele>
        <time>2022-03-30T13:42:36Z</time>
      </trkpt>
      <trkpt lat="49.92791" lon="2.45872">
        <ele>96.9</ele>
        <time>2022-03-30T13:42:37Z</time>
      </trkpt>
      <trkpt lat="49.9279" lon="2.45871">
        <ele>96.9</ele>
        <time>2022-03-30T13:42:38Z</time>
      </trkpt>
      <trkpt lat="49.92789" lon="2.4587">
        <ele>96.9</ele>
        <time>2022-03-30T13:42:39Z</time>
      </trkpt>
      <trkpt lat="49.92788" lon="2.4587">
        <ele>96.9</ele>
        <time>2022-03-30T13:42:40Z</time>
      </trkpt>
      <trkpt lat="49.92787" lon="2.45869">
        <ele>96.8</ele>
        <time>2022-03-30T13:42:41Z</time>
      </trkpt>
      <trkpt lat="49.92786" lon="2.45868">
        <ele>96.8</ele>
        <time>2022-03-30T13:42:42Z</time>
      </trkpt>
      <trkpt lat="49.92784" lon="2.45867">
        <ele>96.8</ele>
        <time>2022-03-30T13:42:43Z</time>
      </trkpt>
      <trkpt lat="49.92783" lon="2.45867">
        <ele>96.8</ele>
        <time>2022-03-30T13:42:44Z</time>
      </trkpt>
      <trkpt lat="49.92782" lon="2.45866">
        <ele>96.8</ele>
        <time>2022-03-30T13:42:45Z</time>
      </trkpt>
      <trkpt lat="49.92781" lon="2.45865">
        <ele>96.8</ele>
        <time>2022-03-30T13:42:46Z</time>
      </trkpt>
      <trkpt lat="49.9278" lon="2.45864">
        <ele>96.8</ele>
        <time>2022-03-30T13:42:47Z</time>
      </trkpt>
      <trkpt lat="49.92779" lon="2.45864">
        <ele>96.8</ele>
        <time>2022-03-30T13:42:48Z</time>
      </trkpt>
      <trkpt lat="49.92778" lon="2.45863">
        <ele>96.8</ele>
        <time>2022-03-30T13:42:49Z</time>
      </trkpt>
      <trkpt lat="49.92776" lon="2.45862">
        <ele>96.8</ele>
        <time>2022-03-30T13:42:50Z</time>
      </trkpt>
      <trkpt lat="49.92776" lon="2.45861">
        <ele>96.8</ele>
        <time>2022-03-30T13:42:51Z</time>
      </trkpt>
      <trkpt lat="49.92775" lon="2.4586">
        <ele>96.8</ele>
        <time>2022-03-30T13:42:52Z</time>
      </trkpt>
      <trkpt lat="49.92774" lon="2.4586">
        <ele>96.8</ele>
        <time>2022-03-30T13:42:53Z</time>
      </trkpt>
      <trkpt lat="49.92773" lon="2.45858">
        <ele>96.8</ele>
        <time>2022-03-30T13:42:54Z</time>
      </trkpt>
      <trkpt lat="49.92771" lon="2.45857">
        <ele>96.8</ele>
        <time>2022-03-30T13:42:55Z</time>
      </trkpt>
      <trkpt lat="49.9277" lon="2.45857">
        <ele>96.7</ele>
        <time>2022-03-30T13:42:56Z</time>
      </trkpt>
      <trkpt lat="49.9277" lon="2.45856">
        <ele>96.7</ele>
        <time>2022-03-30T13:42:57Z</time>
      </trkpt>
      <trkpt lat="49.92769" lon="2.45856">
        <ele>96.7</ele>
        <time>2022-03-30T13:42:58Z</time>
      </trkpt>
      <trkpt lat="49.92768" lon="2.45855">
        <ele>96.7</ele>
        <time>2022-03-30T13:42:59Z</time>
      </trkpt>
      <trkpt lat="49.92767" lon="2.45854">
        <ele>96.7</ele>
        <time>2022-03-30T13:43:00Z</time>
      </trkpt>
      <trkpt lat="49.92765" lon="2.45852">
        <ele>96.7</ele>
        <time>2022-03-30T13:43:01Z</time>
      </trkpt>
      <trkpt lat="49.92764" lon="2.45852">
        <ele>96.7</ele>
        <time>2022-03-30T13:43:02Z</time>
      </trkpt>
      <trkpt lat="49.92764" lon="2.45851">
        <ele>96.7</ele>
        <time>2022-03-30T13:43:03Z</time>
      </trkpt>
      <trkpt lat="49.92762" lon="2.4585">
        <ele>96.7</ele>
        <time>2022-03-30T13:43:04Z</time>
      </trkpt>
      <trkpt lat="49.92761" lon="2.45849">
        <ele>96.7</ele>
        <time>2022-03-30T13:43:05Z</time>
      </trkpt>
      <trkpt lat="49.9276" lon="2.45849">
        <ele>96.7</ele>
        <time>2022-03-30T13:43:06Z</time>
      </trkpt>
      <trkpt lat="49.92759" lon="2.45848">
        <ele>96.7</ele>
        <time>2022-03-30T13:43:07Z</time>
      </trkpt>
      <trkpt lat="49.92758" lon="2.45847">
        <ele>96.7</ele>
        <time>2022-03-30T13:43:08Z</time>
      </trkpt>
      <trkpt lat="49.92757" lon="2.45846">
        <ele>96.7</ele>
        <time>2022-03-30T13:43:09Z</time>
      </trkpt>
      <trkpt lat="49.92756" lon="2.45845">
        <ele>96.7</ele>
        <time>2022-03-30T13:43:10Z</time>
      </trkpt>
      <trkpt lat="49.92755" lon="2.45844">
        <ele>96.7</ele>
        <time>2022-03-30T13:43:11Z</time>
      </trkpt>
      <trkpt lat="49.92754" lon="2.45843">
        <ele>96.7</ele>
        <time>2022-03-30T13:43:12Z</time>
      </trkpt>
      <trkpt lat="49.92753" lon="2.45842">
        <ele>96.6</ele>
        <time>2022-03-30T13:43:13Z</time>
      </trkpt>
      <trkpt lat="49.92752" lon="2.45841">
        <ele>96.6</ele>
        <time>2022-03-30T13:43:14Z</time>
      </trkpt>
      <trkpt lat="49.92751" lon="2.45841">
        <ele>96.6</ele>
        <time>2022-03-30T13:43:15Z</time>
      </trkpt>
      <trkpt lat="49.9275" lon="2.4584">
        <ele>96.6</ele>
        <time>2022-03-30T13:43:16Z</time>
      </trkpt>
      <trkpt lat="49.92749" lon="2.45839">
        <ele>96.6</ele>
        <time>2022-03-30T13:43:17Z</time>
      </trkpt>
      <trkpt lat="49.92748" lon="2.45838">
        <ele>96.6</ele>
        <time>2022-03-30T13:43:18Z</time>
      </trkpt>
      <trkpt lat="49.92747" lon="2.45837">
        <ele>96.6</ele>
        <time>2022-03-30T13:43:19Z</time>
      </trkpt>
      <trkpt lat="49.92746" lon="2.45836">
        <ele>96.6</ele>
        <time>2022-03-30T13:43:20Z</time>
      </trkpt>
      <trkpt lat="49.92745" lon="2.45835">
        <ele>96.6</ele>
        <time>2022-03-30T13:43:21Z</time>
      </trkpt>
      <trkpt lat="49.92744" lon="2.45835">
        <ele>96.6</ele>
        <time>2022-03-30T13:43:22Z</time>
      </trkpt>
      <trkpt lat="49.92743" lon="2.45834">
        <ele>96.6</ele>
        <time>2022-03-30T13:43:23Z</time>
      </trkpt>
      <trkpt lat="49.92743" lon="2.45833">
        <ele>96.5</ele>
        <time>2022-03-30T13:43:24Z</time>
      </trkpt>
      <trkpt lat="49.92742" lon="2.45832">
        <ele>96.5</ele>
        <time>2022-03-30T13:43:25Z</time>
      </trkpt>
      <trkpt lat="49.92741" lon="2.45831">
        <ele>96.5</ele>
        <time>2022-03-30T13:43:26Z</time>
      </trkpt>
      <trkpt lat="49.9274" lon="2.45831">
        <ele>96.5</ele>
        <time>2022-03-30T13:43:27Z</time>
      </trkpt>
      <trkpt lat="49.92739" lon="2.4583">
        <ele>96.5</ele>
        <time>2022-03-30T13:43:28Z</time>
      </trkpt>
      <trkpt lat="49.92738" lon="2.4583">
        <ele>96.5</ele>
        <time>2022-03-30T13:43:29Z</time>
      </trkpt>
      <trkpt lat="49.92737" lon="2.45829">
        <ele>96.5</ele>
        <time>2022-03-30T13:43:30Z</time>
      </trkpt>
      <trkpt lat="49.92736" lon="2.45828">
        <ele>96.5</ele>
        <time>2022-03-30T13:43:31Z</time>
      </trkpt>
      <trkpt lat="49.92735" lon="2.45827">
        <ele>96.4</ele>
        <time>2022-03-30T13:43:32Z</time>
      </trkpt>
      <trkpt lat="49.92734" lon="2.45827">
        <ele>96.4</ele>
        <time>2022-03-30T13:43:33Z</time>
      </trkpt>
      <trkpt lat="49.92733" lon="2.45826">
        <ele>96.4</ele>
        <time>2022-03-30T13:43:34Z</time>
      </trkpt>
      <trkpt lat="49.92732" lon="2.45825">
        <ele>96.4</ele>
        <time>2022-03-30T13:43:35Z</time>
      </trkpt>
      <trkpt lat="49.92731" lon="2.45824">
        <ele>96.4</ele>
        <time>2022-03-30T13:43:36Z</time>
      </trkpt>
      <trkpt lat="49.9273" lon="2.45824">
        <ele>96.4</ele>
        <time>2022-03-30T13:43:37Z</time>
      </trkpt>
      <trkpt lat="49.92729" lon="2.45823">
        <ele>96.3</ele>
        <time>2022-03-30T13:43:38Z</time>
      </trkpt>
      <trkpt lat="49.92728" lon="2.45822">
        <ele>96.3</ele>
        <time>2022-03-30T13:43:39Z</time>
      </trkpt>
      <trkpt lat="49.92727" lon="2.45821">
        <ele>96.3</ele>
        <time>2022-03-30T13:43:40Z</time>
      </trkpt>
      <trkpt lat="49.92726" lon="2.4582">
        <ele>96.3</ele>
        <time>2022-03-30T13:43:41Z</time>
      </trkpt>
      <trkpt lat="49.92725" lon="2.4582">
        <ele>96.3</ele>
        <time>2022-03-30T13:43:42Z</time>
      </trkpt>
      <trkpt lat="49.92723" lon="2.45818">
        <ele>96.3</ele>
        <time>2022-03-30T13:43:43Z</time>
      </trkpt>
      <trkpt lat="49.92723" lon="2.45818">
        <ele>96.3</ele>
        <time>2022-03-30T13:43:44Z</time>
      </trkpt>
      <trkpt lat="49.92722" lon="2.45817">
        <ele>96.3</ele>
        <time>2022-03-30T13:43:45Z</time>
      </trkpt>
      <trkpt lat="49.9272" lon="2.45816">
        <ele>96.3</ele>
        <time>2022-03-30T13:43:46Z</time>
      </trkpt>
      <trkpt lat="49.92719" lon="2.45815">
        <ele>96.3</ele>
        <time>2022-03-30T13:43:47Z</time>
      </trkpt>
      <trkpt lat="49.92719" lon="2.45815">
        <ele>96.3</ele>
        <time>2022-03-30T13:43:48Z</time>
      </trkpt>
      <trkpt lat="49.92717" lon="2.45814">
        <ele>96.2</ele>
        <time>2022-03-30T13:43:49Z</time>
      </trkpt>
      <trkpt lat="49.92716" lon="2.45814">
        <ele>96.2</ele>
        <time>2022-03-30T13:43:50Z</time>
      </trkpt>
      <trkpt lat="49.92715" lon="2.45813">
        <ele>96.2</ele>
        <time>2022-03-30T13:43:51Z</time>
      </trkpt>
      <trkpt lat="49.92714" lon="2.45812">
        <ele>96.2</ele>
        <time>2022-03-30T13:43:52Z</time>
      </trkpt>
      <trkpt lat="49.92713" lon="2.45812">
        <ele>96.2</ele>
        <time>2022-03-30T13:43:53Z</time>
      </trkpt>
      <trkpt lat="49.92712" lon="2.45811">
        <ele>96.2</ele>
        <time>2022-03-30T13:43:54Z</time>
      </trkpt>
      <trkpt lat="49.92711" lon="2.45811">
        <ele>96.2</ele>
        <time>2022-03-30T13:43:55Z</time>
      </trkpt>
      <trkpt lat="49.9271" lon="2.4581">
        <ele>96.2</ele>
        <time>2022-03-30T13:43:56Z</time>
      </trkpt>
      <trkpt lat="49.92709" lon="2.45809">
        <ele>96.2</ele>
        <time>2022-03-30T13:43:57Z</time>
      </trkpt>
      <trkpt lat="49.92708" lon="2.45809">
        <ele>96.2</ele>
        <time>2022-03-30T13:43:58Z</time>
      </trkpt>
      <trkpt lat="49.92707" lon="2.45808">
        <ele>96.1</ele>
        <time>2022-03-30T13:43:59Z</time>
      </trkpt>
      <trkpt lat="49.92706" lon="2.45807">
        <ele>96.1</ele>
        <time>2022-03-30T13:44:00Z</time>
      </trkpt>
      <trkpt lat="49.92704" lon="2.45806">
        <ele>96.1</ele>
        <time>2022-03-30T13:44:01Z</time>
      </trkpt>
      <trkpt lat="49.92703" lon="2.45806">
        <ele>96.1</ele>
        <time>2022-03-30T13:44:02Z</time>
      </trkpt>
      <trkpt lat="49.92702" lon="2.45805">
        <ele>96.1</ele>
        <time>2022-03-30T13:44:03Z</time>
      </trkpt>
      <trkpt lat="49.92701" lon="2.45804">
        <ele>96.1</ele>
        <time>2022-03-30T13:44:04Z</time>
      </trkpt>
      <trkpt lat="49.927" lon="2.45804">
        <ele>96.1</ele>
        <time>2022-03-30T13:44:05Z</time>
      </trkpt>
      <trkpt lat="49.92699" lon="2.45803">
        <ele>96.1</ele>
        <time>2022-03-30T13:44:06Z</time>
      </trkpt>
      <trkpt lat="49.92698" lon="2.45803">
        <ele>96.1</ele>
        <time>2022-03-30T13:44:07Z</time>
      </trkpt>
      <trkpt lat="49.92697" lon="2.45802">
        <ele>96.1</ele>
        <time>2022-03-30T13:44:08Z</time>
      </trkpt>
      <trkpt lat="49.92696" lon="2.45802">
        <ele>96</ele>
        <time>2022-03-30T13:44:09Z</time>
      </trkpt>
      <trkpt lat="49.92695" lon="2.45801">
        <ele>96</ele>
        <time>2022-03-30T13:44:10Z</time>
      </trkpt>
      <trkpt lat="49.92694" lon="2.458">
        <ele>96</ele>
        <time>2022-03-30T13:44:11Z</time>
      </trkpt>
      <trkpt lat="49.92692" lon="2.458">
        <ele>96</ele>
        <time>2022-03-30T13:44:12Z</time>
      </trkpt>
      <trkpt lat="49.92691" lon="2.45799">
        <ele>96</ele>
        <time>2022-03-30T13:44:13Z</time>
      </trkpt>
      <trkpt lat="49.9269" lon="2.45798">
        <ele>96</ele>
        <time>2022-03-30T13:44:14Z</time>
      </trkpt>
      <trkpt lat="49.92689" lon="2.45797">
        <ele>96</ele>
        <time>2022-03-30T13:44:15Z</time>
      </trkpt>
      <trkpt lat="49.92688" lon="2.45797">
        <ele>96</ele>
        <time>2022-03-30T13:44:16Z</time>
      </trkpt>
      <trkpt lat="49.92687" lon="2.45796">
        <ele>96</ele>
        <time>2022-03-30T13:44:17Z</time>
      </trkpt>
      <trkpt lat="49.92686" lon="2.45796">
        <ele>96</ele>
        <time>2022-03-30T13:44:18Z</time>
      </trkpt>
      <trkpt lat="49.92685" lon="2.45795">
        <ele>95.9</ele>
        <time>2022-03-30T13:44:19Z</time>
      </trkpt>
      <trkpt lat="49.92684" lon="2.45794">
        <ele>95.9</ele>
        <time>2022-03-30T13:44:20Z</time>
      </trkpt>
      <trkpt lat="49.92683" lon="2.45794">
        <ele>95.9</ele>
        <time>2022-03-30T13:44:21Z</time>
      </trkpt>
      <trkpt lat="49.92682" lon="2.45793">
        <ele>95.9</ele>
        <time>2022-03-30T13:44:22Z</time>
      </trkpt>
      <trkpt lat="49.92681" lon="2.45793">
        <ele>95.9</ele>
        <time>2022-03-30T13:44:23Z</time>
      </trkpt>
      <trkpt lat="49.92679" lon="2.45792">
        <ele>95.9</ele>
        <time>2022-03-30T13:44:24Z</time>
      </trkpt>
      <trkpt lat="49.92678" lon="2.45792">
        <ele>95.8</ele>
        <time>2022-03-30T13:44:25Z</time>
      </trkpt>
      <trkpt lat="49.92677" lon="2.45791">
        <ele>95.8</ele>
        <time>2022-03-30T13:44:26Z</time>
      </trkpt>
      <trkpt lat="49.92676" lon="2.4579">
        <ele>95.8</ele>
        <time>2022-03-30T13:44:27Z</time>
      </trkpt>
      <trkpt lat="49.92675" lon="2.4579">
        <ele>95.8</ele>
        <time>2022-03-30T13:44:28Z</time>
      </trkpt>
      <trkpt lat="49.92674" lon="2.45789">
        <ele>95.8</ele>
        <time>2022-03-30T13:44:29Z</time>
      </trkpt>
      <trkpt lat="49.92673" lon="2.45789">
        <ele>95.8</ele>
        <time>2022-03-30T13:44:30Z</time>
      </trkpt>
      <trkpt lat="49.92672" lon="2.45788">
        <ele>95.8</ele>
        <time>2022-03-30T13:44:31Z</time>
      </trkpt>
      <trkpt lat="49.92671" lon="2.45788">
        <ele>95.7</ele>
        <time>2022-03-30T13:44:32Z</time>
      </trkpt>
      <trkpt lat="49.9267" lon="2.45787">
        <ele>95.7</ele>
        <time>2022-03-30T13:44:33Z</time>
      </trkpt>
      <trkpt lat="49.92669" lon="2.45786">
        <ele>95.7</ele>
        <time>2022-03-30T13:44:34Z</time>
      </trkpt>
      <trkpt lat="49.92668" lon="2.45786">
        <ele>95.7</ele>
        <time>2022-03-30T13:44:35Z</time>
      </trkpt>
      <trkpt lat="49.92667" lon="2.45785">
        <ele>95.7</ele>
        <time>2022-03-30T13:44:36Z</time>
      </trkpt>
      <trkpt lat="49.92666" lon="2.45785">
        <ele>95.7</ele>
        <time>2022-03-30T13:44:37Z</time>
      </trkpt>
      <trkpt lat="49.92665" lon="2.45784">
        <ele>95.6</ele>
        <time>2022-03-30T13:44:38Z</time>
      </trkpt>
      <trkpt lat="49.92664" lon="2.45784">
        <ele>95.6</ele>
        <time>2022-03-30T13:44:39Z</time>
      </trkpt>
      <trkpt lat="49.92663" lon="2.45783">
        <ele>95.6</ele>
        <time>2022-03-30T13:44:40Z</time>
      </trkpt>
      <trkpt lat="49.92662" lon="2.45783">
        <ele>95.6</ele>
        <time>2022-03-30T13:44:41Z</time>
      </trkpt>
      <trkpt lat="49.9266" lon="2.45781">
        <ele>95.6</ele>
        <time>2022-03-30T13:44:42Z</time>
      </trkpt>
      <trkpt lat="49.92659" lon="2.45781">
        <ele>95.5</ele>
        <time>2022-03-30T13:44:43Z</time>
      </trkpt>
      <trkpt lat="49.92658" lon="2.4578">
        <ele>95.5</ele>
        <time>2022-03-30T13:44:44Z</time>
      </trkpt>
      <trkpt lat="49.92657" lon="2.4578">
        <ele>95.5</ele>
        <time>2022-03-30T13:44:45Z</time>
      </trkpt>
      <trkpt lat="49.92656" lon="2.45779">
        <ele>95.5</ele>
        <time>2022-03-30T13:44:46Z</time>
      </trkpt>
      <trkpt lat="49.92654" lon="2.45778">
        <ele>95.5</ele>
        <time>2022-03-30T13:44:47Z</time>
      </trkpt>
      <trkpt lat="49.92653" lon="2.45778">
        <ele>95.5</ele>
        <time>2022-03-30T13:44:48Z</time>
      </trkpt>
      <trkpt lat="49.92652" lon="2.45777">
        <ele>95.4</ele>
        <time>2022-03-30T13:44:49Z</time>
      </trkpt>
      <trkpt lat="49.92651" lon="2.45777">
        <ele>95.4</ele>
        <time>2022-03-30T13:44:50Z</time>
      </trkpt>
      <trkpt lat="49.9265" lon="2.45776">
        <ele>95.4</ele>
        <time>2022-03-30T13:44:51Z</time>
      </trkpt>
      <trkpt lat="49.92649" lon="2.45776">
        <ele>95.4</ele>
        <time>2022-03-30T13:44:52Z</time>
      </trkpt>
      <trkpt lat="49.92648" lon="2.45775">
        <ele>95.4</ele>
        <time>2022-03-30T13:44:53Z</time>
      </trkpt>
      <trkpt lat="49.92647" lon="2.45774">
        <ele>95.4</ele>
        <time>2022-03-30T13:44:54Z</time>
      </trkpt>
      <trkpt lat="49.92646" lon="2.45774">
        <ele>95.3</ele>
        <time>2022-03-30T13:44:55Z</time>
      </trkpt>
      <trkpt lat="49.92644" lon="2.45773">
        <ele>95.3</ele>
        <time>2022-03-30T13:44:56Z</time>
      </trkpt>
      <trkpt lat="49.92643" lon="2.45772">
        <ele>95.3</ele>
        <time>2022-03-30T13:44:57Z</time>
      </trkpt>
      <trkpt lat="49.92643" lon="2.45772">
        <ele>95.3</ele>
        <time>2022-03-30T13:44:58Z</time>
      </trkpt>
      <trkpt lat="49.92642" lon="2.45771">
        <ele>95.3</ele>
        <time>2022-03-30T13:44:59Z</time>
      </trkpt>
      <trkpt lat="49.92641" lon="2.45771">
        <ele>95.2</ele>
        <time>2022-03-30T13:45:00Z</time>
      </trkpt>
      <trkpt lat="49.9264" lon="2.4577">
        <ele>95.2</ele>
        <time>2022-03-30T13:45:01Z</time>
      </trkpt>
      <trkpt lat="49.92639" lon="2.4577">
        <ele>95.2</ele>
        <time>2022-03-30T13:45:02Z</time>
      </trkpt>
      <trkpt lat="49.92638" lon="2.45769">
        <ele>95.2</ele>
        <time>2022-03-30T13:45:03Z</time>
      </trkpt>
      <trkpt lat="49.92637" lon="2.45768">
        <ele>95.2</ele>
        <time>2022-03-30T13:45:04Z</time>
      </trkpt>
      <trkpt lat="49.92636" lon="2.45768">
        <ele>95.1</ele>
        <time>2022-03-30T13:45:05Z</time>
      </trkpt>
      <trkpt lat="49.92635" lon="2.45767">
        <ele>95.1</ele>
        <time>2022-03-30T13:45:06Z</time>
      </trkpt>
      <trkpt lat="49.92634" lon="2.45766">
        <ele>95.1</ele>
        <time>2022-03-30T13:45:07Z</time>
      </trkpt>
      <trkpt lat="49.92632" lon="2.45765">
        <ele>95.1</ele>
        <time>2022-03-30T13:45:08Z</time>
      </trkpt>
      <trkpt lat="49.92631" lon="2.45765">
        <ele>95</ele>
        <time>2022-03-30T13:45:09Z</time>
      </trkpt>
      <trkpt lat="49.9263" lon="2.45764">
        <ele>95</ele>
        <time>2022-03-30T13:45:10Z</time>
      </trkpt>
      <trkpt lat="49.92629" lon="2.45763">
        <ele>95</ele>
        <time>2022-03-30T13:45:11Z</time>
      </trkpt>
      <trkpt lat="49.92628" lon="2.45763">
        <ele>95</ele>
        <time>2022-03-30T13:45:12Z</time>
      </trkpt>
      <trkpt lat="49.92627" lon="2.45762">
        <ele>95</ele>
        <time>2022-03-30T13:45:13Z</time>
      </trkpt>
      <trkpt lat="49.92626" lon="2.45762">
        <ele>95</ele>
        <time>2022-03-30T13:45:14Z</time>
      </trkpt>
      <trkpt lat="49.92625" lon="2.45761">
        <ele>94.9</ele>
        <time>2022-03-30T13:45:15Z</time>
      </trkpt>
      <trkpt lat="49.92624" lon="2.45761">
        <ele>94.9</ele>
        <time>2022-03-30T13:45:16Z</time>
      </trkpt>
      <trkpt lat="49.92623" lon="2.4576">
        <ele>94.9</ele>
        <time>2022-03-30T13:45:17Z</time>
      </trkpt>
      <trkpt lat="49.92622" lon="2.4576">
        <ele>94.9</ele>
        <time>2022-03-30T13:45:18Z</time>
      </trkpt>
      <trkpt lat="49.92621" lon="2.4576">
        <ele>94.9</ele>
        <time>2022-03-30T13:45:19Z</time>
      </trkpt>
      <trkpt lat="49.92619" lon="2.45758">
        <ele>94.8</ele>
        <time>2022-03-30T13:45:20Z</time>
      </trkpt>
      <trkpt lat="49.92618" lon="2.45758">
        <ele>94.8</ele>
        <time>2022-03-30T13:45:21Z</time>
      </trkpt>
      <trkpt lat="49.92617" lon="2.45757">
        <ele>94.8</ele>
        <time>2022-03-30T13:45:22Z</time>
      </trkpt>
      <trkpt lat="49.92616" lon="2.45757">
        <ele>94.8</ele>
        <time>2022-03-30T13:45:23Z</time>
      </trkpt>
      <trkpt lat="49.92615" lon="2.45756">
        <ele>94.7</ele>
        <time>2022-03-30T13:45:24Z</time>
      </trkpt>
      <trkpt lat="49.92614" lon="2.45756">
        <ele>94.7</ele>
        <time>2022-03-30T13:45:25Z</time>
      </trkpt>
      <trkpt lat="49.92613" lon="2.45755">
        <ele>94.7</ele>
        <time>2022-03-30T13:45:26Z</time>
      </trkpt>
      <trkpt lat="49.92612" lon="2.45754">
        <ele>94.7</ele>
        <time>2022-03-30T13:45:27Z</time>
      </trkpt>
      <trkpt lat="49.92611" lon="2.45754">
        <ele>94.7</ele>
        <time>2022-03-30T13:45:28Z</time>
      </trkpt>
      <trkpt lat="49.9261" lon="2.45753">
        <ele>94.7</ele>
        <time>2022-03-30T13:45:29Z</time>
      </trkpt>
      <trkpt lat="49.92609" lon="2.45752">
        <ele>94.6</ele>
        <time>2022-03-30T13:45:30Z</time>
      </trkpt>
      <trkpt lat="49.92608" lon="2.45752">
        <ele>94.6</ele>
        <time>2022-03-30T13:45:31Z</time>
      </trkpt>
      <trkpt lat="49.92606" lon="2.45751">
        <ele>94.6</ele>
        <time>2022-03-30T13:45:32Z</time>
      </trkpt>
      <trkpt lat="49.92605" lon="2.4575">
        <ele>94.6</ele>
        <time>2022-03-30T13:45:33Z</time>
      </trkpt>
      <trkpt lat="49.92604" lon="2.45749">
        <ele>94.6</ele>
        <time>2022-03-30T13:45:34Z</time>
      </trkpt>
      <trkpt lat="49.92603" lon="2.45749">
        <ele>94.5</ele>
        <time>2022-03-30T13:45:35Z</time>
      </trkpt>
      <trkpt lat="49.92602" lon="2.45748">
        <ele>94.5</ele>
        <time>2022-03-30T13:45:36Z</time>
      </trkpt>
      <trkpt lat="49.92601" lon="2.45747">
        <ele>94.5</ele>
        <time>2022-03-30T13:45:37Z</time>
      </trkpt>
      <trkpt lat="49.926" lon="2.45747">
        <ele>94.5</ele>
        <time>2022-03-30T13:45:38Z</time>
      </trkpt>
      <trkpt lat="49.92599" lon="2.45746">
        <ele>94.5</ele>
        <time>2022-03-30T13:45:39Z</time>
      </trkpt>
      <trkpt lat="49.92597" lon="2.45745">
        <ele>94.4</ele>
        <time>2022-03-30T13:45:40Z</time>
      </trkpt>
      <trkpt lat="49.92596" lon="2.45745">
        <ele>94.4</ele>
        <time>2022-03-30T13:45:41Z</time>
      </trkpt>
      <trkpt lat="49.92595" lon="2.45744">
        <ele>94.4</ele>
        <time>2022-03-30T13:45:42Z</time>
      </trkpt>
      <trkpt lat="49.92594" lon="2.45743">
        <ele>94.4</ele>
        <time>2022-03-30T13:45:43Z</time>
      </trkpt>
      <trkpt lat="49.92593" lon="2.45742">
        <ele>94.4</ele>
        <time>2022-03-30T13:45:44Z</time>
      </trkpt>
      <trkpt lat="49.92591" lon="2.45741">
        <ele>94.3</ele>
        <time>2022-03-30T13:45:46Z</time>
      </trkpt>
      <trkpt lat="49.9259" lon="2.4574">
        <ele>94.3</ele>
        <time>2022-03-30T13:45:47Z</time>
      </trkpt>
      <trkpt lat="49.9259" lon="2.4574">
        <ele>94.3</ele>
        <time>2022-03-30T13:45:48Z</time>
      </trkpt>
      <trkpt lat="49.92588" lon="2.45739">
        <ele>94.3</ele>
        <time>2022-03-30T13:45:49Z</time>
      </trkpt>
      <trkpt lat="49.92587" lon="2.45739">
        <ele>94.2</ele>
        <time>2022-03-30T13:45:50Z</time>
      </trkpt>
      <trkpt lat="49.92586" lon="2.45738">
        <ele>94.2</ele>
        <time>2022-03-30T13:45:51Z</time>
      </trkpt>
      <trkpt lat="49.92585" lon="2.45738">
        <ele>94.2</ele>
        <time>2022-03-30T13:45:52Z</time>
      </trkpt>
      <trkpt lat="49.92584" lon="2.45737">
        <ele>94.2</ele>
        <time>2022-03-30T13:45:53Z</time>
      </trkpt>
      <trkpt lat="49.92583" lon="2.45736">
        <ele>94.2</ele>
        <time>2022-03-30T13:45:54Z</time>
      </trkpt>
      <trkpt lat="49.92582" lon="2.45735">
        <ele>94.1</ele>
        <time>2022-03-30T13:45:55Z</time>
      </trkpt>
      <trkpt lat="49.92581" lon="2.45735">
        <ele>94.1</ele>
        <time>2022-03-30T13:45:56Z</time>
      </trkpt>
      <trkpt lat="49.92581" lon="2.45734">
        <ele>94.1</ele>
        <time>2022-03-30T13:45:57Z</time>
      </trkpt>
      <trkpt lat="49.9258" lon="2.45734">
        <ele>94.1</ele>
        <time>2022-03-30T13:45:58Z</time>
      </trkpt>
      <trkpt lat="49.92579" lon="2.45733">
        <ele>94</ele>
        <time>2022-03-30T13:45:59Z</time>
      </trkpt>
      <trkpt lat="49.92578" lon="2.45732">
        <ele>94</ele>
        <time>2022-03-30T13:46:00Z</time>
      </trkpt>
      <trkpt lat="49.92577" lon="2.45732">
        <ele>94</ele>
        <time>2022-03-30T13:46:01Z</time>
      </trkpt>
      <trkpt lat="49.92576" lon="2.45731">
        <ele>94</ele>
        <time>2022-03-30T13:46:02Z</time>
      </trkpt>
      <trkpt lat="49.92574" lon="2.4573">
        <ele>93.9</ele>
        <time>2022-03-30T13:46:03Z</time>
      </trkpt>
      <trkpt lat="49.92572" lon="2.45729">
        <ele>93.9</ele>
        <time>2022-03-30T13:46:04Z</time>
      </trkpt>
      <trkpt lat="49.92572" lon="2.45729">
        <ele>93.9</ele>
        <time>2022-03-30T13:46:05Z</time>
      </trkpt>
      <trkpt lat="49.92571" lon="2.45728">
        <ele>93.9</ele>
        <time>2022-03-30T13:46:06Z</time>
      </trkpt>
      <trkpt lat="49.9257" lon="2.45728">
        <ele>93.8</ele>
        <time>2022-03-30T13:46:07Z</time>
      </trkpt>
      <trkpt lat="49.92569" lon="2.45727">
        <ele>93.8</ele>
        <time>2022-03-30T13:46:08Z</time>
      </trkpt>
      <trkpt lat="49.92568" lon="2.45727">
        <ele>93.8</ele>
        <time>2022-03-30T13:46:09Z</time>
      </trkpt>
      <trkpt lat="49.92566" lon="2.45726">
        <ele>93.8</ele>
        <time>2022-03-30T13:46:10Z</time>
      </trkpt>
      <trkpt lat="49.92565" lon="2.45725">
        <ele>93.7</ele>
        <time>2022-03-30T13:46:11Z</time>
      </trkpt>
      <trkpt lat="49.92564" lon="2.45725">
        <ele>93.7</ele>
        <time>2022-03-30T13:46:12Z</time>
      </trkpt>
      <trkpt lat="49.92562" lon="2.45723">
        <ele>93.7</ele>
        <time>2022-03-30T13:46:13Z</time>
      </trkpt>
      <trkpt lat="49.92562" lon="2.45723">
        <ele>93.7</ele>
        <time>2022-03-30T13:46:14Z</time>
      </trkpt>
      <trkpt lat="49.92561" lon="2.45723">
        <ele>93.7</ele>
        <time>2022-03-30T13:46:15Z</time>
      </trkpt>
      <trkpt lat="49.92559" lon="2.45722">
        <ele>93.6</ele>
        <time>2022-03-30T13:46:16Z</time>
      </trkpt>
      <trkpt lat="49.92558" lon="2.45721">
        <ele>93.6</ele>
        <time>2022-03-30T13:46:17Z</time>
      </trkpt>
      <trkpt lat="49.92557" lon="2.45721">
        <ele>93.6</ele>
        <time>2022-03-30T13:46:18Z</time>
      </trkpt>
      <trkpt lat="49.92556" lon="2.4572">
        <ele>93.6</ele>
        <time>2022-03-30T13:46:19Z</time>
      </trkpt>
      <trkpt lat="49.92555" lon="2.45719">
        <ele>93.6</ele>
        <time>2022-03-30T13:46:20Z</time>
      </trkpt>
      <trkpt lat="49.92554" lon="2.45718">
        <ele>93.6</ele>
        <time>2022-03-30T13:46:21Z</time>
      </trkpt>
      <trkpt lat="49.92553" lon="2.45718">
        <ele>93.6</ele>
        <time>2022-03-30T13:46:22Z</time>
      </trkpt>
      <trkpt lat="49.92553" lon="2.45717">
        <ele>93.5</ele>
        <time>2022-03-30T13:46:23Z</time>
      </trkpt>
      <trkpt lat="49.92551" lon="2.45716">
        <ele>93.5</ele>
        <time>2022-03-30T13:46:24Z</time>
      </trkpt>
      <trkpt lat="49.9255" lon="2.45716">
        <ele>93.5</ele>
        <time>2022-03-30T13:46:25Z</time>
      </trkpt>
      <trkpt lat="49.92549" lon="2.45715">
        <ele>93.5</ele>
        <time>2022-03-30T13:46:26Z</time>
      </trkpt>
      <trkpt lat="49.92548" lon="2.45714">
        <ele>93.5</ele>
        <time>2022-03-30T13:46:27Z</time>
      </trkpt>
      <trkpt lat="49.92547" lon="2.45713">
        <ele>93.5</ele>
        <time>2022-03-30T13:46:28Z</time>
      </trkpt>
      <trkpt lat="49.92546" lon="2.45713">
        <ele>93.5</ele>
        <time>2022-03-30T13:46:29Z</time>
      </trkpt>
      <trkpt lat="49.92545" lon="2.45712">
        <ele>93.4</ele>
        <time>2022-03-30T13:46:30Z</time>
      </trkpt>
      <trkpt lat="49.92544" lon="2.45711">
        <ele>93.4</ele>
        <time>2022-03-30T13:46:31Z</time>
      </trkpt>
      <trkpt lat="49.92543" lon="2.45711">
        <ele>93.4</ele>
        <time>2022-03-30T13:46:32Z</time>
      </trkpt>
      <trkpt lat="49.92542" lon="2.4571">
        <ele>93.4</ele>
        <time>2022-03-30T13:46:33Z</time>
      </trkpt>
      <trkpt lat="49.92541" lon="2.45709">
        <ele>93.4</ele>
        <time>2022-03-30T13:46:34Z</time>
      </trkpt>
      <trkpt lat="49.9254" lon="2.45708">
        <ele>93.4</ele>
        <time>2022-03-30T13:46:35Z</time>
      </trkpt>
      <trkpt lat="49.92539" lon="2.45707">
        <ele>93.4</ele>
        <time>2022-03-30T13:46:36Z</time>
      </trkpt>
      <trkpt lat="49.92538" lon="2.45707">
        <ele>93.3</ele>
        <time>2022-03-30T13:46:37Z</time>
      </trkpt>
      <trkpt lat="49.92537" lon="2.45706">
        <ele>93.3</ele>
        <time>2022-03-30T13:46:38Z</time>
      </trkpt>
      <trkpt lat="49.92536" lon="2.45705">
        <ele>93.3</ele>
        <time>2022-03-30T13:46:39Z</time>
      </trkpt>
      <trkpt lat="49.92534" lon="2.45704">
        <ele>93.3</ele>
        <time>2022-03-30T13:46:40Z</time>
      </trkpt>
      <trkpt lat="49.92533" lon="2.45704">
        <ele>93.3</ele>
        <time>2022-03-30T13:46:41Z</time>
      </trkpt>
      <trkpt lat="49.92532" lon="2.45703">
        <ele>93.3</ele>
        <time>2022-03-30T13:46:42Z</time>
      </trkpt>
      <trkpt lat="49.92531" lon="2.45703">
        <ele>93.3</ele>
        <time>2022-03-30T13:46:43Z</time>
      </trkpt>
      <trkpt lat="49.9253" lon="2.45702">
        <ele>93.2</ele>
        <time>2022-03-30T13:46:44Z</time>
      </trkpt>
      <trkpt lat="49.92529" lon="2.45702">
        <ele>93.2</ele>
        <time>2022-03-30T13:46:45Z</time>
      </trkpt>
      <trkpt lat="49.92528" lon="2.45701">
        <ele>93.2</ele>
        <time>2022-03-30T13:46:46Z</time>
      </trkpt>
      <trkpt lat="49.92527" lon="2.457">
        <ele>93.2</ele>
        <time>2022-03-30T13:46:47Z</time>
      </trkpt>
      <trkpt lat="49.92526" lon="2.45699">
        <ele>93.2</ele>
        <time>2022-03-30T13:46:48Z</time>
      </trkpt>
      <trkpt lat="49.92525" lon="2.45699">
        <ele>93.2</ele>
        <time>2022-03-30T13:46:49Z</time>
      </trkpt>
      <trkpt lat="49.92524" lon="2.45698">
        <ele>93.1</ele>
        <time>2022-03-30T13:46:50Z</time>
      </trkpt>
      <trkpt lat="49.92523" lon="2.45697">
        <ele>93.1</ele>
        <time>2022-03-30T13:46:51Z</time>
      </trkpt>
      <trkpt lat="49.92521" lon="2.45696">
        <ele>93.1</ele>
        <time>2022-03-30T13:46:52Z</time>
      </trkpt>
      <trkpt lat="49.9252" lon="2.45695">
        <ele>93.1</ele>
        <time>2022-03-30T13:46:53Z</time>
      </trkpt>
      <trkpt lat="49.9252" lon="2.45695">
        <ele>93</ele>
        <time>2022-03-30T13:46:54Z</time>
      </trkpt>
      <trkpt lat="49.92519" lon="2.45694">
        <ele>93</ele>
        <time>2022-03-30T13:46:55Z</time>
      </trkpt>
      <trkpt lat="49.92518" lon="2.45693">
        <ele>93</ele>
        <time>2022-03-30T13:46:56Z</time>
      </trkpt>
      <trkpt lat="49.92517" lon="2.45693">
        <ele>93</ele>
        <time>2022-03-30T13:46:57Z</time>
      </trkpt>
      <trkpt lat="49.92516" lon="2.45692">
        <ele>93</ele>
        <time>2022-03-30T13:46:58Z</time>
      </trkpt>
      <trkpt lat="49.92515" lon="2.45691">
        <ele>92.9</ele>
        <time>2022-03-30T13:46:59Z</time>
      </trkpt>
      <trkpt lat="49.92514" lon="2.4569">
        <ele>92.9</ele>
        <time>2022-03-30T13:47:00Z</time>
      </trkpt>
      <trkpt lat="49.92512" lon="2.45689">
        <ele>92.8</ele>
        <time>2022-03-30T13:47:01Z</time>
      </trkpt>
      <trkpt lat="49.92511" lon="2.45689">
        <ele>92.8</ele>
        <time>2022-03-30T13:47:02Z</time>
      </trkpt>
      <trkpt lat="49.9251" lon="2.45688">
        <ele>92.8</ele>
        <time>2022-03-30T13:47:03Z</time>
      </trkpt>
      <trkpt lat="49.92508" lon="2.45687">
        <ele>92.7</ele>
        <time>2022-03-30T13:47:04Z</time>
      </trkpt>
      <trkpt lat="49.92507" lon="2.45687">
        <ele>92.7</ele>
        <time>2022-03-30T13:47:05Z</time>
      </trkpt>
      <trkpt lat="49.92507" lon="2.45686">
        <ele>92.7</ele>
        <time>2022-03-30T13:47:06Z</time>
      </trkpt>
      <trkpt lat="49.92506" lon="2.45686">
        <ele>92.6</ele>
        <time>2022-03-30T13:47:07Z</time>
      </trkpt>
      <trkpt lat="49.92505" lon="2.45686">
        <ele>92.6</ele>
        <time>2022-03-30T13:47:08Z</time>
      </trkpt>
      <trkpt lat="49.92504" lon="2.45685">
        <ele>92.6</ele>
        <time>2022-03-30T13:47:09Z</time>
      </trkpt>
      <trkpt lat="49.92503" lon="2.45684">
        <ele>92.5</ele>
        <time>2022-03-30T13:47:10Z</time>
      </trkpt>
      <trkpt lat="49.92502" lon="2.45684">
        <ele>92.5</ele>
        <time>2022-03-30T13:47:11Z</time>
      </trkpt>
      <trkpt lat="49.92501" lon="2.45684">
        <ele>92.5</ele>
        <time>2022-03-30T13:47:12Z</time>
      </trkpt>
      <trkpt lat="49.925" lon="2.45684">
        <ele>92.4</ele>
        <time>2022-03-30T13:47:13Z</time>
      </trkpt>
      <trkpt lat="49.92499" lon="2.45684">
        <ele>92.4</ele>
        <time>2022-03-30T13:47:14Z</time>
      </trkpt>
      <trkpt lat="49.92498" lon="2.45683">
        <ele>92.4</ele>
        <time>2022-03-30T13:47:15Z</time>
      </trkpt>
      <trkpt lat="49.92497" lon="2.45683">
        <ele>92.3</ele>
        <time>2022-03-30T13:47:16Z</time>
      </trkpt>
      <trkpt lat="49.92496" lon="2.45683">
        <ele>92.3</ele>
        <time>2022-03-30T13:47:17Z</time>
      </trkpt>
      <trkpt lat="49.92496" lon="2.45683">
        <ele>92.3</ele>
        <time>2022-03-30T13:47:18Z</time>
      </trkpt>
      <trkpt lat="49.92495" lon="2.45684">
        <ele>92.3</ele>
        <time>2022-03-30T13:47:19Z</time>
      </trkpt>
      <trkpt lat="49.92495" lon="2.45684">
        <ele>92.3</ele>
        <time>2022-03-30T13:47:20Z</time>
      </trkpt>
      <trkpt lat="49.92495" lon="2.45684">
        <ele>92.3</ele>
        <time>2022-03-30T13:47:21Z</time>
      </trkpt>
      <trkpt lat="49.92495" lon="2.45685">
        <ele>92.2</ele>
        <time>2022-03-30T13:47:22Z</time>
      </trkpt>
      <trkpt lat="49.92495" lon="2.45685">
        <ele>92.2</ele>
        <time>2022-03-30T13:47:23Z</time>
      </trkpt>
      <trkpt lat="49.92495" lon="2.45684">
        <ele>92.2</ele>
        <time>2022-03-30T13:47:24Z</time>
      </trkpt>
      <trkpt lat="49.92495" lon="2.45684">
        <ele>92.2</ele>
        <time>2022-03-30T13:47:25Z</time>
      </trkpt>
      <trkpt lat="49.92495" lon="2.45684">
        <ele>92.2</ele>
        <time>2022-03-30T13:47:26Z</time>
      </trkpt>
      <trkpt lat="49.92495" lon="2.45684">
        <ele>92.2</ele>
        <time>2022-03-30T13:47:27Z</time>
      </trkpt>
      <trkpt lat="49.92495" lon="2.45683">
        <ele>92.2</ele>
        <time>2022-03-30T13:47:28Z</time>
      </trkpt>
      <trkpt lat="49.92495" lon="2.45683">
        <ele>92.2</ele>
        <time>2022-03-30T13:47:29Z</time>
      </trkpt>
      <trkpt lat="49.92495" lon="2.45682">
        <ele>92.2</ele>
        <time>2022-03-30T13:47:30Z</time>
      </trkpt>
      <trkpt lat="49.92495" lon="2.45682">
        <ele>92.2</ele>
        <time>2022-03-30T13:47:31Z</time>
      </trkpt>
      <trkpt lat="49.92494" lon="2.45682">
        <ele>92.1</ele>
        <time>2022-03-30T13:47:32Z</time>
      </trkpt>
      <trkpt lat="49.92493" lon="2.45681">
        <ele>92.1</ele>
        <time>2022-03-30T13:47:33Z</time>
      </trkpt>
      <trkpt lat="49.92493" lon="2.45681">
        <ele>92.1</ele>
        <time>2022-03-30T13:47:34Z</time>
      </trkpt>
      <trkpt lat="49.92492" lon="2.45681">
        <ele>92.1</ele>
        <time>2022-03-30T13:47:35Z</time>
      </trkpt>
      <trkpt lat="49.92492" lon="2.45681">
        <ele>92.1</ele>
        <time>2022-03-30T13:47:36Z</time>
      </trkpt>
      <trkpt lat="49.92491" lon="2.45681">
        <ele>92</ele>
        <time>2022-03-30T13:47:37Z</time>
      </trkpt>
      <trkpt lat="49.92491" lon="2.45681">
        <ele>92</ele>
        <time>2022-03-30T13:47:38Z</time>
      </trkpt>
      <trkpt lat="49.9249" lon="2.45681">
        <ele>92</ele>
        <time>2022-03-30T13:47:39Z</time>
      </trkpt>
      <trkpt lat="49.9249" lon="2.45681">
        <ele>92</ele>
        <time>2022-03-30T13:47:40Z</time>
      </trkpt>
      <trkpt lat="49.92489" lon="2.45682">
        <ele>92</ele>
        <time>2022-03-30T13:47:41Z</time>
      </trkpt>
      <trkpt lat="49.92489" lon="2.45682">
        <ele>92</ele>
        <time>2022-03-30T13:47:42Z</time>
      </trkpt>
      <trkpt lat="49.92489" lon="2.45682">
        <ele>92</ele>
        <time>2022-03-30T13:47:43Z</time>
      </trkpt>
      <trkpt lat="49.92489" lon="2.45682">
        <ele>92</ele>
        <time>2022-03-30T13:47:44Z</time>
      </trkpt>
      <trkpt lat="49.92489" lon="2.45682">
        <ele>92</ele>
        <time>2022-03-30T13:47:45Z</time>
      </trkpt>
      <trkpt lat="49.92489" lon="2.45682">
        <ele>91.9</ele>
        <time>2022-03-30T13:47:46Z</time>
      </trkpt>
      <trkpt lat="49.92489" lon="2.45682">
        <ele>91.9</ele>
        <time>2022-03-30T13:47:47Z</time>
      </trkpt>
      <trkpt lat="49.9249" lon="2.45682">
        <ele>91.9</ele>
        <time>2022-03-30T13:47:48Z</time>
      </trkpt>
      <trkpt lat="49.9249" lon="2.45682">
        <ele>91.9</ele>
        <time>2022-03-30T13:47:49Z</time>
      </trkpt>
      <trkpt lat="49.9249" lon="2.45682">
        <ele>91.9</ele>
        <time>2022-03-30T13:47:50Z</time>
      </trkpt>
      <trkpt lat="49.9249" lon="2.45682">
        <ele>91.9</ele>
        <time>2022-03-30T13:47:51Z</time>
      </trkpt>
      <trkpt lat="49.9249" lon="2.45682">
        <ele>91.9</ele>
        <time>2022-03-30T13:47:52Z</time>
      </trkpt>
      <trkpt lat="49.9249" lon="2.45682">
        <ele>91.9</ele>
        <time>2022-03-30T13:47:53Z</time>
      </trkpt>
      <trkpt lat="49.9249" lon="2.45682">
        <ele>91.9</ele>
        <time>2022-03-30T13:47:54Z</time>
      </trkpt>
      <trkpt lat="49.9249" lon="2.45682">
        <ele>91.9</ele>
        <time>2022-03-30T13:47:55Z</time>
      </trkpt>
      <trkpt lat="49.9249" lon="2.45682">
        <ele>91.9</ele>
        <time>2022-03-30T13:47:56Z</time>
      </trkpt>
      <trkpt lat="49.9249" lon="2.45682">
        <ele>91.9</ele>
        <time>2022-03-30T13:47:57Z</time>
      </trkpt>
      <trkpt lat="49.9249" lon="2.45682">
        <ele>91.9</ele>
        <time>2022-03-30T13:47:58Z</time>
      </trkpt>
      <trkpt lat="49.9249" lon="2.45682">
        <ele>91.9</ele>
        <time>2022-03-30T13:47:59Z</time>
      </trkpt>
      <trkpt lat="49.9249" lon="2.45682">
        <ele>91.9</ele>
        <time>2022-03-30T13:48:00Z</time>
      </trkpt>
      <trkpt lat="49.9249" lon="2.45682">
        <ele>91.9</ele>
        <time>2022-03-30T13:48:01Z</time>
      </trkpt>
      <trkpt lat="49.9249" lon="2.45682">
        <ele>91.9</ele>
        <time>2022-03-30T13:48:02Z</time>
      </trkpt>
      <trkpt lat="49.9249" lon="2.45682">
        <ele>91.9</ele>
        <time>2022-03-30T13:48:03Z</time>
      </trkpt>
      <trkpt lat="49.9249" lon="2.45682">
        <ele>91.9</ele>
        <time>2022-03-30T13:48:04Z</time>
      </trkpt>
      <trkpt lat="49.9249" lon="2.45682">
        <ele>91.9</ele>
        <time>2022-03-30T13:48:05Z</time>
      </trkpt>
      <trkpt lat="49.9249" lon="2.45682">
        <ele>91.9</ele>
        <time>2022-03-30T13:48:06Z</time>
      </trkpt>
      <trkpt lat="49.9249" lon="2.45682">
        <ele>91.9</ele>
        <time>2022-03-30T13:48:07Z</time>
      </trkpt>
      <trkpt lat="49.9249" lon="2.45682">
        <ele>91.9</ele>
        <time>2022-03-30T13:48:08Z</time>
      </trkpt>
      <trkpt lat="49.9249" lon="2.45682">
        <ele>91.9</ele>
        <time>2022-03-30T13:48:09Z</time>
      </trkpt>
      <trkpt lat="49.9249" lon="2.45682">
        <ele>91.9</ele>
        <time>2022-03-30T13:48:10Z</time>
      </trkpt>
      <trkpt lat="49.9249" lon="2.45682">
        <ele>91.9</ele>
        <time>2022-03-30T13:48:11Z</time>
      </trkpt>
      <trkpt lat="49.9249" lon="2.45682">
        <ele>91.9</ele>
        <time>2022-03-30T13:48:12Z</time>
      </trkpt>
      <trkpt lat="49.9249" lon="2.45682">
        <ele>91.9</ele>
        <time>2022-03-30T13:48:13Z</time>
      </trkpt>
      <trkpt lat="49.9249" lon="2.45682">
        <ele>91.9</ele>
        <time>2022-03-30T13:48:14Z</time>
      </trkpt>
      <trkpt lat="49.9249" lon="2.45682">
        <ele>91.9</ele>
        <time>2022-03-30T13:48:15Z</time>
      </trkpt>
      <trkpt lat="49.9249" lon="2.45682">
        <ele>91.9</ele>
        <time>2022-03-30T13:48:16Z</time>
      </trkpt>
      <trkpt lat="49.9249" lon="2.45682">
        <ele>91.9</ele>
        <time>2022-03-30T13:48:17Z</time>
      </trkpt>
      <trkpt lat="49.9249" lon="2.45682">
        <ele>91.9</ele>
        <time>2022-03-30T13:48:18Z</time>
      </trkpt>
      <trkpt lat="49.9249" lon="2.45682">
        <ele>91.9</ele>
        <time>2022-03-30T13:48:19Z</time>
      </trkpt>
      <trkpt lat="49.9249" lon="2.45682">
        <ele>91.9</ele>
        <time>2022-03-30T13:48:20Z</time>
      </trkpt>
      <trkpt lat="49.9249" lon="2.45682">
        <ele>91.9</ele>
        <time>2022-03-30T13:48:21Z</time>
      </trkpt>
      <trkpt lat="49.9249" lon="2.45682">
        <ele>91.9</ele>
        <time>2022-03-30T13:48:22Z</time>
      </trkpt>
      <trkpt lat="49.9249" lon="2.45682">
        <ele>91.9</ele>
        <time>2022-03-30T13:48:23Z</time>
      </trkpt>
      <trkpt lat="49.9249" lon="2.45682">
        <ele>91.9</ele>
        <time>2022-03-30T13:48:24Z</time>
      </trkpt>
      <trkpt lat="49.9249" lon="2.45682">
        <ele>91.9</ele>
        <time>2022-03-30T13:48:25Z</time>
      </trkpt>
      <trkpt lat="49.9249" lon="2.45682">
        <ele>91.9</ele>
        <time>2022-03-30T13:48:26Z</time>
      </trkpt>
      <trkpt lat="49.9249" lon="2.45682">
        <ele>91.9</ele>
        <time>2022-03-30T13:48:27Z</time>
      </trkpt>
      <trkpt lat="49.9249" lon="2.45682">
        <ele>91.9</ele>
        <time>2022-03-30T13:48:28Z</time>
      </trkpt>
      <trkpt lat="49.9249" lon="2.45682">
        <ele>91.9</ele>
        <time>2022-03-30T13:48:29Z</time>
      </trkpt>
      <trkpt lat="49.9249" lon="2.45682">
        <ele>91.9</ele>
        <time>2022-03-30T13:48:30Z</time>
      </trkpt>
      <trkpt lat="49.9249" lon="2.45682">
        <ele>91.9</ele>
        <time>2022-03-30T13:48:31Z</time>
      </trkpt>
      <trkpt lat="49.9249" lon="2.45682">
        <ele>91.9</ele>
        <time>2022-03-30T13:48:32Z</time>
      </trkpt>
      <trkpt lat="49.9249" lon="2.45682">
        <ele>91.9</ele>
        <time>2022-03-30T13:48:33Z</time>
      </trkpt>
      <trkpt lat="49.9249" lon="2.45682">
        <ele>91.9</ele>
        <time>2022-03-30T13:48:34Z</time>
      </trkpt>
      <trkpt lat="49.9249" lon="2.45682">
        <ele>91.9</ele>
        <time>2022-03-30T13:48:35Z</time>
      </trkpt>
      <trkpt lat="49.9249" lon="2.45682">
        <ele>91.9</ele>
        <time>2022-03-30T13:48:36Z</time>
      </trkpt>
      <trkpt lat="49.9249" lon="2.45682">
        <ele>91.9</ele>
        <time>2022-03-30T13:48:37Z</time>
      </trkpt>
      <trkpt lat="49.9249" lon="2.45682">
        <ele>91.9</ele>
        <time>2022-03-30T13:48:38Z</time>
      </trkpt>
      <trkpt lat="49.9249" lon="2.45682">
        <ele>91.9</ele>
        <time>2022-03-30T13:48:39Z</time>
      </trkpt>
      <trkpt lat="49.9249" lon="2.45682">
        <ele>91.9</ele>
        <time>2022-03-30T13:48:40Z</time>
      </trkpt>
      <trkpt lat="49.9249" lon="2.45682">
        <ele>91.9</ele>
        <time>2022-03-30T13:48:41Z</time>
      </trkpt>
      <trkpt lat="49.9249" lon="2.45682">
        <ele>91.9</ele>
        <time>2022-03-30T13:48:42Z</time>
      </trkpt>
      <trkpt lat="49.9249" lon="2.45682">
        <ele>91.9</ele>
        <time>2022-03-30T13:48:43Z</time>
      </trkpt>
      <trkpt lat="49.9249" lon="2.45682">
        <ele>91.9</ele>
        <time>2022-03-30T13:48:44Z</time>
      </trkpt>
      <trkpt lat="49.9249" lon="2.45682">
        <ele>91.9</ele>
        <time>2022-03-30T13:48:45Z</time>
      </trkpt>
      <trkpt lat="49.9249" lon="2.45682">
        <ele>91.9</ele>
        <time>2022-03-30T13:48:46Z</time>
      </trkpt>
      <trkpt lat="49.9249" lon="2.45682">
        <ele>91.9</ele>
        <time>2022-03-30T13:48:47Z</time>
      </trkpt>
      <trkpt lat="49.9249" lon="2.45682">
        <ele>91.9</ele>
        <time>2022-03-30T13:48:48Z</time>
      </trkpt>
      <trkpt lat="49.9249" lon="2.45682">
        <ele>91.9</ele>
        <time>2022-03-30T13:48:49Z</time>
      </trkpt>
      <trkpt lat="49.9249" lon="2.45682">
        <ele>91.9</ele>
        <time>2022-03-30T13:48:50Z</time>
      </trkpt>
      <trkpt lat="49.9249" lon="2.45682">
        <ele>91.9</ele>
        <time>2022-03-30T13:48:51Z</time>
      </trkpt>
      <trkpt lat="49.9249" lon="2.45682">
        <ele>91.9</ele>
        <time>2022-03-30T13:48:52Z</time>
      </trkpt>
      <trkpt lat="49.9249" lon="2.45682">
        <ele>91.9</ele>
        <time>2022-03-30T13:48:53Z</time>
      </trkpt>
      <trkpt lat="49.9249" lon="2.45682">
        <ele>91.9</ele>
        <time>2022-03-30T13:48:54Z</time>
      </trkpt>
      <trkpt lat="49.9249" lon="2.45682">
        <ele>91.9</ele>
        <time>2022-03-30T13:48:55Z</time>
      </trkpt>
      <trkpt lat="49.9249" lon="2.45682">
        <ele>91.9</ele>
        <time>2022-03-30T13:48:56Z</time>
      </trkpt>
      <trkpt lat="49.9249" lon="2.45682">
        <ele>91.9</ele>
        <time>2022-03-30T13:48:57Z</time>
      </trkpt>
      <trkpt lat="49.9249" lon="2.45682">
        <ele>91.9</ele>
        <time>2022-03-30T13:48:58Z</time>
      </trkpt>
      <trkpt lat="49.9249" lon="2.45682">
        <ele>91.9</ele>
        <time>2022-03-30T13:48:59Z</time>
      </trkpt>
      <trkpt lat="49.9249" lon="2.45682">
        <ele>91.9</ele>
        <time>2022-03-30T13:49:00Z</time>
      </trkpt>
      <trkpt lat="49.9249" lon="2.45682">
        <ele>91.9</ele>
        <time>2022-03-30T13:49:01Z</time>
      </trkpt>
      <trkpt lat="49.9249" lon="2.45682">
        <ele>91.9</ele>
        <time>2022-03-30T13:49:02Z</time>
      </trkpt>
      <trkpt lat="49.9249" lon="2.45682">
        <ele>91.9</ele>
        <time>2022-03-30T13:49:03Z</time>
      </trkpt>
      <trkpt lat="49.9249" lon="2.45682">
        <ele>91.9</ele>
        <time>2022-03-30T13:49:04Z</time>
      </trkpt>
      <trkpt lat="49.9249" lon="2.45682">
        <ele>91.9</ele>
        <time>2022-03-30T13:49:05Z</time>
      </trkpt>
      <trkpt lat="49.9249" lon="2.45682">
        <ele>91.9</ele>
        <time>2022-03-30T13:49:06Z</time>
      </trkpt>
      <trkpt lat="49.9249" lon="2.45682">
        <ele>91.9</ele>
        <time>2022-03-30T13:49:07Z</time>
      </trkpt>
      <trkpt lat="49.9249" lon="2.45682">
        <ele>91.9</ele>
        <time>2022-03-30T13:49:08Z</time>
      </trkpt>
      <trkpt lat="49.9249" lon="2.45682">
        <ele>91.9</ele>
        <time>2022-03-30T13:49:09Z</time>
      </trkpt>
      <trkpt lat="49.9249" lon="2.45682">
        <ele>91.9</ele>
        <time>2022-03-30T13:49:10Z</time>
      </trkpt>
      <trkpt lat="49.9249" lon="2.45682">
        <ele>91.9</ele>
        <time>2022-03-30T13:49:11Z</time>
      </trkpt>
      <trkpt lat="49.9249" lon="2.45682">
        <ele>91.9</ele>
        <time>2022-03-30T13:49:12Z</time>
      </trkpt>
      <trkpt lat="49.9249" lon="2.45682">
        <ele>91.9</ele>
        <time>2022-03-30T13:49:13Z</time>
      </trkpt>
      <trkpt lat="49.9249" lon="2.45682">
        <ele>91.9</ele>
        <time>2022-03-30T13:49:14Z</time>
      </trkpt>
      <trkpt lat="49.9249" lon="2.45682">
        <ele>91.9</ele>
        <time>2022-03-30T13:49:15Z</time>
      </trkpt>
      <trkpt lat="49.9249" lon="2.45682">
        <ele>91.9</ele>
        <time>2022-03-30T13:49:16Z</time>
      </trkpt>
      <trkpt lat="49.9249" lon="2.45682">
        <ele>91.9</ele>
        <time>2022-03-30T13:49:17Z</time>
      </trkpt>
      <trkpt lat="49.9249" lon="2.45682">
        <ele>91.9</ele>
        <time>2022-03-30T13:49:18Z</time>
      </trkpt>
      <trkpt lat="49.9249" lon="2.45682">
        <ele>91.9</ele>
        <time>2022-03-30T13:49:19Z</time>
      </trkpt>
      <trkpt lat="49.9249" lon="2.45682">
        <ele>91.9</ele>
        <time>2022-03-30T13:49:20Z</time>
      </trkpt>
      <trkpt lat="49.9249" lon="2.45682">
        <ele>91.9</ele>
        <time>2022-03-30T13:49:21Z</time>
      </trkpt>
      <trkpt lat="49.9249" lon="2.45682">
        <ele>91.9</ele>
        <time>2022-03-30T13:49:22Z</time>
      </trkpt>
      <trkpt lat="49.9249" lon="2.45682">
        <ele>91.9</ele>
        <time>2022-03-30T13:49:23Z</time>
      </trkpt>
      <trkpt lat="49.9249" lon="2.45682">
        <ele>91.9</ele>
        <time>2022-03-30T13:49:24Z</time>
      </trkpt>
      <trkpt lat="49.9249" lon="2.45682">
        <ele>91.9</ele>
        <time>2022-03-30T13:49:25Z</time>
      </trkpt>
      <trkpt lat="49.9249" lon="2.45682">
        <ele>91.9</ele>
        <time>2022-03-30T13:49:26Z</time>
      </trkpt>
      <trkpt lat="49.9249" lon="2.45682">
        <ele>91.9</ele>
        <time>2022-03-30T13:49:27Z</time>
      </trkpt>
      <trkpt lat="49.9249" lon="2.45682">
        <ele>91.9</ele>
        <time>2022-03-30T13:49:28Z</time>
      </trkpt>
      <trkpt lat="49.9249" lon="2.45682">
        <ele>91.9</ele>
        <time>2022-03-30T13:49:29Z</time>
      </trkpt>
      <trkpt lat="49.9249" lon="2.45682">
        <ele>91.9</ele>
        <time>2022-03-30T13:49:30Z</time>
      </trkpt>
      <trkpt lat="49.9249" lon="2.45682">
        <ele>91.9</ele>
        <time>2022-03-30T13:49:31Z</time>
      </trkpt>
      <trkpt lat="49.9249" lon="2.45682">
        <ele>91.9</ele>
        <time>2022-03-30T13:49:32Z</time>
      </trkpt>
      <trkpt lat="49.9249" lon="2.45682">
        <ele>91.9</ele>
        <time>2022-03-30T13:49:33Z</time>
      </trkpt>
      <trkpt lat="49.9249" lon="2.45682">
        <ele>91.9</ele>
        <time>2022-03-30T13:49:34Z</time>
      </trkpt>
      <trkpt lat="49.9249" lon="2.45682">
        <ele>91.9</ele>
        <time>2022-03-30T13:49:35Z</time>
      </trkpt>
      <trkpt lat="49.9249" lon="2.45682">
        <ele>91.9</ele>
        <time>2022-03-30T13:49:36Z</time>
      </trkpt>
      <trkpt lat="49.9249" lon="2.45682">
        <ele>91.9</ele>
        <time>2022-03-30T13:49:37Z</time>
      </trkpt>
      <trkpt lat="49.9249" lon="2.45682">
        <ele>91.9</ele>
        <time>2022-03-30T13:49:38Z</time>
      </trkpt>
      <trkpt lat="49.9249" lon="2.45682">
        <ele>91.9</ele>
        <time>2022-03-30T13:49:39Z</time>
      </trkpt>
      <trkpt lat="49.9249" lon="2.45682">
        <ele>91.9</ele>
        <time>2022-03-30T13:49:40Z</time>
      </trkpt>
      <trkpt lat="49.9249" lon="2.45682">
        <ele>91.9</ele>
        <time>2022-03-30T13:49:41Z</time>
      </trkpt>
      <trkpt lat="49.9249" lon="2.45682">
        <ele>91.9</ele>
        <time>2022-03-30T13:49:42Z</time>
      </trkpt>
      <trkpt lat="49.9249" lon="2.45682">
        <ele>91.9</ele>
        <time>2022-03-30T13:49:43Z</time>
      </trkpt>
      <trkpt lat="49.9249" lon="2.45682">
        <ele>91.9</ele>
        <time>2022-03-30T13:49:44Z</time>
      </trkpt>
      <trkpt lat="49.9249" lon="2.45682">
        <ele>91.9</ele>
        <time>2022-03-30T13:49:45Z</time>
      </trkpt>
      <trkpt lat="49.9249" lon="2.45682">
        <ele>91.9</ele>
        <time>2022-03-30T13:49:46Z</time>
      </trkpt>
      <trkpt lat="49.9249" lon="2.45682">
        <ele>91.9</ele>
        <time>2022-03-30T13:49:47Z</time>
      </trkpt>
      <trkpt lat="49.9249" lon="2.45682">
        <ele>91.9</ele>
        <time>2022-03-30T13:49:48Z</time>
      </trkpt>
      <trkpt lat="49.9249" lon="2.45682">
        <ele>91.9</ele>
        <time>2022-03-30T13:49:49Z</time>
      </trkpt>
      <trkpt lat="49.9249" lon="2.45682">
        <ele>91.9</ele>
        <time>2022-03-30T13:49:50Z</time>
      </trkpt>
      <trkpt lat="49.9249" lon="2.45682">
        <ele>91.9</ele>
        <time>2022-03-30T13:49:51Z</time>
      </trkpt>
      <trkpt lat="49.9249" lon="2.45682">
        <ele>91.9</ele>
        <time>2022-03-30T13:49:52Z</time>
      </trkpt>
      <trkpt lat="49.9249" lon="2.45682">
        <ele>91.9</ele>
        <time>2022-03-30T13:49:53Z</time>
      </trkpt>
      <trkpt lat="49.9249" lon="2.45682">
        <ele>91.9</ele>
        <time>2022-03-30T13:49:54Z</time>
      </trkpt>
      <trkpt lat="49.9249" lon="2.45682">
        <ele>91.9</ele>
        <time>2022-03-30T13:49:55Z</time>
      </trkpt>
      <trkpt lat="49.9249" lon="2.45682">
        <ele>91.9</ele>
        <time>2022-03-30T13:49:56Z</time>
      </trkpt>
      <trkpt lat="49.9249" lon="2.45682">
        <ele>91.9</ele>
        <time>2022-03-30T13:49:57Z</time>
      </trkpt>
      <trkpt lat="49.9249" lon="2.45682">
        <ele>91.9</ele>
        <time>2022-03-30T13:49:58Z</time>
      </trkpt>
      <trkpt lat="49.9249" lon="2.45682">
        <ele>91.9</ele>
        <time>2022-03-30T13:49:59Z</time>
      </trkpt>
      <trkpt lat="49.9249" lon="2.45682">
        <ele>91.9</ele>
        <time>2022-03-30T13:50:00Z</time>
      </trkpt>
      <trkpt lat="49.9249" lon="2.45682">
        <ele>91.9</ele>
        <time>2022-03-30T13:50:01Z</time>
      </trkpt>
      <trkpt lat="49.9249" lon="2.45682">
        <ele>91.9</ele>
        <time>2022-03-30T13:50:02Z</time>
      </trkpt>
      <trkpt lat="49.9249" lon="2.45682">
        <ele>91.9</ele>
        <time>2022-03-30T13:50:03Z</time>
      </trkpt>
      <trkpt lat="49.9249" lon="2.45682">
        <ele>91.9</ele>
        <time>2022-03-30T13:50:04Z</time>
      </trkpt>
      <trkpt lat="49.9249" lon="2.45682">
        <ele>91.9</ele>
        <time>2022-03-30T13:50:05Z</time>
      </trkpt>
      <trkpt lat="49.9249" lon="2.45682">
        <ele>91.9</ele>
        <time>2022-03-30T13:50:06Z</time>
      </trkpt>
      <trkpt lat="49.9249" lon="2.45682">
        <ele>91.9</ele>
        <time>2022-03-30T13:50:07Z</time>
      </trkpt>
      <trkpt lat="49.9249" lon="2.45682">
        <ele>91.9</ele>
        <time>2022-03-30T13:50:08Z</time>
      </trkpt>
      <trkpt lat="49.9249" lon="2.45682">
        <ele>91.9</ele>
        <time>2022-03-30T13:50:09Z</time>
      </trkpt>
      <trkpt lat="49.9249" lon="2.45682">
        <ele>91.9</ele>
        <time>2022-03-30T13:50:10Z</time>
      </trkpt>
      <trkpt lat="49.9249" lon="2.45682">
        <ele>91.9</ele>
        <time>2022-03-30T13:50:11Z</time>
      </trkpt>
      <trkpt lat="49.9249" lon="2.45682">
        <ele>91.9</ele>
        <time>2022-03-30T13:50:12Z</time>
      </trkpt>
      <trkpt lat="49.9249" lon="2.45682">
        <ele>91.9</ele>
        <time>2022-03-30T13:50:13Z</time>
      </trkpt>
      <trkpt lat="49.9249" lon="2.45682">
        <ele>91.9</ele>
        <time>2022-03-30T13:50:14Z</time>
      </trkpt>
      <trkpt lat="49.9249" lon="2.45682">
        <ele>91.9</ele>
        <time>2022-03-30T13:50:15Z</time>
      </trkpt>
      <trkpt lat="49.9249" lon="2.45682">
        <ele>91.9</ele>
        <time>2022-03-30T13:50:16Z</time>
      </trkpt>
      <trkpt lat="49.9249" lon="2.45682">
        <ele>91.9</ele>
        <time>2022-03-30T13:50:17Z</time>
      </trkpt>
      <trkpt lat="49.9249" lon="2.45682">
        <ele>91.9</ele>
        <time>2022-03-30T13:50:18Z</time>
      </trkpt>
      <trkpt lat="49.9249" lon="2.45682">
        <ele>91.9</ele>
        <time>2022-03-30T13:50:19Z</time>
      </trkpt>
      <trkpt lat="49.9249" lon="2.45682">
        <ele>91.9</ele>
        <time>2022-03-30T13:50:20Z</time>
      </trkpt>
      <trkpt lat="49.9249" lon="2.45682">
        <ele>91.9</ele>
        <time>2022-03-30T13:50:21Z</time>
      </trkpt>
      <trkpt lat="49.9249" lon="2.45682">
        <ele>91.9</ele>
        <time>2022-03-30T13:50:22Z</time>
      </trkpt>
      <trkpt lat="49.9249" lon="2.45682">
        <ele>91.9</ele>
        <time>2022-03-30T13:50:23Z</time>
      </trkpt>
      <trkpt lat="49.9249" lon="2.45682">
        <ele>91.9</ele>
        <time>2022-03-30T13:50:24Z</time>
      </trkpt>
      <trkpt lat="49.9249" lon="2.45682">
        <ele>91.9</ele>
        <time>2022-03-30T13:50:25Z</time>
      </trkpt>
      <trkpt lat="49.9249" lon="2.45682">
        <ele>91.9</ele>
        <time>2022-03-30T13:50:26Z</time>
      </trkpt>
      <trkpt lat="49.9249" lon="2.45682">
        <ele>91.9</ele>
        <time>2022-03-30T13:50:27Z</time>
      </trkpt>
      <trkpt lat="49.9249" lon="2.45682">
        <ele>91.9</ele>
        <time>2022-03-30T13:50:28Z</time>
      </trkpt>
      <trkpt lat="49.9249" lon="2.45682">
        <ele>91.9</ele>
        <time>2022-03-30T13:50:29Z</time>
      </trkpt>
      <trkpt lat="49.9249" lon="2.45682">
        <ele>91.9</ele>
        <time>2022-03-30T13:50:30Z</time>
      </trkpt>
      <trkpt lat="49.9249" lon="2.45682">
        <ele>91.9</ele>
        <time>2022-03-30T13:50:31Z</time>
      </trkpt>
      <trkpt lat="49.9249" lon="2.45682">
        <ele>91.9</ele>
        <time>2022-03-30T13:50:32Z</time>
      </trkpt>
      <trkpt lat="49.9249" lon="2.45682">
        <ele>91.9</ele>
        <time>2022-03-30T13:50:33Z</time>
      </trkpt>
      <trkpt lat="49.9249" lon="2.45682">
        <ele>91.9</ele>
        <time>2022-03-30T13:50:34Z</time>
      </trkpt>
      <trkpt lat="49.9249" lon="2.45682">
        <ele>91.9</ele>
        <time>2022-03-30T13:50:35Z</time>
      </trkpt>
      <trkpt lat="49.9249" lon="2.45682">
        <ele>91.9</ele>
        <time>2022-03-30T13:50:36Z</time>
      </trkpt>
      <trkpt lat="49.9249" lon="2.45682">
        <ele>91.9</ele>
        <time>2022-03-30T13:50:37Z</time>
      </trkpt>
      <trkpt lat="49.9249" lon="2.45682">
        <ele>91.9</ele>
        <time>2022-03-30T13:50:38Z</time>
      </trkpt>
      <trkpt lat="49.9249" lon="2.45682">
        <ele>91.9</ele>
        <time>2022-03-30T13:50:39Z</time>
      </trkpt>
      <trkpt lat="49.9249" lon="2.45682">
        <ele>91.9</ele>
        <time>2022-03-30T13:50:40Z</time>
      </trkpt>
      <trkpt lat="49.9249" lon="2.45682">
        <ele>91.9</ele>
        <time>2022-03-30T13:50:41Z</time>
      </trkpt>
      <trkpt lat="49.9249" lon="2.45682">
        <ele>91.9</ele>
        <time>2022-03-30T13:50:42Z</time>
      </trkpt>
      <trkpt lat="49.9249" lon="2.45682">
        <ele>91.9</ele>
        <time>2022-03-30T13:50:43Z</time>
      </trkpt>
      <trkpt lat="49.9249" lon="2.45682">
        <ele>91.9</ele>
        <time>2022-03-30T13:50:44Z</time>
      </trkpt>
      <trkpt lat="49.9249" lon="2.45682">
        <ele>91.9</ele>
        <time>2022-03-30T13:50:45Z</time>
      </trkpt>
      <trkpt lat="49.9249" lon="2.45682">
        <ele>91.9</ele>
        <time>2022-03-30T13:50:46Z</time>
      </trkpt>
      <trkpt lat="49.9249" lon="2.45682">
        <ele>91.9</ele>
        <time>2022-03-30T13:50:47Z</time>
      </trkpt>
      <trkpt lat="49.9249" lon="2.45682">
        <ele>91.9</ele>
        <time>2022-03-30T13:50:48Z</time>
      </trkpt>
      <trkpt lat="49.9249" lon="2.45682">
        <ele>91.9</ele>
        <time>2022-03-30T13:50:49Z</time>
      </trkpt>
      <trkpt lat="49.9249" lon="2.45682">
        <ele>91.9</ele>
        <time>2022-03-30T13:50:50Z</time>
      </trkpt>
      <trkpt lat="49.9249" lon="2.45682">
        <ele>91.9</ele>
        <time>2022-03-30T13:50:51Z</time>
      </trkpt>
      <trkpt lat="49.9249" lon="2.45682">
        <ele>91.9</ele>
        <time>2022-03-30T13:50:52Z</time>
      </trkpt>
      <trkpt lat="49.9249" lon="2.45682">
        <ele>91.9</ele>
        <time>2022-03-30T13:50:53Z</time>
      </trkpt>
      <trkpt lat="49.9249" lon="2.45682">
        <ele>91.9</ele>
        <time>2022-03-30T13:50:54Z</time>
      </trkpt>
      <trkpt lat="49.9249" lon="2.45682">
        <ele>91.9</ele>
        <time>2022-03-30T13:50:55Z</time>
      </trkpt>
      <trkpt lat="49.9249" lon="2.45682">
        <ele>91.9</ele>
        <time>2022-03-30T13:50:56Z</time>
      </trkpt>
      <trkpt lat="49.9249" lon="2.45682">
        <ele>91.9</ele>
        <time>2022-03-30T13:50:57Z</time>
      </trkpt>
      <trkpt lat="49.9249" lon="2.45682">
        <ele>91.9</ele>
        <time>2022-03-30T13:50:58Z</time>
      </trkpt>
      <trkpt lat="49.9249" lon="2.45682">
        <ele>91.9</ele>
        <time>2022-03-30T13:50:59Z</time>
      </trkpt>
      <trkpt lat="49.9249" lon="2.45682">
        <ele>91.9</ele>
        <time>2022-03-30T13:51:00Z</time>
      </trkpt>
      <trkpt lat="49.9249" lon="2.45682">
        <ele>91.9</ele>
        <time>2022-03-30T13:51:01Z</time>
      </trkpt>
      <trkpt lat="49.9249" lon="2.45682">
        <ele>91.9</ele>
        <time>2022-03-30T13:51:02Z</time>
      </trkpt>
      <trkpt lat="49.9249" lon="2.45682">
        <ele>91.9</ele>
        <time>2022-03-30T13:51:03Z</time>
      </trkpt>
      <trkpt lat="49.9249" lon="2.45682">
        <ele>91.9</ele>
        <time>2022-03-30T13:51:04Z</time>
      </trkpt>
      <trkpt lat="49.9249" lon="2.45682">
        <ele>91.9</ele>
        <time>2022-03-30T13:51:05Z</time>
      </trkpt>
      <trkpt lat="49.9249" lon="2.45682">
        <ele>91.9</ele>
        <time>2022-03-30T13:51:06Z</time>
      </trkpt>
      <trkpt lat="49.9249" lon="2.45682">
        <ele>91.9</ele>
        <time>2022-03-30T13:51:07Z</time>
      </trkpt>
      <trkpt lat="49.9249" lon="2.45682">
        <ele>91.9</ele>
        <time>2022-03-30T13:51:08Z</time>
      </trkpt>
      <trkpt lat="49.9249" lon="2.45682">
        <ele>91.9</ele>
        <time>2022-03-30T13:51:09Z</time>
      </trkpt>
      <trkpt lat="49.9249" lon="2.45682">
        <ele>91.9</ele>
        <time>2022-03-30T13:51:10Z</time>
      </trkpt>
      <trkpt lat="49.9249" lon="2.45682">
        <ele>91.9</ele>
        <time>2022-03-30T13:51:11Z</time>
      </trkpt>
      <trkpt lat="49.9249" lon="2.45682">
        <ele>91.9</ele>
        <time>2022-03-30T13:51:12Z</time>
      </trkpt>
      <trkpt lat="49.9249" lon="2.45682">
        <ele>91.9</ele>
        <time>2022-03-30T13:51:13Z</time>
      </trkpt>
      <trkpt lat="49.9249" lon="2.45682">
        <ele>91.9</ele>
        <time>2022-03-30T13:51:14Z</time>
      </trkpt>
      <trkpt lat="49.9249" lon="2.45682">
        <ele>91.9</ele>
        <time>2022-03-30T13:51:15Z</time>
      </trkpt>
      <trkpt lat="49.9249" lon="2.45682">
        <ele>91.9</ele>
        <time>2022-03-30T13:51:16Z</time>
      </trkpt>
      <trkpt lat="49.9249" lon="2.45682">
        <ele>91.9</ele>
        <time>2022-03-30T13:51:17Z</time>
      </trkpt>
      <trkpt lat="49.9249" lon="2.45682">
        <ele>91.9</ele>
        <time>2022-03-30T13:51:18Z</time>
      </trkpt>
      <trkpt lat="49.9249" lon="2.45682">
        <ele>91.9</ele>
        <time>2022-03-30T13:51:19Z</time>
      </trkpt>
      <trkpt lat="49.9249" lon="2.45682">
        <ele>91.9</ele>
        <time>2022-03-30T13:51:20Z</time>
      </trkpt>
      <trkpt lat="49.9249" lon="2.45682">
        <ele>91.9</ele>
        <time>2022-03-30T13:51:21Z</time>
      </trkpt>
      <trkpt lat="49.9249" lon="2.45682">
        <ele>91.9</ele>
        <time>2022-03-30T13:51:22Z</time>
      </trkpt>
      <trkpt lat="49.9249" lon="2.45682">
        <ele>91.9</ele>
        <time>2022-03-30T13:51:23Z</time>
      </trkpt>
      <trkpt lat="49.9249" lon="2.45682">
        <ele>91.9</ele>
        <time>2022-03-30T13:51:24Z</time>
      </trkpt>
      <trkpt lat="49.9249" lon="2.45682">
        <ele>91.9</ele>
        <time>2022-03-30T13:51:25Z</time>
      </trkpt>
      <trkpt lat="49.9249" lon="2.45682">
        <ele>91.9</ele>
        <time>2022-03-30T13:51:26Z</time>
      </trkpt>
      <trkpt lat="49.9249" lon="2.45682">
        <ele>91.9</ele>
        <time>2022-03-30T13:51:27Z</time>
      </trkpt>
      <trkpt lat="49.9249" lon="2.45682">
        <ele>91.9</ele>
        <time>2022-03-30T13:51:28Z</time>
      </trkpt>
      <trkpt lat="49.9249" lon="2.45682">
        <ele>91.9</ele>
        <time>2022-03-30T13:51:29Z</time>
      </trkpt>
      <trkpt lat="49.9249" lon="2.45682">
        <ele>91.9</ele>
        <time>2022-03-30T13:51:30Z</time>
      </trkpt>
      <trkpt lat="49.9249" lon="2.45682">
        <ele>91.9</ele>
        <time>2022-03-30T13:51:31Z</time>
      </trkpt>
      <trkpt lat="49.9249" lon="2.45682">
        <ele>91.9</ele>
        <time>2022-03-30T13:51:32Z</time>
      </trkpt>
      <trkpt lat="49.9249" lon="2.45682">
        <ele>91.9</ele>
        <time>2022-03-30T13:51:33Z</time>
      </trkpt>
      <trkpt lat="49.9249" lon="2.45682">
        <ele>91.9</ele>
        <time>2022-03-30T13:51:34Z</time>
      </trkpt>
      <trkpt lat="49.9249" lon="2.45682">
        <ele>91.9</ele>
        <time>2022-03-30T13:51:35Z</time>
      </trkpt>
      <trkpt lat="49.9249" lon="2.45682">
        <ele>91.9</ele>
        <time>2022-03-30T13:51:36Z</time>
      </trkpt>
      <trkpt lat="49.9249" lon="2.45682">
        <ele>91.9</ele>
        <time>2022-03-30T13:51:37Z</time>
      </trkpt>
      <trkpt lat="49.9249" lon="2.45682">
        <ele>91.9</ele>
        <time>2022-03-30T13:51:38Z</time>
      </trkpt>
      <trkpt lat="49.9249" lon="2.45682">
        <ele>91.9</ele>
        <time>2022-03-30T13:51:39Z</time>
      </trkpt>
      <trkpt lat="49.9249" lon="2.45682">
        <ele>91.9</ele>
        <time>2022-03-30T13:51:40Z</time>
      </trkpt>
      <trkpt lat="49.9249" lon="2.45682">
        <ele>91.9</ele>
        <time>2022-03-30T13:51:41Z</time>
      </trkpt>
      <trkpt lat="49.9249" lon="2.45682">
        <ele>91.9</ele>
        <time>2022-03-30T13:51:42Z</time>
      </trkpt>
      <trkpt lat="49.92491" lon="2.45681">
        <ele>91.9</ele>
        <time>2022-03-30T13:51:43Z</time>
      </trkpt>
      <trkpt lat="49.92492" lon="2.4568">
        <ele>91.9</ele>
        <time>2022-03-30T13:51:44Z</time>
      </trkpt>
      <trkpt lat="49.92492" lon="2.4568">
        <ele>91.8</ele>
        <time>2022-03-30T13:51:45Z</time>
      </trkpt>
      <trkpt lat="49.92491" lon="2.4568">
        <ele>91.8</ele>
        <time>2022-03-30T13:51:46Z</time>
      </trkpt>
      <trkpt lat="49.92491" lon="2.4568">
        <ele>91.8</ele>
        <time>2022-03-30T13:51:47Z</time>
      </trkpt>
      <trkpt lat="49.9249" lon="2.4568">
        <ele>91.8</ele>
        <time>2022-03-30T13:51:48Z</time>
      </trkpt>
      <trkpt lat="49.92489" lon="2.4568">
        <ele>91.7</ele>
        <time>2022-03-30T13:51:49Z</time>
      </trkpt>
      <trkpt lat="49.92488" lon="2.4568">
        <ele>91.7</ele>
        <time>2022-03-30T13:51:50Z</time>
      </trkpt>
      <trkpt lat="49.92487" lon="2.4568">
        <ele>91.7</ele>
        <time>2022-03-30T13:51:51Z</time>
      </trkpt>
      <trkpt lat="49.92486" lon="2.45679">
        <ele>91.7</ele>
        <time>2022-03-30T13:51:52Z</time>
      </trkpt>
      <trkpt lat="49.92485" lon="2.45679">
        <ele>91.6</ele>
        <time>2022-03-30T13:51:53Z</time>
      </trkpt>
      <trkpt lat="49.92483" lon="2.45679">
        <ele>91.6</ele>
        <time>2022-03-30T13:51:54Z</time>
      </trkpt>
      <trkpt lat="49.92482" lon="2.45678">
        <ele>91.6</ele>
        <time>2022-03-30T13:51:55Z</time>
      </trkpt>
      <trkpt lat="49.92481" lon="2.45678">
        <ele>91.5</ele>
        <time>2022-03-30T13:51:56Z</time>
      </trkpt>
      <trkpt lat="49.92481" lon="2.45677">
        <ele>91.5</ele>
        <time>2022-03-30T13:51:57Z</time>
      </trkpt>
      <trkpt lat="49.9248" lon="2.45676">
        <ele>91.5</ele>
        <time>2022-03-30T13:51:58Z</time>
      </trkpt>
      <trkpt lat="49.92478" lon="2.45674">
        <ele>91.4</ele>
        <time>2022-03-30T13:51:59Z</time>
      </trkpt>
      <trkpt lat="49.92477" lon="2.45674">
        <ele>91.4</ele>
        <time>2022-03-30T13:52:00Z</time>
      </trkpt>
      <trkpt lat="49.92476" lon="2.45674">
        <ele>91.4</ele>
        <time>2022-03-30T13:52:01Z</time>
      </trkpt>
      <trkpt lat="49.92475" lon="2.45673">
        <ele>91.3</ele>
        <time>2022-03-30T13:52:02Z</time>
      </trkpt>
      <trkpt lat="49.92474" lon="2.45672">
        <ele>91.3</ele>
        <time>2022-03-30T13:52:03Z</time>
      </trkpt>
      <trkpt lat="49.92472" lon="2.45671">
        <ele>91.3</ele>
        <time>2022-03-30T13:52:04Z</time>
      </trkpt>
      <trkpt lat="49.92471" lon="2.4567">
        <ele>91.2</ele>
        <time>2022-03-30T13:52:05Z</time>
      </trkpt>
      <trkpt lat="49.9247" lon="2.4567">
        <ele>91.2</ele>
        <time>2022-03-30T13:52:06Z</time>
      </trkpt>
      <trkpt lat="49.92469" lon="2.45668">
        <ele>91.2</ele>
        <time>2022-03-30T13:52:07Z</time>
      </trkpt>
      <trkpt lat="49.92468" lon="2.45668">
        <ele>91.1</ele>
        <time>2022-03-30T13:52:08Z</time>
      </trkpt>
      <trkpt lat="49.92467" lon="2.45667">
        <ele>91.1</ele>
        <time>2022-03-30T13:52:09Z</time>
      </trkpt>
      <trkpt lat="49.92466" lon="2.45666">
        <ele>91.1</ele>
        <time>2022-03-30T13:52:10Z</time>
      </trkpt>
      <trkpt lat="49.92466" lon="2.45666">
        <ele>91.1</ele>
        <time>2022-03-30T13:52:11Z</time>
      </trkpt>
      <trkpt lat="49.92465" lon="2.45666">
        <ele>91</ele>
        <time>2022-03-30T13:52:12Z</time>
      </trkpt>
      <trkpt lat="49.92464" lon="2.45665">
        <ele>91</ele>
        <time>2022-03-30T13:52:13Z</time>
      </trkpt>
      <trkpt lat="49.92463" lon="2.45665">
        <ele>91</ele>
        <time>2022-03-30T13:52:14Z</time>
      </trkpt>
      <trkpt lat="49.92462" lon="2.45664">
        <ele>90.9</ele>
        <time>2022-03-30T13:52:15Z</time>
      </trkpt>
      <trkpt lat="49.92461" lon="2.45664">
        <ele>90.9</ele>
        <time>2022-03-30T13:52:16Z</time>
      </trkpt>
      <trkpt lat="49.9246" lon="2.45664">
        <ele>90.9</ele>
        <time>2022-03-30T13:52:17Z</time>
      </trkpt>
      <trkpt lat="49.92459" lon="2.45663">
        <ele>90.8</ele>
        <time>2022-03-30T13:52:18Z</time>
      </trkpt>
      <trkpt lat="49.92458" lon="2.45663">
        <ele>90.8</ele>
        <time>2022-03-30T13:52:19Z</time>
      </trkpt>
      <trkpt lat="49.92456" lon="2.45663">
        <ele>90.7</ele>
        <time>2022-03-30T13:52:20Z</time>
      </trkpt>
      <trkpt lat="49.92455" lon="2.45663">
        <ele>90.7</ele>
        <time>2022-03-30T13:52:21Z</time>
      </trkpt>
      <trkpt lat="49.92455" lon="2.45663">
        <ele>90.7</ele>
        <time>2022-03-30T13:52:22Z</time>
      </trkpt>
      <trkpt lat="49.92454" lon="2.45663">
        <ele>90.7</ele>
        <time>2022-03-30T13:52:23Z</time>
      </trkpt>
      <trkpt lat="49.92453" lon="2.45663">
        <ele>90.6</ele>
        <time>2022-03-30T13:52:24Z</time>
      </trkpt>
      <trkpt lat="49.92452" lon="2.45663">
        <ele>90.6</ele>
        <time>2022-03-30T13:52:25Z</time>
      </trkpt>
      <trkpt lat="49.92451" lon="2.45662">
        <ele>90.6</ele>
        <time>2022-03-30T13:52:26Z</time>
      </trkpt>
      <trkpt lat="49.9245" lon="2.45662">
        <ele>90.5</ele>
        <time>2022-03-30T13:52:27Z</time>
      </trkpt>
      <trkpt lat="49.92449" lon="2.45662">
        <ele>90.5</ele>
        <time>2022-03-30T13:52:28Z</time>
      </trkpt>
      <trkpt lat="49.92448" lon="2.45661">
        <ele>90.4</ele>
        <time>2022-03-30T13:52:29Z</time>
      </trkpt>
      <trkpt lat="49.92447" lon="2.45661">
        <ele>90.4</ele>
        <time>2022-03-30T13:52:30Z</time>
      </trkpt>
      <trkpt lat="49.92445" lon="2.45661">
        <ele>90.4</ele>
        <time>2022-03-30T13:52:31Z</time>
      </trkpt>
      <trkpt lat="49.92444" lon="2.45661">
        <ele>90.3</ele>
        <time>2022-03-30T13:52:32Z</time>
      </trkpt>
      <trkpt lat="49.92443" lon="2.4566">
        <ele>90.3</ele>
        <time>2022-03-30T13:52:33Z</time>
      </trkpt>
      <trkpt lat="49.92442" lon="2.4566">
        <ele>90.3</ele>
        <time>2022-03-30T13:52:34Z</time>
      </trkpt>
      <trkpt lat="49.92441" lon="2.4566">
        <ele>90.2</ele>
        <time>2022-03-30T13:52:35Z</time>
      </trkpt>
      <trkpt lat="49.9244" lon="2.4566">
        <ele>90.2</ele>
        <time>2022-03-30T13:52:36Z</time>
      </trkpt>
      <trkpt lat="49.92439" lon="2.4566">
        <ele>90.2</ele>
        <time>2022-03-30T13:52:37Z</time>
      </trkpt>
      <trkpt lat="49.92438" lon="2.45659">
        <ele>90.1</ele>
        <time>2022-03-30T13:52:38Z</time>
      </trkpt>
      <trkpt lat="49.92437" lon="2.45659">
        <ele>90.1</ele>
        <time>2022-03-30T13:52:39Z</time>
      </trkpt>
      <trkpt lat="49.92436" lon="2.4566">
        <ele>90.1</ele>
        <time>2022-03-30T13:52:40Z</time>
      </trkpt>
      <trkpt lat="49.92435" lon="2.4566">
        <ele>90</ele>
        <time>2022-03-30T13:52:41Z</time>
      </trkpt>
      <trkpt lat="49.92434" lon="2.4566">
        <ele>90</ele>
        <time>2022-03-30T13:52:42Z</time>
      </trkpt>
      <trkpt lat="49.92433" lon="2.4566">
        <ele>90</ele>
        <time>2022-03-30T13:52:43Z</time>
      </trkpt>
      <trkpt lat="49.92431" lon="2.4566">
        <ele>89.9</ele>
        <time>2022-03-30T13:52:44Z</time>
      </trkpt>
      <trkpt lat="49.9243" lon="2.4566">
        <ele>89.9</ele>
        <time>2022-03-30T13:52:45Z</time>
      </trkpt>
      <trkpt lat="49.9243" lon="2.4566">
        <ele>89.9</ele>
        <time>2022-03-30T13:52:46Z</time>
      </trkpt>
      <trkpt lat="49.92429" lon="2.4566">
        <ele>89.8</ele>
        <time>2022-03-30T13:52:47Z</time>
      </trkpt>
      <trkpt lat="49.92428" lon="2.4566">
        <ele>89.8</ele>
        <time>2022-03-30T13:52:48Z</time>
      </trkpt>
      <trkpt lat="49.92427" lon="2.4566">
        <ele>89.8</ele>
        <time>2022-03-30T13:52:49Z</time>
      </trkpt>
      <trkpt lat="49.92426" lon="2.4566">
        <ele>89.7</ele>
        <time>2022-03-30T13:52:50Z</time>
      </trkpt>
      <trkpt lat="49.92425" lon="2.4566">
        <ele>89.7</ele>
        <time>2022-03-30T13:52:51Z</time>
      </trkpt>
      <trkpt lat="49.92424" lon="2.4566">
        <ele>89.6</ele>
        <time>2022-03-30T13:52:52Z</time>
      </trkpt>
      <trkpt lat="49.92422" lon="2.45659">
        <ele>89.6</ele>
        <time>2022-03-30T13:52:53Z</time>
      </trkpt>
      <trkpt lat="49.92421" lon="2.45659">
        <ele>89.6</ele>
        <time>2022-03-30T13:52:54Z</time>
      </trkpt>
      <trkpt lat="49.9242" lon="2.45659">
        <ele>89.5</ele>
        <time>2022-03-30T13:52:55Z</time>
      </trkpt>
      <trkpt lat="49.92419" lon="2.45658">
        <ele>89.5</ele>
        <time>2022-03-30T13:52:56Z</time>
      </trkpt>
      <trkpt lat="49.92418" lon="2.45658">
        <ele>89.4</ele>
        <time>2022-03-30T13:52:57Z</time>
      </trkpt>
      <trkpt lat="49.92417" lon="2.45658">
        <ele>89.4</ele>
        <time>2022-03-30T13:52:58Z</time>
      </trkpt>
      <trkpt lat="49.92416" lon="2.45658">
        <ele>89.4</ele>
        <time>2022-03-30T13:52:59Z</time>
      </trkpt>
      <trkpt lat="49.92415" lon="2.45658">
        <ele>89.3</ele>
        <time>2022-03-30T13:53:00Z</time>
      </trkpt>
      <trkpt lat="49.92414" lon="2.45658">
        <ele>89.3</ele>
        <time>2022-03-30T13:53:01Z</time>
      </trkpt>
      <trkpt lat="49.92413" lon="2.45658">
        <ele>89.2</ele>
        <time>2022-03-30T13:53:02Z</time>
      </trkpt>
      <trkpt lat="49.92412" lon="2.45658">
        <ele>89.2</ele>
        <time>2022-03-30T13:53:03Z</time>
      </trkpt>
      <trkpt lat="49.92411" lon="2.45658">
        <ele>89.1</ele>
        <time>2022-03-30T13:53:04Z</time>
      </trkpt>
      <trkpt lat="49.9241" lon="2.45658">
        <ele>89.1</ele>
        <time>2022-03-30T13:53:05Z</time>
      </trkpt>
      <trkpt lat="49.92409" lon="2.45658">
        <ele>89</ele>
        <time>2022-03-30T13:53:06Z</time>
      </trkpt>
      <trkpt lat="49.92408" lon="2.45657">
        <ele>89</ele>
        <time>2022-03-30T13:53:07Z</time>
      </trkpt>
      <trkpt lat="49.92407" lon="2.45657">
        <ele>88.9</ele>
        <time>2022-03-30T13:53:08Z</time>
      </trkpt>
      <trkpt lat="49.92406" lon="2.45658">
        <ele>88.9</ele>
        <time>2022-03-30T13:53:09Z</time>
      </trkpt>
      <trkpt lat="49.92405" lon="2.45658">
        <ele>88.9</ele>
        <time>2022-03-30T13:53:10Z</time>
      </trkpt>
      <trkpt lat="49.92404" lon="2.45657">
        <ele>88.8</ele>
        <time>2022-03-30T13:53:11Z</time>
      </trkpt>
      <trkpt lat="49.92403" lon="2.45657">
        <ele>88.8</ele>
        <time>2022-03-30T13:53:12Z</time>
      </trkpt>
      <trkpt lat="49.92402" lon="2.45657">
        <ele>88.7</ele>
        <time>2022-03-30T13:53:13Z</time>
      </trkpt>
      <trkpt lat="49.92401" lon="2.45657">
        <ele>88.7</ele>
        <time>2022-03-30T13:53:14Z</time>
      </trkpt>
      <trkpt lat="49.924" lon="2.45657">
        <ele>88.6</ele>
        <time>2022-03-30T13:53:15Z</time>
      </trkpt>
      <trkpt lat="49.92398" lon="2.45657">
        <ele>88.6</ele>
        <time>2022-03-30T13:53:16Z</time>
      </trkpt>
      <trkpt lat="49.92397" lon="2.45657">
        <ele>88.5</ele>
        <time>2022-03-30T13:53:17Z</time>
      </trkpt>
      <trkpt lat="49.92396" lon="2.45656">
        <ele>88.5</ele>
        <time>2022-03-30T13:53:18Z</time>
      </trkpt>
      <trkpt lat="49.92394" lon="2.45656">
        <ele>88.4</ele>
        <time>2022-03-30T13:53:19Z</time>
      </trkpt>
      <trkpt lat="49.92393" lon="2.45656">
        <ele>88.4</ele>
        <time>2022-03-30T13:53:20Z</time>
      </trkpt>
      <trkpt lat="49.92392" lon="2.45656">
        <ele>88.3</ele>
        <time>2022-03-30T13:53:21Z</time>
      </trkpt>
      <trkpt lat="49.9239" lon="2.45656">
        <ele>88.2</ele>
        <time>2022-03-30T13:53:22Z</time>
      </trkpt>
      <trkpt lat="49.92389" lon="2.45656">
        <ele>88.2</ele>
        <time>2022-03-30T13:53:23Z</time>
      </trkpt>
      <trkpt lat="49.92388" lon="2.45655">
        <ele>88.2</ele>
        <time>2022-03-30T13:53:24Z</time>
      </trkpt>
      <trkpt lat="49.92387" lon="2.45656">
        <ele>88.1</ele>
        <time>2022-03-30T13:53:25Z</time>
      </trkpt>
      <trkpt lat="49.92386" lon="2.45656">
        <ele>88</ele>
        <time>2022-03-30T13:53:26Z</time>
      </trkpt>
      <trkpt lat="49.92385" lon="2.45656">
        <ele>88</ele>
        <time>2022-03-30T13:53:27Z</time>
      </trkpt>
      <trkpt lat="49.92385" lon="2.45655">
        <ele>88</ele>
        <time>2022-03-30T13:53:28Z</time>
      </trkpt>
      <trkpt lat="49.92383" lon="2.45655">
        <ele>87.9</ele>
        <time>2022-03-30T13:53:29Z</time>
      </trkpt>
      <trkpt lat="49.92382" lon="2.45655">
        <ele>87.9</ele>
        <time>2022-03-30T13:53:30Z</time>
      </trkpt>
      <trkpt lat="49.92381" lon="2.45655">
        <ele>87.8</ele>
        <time>2022-03-30T13:53:31Z</time>
      </trkpt>
      <trkpt lat="49.9238" lon="2.45655">
        <ele>87.7</ele>
        <time>2022-03-30T13:53:32Z</time>
      </trkpt>
      <trkpt lat="49.92379" lon="2.45655">
        <ele>87.7</ele>
        <time>2022-03-30T13:53:33Z</time>
      </trkpt>
      <trkpt lat="49.92377" lon="2.45654">
        <ele>87.6</ele>
        <time>2022-03-30T13:53:34Z</time>
      </trkpt>
      <trkpt lat="49.92376" lon="2.45654">
        <ele>87.5</ele>
        <time>2022-03-30T13:53:35Z</time>
      </trkpt>
      <trkpt lat="49.92375" lon="2.45654">
        <ele>87.5</ele>
        <time>2022-03-30T13:53:36Z</time>
      </trkpt>
      <trkpt lat="49.92373" lon="2.45654">
        <ele>87.3</ele>
        <time>2022-03-30T13:53:37Z</time>
      </trkpt>
      <trkpt lat="49.92372" lon="2.45654">
        <ele>87.3</ele>
        <time>2022-03-30T13:53:38Z</time>
      </trkpt>
      <trkpt lat="49.92371" lon="2.45654">
        <ele>87.3</ele>
        <time>2022-03-30T13:53:39Z</time>
      </trkpt>
      <trkpt lat="49.9237" lon="2.45654">
        <ele>87.2</ele>
        <time>2022-03-30T13:53:40Z</time>
      </trkpt>
      <trkpt lat="49.92369" lon="2.45654">
        <ele>87.1</ele>
        <time>2022-03-30T13:53:41Z</time>
      </trkpt>
      <trkpt lat="49.92368" lon="2.45654">
        <ele>87.1</ele>
        <time>2022-03-30T13:53:42Z</time>
      </trkpt>
      <trkpt lat="49.92367" lon="2.45654">
        <ele>87</ele>
        <time>2022-03-30T13:53:43Z</time>
      </trkpt>
      <trkpt lat="49.92366" lon="2.45654">
        <ele>87</ele>
        <time>2022-03-30T13:53:44Z</time>
      </trkpt>
      <trkpt lat="49.92365" lon="2.45654">
        <ele>86.9</ele>
        <time>2022-03-30T13:53:45Z</time>
      </trkpt>
      <trkpt lat="49.92364" lon="2.45654">
        <ele>86.8</ele>
        <time>2022-03-30T13:53:46Z</time>
      </trkpt>
      <trkpt lat="49.92363" lon="2.45654">
        <ele>86.8</ele>
        <time>2022-03-30T13:53:47Z</time>
      </trkpt>
      <trkpt lat="49.92361" lon="2.45654">
        <ele>86.7</ele>
        <time>2022-03-30T13:53:48Z</time>
      </trkpt>
      <trkpt lat="49.9236" lon="2.45653">
        <ele>86.6</ele>
        <time>2022-03-30T13:53:49Z</time>
      </trkpt>
      <trkpt lat="49.92359" lon="2.45653">
        <ele>86.5</ele>
        <time>2022-03-30T13:53:50Z</time>
      </trkpt>
      <trkpt lat="49.92358" lon="2.45653">
        <ele>86.5</ele>
        <time>2022-03-30T13:53:51Z</time>
      </trkpt>
      <trkpt lat="49.92356" lon="2.45653">
        <ele>86.3</ele>
        <time>2022-03-30T13:53:52Z</time>
      </trkpt>
      <trkpt lat="49.92355" lon="2.45653">
        <ele>86.3</ele>
        <time>2022-03-30T13:53:53Z</time>
      </trkpt>
      <trkpt lat="49.92354" lon="2.45652">
        <ele>86.2</ele>
        <time>2022-03-30T13:53:54Z</time>
      </trkpt>
      <trkpt lat="49.92353" lon="2.45652">
        <ele>86.2</ele>
        <time>2022-03-30T13:53:55Z</time>
      </trkpt>
      <trkpt lat="49.92352" lon="2.45652">
        <ele>86.1</ele>
        <time>2022-03-30T13:53:56Z</time>
      </trkpt>
      <trkpt lat="49.92351" lon="2.45652">
        <ele>86.1</ele>
        <time>2022-03-30T13:53:57Z</time>
      </trkpt>
      <trkpt lat="49.92351" lon="2.45653">
        <ele>86</ele>
        <time>2022-03-30T13:53:58Z</time>
      </trkpt>
      <trkpt lat="49.92349" lon="2.45653">
        <ele>85.9</ele>
        <time>2022-03-30T13:53:59Z</time>
      </trkpt>
      <trkpt lat="49.92348" lon="2.45653">
        <ele>85.9</ele>
        <time>2022-03-30T13:54:00Z</time>
      </trkpt>
      <trkpt lat="49.92347" lon="2.45653">
        <ele>85.8</ele>
        <time>2022-03-30T13:54:01Z</time>
      </trkpt>
      <trkpt lat="49.92346" lon="2.45653">
        <ele>85.7</ele>
        <time>2022-03-30T13:54:02Z</time>
      </trkpt>
      <trkpt lat="49.92345" lon="2.45653">
        <ele>85.7</ele>
        <time>2022-03-30T13:54:03Z</time>
      </trkpt>
      <trkpt lat="49.92344" lon="2.45653">
        <ele>85.6</ele>
        <time>2022-03-30T13:54:04Z</time>
      </trkpt>
      <trkpt lat="49.92342" lon="2.45652">
        <ele>85.5</ele>
        <time>2022-03-30T13:54:05Z</time>
      </trkpt>
      <trkpt lat="49.92341" lon="2.45652">
        <ele>85.5</ele>
        <time>2022-03-30T13:54:06Z</time>
      </trkpt>
      <trkpt lat="49.9234" lon="2.45652">
        <ele>85.4</ele>
        <time>2022-03-30T13:54:07Z</time>
      </trkpt>
      <trkpt lat="49.92338" lon="2.45652">
        <ele>85.2</ele>
        <time>2022-03-30T13:54:08Z</time>
      </trkpt>
      <trkpt lat="49.92337" lon="2.45652">
        <ele>85.2</ele>
        <time>2022-03-30T13:54:09Z</time>
      </trkpt>
      <trkpt lat="49.92337" lon="2.45652">
        <ele>85.1</ele>
        <time>2022-03-30T13:54:10Z</time>
      </trkpt>
      <trkpt lat="49.92335" lon="2.45652">
        <ele>85.1</ele>
        <time>2022-03-30T13:54:11Z</time>
      </trkpt>
      <trkpt lat="49.92334" lon="2.45652">
        <ele>85</ele>
        <time>2022-03-30T13:54:12Z</time>
      </trkpt>
      <trkpt lat="49.92333" lon="2.45652">
        <ele>84.9</ele>
        <time>2022-03-30T13:54:13Z</time>
      </trkpt>
      <trkpt lat="49.92332" lon="2.45652">
        <ele>84.9</ele>
        <time>2022-03-30T13:54:14Z</time>
      </trkpt>
      <trkpt lat="49.92331" lon="2.45652">
        <ele>84.8</ele>
        <time>2022-03-30T13:54:15Z</time>
      </trkpt>
      <trkpt lat="49.9233" lon="2.45651">
        <ele>84.7</ele>
        <time>2022-03-30T13:54:16Z</time>
      </trkpt>
      <trkpt lat="49.92329" lon="2.45651">
        <ele>84.6</ele>
        <time>2022-03-30T13:54:17Z</time>
      </trkpt>
      <trkpt lat="49.92328" lon="2.45651">
        <ele>84.5</ele>
        <time>2022-03-30T13:54:18Z</time>
      </trkpt>
      <trkpt lat="49.92326" lon="2.45652">
        <ele>84.4</ele>
        <time>2022-03-30T13:54:19Z</time>
      </trkpt>
      <trkpt lat="49.92324" lon="2.45651">
        <ele>84.3</ele>
        <time>2022-03-30T13:54:20Z</time>
      </trkpt>
      <trkpt lat="49.92324" lon="2.45651">
        <ele>84.2</ele>
        <time>2022-03-30T13:54:21Z</time>
      </trkpt>
      <trkpt lat="49.92323" lon="2.45651">
        <ele>84.2</ele>
        <time>2022-03-30T13:54:22Z</time>
      </trkpt>
      <trkpt lat="49.92322" lon="2.45651">
        <ele>84.1</ele>
        <time>2022-03-30T13:54:23Z</time>
      </trkpt>
      <trkpt lat="49.9232" lon="2.4565">
        <ele>84</ele>
        <time>2022-03-30T13:54:24Z</time>
      </trkpt>
      <trkpt lat="49.92319" lon="2.4565">
        <ele>83.9</ele>
        <time>2022-03-30T13:54:25Z</time>
      </trkpt>
      <trkpt lat="49.92318" lon="2.45649">
        <ele>83.8</ele>
        <time>2022-03-30T13:54:26Z</time>
      </trkpt>
      <trkpt lat="49.92317" lon="2.45649">
        <ele>83.7</ele>
        <time>2022-03-30T13:54:27Z</time>
      </trkpt>
      <trkpt lat="49.92316" lon="2.45648">
        <ele>83.7</ele>
        <time>2022-03-30T13:54:28Z</time>
      </trkpt>
      <trkpt lat="49.92314" lon="2.45647">
        <ele>83.5</ele>
        <time>2022-03-30T13:54:29Z</time>
      </trkpt>
      <trkpt lat="49.92313" lon="2.45647">
        <ele>83.5</ele>
        <time>2022-03-30T13:54:30Z</time>
      </trkpt>
      <trkpt lat="49.92312" lon="2.45646">
        <ele>83.4</ele>
        <time>2022-03-30T13:54:31Z</time>
      </trkpt>
      <trkpt lat="49.92311" lon="2.45645">
        <ele>83.3</ele>
        <time>2022-03-30T13:54:32Z</time>
      </trkpt>
      <trkpt lat="49.9231" lon="2.45645">
        <ele>83.2</ele>
        <time>2022-03-30T13:54:33Z</time>
      </trkpt>
      <trkpt lat="49.92309" lon="2.45644">
        <ele>83.1</ele>
        <time>2022-03-30T13:54:34Z</time>
      </trkpt>
      <trkpt lat="49.92308" lon="2.45644">
        <ele>83.1</ele>
        <time>2022-03-30T13:54:35Z</time>
      </trkpt>
      <trkpt lat="49.92307" lon="2.45643">
        <ele>83</ele>
        <time>2022-03-30T13:54:36Z</time>
      </trkpt>
      <trkpt lat="49.92306" lon="2.45643">
        <ele>82.9</ele>
        <time>2022-03-30T13:54:37Z</time>
      </trkpt>
      <trkpt lat="49.92305" lon="2.45642">
        <ele>82.8</ele>
        <time>2022-03-30T13:54:38Z</time>
      </trkpt>
      <trkpt lat="49.92304" lon="2.45642">
        <ele>82.8</ele>
        <time>2022-03-30T13:54:39Z</time>
      </trkpt>
      <trkpt lat="49.92303" lon="2.45641">
        <ele>82.7</ele>
        <time>2022-03-30T13:54:40Z</time>
      </trkpt>
      <trkpt lat="49.92303" lon="2.45641">
        <ele>82.7</ele>
        <time>2022-03-30T13:54:41Z</time>
      </trkpt>
      <trkpt lat="49.92302" lon="2.45641">
        <ele>82.6</ele>
        <time>2022-03-30T13:54:42Z</time>
      </trkpt>
      <trkpt lat="49.923" lon="2.45641">
        <ele>82.5</ele>
        <time>2022-03-30T13:54:43Z</time>
      </trkpt>
      <trkpt lat="49.92299" lon="2.45641">
        <ele>82.4</ele>
        <time>2022-03-30T13:54:44Z</time>
      </trkpt>
      <trkpt lat="49.92299" lon="2.45641">
        <ele>82.4</ele>
        <time>2022-03-30T13:54:45Z</time>
      </trkpt>
      <trkpt lat="49.92297" lon="2.45641">
        <ele>82.3</ele>
        <time>2022-03-30T13:54:46Z</time>
      </trkpt>
      <trkpt lat="49.92296" lon="2.45641">
        <ele>82.2</ele>
        <time>2022-03-30T13:54:47Z</time>
      </trkpt>
      <trkpt lat="49.92295" lon="2.45641">
        <ele>82.1</ele>
        <time>2022-03-30T13:54:48Z</time>
      </trkpt>
      <trkpt lat="49.92294" lon="2.45641">
        <ele>82</ele>
        <time>2022-03-30T13:54:49Z</time>
      </trkpt>
      <trkpt lat="49.92292" lon="2.4564">
        <ele>81.9</ele>
        <time>2022-03-30T13:54:50Z</time>
      </trkpt>
      <trkpt lat="49.92291" lon="2.4564">
        <ele>81.9</ele>
        <time>2022-03-30T13:54:51Z</time>
      </trkpt>
      <trkpt lat="49.9229" lon="2.4564">
        <ele>81.8</ele>
        <time>2022-03-30T13:54:52Z</time>
      </trkpt>
      <trkpt lat="49.92289" lon="2.4564">
        <ele>81.7</ele>
        <time>2022-03-30T13:54:53Z</time>
      </trkpt>
      <trkpt lat="49.92287" lon="2.45639">
        <ele>81.5</ele>
        <time>2022-03-30T13:54:54Z</time>
      </trkpt>
      <trkpt lat="49.92286" lon="2.45639">
        <ele>81.5</ele>
        <time>2022-03-30T13:54:55Z</time>
      </trkpt>
      <trkpt lat="49.92285" lon="2.45638">
        <ele>81.4</ele>
        <time>2022-03-30T13:54:56Z</time>
      </trkpt>
      <trkpt lat="49.92283" lon="2.45638">
        <ele>81.3</ele>
        <time>2022-03-30T13:54:57Z</time>
      </trkpt>
      <trkpt lat="49.92282" lon="2.45637">
        <ele>81.2</ele>
        <time>2022-03-30T13:54:58Z</time>
      </trkpt>
      <trkpt lat="49.92282" lon="2.45637">
        <ele>81.1</ele>
        <time>2022-03-30T13:54:59Z</time>
      </trkpt>
      <trkpt lat="49.9228" lon="2.45637">
        <ele>81.1</ele>
        <time>2022-03-30T13:55:00Z</time>
      </trkpt>
      <trkpt lat="49.92279" lon="2.45636">
        <ele>81</ele>
        <time>2022-03-30T13:55:01Z</time>
      </trkpt>
      <trkpt lat="49.92278" lon="2.45636">
        <ele>80.9</ele>
        <time>2022-03-30T13:55:02Z</time>
      </trkpt>
      <trkpt lat="49.92278" lon="2.45635">
        <ele>80.8</ele>
        <time>2022-03-30T13:55:03Z</time>
      </trkpt>
      <trkpt lat="49.92277" lon="2.45635">
        <ele>80.7</ele>
        <time>2022-03-30T13:55:04Z</time>
      </trkpt>
      <trkpt lat="49.92276" lon="2.45634">
        <ele>80.6</ele>
        <time>2022-03-30T13:55:05Z</time>
      </trkpt>
      <trkpt lat="49.92274" lon="2.45634">
        <ele>80.5</ele>
        <time>2022-03-30T13:55:06Z</time>
      </trkpt>
      <trkpt lat="49.92273" lon="2.45633">
        <ele>80.4</ele>
        <time>2022-03-30T13:55:07Z</time>
      </trkpt>
      <trkpt lat="49.92272" lon="2.45633">
        <ele>80.3</ele>
        <time>2022-03-30T13:55:08Z</time>
      </trkpt>
      <trkpt lat="49.92271" lon="2.45632">
        <ele>80.2</ele>
        <time>2022-03-30T13:55:09Z</time>
      </trkpt>
      <trkpt lat="49.9227" lon="2.45632">
        <ele>80.1</ele>
        <time>2022-03-30T13:55:10Z</time>
      </trkpt>
      <trkpt lat="49.92269" lon="2.45631">
        <ele>80</ele>
        <time>2022-03-30T13:55:11Z</time>
      </trkpt>
      <trkpt lat="49.92268" lon="2.4563">
        <ele>79.9</ele>
        <time>2022-03-30T13:55:12Z</time>
      </trkpt>
      <trkpt lat="49.92267" lon="2.4563">
        <ele>79.8</ele>
        <time>2022-03-30T13:55:13Z</time>
      </trkpt>
      <trkpt lat="49.92266" lon="2.4563">
        <ele>79.7</ele>
        <time>2022-03-30T13:55:14Z</time>
      </trkpt>
      <trkpt lat="49.92265" lon="2.45629">
        <ele>79.6</ele>
        <time>2022-03-30T13:55:15Z</time>
      </trkpt>
      <trkpt lat="49.92264" lon="2.45629">
        <ele>79.5</ele>
        <time>2022-03-30T13:55:16Z</time>
      </trkpt>
      <trkpt lat="49.92262" lon="2.45628">
        <ele>79.4</ele>
        <time>2022-03-30T13:55:17Z</time>
      </trkpt>
      <trkpt lat="49.9226" lon="2.45628">
        <ele>79.2</ele>
        <time>2022-03-30T13:55:18Z</time>
      </trkpt>
      <trkpt lat="49.92259" lon="2.45627">
        <ele>79.2</ele>
        <time>2022-03-30T13:55:19Z</time>
      </trkpt>
      <trkpt lat="49.92259" lon="2.45627">
        <ele>79.1</ele>
        <time>2022-03-30T13:55:20Z</time>
      </trkpt>
      <trkpt lat="49.92258" lon="2.45626">
        <ele>79</ele>
        <time>2022-03-30T13:55:21Z</time>
      </trkpt>
      <trkpt lat="49.92257" lon="2.45626">
        <ele>78.9</ele>
        <time>2022-03-30T13:55:22Z</time>
      </trkpt>
      <trkpt lat="49.92256" lon="2.45626">
        <ele>78.8</ele>
        <time>2022-03-30T13:55:23Z</time>
      </trkpt>
      <trkpt lat="49.92255" lon="2.45625">
        <ele>78.7</ele>
        <time>2022-03-30T13:55:24Z</time>
      </trkpt>
      <trkpt lat="49.92254" lon="2.45625">
        <ele>78.6</ele>
        <time>2022-03-30T13:55:25Z</time>
      </trkpt>
      <trkpt lat="49.92252" lon="2.45624">
        <ele>78.5</ele>
        <time>2022-03-30T13:55:26Z</time>
      </trkpt>
      <trkpt lat="49.9225" lon="2.45623">
        <ele>78.3</ele>
        <time>2022-03-30T13:55:27Z</time>
      </trkpt>
      <trkpt lat="49.9225" lon="2.45622">
        <ele>78.2</ele>
        <time>2022-03-30T13:55:28Z</time>
      </trkpt>
      <trkpt lat="49.92249" lon="2.45622">
        <ele>78.1</ele>
        <time>2022-03-30T13:55:29Z</time>
      </trkpt>
      <trkpt lat="49.92247" lon="2.4562">
        <ele>77.9</ele>
        <time>2022-03-30T13:55:30Z</time>
      </trkpt>
      <trkpt lat="49.92246" lon="2.4562">
        <ele>77.8</ele>
        <time>2022-03-30T13:55:31Z</time>
      </trkpt>
      <trkpt lat="49.92245" lon="2.45619">
        <ele>77.7</ele>
        <time>2022-03-30T13:55:32Z</time>
      </trkpt>
      <trkpt lat="49.92244" lon="2.45619">
        <ele>77.6</ele>
        <time>2022-03-30T13:55:33Z</time>
      </trkpt>
      <trkpt lat="49.92243" lon="2.45618">
        <ele>77.5</ele>
        <time>2022-03-30T13:55:34Z</time>
      </trkpt>
      <trkpt lat="49.92242" lon="2.45618">
        <ele>77.4</ele>
        <time>2022-03-30T13:55:35Z</time>
      </trkpt>
      <trkpt lat="49.92241" lon="2.45617">
        <ele>77.2</ele>
        <time>2022-03-30T13:55:36Z</time>
      </trkpt>
      <trkpt lat="49.9224" lon="2.45616">
        <ele>77.1</ele>
        <time>2022-03-30T13:55:37Z</time>
      </trkpt>
      <trkpt lat="49.92239" lon="2.45616">
        <ele>77</ele>
        <time>2022-03-30T13:55:38Z</time>
      </trkpt>
      <trkpt lat="49.92238" lon="2.45615">
        <ele>76.9</ele>
        <time>2022-03-30T13:55:39Z</time>
      </trkpt>
      <trkpt lat="49.92238" lon="2.45615">
        <ele>76.8</ele>
        <time>2022-03-30T13:55:40Z</time>
      </trkpt>
      <trkpt lat="49.92237" lon="2.45614">
        <ele>76.8</ele>
        <time>2022-03-30T13:55:41Z</time>
      </trkpt>
      <trkpt lat="49.92236" lon="2.45614">
        <ele>76.6</ele>
        <time>2022-03-30T13:55:42Z</time>
      </trkpt>
      <trkpt lat="49.92234" lon="2.45612">
        <ele>76.4</ele>
        <time>2022-03-30T13:55:43Z</time>
      </trkpt>
      <trkpt lat="49.92233" lon="2.45612">
        <ele>76.3</ele>
        <time>2022-03-30T13:55:44Z</time>
      </trkpt>
      <trkpt lat="49.92232" lon="2.45611">
        <ele>76.2</ele>
        <time>2022-03-30T13:55:45Z</time>
      </trkpt>
      <trkpt lat="49.92231" lon="2.4561">
        <ele>76</ele>
        <time>2022-03-30T13:55:46Z</time>
      </trkpt>
      <trkpt lat="49.9223" lon="2.4561">
        <ele>75.9</ele>
        <time>2022-03-30T13:55:47Z</time>
      </trkpt>
      <trkpt lat="49.92229" lon="2.45609">
        <ele>75.8</ele>
        <time>2022-03-30T13:55:48Z</time>
      </trkpt>
      <trkpt lat="49.92227" lon="2.45608">
        <ele>75.6</ele>
        <time>2022-03-30T13:55:49Z</time>
      </trkpt>
      <trkpt lat="49.92226" lon="2.45607">
        <ele>75.5</ele>
        <time>2022-03-30T13:55:50Z</time>
      </trkpt>
      <trkpt lat="49.92226" lon="2.45607">
        <ele>75.4</ele>
        <time>2022-03-30T13:55:51Z</time>
      </trkpt>
      <trkpt lat="49.92225" lon="2.45606">
        <ele>75.3</ele>
        <time>2022-03-30T13:55:52Z</time>
      </trkpt>
      <trkpt lat="49.92223" lon="2.45605">
        <ele>75.1</ele>
        <time>2022-03-30T13:55:53Z</time>
      </trkpt>
      <trkpt lat="49.92222" lon="2.45605">
        <ele>75</ele>
        <time>2022-03-30T13:55:54Z</time>
      </trkpt>
      <trkpt lat="49.92221" lon="2.45604">
        <ele>74.9</ele>
        <time>2022-03-30T13:55:55Z</time>
      </trkpt>
      <trkpt lat="49.92221" lon="2.45604">
        <ele>74.8</ele>
        <time>2022-03-30T13:55:56Z</time>
      </trkpt>
      <trkpt lat="49.9222" lon="2.45604">
        <ele>74.7</ele>
        <time>2022-03-30T13:55:57Z</time>
      </trkpt>
      <trkpt lat="49.92219" lon="2.45603">
        <ele>74.6</ele>
        <time>2022-03-30T13:55:58Z</time>
      </trkpt>
      <trkpt lat="49.92218" lon="2.45603">
        <ele>74.6</ele>
        <time>2022-03-30T13:55:59Z</time>
      </trkpt>
      <trkpt lat="49.92217" lon="2.45602">
        <ele>74.4</ele>
        <time>2022-03-30T13:56:00Z</time>
      </trkpt>
      <trkpt lat="49.92215" lon="2.45601">
        <ele>74.2</ele>
        <time>2022-03-30T13:56:01Z</time>
      </trkpt>
      <trkpt lat="49.92214" lon="2.45601">
        <ele>74.1</ele>
        <time>2022-03-30T13:56:02Z</time>
      </trkpt>
      <trkpt lat="49.92213" lon="2.456">
        <ele>74</ele>
        <time>2022-03-30T13:56:03Z</time>
      </trkpt>
      <trkpt lat="49.92211" lon="2.45599">
        <ele>73.8</ele>
        <time>2022-03-30T13:56:04Z</time>
      </trkpt>
      <trkpt lat="49.92211" lon="2.45599">
        <ele>73.7</ele>
        <time>2022-03-30T13:56:05Z</time>
      </trkpt>
      <trkpt lat="49.9221" lon="2.45599">
        <ele>73.6</ele>
        <time>2022-03-30T13:56:06Z</time>
      </trkpt>
      <trkpt lat="49.92209" lon="2.45598">
        <ele>73.5</ele>
        <time>2022-03-30T13:56:07Z</time>
      </trkpt>
      <trkpt lat="49.92208" lon="2.45598">
        <ele>73.4</ele>
        <time>2022-03-30T13:56:08Z</time>
      </trkpt>
      <trkpt lat="49.92207" lon="2.45597">
        <ele>73.2</ele>
        <time>2022-03-30T13:56:09Z</time>
      </trkpt>
      <trkpt lat="49.92204" lon="2.45596">
        <ele>73</ele>
        <time>2022-03-30T13:56:10Z</time>
      </trkpt>
      <trkpt lat="49.92204" lon="2.45596">
        <ele>72.9</ele>
        <time>2022-03-30T13:56:11Z</time>
      </trkpt>
      <trkpt lat="49.92203" lon="2.45596">
        <ele>72.8</ele>
        <time>2022-03-30T13:56:12Z</time>
      </trkpt>
      <trkpt lat="49.92202" lon="2.45595">
        <ele>72.7</ele>
        <time>2022-03-30T13:56:13Z</time>
      </trkpt>
      <trkpt lat="49.92201" lon="2.45595">
        <ele>72.6</ele>
        <time>2022-03-30T13:56:14Z</time>
      </trkpt>
      <trkpt lat="49.922" lon="2.45594">
        <ele>72.5</ele>
        <time>2022-03-30T13:56:15Z</time>
      </trkpt>
      <trkpt lat="49.92199" lon="2.45594">
        <ele>72.4</ele>
        <time>2022-03-30T13:56:16Z</time>
      </trkpt>
      <trkpt lat="49.92198" lon="2.45593">
        <ele>72.3</ele>
        <time>2022-03-30T13:56:17Z</time>
      </trkpt>
      <trkpt lat="49.92197" lon="2.45593">
        <ele>72.1</ele>
        <time>2022-03-30T13:56:18Z</time>
      </trkpt>
      <trkpt lat="49.92196" lon="2.45592">
        <ele>72</ele>
        <time>2022-03-30T13:56:19Z</time>
      </trkpt>
      <trkpt lat="49.92195" lon="2.45592">
        <ele>71.9</ele>
        <time>2022-03-30T13:56:20Z</time>
      </trkpt>
      <trkpt lat="49.92194" lon="2.45591">
        <ele>71.7</ele>
        <time>2022-03-30T13:56:21Z</time>
      </trkpt>
      <trkpt lat="49.92193" lon="2.45591">
        <ele>71.6</ele>
        <time>2022-03-30T13:56:22Z</time>
      </trkpt>
      <trkpt lat="49.92192" lon="2.4559">
        <ele>71.5</ele>
        <time>2022-03-30T13:56:23Z</time>
      </trkpt>
      <trkpt lat="49.92191" lon="2.4559">
        <ele>71.4</ele>
        <time>2022-03-30T13:56:24Z</time>
      </trkpt>
      <trkpt lat="49.92189" lon="2.45589">
        <ele>71.1</ele>
        <time>2022-03-30T13:56:25Z</time>
      </trkpt>
      <trkpt lat="49.92188" lon="2.45588">
        <ele>71</ele>
        <time>2022-03-30T13:56:26Z</time>
      </trkpt>
      <trkpt lat="49.92187" lon="2.45588">
        <ele>70.9</ele>
        <time>2022-03-30T13:56:27Z</time>
      </trkpt>
      <trkpt lat="49.92186" lon="2.45588">
        <ele>70.8</ele>
        <time>2022-03-30T13:56:28Z</time>
      </trkpt>
      <trkpt lat="49.92185" lon="2.45587">
        <ele>70.7</ele>
        <time>2022-03-30T13:56:29Z</time>
      </trkpt>
      <trkpt lat="49.92184" lon="2.45586">
        <ele>70.6</ele>
        <time>2022-03-30T13:56:30Z</time>
      </trkpt>
      <trkpt lat="49.92183" lon="2.45586">
        <ele>70.5</ele>
        <time>2022-03-30T13:56:31Z</time>
      </trkpt>
      <trkpt lat="49.92182" lon="2.45586">
        <ele>70.4</ele>
        <time>2022-03-30T13:56:32Z</time>
      </trkpt>
      <trkpt lat="49.92181" lon="2.45585">
        <ele>70.3</ele>
        <time>2022-03-30T13:56:33Z</time>
      </trkpt>
      <trkpt lat="49.92181" lon="2.45585">
        <ele>70.2</ele>
        <time>2022-03-30T13:56:34Z</time>
      </trkpt>
      <trkpt lat="49.92179" lon="2.45584">
        <ele>70</ele>
        <time>2022-03-30T13:56:35Z</time>
      </trkpt>
      <trkpt lat="49.92178" lon="2.45583">
        <ele>69.9</ele>
        <time>2022-03-30T13:56:36Z</time>
      </trkpt>
      <trkpt lat="49.92177" lon="2.45583">
        <ele>69.8</ele>
        <time>2022-03-30T13:56:37Z</time>
      </trkpt>
      <trkpt lat="49.92176" lon="2.45583">
        <ele>69.7</ele>
        <time>2022-03-30T13:56:38Z</time>
      </trkpt>
      <trkpt lat="49.92175" lon="2.45582">
        <ele>69.6</ele>
        <time>2022-03-30T13:56:39Z</time>
      </trkpt>
      <trkpt lat="49.92174" lon="2.45582">
        <ele>69.4</ele>
        <time>2022-03-30T13:56:40Z</time>
      </trkpt>
      <trkpt lat="49.92173" lon="2.45581">
        <ele>69.3</ele>
        <time>2022-03-30T13:56:41Z</time>
      </trkpt>
      <trkpt lat="49.92172" lon="2.45581">
        <ele>69.2</ele>
        <time>2022-03-30T13:56:42Z</time>
      </trkpt>
      <trkpt lat="49.92171" lon="2.4558">
        <ele>69.1</ele>
        <time>2022-03-30T13:56:43Z</time>
      </trkpt>
      <trkpt lat="49.9217" lon="2.4558">
        <ele>69</ele>
        <time>2022-03-30T13:56:44Z</time>
      </trkpt>
      <trkpt lat="49.92169" lon="2.45579">
        <ele>68.9</ele>
        <time>2022-03-30T13:56:45Z</time>
      </trkpt>
      <trkpt lat="49.92168" lon="2.45579">
        <ele>68.8</ele>
        <time>2022-03-30T13:56:46Z</time>
      </trkpt>
      <trkpt lat="49.92167" lon="2.45578">
        <ele>68.7</ele>
        <time>2022-03-30T13:56:47Z</time>
      </trkpt>
      <trkpt lat="49.92166" lon="2.45578">
        <ele>68.6</ele>
        <time>2022-03-30T13:56:48Z</time>
      </trkpt>
      <trkpt lat="49.92166" lon="2.45578">
        <ele>68.5</ele>
        <time>2022-03-30T13:56:49Z</time>
      </trkpt>
      <trkpt lat="49.92165" lon="2.45577">
        <ele>68.4</ele>
        <time>2022-03-30T13:56:50Z</time>
      </trkpt>
      <trkpt lat="49.92164" lon="2.45577">
        <ele>68.3</ele>
        <time>2022-03-30T13:56:51Z</time>
      </trkpt>
      <trkpt lat="49.92163" lon="2.45576">
        <ele>68.2</ele>
        <time>2022-03-30T13:56:52Z</time>
      </trkpt>
      <trkpt lat="49.92162" lon="2.45575">
        <ele>68.1</ele>
        <time>2022-03-30T13:56:53Z</time>
      </trkpt>
      <trkpt lat="49.92161" lon="2.45575">
        <ele>68</ele>
        <time>2022-03-30T13:56:54Z</time>
      </trkpt>
      <trkpt lat="49.9216" lon="2.45575">
        <ele>67.8</ele>
        <time>2022-03-30T13:56:55Z</time>
      </trkpt>
      <trkpt lat="49.92159" lon="2.45574">
        <ele>67.7</ele>
        <time>2022-03-30T13:56:56Z</time>
      </trkpt>
      <trkpt lat="49.92158" lon="2.45573">
        <ele>67.6</ele>
        <time>2022-03-30T13:56:57Z</time>
      </trkpt>
      <trkpt lat="49.92157" lon="2.45573">
        <ele>67.5</ele>
        <time>2022-03-30T13:56:58Z</time>
      </trkpt>
      <trkpt lat="49.92155" lon="2.45572">
        <ele>67.4</ele>
        <time>2022-03-30T13:56:59Z</time>
      </trkpt>
      <trkpt lat="49.92154" lon="2.45572">
        <ele>67.2</ele>
        <time>2022-03-30T13:57:00Z</time>
      </trkpt>
      <trkpt lat="49.92153" lon="2.45571">
        <ele>67.1</ele>
        <time>2022-03-30T13:57:01Z</time>
      </trkpt>
      <trkpt lat="49.92152" lon="2.4557">
        <ele>67</ele>
        <time>2022-03-30T13:57:02Z</time>
      </trkpt>
      <trkpt lat="49.92151" lon="2.4557">
        <ele>66.9</ele>
        <time>2022-03-30T13:57:03Z</time>
      </trkpt>
      <trkpt lat="49.9215" lon="2.45569">
        <ele>66.8</ele>
        <time>2022-03-30T13:57:04Z</time>
      </trkpt>
      <trkpt lat="49.92149" lon="2.45569">
        <ele>66.7</ele>
        <time>2022-03-30T13:57:05Z</time>
      </trkpt>
      <trkpt lat="49.92148" lon="2.45568">
        <ele>66.5</ele>
        <time>2022-03-30T13:57:06Z</time>
      </trkpt>
      <trkpt lat="49.92147" lon="2.45567">
        <ele>66.4</ele>
        <time>2022-03-30T13:57:07Z</time>
      </trkpt>
      <trkpt lat="49.92146" lon="2.45567">
        <ele>66.4</ele>
        <time>2022-03-30T13:57:08Z</time>
      </trkpt>
      <trkpt lat="49.92145" lon="2.45566">
        <ele>66.2</ele>
        <time>2022-03-30T13:57:09Z</time>
      </trkpt>
      <trkpt lat="49.92144" lon="2.45566">
        <ele>66.1</ele>
        <time>2022-03-30T13:57:10Z</time>
      </trkpt>
      <trkpt lat="49.92143" lon="2.45565">
        <ele>66</ele>
        <time>2022-03-30T13:57:11Z</time>
      </trkpt>
      <trkpt lat="49.92142" lon="2.45564">
        <ele>65.9</ele>
        <time>2022-03-30T13:57:12Z</time>
      </trkpt>
      <trkpt lat="49.92141" lon="2.45564">
        <ele>65.8</ele>
        <time>2022-03-30T13:57:13Z</time>
      </trkpt>
      <trkpt lat="49.92139" lon="2.45563">
        <ele>65.7</ele>
        <time>2022-03-30T13:57:14Z</time>
      </trkpt>
      <trkpt lat="49.92138" lon="2.45562">
        <ele>65.6</ele>
        <time>2022-03-30T13:57:15Z</time>
      </trkpt>
      <trkpt lat="49.92138" lon="2.45562">
        <ele>65.5</ele>
        <time>2022-03-30T13:57:16Z</time>
      </trkpt>
      <trkpt lat="49.92137" lon="2.45561">
        <ele>65.4</ele>
        <time>2022-03-30T13:57:17Z</time>
      </trkpt>
      <trkpt lat="49.92136" lon="2.45561">
        <ele>65.3</ele>
        <time>2022-03-30T13:57:18Z</time>
      </trkpt>
      <trkpt lat="49.92135" lon="2.4556">
        <ele>65.2</ele>
        <time>2022-03-30T13:57:19Z</time>
      </trkpt>
      <trkpt lat="49.92134" lon="2.45559">
        <ele>65.1</ele>
        <time>2022-03-30T13:57:20Z</time>
      </trkpt>
      <trkpt lat="49.92133" lon="2.45559">
        <ele>65</ele>
        <time>2022-03-30T13:57:21Z</time>
      </trkpt>
      <trkpt lat="49.92132" lon="2.45558">
        <ele>64.9</ele>
        <time>2022-03-30T13:57:22Z</time>
      </trkpt>
      <trkpt lat="49.92131" lon="2.45558">
        <ele>64.8</ele>
        <time>2022-03-30T13:57:23Z</time>
      </trkpt>
      <trkpt lat="49.9213" lon="2.45558">
        <ele>64.7</ele>
        <time>2022-03-30T13:57:24Z</time>
      </trkpt>
      <trkpt lat="49.92129" lon="2.45557">
        <ele>64.6</ele>
        <time>2022-03-30T13:57:25Z</time>
      </trkpt>
      <trkpt lat="49.92128" lon="2.45557">
        <ele>64.5</ele>
        <time>2022-03-30T13:57:26Z</time>
      </trkpt>
      <trkpt lat="49.92127" lon="2.45556">
        <ele>64.4</ele>
        <time>2022-03-30T13:57:27Z</time>
      </trkpt>
      <trkpt lat="49.92126" lon="2.45555">
        <ele>64.3</ele>
        <time>2022-03-30T13:57:28Z</time>
      </trkpt>
      <trkpt lat="49.92125" lon="2.45555">
        <ele>64.2</ele>
        <time>2022-03-30T13:57:29Z</time>
      </trkpt>
      <trkpt lat="49.92124" lon="2.45554">
        <ele>64.1</ele>
        <time>2022-03-30T13:57:30Z</time>
      </trkpt>
      <trkpt lat="49.92123" lon="2.45554">
        <ele>64</ele>
        <time>2022-03-30T13:57:31Z</time>
      </trkpt>
      <trkpt lat="49.92122" lon="2.45553">
        <ele>63.9</ele>
        <time>2022-03-30T13:57:32Z</time>
      </trkpt>
      <trkpt lat="49.92121" lon="2.45553">
        <ele>63.8</ele>
        <time>2022-03-30T13:57:33Z</time>
      </trkpt>
      <trkpt lat="49.9212" lon="2.45552">
        <ele>63.7</ele>
        <time>2022-03-30T13:57:34Z</time>
      </trkpt>
      <trkpt lat="49.9212" lon="2.45552">
        <ele>63.7</ele>
        <time>2022-03-30T13:57:35Z</time>
      </trkpt>
      <trkpt lat="49.92119" lon="2.45551">
        <ele>63.6</ele>
        <time>2022-03-30T13:57:36Z</time>
      </trkpt>
      <trkpt lat="49.92117" lon="2.4555">
        <ele>63.4</ele>
        <time>2022-03-30T13:57:37Z</time>
      </trkpt>
      <trkpt lat="49.92116" lon="2.45549">
        <ele>63.3</ele>
        <time>2022-03-30T13:57:38Z</time>
      </trkpt>
      <trkpt lat="49.92115" lon="2.45549">
        <ele>63.2</ele>
        <time>2022-03-30T13:57:39Z</time>
      </trkpt>
      <trkpt lat="49.92114" lon="2.45549">
        <ele>63.1</ele>
        <time>2022-03-30T13:57:40Z</time>
      </trkpt>
      <trkpt lat="49.92113" lon="2.45548">
        <ele>63</ele>
        <time>2022-03-30T13:57:41Z</time>
      </trkpt>
      <trkpt lat="49.92112" lon="2.45547">
        <ele>62.9</ele>
        <time>2022-03-30T13:57:42Z</time>
      </trkpt>
      <trkpt lat="49.9211" lon="2.45546">
        <ele>62.7</ele>
        <time>2022-03-30T13:57:43Z</time>
      </trkpt>
      <trkpt lat="49.92109" lon="2.45546">
        <ele>62.6</ele>
        <time>2022-03-30T13:57:44Z</time>
      </trkpt>
      <trkpt lat="49.92108" lon="2.45545">
        <ele>62.6</ele>
        <time>2022-03-30T13:57:45Z</time>
      </trkpt>
      <trkpt lat="49.92107" lon="2.45545">
        <ele>62.5</ele>
        <time>2022-03-30T13:57:46Z</time>
      </trkpt>
      <trkpt lat="49.92106" lon="2.45544">
        <ele>62.4</ele>
        <time>2022-03-30T13:57:47Z</time>
      </trkpt>
      <trkpt lat="49.92105" lon="2.45543">
        <ele>62.3</ele>
        <time>2022-03-30T13:57:48Z</time>
      </trkpt>
      <trkpt lat="49.92103" lon="2.45543">
        <ele>62.2</ele>
        <time>2022-03-30T13:57:49Z</time>
      </trkpt>
      <trkpt lat="49.92103" lon="2.45542">
        <ele>62.1</ele>
        <time>2022-03-30T13:57:50Z</time>
      </trkpt>
      <trkpt lat="49.92102" lon="2.45542">
        <ele>62</ele>
        <time>2022-03-30T13:57:51Z</time>
      </trkpt>
      <trkpt lat="49.92101" lon="2.45541">
        <ele>62</ele>
        <time>2022-03-30T13:57:52Z</time>
      </trkpt>
      <trkpt lat="49.92099" lon="2.45541">
        <ele>61.8</ele>
        <time>2022-03-30T13:57:53Z</time>
      </trkpt>
      <trkpt lat="49.92098" lon="2.4554">
        <ele>61.7</ele>
        <time>2022-03-30T13:57:54Z</time>
      </trkpt>
      <trkpt lat="49.92098" lon="2.4554">
        <ele>61.7</ele>
        <time>2022-03-30T13:57:55Z</time>
      </trkpt>
      <trkpt lat="49.92096" lon="2.45539">
        <ele>61.5</ele>
        <time>2022-03-30T13:57:56Z</time>
      </trkpt>
      <trkpt lat="49.92095" lon="2.45539">
        <ele>61.5</ele>
        <time>2022-03-30T13:57:57Z</time>
      </trkpt>
      <trkpt lat="49.92094" lon="2.45538">
        <ele>61.4</ele>
        <time>2022-03-30T13:57:58Z</time>
      </trkpt>
      <trkpt lat="49.92093" lon="2.45537">
        <ele>61.3</ele>
        <time>2022-03-30T13:57:59Z</time>
      </trkpt>
      <trkpt lat="49.92091" lon="2.45537">
        <ele>61.2</ele>
        <time>2022-03-30T13:58:00Z</time>
      </trkpt>
      <trkpt lat="49.92089" lon="2.45536">
        <ele>61</ele>
        <time>2022-03-30T13:58:01Z</time>
      </trkpt>
      <trkpt lat="49.92089" lon="2.45535">
        <ele>61</ele>
        <time>2022-03-30T13:58:02Z</time>
      </trkpt>
      <trkpt lat="49.92088" lon="2.45535">
        <ele>60.9</ele>
        <time>2022-03-30T13:58:03Z</time>
      </trkpt>
      <trkpt lat="49.92087" lon="2.45534">
        <ele>60.8</ele>
        <time>2022-03-30T13:58:04Z</time>
      </trkpt>
      <trkpt lat="49.92086" lon="2.45533">
        <ele>60.8</ele>
        <time>2022-03-30T13:58:05Z</time>
      </trkpt>
      <trkpt lat="49.92085" lon="2.45533">
        <ele>60.7</ele>
        <time>2022-03-30T13:58:06Z</time>
      </trkpt>
      <trkpt lat="49.92084" lon="2.45532">
        <ele>60.6</ele>
        <time>2022-03-30T13:58:07Z</time>
      </trkpt>
      <trkpt lat="49.92083" lon="2.45531">
        <ele>60.5</ele>
        <time>2022-03-30T13:58:08Z</time>
      </trkpt>
      <trkpt lat="49.92082" lon="2.45531">
        <ele>60.4</ele>
        <time>2022-03-30T13:58:09Z</time>
      </trkpt>
      <trkpt lat="49.92081" lon="2.4553">
        <ele>60.4</ele>
        <time>2022-03-30T13:58:10Z</time>
      </trkpt>
      <trkpt lat="49.9208" lon="2.45529">
        <ele>60.3</ele>
        <time>2022-03-30T13:58:11Z</time>
      </trkpt>
      <trkpt lat="49.92079" lon="2.45529">
        <ele>60.2</ele>
        <time>2022-03-30T13:58:12Z</time>
      </trkpt>
      <trkpt lat="49.92078" lon="2.45529">
        <ele>60.1</ele>
        <time>2022-03-30T13:58:13Z</time>
      </trkpt>
      <trkpt lat="49.92077" lon="2.45528">
        <ele>60.1</ele>
        <time>2022-03-30T13:58:14Z</time>
      </trkpt>
      <trkpt lat="49.92076" lon="2.45528">
        <ele>60</ele>
        <time>2022-03-30T13:58:15Z</time>
      </trkpt>
      <trkpt lat="49.92074" lon="2.45528">
        <ele>59.9</ele>
        <time>2022-03-30T13:58:16Z</time>
      </trkpt>
      <trkpt lat="49.92073" lon="2.45527">
        <ele>59.8</ele>
        <time>2022-03-30T13:58:17Z</time>
      </trkpt>
      <trkpt lat="49.92072" lon="2.45527">
        <ele>59.7</ele>
        <time>2022-03-30T13:58:18Z</time>
      </trkpt>
      <trkpt lat="49.92071" lon="2.45526">
        <ele>59.6</ele>
        <time>2022-03-30T13:58:19Z</time>
      </trkpt>
      <trkpt lat="49.9207" lon="2.45525">
        <ele>59.6</ele>
        <time>2022-03-30T13:58:20Z</time>
      </trkpt>
      <trkpt lat="49.92069" lon="2.45525">
        <ele>59.5</ele>
        <time>2022-03-30T13:58:21Z</time>
      </trkpt>
      <trkpt lat="49.92069" lon="2.45525">
        <ele>59.5</ele>
        <time>2022-03-30T13:58:22Z</time>
      </trkpt>
      <trkpt lat="49.92068" lon="2.45524">
        <ele>59.4</ele>
        <time>2022-03-30T13:58:23Z</time>
      </trkpt>
      <trkpt lat="49.92067" lon="2.45523">
        <ele>59.4</ele>
        <time>2022-03-30T13:58:24Z</time>
      </trkpt>
      <trkpt lat="49.92065" lon="2.45523">
        <ele>59.3</ele>
        <time>2022-03-30T13:58:25Z</time>
      </trkpt>
      <trkpt lat="49.92063" lon="2.45522">
        <ele>59.2</ele>
        <time>2022-03-30T13:58:26Z</time>
      </trkpt>
      <trkpt lat="49.92063" lon="2.45521">
        <ele>59.1</ele>
        <time>2022-03-30T13:58:27Z</time>
      </trkpt>
      <trkpt lat="49.92062" lon="2.45521">
        <ele>59</ele>
        <time>2022-03-30T13:58:28Z</time>
      </trkpt>
      <trkpt lat="49.9206" lon="2.4552">
        <ele>58.9</ele>
        <time>2022-03-30T13:58:29Z</time>
      </trkpt>
      <trkpt lat="49.92059" lon="2.4552">
        <ele>58.9</ele>
        <time>2022-03-30T13:58:30Z</time>
      </trkpt>
      <trkpt lat="49.92058" lon="2.45519">
        <ele>58.8</ele>
        <time>2022-03-30T13:58:31Z</time>
      </trkpt>
      <trkpt lat="49.92056" lon="2.45518">
        <ele>58.7</ele>
        <time>2022-03-30T13:58:32Z</time>
      </trkpt>
      <trkpt lat="49.92055" lon="2.45518">
        <ele>58.7</ele>
        <time>2022-03-30T13:58:33Z</time>
      </trkpt>
      <trkpt lat="49.92054" lon="2.45518">
        <ele>58.6</ele>
        <time>2022-03-30T13:58:34Z</time>
      </trkpt>
      <trkpt lat="49.92052" lon="2.45517">
        <ele>58.5</ele>
        <time>2022-03-30T13:58:35Z</time>
      </trkpt>
      <trkpt lat="49.92051" lon="2.45517">
        <ele>58.5</ele>
        <time>2022-03-30T13:58:36Z</time>
      </trkpt>
      <trkpt lat="49.92051" lon="2.45516">
        <ele>58.4</ele>
        <time>2022-03-30T13:58:37Z</time>
      </trkpt>
      <trkpt lat="49.92049" lon="2.45516">
        <ele>58.4</ele>
        <time>2022-03-30T13:58:38Z</time>
      </trkpt>
      <trkpt lat="49.92049" lon="2.45516">
        <ele>58.3</ele>
        <time>2022-03-30T13:58:39Z</time>
      </trkpt>
      <trkpt lat="49.92048" lon="2.45515">
        <ele>58.3</ele>
        <time>2022-03-30T13:58:40Z</time>
      </trkpt>
      <trkpt lat="49.92047" lon="2.45515">
        <ele>58.2</ele>
        <time>2022-03-30T13:58:41Z</time>
      </trkpt>
      <trkpt lat="49.92046" lon="2.45515">
        <ele>58.2</ele>
        <time>2022-03-30T13:58:42Z</time>
      </trkpt>
      <trkpt lat="49.92045" lon="2.45514">
        <ele>58.1</ele>
        <time>2022-03-30T13:58:43Z</time>
      </trkpt>
      <trkpt lat="49.92043" lon="2.45514">
        <ele>58</ele>
        <time>2022-03-30T13:58:44Z</time>
      </trkpt>
      <trkpt lat="49.92042" lon="2.45513">
        <ele>58</ele>
        <time>2022-03-30T13:58:45Z</time>
      </trkpt>
      <trkpt lat="49.9204" lon="2.45512">
        <ele>57.9</ele>
        <time>2022-03-30T13:58:46Z</time>
      </trkpt>
      <trkpt lat="49.92039" lon="2.45512">
        <ele>57.8</ele>
        <time>2022-03-30T13:58:47Z</time>
      </trkpt>
      <trkpt lat="49.92038" lon="2.45512">
        <ele>57.8</ele>
        <time>2022-03-30T13:58:48Z</time>
      </trkpt>
      <trkpt lat="49.92036" lon="2.45511">
        <ele>57.7</ele>
        <time>2022-03-30T13:58:49Z</time>
      </trkpt>
      <trkpt lat="49.92035" lon="2.45511">
        <ele>57.6</ele>
        <time>2022-03-30T13:58:50Z</time>
      </trkpt>
      <trkpt lat="49.92035" lon="2.4551">
        <ele>57.6</ele>
        <time>2022-03-30T13:58:51Z</time>
      </trkpt>
      <trkpt lat="49.92033" lon="2.4551">
        <ele>57.5</ele>
        <time>2022-03-30T13:58:52Z</time>
      </trkpt>
      <trkpt lat="49.92032" lon="2.45509">
        <ele>57.4</ele>
        <time>2022-03-30T13:58:53Z</time>
      </trkpt>
      <trkpt lat="49.92031" lon="2.45509">
        <ele>57.4</ele>
        <time>2022-03-30T13:58:54Z</time>
      </trkpt>
      <trkpt lat="49.9203" lon="2.45508">
        <ele>57.3</ele>
        <time>2022-03-30T13:58:55Z</time>
      </trkpt>
      <trkpt lat="49.92028" lon="2.45507">
        <ele>57.2</ele>
        <time>2022-03-30T13:58:56Z</time>
      </trkpt>
      <trkpt lat="49.92027" lon="2.45507">
        <ele>57.2</ele>
        <time>2022-03-30T13:58:57Z</time>
      </trkpt>
      <trkpt lat="49.92026" lon="2.45506">
        <ele>57.1</ele>
        <time>2022-03-30T13:58:58Z</time>
      </trkpt>
      <trkpt lat="49.92025" lon="2.45506">
        <ele>57.1</ele>
        <time>2022-03-30T13:58:59Z</time>
      </trkpt>
      <trkpt lat="49.92024" lon="2.45506">
        <ele>57</ele>
        <time>2022-03-30T13:59:00Z</time>
      </trkpt>
      <trkpt lat="49.92023" lon="2.45505">
        <ele>57</ele>
        <time>2022-03-30T13:59:01Z</time>
      </trkpt>
      <trkpt lat="49.92022" lon="2.45505">
        <ele>56.9</ele>
        <time>2022-03-30T13:59:02Z</time>
      </trkpt>
      <trkpt lat="49.9202" lon="2.45504">
        <ele>56.8</ele>
        <time>2022-03-30T13:59:03Z</time>
      </trkpt>
      <trkpt lat="49.92019" lon="2.45504">
        <ele>56.8</ele>
        <time>2022-03-30T13:59:04Z</time>
      </trkpt>
      <trkpt lat="49.92019" lon="2.45503">
        <ele>56.7</ele>
        <time>2022-03-30T13:59:05Z</time>
      </trkpt>
      <trkpt lat="49.92017" lon="2.45503">
        <ele>56.7</ele>
        <time>2022-03-30T13:59:06Z</time>
      </trkpt>
      <trkpt lat="49.92016" lon="2.45502">
        <ele>56.6</ele>
        <time>2022-03-30T13:59:07Z</time>
      </trkpt>
      <trkpt lat="49.92015" lon="2.45502">
        <ele>56.6</ele>
        <time>2022-03-30T13:59:08Z</time>
      </trkpt>
      <trkpt lat="49.92014" lon="2.45501">
        <ele>56.5</ele>
        <time>2022-03-30T13:59:09Z</time>
      </trkpt>
      <trkpt lat="49.92013" lon="2.45501">
        <ele>56.5</ele>
        <time>2022-03-30T13:59:10Z</time>
      </trkpt>
      <trkpt lat="49.92012" lon="2.455">
        <ele>56.4</ele>
        <time>2022-03-30T13:59:11Z</time>
      </trkpt>
      <trkpt lat="49.92011" lon="2.455">
        <ele>56.4</ele>
        <time>2022-03-30T13:59:12Z</time>
      </trkpt>
      <trkpt lat="49.9201" lon="2.45499">
        <ele>56.4</ele>
        <time>2022-03-30T13:59:13Z</time>
      </trkpt>
      <trkpt lat="49.92009" lon="2.45499">
        <ele>56.3</ele>
        <time>2022-03-30T13:59:14Z</time>
      </trkpt>
      <trkpt lat="49.92008" lon="2.45498">
        <ele>56.3</ele>
        <time>2022-03-30T13:59:15Z</time>
      </trkpt>
      <trkpt lat="49.92007" lon="2.45498">
        <ele>56.2</ele>
        <time>2022-03-30T13:59:16Z</time>
      </trkpt>
      <trkpt lat="49.92007" lon="2.45498">
        <ele>56.2</ele>
        <time>2022-03-30T13:59:17Z</time>
      </trkpt>
      <trkpt lat="49.92006" lon="2.45497">
        <ele>56.2</ele>
        <time>2022-03-30T13:59:18Z</time>
      </trkpt>
      <trkpt lat="49.92004" lon="2.45496">
        <ele>56.1</ele>
        <time>2022-03-30T13:59:19Z</time>
      </trkpt>
      <trkpt lat="49.92003" lon="2.45496">
        <ele>56.1</ele>
        <time>2022-03-30T13:59:20Z</time>
      </trkpt>
      <trkpt lat="49.92002" lon="2.45496">
        <ele>56.1</ele>
        <time>2022-03-30T13:59:21Z</time>
      </trkpt>
      <trkpt lat="49.92" lon="2.45495">
        <ele>56</ele>
        <time>2022-03-30T13:59:22Z</time>
      </trkpt>
      <trkpt lat="49.91999" lon="2.45495">
        <ele>56</ele>
        <time>2022-03-30T13:59:23Z</time>
      </trkpt>
      <trkpt lat="49.91999" lon="2.45494">
        <ele>56</ele>
        <time>2022-03-30T13:59:24Z</time>
      </trkpt>
      <trkpt lat="49.91997" lon="2.45494">
        <ele>55.9</ele>
        <time>2022-03-30T13:59:25Z</time>
      </trkpt>
      <trkpt lat="49.91996" lon="2.45493">
        <ele>55.9</ele>
        <time>2022-03-30T13:59:26Z</time>
      </trkpt>
      <trkpt lat="49.91995" lon="2.45493">
        <ele>55.9</ele>
        <time>2022-03-30T13:59:27Z</time>
      </trkpt>
      <trkpt lat="49.91993" lon="2.45492">
        <ele>55.8</ele>
        <time>2022-03-30T13:59:28Z</time>
      </trkpt>
      <trkpt lat="49.91992" lon="2.45492">
        <ele>55.8</ele>
        <time>2022-03-30T13:59:29Z</time>
      </trkpt>
      <trkpt lat="49.91992" lon="2.45491">
        <ele>55.8</ele>
        <time>2022-03-30T13:59:30Z</time>
      </trkpt>
      <trkpt lat="49.9199" lon="2.45491">
        <ele>55.7</ele>
        <time>2022-03-30T13:59:31Z</time>
      </trkpt>
      <trkpt lat="49.91989" lon="2.4549">
        <ele>55.7</ele>
        <time>2022-03-30T13:59:32Z</time>
      </trkpt>
      <trkpt lat="49.91987" lon="2.4549">
        <ele>55.7</ele>
        <time>2022-03-30T13:59:33Z</time>
      </trkpt>
      <trkpt lat="49.91986" lon="2.45489">
        <ele>55.6</ele>
        <time>2022-03-30T13:59:34Z</time>
      </trkpt>
      <trkpt lat="49.91985" lon="2.45489">
        <ele>55.6</ele>
        <time>2022-03-30T13:59:35Z</time>
      </trkpt>
      <trkpt lat="49.91984" lon="2.45489">
        <ele>55.6</ele>
        <time>2022-03-30T13:59:36Z</time>
      </trkpt>
      <trkpt lat="49.91983" lon="2.45488">
        <ele>55.6</ele>
        <time>2022-03-30T13:59:37Z</time>
      </trkpt>
      <trkpt lat="49.91982" lon="2.45488">
        <ele>55.5</ele>
        <time>2022-03-30T13:59:38Z</time>
      </trkpt>
      <trkpt lat="49.91981" lon="2.45487">
        <ele>55.5</ele>
        <time>2022-03-30T13:59:39Z</time>
      </trkpt>
      <trkpt lat="49.9198" lon="2.45487">
        <ele>55.5</ele>
        <time>2022-03-30T13:59:40Z</time>
      </trkpt>
      <trkpt lat="49.91979" lon="2.45486">
        <ele>55.4</ele>
        <time>2022-03-30T13:59:41Z</time>
      </trkpt>
      <trkpt lat="49.91978" lon="2.45486">
        <ele>55.4</ele>
        <time>2022-03-30T13:59:42Z</time>
      </trkpt>
      <trkpt lat="49.91977" lon="2.45485">
        <ele>55.4</ele>
        <time>2022-03-30T13:59:43Z</time>
      </trkpt>
      <trkpt lat="49.91975" lon="2.45484">
        <ele>55.3</ele>
        <time>2022-03-30T13:59:44Z</time>
      </trkpt>
      <trkpt lat="49.91974" lon="2.45484">
        <ele>55.3</ele>
        <time>2022-03-30T13:59:45Z</time>
      </trkpt>
      <trkpt lat="49.91973" lon="2.45484">
        <ele>55.3</ele>
        <time>2022-03-30T13:59:46Z</time>
      </trkpt>
      <trkpt lat="49.91972" lon="2.45483">
        <ele>55.2</ele>
        <time>2022-03-30T13:59:47Z</time>
      </trkpt>
      <trkpt lat="49.91971" lon="2.45483">
        <ele>55.2</ele>
        <time>2022-03-30T13:59:48Z</time>
      </trkpt>
      <trkpt lat="49.9197" lon="2.45483">
        <ele>55.2</ele>
        <time>2022-03-30T13:59:49Z</time>
      </trkpt>
      <trkpt lat="49.91968" lon="2.45482">
        <ele>55.1</ele>
        <time>2022-03-30T13:59:50Z</time>
      </trkpt>
      <trkpt lat="49.91967" lon="2.45482">
        <ele>55.2</ele>
        <time>2022-03-30T13:59:51Z</time>
      </trkpt>
      <trkpt lat="49.91966" lon="2.45481">
        <ele>55.2</ele>
        <time>2022-03-30T13:59:52Z</time>
      </trkpt>
      <trkpt lat="49.91965" lon="2.45481">
        <ele>55.2</ele>
        <time>2022-03-30T13:59:53Z</time>
      </trkpt>
      <trkpt lat="49.91964" lon="2.45481">
        <ele>55.1</ele>
        <time>2022-03-30T13:59:54Z</time>
      </trkpt>
      <trkpt lat="49.91963" lon="2.4548">
        <ele>55.1</ele>
        <time>2022-03-30T13:59:55Z</time>
      </trkpt>
      <trkpt lat="49.91961" lon="2.4548">
        <ele>55.1</ele>
        <time>2022-03-30T13:59:56Z</time>
      </trkpt>
      <trkpt lat="49.91961" lon="2.45479">
        <ele>55.1</ele>
        <time>2022-03-30T13:59:57Z</time>
      </trkpt>
      <trkpt lat="49.9196" lon="2.45479">
        <ele>55.1</ele>
        <time>2022-03-30T13:59:58Z</time>
      </trkpt>
      <trkpt lat="49.91959" lon="2.45479">
        <ele>55</ele>
        <time>2022-03-30T13:59:59Z</time>
      </trkpt>
      <trkpt lat="49.91958" lon="2.45478">
        <ele>55</ele>
        <time>2022-03-30T14:00:00Z</time>
      </trkpt>
      <trkpt lat="49.91957" lon="2.45478">
        <ele>55</ele>
        <time>2022-03-30T14:00:01Z</time>
      </trkpt>
      <trkpt lat="49.91956" lon="2.45477">
        <ele>55</ele>
        <time>2022-03-30T14:00:02Z</time>
      </trkpt>
      <trkpt lat="49.91954" lon="2.45476">
        <ele>54.9</ele>
        <time>2022-03-30T14:00:03Z</time>
      </trkpt>
      <trkpt lat="49.91953" lon="2.45476">
        <ele>54.9</ele>
        <time>2022-03-30T14:00:04Z</time>
      </trkpt>
      <trkpt lat="49.91952" lon="2.45475">
        <ele>54.9</ele>
        <time>2022-03-30T14:00:05Z</time>
      </trkpt>
      <trkpt lat="49.91951" lon="2.45475">
        <ele>54.8</ele>
        <time>2022-03-30T14:00:06Z</time>
      </trkpt>
      <trkpt lat="49.9195" lon="2.45474">
        <ele>54.8</ele>
        <time>2022-03-30T14:00:07Z</time>
      </trkpt>
      <trkpt lat="49.91949" lon="2.45474">
        <ele>54.8</ele>
        <time>2022-03-30T14:00:08Z</time>
      </trkpt>
      <trkpt lat="49.91947" lon="2.45473">
        <ele>54.7</ele>
        <time>2022-03-30T14:00:09Z</time>
      </trkpt>
      <trkpt lat="49.91946" lon="2.45472">
        <ele>54.7</ele>
        <time>2022-03-30T14:00:10Z</time>
      </trkpt>
      <trkpt lat="49.91945" lon="2.45472">
        <ele>54.7</ele>
        <time>2022-03-30T14:00:11Z</time>
      </trkpt>
      <trkpt lat="49.91943" lon="2.45471">
        <ele>54.6</ele>
        <time>2022-03-30T14:00:12Z</time>
      </trkpt>
      <trkpt lat="49.91943" lon="2.45471">
        <ele>54.6</ele>
        <time>2022-03-30T14:00:13Z</time>
      </trkpt>
      <trkpt lat="49.91942" lon="2.4547">
        <ele>54.6</ele>
        <time>2022-03-30T14:00:14Z</time>
      </trkpt>
      <trkpt lat="49.91941" lon="2.4547">
        <ele>54.6</ele>
        <time>2022-03-30T14:00:15Z</time>
      </trkpt>
      <trkpt lat="49.9194" lon="2.45469">
        <ele>54.6</ele>
        <time>2022-03-30T14:00:16Z</time>
      </trkpt>
      <trkpt lat="49.91939" lon="2.45469">
        <ele>54.6</ele>
        <time>2022-03-30T14:00:17Z</time>
      </trkpt>
      <trkpt lat="49.91937" lon="2.45468">
        <ele>54.5</ele>
        <time>2022-03-30T14:00:18Z</time>
      </trkpt>
      <trkpt lat="49.91936" lon="2.45467">
        <ele>54.5</ele>
        <time>2022-03-30T14:00:19Z</time>
      </trkpt>
      <trkpt lat="49.91934" lon="2.45466">
        <ele>54.4</ele>
        <time>2022-03-30T14:00:20Z</time>
      </trkpt>
      <trkpt lat="49.91933" lon="2.45466">
        <ele>54.4</ele>
        <time>2022-03-30T14:00:21Z</time>
      </trkpt>
      <trkpt lat="49.91932" lon="2.45466">
        <ele>54.4</ele>
        <time>2022-03-30T14:00:22Z</time>
      </trkpt>
      <trkpt lat="49.9193" lon="2.45465">
        <ele>54.4</ele>
        <time>2022-03-30T14:00:23Z</time>
      </trkpt>
      <trkpt lat="49.91929" lon="2.45464">
        <ele>54.3</ele>
        <time>2022-03-30T14:00:24Z</time>
      </trkpt>
      <trkpt lat="49.91929" lon="2.45464">
        <ele>54.3</ele>
        <time>2022-03-30T14:00:25Z</time>
      </trkpt>
      <trkpt lat="49.91927" lon="2.45463">
        <ele>54.3</ele>
        <time>2022-03-30T14:00:26Z</time>
      </trkpt>
      <trkpt lat="49.91926" lon="2.45463">
        <ele>54.2</ele>
        <time>2022-03-30T14:00:27Z</time>
      </trkpt>
      <trkpt lat="49.91925" lon="2.45462">
        <ele>54.2</ele>
        <time>2022-03-30T14:00:28Z</time>
      </trkpt>
      <trkpt lat="49.91923" lon="2.45462">
        <ele>54.2</ele>
        <time>2022-03-30T14:00:29Z</time>
      </trkpt>
      <trkpt lat="49.91922" lon="2.45461">
        <ele>54.2</ele>
        <time>2022-03-30T14:00:30Z</time>
      </trkpt>
      <trkpt lat="49.91921" lon="2.45461">
        <ele>54.1</ele>
        <time>2022-03-30T14:00:31Z</time>
      </trkpt>
      <trkpt lat="49.9192" lon="2.45461">
        <ele>54.1</ele>
        <time>2022-03-30T14:00:32Z</time>
      </trkpt>
      <trkpt lat="49.91919" lon="2.4546">
        <ele>54.1</ele>
        <time>2022-03-30T14:00:33Z</time>
      </trkpt>
      <trkpt lat="49.91918" lon="2.4546">
        <ele>54.1</ele>
        <time>2022-03-30T14:00:34Z</time>
      </trkpt>
      <trkpt lat="49.91917" lon="2.4546">
        <ele>54.1</ele>
        <time>2022-03-30T14:00:35Z</time>
      </trkpt>
      <trkpt lat="49.91916" lon="2.45459">
        <ele>54</ele>
        <time>2022-03-30T14:00:36Z</time>
      </trkpt>
      <trkpt lat="49.91915" lon="2.45459">
        <ele>54</ele>
        <time>2022-03-30T14:00:37Z</time>
      </trkpt>
      <trkpt lat="49.91914" lon="2.45459">
        <ele>54</ele>
        <time>2022-03-30T14:00:38Z</time>
      </trkpt>
      <trkpt lat="49.91912" lon="2.45458">
        <ele>54</ele>
        <time>2022-03-30T14:00:39Z</time>
      </trkpt>
      <trkpt lat="49.91912" lon="2.45457">
        <ele>53.9</ele>
        <time>2022-03-30T14:00:40Z</time>
      </trkpt>
      <trkpt lat="49.91911" lon="2.45457">
        <ele>53.9</ele>
        <time>2022-03-30T14:00:41Z</time>
      </trkpt>
      <trkpt lat="49.9191" lon="2.45456">
        <ele>53.9</ele>
        <time>2022-03-30T14:00:42Z</time>
      </trkpt>
      <trkpt lat="49.91909" lon="2.45455">
        <ele>53.9</ele>
        <time>2022-03-30T14:00:43Z</time>
      </trkpt>
      <trkpt lat="49.91908" lon="2.45455">
        <ele>53.8</ele>
        <time>2022-03-30T14:00:44Z</time>
      </trkpt>
      <trkpt lat="49.91907" lon="2.45454">
        <ele>53.8</ele>
        <time>2022-03-30T14:00:45Z</time>
      </trkpt>
      <trkpt lat="49.91906" lon="2.45454">
        <ele>53.8</ele>
        <time>2022-03-30T14:00:46Z</time>
      </trkpt>
      <trkpt lat="49.91904" lon="2.45453">
        <ele>53.8</ele>
        <time>2022-03-30T14:00:47Z</time>
      </trkpt>
      <trkpt lat="49.91903" lon="2.45453">
        <ele>53.7</ele>
        <time>2022-03-30T14:00:48Z</time>
      </trkpt>
      <trkpt lat="49.91902" lon="2.45452">
        <ele>53.7</ele>
        <time>2022-03-30T14:00:49Z</time>
      </trkpt>
      <trkpt lat="49.91901" lon="2.45452">
        <ele>53.7</ele>
        <time>2022-03-30T14:00:50Z</time>
      </trkpt>
      <trkpt lat="49.919" lon="2.45452">
        <ele>53.7</ele>
        <time>2022-03-30T14:00:51Z</time>
      </trkpt>
      <trkpt lat="49.91899" lon="2.45451">
        <ele>53.7</ele>
        <time>2022-03-30T14:00:52Z</time>
      </trkpt>
      <trkpt lat="49.91898" lon="2.45451">
        <ele>53.6</ele>
        <time>2022-03-30T14:00:53Z</time>
      </trkpt>
      <trkpt lat="49.91896" lon="2.4545">
        <ele>53.6</ele>
        <time>2022-03-30T14:00:54Z</time>
      </trkpt>
      <trkpt lat="49.91895" lon="2.45449">
        <ele>53.6</ele>
        <time>2022-03-30T14:00:55Z</time>
      </trkpt>
      <trkpt lat="49.91894" lon="2.45449">
        <ele>53.6</ele>
        <time>2022-03-30T14:00:56Z</time>
      </trkpt>
      <trkpt lat="49.91893" lon="2.45448">
        <ele>53.5</ele>
        <time>2022-03-30T14:00:57Z</time>
      </trkpt>
      <trkpt lat="49.91892" lon="2.45448">
        <ele>53.5</ele>
        <time>2022-03-30T14:00:58Z</time>
      </trkpt>
      <trkpt lat="49.91891" lon="2.45447">
        <ele>53.5</ele>
        <time>2022-03-30T14:00:59Z</time>
      </trkpt>
      <trkpt lat="49.9189" lon="2.45447">
        <ele>53.5</ele>
        <time>2022-03-30T14:01:00Z</time>
      </trkpt>
      <trkpt lat="49.91889" lon="2.45447">
        <ele>53.5</ele>
        <time>2022-03-30T14:01:01Z</time>
      </trkpt>
      <trkpt lat="49.91888" lon="2.45446">
        <ele>53.4</ele>
        <time>2022-03-30T14:01:02Z</time>
      </trkpt>
      <trkpt lat="49.91887" lon="2.45446">
        <ele>53.4</ele>
        <time>2022-03-30T14:01:03Z</time>
      </trkpt>
      <trkpt lat="49.91886" lon="2.45445">
        <ele>53.4</ele>
        <time>2022-03-30T14:01:04Z</time>
      </trkpt>
      <trkpt lat="49.91885" lon="2.45445">
        <ele>53.4</ele>
        <time>2022-03-30T14:01:05Z</time>
      </trkpt>
      <trkpt lat="49.91884" lon="2.45444">
        <ele>53.4</ele>
        <time>2022-03-30T14:01:06Z</time>
      </trkpt>
      <trkpt lat="49.91883" lon="2.45444">
        <ele>53.4</ele>
        <time>2022-03-30T14:01:07Z</time>
      </trkpt>
      <trkpt lat="49.91882" lon="2.45444">
        <ele>53.3</ele>
        <time>2022-03-30T14:01:08Z</time>
      </trkpt>
      <trkpt lat="49.91881" lon="2.45443">
        <ele>53.3</ele>
        <time>2022-03-30T14:01:09Z</time>
      </trkpt>
      <trkpt lat="49.9188" lon="2.45443">
        <ele>53.3</ele>
        <time>2022-03-30T14:01:10Z</time>
      </trkpt>
      <trkpt lat="49.91879" lon="2.45442">
        <ele>53.3</ele>
        <time>2022-03-30T14:01:11Z</time>
      </trkpt>
      <trkpt lat="49.91878" lon="2.45442">
        <ele>53.3</ele>
        <time>2022-03-30T14:01:12Z</time>
      </trkpt>
      <trkpt lat="49.91877" lon="2.45441">
        <ele>53.3</ele>
        <time>2022-03-30T14:01:13Z</time>
      </trkpt>
      <trkpt lat="49.91876" lon="2.45441">
        <ele>53.2</ele>
        <time>2022-03-30T14:01:14Z</time>
      </trkpt>
      <trkpt lat="49.91875" lon="2.4544">
        <ele>53.2</ele>
        <time>2022-03-30T14:01:15Z</time>
      </trkpt>
      <trkpt lat="49.91874" lon="2.4544">
        <ele>53.2</ele>
        <time>2022-03-30T14:01:16Z</time>
      </trkpt>
      <trkpt lat="49.91872" lon="2.45439">
        <ele>53.2</ele>
        <time>2022-03-30T14:01:17Z</time>
      </trkpt>
      <trkpt lat="49.91871" lon="2.45438">
        <ele>53.2</ele>
        <time>2022-03-30T14:01:18Z</time>
      </trkpt>
      <trkpt lat="49.9187" lon="2.45438">
        <ele>53.2</ele>
        <time>2022-03-30T14:01:19Z</time>
      </trkpt>
      <trkpt lat="49.91869" lon="2.45437">
        <ele>53.2</ele>
        <time>2022-03-30T14:01:20Z</time>
      </trkpt>
      <trkpt lat="49.91868" lon="2.45437">
        <ele>53.1</ele>
        <time>2022-03-30T14:01:21Z</time>
      </trkpt>
      <trkpt lat="49.91867" lon="2.45437">
        <ele>53.1</ele>
        <time>2022-03-30T14:01:22Z</time>
      </trkpt>
      <trkpt lat="49.91866" lon="2.45436">
        <ele>53.1</ele>
        <time>2022-03-30T14:01:23Z</time>
      </trkpt>
      <trkpt lat="49.91865" lon="2.45436">
        <ele>53.1</ele>
        <time>2022-03-30T14:01:24Z</time>
      </trkpt>
      <trkpt lat="49.91864" lon="2.45435">
        <ele>53.1</ele>
        <time>2022-03-30T14:01:25Z</time>
      </trkpt>
      <trkpt lat="49.91863" lon="2.45435">
        <ele>53.1</ele>
        <time>2022-03-30T14:01:26Z</time>
      </trkpt>
      <trkpt lat="49.91862" lon="2.45435">
        <ele>53.1</ele>
        <time>2022-03-30T14:01:27Z</time>
      </trkpt>
      <trkpt lat="49.91861" lon="2.45434">
        <ele>53.1</ele>
        <time>2022-03-30T14:01:28Z</time>
      </trkpt>
      <trkpt lat="49.91859" lon="2.45434">
        <ele>53</ele>
        <time>2022-03-30T14:01:29Z</time>
      </trkpt>
      <trkpt lat="49.91858" lon="2.45433">
        <ele>53</ele>
        <time>2022-03-30T14:01:30Z</time>
      </trkpt>
      <trkpt lat="49.91857" lon="2.45433">
        <ele>53</ele>
        <time>2022-03-30T14:01:31Z</time>
      </trkpt>
      <trkpt lat="49.91856" lon="2.45432">
        <ele>53</ele>
        <time>2022-03-30T14:01:32Z</time>
      </trkpt>
      <trkpt lat="49.91855" lon="2.45432">
        <ele>53</ele>
        <time>2022-03-30T14:01:33Z</time>
      </trkpt>
      <trkpt lat="49.91854" lon="2.45432">
        <ele>53</ele>
        <time>2022-03-30T14:01:34Z</time>
      </trkpt>
      <trkpt lat="49.91852" lon="2.45431">
        <ele>53</ele>
        <time>2022-03-30T14:01:35Z</time>
      </trkpt>
      <trkpt lat="49.91851" lon="2.4543">
        <ele>53</ele>
        <time>2022-03-30T14:01:36Z</time>
      </trkpt>
      <trkpt lat="49.9185" lon="2.4543">
        <ele>53</ele>
        <time>2022-03-30T14:01:37Z</time>
      </trkpt>
      <trkpt lat="49.91848" lon="2.45429">
        <ele>52.9</ele>
        <time>2022-03-30T14:01:38Z</time>
      </trkpt>
      <trkpt lat="49.91847" lon="2.45428">
        <ele>52.9</ele>
        <time>2022-03-30T14:01:39Z</time>
      </trkpt>
      <trkpt lat="49.91846" lon="2.45428">
        <ele>52.9</ele>
        <time>2022-03-30T14:01:40Z</time>
      </trkpt>
      <trkpt lat="49.91845" lon="2.45427">
        <ele>52.9</ele>
        <time>2022-03-30T14:01:41Z</time>
      </trkpt>
      <trkpt lat="49.91844" lon="2.45426">
        <ele>52.9</ele>
        <time>2022-03-30T14:01:42Z</time>
      </trkpt>
      <trkpt lat="49.91842" lon="2.45425">
        <ele>52.9</ele>
        <time>2022-03-30T14:01:43Z</time>
      </trkpt>
      <trkpt lat="49.91841" lon="2.45424">
        <ele>52.9</ele>
        <time>2022-03-30T14:01:44Z</time>
      </trkpt>
      <trkpt lat="49.9184" lon="2.45424">
        <ele>52.9</ele>
        <time>2022-03-30T14:01:45Z</time>
      </trkpt>
      <trkpt lat="49.91838" lon="2.45422">
        <ele>52.8</ele>
        <time>2022-03-30T14:01:46Z</time>
      </trkpt>
      <trkpt lat="49.91838" lon="2.45422">
        <ele>52.8</ele>
        <time>2022-03-30T14:01:47Z</time>
      </trkpt>
      <trkpt lat="49.91837" lon="2.45421">
        <ele>52.8</ele>
        <time>2022-03-30T14:01:48Z</time>
      </trkpt>
      <trkpt lat="49.91835" lon="2.4542">
        <ele>52.8</ele>
        <time>2022-03-30T14:01:49Z</time>
      </trkpt>
      <trkpt lat="49.91834" lon="2.45419">
        <ele>52.8</ele>
        <time>2022-03-30T14:01:50Z</time>
      </trkpt>
      <trkpt lat="49.91833" lon="2.45419">
        <ele>52.8</ele>
        <time>2022-03-30T14:01:51Z</time>
      </trkpt>
      <trkpt lat="49.91831" lon="2.45417">
        <ele>52.8</ele>
        <time>2022-03-30T14:01:52Z</time>
      </trkpt>
      <trkpt lat="49.9183" lon="2.45417">
        <ele>52.8</ele>
        <time>2022-03-30T14:01:53Z</time>
      </trkpt>
      <trkpt lat="49.91829" lon="2.45417">
        <ele>52.8</ele>
        <time>2022-03-30T14:01:54Z</time>
      </trkpt>
      <trkpt lat="49.91829" lon="2.45416">
        <ele>52.8</ele>
        <time>2022-03-30T14:01:55Z</time>
      </trkpt>
      <trkpt lat="49.91828" lon="2.45415">
        <ele>52.8</ele>
        <time>2022-03-30T14:01:56Z</time>
      </trkpt>
      <trkpt lat="49.91827" lon="2.45415">
        <ele>52.8</ele>
        <time>2022-03-30T14:01:57Z</time>
      </trkpt>
      <trkpt lat="49.91825" lon="2.45413">
        <ele>52.8</ele>
        <time>2022-03-30T14:01:58Z</time>
      </trkpt>
      <trkpt lat="49.91824" lon="2.45413">
        <ele>52.8</ele>
        <time>2022-03-30T14:01:59Z</time>
      </trkpt>
      <trkpt lat="49.91823" lon="2.45413">
        <ele>52.8</ele>
        <time>2022-03-30T14:02:00Z</time>
      </trkpt>
      <trkpt lat="49.91822" lon="2.45412">
        <ele>52.8</ele>
        <time>2022-03-30T14:02:01Z</time>
      </trkpt>
      <trkpt lat="49.91821" lon="2.45411">
        <ele>52.8</ele>
        <time>2022-03-30T14:02:02Z</time>
      </trkpt>
      <trkpt lat="49.9182" lon="2.4541">
        <ele>52.8</ele>
        <time>2022-03-30T14:02:03Z</time>
      </trkpt>
      <trkpt lat="49.91819" lon="2.4541">
        <ele>52.8</ele>
        <time>2022-03-30T14:02:04Z</time>
      </trkpt>
      <trkpt lat="49.91818" lon="2.45409">
        <ele>52.8</ele>
        <time>2022-03-30T14:02:05Z</time>
      </trkpt>
      <trkpt lat="49.91817" lon="2.45408">
        <ele>52.8</ele>
        <time>2022-03-30T14:02:06Z</time>
      </trkpt>
      <trkpt lat="49.91817" lon="2.45408">
        <ele>52.8</ele>
        <time>2022-03-30T14:02:07Z</time>
      </trkpt>
      <trkpt lat="49.91816" lon="2.45407">
        <ele>52.8</ele>
        <time>2022-03-30T14:02:08Z</time>
      </trkpt>
      <trkpt lat="49.91815" lon="2.45407">
        <ele>52.8</ele>
        <time>2022-03-30T14:02:09Z</time>
      </trkpt>
      <trkpt lat="49.91814" lon="2.45406">
        <ele>52.8</ele>
        <time>2022-03-30T14:02:10Z</time>
      </trkpt>
      <trkpt lat="49.91813" lon="2.45405">
        <ele>52.8</ele>
        <time>2022-03-30T14:02:11Z</time>
      </trkpt>
      <trkpt lat="49.91812" lon="2.45405">
        <ele>52.8</ele>
        <time>2022-03-30T14:02:12Z</time>
      </trkpt>
      <trkpt lat="49.91811" lon="2.45404">
        <ele>52.8</ele>
        <time>2022-03-30T14:02:13Z</time>
      </trkpt>
      <trkpt lat="49.9181" lon="2.45403">
        <ele>52.8</ele>
        <time>2022-03-30T14:02:14Z</time>
      </trkpt>
      <trkpt lat="49.91809" lon="2.45402">
        <ele>52.8</ele>
        <time>2022-03-30T14:02:15Z</time>
      </trkpt>
      <trkpt lat="49.91808" lon="2.45401">
        <ele>52.8</ele>
        <time>2022-03-30T14:02:16Z</time>
      </trkpt>
      <trkpt lat="49.91807" lon="2.45401">
        <ele>52.8</ele>
        <time>2022-03-30T14:02:17Z</time>
      </trkpt>
      <trkpt lat="49.91807" lon="2.454">
        <ele>52.8</ele>
        <time>2022-03-30T14:02:18Z</time>
      </trkpt>
      <trkpt lat="49.91806" lon="2.45399">
        <ele>52.8</ele>
        <time>2022-03-30T14:02:19Z</time>
      </trkpt>
      <trkpt lat="49.91805" lon="2.45399">
        <ele>52.8</ele>
        <time>2022-03-30T14:02:20Z</time>
      </trkpt>
      <trkpt lat="49.91804" lon="2.45398">
        <ele>52.8</ele>
        <time>2022-03-30T14:02:21Z</time>
      </trkpt>
      <trkpt lat="49.91803" lon="2.45397">
        <ele>52.8</ele>
        <time>2022-03-30T14:02:22Z</time>
      </trkpt>
      <trkpt lat="49.91802" lon="2.45396">
        <ele>52.8</ele>
        <time>2022-03-30T14:02:23Z</time>
      </trkpt>
      <trkpt lat="49.91801" lon="2.45396">
        <ele>52.8</ele>
        <time>2022-03-30T14:02:24Z</time>
      </trkpt>
      <trkpt lat="49.91799" lon="2.45394">
        <ele>52.8</ele>
        <time>2022-03-30T14:02:25Z</time>
      </trkpt>
      <trkpt lat="49.91798" lon="2.45394">
        <ele>52.8</ele>
        <time>2022-03-30T14:02:26Z</time>
      </trkpt>
      <trkpt lat="49.91797" lon="2.45393">
        <ele>52.8</ele>
        <time>2022-03-30T14:02:27Z</time>
      </trkpt>
      <trkpt lat="49.91796" lon="2.45392">
        <ele>52.8</ele>
        <time>2022-03-30T14:02:28Z</time>
      </trkpt>
      <trkpt lat="49.91795" lon="2.45392">
        <ele>52.8</ele>
        <time>2022-03-30T14:02:29Z</time>
      </trkpt>
      <trkpt lat="49.91794" lon="2.45391">
        <ele>52.8</ele>
        <time>2022-03-30T14:02:30Z</time>
      </trkpt>
      <trkpt lat="49.91793" lon="2.4539">
        <ele>52.8</ele>
        <time>2022-03-30T14:02:31Z</time>
      </trkpt>
      <trkpt lat="49.91792" lon="2.45389">
        <ele>52.8</ele>
        <time>2022-03-30T14:02:32Z</time>
      </trkpt>
      <trkpt lat="49.91791" lon="2.45389">
        <ele>52.8</ele>
        <time>2022-03-30T14:02:33Z</time>
      </trkpt>
      <trkpt lat="49.9179" lon="2.45388">
        <ele>52.8</ele>
        <time>2022-03-30T14:02:34Z</time>
      </trkpt>
      <trkpt lat="49.91789" lon="2.45387">
        <ele>52.8</ele>
        <time>2022-03-30T14:02:35Z</time>
      </trkpt>
      <trkpt lat="49.91788" lon="2.45386">
        <ele>52.8</ele>
        <time>2022-03-30T14:02:36Z</time>
      </trkpt>
      <trkpt lat="49.91786" lon="2.45385">
        <ele>52.8</ele>
        <time>2022-03-30T14:02:37Z</time>
      </trkpt>
      <trkpt lat="49.91785" lon="2.45384">
        <ele>52.8</ele>
        <time>2022-03-30T14:02:38Z</time>
      </trkpt>
      <trkpt lat="49.91785" lon="2.45384">
        <ele>52.8</ele>
        <time>2022-03-30T14:02:39Z</time>
      </trkpt>
      <trkpt lat="49.91783" lon="2.45383">
        <ele>52.8</ele>
        <time>2022-03-30T14:02:40Z</time>
      </trkpt>
      <trkpt lat="49.91782" lon="2.45382">
        <ele>52.8</ele>
        <time>2022-03-30T14:02:41Z</time>
      </trkpt>
      <trkpt lat="49.91782" lon="2.45381">
        <ele>52.8</ele>
        <time>2022-03-30T14:02:42Z</time>
      </trkpt>
      <trkpt lat="49.91781" lon="2.45381">
        <ele>52.8</ele>
        <time>2022-03-30T14:02:43Z</time>
      </trkpt>
      <trkpt lat="49.9178" lon="2.4538">
        <ele>52.8</ele>
        <time>2022-03-30T14:02:44Z</time>
      </trkpt>
      <trkpt lat="49.91779" lon="2.45379">
        <ele>52.8</ele>
        <time>2022-03-30T14:02:45Z</time>
      </trkpt>
      <trkpt lat="49.91778" lon="2.45378">
        <ele>52.8</ele>
        <time>2022-03-30T14:02:46Z</time>
      </trkpt>
      <trkpt lat="49.91777" lon="2.45378">
        <ele>52.8</ele>
        <time>2022-03-30T14:02:47Z</time>
      </trkpt>
      <trkpt lat="49.91776" lon="2.45377">
        <ele>52.8</ele>
        <time>2022-03-30T14:02:48Z</time>
      </trkpt>
      <trkpt lat="49.91774" lon="2.45375">
        <ele>52.8</ele>
        <time>2022-03-30T14:02:49Z</time>
      </trkpt>
      <trkpt lat="49.91773" lon="2.45375">
        <ele>52.8</ele>
        <time>2022-03-30T14:02:50Z</time>
      </trkpt>
      <trkpt lat="49.91772" lon="2.45374">
        <ele>52.8</ele>
        <time>2022-03-30T14:02:51Z</time>
      </trkpt>
      <trkpt lat="49.91771" lon="2.45373">
        <ele>52.8</ele>
        <time>2022-03-30T14:02:52Z</time>
      </trkpt>
      <trkpt lat="49.91771" lon="2.45372">
        <ele>52.8</ele>
        <time>2022-03-30T14:02:53Z</time>
      </trkpt>
      <trkpt lat="49.9177" lon="2.45372">
        <ele>52.8</ele>
        <time>2022-03-30T14:02:54Z</time>
      </trkpt>
      <trkpt lat="49.91769" lon="2.45371">
        <ele>52.8</ele>
        <time>2022-03-30T14:02:55Z</time>
      </trkpt>
      <trkpt lat="49.91768" lon="2.4537">
        <ele>52.8</ele>
        <time>2022-03-30T14:02:56Z</time>
      </trkpt>
      <trkpt lat="49.91767" lon="2.45369">
        <ele>52.8</ele>
        <time>2022-03-30T14:02:57Z</time>
      </trkpt>
      <trkpt lat="49.91766" lon="2.45368">
        <ele>52.8</ele>
        <time>2022-03-30T14:02:58Z</time>
      </trkpt>
      <trkpt lat="49.91765" lon="2.45367">
        <ele>52.8</ele>
        <time>2022-03-30T14:02:59Z</time>
      </trkpt>
      <trkpt lat="49.91764" lon="2.45366">
        <ele>52.8</ele>
        <time>2022-03-30T14:03:00Z</time>
      </trkpt>
      <trkpt lat="49.91763" lon="2.45364">
        <ele>52.9</ele>
        <time>2022-03-30T14:03:01Z</time>
      </trkpt>
      <trkpt lat="49.91762" lon="2.45363">
        <ele>52.9</ele>
        <time>2022-03-30T14:03:02Z</time>
      </trkpt>
      <trkpt lat="49.91761" lon="2.45362">
        <ele>52.9</ele>
        <time>2022-03-30T14:03:03Z</time>
      </trkpt>
      <trkpt lat="49.9176" lon="2.45361">
        <ele>52.9</ele>
        <time>2022-03-30T14:03:04Z</time>
      </trkpt>
      <trkpt lat="49.91759" lon="2.4536">
        <ele>52.9</ele>
        <time>2022-03-30T14:03:05Z</time>
      </trkpt>
      <trkpt lat="49.91758" lon="2.45358">
        <ele>52.9</ele>
        <time>2022-03-30T14:03:06Z</time>
      </trkpt>
      <trkpt lat="49.91757" lon="2.45357">
        <ele>52.9</ele>
        <time>2022-03-30T14:03:07Z</time>
      </trkpt>
      <trkpt lat="49.91756" lon="2.45357">
        <ele>52.9</ele>
        <time>2022-03-30T14:03:08Z</time>
      </trkpt>
      <trkpt lat="49.91755" lon="2.45355">
        <ele>52.9</ele>
        <time>2022-03-30T14:03:09Z</time>
      </trkpt>
      <trkpt lat="49.91754" lon="2.45354">
        <ele>52.9</ele>
        <time>2022-03-30T14:03:10Z</time>
      </trkpt>
      <trkpt lat="49.91753" lon="2.45353">
        <ele>52.9</ele>
        <time>2022-03-30T14:03:11Z</time>
      </trkpt>
      <trkpt lat="49.91752" lon="2.45352">
        <ele>53</ele>
        <time>2022-03-30T14:03:12Z</time>
      </trkpt>
      <trkpt lat="49.91751" lon="2.45351">
        <ele>53</ele>
        <time>2022-03-30T14:03:13Z</time>
      </trkpt>
      <trkpt lat="49.91751" lon="2.4535">
        <ele>53</ele>
        <time>2022-03-30T14:03:14Z</time>
      </trkpt>
      <trkpt lat="49.9175" lon="2.45349">
        <ele>53</ele>
        <time>2022-03-30T14:03:15Z</time>
      </trkpt>
      <trkpt lat="49.91749" lon="2.45348">
        <ele>53</ele>
        <time>2022-03-30T14:03:16Z</time>
      </trkpt>
      <trkpt lat="49.91748" lon="2.45347">
        <ele>53</ele>
        <time>2022-03-30T14:03:17Z</time>
      </trkpt>
      <trkpt lat="49.91746" lon="2.45345">
        <ele>53</ele>
        <time>2022-03-30T14:03:18Z</time>
      </trkpt>
      <trkpt lat="49.91746" lon="2.45344">
        <ele>53</ele>
        <time>2022-03-30T14:03:19Z</time>
      </trkpt>
      <trkpt lat="49.91745" lon="2.45343">
        <ele>53</ele>
        <time>2022-03-30T14:03:20Z</time>
      </trkpt>
      <trkpt lat="49.91743" lon="2.45341">
        <ele>53.1</ele>
        <time>2022-03-30T14:03:21Z</time>
      </trkpt>
      <trkpt lat="49.91743" lon="2.4534">
        <ele>53.1</ele>
        <time>2022-03-30T14:03:22Z</time>
      </trkpt>
      <trkpt lat="49.91742" lon="2.45339">
        <ele>53.1</ele>
        <time>2022-03-30T14:03:23Z</time>
      </trkpt>
      <trkpt lat="49.91741" lon="2.45337">
        <ele>53.1</ele>
        <time>2022-03-30T14:03:24Z</time>
      </trkpt>
      <trkpt lat="49.9174" lon="2.45336">
        <ele>53.1</ele>
        <time>2022-03-30T14:03:25Z</time>
      </trkpt>
      <trkpt lat="49.91739" lon="2.45335">
        <ele>53.1</ele>
        <time>2022-03-30T14:03:26Z</time>
      </trkpt>
      <trkpt lat="49.91739" lon="2.45333">
        <ele>53.1</ele>
        <time>2022-03-30T14:03:27Z</time>
      </trkpt>
      <trkpt lat="49.91738" lon="2.45332">
        <ele>53.1</ele>
        <time>2022-03-30T14:03:28Z</time>
      </trkpt>
      <trkpt lat="49.91737" lon="2.4533">
        <ele>53.1</ele>
        <time>2022-03-30T14:03:29Z</time>
      </trkpt>
      <trkpt lat="49.91736" lon="2.45329">
        <ele>53.2</ele>
        <time>2022-03-30T14:03:30Z</time>
      </trkpt>
      <trkpt lat="49.91736" lon="2.45328">
        <ele>53.2</ele>
        <time>2022-03-30T14:03:31Z</time>
      </trkpt>
      <trkpt lat="49.91734" lon="2.45326">
        <ele>53.2</ele>
        <time>2022-03-30T14:03:32Z</time>
      </trkpt>
      <trkpt lat="49.91734" lon="2.45325">
        <ele>53.2</ele>
        <time>2022-03-30T14:03:33Z</time>
      </trkpt>
      <trkpt lat="49.91733" lon="2.45324">
        <ele>53.2</ele>
        <time>2022-03-30T14:03:34Z</time>
      </trkpt>
      <trkpt lat="49.91732" lon="2.45323">
        <ele>53.2</ele>
        <time>2022-03-30T14:03:35Z</time>
      </trkpt>
      <trkpt lat="49.91731" lon="2.45322">
        <ele>53.2</ele>
        <time>2022-03-30T14:03:36Z</time>
      </trkpt>
      <trkpt lat="49.91731" lon="2.4532">
        <ele>53.3</ele>
        <time>2022-03-30T14:03:37Z</time>
      </trkpt>
      <trkpt lat="49.9173" lon="2.45319">
        <ele>53.3</ele>
        <time>2022-03-30T14:03:38Z</time>
      </trkpt>
      <trkpt lat="49.91729" lon="2.45318">
        <ele>53.3</ele>
        <time>2022-03-30T14:03:39Z</time>
      </trkpt>
      <trkpt lat="49.91728" lon="2.45317">
        <ele>53.3</ele>
        <time>2022-03-30T14:03:40Z</time>
      </trkpt>
      <trkpt lat="49.91728" lon="2.45315">
        <ele>53.3</ele>
        <time>2022-03-30T14:03:41Z</time>
      </trkpt>
      <trkpt lat="49.91727" lon="2.45314">
        <ele>53.3</ele>
        <time>2022-03-30T14:03:42Z</time>
      </trkpt>
      <trkpt lat="49.91726" lon="2.45313">
        <ele>53.4</ele>
        <time>2022-03-30T14:03:43Z</time>
      </trkpt>
      <trkpt lat="49.91725" lon="2.4531">
        <ele>53.4</ele>
        <time>2022-03-30T14:03:44Z</time>
      </trkpt>
      <trkpt lat="49.91724" lon="2.45309">
        <ele>53.4</ele>
        <time>2022-03-30T14:03:45Z</time>
      </trkpt>
      <trkpt lat="49.91723" lon="2.45308">
        <ele>53.4</ele>
        <time>2022-03-30T14:03:46Z</time>
      </trkpt>
      <trkpt lat="49.91723" lon="2.45307">
        <ele>53.4</ele>
        <time>2022-03-30T14:03:47Z</time>
      </trkpt>
      <trkpt lat="49.91722" lon="2.45306">
        <ele>53.4</ele>
        <time>2022-03-30T14:03:48Z</time>
      </trkpt>
      <trkpt lat="49.91721" lon="2.45305">
        <ele>53.5</ele>
        <time>2022-03-30T14:03:49Z</time>
      </trkpt>
      <trkpt lat="49.9172" lon="2.45304">
        <ele>53.5</ele>
        <time>2022-03-30T14:03:50Z</time>
      </trkpt>
      <trkpt lat="49.9172" lon="2.45303">
        <ele>53.5</ele>
        <time>2022-03-30T14:03:51Z</time>
      </trkpt>
      <trkpt lat="49.91719" lon="2.45302">
        <ele>53.5</ele>
        <time>2022-03-30T14:03:52Z</time>
      </trkpt>
      <trkpt lat="49.91718" lon="2.45301">
        <ele>53.5</ele>
        <time>2022-03-30T14:03:53Z</time>
      </trkpt>
      <trkpt lat="49.91717" lon="2.45299">
        <ele>53.5</ele>
        <time>2022-03-30T14:03:54Z</time>
      </trkpt>
      <trkpt lat="49.91716" lon="2.45298">
        <ele>53.5</ele>
        <time>2022-03-30T14:03:55Z</time>
      </trkpt>
      <trkpt lat="49.91715" lon="2.45297">
        <ele>53.6</ele>
        <time>2022-03-30T14:03:56Z</time>
      </trkpt>
      <trkpt lat="49.91715" lon="2.45296">
        <ele>53.6</ele>
        <time>2022-03-30T14:03:57Z</time>
      </trkpt>
      <trkpt lat="49.91714" lon="2.45295">
        <ele>53.6</ele>
        <time>2022-03-30T14:03:58Z</time>
      </trkpt>
      <trkpt lat="49.91713" lon="2.45294">
        <ele>53.6</ele>
        <time>2022-03-30T14:03:59Z</time>
      </trkpt>
      <trkpt lat="49.91713" lon="2.45293">
        <ele>53.6</ele>
        <time>2022-03-30T14:04:00Z</time>
      </trkpt>
      <trkpt lat="49.91712" lon="2.45292">
        <ele>53.6</ele>
        <time>2022-03-30T14:04:01Z</time>
      </trkpt>
      <trkpt lat="49.91711" lon="2.45291">
        <ele>53.6</ele>
        <time>2022-03-30T14:04:02Z</time>
      </trkpt>
      <trkpt lat="49.9171" lon="2.4529">
        <ele>53.7</ele>
        <time>2022-03-30T14:04:03Z</time>
      </trkpt>
      <trkpt lat="49.91709" lon="2.45289">
        <ele>53.7</ele>
        <time>2022-03-30T14:04:04Z</time>
      </trkpt>
      <trkpt lat="49.91708" lon="2.45287">
        <ele>53.7</ele>
        <time>2022-03-30T14:04:05Z</time>
      </trkpt>
      <trkpt lat="49.91708" lon="2.45286">
        <ele>53.7</ele>
        <time>2022-03-30T14:04:06Z</time>
      </trkpt>
      <trkpt lat="49.91707" lon="2.45285">
        <ele>53.7</ele>
        <time>2022-03-30T14:04:07Z</time>
      </trkpt>
      <trkpt lat="49.91706" lon="2.45284">
        <ele>53.7</ele>
        <time>2022-03-30T14:04:08Z</time>
      </trkpt>
      <trkpt lat="49.91706" lon="2.45282">
        <ele>53.7</ele>
        <time>2022-03-30T14:04:09Z</time>
      </trkpt>
      <trkpt lat="49.91705" lon="2.45281">
        <ele>53.8</ele>
        <time>2022-03-30T14:04:10Z</time>
      </trkpt>
      <trkpt lat="49.91704" lon="2.45279">
        <ele>53.8</ele>
        <time>2022-03-30T14:04:11Z</time>
      </trkpt>
      <trkpt lat="49.91703" lon="2.45278">
        <ele>53.8</ele>
        <time>2022-03-30T14:04:12Z</time>
      </trkpt>
      <trkpt lat="49.91702" lon="2.45277">
        <ele>53.8</ele>
        <time>2022-03-30T14:04:13Z</time>
      </trkpt>
      <trkpt lat="49.91701" lon="2.45276">
        <ele>53.8</ele>
        <time>2022-03-30T14:04:14Z</time>
      </trkpt>
      <trkpt lat="49.917" lon="2.45274">
        <ele>53.9</ele>
        <time>2022-03-30T14:04:15Z</time>
      </trkpt>
      <trkpt lat="49.91699" lon="2.45273">
        <ele>53.9</ele>
        <time>2022-03-30T14:04:16Z</time>
      </trkpt>
      <trkpt lat="49.91699" lon="2.45272">
        <ele>53.9</ele>
        <time>2022-03-30T14:04:17Z</time>
      </trkpt>
      <trkpt lat="49.91698" lon="2.45271">
        <ele>53.9</ele>
        <time>2022-03-30T14:04:18Z</time>
      </trkpt>
      <trkpt lat="49.91697" lon="2.45269">
        <ele>54</ele>
        <time>2022-03-30T14:04:19Z</time>
      </trkpt>
      <trkpt lat="49.91696" lon="2.45268">
        <ele>54</ele>
        <time>2022-03-30T14:04:20Z</time>
      </trkpt>
      <trkpt lat="49.91695" lon="2.45266">
        <ele>54</ele>
        <time>2022-03-30T14:04:21Z</time>
      </trkpt>
      <trkpt lat="49.91694" lon="2.45265">
        <ele>54</ele>
        <time>2022-03-30T14:04:22Z</time>
      </trkpt>
      <trkpt lat="49.91693" lon="2.45263">
        <ele>54</ele>
        <time>2022-03-30T14:04:23Z</time>
      </trkpt>
      <trkpt lat="49.91692" lon="2.45261">
        <ele>54.1</ele>
        <time>2022-03-30T14:04:24Z</time>
      </trkpt>
      <trkpt lat="49.91691" lon="2.45259">
        <ele>54.1</ele>
        <time>2022-03-30T14:04:25Z</time>
      </trkpt>
      <trkpt lat="49.9169" lon="2.45258">
        <ele>54.1</ele>
        <time>2022-03-30T14:04:26Z</time>
      </trkpt>
      <trkpt lat="49.91689" lon="2.45255">
        <ele>54.2</ele>
        <time>2022-03-30T14:04:27Z</time>
      </trkpt>
      <trkpt lat="49.91688" lon="2.45254">
        <ele>54.2</ele>
        <time>2022-03-30T14:04:28Z</time>
      </trkpt>
      <trkpt lat="49.91687" lon="2.45254">
        <ele>54.2</ele>
        <time>2022-03-30T14:04:29Z</time>
      </trkpt>
      <trkpt lat="49.91686" lon="2.45252">
        <ele>54.2</ele>
        <time>2022-03-30T14:04:30Z</time>
      </trkpt>
      <trkpt lat="49.91685" lon="2.45251">
        <ele>54.2</ele>
        <time>2022-03-30T14:04:31Z</time>
      </trkpt>
      <trkpt lat="49.91684" lon="2.45248">
        <ele>54.3</ele>
        <time>2022-03-30T14:04:32Z</time>
      </trkpt>
      <trkpt lat="49.91683" lon="2.45247">
        <ele>54.3</ele>
        <time>2022-03-30T14:04:33Z</time>
      </trkpt>
      <trkpt lat="49.91683" lon="2.45247">
        <ele>54.3</ele>
        <time>2022-03-30T14:04:34Z</time>
      </trkpt>
      <trkpt lat="49.91682" lon="2.45245">
        <ele>54.3</ele>
        <time>2022-03-30T14:04:35Z</time>
      </trkpt>
      <trkpt lat="49.91681" lon="2.45244">
        <ele>54.3</ele>
        <time>2022-03-30T14:04:36Z</time>
      </trkpt>
      <trkpt lat="49.9168" lon="2.45242">
        <ele>54.4</ele>
        <time>2022-03-30T14:04:37Z</time>
      </trkpt>
      <trkpt lat="49.91679" lon="2.45241">
        <ele>54.4</ele>
        <time>2022-03-30T14:04:38Z</time>
      </trkpt>
      <trkpt lat="49.91678" lon="2.4524">
        <ele>54.4</ele>
        <time>2022-03-30T14:04:39Z</time>
      </trkpt>
      <trkpt lat="49.91677" lon="2.45239">
        <ele>54.4</ele>
        <time>2022-03-30T14:04:40Z</time>
      </trkpt>
      <trkpt lat="49.91677" lon="2.45238">
        <ele>54.4</ele>
        <time>2022-03-30T14:04:41Z</time>
      </trkpt>
      <trkpt lat="49.91676" lon="2.45237">
        <ele>54.5</ele>
        <time>2022-03-30T14:04:42Z</time>
      </trkpt>
      <trkpt lat="49.91675" lon="2.45236">
        <ele>54.5</ele>
        <time>2022-03-30T14:04:43Z</time>
      </trkpt>
      <trkpt lat="49.91674" lon="2.45235">
        <ele>54.5</ele>
        <time>2022-03-30T14:04:44Z</time>
      </trkpt>
      <trkpt lat="49.91673" lon="2.45234">
        <ele>54.5</ele>
        <time>2022-03-30T14:04:45Z</time>
      </trkpt>
      <trkpt lat="49.91672" lon="2.45233">
        <ele>54.6</ele>
        <time>2022-03-30T14:04:46Z</time>
      </trkpt>
      <trkpt lat="49.91671" lon="2.45232">
        <ele>54.6</ele>
        <time>2022-03-30T14:04:47Z</time>
      </trkpt>
      <trkpt lat="49.9167" lon="2.45231">
        <ele>54.6</ele>
        <time>2022-03-30T14:04:48Z</time>
      </trkpt>
      <trkpt lat="49.91669" lon="2.4523">
        <ele>54.6</ele>
        <time>2022-03-30T14:04:49Z</time>
      </trkpt>
      <trkpt lat="49.91669" lon="2.45229">
        <ele>54.6</ele>
        <time>2022-03-30T14:04:50Z</time>
      </trkpt>
      <trkpt lat="49.91668" lon="2.45228">
        <ele>54.7</ele>
        <time>2022-03-30T14:04:51Z</time>
      </trkpt>
      <trkpt lat="49.91667" lon="2.45227">
        <ele>54.7</ele>
        <time>2022-03-30T14:04:52Z</time>
      </trkpt>
      <trkpt lat="49.91667" lon="2.45226">
        <ele>54.7</ele>
        <time>2022-03-30T14:04:53Z</time>
      </trkpt>
      <trkpt lat="49.91666" lon="2.45225">
        <ele>54.7</ele>
        <time>2022-03-30T14:04:54Z</time>
      </trkpt>
      <trkpt lat="49.91664" lon="2.45224">
        <ele>54.7</ele>
        <time>2022-03-30T14:04:55Z</time>
      </trkpt>
      <trkpt lat="49.91664" lon="2.45223">
        <ele>54.8</ele>
        <time>2022-03-30T14:04:56Z</time>
      </trkpt>
      <trkpt lat="49.91663" lon="2.45222">
        <ele>54.8</ele>
        <time>2022-03-30T14:04:57Z</time>
      </trkpt>
      <trkpt lat="49.91661" lon="2.4522">
        <ele>54.8</ele>
        <time>2022-03-30T14:04:58Z</time>
      </trkpt>
      <trkpt lat="49.9166" lon="2.45219">
        <ele>54.8</ele>
        <time>2022-03-30T14:04:59Z</time>
      </trkpt>
      <trkpt lat="49.9166" lon="2.45218">
        <ele>54.9</ele>
        <time>2022-03-30T14:05:00Z</time>
      </trkpt>
      <trkpt lat="49.91658" lon="2.45216">
        <ele>54.9</ele>
        <time>2022-03-30T14:05:01Z</time>
      </trkpt>
      <trkpt lat="49.91657" lon="2.45215">
        <ele>54.9</ele>
        <time>2022-03-30T14:05:02Z</time>
      </trkpt>
      <trkpt lat="49.91657" lon="2.45215">
        <ele>54.9</ele>
        <time>2022-03-30T14:05:03Z</time>
      </trkpt>
      <trkpt lat="49.91656" lon="2.45214">
        <ele>55</ele>
        <time>2022-03-30T14:05:04Z</time>
      </trkpt>
      <trkpt lat="49.91655" lon="2.45212">
        <ele>55</ele>
        <time>2022-03-30T14:05:05Z</time>
      </trkpt>
      <trkpt lat="49.91654" lon="2.45211">
        <ele>55</ele>
        <time>2022-03-30T14:05:06Z</time>
      </trkpt>
      <trkpt lat="49.91653" lon="2.4521">
        <ele>55</ele>
        <time>2022-03-30T14:05:07Z</time>
      </trkpt>
      <trkpt lat="49.91652" lon="2.45209">
        <ele>55.1</ele>
        <time>2022-03-30T14:05:08Z</time>
      </trkpt>
      <trkpt lat="49.91651" lon="2.45208">
        <ele>55.1</ele>
        <time>2022-03-30T14:05:09Z</time>
      </trkpt>
      <trkpt lat="49.9165" lon="2.45206">
        <ele>55.1</ele>
        <time>2022-03-30T14:05:10Z</time>
      </trkpt>
      <trkpt lat="49.91649" lon="2.45205">
        <ele>55.1</ele>
        <time>2022-03-30T14:05:11Z</time>
      </trkpt>
      <trkpt lat="49.91648" lon="2.45204">
        <ele>55.2</ele>
        <time>2022-03-30T14:05:12Z</time>
      </trkpt>
      <trkpt lat="49.91648" lon="2.45203">
        <ele>55.2</ele>
        <time>2022-03-30T14:05:13Z</time>
      </trkpt>
      <trkpt lat="49.91647" lon="2.45202">
        <ele>55.2</ele>
        <time>2022-03-30T14:05:14Z</time>
      </trkpt>
      <trkpt lat="49.91646" lon="2.45201">
        <ele>55.2</ele>
        <time>2022-03-30T14:05:15Z</time>
      </trkpt>
      <trkpt lat="49.91645" lon="2.452">
        <ele>55.3</ele>
        <time>2022-03-30T14:05:16Z</time>
      </trkpt>
      <trkpt lat="49.91644" lon="2.45199">
        <ele>55.3</ele>
        <time>2022-03-30T14:05:17Z</time>
      </trkpt>
      <trkpt lat="49.91644" lon="2.45198">
        <ele>55.3</ele>
        <time>2022-03-30T14:05:18Z</time>
      </trkpt>
      <trkpt lat="49.91643" lon="2.45197">
        <ele>55.3</ele>
        <time>2022-03-30T14:05:19Z</time>
      </trkpt>
      <trkpt lat="49.91642" lon="2.45196">
        <ele>55.4</ele>
        <time>2022-03-30T14:05:20Z</time>
      </trkpt>
      <trkpt lat="49.91641" lon="2.45195">
        <ele>55.4</ele>
        <time>2022-03-30T14:05:21Z</time>
      </trkpt>
      <trkpt lat="49.9164" lon="2.45194">
        <ele>55.4</ele>
        <time>2022-03-30T14:05:22Z</time>
      </trkpt>
      <trkpt lat="49.91639" lon="2.45193">
        <ele>55.4</ele>
        <time>2022-03-30T14:05:23Z</time>
      </trkpt>
      <trkpt lat="49.91639" lon="2.45193">
        <ele>55.5</ele>
        <time>2022-03-30T14:05:24Z</time>
      </trkpt>
      <trkpt lat="49.91638" lon="2.45192">
        <ele>55.5</ele>
        <time>2022-03-30T14:05:25Z</time>
      </trkpt>
      <trkpt lat="49.91637" lon="2.45191">
        <ele>55.5</ele>
        <time>2022-03-30T14:05:26Z</time>
      </trkpt>
      <trkpt lat="49.91636" lon="2.4519">
        <ele>55.5</ele>
        <time>2022-03-30T14:05:27Z</time>
      </trkpt>
      <trkpt lat="49.91635" lon="2.4519">
        <ele>55.6</ele>
        <time>2022-03-30T14:05:28Z</time>
      </trkpt>
      <trkpt lat="49.91635" lon="2.45189">
        <ele>55.6</ele>
        <time>2022-03-30T14:05:29Z</time>
      </trkpt>
      <trkpt lat="49.91633" lon="2.45188">
        <ele>55.6</ele>
        <time>2022-03-30T14:05:30Z</time>
      </trkpt>
      <trkpt lat="49.91633" lon="2.45187">
        <ele>55.7</ele>
        <time>2022-03-30T14:05:31Z</time>
      </trkpt>
      <trkpt lat="49.91632" lon="2.45186">
        <ele>55.7</ele>
        <time>2022-03-30T14:05:32Z</time>
      </trkpt>
      <trkpt lat="49.91631" lon="2.45186">
        <ele>55.7</ele>
        <time>2022-03-30T14:05:33Z</time>
      </trkpt>
      <trkpt lat="49.9163" lon="2.45185">
        <ele>55.8</ele>
        <time>2022-03-30T14:05:34Z</time>
      </trkpt>
      <trkpt lat="49.9163" lon="2.45184">
        <ele>55.8</ele>
        <time>2022-03-30T14:05:35Z</time>
      </trkpt>
      <trkpt lat="49.91629" lon="2.45183">
        <ele>55.8</ele>
        <time>2022-03-30T14:05:36Z</time>
      </trkpt>
      <trkpt lat="49.91628" lon="2.45183">
        <ele>55.8</ele>
        <time>2022-03-30T14:05:37Z</time>
      </trkpt>
      <trkpt lat="49.91627" lon="2.45182">
        <ele>55.9</ele>
        <time>2022-03-30T14:05:38Z</time>
      </trkpt>
      <trkpt lat="49.91626" lon="2.45181">
        <ele>55.9</ele>
        <time>2022-03-30T14:05:39Z</time>
      </trkpt>
      <trkpt lat="49.91625" lon="2.4518">
        <ele>56</ele>
        <time>2022-03-30T14:05:40Z</time>
      </trkpt>
      <trkpt lat="49.91625" lon="2.4518">
        <ele>56</ele>
        <time>2022-03-30T14:05:41Z</time>
      </trkpt>
      <trkpt lat="49.91624" lon="2.45179">
        <ele>56</ele>
        <time>2022-03-30T14:05:42Z</time>
      </trkpt>
      <trkpt lat="49.91623" lon="2.45178">
        <ele>56.1</ele>
        <time>2022-03-30T14:05:43Z</time>
      </trkpt>
      <trkpt lat="49.91622" lon="2.45177">
        <ele>56.1</ele>
        <time>2022-03-30T14:05:44Z</time>
      </trkpt>
      <trkpt lat="49.91621" lon="2.45177">
        <ele>56.1</ele>
        <time>2022-03-30T14:05:45Z</time>
      </trkpt>
      <trkpt lat="49.9162" lon="2.45176">
        <ele>56.2</ele>
        <time>2022-03-30T14:05:46Z</time>
      </trkpt>
      <trkpt lat="49.91618" lon="2.45174">
        <ele>56.3</ele>
        <time>2022-03-30T14:05:47Z</time>
      </trkpt>
      <trkpt lat="49.91618" lon="2.45173">
        <ele>56.3</ele>
        <time>2022-03-30T14:05:48Z</time>
      </trkpt>
      <trkpt lat="49.91617" lon="2.45173">
        <ele>56.3</ele>
        <time>2022-03-30T14:05:49Z</time>
      </trkpt>
      <trkpt lat="49.91616" lon="2.45172">
        <ele>56.3</ele>
        <time>2022-03-30T14:05:50Z</time>
      </trkpt>
      <trkpt lat="49.91616" lon="2.45171">
        <ele>56.4</ele>
        <time>2022-03-30T14:05:51Z</time>
      </trkpt>
      <trkpt lat="49.91615" lon="2.4517">
        <ele>56.4</ele>
        <time>2022-03-30T14:05:52Z</time>
      </trkpt>
      <trkpt lat="49.91614" lon="2.45169">
        <ele>56.5</ele>
        <time>2022-03-30T14:05:53Z</time>
      </trkpt>
      <trkpt lat="49.91613" lon="2.45168">
        <ele>56.5</ele>
        <time>2022-03-30T14:05:54Z</time>
      </trkpt>
      <trkpt lat="49.91612" lon="2.45167">
        <ele>56.5</ele>
        <time>2022-03-30T14:05:55Z</time>
      </trkpt>
      <trkpt lat="49.91611" lon="2.45166">
        <ele>56.6</ele>
        <time>2022-03-30T14:05:56Z</time>
      </trkpt>
      <trkpt lat="49.9161" lon="2.45165">
        <ele>56.6</ele>
        <time>2022-03-30T14:05:57Z</time>
      </trkpt>
      <trkpt lat="49.91609" lon="2.45164">
        <ele>56.6</ele>
        <time>2022-03-30T14:05:58Z</time>
      </trkpt>
      <trkpt lat="49.91608" lon="2.45163">
        <ele>56.7</ele>
        <time>2022-03-30T14:05:59Z</time>
      </trkpt>
      <trkpt lat="49.91608" lon="2.45163">
        <ele>56.7</ele>
        <time>2022-03-30T14:06:00Z</time>
      </trkpt>
      <trkpt lat="49.91607" lon="2.45162">
        <ele>56.7</ele>
        <time>2022-03-30T14:06:01Z</time>
      </trkpt>
      <trkpt lat="49.91606" lon="2.4516">
        <ele>56.8</ele>
        <time>2022-03-30T14:06:02Z</time>
      </trkpt>
      <trkpt lat="49.91605" lon="2.45159">
        <ele>56.8</ele>
        <time>2022-03-30T14:06:03Z</time>
      </trkpt>
      <trkpt lat="49.91604" lon="2.45159">
        <ele>56.8</ele>
        <time>2022-03-30T14:06:04Z</time>
      </trkpt>
      <trkpt lat="49.91603" lon="2.45157">
        <ele>56.9</ele>
        <time>2022-03-30T14:06:05Z</time>
      </trkpt>
      <trkpt lat="49.91602" lon="2.45156">
        <ele>56.9</ele>
        <time>2022-03-30T14:06:06Z</time>
      </trkpt>
      <trkpt lat="49.91601" lon="2.45155">
        <ele>56.9</ele>
        <time>2022-03-30T14:06:07Z</time>
      </trkpt>
      <trkpt lat="49.91601" lon="2.45154">
        <ele>57</ele>
        <time>2022-03-30T14:06:08Z</time>
      </trkpt>
      <trkpt lat="49.916" lon="2.45153">
        <ele>57</ele>
        <time>2022-03-30T14:06:09Z</time>
      </trkpt>
      <trkpt lat="49.91599" lon="2.45152">
        <ele>57</ele>
        <time>2022-03-30T14:06:10Z</time>
      </trkpt>
      <trkpt lat="49.91598" lon="2.45151">
        <ele>57</ele>
        <time>2022-03-30T14:06:11Z</time>
      </trkpt>
      <trkpt lat="49.91597" lon="2.4515">
        <ele>57.1</ele>
        <time>2022-03-30T14:06:12Z</time>
      </trkpt>
      <trkpt lat="49.91596" lon="2.45149">
        <ele>57.1</ele>
        <time>2022-03-30T14:06:13Z</time>
      </trkpt>
      <trkpt lat="49.91595" lon="2.45147">
        <ele>57.2</ele>
        <time>2022-03-30T14:06:14Z</time>
      </trkpt>
      <trkpt lat="49.91594" lon="2.45146">
        <ele>57.2</ele>
        <time>2022-03-30T14:06:15Z</time>
      </trkpt>
      <trkpt lat="49.91593" lon="2.45144">
        <ele>57.2</ele>
        <time>2022-03-30T14:06:16Z</time>
      </trkpt>
      <trkpt lat="49.91592" lon="2.45143">
        <ele>57.3</ele>
        <time>2022-03-30T14:06:17Z</time>
      </trkpt>
      <trkpt lat="49.91592" lon="2.45142">
        <ele>57.3</ele>
        <time>2022-03-30T14:06:18Z</time>
      </trkpt>
      <trkpt lat="49.91591" lon="2.45141">
        <ele>57.3</ele>
        <time>2022-03-30T14:06:19Z</time>
      </trkpt>
      <trkpt lat="49.9159" lon="2.4514">
        <ele>57.4</ele>
        <time>2022-03-30T14:06:20Z</time>
      </trkpt>
      <trkpt lat="49.91589" lon="2.45139">
        <ele>57.4</ele>
        <time>2022-03-30T14:06:21Z</time>
      </trkpt>
      <trkpt lat="49.91588" lon="2.45138">
        <ele>57.4</ele>
        <time>2022-03-30T14:06:22Z</time>
      </trkpt>
      <trkpt lat="49.91587" lon="2.45137">
        <ele>57.5</ele>
        <time>2022-03-30T14:06:23Z</time>
      </trkpt>
      <trkpt lat="49.91586" lon="2.45136">
        <ele>57.5</ele>
        <time>2022-03-30T14:06:24Z</time>
      </trkpt>
      <trkpt lat="49.91585" lon="2.45135">
        <ele>57.5</ele>
        <time>2022-03-30T14:06:25Z</time>
      </trkpt>
      <trkpt lat="49.91585" lon="2.45134">
        <ele>57.6</ele>
        <time>2022-03-30T14:06:26Z</time>
      </trkpt>
      <trkpt lat="49.91584" lon="2.45133">
        <ele>57.6</ele>
        <time>2022-03-30T14:06:27Z</time>
      </trkpt>
      <trkpt lat="49.91583" lon="2.45132">
        <ele>57.6</ele>
        <time>2022-03-30T14:06:28Z</time>
      </trkpt>
      <trkpt lat="49.91582" lon="2.45131">
        <ele>57.7</ele>
        <time>2022-03-30T14:06:29Z</time>
      </trkpt>
      <trkpt lat="49.91581" lon="2.4513">
        <ele>57.7</ele>
        <time>2022-03-30T14:06:30Z</time>
      </trkpt>
      <trkpt lat="49.9158" lon="2.45128">
        <ele>57.8</ele>
        <time>2022-03-30T14:06:31Z</time>
      </trkpt>
      <trkpt lat="49.91579" lon="2.45127">
        <ele>57.8</ele>
        <time>2022-03-30T14:06:32Z</time>
      </trkpt>
      <trkpt lat="49.91578" lon="2.45126">
        <ele>57.9</ele>
        <time>2022-03-30T14:06:33Z</time>
      </trkpt>
      <trkpt lat="49.91577" lon="2.45125">
        <ele>57.9</ele>
        <time>2022-03-30T14:06:34Z</time>
      </trkpt>
      <trkpt lat="49.91576" lon="2.45124">
        <ele>57.9</ele>
        <time>2022-03-30T14:06:35Z</time>
      </trkpt>
      <trkpt lat="49.91575" lon="2.45123">
        <ele>58</ele>
        <time>2022-03-30T14:06:36Z</time>
      </trkpt>
      <trkpt lat="49.91574" lon="2.45122">
        <ele>58</ele>
        <time>2022-03-30T14:06:37Z</time>
      </trkpt>
      <trkpt lat="49.91573" lon="2.45121">
        <ele>58.1</ele>
        <time>2022-03-30T14:06:38Z</time>
      </trkpt>
      <trkpt lat="49.91572" lon="2.4512">
        <ele>58.1</ele>
        <time>2022-03-30T14:06:39Z</time>
      </trkpt>
      <trkpt lat="49.91571" lon="2.45119">
        <ele>58.1</ele>
        <time>2022-03-30T14:06:40Z</time>
      </trkpt>
      <trkpt lat="49.91571" lon="2.45118">
        <ele>58.2</ele>
        <time>2022-03-30T14:06:41Z</time>
      </trkpt>
      <trkpt lat="49.9157" lon="2.45117">
        <ele>58.2</ele>
        <time>2022-03-30T14:06:42Z</time>
      </trkpt>
      <trkpt lat="49.91569" lon="2.45116">
        <ele>58.2</ele>
        <time>2022-03-30T14:06:43Z</time>
      </trkpt>
      <trkpt lat="49.91568" lon="2.45116">
        <ele>58.3</ele>
        <time>2022-03-30T14:06:44Z</time>
      </trkpt>
      <trkpt lat="49.91568" lon="2.45115">
        <ele>58.3</ele>
        <time>2022-03-30T14:06:45Z</time>
      </trkpt>
      <trkpt lat="49.91567" lon="2.45114">
        <ele>58.4</ele>
        <time>2022-03-30T14:06:46Z</time>
      </trkpt>
      <trkpt lat="49.91566" lon="2.45113">
        <ele>58.4</ele>
        <time>2022-03-30T14:06:47Z</time>
      </trkpt>
      <trkpt lat="49.91565" lon="2.45112">
        <ele>58.5</ele>
        <time>2022-03-30T14:06:48Z</time>
      </trkpt>
      <trkpt lat="49.91564" lon="2.45111">
        <ele>58.5</ele>
        <time>2022-03-30T14:06:49Z</time>
      </trkpt>
      <trkpt lat="49.91563" lon="2.45111">
        <ele>58.5</ele>
        <time>2022-03-30T14:06:50Z</time>
      </trkpt>
      <trkpt lat="49.91563" lon="2.4511">
        <ele>58.6</ele>
        <time>2022-03-30T14:06:51Z</time>
      </trkpt>
      <trkpt lat="49.91562" lon="2.45109">
        <ele>58.6</ele>
        <time>2022-03-30T14:06:52Z</time>
      </trkpt>
      <trkpt lat="49.91561" lon="2.45108">
        <ele>58.7</ele>
        <time>2022-03-30T14:06:53Z</time>
      </trkpt>
      <trkpt lat="49.9156" lon="2.45108">
        <ele>58.7</ele>
        <time>2022-03-30T14:06:54Z</time>
      </trkpt>
      <trkpt lat="49.91559" lon="2.45107">
        <ele>58.8</ele>
        <time>2022-03-30T14:06:55Z</time>
      </trkpt>
      <trkpt lat="49.91558" lon="2.45106">
        <ele>58.8</ele>
        <time>2022-03-30T14:06:56Z</time>
      </trkpt>
      <trkpt lat="49.91557" lon="2.45105">
        <ele>58.9</ele>
        <time>2022-03-30T14:06:57Z</time>
      </trkpt>
      <trkpt lat="49.91556" lon="2.45104">
        <ele>58.9</ele>
        <time>2022-03-30T14:06:58Z</time>
      </trkpt>
      <trkpt lat="49.91556" lon="2.45103">
        <ele>59</ele>
        <time>2022-03-30T14:06:59Z</time>
      </trkpt>
      <trkpt lat="49.91555" lon="2.45102">
        <ele>59</ele>
        <time>2022-03-30T14:07:00Z</time>
      </trkpt>
      <trkpt lat="49.91554" lon="2.45101">
        <ele>59</ele>
        <time>2022-03-30T14:07:01Z</time>
      </trkpt>
      <trkpt lat="49.91553" lon="2.451">
        <ele>59.1</ele>
        <time>2022-03-30T14:07:02Z</time>
      </trkpt>
      <trkpt lat="49.91552" lon="2.45099">
        <ele>59.2</ele>
        <time>2022-03-30T14:07:03Z</time>
      </trkpt>
      <trkpt lat="49.91551" lon="2.45097">
        <ele>59.2</ele>
        <time>2022-03-30T14:07:04Z</time>
      </trkpt>
      <trkpt lat="49.9155" lon="2.45097">
        <ele>59.3</ele>
        <time>2022-03-30T14:07:05Z</time>
      </trkpt>
      <trkpt lat="49.91549" lon="2.45096">
        <ele>59.3</ele>
        <time>2022-03-30T14:07:06Z</time>
      </trkpt>
      <trkpt lat="49.91548" lon="2.45095">
        <ele>59.4</ele>
        <time>2022-03-30T14:07:07Z</time>
      </trkpt>
      <trkpt lat="49.91547" lon="2.45094">
        <ele>59.4</ele>
        <time>2022-03-30T14:07:08Z</time>
      </trkpt>
      <trkpt lat="49.91546" lon="2.45093">
        <ele>59.4</ele>
        <time>2022-03-30T14:07:09Z</time>
      </trkpt>
      <trkpt lat="49.91545" lon="2.45092">
        <ele>59.5</ele>
        <time>2022-03-30T14:07:10Z</time>
      </trkpt>
      <trkpt lat="49.91544" lon="2.45091">
        <ele>59.5</ele>
        <time>2022-03-30T14:07:11Z</time>
      </trkpt>
      <trkpt lat="49.91543" lon="2.4509">
        <ele>59.6</ele>
        <time>2022-03-30T14:07:12Z</time>
      </trkpt>
      <trkpt lat="49.91542" lon="2.4509">
        <ele>59.6</ele>
        <time>2022-03-30T14:07:13Z</time>
      </trkpt>
      <trkpt lat="49.91542" lon="2.45089">
        <ele>59.6</ele>
        <time>2022-03-30T14:07:14Z</time>
      </trkpt>
      <trkpt lat="49.91541" lon="2.45088">
        <ele>59.7</ele>
        <time>2022-03-30T14:07:15Z</time>
      </trkpt>
      <trkpt lat="49.9154" lon="2.45088">
        <ele>59.7</ele>
        <time>2022-03-30T14:07:16Z</time>
      </trkpt>
      <trkpt lat="49.91539" lon="2.45087">
        <ele>59.8</ele>
        <time>2022-03-30T14:07:17Z</time>
      </trkpt>
      <trkpt lat="49.91538" lon="2.45086">
        <ele>59.8</ele>
        <time>2022-03-30T14:07:18Z</time>
      </trkpt>
      <trkpt lat="49.91537" lon="2.45085">
        <ele>59.8</ele>
        <time>2022-03-30T14:07:19Z</time>
      </trkpt>
      <trkpt lat="49.91536" lon="2.45084">
        <ele>59.9</ele>
        <time>2022-03-30T14:07:20Z</time>
      </trkpt>
      <trkpt lat="49.91536" lon="2.45084">
        <ele>59.9</ele>
        <time>2022-03-30T14:07:21Z</time>
      </trkpt>
      <trkpt lat="49.91535" lon="2.45083">
        <ele>59.9</ele>
        <time>2022-03-30T14:07:22Z</time>
      </trkpt>
      <trkpt lat="49.91534" lon="2.45082">
        <ele>60</ele>
        <time>2022-03-30T14:07:23Z</time>
      </trkpt>
      <trkpt lat="49.91533" lon="2.45082">
        <ele>60</ele>
        <time>2022-03-30T14:07:24Z</time>
      </trkpt>
      <trkpt lat="49.91532" lon="2.45081">
        <ele>60</ele>
        <time>2022-03-30T14:07:25Z</time>
      </trkpt>
      <trkpt lat="49.91532" lon="2.4508">
        <ele>60.1</ele>
        <time>2022-03-30T14:07:26Z</time>
      </trkpt>
      <trkpt lat="49.91531" lon="2.45079">
        <ele>60.1</ele>
        <time>2022-03-30T14:07:27Z</time>
      </trkpt>
      <trkpt lat="49.9153" lon="2.45079">
        <ele>60.1</ele>
        <time>2022-03-30T14:07:28Z</time>
      </trkpt>
      <trkpt lat="49.9153" lon="2.45078">
        <ele>60.1</ele>
        <time>2022-03-30T14:07:29Z</time>
      </trkpt>
      <trkpt lat="49.91529" lon="2.45078">
        <ele>60.2</ele>
        <time>2022-03-30T14:07:30Z</time>
      </trkpt>
      <trkpt lat="49.91528" lon="2.45077">
        <ele>60.2</ele>
        <time>2022-03-30T14:07:31Z</time>
      </trkpt>
      <trkpt lat="49.91528" lon="2.45077">
        <ele>60.2</ele>
        <time>2022-03-30T14:07:32Z</time>
      </trkpt>
      <trkpt lat="49.91527" lon="2.45076">
        <ele>60.2</ele>
        <time>2022-03-30T14:07:33Z</time>
      </trkpt>
      <trkpt lat="49.91527" lon="2.45075">
        <ele>60.2</ele>
        <time>2022-03-30T14:07:34Z</time>
      </trkpt>
      <trkpt lat="49.91527" lon="2.45074">
        <ele>60.3</ele>
        <time>2022-03-30T14:07:35Z</time>
      </trkpt>
      <trkpt lat="49.91526" lon="2.45074">
        <ele>60.3</ele>
        <time>2022-03-30T14:07:36Z</time>
      </trkpt>
      <trkpt lat="49.91525" lon="2.45073">
        <ele>60.3</ele>
        <time>2022-03-30T14:07:37Z</time>
      </trkpt>
      <trkpt lat="49.91525" lon="2.45072">
        <ele>60.3</ele>
        <time>2022-03-30T14:07:38Z</time>
      </trkpt>
      <trkpt lat="49.91524" lon="2.45072">
        <ele>60.4</ele>
        <time>2022-03-30T14:07:39Z</time>
      </trkpt>
      <trkpt lat="49.91524" lon="2.45072">
        <ele>60.4</ele>
        <time>2022-03-30T14:07:40Z</time>
      </trkpt>
      <trkpt lat="49.91523" lon="2.45071">
        <ele>60.4</ele>
        <time>2022-03-30T14:07:41Z</time>
      </trkpt>
      <trkpt lat="49.91522" lon="2.45071">
        <ele>60.4</ele>
        <time>2022-03-30T14:07:42Z</time>
      </trkpt>
      <trkpt lat="49.91522" lon="2.45071">
        <ele>60.4</ele>
        <time>2022-03-30T14:07:43Z</time>
      </trkpt>
      <trkpt lat="49.91522" lon="2.45072">
        <ele>60.5</ele>
        <time>2022-03-30T14:07:44Z</time>
      </trkpt>
      <trkpt lat="49.91521" lon="2.45072">
        <ele>60.5</ele>
        <time>2022-03-30T14:07:45Z</time>
      </trkpt>
      <trkpt lat="49.91521" lon="2.45073">
        <ele>60.5</ele>
        <time>2022-03-30T14:07:46Z</time>
      </trkpt>
      <trkpt lat="49.91521" lon="2.45073">
        <ele>60.5</ele>
        <time>2022-03-30T14:07:47Z</time>
      </trkpt>
      <trkpt lat="49.91521" lon="2.45074">
        <ele>60.5</ele>
        <time>2022-03-30T14:07:48Z</time>
      </trkpt>
      <trkpt lat="49.91521" lon="2.45074">
        <ele>60.5</ele>
        <time>2022-03-30T14:07:49Z</time>
      </trkpt>
      <trkpt lat="49.91521" lon="2.45074">
        <ele>60.5</ele>
        <time>2022-03-30T14:07:50Z</time>
      </trkpt>
      <trkpt lat="49.91521" lon="2.45075">
        <ele>60.5</ele>
        <time>2022-03-30T14:07:51Z</time>
      </trkpt>
      <trkpt lat="49.91521" lon="2.45075">
        <ele>60.5</ele>
        <time>2022-03-30T14:07:52Z</time>
      </trkpt>
      <trkpt lat="49.91521" lon="2.45075">
        <ele>60.5</ele>
        <time>2022-03-30T14:07:53Z</time>
      </trkpt>
      <trkpt lat="49.91521" lon="2.45075">
        <ele>60.5</ele>
        <time>2022-03-30T14:07:54Z</time>
      </trkpt>
      <trkpt lat="49.91522" lon="2.45075">
        <ele>60.5</ele>
        <time>2022-03-30T14:07:55Z</time>
      </trkpt>
      <trkpt lat="49.91522" lon="2.45075">
        <ele>60.5</ele>
        <time>2022-03-30T14:07:56Z</time>
      </trkpt>
      <trkpt lat="49.91522" lon="2.45075">
        <ele>60.5</ele>
        <time>2022-03-30T14:07:57Z</time>
      </trkpt>
      <trkpt lat="49.91522" lon="2.45075">
        <ele>60.5</ele>
        <time>2022-03-30T14:07:58Z</time>
      </trkpt>
      <trkpt lat="49.91522" lon="2.45075">
        <ele>60.5</ele>
        <time>2022-03-30T14:07:59Z</time>
      </trkpt>
      <trkpt lat="49.91522" lon="2.45075">
        <ele>60.5</ele>
        <time>2022-03-30T14:08:00Z</time>
      </trkpt>
      <trkpt lat="49.91522" lon="2.45075">
        <ele>60.5</ele>
        <time>2022-03-30T14:08:01Z</time>
      </trkpt>
      <trkpt lat="49.91522" lon="2.45075">
        <ele>60.5</ele>
        <time>2022-03-30T14:08:02Z</time>
      </trkpt>
      <trkpt lat="49.91522" lon="2.45075">
        <ele>60.5</ele>
        <time>2022-03-30T14:08:03Z</time>
      </trkpt>
      <trkpt lat="49.91522" lon="2.45075">
        <ele>60.5</ele>
        <time>2022-03-30T14:08:04Z</time>
      </trkpt>
      <trkpt lat="49.91522" lon="2.45075">
        <ele>60.5</ele>
        <time>2022-03-30T14:08:05Z</time>
      </trkpt>
      <trkpt lat="49.91522" lon="2.45075">
        <ele>60.5</ele>
        <time>2022-03-30T14:08:06Z</time>
      </trkpt>
      <trkpt lat="49.91522" lon="2.45075">
        <ele>60.5</ele>
        <time>2022-03-30T14:08:07Z</time>
      </trkpt>
      <trkpt lat="49.91522" lon="2.45075">
        <ele>60.5</ele>
        <time>2022-03-30T14:08:08Z</time>
      </trkpt>
      <trkpt lat="49.91522" lon="2.45075">
        <ele>60.5</ele>
        <time>2022-03-30T14:08:09Z</time>
      </trkpt>
      <trkpt lat="49.91522" lon="2.45075">
        <ele>60.6</ele>
        <time>2022-03-30T14:08:10Z</time>
      </trkpt>
      <trkpt lat="49.91522" lon="2.45075">
        <ele>60.6</ele>
        <time>2022-03-30T14:08:11Z</time>
      </trkpt>
      <trkpt lat="49.91522" lon="2.45075">
        <ele>60.6</ele>
        <time>2022-03-30T14:08:12Z</time>
      </trkpt>
      <trkpt lat="49.91522" lon="2.45075">
        <ele>60.6</ele>
        <time>2022-03-30T14:08:13Z</time>
      </trkpt>
      <trkpt lat="49.91522" lon="2.45075">
        <ele>60.6</ele>
        <time>2022-03-30T14:08:14Z</time>
      </trkpt>
      <trkpt lat="49.91522" lon="2.45075">
        <ele>60.6</ele>
        <time>2022-03-30T14:08:15Z</time>
      </trkpt>
      <trkpt lat="49.91522" lon="2.45075">
        <ele>60.6</ele>
        <time>2022-03-30T14:08:16Z</time>
      </trkpt>
      <trkpt lat="49.91522" lon="2.45075">
        <ele>60.6</ele>
        <time>2022-03-30T14:08:17Z</time>
      </trkpt>
      <trkpt lat="49.91522" lon="2.45075">
        <ele>60.6</ele>
        <time>2022-03-30T14:08:18Z</time>
      </trkpt>
      <trkpt lat="49.91522" lon="2.45075">
        <ele>60.6</ele>
        <time>2022-03-30T14:08:19Z</time>
      </trkpt>
      <trkpt lat="49.91522" lon="2.45075">
        <ele>60.6</ele>
        <time>2022-03-30T14:08:20Z</time>
      </trkpt>
      <trkpt lat="49.91522" lon="2.45075">
        <ele>60.6</ele>
        <time>2022-03-30T14:08:21Z</time>
      </trkpt>
      <trkpt lat="49.91522" lon="2.45075">
        <ele>60.6</ele>
        <time>2022-03-30T14:08:22Z</time>
      </trkpt>
      <trkpt lat="49.91522" lon="2.45075">
        <ele>60.6</ele>
        <time>2022-03-30T14:08:23Z</time>
      </trkpt>
      <trkpt lat="49.91522" lon="2.45075">
        <ele>60.6</ele>
        <time>2022-03-30T14:08:24Z</time>
      </trkpt>
      <trkpt lat="49.91522" lon="2.45075">
        <ele>60.6</ele>
        <time>2022-03-30T14:08:25Z</time>
      </trkpt>
      <trkpt lat="49.91522" lon="2.45075">
        <ele>60.6</ele>
        <time>2022-03-30T14:08:26Z</time>
      </trkpt>
      <trkpt lat="49.91522" lon="2.45075">
        <ele>60.6</ele>
        <time>2022-03-30T14:08:27Z</time>
      </trkpt>
      <trkpt lat="49.91522" lon="2.45075">
        <ele>60.6</ele>
        <time>2022-03-30T14:08:28Z</time>
      </trkpt>
      <trkpt lat="49.91522" lon="2.45075">
        <ele>60.6</ele>
        <time>2022-03-30T14:08:29Z</time>
      </trkpt>
      <trkpt lat="49.91522" lon="2.45075">
        <ele>60.6</ele>
        <time>2022-03-30T14:08:30Z</time>
      </trkpt>
      <trkpt lat="49.91522" lon="2.45075">
        <ele>60.6</ele>
        <time>2022-03-30T14:08:31Z</time>
      </trkpt>
      <trkpt lat="49.91522" lon="2.45075">
        <ele>60.6</ele>
        <time>2022-03-30T14:08:32Z</time>
      </trkpt>
      <trkpt lat="49.91522" lon="2.45075">
        <ele>60.6</ele>
        <time>2022-03-30T14:08:33Z</time>
      </trkpt>
      <trkpt lat="49.91522" lon="2.45075">
        <ele>60.6</ele>
        <time>2022-03-30T14:08:34Z</time>
      </trkpt>
      <trkpt lat="49.91522" lon="2.45075">
        <ele>60.6</ele>
        <time>2022-03-30T14:08:35Z</time>
      </trkpt>
      <trkpt lat="49.91522" lon="2.45075">
        <ele>60.6</ele>
        <time>2022-03-30T14:08:36Z</time>
      </trkpt>
      <trkpt lat="49.91522" lon="2.45075">
        <ele>60.6</ele>
        <time>2022-03-30T14:08:37Z</time>
      </trkpt>
      <trkpt lat="49.91522" lon="2.45075">
        <ele>60.6</ele>
        <time>2022-03-30T14:08:38Z</time>
      </trkpt>
      <trkpt lat="49.91522" lon="2.45075">
        <ele>60.6</ele>
        <time>2022-03-30T14:08:39Z</time>
      </trkpt>
      <trkpt lat="49.91522" lon="2.45075">
        <ele>60.6</ele>
        <time>2022-03-30T14:08:40Z</time>
      </trkpt>
      <trkpt lat="49.91522" lon="2.45075">
        <ele>60.6</ele>
        <time>2022-03-30T14:08:41Z</time>
      </trkpt>
      <trkpt lat="49.91522" lon="2.45075">
        <ele>60.6</ele>
        <time>2022-03-30T14:08:42Z</time>
      </trkpt>
      <trkpt lat="49.91522" lon="2.45075">
        <ele>60.6</ele>
        <time>2022-03-30T14:08:43Z</time>
      </trkpt>
      <trkpt lat="49.91522" lon="2.45075">
        <ele>60.6</ele>
        <time>2022-03-30T14:08:44Z</time>
      </trkpt>
      <trkpt lat="49.91522" lon="2.45075">
        <ele>60.6</ele>
        <time>2022-03-30T14:08:45Z</time>
      </trkpt>
      <trkpt lat="49.91522" lon="2.45075">
        <ele>60.6</ele>
        <time>2022-03-30T14:08:46Z</time>
      </trkpt>
      <trkpt lat="49.91522" lon="2.45075">
        <ele>60.6</ele>
        <time>2022-03-30T14:08:47Z</time>
      </trkpt>
      <trkpt lat="49.91522" lon="2.45075">
        <ele>60.6</ele>
        <time>2022-03-30T14:08:48Z</time>
      </trkpt>
      <trkpt lat="49.91522" lon="2.45075">
        <ele>60.6</ele>
        <time>2022-03-30T14:08:49Z</time>
      </trkpt>
      <trkpt lat="49.91522" lon="2.45075">
        <ele>60.6</ele>
        <time>2022-03-30T14:08:50Z</time>
      </trkpt>
      <trkpt lat="49.91522" lon="2.45075">
        <ele>60.6</ele>
        <time>2022-03-30T14:08:51Z</time>
      </trkpt>
      <trkpt lat="49.91522" lon="2.45075">
        <ele>60.6</ele>
        <time>2022-03-30T14:08:52Z</time>
      </trkpt>
      <trkpt lat="49.91522" lon="2.45075">
        <ele>60.6</ele>
        <time>2022-03-30T14:08:53Z</time>
      </trkpt>
      <trkpt lat="49.91522" lon="2.45075">
        <ele>60.6</ele>
        <time>2022-03-30T14:08:54Z</time>
      </trkpt>
      <trkpt lat="49.91522" lon="2.45075">
        <ele>60.6</ele>
        <time>2022-03-30T14:08:55Z</time>
      </trkpt>
      <trkpt lat="49.91522" lon="2.45075">
        <ele>60.6</ele>
        <time>2022-03-30T14:08:56Z</time>
      </trkpt>
      <trkpt lat="49.91522" lon="2.45075">
        <ele>60.6</ele>
        <time>2022-03-30T14:08:57Z</time>
      </trkpt>
      <trkpt lat="49.91522" lon="2.45075">
        <ele>60.6</ele>
        <time>2022-03-30T14:08:58Z</time>
      </trkpt>
      <trkpt lat="49.91522" lon="2.45075">
        <ele>60.6</ele>
        <time>2022-03-30T14:08:59Z</time>
      </trkpt>
      <trkpt lat="49.91522" lon="2.45075">
        <ele>60.6</ele>
        <time>2022-03-30T14:09:00Z</time>
      </trkpt>
      <trkpt lat="49.91522" lon="2.45075">
        <ele>60.6</ele>
        <time>2022-03-30T14:09:01Z</time>
      </trkpt>
      <trkpt lat="49.91522" lon="2.45075">
        <ele>60.6</ele>
        <time>2022-03-30T14:09:02Z</time>
      </trkpt>
      <trkpt lat="49.91522" lon="2.45075">
        <ele>60.6</ele>
        <time>2022-03-30T14:09:03Z</time>
      </trkpt>
      <trkpt lat="49.91522" lon="2.45075">
        <ele>60.6</ele>
        <time>2022-03-30T14:09:04Z</time>
      </trkpt>
      <trkpt lat="49.91522" lon="2.45075">
        <ele>60.6</ele>
        <time>2022-03-30T14:09:05Z</time>
      </trkpt>
      <trkpt lat="49.91522" lon="2.45075">
        <ele>60.6</ele>
        <time>2022-03-30T14:09:06Z</time>
      </trkpt>
      <trkpt lat="49.91522" lon="2.45075">
        <ele>60.6</ele>
        <time>2022-03-30T14:09:07Z</time>
      </trkpt>
      <trkpt lat="49.91522" lon="2.45075">
        <ele>60.6</ele>
        <time>2022-03-30T14:09:08Z</time>
      </trkpt>
      <trkpt lat="49.91522" lon="2.45075">
        <ele>60.6</ele>
        <time>2022-03-30T14:09:09Z</time>
      </trkpt>
      <trkpt lat="49.91522" lon="2.45075">
        <ele>60.6</ele>
        <time>2022-03-30T14:09:10Z</time>
      </trkpt>
      <trkpt lat="49.91522" lon="2.45075">
        <ele>60.6</ele>
        <time>2022-03-30T14:09:11Z</time>
      </trkpt>
      <trkpt lat="49.91522" lon="2.45075">
        <ele>60.6</ele>
        <time>2022-03-30T14:09:12Z</time>
      </trkpt>
      <trkpt lat="49.91524" lon="2.45073">
        <ele>60.6</ele>
        <time>2022-03-30T14:09:13Z</time>
      </trkpt>
      <trkpt lat="49.91526" lon="2.45071">
        <ele>60.7</ele>
        <time>2022-03-30T14:09:14Z</time>
      </trkpt>
      <trkpt lat="49.91527" lon="2.45071">
        <ele>60.7</ele>
        <time>2022-03-30T14:09:15Z</time>
      </trkpt>
      <trkpt lat="49.91527" lon="2.4507">
        <ele>60.7</ele>
        <time>2022-03-30T14:09:16Z</time>
      </trkpt>
      <trkpt lat="49.91527" lon="2.4507">
        <ele>60.7</ele>
        <time>2022-03-30T14:09:17Z</time>
      </trkpt>
      <trkpt lat="49.91527" lon="2.4507">
        <ele>60.7</ele>
        <time>2022-03-30T14:09:18Z</time>
      </trkpt>
      <trkpt lat="49.91527" lon="2.4507">
        <ele>60.7</ele>
        <time>2022-03-30T14:09:19Z</time>
      </trkpt>
      <trkpt lat="49.91527" lon="2.4507">
        <ele>60.7</ele>
        <time>2022-03-30T14:09:20Z</time>
      </trkpt>
      <trkpt lat="49.91527" lon="2.4507">
        <ele>60.7</ele>
        <time>2022-03-30T14:09:21Z</time>
      </trkpt>
      <trkpt lat="49.91527" lon="2.4507">
        <ele>60.7</ele>
        <time>2022-03-30T14:09:22Z</time>
      </trkpt>
      <trkpt lat="49.91527" lon="2.4507">
        <ele>60.7</ele>
        <time>2022-03-30T14:09:23Z</time>
      </trkpt>
      <trkpt lat="49.91527" lon="2.4507">
        <ele>60.7</ele>
        <time>2022-03-30T14:09:24Z</time>
      </trkpt>
      <trkpt lat="49.91527" lon="2.4507">
        <ele>60.7</ele>
        <time>2022-03-30T14:09:25Z</time>
      </trkpt>
      <trkpt lat="49.91527" lon="2.4507">
        <ele>60.8</ele>
        <time>2022-03-30T14:09:26Z</time>
      </trkpt>
      <trkpt lat="49.91526" lon="2.4507">
        <ele>60.8</ele>
        <time>2022-03-30T14:09:27Z</time>
      </trkpt>
      <trkpt lat="49.91525" lon="2.45069">
        <ele>60.8</ele>
        <time>2022-03-30T14:09:28Z</time>
      </trkpt>
      <trkpt lat="49.91524" lon="2.45069">
        <ele>60.8</ele>
        <time>2022-03-30T14:09:29Z</time>
      </trkpt>
      <trkpt lat="49.91523" lon="2.45069">
        <ele>60.9</ele>
        <time>2022-03-30T14:09:30Z</time>
      </trkpt>
      <trkpt lat="49.91523" lon="2.45069">
        <ele>60.9</ele>
        <time>2022-03-30T14:09:31Z</time>
      </trkpt>
      <trkpt lat="49.91523" lon="2.45069">
        <ele>60.9</ele>
        <time>2022-03-30T14:09:32Z</time>
      </trkpt>
      <trkpt lat="49.91523" lon="2.45069">
        <ele>60.9</ele>
        <time>2022-03-30T14:09:33Z</time>
      </trkpt>
      <trkpt lat="49.91523" lon="2.45069">
        <ele>60.9</ele>
        <time>2022-03-30T14:09:34Z</time>
      </trkpt>
      <trkpt lat="49.91523" lon="2.45069">
        <ele>60.9</ele>
        <time>2022-03-30T14:09:35Z</time>
      </trkpt>
      <trkpt lat="49.91523" lon="2.45069">
        <ele>60.9</ele>
        <time>2022-03-30T14:09:36Z</time>
      </trkpt>
      <trkpt lat="49.91523" lon="2.45069">
        <ele>60.9</ele>
        <time>2022-03-30T14:09:37Z</time>
      </trkpt>
      <trkpt lat="49.91523" lon="2.45069">
        <ele>60.9</ele>
        <time>2022-03-30T14:09:38Z</time>
      </trkpt>
      <trkpt lat="49.91523" lon="2.45069">
        <ele>60.9</ele>
        <time>2022-03-30T14:09:39Z</time>
      </trkpt>
      <trkpt lat="49.91523" lon="2.45069">
        <ele>60.9</ele>
        <time>2022-03-30T14:09:40Z</time>
      </trkpt>
      <trkpt lat="49.91523" lon="2.45069">
        <ele>60.9</ele>
        <time>2022-03-30T14:09:41Z</time>
      </trkpt>
      <trkpt lat="49.91523" lon="2.45069">
        <ele>60.9</ele>
        <time>2022-03-30T14:09:42Z</time>
      </trkpt>
      <trkpt lat="49.91523" lon="2.45069">
        <ele>60.9</ele>
        <time>2022-03-30T14:09:43Z</time>
      </trkpt>
      <trkpt lat="49.91523" lon="2.45069">
        <ele>60.9</ele>
        <time>2022-03-30T14:09:44Z</time>
      </trkpt>
      <trkpt lat="49.91523" lon="2.45069">
        <ele>60.9</ele>
        <time>2022-03-30T14:09:45Z</time>
      </trkpt>
      <trkpt lat="49.91523" lon="2.45069">
        <ele>60.9</ele>
        <time>2022-03-30T14:09:46Z</time>
      </trkpt>
      <trkpt lat="49.91523" lon="2.45069">
        <ele>60.9</ele>
        <time>2022-03-30T14:09:47Z</time>
      </trkpt>
      <trkpt lat="49.91523" lon="2.45069">
        <ele>60.9</ele>
        <time>2022-03-30T14:09:48Z</time>
      </trkpt>
      <trkpt lat="49.91523" lon="2.45069">
        <ele>60.9</ele>
        <time>2022-03-30T14:09:49Z</time>
      </trkpt>
      <trkpt lat="49.91523" lon="2.45069">
        <ele>60.9</ele>
        <time>2022-03-30T14:09:50Z</time>
      </trkpt>
      <trkpt lat="49.91523" lon="2.45069">
        <ele>60.9</ele>
        <time>2022-03-30T14:09:51Z</time>
      </trkpt>
      <trkpt lat="49.91523" lon="2.45069">
        <ele>60.9</ele>
        <time>2022-03-30T14:09:52Z</time>
      </trkpt>
      <trkpt lat="49.91523" lon="2.45069">
        <ele>60.9</ele>
        <time>2022-03-30T14:09:53Z</time>
      </trkpt>
      <trkpt lat="49.91523" lon="2.45069">
        <ele>60.9</ele>
        <time>2022-03-30T14:09:54Z</time>
      </trkpt>
      <trkpt lat="49.91523" lon="2.45069">
        <ele>60.9</ele>
        <time>2022-03-30T14:09:55Z</time>
      </trkpt>
      <trkpt lat="49.91523" lon="2.45069">
        <ele>60.9</ele>
        <time>2022-03-30T14:09:56Z</time>
      </trkpt>
      <trkpt lat="49.91523" lon="2.45069">
        <ele>60.9</ele>
        <time>2022-03-30T14:09:57Z</time>
      </trkpt>
      <trkpt lat="49.91523" lon="2.45069">
        <ele>60.9</ele>
        <time>2022-03-30T14:09:58Z</time>
      </trkpt>
      <trkpt lat="49.91523" lon="2.45069">
        <ele>60.9</ele>
        <time>2022-03-30T14:09:59Z</time>
      </trkpt>
      <trkpt lat="49.91523" lon="2.45069">
        <ele>60.9</ele>
        <time>2022-03-30T14:10:00Z</time>
      </trkpt>
      <trkpt lat="49.91523" lon="2.45069">
        <ele>60.9</ele>
        <time>2022-03-30T14:10:01Z</time>
      </trkpt>
      <trkpt lat="49.91523" lon="2.45069">
        <ele>60.9</ele>
        <time>2022-03-30T14:10:02Z</time>
      </trkpt>
      <trkpt lat="49.91523" lon="2.45069">
        <ele>60.9</ele>
        <time>2022-03-30T14:10:03Z</time>
      </trkpt>
      <trkpt lat="49.91523" lon="2.45069">
        <ele>60.9</ele>
        <time>2022-03-30T14:10:04Z</time>
      </trkpt>
      <trkpt lat="49.91523" lon="2.45069">
        <ele>60.9</ele>
        <time>2022-03-30T14:10:05Z</time>
      </trkpt>
      <trkpt lat="49.91523" lon="2.45069">
        <ele>60.9</ele>
        <time>2022-03-30T14:10:06Z</time>
      </trkpt>
      <trkpt lat="49.91523" lon="2.45069">
        <ele>60.9</ele>
        <time>2022-03-30T14:10:07Z</time>
      </trkpt>
      <trkpt lat="49.91523" lon="2.45069">
        <ele>60.9</ele>
        <time>2022-03-30T14:10:08Z</time>
      </trkpt>
      <trkpt lat="49.91523" lon="2.45069">
        <ele>60.9</ele>
        <time>2022-03-30T14:10:09Z</time>
      </trkpt>
      <trkpt lat="49.91523" lon="2.45069">
        <ele>60.9</ele>
        <time>2022-03-30T14:10:10Z</time>
      </trkpt>
      <trkpt lat="49.91523" lon="2.45069">
        <ele>60.9</ele>
        <time>2022-03-30T14:10:11Z</time>
      </trkpt>
      <trkpt lat="49.91523" lon="2.45069">
        <ele>60.9</ele>
        <time>2022-03-30T14:10:12Z</time>
      </trkpt>
      <trkpt lat="49.91523" lon="2.45069">
        <ele>60.9</ele>
        <time>2022-03-30T14:10:13Z</time>
      </trkpt>
      <trkpt lat="49.91523" lon="2.45069">
        <ele>60.9</ele>
        <time>2022-03-30T14:10:14Z</time>
      </trkpt>
      <trkpt lat="49.91523" lon="2.45069">
        <ele>60.9</ele>
        <time>2022-03-30T14:10:15Z</time>
      </trkpt>
      <trkpt lat="49.91523" lon="2.45069">
        <ele>60.9</ele>
        <time>2022-03-30T14:10:16Z</time>
      </trkpt>
      <trkpt lat="49.91523" lon="2.45069">
        <ele>60.9</ele>
        <time>2022-03-30T14:10:17Z</time>
      </trkpt>
      <trkpt lat="49.91523" lon="2.45069">
        <ele>60.9</ele>
        <time>2022-03-30T14:10:18Z</time>
      </trkpt>
      <trkpt lat="49.91522" lon="2.45069">
        <ele>60.9</ele>
        <time>2022-03-30T14:10:19Z</time>
      </trkpt>
      <trkpt lat="49.91521" lon="2.45068">
        <ele>60.9</ele>
        <time>2022-03-30T14:10:20Z</time>
      </trkpt>
      <trkpt lat="49.9152" lon="2.45067">
        <ele>61</ele>
        <time>2022-03-30T14:10:21Z</time>
      </trkpt>
      <trkpt lat="49.91519" lon="2.45067">
        <ele>61</ele>
        <time>2022-03-30T14:10:22Z</time>
      </trkpt>
      <trkpt lat="49.91518" lon="2.45066">
        <ele>61</ele>
        <time>2022-03-30T14:10:23Z</time>
      </trkpt>
      <trkpt lat="49.91518" lon="2.45066">
        <ele>61.1</ele>
        <time>2022-03-30T14:10:24Z</time>
      </trkpt>
      <trkpt lat="49.91517" lon="2.45065">
        <ele>61.1</ele>
        <time>2022-03-30T14:10:25Z</time>
      </trkpt>
      <trkpt lat="49.91516" lon="2.45065">
        <ele>61.1</ele>
        <time>2022-03-30T14:10:26Z</time>
      </trkpt>
      <trkpt lat="49.91515" lon="2.45064">
        <ele>61.2</ele>
        <time>2022-03-30T14:10:27Z</time>
      </trkpt>
      <trkpt lat="49.91514" lon="2.45063">
        <ele>61.2</ele>
        <time>2022-03-30T14:10:28Z</time>
      </trkpt>
      <trkpt lat="49.91513" lon="2.45062">
        <ele>61.2</ele>
        <time>2022-03-30T14:10:29Z</time>
      </trkpt>
      <trkpt lat="49.91512" lon="2.45061">
        <ele>61.3</ele>
        <time>2022-03-30T14:10:30Z</time>
      </trkpt>
      <trkpt lat="49.91511" lon="2.45061">
        <ele>61.3</ele>
        <time>2022-03-30T14:10:31Z</time>
      </trkpt>
      <trkpt lat="49.9151" lon="2.4506">
        <ele>61.3</ele>
        <time>2022-03-30T14:10:32Z</time>
      </trkpt>
      <trkpt lat="49.91509" lon="2.45059">
        <ele>61.4</ele>
        <time>2022-03-30T14:10:33Z</time>
      </trkpt>
      <trkpt lat="49.91508" lon="2.45059">
        <ele>61.4</ele>
        <time>2022-03-30T14:10:34Z</time>
      </trkpt>
      <trkpt lat="49.91508" lon="2.45058">
        <ele>61.4</ele>
        <time>2022-03-30T14:10:35Z</time>
      </trkpt>
      <trkpt lat="49.91507" lon="2.45058">
        <ele>61.4</ele>
        <time>2022-03-30T14:10:36Z</time>
      </trkpt>
      <trkpt lat="49.91506" lon="2.45057">
        <ele>61.5</ele>
        <time>2022-03-30T14:10:37Z</time>
      </trkpt>
      <trkpt lat="49.91505" lon="2.45057">
        <ele>61.5</ele>
        <time>2022-03-30T14:10:38Z</time>
      </trkpt>
      <trkpt lat="49.91504" lon="2.45056">
        <ele>61.5</ele>
        <time>2022-03-30T14:10:39Z</time>
      </trkpt>
      <trkpt lat="49.91503" lon="2.45056">
        <ele>61.5</ele>
        <time>2022-03-30T14:10:40Z</time>
      </trkpt>
      <trkpt lat="49.91502" lon="2.45056">
        <ele>61.6</ele>
        <time>2022-03-30T14:10:41Z</time>
      </trkpt>
      <trkpt lat="49.91501" lon="2.45055">
        <ele>61.6</ele>
        <time>2022-03-30T14:10:42Z</time>
      </trkpt>
      <trkpt lat="49.915" lon="2.45054">
        <ele>61.6</ele>
        <time>2022-03-30T14:10:43Z</time>
      </trkpt>
      <trkpt lat="49.91499" lon="2.45053">
        <ele>61.6</ele>
        <time>2022-03-30T14:10:44Z</time>
      </trkpt>
      <trkpt lat="49.91498" lon="2.45052">
        <ele>61.6</ele>
        <time>2022-03-30T14:10:45Z</time>
      </trkpt>
      <trkpt lat="49.91498" lon="2.45051">
        <ele>61.7</ele>
        <time>2022-03-30T14:10:46Z</time>
      </trkpt>
      <trkpt lat="49.91497" lon="2.45051">
        <ele>61.7</ele>
        <time>2022-03-30T14:10:47Z</time>
      </trkpt>
      <trkpt lat="49.91495" lon="2.4505">
        <ele>61.7</ele>
        <time>2022-03-30T14:10:48Z</time>
      </trkpt>
      <trkpt lat="49.91494" lon="2.45049">
        <ele>61.7</ele>
        <time>2022-03-30T14:10:49Z</time>
      </trkpt>
      <trkpt lat="49.91493" lon="2.45049">
        <ele>61.7</ele>
        <time>2022-03-30T14:10:50Z</time>
      </trkpt>
      <trkpt lat="49.91493" lon="2.45049">
        <ele>61.7</ele>
        <time>2022-03-30T14:10:51Z</time>
      </trkpt>
      <trkpt lat="49.91493" lon="2.45049">
        <ele>61.7</ele>
        <time>2022-03-30T14:10:52Z</time>
      </trkpt>
      <trkpt lat="49.91493" lon="2.45049">
        <ele>61.7</ele>
        <time>2022-03-30T14:10:53Z</time>
      </trkpt>
      <trkpt lat="49.91491" lon="2.45048">
        <ele>61.8</ele>
        <time>2022-03-30T14:10:54Z</time>
      </trkpt>
      <trkpt lat="49.9149" lon="2.45047">
        <ele>61.8</ele>
        <time>2022-03-30T14:10:55Z</time>
      </trkpt>
      <trkpt lat="49.91489" lon="2.45046">
        <ele>61.8</ele>
        <time>2022-03-30T14:10:56Z</time>
      </trkpt>
      <trkpt lat="49.91487" lon="2.45045">
        <ele>61.8</ele>
        <time>2022-03-30T14:10:57Z</time>
      </trkpt>
      <trkpt lat="49.91486" lon="2.45044">
        <ele>61.8</ele>
        <time>2022-03-30T14:10:58Z</time>
      </trkpt>
      <trkpt lat="49.91485" lon="2.45043">
        <ele>61.9</ele>
        <time>2022-03-30T14:10:59Z</time>
      </trkpt>
      <trkpt lat="49.91483" lon="2.45042">
        <ele>61.9</ele>
        <time>2022-03-30T14:11:00Z</time>
      </trkpt>
      <trkpt lat="49.91482" lon="2.45041">
        <ele>61.9</ele>
        <time>2022-03-30T14:11:01Z</time>
      </trkpt>
      <trkpt lat="49.9148" lon="2.4504">
        <ele>61.9</ele>
        <time>2022-03-30T14:11:02Z</time>
      </trkpt>
      <trkpt lat="49.91479" lon="2.45039">
        <ele>61.9</ele>
        <time>2022-03-30T14:11:03Z</time>
      </trkpt>
      <trkpt lat="49.91479" lon="2.45039">
        <ele>61.9</ele>
        <time>2022-03-30T14:11:04Z</time>
      </trkpt>
      <trkpt lat="49.91478" lon="2.45038">
        <ele>61.9</ele>
        <time>2022-03-30T14:11:05Z</time>
      </trkpt>
      <trkpt lat="49.91477" lon="2.45037">
        <ele>61.9</ele>
        <time>2022-03-30T14:11:06Z</time>
      </trkpt>
      <trkpt lat="49.91476" lon="2.45036">
        <ele>61.9</ele>
        <time>2022-03-30T14:11:07Z</time>
      </trkpt>
      <trkpt lat="49.91475" lon="2.45035">
        <ele>61.9</ele>
        <time>2022-03-30T14:11:08Z</time>
      </trkpt>
      <trkpt lat="49.91475" lon="2.45035">
        <ele>62</ele>
        <time>2022-03-30T14:11:09Z</time>
      </trkpt>
      <trkpt lat="49.91474" lon="2.45034">
        <ele>62</ele>
        <time>2022-03-30T14:11:10Z</time>
      </trkpt>
      <trkpt lat="49.91472" lon="2.45032">
        <ele>62</ele>
        <time>2022-03-30T14:11:11Z</time>
      </trkpt>
      <trkpt lat="49.91471" lon="2.45031">
        <ele>62</ele>
        <time>2022-03-30T14:11:12Z</time>
      </trkpt>
      <trkpt lat="49.91471" lon="2.4503">
        <ele>62</ele>
        <time>2022-03-30T14:11:13Z</time>
      </trkpt>
      <trkpt lat="49.91469" lon="2.45029">
        <ele>62</ele>
        <time>2022-03-30T14:11:14Z</time>
      </trkpt>
      <trkpt lat="49.91468" lon="2.45028">
        <ele>62</ele>
        <time>2022-03-30T14:11:15Z</time>
      </trkpt>
      <trkpt lat="49.91467" lon="2.45026">
        <ele>62</ele>
        <time>2022-03-30T14:11:16Z</time>
      </trkpt>
      <trkpt lat="49.91466" lon="2.45025">
        <ele>62.1</ele>
        <time>2022-03-30T14:11:17Z</time>
      </trkpt>
      <trkpt lat="49.91464" lon="2.45024">
        <ele>62.1</ele>
        <time>2022-03-30T14:11:18Z</time>
      </trkpt>
      <trkpt lat="49.91463" lon="2.45023">
        <ele>62.1</ele>
        <time>2022-03-30T14:11:19Z</time>
      </trkpt>
      <trkpt lat="49.91462" lon="2.45022">
        <ele>62.1</ele>
        <time>2022-03-30T14:11:20Z</time>
      </trkpt>
      <trkpt lat="49.91461" lon="2.45021">
        <ele>62.1</ele>
        <time>2022-03-30T14:11:21Z</time>
      </trkpt>
      <trkpt lat="49.9146" lon="2.45021">
        <ele>62.1</ele>
        <time>2022-03-30T14:11:22Z</time>
      </trkpt>
      <trkpt lat="49.9146" lon="2.4502">
        <ele>62.1</ele>
        <time>2022-03-30T14:11:23Z</time>
      </trkpt>
      <trkpt lat="49.91459" lon="2.45019">
        <ele>62.1</ele>
        <time>2022-03-30T14:11:24Z</time>
      </trkpt>
      <trkpt lat="49.91457" lon="2.45019">
        <ele>62.1</ele>
        <time>2022-03-30T14:11:25Z</time>
      </trkpt>
      <trkpt lat="49.91456" lon="2.45018">
        <ele>62.1</ele>
        <time>2022-03-30T14:11:26Z</time>
      </trkpt>
      <trkpt lat="49.91455" lon="2.45017">
        <ele>62.2</ele>
        <time>2022-03-30T14:11:27Z</time>
      </trkpt>
      <trkpt lat="49.91455" lon="2.45017">
        <ele>62.2</ele>
        <time>2022-03-30T14:11:28Z</time>
      </trkpt>
      <trkpt lat="49.91454" lon="2.45016">
        <ele>62.2</ele>
        <time>2022-03-30T14:11:29Z</time>
      </trkpt>
      <trkpt lat="49.91453" lon="2.45015">
        <ele>62.2</ele>
        <time>2022-03-30T14:11:30Z</time>
      </trkpt>
      <trkpt lat="49.91452" lon="2.45014">
        <ele>62.2</ele>
        <time>2022-03-30T14:11:31Z</time>
      </trkpt>
      <trkpt lat="49.9145" lon="2.45013">
        <ele>62.2</ele>
        <time>2022-03-30T14:11:32Z</time>
      </trkpt>
      <trkpt lat="49.91449" lon="2.45012">
        <ele>62.2</ele>
        <time>2022-03-30T14:11:33Z</time>
      </trkpt>
      <trkpt lat="49.91448" lon="2.45012">
        <ele>62.2</ele>
        <time>2022-03-30T14:11:34Z</time>
      </trkpt>
      <trkpt lat="49.91446" lon="2.4501">
        <ele>62.2</ele>
        <time>2022-03-30T14:11:35Z</time>
      </trkpt>
      <trkpt lat="49.91445" lon="2.4501">
        <ele>62.2</ele>
        <time>2022-03-30T14:11:36Z</time>
      </trkpt>
      <trkpt lat="49.91444" lon="2.45009">
        <ele>62.2</ele>
        <time>2022-03-30T14:11:37Z</time>
      </trkpt>
      <trkpt lat="49.91443" lon="2.45009">
        <ele>62.2</ele>
        <time>2022-03-30T14:11:38Z</time>
      </trkpt>
      <trkpt lat="49.91442" lon="2.45008">
        <ele>62.2</ele>
        <time>2022-03-30T14:11:39Z</time>
      </trkpt>
      <trkpt lat="49.9144" lon="2.45006">
        <ele>62.2</ele>
        <time>2022-03-30T14:11:40Z</time>
      </trkpt>
      <trkpt lat="49.91439" lon="2.45006">
        <ele>62.2</ele>
        <time>2022-03-30T14:11:41Z</time>
      </trkpt>
      <trkpt lat="49.91439" lon="2.45005">
        <ele>62.2</ele>
        <time>2022-03-30T14:11:42Z</time>
      </trkpt>
      <trkpt lat="49.91437" lon="2.45004">
        <ele>62.2</ele>
        <time>2022-03-30T14:11:43Z</time>
      </trkpt>
      <trkpt lat="49.91436" lon="2.45004">
        <ele>62.2</ele>
        <time>2022-03-30T14:11:44Z</time>
      </trkpt>
      <trkpt lat="49.91436" lon="2.45003">
        <ele>62.1</ele>
        <time>2022-03-30T14:11:45Z</time>
      </trkpt>
      <trkpt lat="49.91435" lon="2.45003">
        <ele>62.1</ele>
        <time>2022-03-30T14:11:46Z</time>
      </trkpt>
      <trkpt lat="49.91434" lon="2.45002">
        <ele>62.1</ele>
        <time>2022-03-30T14:11:47Z</time>
      </trkpt>
      <trkpt lat="49.91433" lon="2.45001">
        <ele>62.1</ele>
        <time>2022-03-30T14:11:48Z</time>
      </trkpt>
      <trkpt lat="49.91432" lon="2.45001">
        <ele>62.1</ele>
        <time>2022-03-30T14:11:49Z</time>
      </trkpt>
      <trkpt lat="49.91431" lon="2.45">
        <ele>62.1</ele>
        <time>2022-03-30T14:11:50Z</time>
      </trkpt>
      <trkpt lat="49.9143" lon="2.45">
        <ele>62.1</ele>
        <time>2022-03-30T14:11:51Z</time>
      </trkpt>
      <trkpt lat="49.91429" lon="2.44999">
        <ele>62.1</ele>
        <time>2022-03-30T14:11:52Z</time>
      </trkpt>
      <trkpt lat="49.91428" lon="2.44998">
        <ele>62.1</ele>
        <time>2022-03-30T14:11:53Z</time>
      </trkpt>
      <trkpt lat="49.91427" lon="2.44998">
        <ele>62</ele>
        <time>2022-03-30T14:11:54Z</time>
      </trkpt>
      <trkpt lat="49.91426" lon="2.44997">
        <ele>62</ele>
        <time>2022-03-30T14:11:55Z</time>
      </trkpt>
      <trkpt lat="49.91425" lon="2.44996">
        <ele>62</ele>
        <time>2022-03-30T14:11:56Z</time>
      </trkpt>
      <trkpt lat="49.91424" lon="2.44996">
        <ele>62</ele>
        <time>2022-03-30T14:11:57Z</time>
      </trkpt>
      <trkpt lat="49.91423" lon="2.44995">
        <ele>62</ele>
        <time>2022-03-30T14:11:58Z</time>
      </trkpt>
      <trkpt lat="49.91423" lon="2.44995">
        <ele>62</ele>
        <time>2022-03-30T14:11:59Z</time>
      </trkpt>
      <trkpt lat="49.91422" lon="2.44994">
        <ele>61.9</ele>
        <time>2022-03-30T14:12:00Z</time>
      </trkpt>
      <trkpt lat="49.91421" lon="2.44993">
        <ele>61.9</ele>
        <time>2022-03-30T14:12:01Z</time>
      </trkpt>
      <trkpt lat="49.9142" lon="2.44993">
        <ele>61.9</ele>
        <time>2022-03-30T14:12:02Z</time>
      </trkpt>
      <trkpt lat="49.91419" lon="2.44992">
        <ele>61.9</ele>
        <time>2022-03-30T14:12:03Z</time>
      </trkpt>
      <trkpt lat="49.91418" lon="2.44991">
        <ele>61.9</ele>
        <time>2022-03-30T14:12:04Z</time>
      </trkpt>
      <trkpt lat="49.91417" lon="2.44991">
        <ele>61.9</ele>
        <time>2022-03-30T14:12:05Z</time>
      </trkpt>
      <trkpt lat="49.91416" lon="2.4499">
        <ele>61.8</ele>
        <time>2022-03-30T14:12:06Z</time>
      </trkpt>
      <trkpt lat="49.91415" lon="2.4499">
        <ele>61.8</ele>
        <time>2022-03-30T14:12:07Z</time>
      </trkpt>
      <trkpt lat="49.91413" lon="2.44989">
        <ele>61.8</ele>
        <time>2022-03-30T14:12:08Z</time>
      </trkpt>
      <trkpt lat="49.91412" lon="2.44988">
        <ele>61.8</ele>
        <time>2022-03-30T14:12:09Z</time>
      </trkpt>
      <trkpt lat="49.91411" lon="2.44987">
        <ele>61.7</ele>
        <time>2022-03-30T14:12:10Z</time>
      </trkpt>
      <trkpt lat="49.9141" lon="2.44987">
        <ele>61.7</ele>
        <time>2022-03-30T14:12:11Z</time>
      </trkpt>
      <trkpt lat="49.91408" lon="2.44986">
        <ele>61.7</ele>
        <time>2022-03-30T14:12:12Z</time>
      </trkpt>
      <trkpt lat="49.91408" lon="2.44986">
        <ele>61.7</ele>
        <time>2022-03-30T14:12:13Z</time>
      </trkpt>
      <trkpt lat="49.91407" lon="2.44985">
        <ele>61.7</ele>
        <time>2022-03-30T14:12:14Z</time>
      </trkpt>
      <trkpt lat="49.91406" lon="2.44985">
        <ele>61.6</ele>
        <time>2022-03-30T14:12:15Z</time>
      </trkpt>
      <trkpt lat="49.91404" lon="2.44983">
        <ele>61.6</ele>
        <time>2022-03-30T14:12:16Z</time>
      </trkpt>
      <trkpt lat="49.91403" lon="2.44983">
        <ele>61.6</ele>
        <time>2022-03-30T14:12:17Z</time>
      </trkpt>
      <trkpt lat="49.91402" lon="2.44982">
        <ele>61.6</ele>
        <time>2022-03-30T14:12:18Z</time>
      </trkpt>
      <trkpt lat="49.914" lon="2.44981">
        <ele>61.5</ele>
        <time>2022-03-30T14:12:19Z</time>
      </trkpt>
      <trkpt lat="49.91399" lon="2.44981">
        <ele>61.5</ele>
        <time>2022-03-30T14:12:20Z</time>
      </trkpt>
      <trkpt lat="49.91398" lon="2.44981">
        <ele>61.5</ele>
        <time>2022-03-30T14:12:21Z</time>
      </trkpt>
      <trkpt lat="49.91396" lon="2.44979">
        <ele>61.5</ele>
        <time>2022-03-30T14:12:22Z</time>
      </trkpt>
      <trkpt lat="49.91396" lon="2.44979">
        <ele>61.5</ele>
        <time>2022-03-30T14:12:23Z</time>
      </trkpt>
      <trkpt lat="49.91395" lon="2.44978">
        <ele>61.4</ele>
        <time>2022-03-30T14:12:24Z</time>
      </trkpt>
      <trkpt lat="49.91393" lon="2.44977">
        <ele>61.4</ele>
        <time>2022-03-30T14:12:25Z</time>
      </trkpt>
      <trkpt lat="49.91392" lon="2.44977">
        <ele>61.4</ele>
        <time>2022-03-30T14:12:26Z</time>
      </trkpt>
      <trkpt lat="49.91391" lon="2.44976">
        <ele>61.4</ele>
        <time>2022-03-30T14:12:27Z</time>
      </trkpt>
      <trkpt lat="49.9139" lon="2.44976">
        <ele>61.3</ele>
        <time>2022-03-30T14:12:28Z</time>
      </trkpt>
      <trkpt lat="49.91389" lon="2.44975">
        <ele>61.3</ele>
        <time>2022-03-30T14:12:29Z</time>
      </trkpt>
      <trkpt lat="49.91388" lon="2.44975">
        <ele>61.3</ele>
        <time>2022-03-30T14:12:30Z</time>
      </trkpt>
      <trkpt lat="49.91387" lon="2.44974">
        <ele>61.3</ele>
        <time>2022-03-30T14:12:31Z</time>
      </trkpt>
      <trkpt lat="49.91386" lon="2.44973">
        <ele>61.3</ele>
        <time>2022-03-30T14:12:32Z</time>
      </trkpt>
      <trkpt lat="49.91385" lon="2.44973">
        <ele>61.2</ele>
        <time>2022-03-30T14:12:33Z</time>
      </trkpt>
      <trkpt lat="49.91384" lon="2.44972">
        <ele>61.2</ele>
        <time>2022-03-30T14:12:34Z</time>
      </trkpt>
      <trkpt lat="49.91383" lon="2.44971">
        <ele>61.2</ele>
        <time>2022-03-30T14:12:35Z</time>
      </trkpt>
      <trkpt lat="49.91382" lon="2.44971">
        <ele>61.2</ele>
        <time>2022-03-30T14:12:36Z</time>
      </trkpt>
      <trkpt lat="49.91381" lon="2.4497">
        <ele>61.2</ele>
        <time>2022-03-30T14:12:37Z</time>
      </trkpt>
      <trkpt lat="49.9138" lon="2.4497">
        <ele>61.1</ele>
        <time>2022-03-30T14:12:38Z</time>
      </trkpt>
      <trkpt lat="49.91379" lon="2.44969">
        <ele>61.1</ele>
        <time>2022-03-30T14:12:39Z</time>
      </trkpt>
      <trkpt lat="49.91378" lon="2.44969">
        <ele>61.1</ele>
        <time>2022-03-30T14:12:40Z</time>
      </trkpt>
      <trkpt lat="49.91377" lon="2.44968">
        <ele>61.1</ele>
        <time>2022-03-30T14:12:41Z</time>
      </trkpt>
      <trkpt lat="49.91375" lon="2.44967">
        <ele>61</ele>
        <time>2022-03-30T14:12:42Z</time>
      </trkpt>
      <trkpt lat="49.91374" lon="2.44967">
        <ele>61</ele>
        <time>2022-03-30T14:12:43Z</time>
      </trkpt>
      <trkpt lat="49.91374" lon="2.44966">
        <ele>61</ele>
        <time>2022-03-30T14:12:44Z</time>
      </trkpt>
      <trkpt lat="49.91373" lon="2.44966">
        <ele>61</ele>
        <time>2022-03-30T14:12:45Z</time>
      </trkpt>
      <trkpt lat="49.91371" lon="2.44965">
        <ele>61</ele>
        <time>2022-03-30T14:12:46Z</time>
      </trkpt>
      <trkpt lat="49.9137" lon="2.44964">
        <ele>60.9</ele>
        <time>2022-03-30T14:12:47Z</time>
      </trkpt>
      <trkpt lat="49.91369" lon="2.44964">
        <ele>60.9</ele>
        <time>2022-03-30T14:12:48Z</time>
      </trkpt>
      <trkpt lat="49.91368" lon="2.44963">
        <ele>60.9</ele>
        <time>2022-03-30T14:12:49Z</time>
      </trkpt>
      <trkpt lat="49.91367" lon="2.44962">
        <ele>60.9</ele>
        <time>2022-03-30T14:12:50Z</time>
      </trkpt>
      <trkpt lat="49.91366" lon="2.44962">
        <ele>60.9</ele>
        <time>2022-03-30T14:12:51Z</time>
      </trkpt>
      <trkpt lat="49.91365" lon="2.44961">
        <ele>60.8</ele>
        <time>2022-03-30T14:12:52Z</time>
      </trkpt>
      <trkpt lat="49.91364" lon="2.4496">
        <ele>60.8</ele>
        <time>2022-03-30T14:12:53Z</time>
      </trkpt>
      <trkpt lat="49.91363" lon="2.4496">
        <ele>60.8</ele>
        <time>2022-03-30T14:12:54Z</time>
      </trkpt>
      <trkpt lat="49.91361" lon="2.44958">
        <ele>60.7</ele>
        <time>2022-03-30T14:12:55Z</time>
      </trkpt>
      <trkpt lat="49.9136" lon="2.44958">
        <ele>60.7</ele>
        <time>2022-03-30T14:12:56Z</time>
      </trkpt>
      <trkpt lat="49.9136" lon="2.44957">
        <ele>60.7</ele>
        <time>2022-03-30T14:12:57Z</time>
      </trkpt>
      <trkpt lat="49.91359" lon="2.44957">
        <ele>60.7</ele>
        <time>2022-03-30T14:12:58Z</time>
      </trkpt>
      <trkpt lat="49.91358" lon="2.44956">
        <ele>60.7</ele>
        <time>2022-03-30T14:12:59Z</time>
      </trkpt>
      <trkpt lat="49.91357" lon="2.44955">
        <ele>60.7</ele>
        <time>2022-03-30T14:13:00Z</time>
      </trkpt>
      <trkpt lat="49.91356" lon="2.44955">
        <ele>60.6</ele>
        <time>2022-03-30T14:13:01Z</time>
      </trkpt>
      <trkpt lat="49.91355" lon="2.44954">
        <ele>60.6</ele>
        <time>2022-03-30T14:13:02Z</time>
      </trkpt>
      <trkpt lat="49.91354" lon="2.44953">
        <ele>60.6</ele>
        <time>2022-03-30T14:13:03Z</time>
      </trkpt>
      <trkpt lat="49.91353" lon="2.44952">
        <ele>60.6</ele>
        <time>2022-03-30T14:13:04Z</time>
      </trkpt>
      <trkpt lat="49.91352" lon="2.44951">
        <ele>60.6</ele>
        <time>2022-03-30T14:13:05Z</time>
      </trkpt>
      <trkpt lat="49.91351" lon="2.4495">
        <ele>60.5</ele>
        <time>2022-03-30T14:13:06Z</time>
      </trkpt>
      <trkpt lat="49.91349" lon="2.44949">
        <ele>60.5</ele>
        <time>2022-03-30T14:13:07Z</time>
      </trkpt>
      <trkpt lat="49.91348" lon="2.44949">
        <ele>60.5</ele>
        <time>2022-03-30T14:13:08Z</time>
      </trkpt>
      <trkpt lat="49.91348" lon="2.44948">
        <ele>60.5</ele>
        <time>2022-03-30T14:13:09Z</time>
      </trkpt>
      <trkpt lat="49.91347" lon="2.44947">
        <ele>60.5</ele>
        <time>2022-03-30T14:13:10Z</time>
      </trkpt>
      <trkpt lat="49.91346" lon="2.44947">
        <ele>60.5</ele>
        <time>2022-03-30T14:13:11Z</time>
      </trkpt>
      <trkpt lat="49.91345" lon="2.44946">
        <ele>60.4</ele>
        <time>2022-03-30T14:13:12Z</time>
      </trkpt>
      <trkpt lat="49.91343" lon="2.44945">
        <ele>60.4</ele>
        <time>2022-03-30T14:13:13Z</time>
      </trkpt>
      <trkpt lat="49.91342" lon="2.44944">
        <ele>60.4</ele>
        <time>2022-03-30T14:13:14Z</time>
      </trkpt>
      <trkpt lat="49.91342" lon="2.44943">
        <ele>60.4</ele>
        <time>2022-03-30T14:13:15Z</time>
      </trkpt>
      <trkpt lat="49.9134" lon="2.44942">
        <ele>60.4</ele>
        <time>2022-03-30T14:13:16Z</time>
      </trkpt>
      <trkpt lat="49.91339" lon="2.44942">
        <ele>60.4</ele>
        <time>2022-03-30T14:13:17Z</time>
      </trkpt>
      <trkpt lat="49.91338" lon="2.44941">
        <ele>60.4</ele>
        <time>2022-03-30T14:13:18Z</time>
      </trkpt>
      <trkpt lat="49.91336" lon="2.4494">
        <ele>60.3</ele>
        <time>2022-03-30T14:13:19Z</time>
      </trkpt>
      <trkpt lat="49.91336" lon="2.44939">
        <ele>60.3</ele>
        <time>2022-03-30T14:13:20Z</time>
      </trkpt>
      <trkpt lat="49.91335" lon="2.44939">
        <ele>60.3</ele>
        <time>2022-03-30T14:13:21Z</time>
      </trkpt>
      <trkpt lat="49.91333" lon="2.44938">
        <ele>60.3</ele>
        <time>2022-03-30T14:13:22Z</time>
      </trkpt>
      <trkpt lat="49.91332" lon="2.44937">
        <ele>60.3</ele>
        <time>2022-03-30T14:13:23Z</time>
      </trkpt>
      <trkpt lat="49.91331" lon="2.44937">
        <ele>60.3</ele>
        <time>2022-03-30T14:13:24Z</time>
      </trkpt>
      <trkpt lat="49.9133" lon="2.44936">
        <ele>60.2</ele>
        <time>2022-03-30T14:13:25Z</time>
      </trkpt>
      <trkpt lat="49.91329" lon="2.44936">
        <ele>60.2</ele>
        <time>2022-03-30T14:13:26Z</time>
      </trkpt>
      <trkpt lat="49.91328" lon="2.44935">
        <ele>60.2</ele>
        <time>2022-03-30T14:13:27Z</time>
      </trkpt>
      <trkpt lat="49.91327" lon="2.44935">
        <ele>60.2</ele>
        <time>2022-03-30T14:13:28Z</time>
      </trkpt>
      <trkpt lat="49.91326" lon="2.44934">
        <ele>60.2</ele>
        <time>2022-03-30T14:13:29Z</time>
      </trkpt>
      <trkpt lat="49.91325" lon="2.44933">
        <ele>60.2</ele>
        <time>2022-03-30T14:13:30Z</time>
      </trkpt>
      <trkpt lat="49.91324" lon="2.44933">
        <ele>60.2</ele>
        <time>2022-03-30T14:13:31Z</time>
      </trkpt>
      <trkpt lat="49.91323" lon="2.44932">
        <ele>60.2</ele>
        <time>2022-03-30T14:13:32Z</time>
      </trkpt>
      <trkpt lat="49.91322" lon="2.44931">
        <ele>60.2</ele>
        <time>2022-03-30T14:13:33Z</time>
      </trkpt>
      <trkpt lat="49.91321" lon="2.44931">
        <ele>60.1</ele>
        <time>2022-03-30T14:13:34Z</time>
      </trkpt>
      <trkpt lat="49.9132" lon="2.4493">
        <ele>60.1</ele>
        <time>2022-03-30T14:13:35Z</time>
      </trkpt>
      <trkpt lat="49.91318" lon="2.44929">
        <ele>60.1</ele>
        <time>2022-03-30T14:13:36Z</time>
      </trkpt>
      <trkpt lat="49.91317" lon="2.44928">
        <ele>60.1</ele>
        <time>2022-03-30T14:13:37Z</time>
      </trkpt>
      <trkpt lat="49.91316" lon="2.44928">
        <ele>60.1</ele>
        <time>2022-03-30T14:13:38Z</time>
      </trkpt>
      <trkpt lat="49.91315" lon="2.44927">
        <ele>60</ele>
        <time>2022-03-30T14:13:39Z</time>
      </trkpt>
      <trkpt lat="49.91315" lon="2.44926">
        <ele>60</ele>
        <time>2022-03-30T14:13:40Z</time>
      </trkpt>
      <trkpt lat="49.91314" lon="2.44926">
        <ele>60</ele>
        <time>2022-03-30T14:13:41Z</time>
      </trkpt>
      <trkpt lat="49.91313" lon="2.44925">
        <ele>60</ele>
        <time>2022-03-30T14:13:42Z</time>
      </trkpt>
      <trkpt lat="49.91312" lon="2.44924">
        <ele>60</ele>
        <time>2022-03-30T14:13:43Z</time>
      </trkpt>
      <trkpt lat="49.91311" lon="2.44924">
        <ele>60</ele>
        <time>2022-03-30T14:13:44Z</time>
      </trkpt>
      <trkpt lat="49.91309" lon="2.44922">
        <ele>59.9</ele>
        <time>2022-03-30T14:13:45Z</time>
      </trkpt>
      <trkpt lat="49.91308" lon="2.44922">
        <ele>59.9</ele>
        <time>2022-03-30T14:13:46Z</time>
      </trkpt>
      <trkpt lat="49.91307" lon="2.44921">
        <ele>59.9</ele>
        <time>2022-03-30T14:13:47Z</time>
      </trkpt>
      <trkpt lat="49.91305" lon="2.4492">
        <ele>59.9</ele>
        <time>2022-03-30T14:13:48Z</time>
      </trkpt>
      <trkpt lat="49.91305" lon="2.44919">
        <ele>59.8</ele>
        <time>2022-03-30T14:13:49Z</time>
      </trkpt>
      <trkpt lat="49.91304" lon="2.44918">
        <ele>59.8</ele>
        <time>2022-03-30T14:13:50Z</time>
      </trkpt>
      <trkpt lat="49.91302" lon="2.44917">
        <ele>59.8</ele>
        <time>2022-03-30T14:13:51Z</time>
      </trkpt>
      <trkpt lat="49.91301" lon="2.44917">
        <ele>59.8</ele>
        <time>2022-03-30T14:13:52Z</time>
      </trkpt>
      <trkpt lat="49.913" lon="2.44916">
        <ele>59.8</ele>
        <time>2022-03-30T14:13:53Z</time>
      </trkpt>
      <trkpt lat="49.91299" lon="2.44915">
        <ele>59.8</ele>
        <time>2022-03-30T14:13:54Z</time>
      </trkpt>
      <trkpt lat="49.91298" lon="2.44914">
        <ele>59.7</ele>
        <time>2022-03-30T14:13:55Z</time>
      </trkpt>
      <trkpt lat="49.91297" lon="2.44914">
        <ele>59.7</ele>
        <time>2022-03-30T14:13:56Z</time>
      </trkpt>
      <trkpt lat="49.91296" lon="2.44913">
        <ele>59.7</ele>
        <time>2022-03-30T14:13:57Z</time>
      </trkpt>
      <trkpt lat="49.91295" lon="2.44912">
        <ele>59.7</ele>
        <time>2022-03-30T14:13:58Z</time>
      </trkpt>
      <trkpt lat="49.91293" lon="2.44911">
        <ele>59.7</ele>
        <time>2022-03-30T14:13:59Z</time>
      </trkpt>
      <trkpt lat="49.91292" lon="2.4491">
        <ele>59.7</ele>
        <time>2022-03-30T14:14:00Z</time>
      </trkpt>
      <trkpt lat="49.91292" lon="2.4491">
        <ele>59.6</ele>
        <time>2022-03-30T14:14:01Z</time>
      </trkpt>
      <trkpt lat="49.91291" lon="2.44909">
        <ele>59.6</ele>
        <time>2022-03-30T14:14:02Z</time>
      </trkpt>
      <trkpt lat="49.91289" lon="2.44908">
        <ele>59.6</ele>
        <time>2022-03-30T14:14:03Z</time>
      </trkpt>
      <trkpt lat="49.91288" lon="2.44907">
        <ele>59.6</ele>
        <time>2022-03-30T14:14:04Z</time>
      </trkpt>
      <trkpt lat="49.91287" lon="2.44906">
        <ele>59.6</ele>
        <time>2022-03-30T14:14:05Z</time>
      </trkpt>
      <trkpt lat="49.91286" lon="2.44906">
        <ele>59.6</ele>
        <time>2022-03-30T14:14:06Z</time>
      </trkpt>
      <trkpt lat="49.91285" lon="2.44905">
        <ele>59.5</ele>
        <time>2022-03-30T14:14:07Z</time>
      </trkpt>
      <trkpt lat="49.91284" lon="2.44904">
        <ele>59.5</ele>
        <time>2022-03-30T14:14:08Z</time>
      </trkpt>
      <trkpt lat="49.91283" lon="2.44903">
        <ele>59.5</ele>
        <time>2022-03-30T14:14:09Z</time>
      </trkpt>
      <trkpt lat="49.91282" lon="2.44903">
        <ele>59.5</ele>
        <time>2022-03-30T14:14:10Z</time>
      </trkpt>
      <trkpt lat="49.91281" lon="2.44902">
        <ele>59.5</ele>
        <time>2022-03-30T14:14:11Z</time>
      </trkpt>
      <trkpt lat="49.9128" lon="2.44901">
        <ele>59.4</ele>
        <time>2022-03-30T14:14:12Z</time>
      </trkpt>
      <trkpt lat="49.91278" lon="2.449">
        <ele>59.4</ele>
        <time>2022-03-30T14:14:13Z</time>
      </trkpt>
      <trkpt lat="49.91277" lon="2.44899">
        <ele>59.4</ele>
        <time>2022-03-30T14:14:14Z</time>
      </trkpt>
      <trkpt lat="49.91276" lon="2.44899">
        <ele>59.4</ele>
        <time>2022-03-30T14:14:15Z</time>
      </trkpt>
      <trkpt lat="49.91275" lon="2.44898">
        <ele>59.4</ele>
        <time>2022-03-30T14:14:16Z</time>
      </trkpt>
      <trkpt lat="49.91274" lon="2.44898">
        <ele>59.3</ele>
        <time>2022-03-30T14:14:17Z</time>
      </trkpt>
      <trkpt lat="49.91273" lon="2.44897">
        <ele>59.3</ele>
        <time>2022-03-30T14:14:18Z</time>
      </trkpt>
      <trkpt lat="49.91271" lon="2.44896">
        <ele>59.3</ele>
        <time>2022-03-30T14:14:19Z</time>
      </trkpt>
      <trkpt lat="49.9127" lon="2.44896">
        <ele>59.3</ele>
        <time>2022-03-30T14:14:20Z</time>
      </trkpt>
      <trkpt lat="49.91269" lon="2.44895">
        <ele>59.3</ele>
        <time>2022-03-30T14:14:21Z</time>
      </trkpt>
      <trkpt lat="49.91268" lon="2.44895">
        <ele>59.2</ele>
        <time>2022-03-30T14:14:22Z</time>
      </trkpt>
      <trkpt lat="49.91267" lon="2.44894">
        <ele>59.2</ele>
        <time>2022-03-30T14:14:23Z</time>
      </trkpt>
      <trkpt lat="49.91267" lon="2.44894">
        <ele>59.2</ele>
        <time>2022-03-30T14:14:24Z</time>
      </trkpt>
      <trkpt lat="49.91266" lon="2.44894">
        <ele>59.2</ele>
        <time>2022-03-30T14:14:25Z</time>
      </trkpt>
      <trkpt lat="49.91264" lon="2.44893">
        <ele>59.2</ele>
        <time>2022-03-30T14:14:26Z</time>
      </trkpt>
      <trkpt lat="49.91263" lon="2.44893">
        <ele>59.2</ele>
        <time>2022-03-30T14:14:27Z</time>
      </trkpt>
      <trkpt lat="49.91262" lon="2.44892">
        <ele>59.1</ele>
        <time>2022-03-30T14:14:28Z</time>
      </trkpt>
      <trkpt lat="49.91261" lon="2.44892">
        <ele>59.1</ele>
        <time>2022-03-30T14:14:29Z</time>
      </trkpt>
      <trkpt lat="49.9126" lon="2.44891">
        <ele>59.1</ele>
        <time>2022-03-30T14:14:30Z</time>
      </trkpt>
      <trkpt lat="49.91258" lon="2.44891">
        <ele>59.1</ele>
        <time>2022-03-30T14:14:31Z</time>
      </trkpt>
      <trkpt lat="49.91257" lon="2.44891">
        <ele>59.1</ele>
        <time>2022-03-30T14:14:32Z</time>
      </trkpt>
      <trkpt lat="49.91257" lon="2.4489">
        <ele>59.1</ele>
        <time>2022-03-30T14:14:33Z</time>
      </trkpt>
      <trkpt lat="49.91255" lon="2.4489">
        <ele>59</ele>
        <time>2022-03-30T14:14:34Z</time>
      </trkpt>
      <trkpt lat="49.91254" lon="2.44889">
        <ele>59</ele>
        <time>2022-03-30T14:14:35Z</time>
      </trkpt>
      <trkpt lat="49.91253" lon="2.44889">
        <ele>59</ele>
        <time>2022-03-30T14:14:36Z</time>
      </trkpt>
      <trkpt lat="49.91252" lon="2.44889">
        <ele>59</ele>
        <time>2022-03-30T14:14:37Z</time>
      </trkpt>
      <trkpt lat="49.91251" lon="2.44889">
        <ele>59</ele>
        <time>2022-03-30T14:14:38Z</time>
      </trkpt>
      <trkpt lat="49.9125" lon="2.44888">
        <ele>59</ele>
        <time>2022-03-30T14:14:39Z</time>
      </trkpt>
      <trkpt lat="49.91249" lon="2.44888">
        <ele>59</ele>
        <time>2022-03-30T14:14:40Z</time>
      </trkpt>
      <trkpt lat="49.91248" lon="2.44888">
        <ele>58.9</ele>
        <time>2022-03-30T14:14:41Z</time>
      </trkpt>
      <trkpt lat="49.91247" lon="2.44887">
        <ele>58.9</ele>
        <time>2022-03-30T14:14:42Z</time>
      </trkpt>
      <trkpt lat="49.91244" lon="2.44887">
        <ele>58.9</ele>
        <time>2022-03-30T14:14:43Z</time>
      </trkpt>
      <trkpt lat="49.91244" lon="2.44887">
        <ele>58.9</ele>
        <time>2022-03-30T14:14:44Z</time>
      </trkpt>
      <trkpt lat="49.91243" lon="2.44887">
        <ele>58.9</ele>
        <time>2022-03-30T14:14:45Z</time>
      </trkpt>
      <trkpt lat="49.91241" lon="2.44886">
        <ele>58.8</ele>
        <time>2022-03-30T14:14:46Z</time>
      </trkpt>
      <trkpt lat="49.9124" lon="2.44886">
        <ele>58.8</ele>
        <time>2022-03-30T14:14:47Z</time>
      </trkpt>
      <trkpt lat="49.91239" lon="2.44886">
        <ele>58.8</ele>
        <time>2022-03-30T14:14:48Z</time>
      </trkpt>
      <trkpt lat="49.91237" lon="2.44885">
        <ele>58.8</ele>
        <time>2022-03-30T14:14:49Z</time>
      </trkpt>
      <trkpt lat="49.91236" lon="2.44885">
        <ele>58.8</ele>
        <time>2022-03-30T14:14:50Z</time>
      </trkpt>
      <trkpt lat="49.91235" lon="2.44885">
        <ele>58.8</ele>
        <time>2022-03-30T14:14:51Z</time>
      </trkpt>
      <trkpt lat="49.91234" lon="2.44884">
        <ele>58.7</ele>
        <time>2022-03-30T14:14:52Z</time>
      </trkpt>
      <trkpt lat="49.91233" lon="2.44884">
        <ele>58.7</ele>
        <time>2022-03-30T14:14:53Z</time>
      </trkpt>
      <trkpt lat="49.91232" lon="2.44884">
        <ele>58.7</ele>
        <time>2022-03-30T14:14:54Z</time>
      </trkpt>
      <trkpt lat="49.91231" lon="2.44884">
        <ele>58.7</ele>
        <time>2022-03-30T14:14:55Z</time>
      </trkpt>
      <trkpt lat="49.9123" lon="2.44883">
        <ele>58.7</ele>
        <time>2022-03-30T14:14:56Z</time>
      </trkpt>
      <trkpt lat="49.91229" lon="2.44883">
        <ele>58.6</ele>
        <time>2022-03-30T14:14:57Z</time>
      </trkpt>
      <trkpt lat="49.91228" lon="2.44883">
        <ele>58.6</ele>
        <time>2022-03-30T14:14:58Z</time>
      </trkpt>
      <trkpt lat="49.91227" lon="2.44882">
        <ele>58.6</ele>
        <time>2022-03-30T14:14:59Z</time>
      </trkpt>
      <trkpt lat="49.91225" lon="2.44882">
        <ele>58.6</ele>
        <time>2022-03-30T14:15:00Z</time>
      </trkpt>
      <trkpt lat="49.91224" lon="2.44881">
        <ele>58.5</ele>
        <time>2022-03-30T14:15:01Z</time>
      </trkpt>
      <trkpt lat="49.91223" lon="2.44881">
        <ele>58.5</ele>
        <time>2022-03-30T14:15:02Z</time>
      </trkpt>
      <trkpt lat="49.91221" lon="2.44881">
        <ele>58.5</ele>
        <time>2022-03-30T14:15:03Z</time>
      </trkpt>
      <trkpt lat="49.9122" lon="2.44881">
        <ele>58.5</ele>
        <time>2022-03-30T14:15:04Z</time>
      </trkpt>
      <trkpt lat="49.91219" lon="2.4488">
        <ele>58.4</ele>
        <time>2022-03-30T14:15:05Z</time>
      </trkpt>
      <trkpt lat="49.91219" lon="2.4488">
        <ele>58.4</ele>
        <time>2022-03-30T14:15:06Z</time>
      </trkpt>
      <trkpt lat="49.91217" lon="2.4488">
        <ele>58.4</ele>
        <time>2022-03-30T14:15:07Z</time>
      </trkpt>
      <trkpt lat="49.91216" lon="2.44879">
        <ele>58.4</ele>
        <time>2022-03-30T14:15:08Z</time>
      </trkpt>
      <trkpt lat="49.91215" lon="2.44878">
        <ele>58.3</ele>
        <time>2022-03-30T14:15:09Z</time>
      </trkpt>
      <trkpt lat="49.91214" lon="2.44878">
        <ele>58.3</ele>
        <time>2022-03-30T14:15:10Z</time>
      </trkpt>
      <trkpt lat="49.91213" lon="2.44877">
        <ele>58.3</ele>
        <time>2022-03-30T14:15:11Z</time>
      </trkpt>
      <trkpt lat="49.91212" lon="2.44877">
        <ele>58.2</ele>
        <time>2022-03-30T14:15:12Z</time>
      </trkpt>
      <trkpt lat="49.91211" lon="2.44876">
        <ele>58.2</ele>
        <time>2022-03-30T14:15:13Z</time>
      </trkpt>
      <trkpt lat="49.9121" lon="2.44876">
        <ele>58.2</ele>
        <time>2022-03-30T14:15:14Z</time>
      </trkpt>
      <trkpt lat="49.91208" lon="2.44875">
        <ele>58.1</ele>
        <time>2022-03-30T14:15:15Z</time>
      </trkpt>
      <trkpt lat="49.91207" lon="2.44875">
        <ele>58.1</ele>
        <time>2022-03-30T14:15:16Z</time>
      </trkpt>
      <trkpt lat="49.91206" lon="2.44875">
        <ele>58.1</ele>
        <time>2022-03-30T14:15:17Z</time>
      </trkpt>
      <trkpt lat="49.91205" lon="2.44874">
        <ele>58.1</ele>
        <time>2022-03-30T14:15:18Z</time>
      </trkpt>
      <trkpt lat="49.91204" lon="2.44874">
        <ele>58</ele>
        <time>2022-03-30T14:15:19Z</time>
      </trkpt>
      <trkpt lat="49.91203" lon="2.44873">
        <ele>58</ele>
        <time>2022-03-30T14:15:20Z</time>
      </trkpt>
      <trkpt lat="49.91202" lon="2.44872">
        <ele>58</ele>
        <time>2022-03-30T14:15:21Z</time>
      </trkpt>
      <trkpt lat="49.91201" lon="2.44872">
        <ele>57.9</ele>
        <time>2022-03-30T14:15:22Z</time>
      </trkpt>
      <trkpt lat="49.912" lon="2.44871">
        <ele>57.9</ele>
        <time>2022-03-30T14:15:23Z</time>
      </trkpt>
      <trkpt lat="49.91198" lon="2.4487">
        <ele>57.8</ele>
        <time>2022-03-30T14:15:24Z</time>
      </trkpt>
      <trkpt lat="49.91197" lon="2.4487">
        <ele>57.8</ele>
        <time>2022-03-30T14:15:25Z</time>
      </trkpt>
      <trkpt lat="49.91196" lon="2.44869">
        <ele>57.8</ele>
        <time>2022-03-30T14:15:26Z</time>
      </trkpt>
      <trkpt lat="49.91195" lon="2.44869">
        <ele>57.8</ele>
        <time>2022-03-30T14:15:27Z</time>
      </trkpt>
      <trkpt lat="49.91194" lon="2.44869">
        <ele>57.7</ele>
        <time>2022-03-30T14:15:28Z</time>
      </trkpt>
      <trkpt lat="49.91193" lon="2.44868">
        <ele>57.7</ele>
        <time>2022-03-30T14:15:29Z</time>
      </trkpt>
      <trkpt lat="49.91191" lon="2.44867">
        <ele>57.6</ele>
        <time>2022-03-30T14:15:30Z</time>
      </trkpt>
      <trkpt lat="49.91191" lon="2.44867">
        <ele>57.6</ele>
        <time>2022-03-30T14:15:31Z</time>
      </trkpt>
      <trkpt lat="49.9119" lon="2.44866">
        <ele>57.6</ele>
        <time>2022-03-30T14:15:32Z</time>
      </trkpt>
      <trkpt lat="49.91189" lon="2.44866">
        <ele>57.6</ele>
        <time>2022-03-30T14:15:33Z</time>
      </trkpt>
      <trkpt lat="49.91188" lon="2.44865">
        <ele>57.5</ele>
        <time>2022-03-30T14:15:34Z</time>
      </trkpt>
      <trkpt lat="49.91187" lon="2.44865">
        <ele>57.5</ele>
        <time>2022-03-30T14:15:35Z</time>
      </trkpt>
      <trkpt lat="49.91186" lon="2.44865">
        <ele>57.5</ele>
        <time>2022-03-30T14:15:36Z</time>
      </trkpt>
      <trkpt lat="49.91185" lon="2.44864">
        <ele>57.5</ele>
        <time>2022-03-30T14:15:37Z</time>
      </trkpt>
      <trkpt lat="49.91184" lon="2.44864">
        <ele>57.4</ele>
        <time>2022-03-30T14:15:38Z</time>
      </trkpt>
      <trkpt lat="49.91183" lon="2.44863">
        <ele>57.4</ele>
        <time>2022-03-30T14:15:39Z</time>
      </trkpt>
      <trkpt lat="49.91182" lon="2.44862">
        <ele>57.3</ele>
        <time>2022-03-30T14:15:40Z</time>
      </trkpt>
      <trkpt lat="49.9118" lon="2.44862">
        <ele>57.3</ele>
        <time>2022-03-30T14:15:41Z</time>
      </trkpt>
      <trkpt lat="49.91178" lon="2.44861">
        <ele>57.2</ele>
        <time>2022-03-30T14:15:42Z</time>
      </trkpt>
      <trkpt lat="49.91178" lon="2.4486">
        <ele>57.2</ele>
        <time>2022-03-30T14:15:43Z</time>
      </trkpt>
      <trkpt lat="49.91177" lon="2.4486">
        <ele>57.2</ele>
        <time>2022-03-30T14:15:44Z</time>
      </trkpt>
      <trkpt lat="49.91175" lon="2.44859">
        <ele>57.1</ele>
        <time>2022-03-30T14:15:45Z</time>
      </trkpt>
      <trkpt lat="49.91174" lon="2.44859">
        <ele>57.1</ele>
        <time>2022-03-30T14:15:46Z</time>
      </trkpt>
      <trkpt lat="49.91173" lon="2.44858">
        <ele>57.1</ele>
        <time>2022-03-30T14:15:47Z</time>
      </trkpt>
      <trkpt lat="49.91172" lon="2.44858">
        <ele>57.1</ele>
        <time>2022-03-30T14:15:48Z</time>
      </trkpt>
      <trkpt lat="49.91171" lon="2.44857">
        <ele>57</ele>
        <time>2022-03-30T14:15:49Z</time>
      </trkpt>
      <trkpt lat="49.9117" lon="2.44857">
        <ele>57</ele>
        <time>2022-03-30T14:15:50Z</time>
      </trkpt>
      <trkpt lat="49.91169" lon="2.44856">
        <ele>57</ele>
        <time>2022-03-30T14:15:51Z</time>
      </trkpt>
      <trkpt lat="49.91168" lon="2.44856">
        <ele>56.9</ele>
        <time>2022-03-30T14:15:52Z</time>
      </trkpt>
      <trkpt lat="49.91167" lon="2.44856">
        <ele>56.9</ele>
        <time>2022-03-30T14:15:53Z</time>
      </trkpt>
      <trkpt lat="49.91167" lon="2.44855">
        <ele>56.9</ele>
        <time>2022-03-30T14:15:54Z</time>
      </trkpt>
      <trkpt lat="49.91166" lon="2.44855">
        <ele>56.9</ele>
        <time>2022-03-30T14:15:55Z</time>
      </trkpt>
      <trkpt lat="49.91165" lon="2.44855">
        <ele>56.8</ele>
        <time>2022-03-30T14:15:56Z</time>
      </trkpt>
      <trkpt lat="49.91164" lon="2.44854">
        <ele>56.8</ele>
        <time>2022-03-30T14:15:57Z</time>
      </trkpt>
      <trkpt lat="49.91161" lon="2.44853">
        <ele>56.8</ele>
        <time>2022-03-30T14:15:58Z</time>
      </trkpt>
      <trkpt lat="49.9116" lon="2.44853">
        <ele>56.7</ele>
        <time>2022-03-30T14:16:00Z</time>
      </trkpt>
      <trkpt lat="49.91159" lon="2.44852">
        <ele>56.7</ele>
        <time>2022-03-30T14:16:01Z</time>
      </trkpt>
      <trkpt lat="49.91157" lon="2.44851">
        <ele>56.6</ele>
        <time>2022-03-30T14:16:02Z</time>
      </trkpt>
      <trkpt lat="49.91156" lon="2.44851">
        <ele>56.6</ele>
        <time>2022-03-30T14:16:03Z</time>
      </trkpt>
      <trkpt lat="49.91156" lon="2.4485">
        <ele>56.6</ele>
        <time>2022-03-30T14:16:04Z</time>
      </trkpt>
      <trkpt lat="49.91155" lon="2.4485">
        <ele>56.6</ele>
        <time>2022-03-30T14:16:05Z</time>
      </trkpt>
      <trkpt lat="49.91153" lon="2.44849">
        <ele>56.5</ele>
        <time>2022-03-30T14:16:06Z</time>
      </trkpt>
      <trkpt lat="49.91152" lon="2.44849">
        <ele>56.5</ele>
        <time>2022-03-30T14:16:07Z</time>
      </trkpt>
      <trkpt lat="49.91152" lon="2.44848">
        <ele>56.5</ele>
        <time>2022-03-30T14:16:08Z</time>
      </trkpt>
      <trkpt lat="49.91151" lon="2.44848">
        <ele>56.5</ele>
        <time>2022-03-30T14:16:09Z</time>
      </trkpt>
      <trkpt lat="49.9115" lon="2.44847">
        <ele>56.5</ele>
        <time>2022-03-30T14:16:10Z</time>
      </trkpt>
      <trkpt lat="49.91148" lon="2.44846">
        <ele>56.4</ele>
        <time>2022-03-30T14:16:11Z</time>
      </trkpt>
      <trkpt lat="49.91147" lon="2.44845">
        <ele>56.4</ele>
        <time>2022-03-30T14:16:12Z</time>
      </trkpt>
      <trkpt lat="49.91146" lon="2.44845">
        <ele>56.4</ele>
        <time>2022-03-30T14:16:13Z</time>
      </trkpt>
      <trkpt lat="49.91145" lon="2.44844">
        <ele>56.3</ele>
        <time>2022-03-30T14:16:14Z</time>
      </trkpt>
      <trkpt lat="49.91144" lon="2.44843">
        <ele>56.3</ele>
        <time>2022-03-30T14:16:15Z</time>
      </trkpt>
      <trkpt lat="49.91143" lon="2.44842">
        <ele>56.3</ele>
        <time>2022-03-30T14:16:16Z</time>
      </trkpt>
      <trkpt lat="49.91141" lon="2.44841">
        <ele>56.3</ele>
        <time>2022-03-30T14:16:17Z</time>
      </trkpt>
      <trkpt lat="49.91141" lon="2.44841">
        <ele>56.2</ele>
        <time>2022-03-30T14:16:18Z</time>
      </trkpt>
      <trkpt lat="49.9114" lon="2.4484">
        <ele>56.2</ele>
        <time>2022-03-30T14:16:19Z</time>
      </trkpt>
      <trkpt lat="49.91138" lon="2.44839">
        <ele>56.2</ele>
        <time>2022-03-30T14:16:20Z</time>
      </trkpt>
      <trkpt lat="49.91137" lon="2.44838">
        <ele>56.2</ele>
        <time>2022-03-30T14:16:21Z</time>
      </trkpt>
      <trkpt lat="49.91136" lon="2.44838">
        <ele>56.1</ele>
        <time>2022-03-30T14:16:22Z</time>
      </trkpt>
      <trkpt lat="49.91134" lon="2.44836">
        <ele>56.1</ele>
        <time>2022-03-30T14:16:23Z</time>
      </trkpt>
      <trkpt lat="49.91133" lon="2.44836">
        <ele>56.1</ele>
        <time>2022-03-30T14:16:24Z</time>
      </trkpt>
      <trkpt lat="49.91133" lon="2.44835">
        <ele>56</ele>
        <time>2022-03-30T14:16:25Z</time>
      </trkpt>
      <trkpt lat="49.91132" lon="2.44834">
        <ele>56</ele>
        <time>2022-03-30T14:16:26Z</time>
      </trkpt>
      <trkpt lat="49.91131" lon="2.44834">
        <ele>56</ele>
        <time>2022-03-30T14:16:27Z</time>
      </trkpt>
      <trkpt lat="49.9113" lon="2.44833">
        <ele>56</ele>
        <time>2022-03-30T14:16:28Z</time>
      </trkpt>
      <trkpt lat="49.91128" lon="2.44832">
        <ele>55.9</ele>
        <time>2022-03-30T14:16:29Z</time>
      </trkpt>
      <trkpt lat="49.91127" lon="2.44831">
        <ele>55.9</ele>
        <time>2022-03-30T14:16:30Z</time>
      </trkpt>
      <trkpt lat="49.91127" lon="2.44831">
        <ele>55.9</ele>
        <time>2022-03-30T14:16:31Z</time>
      </trkpt>
      <trkpt lat="49.91125" lon="2.44829">
        <ele>55.9</ele>
        <time>2022-03-30T14:16:32Z</time>
      </trkpt>
      <trkpt lat="49.91124" lon="2.44829">
        <ele>55.8</ele>
        <time>2022-03-30T14:16:33Z</time>
      </trkpt>
      <trkpt lat="49.91123" lon="2.44828">
        <ele>55.8</ele>
        <time>2022-03-30T14:16:34Z</time>
      </trkpt>
      <trkpt lat="49.91121" lon="2.44827">
        <ele>55.8</ele>
        <time>2022-03-30T14:16:35Z</time>
      </trkpt>
      <trkpt lat="49.9112" lon="2.44827">
        <ele>55.8</ele>
        <time>2022-03-30T14:16:36Z</time>
      </trkpt>
      <trkpt lat="49.91119" lon="2.44826">
        <ele>55.7</ele>
        <time>2022-03-30T14:16:37Z</time>
      </trkpt>
      <trkpt lat="49.91118" lon="2.44825">
        <ele>55.7</ele>
        <time>2022-03-30T14:16:38Z</time>
      </trkpt>
      <trkpt lat="49.91117" lon="2.44825">
        <ele>55.7</ele>
        <time>2022-03-30T14:16:39Z</time>
      </trkpt>
      <trkpt lat="49.91115" lon="2.44823">
        <ele>55.6</ele>
        <time>2022-03-30T14:16:40Z</time>
      </trkpt>
      <trkpt lat="49.91114" lon="2.44823">
        <ele>55.6</ele>
        <time>2022-03-30T14:16:41Z</time>
      </trkpt>
      <trkpt lat="49.91113" lon="2.44822">
        <ele>55.6</ele>
        <time>2022-03-30T14:16:42Z</time>
      </trkpt>
      <trkpt lat="49.91112" lon="2.44822">
        <ele>55.6</ele>
        <time>2022-03-30T14:16:43Z</time>
      </trkpt>
      <trkpt lat="49.91111" lon="2.44821">
        <ele>55.5</ele>
        <time>2022-03-30T14:16:44Z</time>
      </trkpt>
      <trkpt lat="49.9111" lon="2.44821">
        <ele>55.5</ele>
        <time>2022-03-30T14:16:45Z</time>
      </trkpt>
      <trkpt lat="49.91108" lon="2.4482">
        <ele>55.5</ele>
        <time>2022-03-30T14:16:46Z</time>
      </trkpt>
      <trkpt lat="49.91108" lon="2.44819">
        <ele>55.5</ele>
        <time>2022-03-30T14:16:47Z</time>
      </trkpt>
      <trkpt lat="49.91107" lon="2.44819">
        <ele>55.4</ele>
        <time>2022-03-30T14:16:48Z</time>
      </trkpt>
      <trkpt lat="49.91105" lon="2.44818">
        <ele>55.4</ele>
        <time>2022-03-30T14:16:49Z</time>
      </trkpt>
      <trkpt lat="49.91104" lon="2.44818">
        <ele>55.4</ele>
        <time>2022-03-30T14:16:50Z</time>
      </trkpt>
      <trkpt lat="49.91103" lon="2.44817">
        <ele>55.4</ele>
        <time>2022-03-30T14:16:51Z</time>
      </trkpt>
      <trkpt lat="49.91101" lon="2.44816">
        <ele>55.3</ele>
        <time>2022-03-30T14:16:52Z</time>
      </trkpt>
      <trkpt lat="49.911" lon="2.44816">
        <ele>55.3</ele>
        <time>2022-03-30T14:16:53Z</time>
      </trkpt>
      <trkpt lat="49.911" lon="2.44815">
        <ele>55.3</ele>
        <time>2022-03-30T14:16:54Z</time>
      </trkpt>
      <trkpt lat="49.91098" lon="2.44815">
        <ele>55.3</ele>
        <time>2022-03-30T14:16:55Z</time>
      </trkpt>
      <trkpt lat="49.91097" lon="2.44814">
        <ele>55.2</ele>
        <time>2022-03-30T14:16:56Z</time>
      </trkpt>
      <trkpt lat="49.91096" lon="2.44814">
        <ele>55.2</ele>
        <time>2022-03-30T14:16:57Z</time>
      </trkpt>
      <trkpt lat="49.91095" lon="2.44814">
        <ele>55.2</ele>
        <time>2022-03-30T14:16:58Z</time>
      </trkpt>
      <trkpt lat="49.91094" lon="2.44813">
        <ele>55.2</ele>
        <time>2022-03-30T14:16:59Z</time>
      </trkpt>
      <trkpt lat="49.91092" lon="2.44813">
        <ele>55.2</ele>
        <time>2022-03-30T14:17:00Z</time>
      </trkpt>
      <trkpt lat="49.91091" lon="2.44812">
        <ele>55.1</ele>
        <time>2022-03-30T14:17:01Z</time>
      </trkpt>
      <trkpt lat="49.9109" lon="2.44812">
        <ele>55.1</ele>
        <time>2022-03-30T14:17:02Z</time>
      </trkpt>
      <trkpt lat="49.91089" lon="2.44812">
        <ele>55.1</ele>
        <time>2022-03-30T14:17:03Z</time>
      </trkpt>
      <trkpt lat="49.91089" lon="2.44812">
        <ele>55.1</ele>
        <time>2022-03-30T14:17:04Z</time>
      </trkpt>
      <trkpt lat="49.91088" lon="2.44811">
        <ele>55.1</ele>
        <time>2022-03-30T14:17:05Z</time>
      </trkpt>
      <trkpt lat="49.91087" lon="2.44811">
        <ele>55</ele>
        <time>2022-03-30T14:17:06Z</time>
      </trkpt>
      <trkpt lat="49.91084" lon="2.4481">
        <ele>55</ele>
        <time>2022-03-30T14:17:07Z</time>
      </trkpt>
      <trkpt lat="49.91084" lon="2.4481">
        <ele>55</ele>
        <time>2022-03-30T14:17:08Z</time>
      </trkpt>
      <trkpt lat="49.91083" lon="2.4481">
        <ele>55</ele>
        <time>2022-03-30T14:17:09Z</time>
      </trkpt>
      <trkpt lat="49.91082" lon="2.44809">
        <ele>54.9</ele>
        <time>2022-03-30T14:17:10Z</time>
      </trkpt>
      <trkpt lat="49.9108" lon="2.44809">
        <ele>54.9</ele>
        <time>2022-03-30T14:17:11Z</time>
      </trkpt>
      <trkpt lat="49.91079" lon="2.44809">
        <ele>54.9</ele>
        <time>2022-03-30T14:17:12Z</time>
      </trkpt>
      <trkpt lat="49.91077" lon="2.44808">
        <ele>54.8</ele>
        <time>2022-03-30T14:17:13Z</time>
      </trkpt>
      <trkpt lat="49.91076" lon="2.44808">
        <ele>54.8</ele>
        <time>2022-03-30T14:17:14Z</time>
      </trkpt>
      <trkpt lat="49.91076" lon="2.44808">
        <ele>54.8</ele>
        <time>2022-03-30T14:17:15Z</time>
      </trkpt>
      <trkpt lat="49.91074" lon="2.44807">
        <ele>54.8</ele>
        <time>2022-03-30T14:17:16Z</time>
      </trkpt>
      <trkpt lat="49.91074" lon="2.44807">
        <ele>54.7</ele>
        <time>2022-03-30T14:17:17Z</time>
      </trkpt>
      <trkpt lat="49.91073" lon="2.44807">
        <ele>54.7</ele>
        <time>2022-03-30T14:17:18Z</time>
      </trkpt>
      <trkpt lat="49.91071" lon="2.44806">
        <ele>54.6</ele>
        <time>2022-03-30T14:17:19Z</time>
      </trkpt>
      <trkpt lat="49.9107" lon="2.44806">
        <ele>54.6</ele>
        <time>2022-03-30T14:17:20Z</time>
      </trkpt>
      <trkpt lat="49.91069" lon="2.44805">
        <ele>54.6</ele>
        <time>2022-03-30T14:17:21Z</time>
      </trkpt>
      <trkpt lat="49.91067" lon="2.44805">
        <ele>54.6</ele>
        <time>2022-03-30T14:17:22Z</time>
      </trkpt>
      <trkpt lat="49.91066" lon="2.44805">
        <ele>54.5</ele>
        <time>2022-03-30T14:17:23Z</time>
      </trkpt>
      <trkpt lat="49.91065" lon="2.44804">
        <ele>54.5</ele>
        <time>2022-03-30T14:17:24Z</time>
      </trkpt>
      <trkpt lat="49.91064" lon="2.44804">
        <ele>54.5</ele>
        <time>2022-03-30T14:17:25Z</time>
      </trkpt>
      <trkpt lat="49.91063" lon="2.44804">
        <ele>54.4</ele>
        <time>2022-03-30T14:17:26Z</time>
      </trkpt>
      <trkpt lat="49.91062" lon="2.44803">
        <ele>54.4</ele>
        <time>2022-03-30T14:17:27Z</time>
      </trkpt>
      <trkpt lat="49.91061" lon="2.44803">
        <ele>54.4</ele>
        <time>2022-03-30T14:17:28Z</time>
      </trkpt>
      <trkpt lat="49.9106" lon="2.44803">
        <ele>54.4</ele>
        <time>2022-03-30T14:17:29Z</time>
      </trkpt>
      <trkpt lat="49.91059" lon="2.44803">
        <ele>54.3</ele>
        <time>2022-03-30T14:17:30Z</time>
      </trkpt>
      <trkpt lat="49.91058" lon="2.44803">
        <ele>54.3</ele>
        <time>2022-03-30T14:17:31Z</time>
      </trkpt>
      <trkpt lat="49.91057" lon="2.44802">
        <ele>54.3</ele>
        <time>2022-03-30T14:17:32Z</time>
      </trkpt>
      <trkpt lat="49.91056" lon="2.44803">
        <ele>54.3</ele>
        <time>2022-03-30T14:17:33Z</time>
      </trkpt>
      <trkpt lat="49.91055" lon="2.44803">
        <ele>54.2</ele>
        <time>2022-03-30T14:17:34Z</time>
      </trkpt>
      <trkpt lat="49.91054" lon="2.44803">
        <ele>54.2</ele>
        <time>2022-03-30T14:17:35Z</time>
      </trkpt>
      <trkpt lat="49.91053" lon="2.44803">
        <ele>54.2</ele>
        <time>2022-03-30T14:17:36Z</time>
      </trkpt>
      <trkpt lat="49.91053" lon="2.44803">
        <ele>54.1</ele>
        <time>2022-03-30T14:17:37Z</time>
      </trkpt>
      <trkpt lat="49.91052" lon="2.44803">
        <ele>54.1</ele>
        <time>2022-03-30T14:17:38Z</time>
      </trkpt>
      <trkpt lat="49.91051" lon="2.44803">
        <ele>54.1</ele>
        <time>2022-03-30T14:17:39Z</time>
      </trkpt>
      <trkpt lat="49.9105" lon="2.44803">
        <ele>54.1</ele>
        <time>2022-03-30T14:17:40Z</time>
      </trkpt>
      <trkpt lat="49.9105" lon="2.44803">
        <ele>54</ele>
        <time>2022-03-30T14:17:41Z</time>
      </trkpt>
      <trkpt lat="49.91049" lon="2.44802">
        <ele>54</ele>
        <time>2022-03-30T14:17:42Z</time>
      </trkpt>
      <trkpt lat="49.91048" lon="2.44802">
        <ele>54</ele>
        <time>2022-03-30T14:17:43Z</time>
      </trkpt>
      <trkpt lat="49.91048" lon="2.44801">
        <ele>54</ele>
        <time>2022-03-30T14:17:44Z</time>
      </trkpt>
      <trkpt lat="49.91048" lon="2.448">
        <ele>53.9</ele>
        <time>2022-03-30T14:17:45Z</time>
      </trkpt>
      <trkpt lat="49.91048" lon="2.448">
        <ele>53.9</ele>
        <time>2022-03-30T14:17:46Z</time>
      </trkpt>
      <trkpt lat="49.91048" lon="2.448">
        <ele>53.9</ele>
        <time>2022-03-30T14:17:47Z</time>
      </trkpt>
      <trkpt lat="49.91048" lon="2.448">
        <ele>53.9</ele>
        <time>2022-03-30T14:17:48Z</time>
      </trkpt>
      <trkpt lat="49.91048" lon="2.448">
        <ele>53.9</ele>
        <time>2022-03-30T14:17:49Z</time>
      </trkpt>
      <trkpt lat="49.91048" lon="2.448">
        <ele>53.9</ele>
        <time>2022-03-30T14:17:50Z</time>
      </trkpt>
      <trkpt lat="49.91048" lon="2.448">
        <ele>53.9</ele>
        <time>2022-03-30T14:17:51Z</time>
      </trkpt>
      <trkpt lat="49.91048" lon="2.448">
        <ele>53.9</ele>
        <time>2022-03-30T14:17:52Z</time>
      </trkpt>
      <trkpt lat="49.91048" lon="2.448">
        <ele>53.9</ele>
        <time>2022-03-30T14:17:53Z</time>
      </trkpt>
      <trkpt lat="49.91048" lon="2.448">
        <ele>53.9</ele>
        <time>2022-03-30T14:17:54Z</time>
      </trkpt>
      <trkpt lat="49.91048" lon="2.448">
        <ele>53.9</ele>
        <time>2022-03-30T14:17:55Z</time>
      </trkpt>
      <trkpt lat="49.91048" lon="2.448">
        <ele>53.9</ele>
        <time>2022-03-30T14:17:56Z</time>
      </trkpt>
      <trkpt lat="49.91048" lon="2.448">
        <ele>53.9</ele>
        <time>2022-03-30T14:17:57Z</time>
      </trkpt>
      <trkpt lat="49.91048" lon="2.448">
        <ele>53.9</ele>
        <time>2022-03-30T14:17:58Z</time>
      </trkpt>
      <trkpt lat="49.91048" lon="2.448">
        <ele>53.9</ele>
        <time>2022-03-30T14:17:59Z</time>
      </trkpt>
      <trkpt lat="49.91048" lon="2.448">
        <ele>53.9</ele>
        <time>2022-03-30T14:18:00Z</time>
      </trkpt>
      <trkpt lat="49.91048" lon="2.448">
        <ele>53.9</ele>
        <time>2022-03-30T14:18:01Z</time>
      </trkpt>
      <trkpt lat="49.91048" lon="2.448">
        <ele>53.9</ele>
        <time>2022-03-30T14:18:02Z</time>
      </trkpt>
      <trkpt lat="49.91048" lon="2.448">
        <ele>53.9</ele>
        <time>2022-03-30T14:18:03Z</time>
      </trkpt>
      <trkpt lat="49.91048" lon="2.448">
        <ele>53.9</ele>
        <time>2022-03-30T14:18:04Z</time>
      </trkpt>
      <trkpt lat="49.91048" lon="2.448">
        <ele>53.9</ele>
        <time>2022-03-30T14:18:05Z</time>
      </trkpt>
      <trkpt lat="49.91048" lon="2.448">
        <ele>53.9</ele>
        <time>2022-03-30T14:18:06Z</time>
      </trkpt>
      <trkpt lat="49.91048" lon="2.448">
        <ele>53.9</ele>
        <time>2022-03-30T14:18:07Z</time>
      </trkpt>
      <trkpt lat="49.91048" lon="2.448">
        <ele>53.9</ele>
        <time>2022-03-30T14:18:08Z</time>
      </trkpt>
      <trkpt lat="49.91048" lon="2.448">
        <ele>53.9</ele>
        <time>2022-03-30T14:18:09Z</time>
      </trkpt>
      <trkpt lat="49.91048" lon="2.448">
        <ele>53.9</ele>
        <time>2022-03-30T14:18:10Z</time>
      </trkpt>
      <trkpt lat="49.91048" lon="2.448">
        <ele>53.9</ele>
        <time>2022-03-30T14:18:11Z</time>
      </trkpt>
      <trkpt lat="49.91048" lon="2.448">
        <ele>53.9</ele>
        <time>2022-03-30T14:18:12Z</time>
      </trkpt>
      <trkpt lat="49.91048" lon="2.448">
        <ele>53.9</ele>
        <time>2022-03-30T14:18:13Z</time>
      </trkpt>
      <trkpt lat="49.91048" lon="2.448">
        <ele>53.9</ele>
        <time>2022-03-30T14:18:14Z</time>
      </trkpt>
      <trkpt lat="49.91048" lon="2.448">
        <ele>53.9</ele>
        <time>2022-03-30T14:18:15Z</time>
      </trkpt>
      <trkpt lat="49.91048" lon="2.448">
        <ele>53.9</ele>
        <time>2022-03-30T14:18:16Z</time>
      </trkpt>
      <trkpt lat="49.91048" lon="2.448">
        <ele>53.9</ele>
        <time>2022-03-30T14:18:17Z</time>
      </trkpt>
      <trkpt lat="49.91048" lon="2.448">
        <ele>53.9</ele>
        <time>2022-03-30T14:18:18Z</time>
      </trkpt>
      <trkpt lat="49.91048" lon="2.448">
        <ele>53.9</ele>
        <time>2022-03-30T14:18:19Z</time>
      </trkpt>
      <trkpt lat="49.91048" lon="2.448">
        <ele>53.9</ele>
        <time>2022-03-30T14:18:20Z</time>
      </trkpt>
      <trkpt lat="49.91048" lon="2.448">
        <ele>53.9</ele>
        <time>2022-03-30T14:18:21Z</time>
      </trkpt>
      <trkpt lat="49.91048" lon="2.448">
        <ele>53.9</ele>
        <time>2022-03-30T14:18:22Z</time>
      </trkpt>
      <trkpt lat="49.91048" lon="2.448">
        <ele>53.9</ele>
        <time>2022-03-30T14:18:23Z</time>
      </trkpt>
      <trkpt lat="49.91048" lon="2.448">
        <ele>53.9</ele>
        <time>2022-03-30T14:18:24Z</time>
      </trkpt>
      <trkpt lat="49.91048" lon="2.448">
        <ele>53.9</ele>
        <time>2022-03-30T14:18:25Z</time>
      </trkpt>
      <trkpt lat="49.91048" lon="2.448">
        <ele>53.9</ele>
        <time>2022-03-30T14:18:26Z</time>
      </trkpt>
      <trkpt lat="49.91048" lon="2.448">
        <ele>53.9</ele>
        <time>2022-03-30T14:18:27Z</time>
      </trkpt>
      <trkpt lat="49.91048" lon="2.448">
        <ele>53.9</ele>
        <time>2022-03-30T14:18:28Z</time>
      </trkpt>
      <trkpt lat="49.91048" lon="2.448">
        <ele>53.9</ele>
        <time>2022-03-30T14:18:29Z</time>
      </trkpt>
      <trkpt lat="49.91048" lon="2.448">
        <ele>53.9</ele>
        <time>2022-03-30T14:18:30Z</time>
      </trkpt>
      <trkpt lat="49.91048" lon="2.448">
        <ele>53.9</ele>
        <time>2022-03-30T14:18:31Z</time>
      </trkpt>
      <trkpt lat="49.9105" lon="2.44802">
        <ele>53.8</ele>
        <time>2022-03-30T14:18:32Z</time>
      </trkpt>
      <trkpt lat="49.9105" lon="2.44803">
        <ele>53.8</ele>
        <time>2022-03-30T14:18:33Z</time>
      </trkpt>
      <trkpt lat="49.9105" lon="2.44804">
        <ele>53.8</ele>
        <time>2022-03-30T14:18:34Z</time>
      </trkpt>
      <trkpt lat="49.9105" lon="2.44804">
        <ele>53.8</ele>
        <time>2022-03-30T14:18:35Z</time>
      </trkpt>
      <trkpt lat="49.91049" lon="2.44804">
        <ele>53.7</ele>
        <time>2022-03-30T14:18:36Z</time>
      </trkpt>
      <trkpt lat="49.91048" lon="2.44804">
        <ele>53.7</ele>
        <time>2022-03-30T14:18:37Z</time>
      </trkpt>
      <trkpt lat="49.91047" lon="2.44804">
        <ele>53.7</ele>
        <time>2022-03-30T14:18:38Z</time>
      </trkpt>
      <trkpt lat="49.91046" lon="2.44804">
        <ele>53.6</ele>
        <time>2022-03-30T14:18:39Z</time>
      </trkpt>
      <trkpt lat="49.91044" lon="2.44804">
        <ele>53.6</ele>
        <time>2022-03-30T14:18:40Z</time>
      </trkpt>
      <trkpt lat="49.91044" lon="2.44804">
        <ele>53.5</ele>
        <time>2022-03-30T14:18:41Z</time>
      </trkpt>
      <trkpt lat="49.91043" lon="2.44804">
        <ele>53.5</ele>
        <time>2022-03-30T14:18:42Z</time>
      </trkpt>
      <trkpt lat="49.91041" lon="2.44803">
        <ele>53.4</ele>
        <time>2022-03-30T14:18:43Z</time>
      </trkpt>
      <trkpt lat="49.9104" lon="2.44802">
        <ele>53.4</ele>
        <time>2022-03-30T14:18:44Z</time>
      </trkpt>
      <trkpt lat="49.91039" lon="2.44801">
        <ele>53.2</ele>
        <time>2022-03-30T14:18:45Z</time>
      </trkpt>
      <trkpt lat="49.91038" lon="2.448">
        <ele>53.2</ele>
        <time>2022-03-30T14:18:46Z</time>
      </trkpt>
      <trkpt lat="49.91037" lon="2.44799">
        <ele>53.2</ele>
        <time>2022-03-30T14:18:47Z</time>
      </trkpt>
      <trkpt lat="49.91037" lon="2.44799">
        <ele>53.2</ele>
        <time>2022-03-30T14:18:48Z</time>
      </trkpt>
      <trkpt lat="49.91036" lon="2.44798">
        <ele>53.1</ele>
        <time>2022-03-30T14:18:49Z</time>
      </trkpt>
      <trkpt lat="49.91035" lon="2.44797">
        <ele>53.1</ele>
        <time>2022-03-30T14:18:50Z</time>
      </trkpt>
      <trkpt lat="49.91034" lon="2.44796">
        <ele>53.1</ele>
        <time>2022-03-30T14:18:51Z</time>
      </trkpt>
      <trkpt lat="49.91033" lon="2.44796">
        <ele>53</ele>
        <time>2022-03-30T14:18:52Z</time>
      </trkpt>
      <trkpt lat="49.91032" lon="2.44795">
        <ele>53</ele>
        <time>2022-03-30T14:18:53Z</time>
      </trkpt>
      <trkpt lat="49.91031" lon="2.44794">
        <ele>53</ele>
        <time>2022-03-30T14:18:54Z</time>
      </trkpt>
      <trkpt lat="49.9103" lon="2.44794">
        <ele>52.9</ele>
        <time>2022-03-30T14:18:55Z</time>
      </trkpt>
      <trkpt lat="49.91029" lon="2.44793">
        <ele>52.9</ele>
        <time>2022-03-30T14:18:56Z</time>
      </trkpt>
      <trkpt lat="49.91028" lon="2.44792">
        <ele>52.9</ele>
        <time>2022-03-30T14:18:57Z</time>
      </trkpt>
      <trkpt lat="49.91027" lon="2.44791">
        <ele>52.9</ele>
        <time>2022-03-30T14:18:58Z</time>
      </trkpt>
      <trkpt lat="49.91026" lon="2.4479">
        <ele>52.8</ele>
        <time>2022-03-30T14:18:59Z</time>
      </trkpt>
      <trkpt lat="49.91025" lon="2.4479">
        <ele>52.8</ele>
        <time>2022-03-30T14:19:00Z</time>
      </trkpt>
      <trkpt lat="49.91024" lon="2.44789">
        <ele>52.8</ele>
        <time>2022-03-30T14:19:01Z</time>
      </trkpt>
      <trkpt lat="49.91023" lon="2.44788">
        <ele>52.7</ele>
        <time>2022-03-30T14:19:02Z</time>
      </trkpt>
      <trkpt lat="49.91021" lon="2.44786">
        <ele>52.7</ele>
        <time>2022-03-30T14:19:03Z</time>
      </trkpt>
      <trkpt lat="49.9102" lon="2.44786">
        <ele>52.6</ele>
        <time>2022-03-30T14:19:04Z</time>
      </trkpt>
      <trkpt lat="49.91019" lon="2.44785">
        <ele>52.6</ele>
        <time>2022-03-30T14:19:05Z</time>
      </trkpt>
      <trkpt lat="49.91018" lon="2.44784">
        <ele>52.6</ele>
        <time>2022-03-30T14:19:06Z</time>
      </trkpt>
      <trkpt lat="49.91017" lon="2.44783">
        <ele>52.5</ele>
        <time>2022-03-30T14:19:07Z</time>
      </trkpt>
      <trkpt lat="49.91016" lon="2.44782">
        <ele>52.5</ele>
        <time>2022-03-30T14:19:08Z</time>
      </trkpt>
      <trkpt lat="49.91016" lon="2.44782">
        <ele>52.5</ele>
        <time>2022-03-30T14:19:09Z</time>
      </trkpt>
      <trkpt lat="49.91015" lon="2.44781">
        <ele>52.5</ele>
        <time>2022-03-30T14:19:10Z</time>
      </trkpt>
      <trkpt lat="49.91014" lon="2.4478">
        <ele>52.4</ele>
        <time>2022-03-30T14:19:11Z</time>
      </trkpt>
      <trkpt lat="49.91013" lon="2.44779">
        <ele>52.4</ele>
        <time>2022-03-30T14:19:12Z</time>
      </trkpt>
      <trkpt lat="49.91012" lon="2.44778">
        <ele>52.4</ele>
        <time>2022-03-30T14:19:13Z</time>
      </trkpt>
      <trkpt lat="49.91011" lon="2.44777">
        <ele>52.3</ele>
        <time>2022-03-30T14:19:14Z</time>
      </trkpt>
      <trkpt lat="49.9101" lon="2.44776">
        <ele>52.3</ele>
        <time>2022-03-30T14:19:15Z</time>
      </trkpt>
      <trkpt lat="49.91009" lon="2.44775">
        <ele>52.3</ele>
        <time>2022-03-30T14:19:16Z</time>
      </trkpt>
      <trkpt lat="49.91007" lon="2.44773">
        <ele>52.2</ele>
        <time>2022-03-30T14:19:17Z</time>
      </trkpt>
      <trkpt lat="49.91006" lon="2.44772">
        <ele>52.2</ele>
        <time>2022-03-30T14:19:18Z</time>
      </trkpt>
      <trkpt lat="49.91006" lon="2.44772">
        <ele>52.2</ele>
        <time>2022-03-30T14:19:19Z</time>
      </trkpt>
      <trkpt lat="49.90915" lon="2.4469">
        <ele>50.4</ele>
      </trkpt>
      <trkpt lat="49.90605" lon="2.44562">
        <ele>38.7</ele>
      </trkpt>
      <trkpt lat="49.90487" lon="2.4462">
        <ele>37</ele>
        <time>2022-03-30T11:56:41Z</time>
      </trkpt>
      <trkpt lat="49.90506" lon="2.44615">
        <ele>37</ele>
      </trkpt>
    </trkseg>
  </trk>
</gpx>